<?xml version='1.0' encoding='UTF-8'?><gpx version="1.1" creator="JPX - https://github.com/jenetics/jpx" xmlns="http://www.topografix.com/GPX/1/1"><trk><trkseg><trkpt lat="45.162587841576766" lon="8.460391206245166"><ele>107.0</ele><time>2026-04-06T08:30:57.999Z</time></trkpt><trkpt lat="45.16253572546784" lon="8.460283646402429"><ele>106.99999999999999</ele><time>2026-04-06T08:30:59.999Z</time></trkpt><trkpt lat="45.1626199503935" lon="8.460205670313393"><ele>106.99999999999999</ele><time>2026-04-06T08:31:01.999Z</time></trkpt><trkpt lat="45.16273167999774" lon="8.460262199701749"><ele>107.0</ele><time>2026-04-06T08:31:03.999Z</time></trkpt><trkpt lat="45.16283310583938" lon="8.460281288069929"><ele>107.0</ele><time>2026-04-06T08:31:05.999Z</time></trkpt><trkpt lat="45.162912812863276" lon="8.460268262376603"><ele>106.99999999999999</ele><time>2026-04-06T08:31:08.999Z</time></trkpt><trkpt lat="45.16297541724341" lon="8.460253294623877"><ele>107.0</ele><time>2026-04-06T08:31:10.999Z</time></trkpt><trkpt lat="45.16304141815473" lon="8.460276968237425"><ele>107.0</ele><time>2026-04-06T08:31:11.999Z</time></trkpt><trkpt lat="45.16311534219305" lon="8.460335609209341"><ele>107.0</ele><time>2026-04-06T08:31:12.999Z</time></trkpt><trkpt lat="45.16320502910736" lon="8.460411272326777"><ele>106.99999999999999</ele><time>2026-04-06T08:31:13.999Z</time></trkpt><trkpt lat="45.16330978163111" lon="8.460495931776576"><ele>107.0</ele><time>2026-04-06T08:31:14.999Z</time></trkpt><trkpt lat="45.163433977337014" lon="8.460579826707788"><ele>107.0</ele><time>2026-04-06T08:31:15.999Z</time></trkpt><trkpt lat="45.163588868441046" lon="8.46068214468745"><ele>107.0</ele><time>2026-04-06T08:31:16.999Z</time></trkpt><trkpt lat="45.16374050472298" lon="8.460778578966345"><ele>107.0</ele><time>2026-04-06T08:31:17.999Z</time></trkpt><trkpt lat="45.163905083419664" lon="8.460885212128057"><ele>107.33333333333333</ele><time>2026-04-06T08:31:18.999Z</time></trkpt><trkpt lat="45.16407246567953" lon="8.460996427149551"><ele>107.66666666666666</ele><time>2026-04-06T08:31:19.999Z</time></trkpt><trkpt lat="45.1642508912012" lon="8.461115346770223"><ele>108.0</ele><time>2026-04-06T08:31:20.999Z</time></trkpt><trkpt lat="45.16443807873331" lon="8.461240045676357"><ele>107.66666666666666</ele><time>2026-04-06T08:31:21.999Z</time></trkpt><trkpt lat="45.164633548040754" lon="8.461370223450075"><ele>107.33333333333333</ele><time>2026-04-06T08:31:22.999Z</time></trkpt><trkpt lat="45.16483340968238" lon="8.461503093385247"><ele>107.0</ele><time>2026-04-06T08:31:23.999Z</time></trkpt><trkpt lat="45.16503401001331" lon="8.461633712994852"><ele>107.66666666666666</ele><time>2026-04-06T08:31:24.999Z</time></trkpt><trkpt lat="45.16523431505744" lon="8.461762483039033"><ele>108.33333333333334</ele><time>2026-04-06T08:31:25.999Z</time></trkpt><trkpt lat="45.165438683715756" lon="8.461894875495597"><ele>109.0</ele><time>2026-04-06T08:31:26.999Z</time></trkpt><trkpt lat="45.16564400018029" lon="8.462027062958056"><ele>109.33333333333334</ele><time>2026-04-06T08:31:27.999Z</time></trkpt><trkpt lat="45.16584161895386" lon="8.462158776128112"><ele>109.66666666666666</ele><time>2026-04-06T08:31:28.999Z</time></trkpt><trkpt lat="45.16603964575844" lon="8.46229376942856"><ele>110.0</ele><time>2026-04-06T08:31:29.999Z</time></trkpt><trkpt lat="45.16622927483989" lon="8.462437997638835"><ele>110.0</ele><time>2026-04-06T08:31:30.999Z</time></trkpt><trkpt lat="45.16640910573839" lon="8.462598453814342"><ele>110.0</ele><time>2026-04-06T08:31:31.999Z</time></trkpt><trkpt lat="45.16658189865457" lon="8.462774083198171"><ele>110.0</ele><time>2026-04-06T08:31:32.999Z</time></trkpt><trkpt lat="45.16674258384093" lon="8.462967389301067"><ele>110.66666666666666</ele><time>2026-04-06T08:31:33.999Z</time></trkpt><trkpt lat="45.166890383791056" lon="8.463174309711388"><ele>111.33333333333334</ele><time>2026-04-06T08:31:34.999Z</time></trkpt><trkpt lat="45.16702846943504" lon="8.463387701374259"><ele>112.0</ele><time>2026-04-06T08:31:35.999Z</time></trkpt><trkpt lat="45.16715871535606" lon="8.463594444557037"><ele>112.66666666666667</ele><time>2026-04-06T08:31:36.999Z</time></trkpt><trkpt lat="45.167278773187306" lon="8.463785568682827"><ele>113.33333333333334</ele><time>2026-04-06T08:31:37.999Z</time></trkpt><trkpt lat="45.167383025755846" lon="8.463955192362707"><ele>114.0</ele><time>2026-04-06T08:31:38.999Z</time></trkpt><trkpt lat="45.16746399059432" lon="8.464106573689094"><ele>113.0</ele><time>2026-04-06T08:31:39.999Z</time></trkpt><trkpt lat="45.16753119214779" lon="8.464259863227575"><ele>112.0</ele><time>2026-04-06T08:31:41Z</time></trkpt><trkpt lat="45.16760049910932" lon="8.464423264737132"><ele>111.0</ele><time>2026-04-06T08:31:42Z</time></trkpt><trkpt lat="45.167696666933544" lon="8.464567204569294"><ele>110.0</ele><time>2026-04-06T08:31:43Z</time></trkpt><trkpt lat="45.16782303487682" lon="8.464691179173606"><ele>110.0</ele><time>2026-04-06T08:31:44Z</time></trkpt><trkpt lat="45.16795908596211" lon="8.464820255205549"><ele>110.0</ele><time>2026-04-06T08:31:45Z</time></trkpt><trkpt lat="45.16808382044193" lon="8.464981225813288"><ele>110.0</ele><time>2026-04-06T08:31:46Z</time></trkpt><trkpt lat="45.16819934742173" lon="8.46516411521214"><ele>110.33333333333333</ele><time>2026-04-06T08:31:47Z</time></trkpt><trkpt lat="45.168311485584155" lon="8.465346570773146"><ele>110.66666666666666</ele><time>2026-04-06T08:31:48Z</time></trkpt><trkpt lat="45.16842839030267" lon="8.465534497978041"><ele>111.0</ele><time>2026-04-06T08:31:49Z</time></trkpt><trkpt lat="45.168547125303824" lon="8.465718403518002"><ele>111.0</ele><time>2026-04-06T08:31:50Z</time></trkpt><trkpt lat="45.16866364419564" lon="8.465898251859517"><ele>111.0</ele><time>2026-04-06T08:31:51Z</time></trkpt><trkpt lat="45.16877835740755" lon="8.466075086818424"><ele>111.0</ele><time>2026-04-06T08:31:52Z</time></trkpt><trkpt lat="45.16889323924019" lon="8.46625199415274"><ele>110.66666666666666</ele><time>2026-04-06T08:31:53Z</time></trkpt><trkpt lat="45.16900790808322" lon="8.466427485057375"><ele>110.33333333333333</ele><time>2026-04-06T08:31:54Z</time></trkpt><trkpt lat="45.169123093751715" lon="8.466598372210294"><ele>110.0</ele><time>2026-04-06T08:31:55Z</time></trkpt><trkpt lat="45.16923751688998" lon="8.466765422771985"><ele>110.0</ele><time>2026-04-06T08:31:56Z</time></trkpt><trkpt lat="45.16934657021351" lon="8.46691147106265"><ele>110.0</ele><time>2026-04-06T08:31:57Z</time></trkpt><trkpt lat="45.16944643986225" lon="8.467050570373551"><ele>110.0</ele><time>2026-04-06T08:31:58Z</time></trkpt><trkpt lat="45.169538940744445" lon="8.467188025300246"><ele>110.0</ele><time>2026-04-06T08:31:59Z</time></trkpt><trkpt lat="45.169629103289836" lon="8.467335202518454"><ele>110.0</ele><time>2026-04-06T08:32:00Z</time></trkpt><trkpt lat="45.169721411111084" lon="8.467493144704472"><ele>110.0</ele><time>2026-04-06T08:32:01Z</time></trkpt><trkpt lat="45.16982427053157" lon="8.467658378862827"><ele>110.0</ele><time>2026-04-06T08:32:02Z</time></trkpt><trkpt lat="45.16993525758784" lon="8.46783487462135"><ele>110.0</ele><time>2026-04-06T08:32:03Z</time></trkpt><trkpt lat="45.17005487421533" lon="8.468018588914962"><ele>110.0</ele><time>2026-04-06T08:32:04Z</time></trkpt><trkpt lat="45.17018439354798" lon="8.468213028173492"><ele>110.0</ele><time>2026-04-06T08:32:05Z</time></trkpt><trkpt lat="45.17032068257367" lon="8.46841696555833"><ele>110.0</ele><time>2026-04-06T08:32:06Z</time></trkpt><trkpt lat="45.17046397043212" lon="8.468636280515817"><ele>110.0</ele><time>2026-04-06T08:32:07Z</time></trkpt><trkpt lat="45.17061440491464" lon="8.468863864614013"><ele>110.0</ele><time>2026-04-06T08:32:08Z</time></trkpt><trkpt lat="45.17076762618705" lon="8.469094720202456"><ele>109.0</ele><time>2026-04-06T08:32:09Z</time></trkpt><trkpt lat="45.170915140097044" lon="8.469317944542226"><ele>108.0</ele><time>2026-04-06T08:32:10Z</time></trkpt><trkpt lat="45.17106208289325" lon="8.469541734399163"><ele>107.0</ele><time>2026-04-06T08:32:11Z</time></trkpt><trkpt lat="45.171204275962985" lon="8.469752494161359"><ele>107.0</ele><time>2026-04-06T08:32:12Z</time></trkpt><trkpt lat="45.17133993956265" lon="8.469946941823432"><ele>107.0</ele><time>2026-04-06T08:32:13Z</time></trkpt><trkpt lat="45.17146645568803" lon="8.470123806433396"><ele>107.0</ele><time>2026-04-06T08:32:14Z</time></trkpt><trkpt lat="45.17158474065957" lon="8.47027642428296"><ele>107.66666666666666</ele><time>2026-04-06T08:32:15Z</time></trkpt><trkpt lat="45.17170894961617" lon="8.47042009489304"><ele>108.33333333333334</ele><time>2026-04-06T08:32:16Z</time></trkpt><trkpt lat="45.17183139198507" lon="8.470542886590719"><ele>109.0</ele><time>2026-04-06T08:32:17Z</time></trkpt><trkpt lat="45.17195155153101" lon="8.470650491454954"><ele>109.0</ele><time>2026-04-06T08:32:18Z</time></trkpt><trkpt lat="45.172064485760096" lon="8.470742686640206"><ele>109.0</ele><time>2026-04-06T08:32:19Z</time></trkpt><trkpt lat="45.1721824446851" lon="8.47082756820132"><ele>109.0</ele><time>2026-04-06T08:32:20Z</time></trkpt><trkpt lat="45.172304803244835" lon="8.470906162456908"><ele>109.0</ele><time>2026-04-06T08:32:21Z</time></trkpt><trkpt lat="45.1724293231439" lon="8.470975982585005"><ele>109.0</ele><time>2026-04-06T08:32:22Z</time></trkpt><trkpt lat="45.17255639519944" lon="8.471038496695506"><ele>109.0</ele><time>2026-04-06T08:32:23Z</time></trkpt><trkpt lat="45.17268606386278" lon="8.471089744605237"><ele>109.0</ele><time>2026-04-06T08:32:24Z</time></trkpt><trkpt lat="45.172822515697256" lon="8.471134144170533"><ele>109.0</ele><time>2026-04-06T08:32:25Z</time></trkpt><trkpt lat="45.17295724189122" lon="8.471172645766694"><ele>109.0</ele><time>2026-04-06T08:32:26Z</time></trkpt><trkpt lat="45.17309660056694" lon="8.47120645101921"><ele>109.0</ele><time>2026-04-06T08:32:27Z</time></trkpt><trkpt lat="45.173244142885764" lon="8.471237768382153"><ele>109.0</ele><time>2026-04-06T08:32:28Z</time></trkpt><trkpt lat="45.17339932543731" lon="8.471267066061001"><ele>109.0</ele><time>2026-04-06T08:32:29Z</time></trkpt><trkpt lat="45.17355660747931" lon="8.471297026439323"><ele>109.0</ele><time>2026-04-06T08:32:30Z</time></trkpt><trkpt lat="45.17371353737509" lon="8.471326951699307"><ele>109.0</ele><time>2026-04-06T08:32:31Z</time></trkpt><trkpt lat="45.173869721167605" lon="8.471354963278324"><ele>109.0</ele><time>2026-04-06T08:32:32Z</time></trkpt><trkpt lat="45.17402379532071" lon="8.471386220409402"><ele>109.0</ele><time>2026-04-06T08:32:33Z</time></trkpt><trkpt lat="45.174173219745846" lon="8.47141305675702"><ele>109.0</ele><time>2026-04-06T08:32:34Z</time></trkpt><trkpt lat="45.17432914829038" lon="8.471442803694304"><ele>109.0</ele><time>2026-04-06T08:32:35Z</time></trkpt><trkpt lat="45.17449041246254" lon="8.471471183260038"><ele>109.0</ele><time>2026-04-06T08:32:36Z</time></trkpt><trkpt lat="45.17465693363085" lon="8.471502307799264"><ele>109.0</ele><time>2026-04-06T08:32:37Z</time></trkpt><trkpt lat="45.17481841655466" lon="8.471533818187275"><ele>109.0</ele><time>2026-04-06T08:32:38Z</time></trkpt><trkpt lat="45.17498132483113" lon="8.471564224887386"><ele>108.66666666666667</ele><time>2026-04-06T08:32:39Z</time></trkpt><trkpt lat="45.175147289862196" lon="8.471598042674383"><ele>108.33333333333334</ele><time>2026-04-06T08:32:40Z</time></trkpt><trkpt lat="45.175316252747784" lon="8.47162996303407"><ele>108.0</ele><time>2026-04-06T08:32:41Z</time></trkpt><trkpt lat="45.17548758472963" lon="8.471661458330525"><ele>108.0</ele><time>2026-04-06T08:32:42Z</time></trkpt><trkpt lat="45.175659524374055" lon="8.471691556906244"><ele>108.0</ele><time>2026-04-06T08:32:43Z</time></trkpt><trkpt lat="45.17582615947767" lon="8.471719514060654"><ele>108.0</ele><time>2026-04-06T08:32:44Z</time></trkpt><trkpt lat="45.17598567714533" lon="8.471754912687818"><ele>107.66666666666666</ele><time>2026-04-06T08:32:45Z</time></trkpt><trkpt lat="45.176147109908456" lon="8.47178606315286"><ele>107.33333333333333</ele><time>2026-04-06T08:32:45.999Z</time></trkpt><trkpt lat="45.17631598150965" lon="8.471817381483628"><ele>107.0</ele><time>2026-04-06T08:32:46.999Z</time></trkpt><trkpt lat="45.17648481518227" lon="8.471851405687275"><ele>107.33333333333333</ele><time>2026-04-06T08:32:47.999Z</time></trkpt><trkpt lat="45.17665462242054" lon="8.471882753259331"><ele>107.66666666666666</ele><time>2026-04-06T08:32:48.999Z</time></trkpt><trkpt lat="45.176830834375274" lon="8.471911851464448"><ele>108.0</ele><time>2026-04-06T08:32:49.999Z</time></trkpt><trkpt lat="45.17703126516931" lon="8.471936308713714"><ele>108.0</ele><time>2026-04-06T08:32:50.999Z</time></trkpt><trkpt lat="45.17724291188319" lon="8.47200060796279"><ele>108.0</ele><time>2026-04-06T08:32:51.999Z</time></trkpt><trkpt lat="45.177474962210965" lon="8.472046912066263"><ele>108.5</ele><time>2026-04-06T08:32:52.999Z</time></trkpt><trkpt lat="45.17771032429727" lon="8.472093071384684"><ele>109.0</ele><time>2026-04-06T08:32:53.999Z</time></trkpt><trkpt lat="45.177946588308615" lon="8.472122122083295"><ele>109.0</ele><time>2026-04-06T08:32:54.999Z</time></trkpt><trkpt lat="45.178178384513494" lon="8.472182449030013"><ele>109.0</ele><time>2026-04-06T08:32:55.999Z</time></trkpt><trkpt lat="45.17840285230097" lon="8.47223772284023"><ele>109.0</ele><time>2026-04-06T08:32:56.999Z</time></trkpt><trkpt lat="45.1786274342844" lon="8.472284681265752"><ele>109.0</ele><time>2026-04-06T08:32:57.999Z</time></trkpt><trkpt lat="45.17885070906308" lon="8.472324597734227"><ele>109.33333333333334</ele><time>2026-04-06T08:32:58.999Z</time></trkpt><trkpt lat="45.17906946120339" lon="8.472362014989633"><ele>109.66666666666666</ele><time>2026-04-06T08:32:59.999Z</time></trkpt><trkpt lat="45.17928733642194" lon="8.472402774010789"><ele>110.0</ele><time>2026-04-06T08:33:00.999Z</time></trkpt><trkpt lat="45.179506350307875" lon="8.47244371974322"><ele>110.0</ele><time>2026-04-06T08:33:01.999Z</time></trkpt><trkpt lat="45.17972744202439" lon="8.472483374097223"><ele>110.0</ele><time>2026-04-06T08:33:02.999Z</time></trkpt><trkpt lat="45.179945694761756" lon="8.472523583958685"><ele>110.0</ele><time>2026-04-06T08:33:03.999Z</time></trkpt><trkpt lat="45.180149322316225" lon="8.472562589100228"><ele>109.33333333333333</ele><time>2026-04-06T08:33:04.999Z</time></trkpt><trkpt lat="45.18032559618482" lon="8.47260002395717"><ele>108.66666666666666</ele><time>2026-04-06T08:33:05.999Z</time></trkpt><trkpt lat="45.180472732809285" lon="8.472636357978446"><ele>108.0</ele><time>2026-04-06T08:33:06.999Z</time></trkpt><trkpt lat="45.18059388829937" lon="8.47267570407505"><ele>107.75</ele><time>2026-04-06T08:33:07.999Z</time></trkpt><trkpt lat="45.18070012313456" lon="8.472740962498653"><ele>107.5</ele><time>2026-04-06T08:33:08.999Z</time></trkpt><trkpt lat="45.180794375278836" lon="8.472848599614544"><ele>107.25</ele><time>2026-04-06T08:33:09.999Z</time></trkpt><trkpt lat="45.180881036289165" lon="8.472964332531996"><ele>107.0</ele><time>2026-04-06T08:33:10.999Z</time></trkpt><trkpt lat="45.180974661142976" lon="8.473019923958761"><ele>107.0</ele><time>2026-04-06T08:33:11.999Z</time></trkpt><trkpt lat="45.181070508674445" lon="8.472996453751689"><ele>107.0</ele><time>2026-04-06T08:33:12.999Z</time></trkpt><trkpt lat="45.1811677960545" lon="8.472914195569695"><ele>107.0</ele><time>2026-04-06T08:33:13.999Z</time></trkpt><trkpt lat="45.181273079457014" lon="8.472811571931022"><ele>107.0</ele><time>2026-04-06T08:33:14.999Z</time></trkpt><trkpt lat="45.18139614486599" lon="8.472767243311374"><ele>107.66666666666666</ele><time>2026-04-06T08:33:15.999Z</time></trkpt><trkpt lat="45.18153688357326" lon="8.472796055260194"><ele>108.33333333333334</ele><time>2026-04-06T08:33:16.999Z</time></trkpt><trkpt lat="45.18168376368953" lon="8.47284924296329"><ele>109.0</ele><time>2026-04-06T08:33:17.999Z</time></trkpt><trkpt lat="45.18184243847581" lon="8.472899659563199"><ele>109.0</ele><time>2026-04-06T08:33:18.999Z</time></trkpt><trkpt lat="45.18201090328324" lon="8.472939497429886"><ele>109.0</ele><time>2026-04-06T08:33:19.999Z</time></trkpt><trkpt lat="45.18218359339006" lon="8.47297091212331"><ele>109.0</ele><time>2026-04-06T08:33:20.999Z</time></trkpt><trkpt lat="45.18236486937256" lon="8.473002125553172"><ele>109.0</ele><time>2026-04-06T08:33:21.999Z</time></trkpt><trkpt lat="45.18255752410554" lon="8.473037986999374"><ele>109.0</ele><time>2026-04-06T08:33:22.999Z</time></trkpt><trkpt lat="45.18275500622445" lon="8.473075803981853"><ele>109.0</ele><time>2026-04-06T08:33:23.999Z</time></trkpt><trkpt lat="45.18296111307714" lon="8.473118730035042"><ele>109.0</ele><time>2026-04-06T08:33:24.999Z</time></trkpt><trkpt lat="45.183174189187355" lon="8.473162836592174"><ele>109.0</ele><time>2026-04-06T08:33:25.999Z</time></trkpt><trkpt lat="45.18339224906003" lon="8.473205198122892"><ele>109.0</ele><time>2026-04-06T08:33:26.999Z</time></trkpt><trkpt lat="45.18361065807215" lon="8.473245864700836"><ele>109.0</ele><time>2026-04-06T08:33:27.999Z</time></trkpt><trkpt lat="45.18383416552746" lon="8.473288979499854"><ele>109.0</ele><time>2026-04-06T08:33:28.999Z</time></trkpt><trkpt lat="45.184058382003776" lon="8.473332301278559"><ele>108.5</ele><time>2026-04-06T08:33:29.999Z</time></trkpt><trkpt lat="45.18428417392661" lon="8.473375529930962"><ele>108.0</ele><time>2026-04-06T08:33:30.999Z</time></trkpt><trkpt lat="45.18451222304542" lon="8.47341861181836"><ele>108.0</ele><time>2026-04-06T08:33:31.999Z</time></trkpt><trkpt lat="45.18474193438946" lon="8.473462521531767"><ele>108.0</ele><time>2026-04-06T08:33:32.999Z</time></trkpt><trkpt lat="45.18497349117307" lon="8.47350778956162"><ele>108.5</ele><time>2026-04-06T08:33:33.999Z</time></trkpt><trkpt lat="45.185205650534975" lon="8.473553341760493"><ele>109.0</ele><time>2026-04-06T08:33:34.999Z</time></trkpt><trkpt lat="45.18543922726149" lon="8.47359915381616"><ele>109.0</ele><time>2026-04-06T08:33:35.999Z</time></trkpt><trkpt lat="45.18567216844322" lon="8.4736432139467"><ele>109.0</ele><time>2026-04-06T08:33:36.999Z</time></trkpt><trkpt lat="45.185905131221055" lon="8.473685587516224"><ele>109.5</ele><time>2026-04-06T08:33:37.999Z</time></trkpt><trkpt lat="45.18613751175218" lon="8.473727865092416"><ele>110.0</ele><time>2026-04-06T08:33:38.999Z</time></trkpt><trkpt lat="45.18636595201082" lon="8.473763682493608"><ele>110.0</ele><time>2026-04-06T08:33:39.999Z</time></trkpt><trkpt lat="45.18659603327543" lon="8.473780260084034"><ele>110.0</ele><time>2026-04-06T08:33:40.999Z</time></trkpt><trkpt lat="45.18682537690042" lon="8.473775930363765"><ele>110.0</ele><time>2026-04-06T08:33:41.999Z</time></trkpt><trkpt lat="45.18705319634282" lon="8.473751362713822"><ele>110.0</ele><time>2026-04-06T08:33:42.999Z</time></trkpt><trkpt lat="45.18728019334336" lon="8.473706630315322"><ele>109.0</ele><time>2026-04-06T08:33:43.999Z</time></trkpt><trkpt lat="45.18750616055589" lon="8.473640874346598"><ele>108.0</ele><time>2026-04-06T08:33:44.999Z</time></trkpt><trkpt lat="45.187730580633115" lon="8.473555531312561"><ele>108.0</ele><time>2026-04-06T08:33:45.999Z</time></trkpt><trkpt lat="45.18795068425184" lon="8.473450498549127"><ele>108.0</ele><time>2026-04-06T08:33:47Z</time></trkpt><trkpt lat="45.188161286283304" lon="8.473325315114739"><ele>108.5</ele><time>2026-04-06T08:33:48Z</time></trkpt><trkpt lat="45.188368494660835" lon="8.473183511699151"><ele>109.0</ele><time>2026-04-06T08:33:49Z</time></trkpt><trkpt lat="45.18857163972682" lon="8.473033148933569"><ele>109.5</ele><time>2026-04-06T08:33:50Z</time></trkpt><trkpt lat="45.18877367068563" lon="8.472879614602213"><ele>110.0</ele><time>2026-04-06T08:33:51Z</time></trkpt><trkpt lat="45.18897607156309" lon="8.472729045949599"><ele>109.5</ele><time>2026-04-06T08:33:52Z</time></trkpt><trkpt lat="45.18918038661329" lon="8.472578415665819"><ele>109.0</ele><time>2026-04-06T08:33:53Z</time></trkpt><trkpt lat="45.1893859633666" lon="8.472428445846857"><ele>109.0</ele><time>2026-04-06T08:33:54Z</time></trkpt><trkpt lat="45.18959164347525" lon="8.47227531668896"><ele>109.0</ele><time>2026-04-06T08:33:55Z</time></trkpt><trkpt lat="45.18979920566793" lon="8.472119913880274"><ele>109.0</ele><time>2026-04-06T08:33:56Z</time></trkpt><trkpt lat="45.190008912999076" lon="8.471965646857129"><ele>109.0</ele><time>2026-04-06T08:33:57Z</time></trkpt><trkpt lat="45.1902168904516" lon="8.471810090854614"><ele>109.0</ele><time>2026-04-06T08:33:58Z</time></trkpt><trkpt lat="45.19042441055802" lon="8.471654642263866"><ele>109.0</ele><time>2026-04-06T08:33:59Z</time></trkpt><trkpt lat="45.19063122157413" lon="8.471500188529372"><ele>108.5</ele><time>2026-04-06T08:34:00Z</time></trkpt><trkpt lat="45.190839903784585" lon="8.471345973071136"><ele>108.0</ele><time>2026-04-06T08:34:01Z</time></trkpt><trkpt lat="45.191047278948595" lon="8.471190962858254"><ele>109.0</ele><time>2026-04-06T08:34:02Z</time></trkpt><trkpt lat="45.191253335350254" lon="8.471035797194057"><ele>110.0</ele><time>2026-04-06T08:34:03Z</time></trkpt><trkpt lat="45.19145809650869" lon="8.470881963905125"><ele>110.0</ele><time>2026-04-06T08:34:04Z</time></trkpt><trkpt lat="45.19166224029201" lon="8.470729991762868"><ele>110.0</ele><time>2026-04-06T08:34:05Z</time></trkpt><trkpt lat="45.19186664562013" lon="8.4705782836853"><ele>109.5</ele><time>2026-04-06T08:34:06Z</time></trkpt><trkpt lat="45.192070949007636" lon="8.470426903229917"><ele>109.0</ele><time>2026-04-06T08:34:07Z</time></trkpt><trkpt lat="45.19227506542232" lon="8.470276338366812"><ele>110.0</ele><time>2026-04-06T08:34:08Z</time></trkpt><trkpt lat="45.19248150567806" lon="8.47012218910709"><ele>111.0</ele><time>2026-04-06T08:34:09Z</time></trkpt><trkpt lat="45.19268973926891" lon="8.469966264171822"><ele>111.0</ele><time>2026-04-06T08:34:10Z</time></trkpt><trkpt lat="45.1928996594402" lon="8.469810170840537"><ele>111.0</ele><time>2026-04-06T08:34:11Z</time></trkpt><trkpt lat="45.19311046876988" lon="8.469653406071288"><ele>110.5</ele><time>2026-04-06T08:34:12Z</time></trkpt><trkpt lat="45.193322314964384" lon="8.46949449312704"><ele>110.0</ele><time>2026-04-06T08:34:13Z</time></trkpt><trkpt lat="45.193534816999865" lon="8.469334571677937"><ele>110.0</ele><time>2026-04-06T08:34:14Z</time></trkpt><trkpt lat="45.1937470848118" lon="8.469177140243403"><ele>110.0</ele><time>2026-04-06T08:34:15Z</time></trkpt><trkpt lat="45.193959811197345" lon="8.469020270857188"><ele>110.0</ele><time>2026-04-06T08:34:16Z</time></trkpt><trkpt lat="45.19416850558093" lon="8.468865265984496"><ele>110.0</ele><time>2026-04-06T08:34:17Z</time></trkpt><trkpt lat="45.19437575845613" lon="8.46871175047626"><ele>110.0</ele><time>2026-04-06T08:34:18Z</time></trkpt><trkpt lat="45.19458254714316" lon="8.468558429980305"><ele>110.0</ele><time>2026-04-06T08:34:19Z</time></trkpt><trkpt lat="45.19478883059088" lon="8.468405966189543"><ele>110.0</ele><time>2026-04-06T08:34:20Z</time></trkpt><trkpt lat="45.194994667204405" lon="8.468252399104772"><ele>110.0</ele><time>2026-04-06T08:34:21Z</time></trkpt><trkpt lat="45.19519883320248" lon="8.468098191819665"><ele>110.0</ele><time>2026-04-06T08:34:22Z</time></trkpt><trkpt lat="45.1954051377928" lon="8.467945183401591"><ele>110.0</ele><time>2026-04-06T08:34:23Z</time></trkpt><trkpt lat="45.1956131187922" lon="8.467790966519706"><ele>110.0</ele><time>2026-04-06T08:34:24Z</time></trkpt><trkpt lat="45.19582254742561" lon="8.467635572512291"><ele>110.0</ele><time>2026-04-06T08:34:25Z</time></trkpt><trkpt lat="45.19603321303865" lon="8.467478137830708"><ele>110.0</ele><time>2026-04-06T08:34:26Z</time></trkpt><trkpt lat="45.196243256056114" lon="8.467322247067523"><ele>110.0</ele><time>2026-04-06T08:34:27Z</time></trkpt><trkpt lat="45.19645282680393" lon="8.467166705242853"><ele>109.5</ele><time>2026-04-06T08:34:28Z</time></trkpt><trkpt lat="45.19666351374156" lon="8.467010341289555"><ele>109.0</ele><time>2026-04-06T08:34:29Z</time></trkpt><trkpt lat="45.19687422837206" lon="8.466854406168059"><ele>109.0</ele><time>2026-04-06T08:34:30Z</time></trkpt><trkpt lat="45.19708569035873" lon="8.466697279186485"><ele>109.0</ele><time>2026-04-06T08:34:31Z</time></trkpt><trkpt lat="45.19729627295369" lon="8.46653935031802"><ele>109.5</ele><time>2026-04-06T08:34:32Z</time></trkpt><trkpt lat="45.1975056248948" lon="8.466382748816772"><ele>110.0</ele><time>2026-04-06T08:34:33Z</time></trkpt><trkpt lat="45.19771407662491" lon="8.466226920971595"><ele>110.5</ele><time>2026-04-06T08:34:34Z</time></trkpt><trkpt lat="45.197924014083576" lon="8.466071395620268"><ele>111.0</ele><time>2026-04-06T08:34:35Z</time></trkpt><trkpt lat="45.198133651077505" lon="8.46591572201345"><ele>111.5</ele><time>2026-04-06T08:34:36Z</time></trkpt><trkpt lat="45.19834210798681" lon="8.465760752050803"><ele>112.0</ele><time>2026-04-06T08:34:37Z</time></trkpt><trkpt lat="45.19854981977293" lon="8.465605795820759"><ele>112.0</ele><time>2026-04-06T08:34:38Z</time></trkpt><trkpt lat="45.19875705805643" lon="8.465451078047353"><ele>112.0</ele><time>2026-04-06T08:34:39Z</time></trkpt><trkpt lat="45.198965389754854" lon="8.465295448073451"><ele>111.5</ele><time>2026-04-06T08:34:40Z</time></trkpt><trkpt lat="45.199174510286845" lon="8.46513837263217"><ele>111.0</ele><time>2026-04-06T08:34:41Z</time></trkpt><trkpt lat="45.19938445314456" lon="8.464981667130784"><ele>111.0</ele><time>2026-04-06T08:34:42Z</time></trkpt><trkpt lat="45.19959505512475" lon="8.464824484439914"><ele>111.0</ele><time>2026-04-06T08:34:43Z</time></trkpt><trkpt lat="45.19980965975855" lon="8.46466552180821"><ele>110.5</ele><time>2026-04-06T08:34:44Z</time></trkpt><trkpt lat="45.200024595778565" lon="8.464505950210945"><ele>110.0</ele><time>2026-04-06T08:34:45Z</time></trkpt><trkpt lat="45.20023638531377" lon="8.464349499839898"><ele>110.0</ele><time>2026-04-06T08:34:46Z</time></trkpt><trkpt lat="45.20044888509877" lon="8.464190765918346"><ele>110.0</ele><time>2026-04-06T08:34:47Z</time></trkpt><trkpt lat="45.20066276629042" lon="8.464030467765648"><ele>110.0</ele><time>2026-04-06T08:34:48Z</time></trkpt><trkpt lat="45.200874818240706" lon="8.46387429875816"><ele>110.0</ele><time>2026-04-06T08:34:49Z</time></trkpt><trkpt lat="45.201086854281606" lon="8.463729947212181"><ele>110.0</ele><time>2026-04-06T08:34:50Z</time></trkpt><trkpt lat="45.20129034099059" lon="8.463562960022383"><ele>110.0</ele><time>2026-04-06T08:34:51Z</time></trkpt><trkpt lat="45.20149439746189" lon="8.463414844031265"><ele>110.0</ele><time>2026-04-06T08:34:51.999Z</time></trkpt><trkpt lat="45.201695334780815" lon="8.463263730370418"><ele>110.0</ele><time>2026-04-06T08:34:52.999Z</time></trkpt><trkpt lat="45.20190292977051" lon="8.463109529633094"><ele>110.0</ele><time>2026-04-06T08:34:53.999Z</time></trkpt><trkpt lat="45.20211125090328" lon="8.462952136274964"><ele>110.0</ele><time>2026-04-06T08:34:54.999Z</time></trkpt><trkpt lat="45.202321250714355" lon="8.462796866457497"><ele>111.0</ele><time>2026-04-06T08:34:55.999Z</time></trkpt><trkpt lat="45.20253026862509" lon="8.462642760630148"><ele>112.0</ele><time>2026-04-06T08:34:56.999Z</time></trkpt><trkpt lat="45.20275263281187" lon="8.462499242782146"><ele>112.0</ele><time>2026-04-06T08:34:57.999Z</time></trkpt><trkpt lat="45.20298379954844" lon="8.462375613430773"><ele>112.0</ele><time>2026-04-06T08:34:58.999Z</time></trkpt><trkpt lat="45.20322131052418" lon="8.462268498808216"><ele>112.0</ele><time>2026-04-06T08:34:59.999Z</time></trkpt><trkpt lat="45.203441680637944" lon="8.462179718669715"><ele>112.0</ele><time>2026-04-06T08:35:00.999Z</time></trkpt><trkpt lat="45.203640307487554" lon="8.462094505569514"><ele>112.0</ele><time>2026-04-06T08:35:01.999Z</time></trkpt><trkpt lat="45.203830040847144" lon="8.462015322442106"><ele>112.0</ele><time>2026-04-06T08:35:02.999Z</time></trkpt><trkpt lat="45.20403511924892" lon="8.461925902359326"><ele>112.0</ele><time>2026-04-06T08:35:03.999Z</time></trkpt><trkpt lat="45.20424808207015" lon="8.461830465564942"><ele>112.0</ele><time>2026-04-06T08:35:04.999Z</time></trkpt><trkpt lat="45.20446491682166" lon="8.46172903447335"><ele>112.0</ele><time>2026-04-06T08:35:05.999Z</time></trkpt><trkpt lat="45.20468930807217" lon="8.461629903214352"><ele>112.0</ele><time>2026-04-06T08:35:06.999Z</time></trkpt><trkpt lat="45.20491371062212" lon="8.46153480992498"><ele>112.5</ele><time>2026-04-06T08:35:07.999Z</time></trkpt><trkpt lat="45.205139572125404" lon="8.461435880845013"><ele>113.0</ele><time>2026-04-06T08:35:08.999Z</time></trkpt><trkpt lat="45.20536607413526" lon="8.46133369020066"><ele>113.0</ele><time>2026-04-06T08:35:09.999Z</time></trkpt><trkpt lat="45.20558874065271" lon="8.461230692164657"><ele>113.0</ele><time>2026-04-06T08:35:10.999Z</time></trkpt><trkpt lat="45.205812638152146" lon="8.461128305444822"><ele>113.0</ele><time>2026-04-06T08:35:11.999Z</time></trkpt><trkpt lat="45.2060384846334" lon="8.461024717914995"><ele>113.0</ele><time>2026-04-06T08:35:12.999Z</time></trkpt><trkpt lat="45.20626412267426" lon="8.460924297167098"><ele>113.0</ele><time>2026-04-06T08:35:13.999Z</time></trkpt><trkpt lat="45.206488774984905" lon="8.46082561375366"><ele>113.0</ele><time>2026-04-06T08:35:14.999Z</time></trkpt><trkpt lat="45.206711261968216" lon="8.460727569023447"><ele>113.0</ele><time>2026-04-06T08:35:15.999Z</time></trkpt><trkpt lat="45.20693289971981" lon="8.460627788392161"><ele>113.0</ele><time>2026-04-06T08:35:16.999Z</time></trkpt><trkpt lat="45.20715708064828" lon="8.460527457791422"><ele>113.0</ele><time>2026-04-06T08:35:17.999Z</time></trkpt><trkpt lat="45.20737464365711" lon="8.460429018239042"><ele>113.0</ele><time>2026-04-06T08:35:18.999Z</time></trkpt><trkpt lat="45.20758999265434" lon="8.460331342158842"><ele>113.0</ele><time>2026-04-06T08:35:19.999Z</time></trkpt><trkpt lat="45.20780985693481" lon="8.46023291244334"><ele>113.0</ele><time>2026-04-06T08:35:20.999Z</time></trkpt><trkpt lat="45.208033129165614" lon="8.460132339729896"><ele>113.0</ele><time>2026-04-06T08:35:21.999Z</time></trkpt><trkpt lat="45.20825632116682" lon="8.460031609871468"><ele>113.0</ele><time>2026-04-06T08:35:22.999Z</time></trkpt><trkpt lat="45.208478225327546" lon="8.45993626882095"><ele>113.0</ele><time>2026-04-06T08:35:23.999Z</time></trkpt><trkpt lat="45.2087017333099" lon="8.459835020584759"><ele>113.0</ele><time>2026-04-06T08:35:24.999Z</time></trkpt><trkpt lat="45.20892584610035" lon="8.459732420163668"><ele>112.5</ele><time>2026-04-06T08:35:25.999Z</time></trkpt><trkpt lat="45.20914691904" lon="8.459631698228547"><ele>112.0</ele><time>2026-04-06T08:35:26.999Z</time></trkpt><trkpt lat="45.20937117670842" lon="8.45953045774819"><ele>112.0</ele><time>2026-04-06T08:35:27.999Z</time></trkpt><trkpt lat="45.20959464494604" lon="8.459428624043229"><ele>112.0</ele><time>2026-04-06T08:35:28.999Z</time></trkpt><trkpt lat="45.20981948313663" lon="8.4593249219367"><ele>112.0</ele><time>2026-04-06T08:35:29.999Z</time></trkpt><trkpt lat="45.21004639510205" lon="8.45922242172117"><ele>112.0</ele><time>2026-04-06T08:35:30.999Z</time></trkpt><trkpt lat="45.21027382984076" lon="8.459121283550445"><ele>112.0</ele><time>2026-04-06T08:35:31.999Z</time></trkpt><trkpt lat="45.21050145326204" lon="8.459022458278868"><ele>112.0</ele><time>2026-04-06T08:35:32.999Z</time></trkpt><trkpt lat="45.210729539472474" lon="8.45892195555624"><ele>112.0</ele><time>2026-04-06T08:35:33.999Z</time></trkpt><trkpt lat="45.21095667841305" lon="8.458818866241698"><ele>112.0</ele><time>2026-04-06T08:35:34.999Z</time></trkpt><trkpt lat="45.21118280492681" lon="8.458714268321224"><ele>113.0</ele><time>2026-04-06T08:35:35.999Z</time></trkpt><trkpt lat="45.211407504410815" lon="8.458612312389306"><ele>114.0</ele><time>2026-04-06T08:35:36.999Z</time></trkpt><trkpt lat="45.211630679456825" lon="8.458511083695448"><ele>114.0</ele><time>2026-04-06T08:35:37.999Z</time></trkpt><trkpt lat="45.211854917952934" lon="8.458412558444376"><ele>114.0</ele><time>2026-04-06T08:35:38.999Z</time></trkpt><trkpt lat="45.212080319600254" lon="8.458311681683114"><ele>114.0</ele><time>2026-04-06T08:35:39.999Z</time></trkpt><trkpt lat="45.21230224286246" lon="8.458211328520749"><ele>114.0</ele><time>2026-04-06T08:35:40.999Z</time></trkpt><trkpt lat="45.212524823472606" lon="8.458109875902721"><ele>114.0</ele><time>2026-04-06T08:35:41.999Z</time></trkpt><trkpt lat="45.21274702337259" lon="8.458008428846425"><ele>114.0</ele><time>2026-04-06T08:35:42.999Z</time></trkpt><trkpt lat="45.212972314358154" lon="8.457906950681172"><ele>114.0</ele><time>2026-04-06T08:35:43.999Z</time></trkpt><trkpt lat="45.213196258584375" lon="8.457805654137495"><ele>114.0</ele><time>2026-04-06T08:35:44.999Z</time></trkpt><trkpt lat="45.21342102018497" lon="8.457704581710779"><ele>114.0</ele><time>2026-04-06T08:35:45.999Z</time></trkpt><trkpt lat="45.213647708729546" lon="8.457602504239208"><ele>114.0</ele><time>2026-04-06T08:35:46.999Z</time></trkpt><trkpt lat="45.2138725326907" lon="8.457500457221448"><ele>114.0</ele><time>2026-04-06T08:35:47.999Z</time></trkpt><trkpt lat="45.214096640154" lon="8.457397730743073"><ele>114.0</ele><time>2026-04-06T08:35:48.999Z</time></trkpt><trkpt lat="45.21432123313278" lon="8.457295322153518"><ele>114.0</ele><time>2026-04-06T08:35:49.999Z</time></trkpt><trkpt lat="45.21454516862469" lon="8.45719382472141"><ele>114.0</ele><time>2026-04-06T08:35:50.999Z</time></trkpt><trkpt lat="45.21477027153988" lon="8.457092882368825"><ele>114.0</ele><time>2026-04-06T08:35:52Z</time></trkpt><trkpt lat="45.21499420359922" lon="8.45699192358503"><ele>114.0</ele><time>2026-04-06T08:35:53Z</time></trkpt><trkpt lat="45.21521754478644" lon="8.456890509536683"><ele>114.0</ele><time>2026-04-06T08:35:54Z</time></trkpt><trkpt lat="45.215437867608586" lon="8.456789269208137"><ele>114.0</ele><time>2026-04-06T08:35:55Z</time></trkpt><trkpt lat="45.21565868913871" lon="8.456687636904936"><ele>114.0</ele><time>2026-04-06T08:35:56Z</time></trkpt><trkpt lat="45.21588216533972" lon="8.456587199237058"><ele>114.0</ele><time>2026-04-06T08:35:57Z</time></trkpt><trkpt lat="45.21610739878076" lon="8.456485941660706"><ele>114.0</ele><time>2026-04-06T08:35:58Z</time></trkpt><trkpt lat="45.21633182014714" lon="8.45638361818604"><ele>114.0</ele><time>2026-04-06T08:35:59Z</time></trkpt><trkpt lat="45.21655595212716" lon="8.4562805080583"><ele>113.5</ele><time>2026-04-06T08:36:00Z</time></trkpt><trkpt lat="45.21678011234372" lon="8.456179024029225"><ele>113.0</ele><time>2026-04-06T08:36:01Z</time></trkpt><trkpt lat="45.21700460121058" lon="8.456077113443882"><ele>113.0</ele><time>2026-04-06T08:36:02Z</time></trkpt><trkpt lat="45.21722860162295" lon="8.45597574463317"><ele>113.0</ele><time>2026-04-06T08:36:03Z</time></trkpt><trkpt lat="45.217451649735146" lon="8.455872394194161"><ele>113.5</ele><time>2026-04-06T08:36:04Z</time></trkpt><trkpt lat="45.217672274504636" lon="8.455770565716037"><ele>114.0</ele><time>2026-04-06T08:36:05Z</time></trkpt><trkpt lat="45.217893535789216" lon="8.45566831277009"><ele>114.0</ele><time>2026-04-06T08:36:06Z</time></trkpt><trkpt lat="45.218115220829226" lon="8.45556850847989"><ele>114.0</ele><time>2026-04-06T08:36:07Z</time></trkpt><trkpt lat="45.21833931513282" lon="8.455470709260931"><ele>113.5</ele><time>2026-04-06T08:36:08Z</time></trkpt><trkpt lat="45.21856282550067" lon="8.455384408700839"><ele>113.0</ele><time>2026-04-06T08:36:09Z</time></trkpt><trkpt lat="45.218792306614475" lon="8.45532225178624"><ele>114.0</ele><time>2026-04-06T08:36:10Z</time></trkpt><trkpt lat="45.21902623724601" lon="8.455289667318404"><ele>115.0</ele><time>2026-04-06T08:36:11Z</time></trkpt><trkpt lat="45.2192611653909" lon="8.455278400673318"><ele>115.0</ele><time>2026-04-06T08:36:12Z</time></trkpt><trkpt lat="45.219494880622" lon="8.455285915677635"><ele>115.0</ele><time>2026-04-06T08:36:13Z</time></trkpt><trkpt lat="45.21972558900732" lon="8.455310263942406"><ele>114.66666666666667</ele><time>2026-04-06T08:36:14Z</time></trkpt><trkpt lat="45.2199368646807" lon="8.455359597226455"><ele>114.33333333333334</ele><time>2026-04-06T08:36:15Z</time></trkpt><trkpt lat="45.22012929838693" lon="8.455421038864726"><ele>114.0</ele><time>2026-04-06T08:36:16Z</time></trkpt><trkpt lat="45.220296139852934" lon="8.455488331882584"><ele>113.75</ele><time>2026-04-06T08:36:17Z</time></trkpt><trkpt lat="45.22043324111395" lon="8.455561432943737"><ele>113.5</ele><time>2026-04-06T08:36:18Z</time></trkpt><trkpt lat="45.22053703826032" lon="8.455642270887717"><ele>113.25</ele><time>2026-04-06T08:36:19Z</time></trkpt><trkpt lat="45.22061327780844" lon="8.455729040591553"><ele>113.0</ele><time>2026-04-06T08:36:20Z</time></trkpt><trkpt lat="45.22066397309064" lon="8.455870160086658"><ele>113.33333333333333</ele><time>2026-04-06T08:36:21Z</time></trkpt><trkpt lat="45.22073145697407" lon="8.455946122432927"><ele>113.66666666666666</ele><time>2026-04-06T08:36:22Z</time></trkpt><trkpt lat="45.220813224382205" lon="8.455969864971289"><ele>114.0</ele><time>2026-04-06T08:36:23Z</time></trkpt><trkpt lat="45.220896689226045" lon="8.455960493839344"><ele>114.33333333333334</ele><time>2026-04-06T08:36:24Z</time></trkpt><trkpt lat="45.2209808612866" lon="8.455950099082221"><ele>114.66666666666667</ele><time>2026-04-06T08:36:25Z</time></trkpt><trkpt lat="45.22107157169145" lon="8.455965532455902"><ele>115.0</ele><time>2026-04-06T08:36:26Z</time></trkpt><trkpt lat="45.22116388079061" lon="8.45602015853113"><ele>115.0</ele><time>2026-04-06T08:36:27Z</time></trkpt><trkpt lat="45.22125434269392" lon="8.456106565126118"><ele>115.0</ele><time>2026-04-06T08:36:28Z</time></trkpt><trkpt lat="45.22134117460095" lon="8.456200249391141"><ele>115.0</ele><time>2026-04-06T08:36:29Z</time></trkpt><trkpt lat="45.22143664274466" lon="8.456296974748689"><ele>115.0</ele><time>2026-04-06T08:36:30Z</time></trkpt><trkpt lat="45.22153690992355" lon="8.456392146056888"><ele>115.0</ele><time>2026-04-06T08:36:31Z</time></trkpt><trkpt lat="45.22164011746633" lon="8.456483335272573"><ele>115.0</ele><time>2026-04-06T08:36:32Z</time></trkpt><trkpt lat="45.22175357659951" lon="8.456582471521243"><ele>115.0</ele><time>2026-04-06T08:36:33Z</time></trkpt><trkpt lat="45.221875882437416" lon="8.456692111944033"><ele>115.0</ele><time>2026-04-06T08:36:34Z</time></trkpt><trkpt lat="45.22200223657767" lon="8.456806607340305"><ele>115.0</ele><time>2026-04-06T08:36:35Z</time></trkpt><trkpt lat="45.222135027619615" lon="8.456927191837398"><ele>115.0</ele><time>2026-04-06T08:36:36Z</time></trkpt><trkpt lat="45.222275061639515" lon="8.457051012753626"><ele>115.0</ele><time>2026-04-06T08:36:37Z</time></trkpt><trkpt lat="45.2224231993084" lon="8.457179680088005"><ele>115.33333333333334</ele><time>2026-04-06T08:36:38Z</time></trkpt><trkpt lat="45.2225795354358" lon="8.457315633823375"><ele>115.66666666666666</ele><time>2026-04-06T08:36:39Z</time></trkpt><trkpt lat="45.22274452326751" lon="8.45746307584996"><ele>116.0</ele><time>2026-04-06T08:36:40Z</time></trkpt><trkpt lat="45.22291657897898" lon="8.457619369835081"><ele>116.0</ele><time>2026-04-06T08:36:41Z</time></trkpt><trkpt lat="45.223097041217606" lon="8.457782848728776"><ele>116.0</ele><time>2026-04-06T08:36:42Z</time></trkpt><trkpt lat="45.223288488696355" lon="8.457954410118573"><ele>116.0</ele><time>2026-04-06T08:36:43Z</time></trkpt><trkpt lat="45.223487540025125" lon="8.4581316120059"><ele>116.5</ele><time>2026-04-06T08:36:44Z</time></trkpt><trkpt lat="45.22368704964822" lon="8.458309325136334"><ele>117.0</ele><time>2026-04-06T08:36:45Z</time></trkpt><trkpt lat="45.22388831837853" lon="8.458488284436983"><ele>117.0</ele><time>2026-04-06T08:36:46Z</time></trkpt><trkpt lat="45.224090685958494" lon="8.458667182262532"><ele>117.0</ele><time>2026-04-06T08:36:47Z</time></trkpt><trkpt lat="45.224292520419446" lon="8.458846699293161"><ele>117.0</ele><time>2026-04-06T08:36:48Z</time></trkpt><trkpt lat="45.224493242832075" lon="8.459024582812791"><ele>117.0</ele><time>2026-04-06T08:36:49Z</time></trkpt><trkpt lat="45.22469258138906" lon="8.459204042599906"><ele>116.5</ele><time>2026-04-06T08:36:50Z</time></trkpt><trkpt lat="45.22489038587114" lon="8.459384327503376"><ele>116.0</ele><time>2026-04-06T08:36:51Z</time></trkpt><trkpt lat="45.22508801806267" lon="8.459562694210673"><ele>116.0</ele><time>2026-04-06T08:36:52Z</time></trkpt><trkpt lat="45.225287238949726" lon="8.459739852321126"><ele>116.0</ele><time>2026-04-06T08:36:53Z</time></trkpt><trkpt lat="45.225486125423664" lon="8.459915436324525"><ele>115.5</ele><time>2026-04-06T08:36:54Z</time></trkpt><trkpt lat="45.22568319215577" lon="8.460092916658574"><ele>115.0</ele><time>2026-04-06T08:36:55Z</time></trkpt><trkpt lat="45.22587979764767" lon="8.460271260999392"><ele>115.0</ele><time>2026-04-06T08:36:56Z</time></trkpt><trkpt lat="45.22607816655754" lon="8.460448795015735"><ele>115.0</ele><time>2026-04-06T08:36:57Z</time></trkpt><trkpt lat="45.22627815544367" lon="8.460624668161579"><ele>115.5</ele><time>2026-04-06T08:36:58Z</time></trkpt><trkpt lat="45.2264762218258" lon="8.460797755193125"><ele>116.0</ele><time>2026-04-06T08:36:59Z</time></trkpt><trkpt lat="45.22667201170346" lon="8.460971350374432"><ele>116.5</ele><time>2026-04-06T08:37:00Z</time></trkpt><trkpt lat="45.226865161680294" lon="8.461143979953137"><ele>117.0</ele><time>2026-04-06T08:37:01Z</time></trkpt><trkpt lat="45.22705644951079" lon="8.461316356997944"><ele>117.0</ele><time>2026-04-06T08:37:02Z</time></trkpt><trkpt lat="45.22724632012284" lon="8.461486386838335"><ele>117.0</ele><time>2026-04-06T08:37:03Z</time></trkpt><trkpt lat="45.22743705871929" lon="8.46165578408174"><ele>117.0</ele><time>2026-04-06T08:37:03.999Z</time></trkpt><trkpt lat="45.227621614004" lon="8.4618164637389"><ele>117.0</ele><time>2026-04-06T08:37:04.999Z</time></trkpt><trkpt lat="45.22777376120331" lon="8.461952903067585"><ele>117.0</ele><time>2026-04-06T08:37:05.999Z</time></trkpt><trkpt lat="45.227895533007995" lon="8.462060810470149"><ele>117.0</ele><time>2026-04-06T08:37:06.999Z</time></trkpt><trkpt lat="45.227995954672856" lon="8.462156049723037"><ele>117.0</ele><time>2026-04-06T08:37:07.999Z</time></trkpt><trkpt lat="45.228074505585724" lon="8.46224215627497"><ele>117.0</ele><time>2026-04-06T08:37:08.999Z</time></trkpt><trkpt lat="45.22812893551586" lon="8.462330134866866"><ele>117.00000000000001</ele><time>2026-04-06T08:37:09.999Z</time></trkpt><trkpt lat="45.22815536961574" lon="8.462422392822189"><ele>117.0</ele><time>2026-04-06T08:37:10.999Z</time></trkpt><trkpt lat="45.22815852869679" lon="8.462517242646486"><ele>117.0</ele><time>2026-04-06T08:37:11.999Z</time></trkpt><trkpt lat="45.2281552295167" lon="8.462622631143704"><ele>117.00000000000001</ele><time>2026-04-06T08:37:12.999Z</time></trkpt><trkpt lat="45.22816286593749" lon="8.462723577744852"><ele>117.0</ele><time>2026-04-06T08:37:13.999Z</time></trkpt><trkpt lat="45.22819614486439" lon="8.462810994910264"><ele>117.0</ele><time>2026-04-06T08:37:14.999Z</time></trkpt><trkpt lat="45.22825306492901" lon="8.46287958869602"><ele>117.0</ele><time>2026-04-06T08:37:15.999Z</time></trkpt><trkpt lat="45.228331001178624" lon="8.462911815245938"><ele>116.99999999999999</ele><time>2026-04-06T08:37:16.999Z</time></trkpt><trkpt lat="45.22841595274261" lon="8.46291052094183"><ele>116.99999999999999</ele><time>2026-04-06T08:37:17.999Z</time></trkpt><trkpt lat="45.2285082582495" lon="8.462899733571863"><ele>117.0</ele><time>2026-04-06T08:37:18.999Z</time></trkpt><trkpt lat="45.228607303872025" lon="8.46288318493049"><ele>117.0</ele><time>2026-04-06T08:37:19.999Z</time></trkpt><trkpt lat="45.22871526400962" lon="8.462946761142176"><ele>116.75</ele><time>2026-04-06T08:37:20.999Z</time></trkpt><trkpt lat="45.228831032835814" lon="8.463019147105136"><ele>116.5</ele><time>2026-04-06T08:37:21.999Z</time></trkpt><trkpt lat="45.22894549943588" lon="8.463096757569158"><ele>116.25</ele><time>2026-04-06T08:37:22.999Z</time></trkpt><trkpt lat="45.22906645662911" lon="8.46316312895314"><ele>116.0</ele><time>2026-04-06T08:37:23.999Z</time></trkpt><trkpt lat="45.22919953453624" lon="8.463218292185823"><ele>116.0</ele><time>2026-04-06T08:37:24.999Z</time></trkpt><trkpt lat="45.22934029311542" lon="8.463273544701845"><ele>116.0</ele><time>2026-04-06T08:37:25.999Z</time></trkpt><trkpt lat="45.22948658970261" lon="8.463334058464216"><ele>116.0</ele><time>2026-04-06T08:37:26.999Z</time></trkpt><trkpt lat="45.22963356735514" lon="8.46340231003976"><ele>116.0</ele><time>2026-04-06T08:37:27.999Z</time></trkpt><trkpt lat="45.22978618048008" lon="8.463469986879971"><ele>116.0</ele><time>2026-04-06T08:37:28.999Z</time></trkpt><trkpt lat="45.22993762388657" lon="8.463527561988718"><ele>116.0</ele><time>2026-04-06T08:37:29.999Z</time></trkpt><trkpt lat="45.23009089837451" lon="8.463578723762085"><ele>116.0</ele><time>2026-04-06T08:37:30.999Z</time></trkpt><trkpt lat="45.23025265990236" lon="8.46362289886438"><ele>116.0</ele><time>2026-04-06T08:37:31.999Z</time></trkpt><trkpt lat="45.23042390474412" lon="8.46365900931572"><ele>116.0</ele><time>2026-04-06T08:37:32.999Z</time></trkpt><trkpt lat="45.23060443520833" lon="8.463684293730717"><ele>116.33333333333333</ele><time>2026-04-06T08:37:33.999Z</time></trkpt><trkpt lat="45.23079665931598" lon="8.463697815407086"><ele>116.66666666666666</ele><time>2026-04-06T08:37:34.999Z</time></trkpt><trkpt lat="45.23099400003379" lon="8.463697661729881"><ele>117.0</ele><time>2026-04-06T08:37:35.999Z</time></trkpt><trkpt lat="45.23119103270964" lon="8.463680289573027"><ele>117.0</ele><time>2026-04-06T08:37:36.999Z</time></trkpt><trkpt lat="45.23138435976859" lon="8.463654424396262"><ele>117.0</ele><time>2026-04-06T08:37:37.999Z</time></trkpt><trkpt lat="45.2315775672575" lon="8.463617141460956"><ele>117.0</ele><time>2026-04-06T08:37:38.999Z</time></trkpt><trkpt lat="45.23177227438868" lon="8.46356382319557"><ele>117.0</ele><time>2026-04-06T08:37:39.999Z</time></trkpt><trkpt lat="45.231969627054625" lon="8.463497687351543"><ele>117.0</ele><time>2026-04-06T08:37:40.999Z</time></trkpt><trkpt lat="45.23217139211343" lon="8.463411053810592"><ele>117.0</ele><time>2026-04-06T08:37:41.999Z</time></trkpt><trkpt lat="45.23237235394182" lon="8.463309917981572"><ele>117.33333333333334</ele><time>2026-04-06T08:37:42.999Z</time></trkpt><trkpt lat="45.232572920236905" lon="8.463188897782253"><ele>117.66666666666667</ele><time>2026-04-06T08:37:43.999Z</time></trkpt><trkpt lat="45.232772637322604" lon="8.463047544615613"><ele>118.0</ele><time>2026-04-06T08:37:44.999Z</time></trkpt><trkpt lat="45.23297018400937" lon="8.46289303839187"><ele>117.5</ele><time>2026-04-06T08:37:45.999Z</time></trkpt><trkpt lat="45.233161878751524" lon="8.46272424106668"><ele>117.0</ele><time>2026-04-06T08:37:46.999Z</time></trkpt><trkpt lat="45.233346141696245" lon="8.462541647524716"><ele>117.0</ele><time>2026-04-06T08:37:47.999Z</time></trkpt><trkpt lat="45.23352556012783" lon="8.462348315785995"><ele>117.0</ele><time>2026-04-06T08:37:48.999Z</time></trkpt><trkpt lat="45.23370076214546" lon="8.462146638894385"><ele>117.0</ele><time>2026-04-06T08:37:49.999Z</time></trkpt><trkpt lat="45.23387430286135" lon="8.461941950119803"><ele>117.0</ele><time>2026-04-06T08:37:50.999Z</time></trkpt><trkpt lat="45.23405108980628" lon="8.461737404573503"><ele>117.5</ele><time>2026-04-06T08:37:51.999Z</time></trkpt><trkpt lat="45.23422876579419" lon="8.461535986648741"><ele>118.0</ele><time>2026-04-06T08:37:52.999Z</time></trkpt><trkpt lat="45.234406945408445" lon="8.461333352398123"><ele>118.0</ele><time>2026-04-06T08:37:53.999Z</time></trkpt><trkpt lat="45.234586400532386" lon="8.461128403853172"><ele>118.0</ele><time>2026-04-06T08:37:54.999Z</time></trkpt><trkpt lat="45.23476476772879" lon="8.460923452579687"><ele>117.5</ele><time>2026-04-06T08:37:55.999Z</time></trkpt><trkpt lat="45.234942449704775" lon="8.460717366396466"><ele>117.0</ele><time>2026-04-06T08:37:56.999Z</time></trkpt><trkpt lat="45.23512078088537" lon="8.460512111905006"><ele>118.5</ele><time>2026-04-06T08:37:58Z</time></trkpt><trkpt lat="45.235297791990085" lon="8.460306875838988"><ele>120.0</ele><time>2026-04-06T08:37:59Z</time></trkpt><trkpt lat="45.23547497972576" lon="8.460103230295104"><ele>117.5</ele><time>2026-04-06T08:38:00Z</time></trkpt><trkpt lat="45.23565189120186" lon="8.459902425799829"><ele>115.0</ele><time>2026-04-06T08:38:01Z</time></trkpt><trkpt lat="45.23582789875896" lon="8.459701536562768"><ele>114.5</ele><time>2026-04-06T08:38:02Z</time></trkpt><trkpt lat="45.23600362753517" lon="8.45949950988905"><ele>114.0</ele><time>2026-04-06T08:38:03Z</time></trkpt><trkpt lat="45.236180814402424" lon="8.459297038316455"><ele>114.0</ele><time>2026-04-06T08:38:04Z</time></trkpt><trkpt lat="45.23635731440251" lon="8.459093121865514"><ele>114.0</ele><time>2026-04-06T08:38:05Z</time></trkpt><trkpt lat="45.23653467339667" lon="8.458888549341465"><ele>115.0</ele><time>2026-04-06T08:38:06Z</time></trkpt><trkpt lat="45.23671127825189" lon="8.458685076161599"><ele>116.0</ele><time>2026-04-06T08:38:07Z</time></trkpt><trkpt lat="45.23688982547981" lon="8.458485431020497"><ele>116.0</ele><time>2026-04-06T08:38:08Z</time></trkpt><trkpt lat="45.23707053202064" lon="8.45829251903347"><ele>116.0</ele><time>2026-04-06T08:38:09Z</time></trkpt><trkpt lat="45.23725635874067" lon="8.458108994763299"><ele>116.0</ele><time>2026-04-06T08:38:10Z</time></trkpt><trkpt lat="45.23744980959805" lon="8.45793845028962"><ele>116.0</ele><time>2026-04-06T08:38:11Z</time></trkpt><trkpt lat="45.237651670125395" lon="8.457785580752844"><ele>116.0</ele><time>2026-04-06T08:38:12Z</time></trkpt><trkpt lat="45.23786064362645" lon="8.45765404153931"><ele>116.0</ele><time>2026-04-06T08:38:13Z</time></trkpt><trkpt lat="45.238076517716976" lon="8.457541788819908"><ele>116.0</ele><time>2026-04-06T08:38:14Z</time></trkpt><trkpt lat="45.23829751287533" lon="8.457449045484088"><ele>116.0</ele><time>2026-04-06T08:38:15Z</time></trkpt><trkpt lat="45.23852131879069" lon="8.457378599707852"><ele>116.0</ele><time>2026-04-06T08:38:16Z</time></trkpt><trkpt lat="45.238748368989825" lon="8.45732887427245"><ele>116.0</ele><time>2026-04-06T08:38:17Z</time></trkpt><trkpt lat="45.23897719511319" lon="8.457299021882863"><ele>116.5</ele><time>2026-04-06T08:38:18Z</time></trkpt><trkpt lat="45.23920840921518" lon="8.457286493187093"><ele>117.0</ele><time>2026-04-06T08:38:19Z</time></trkpt><trkpt lat="45.23943837291598" lon="8.45728971159608"><ele>117.0</ele><time>2026-04-06T08:38:20Z</time></trkpt><trkpt lat="45.23966756827113" lon="8.457315446422507"><ele>117.0</ele><time>2026-04-06T08:38:21Z</time></trkpt><trkpt lat="45.23989459711466" lon="8.457362582839444"><ele>117.0</ele><time>2026-04-06T08:38:22Z</time></trkpt><trkpt lat="45.24011960529048" lon="8.457426440457057"><ele>117.0</ele><time>2026-04-06T08:38:23Z</time></trkpt><trkpt lat="45.24034293802956" lon="8.457495728449251"><ele>117.0</ele><time>2026-04-06T08:38:24Z</time></trkpt><trkpt lat="45.240567489903775" lon="8.457561894991002"><ele>117.0</ele><time>2026-04-06T08:38:25Z</time></trkpt><trkpt lat="45.24079201310635" lon="8.457627387832996"><ele>117.0</ele><time>2026-04-06T08:38:26Z</time></trkpt><trkpt lat="45.241016085869866" lon="8.45769222056348"><ele>117.0</ele><time>2026-04-06T08:38:27Z</time></trkpt><trkpt lat="45.241240051024185" lon="8.457755882080143"><ele>117.0</ele><time>2026-04-06T08:38:28Z</time></trkpt><trkpt lat="45.24146459875255" lon="8.457819977332159"><ele>117.0</ele><time>2026-04-06T08:38:29Z</time></trkpt><trkpt lat="45.24168855241979" lon="8.457883817632554"><ele>117.0</ele><time>2026-04-06T08:38:30Z</time></trkpt><trkpt lat="45.24191289813619" lon="8.457947011451072"><ele>117.0</ele><time>2026-04-06T08:38:31Z</time></trkpt><trkpt lat="45.242137831145506" lon="8.458011918687536"><ele>117.0</ele><time>2026-04-06T08:38:32Z</time></trkpt><trkpt lat="45.24236264419741" lon="8.458077644192496"><ele>117.0</ele><time>2026-04-06T08:38:33Z</time></trkpt><trkpt lat="45.242588698064665" lon="8.45814225216542"><ele>117.0</ele><time>2026-04-06T08:38:34Z</time></trkpt><trkpt lat="45.24281509319022" lon="8.458209325737652"><ele>117.0</ele><time>2026-04-06T08:38:35Z</time></trkpt><trkpt lat="45.243038835170076" lon="8.458277944893904"><ele>117.0</ele><time>2026-04-06T08:38:36Z</time></trkpt><trkpt lat="45.24326153354111" lon="8.458343048413274"><ele>117.0</ele><time>2026-04-06T08:38:37Z</time></trkpt><trkpt lat="45.24348559653601" lon="8.458405317267184"><ele>117.0</ele><time>2026-04-06T08:38:38Z</time></trkpt><trkpt lat="45.243709940966376" lon="8.458467597685107"><ele>117.0</ele><time>2026-04-06T08:38:39Z</time></trkpt><trkpt lat="45.24393369654734" lon="8.458530869037878"><ele>118.0</ele><time>2026-04-06T08:38:40Z</time></trkpt><trkpt lat="45.244157345974976" lon="8.458595273777922"><ele>119.0</ele><time>2026-04-06T08:38:41Z</time></trkpt><trkpt lat="45.244381169398096" lon="8.458660510374196"><ele>119.0</ele><time>2026-04-06T08:38:42Z</time></trkpt><trkpt lat="45.24460541498486" lon="8.458725754361343"><ele>119.0</ele><time>2026-04-06T08:38:43Z</time></trkpt><trkpt lat="45.24482902693408" lon="8.458789940505829"><ele>119.0</ele><time>2026-04-06T08:38:44Z</time></trkpt><trkpt lat="45.24505332956461" lon="8.45885382064963"><ele>119.0</ele><time>2026-04-06T08:38:45Z</time></trkpt><trkpt lat="45.2452779937769" lon="8.458917977197071"><ele>119.0</ele><time>2026-04-06T08:38:46Z</time></trkpt><trkpt lat="45.24550215523509" lon="8.458983432622329"><ele>119.0</ele><time>2026-04-06T08:38:47Z</time></trkpt><trkpt lat="45.24572655202678" lon="8.459047643050809"><ele>119.0</ele><time>2026-04-06T08:38:48Z</time></trkpt><trkpt lat="45.24595103198293" lon="8.459111674015643"><ele>119.0</ele><time>2026-04-06T08:38:49Z</time></trkpt><trkpt lat="45.24617402121338" lon="8.459177159408545"><ele>119.0</ele><time>2026-04-06T08:38:50Z</time></trkpt><trkpt lat="45.24639912532487" lon="8.459244366405063"><ele>119.0</ele><time>2026-04-06T08:38:51Z</time></trkpt><trkpt lat="45.24662727449789" lon="8.459311484569078"><ele>119.5</ele><time>2026-04-06T08:38:52Z</time></trkpt><trkpt lat="45.24685467438844" lon="8.459376143137378"><ele>120.0</ele><time>2026-04-06T08:38:53Z</time></trkpt><trkpt lat="45.247080807736936" lon="8.459441161799257"><ele>120.5</ele><time>2026-04-06T08:38:54Z</time></trkpt><trkpt lat="45.247308475044115" lon="8.459507617664022"><ele>121.0</ele><time>2026-04-06T08:38:55Z</time></trkpt><trkpt lat="45.24753716707217" lon="8.45957440360369"><ele>120.5</ele><time>2026-04-06T08:38:56Z</time></trkpt><trkpt lat="45.24776259864593" lon="8.4596397305917"><ele>120.0</ele><time>2026-04-06T08:38:57Z</time></trkpt><trkpt lat="45.24798518532172" lon="8.459701355407732"><ele>122.0</ele><time>2026-04-06T08:38:58Z</time></trkpt><trkpt lat="45.248208791922856" lon="8.45976443786358"><ele>124.0</ele><time>2026-04-06T08:38:59Z</time></trkpt><trkpt lat="45.24843280034901" lon="8.459828838591998"><ele>124.0</ele><time>2026-04-06T08:39:00Z</time></trkpt><trkpt lat="45.248657214200236" lon="8.459892575692672"><ele>124.0</ele><time>2026-04-06T08:39:01Z</time></trkpt><trkpt lat="45.248881317135826" lon="8.459956574272887"><ele>123.5</ele><time>2026-04-06T08:39:02Z</time></trkpt><trkpt lat="45.24910657778917" lon="8.46002123807245"><ele>123.0</ele><time>2026-04-06T08:39:03Z</time></trkpt><trkpt lat="45.24933266433664" lon="8.460085423638398"><ele>123.0</ele><time>2026-04-06T08:39:04Z</time></trkpt><trkpt lat="45.249560175920166" lon="8.460147440159039"><ele>123.0</ele><time>2026-04-06T08:39:05Z</time></trkpt><trkpt lat="45.24978792485327" lon="8.46020372261188"><ele>122.5</ele><time>2026-04-06T08:39:06Z</time></trkpt><trkpt lat="45.250015919696786" lon="8.460261569145619"><ele>122.0</ele><time>2026-04-06T08:39:07Z</time></trkpt><trkpt lat="45.25024046046607" lon="8.460326383063586"><ele>122.0</ele><time>2026-04-06T08:39:07.999Z</time></trkpt><trkpt lat="45.250453677428496" lon="8.46039134273907"><ele>122.0</ele><time>2026-04-06T08:39:08.999Z</time></trkpt><trkpt lat="45.25065925239565" lon="8.460454500111547"><ele>122.0</ele><time>2026-04-06T08:39:09.999Z</time></trkpt><trkpt lat="45.2508570148858" lon="8.460514339796894"><ele>121.33333333333333</ele><time>2026-04-06T08:39:10.999Z</time></trkpt><trkpt lat="45.25104808114547" lon="8.46057067829493"><ele>120.66666666666666</ele><time>2026-04-06T08:39:11.999Z</time></trkpt><trkpt lat="45.251248231975836" lon="8.46062921787318"><ele>120.0</ele><time>2026-04-06T08:39:12.999Z</time></trkpt><trkpt lat="45.25145544476487" lon="8.460687073278821"><ele>120.0</ele><time>2026-04-06T08:39:13.999Z</time></trkpt><trkpt lat="45.25166985816252" lon="8.460748267373303"><ele>120.0</ele><time>2026-04-06T08:39:14.999Z</time></trkpt><trkpt lat="45.25189044106631" lon="8.460810191477824"><ele>120.0</ele><time>2026-04-06T08:39:15.999Z</time></trkpt><trkpt lat="45.25211555790908" lon="8.460873175810667"><ele>119.0</ele><time>2026-04-06T08:39:16.999Z</time></trkpt><trkpt lat="45.25234100755359" lon="8.460936579531143"><ele>118.0</ele><time>2026-04-06T08:39:17.999Z</time></trkpt><trkpt lat="45.25256609975311" lon="8.461000384019458"><ele>118.0</ele><time>2026-04-06T08:39:18.999Z</time></trkpt><trkpt lat="45.25279085805717" lon="8.461063115233436"><ele>118.0</ele><time>2026-04-06T08:39:19.999Z</time></trkpt><trkpt lat="45.253012462952285" lon="8.461125469827373"><ele>118.0</ele><time>2026-04-06T08:39:20.999Z</time></trkpt><trkpt lat="45.25322439637448" lon="8.46118407287314"><ele>118.0</ele><time>2026-04-06T08:39:21.999Z</time></trkpt><trkpt lat="45.25342490916732" lon="8.461240212070846"><ele>118.0</ele><time>2026-04-06T08:39:22.999Z</time></trkpt><trkpt lat="45.253615743794555" lon="8.461295359150975"><ele>117.66666666666667</ele><time>2026-04-06T08:39:23.999Z</time></trkpt><trkpt lat="45.253796947191766" lon="8.46134808924284"><ele>117.33333333333334</ele><time>2026-04-06T08:39:24.999Z</time></trkpt><trkpt lat="45.25397101924512" lon="8.461396638134874"><ele>117.0</ele><time>2026-04-06T08:39:25.999Z</time></trkpt><trkpt lat="45.25413511464945" lon="8.461443236470563"><ele>117.0</ele><time>2026-04-06T08:39:26.999Z</time></trkpt><trkpt lat="45.25429090405309" lon="8.461489014768645"><ele>117.0</ele><time>2026-04-06T08:39:27.999Z</time></trkpt><trkpt lat="45.25444055995694" lon="8.461535485974348"><ele>117.0</ele><time>2026-04-06T08:39:28.999Z</time></trkpt><trkpt lat="45.254585322653796" lon="8.4615879094981"><ele>117.0</ele><time>2026-04-06T08:39:29.999Z</time></trkpt><trkpt lat="45.25473304314398" lon="8.461652273604285"><ele>117.0</ele><time>2026-04-06T08:39:30.999Z</time></trkpt><trkpt lat="45.25487989003758" lon="8.461726764969365"><ele>117.0</ele><time>2026-04-06T08:39:31.999Z</time></trkpt><trkpt lat="45.255018207469796" lon="8.46180621640238"><ele>117.5</ele><time>2026-04-06T08:39:32.999Z</time></trkpt><trkpt lat="45.255148172131534" lon="8.461888987699888"><ele>118.0</ele><time>2026-04-06T08:39:33.999Z</time></trkpt><trkpt lat="45.255270919851185" lon="8.461975044253172"><ele>118.5</ele><time>2026-04-06T08:39:34.999Z</time></trkpt><trkpt lat="45.255385186813825" lon="8.462062413709244"><ele>119.0</ele><time>2026-04-06T08:39:35.999Z</time></trkpt><trkpt lat="45.25549338553341" lon="8.462151072061568"><ele>119.0</ele><time>2026-04-06T08:39:36.999Z</time></trkpt><trkpt lat="45.2555999437547" lon="8.462244428811678"><ele>119.0</ele><time>2026-04-06T08:39:37.999Z</time></trkpt><trkpt lat="45.25571485340997" lon="8.462348788267553"><ele>119.0</ele><time>2026-04-06T08:39:38.999Z</time></trkpt><trkpt lat="45.255833739871456" lon="8.462459642876375"><ele>119.0</ele><time>2026-04-06T08:39:39.999Z</time></trkpt><trkpt lat="45.25595447772371" lon="8.462571156320465"><ele>118.75</ele><time>2026-04-06T08:39:40.999Z</time></trkpt><trkpt lat="45.256068626997" lon="8.462680954639278"><ele>118.5</ele><time>2026-04-06T08:39:41.999Z</time></trkpt><trkpt lat="45.25618295463446" lon="8.462789198428446"><ele>118.25</ele><time>2026-04-06T08:39:42.999Z</time></trkpt><trkpt lat="45.25629950208834" lon="8.462898206361691"><ele>118.0</ele><time>2026-04-06T08:39:43.999Z</time></trkpt><trkpt lat="45.25641415431708" lon="8.46300567366524"><ele>117.25</ele><time>2026-04-06T08:39:44.999Z</time></trkpt><trkpt lat="45.256529636571415" lon="8.4631146450184"><ele>116.5</ele><time>2026-04-06T08:39:45.999Z</time></trkpt><trkpt lat="45.256644525747774" lon="8.463221928347119"><ele>115.75</ele><time>2026-04-06T08:39:46.999Z</time></trkpt><trkpt lat="45.25676132627939" lon="8.463329946872253"><ele>115.0</ele><time>2026-04-06T08:39:47.999Z</time></trkpt><trkpt lat="45.25687692139639" lon="8.463432868212413"><ele>115.0</ele><time>2026-04-06T08:39:48.999Z</time></trkpt><trkpt lat="45.25699245025928" lon="8.463532035124825"><ele>115.0</ele><time>2026-04-06T08:39:49.999Z</time></trkpt><trkpt lat="45.25710875313661" lon="8.463620631202943"><ele>115.0</ele><time>2026-04-06T08:39:50.999Z</time></trkpt><trkpt lat="45.257229081301176" lon="8.463698062319601"><ele>115.0</ele><time>2026-04-06T08:39:51.999Z</time></trkpt><trkpt lat="45.2573509990999" lon="8.463767496021271"><ele>115.2</ele><time>2026-04-06T08:39:52.999Z</time></trkpt><trkpt lat="45.25746816276024" lon="8.463823694071873"><ele>115.4</ele><time>2026-04-06T08:39:53.999Z</time></trkpt><trkpt lat="45.257581234572875" lon="8.463873853785454"><ele>115.6</ele><time>2026-04-06T08:39:54.999Z</time></trkpt><trkpt lat="45.257679270967024" lon="8.46391719619032"><ele>115.8</ele><time>2026-04-06T08:39:55.999Z</time></trkpt><trkpt lat="45.25775989555424" lon="8.463961216422238"><ele>116.0</ele><time>2026-04-06T08:39:56.999Z</time></trkpt><trkpt lat="45.25782877013206" lon="8.464013053849312"><ele>115.99999999999999</ele><time>2026-04-06T08:39:57.999Z</time></trkpt><trkpt lat="45.25788244383083" lon="8.464090121196897"><ele>116.0</ele><time>2026-04-06T08:39:58.999Z</time></trkpt><trkpt lat="45.257932160805105" lon="8.464163312675426"><ele>116.0</ele><time>2026-04-06T08:39:59.999Z</time></trkpt><trkpt lat="45.257995424260955" lon="8.46421423679925"><ele>116.0</ele><time>2026-04-06T08:40:00.999Z</time></trkpt><trkpt lat="45.25807321583062" lon="8.464211559583307"><ele>115.99999999999999</ele><time>2026-04-06T08:40:01.999Z</time></trkpt><trkpt lat="45.258154158677264" lon="8.464157673813256"><ele>116.0</ele><time>2026-04-06T08:40:02.999Z</time></trkpt><trkpt lat="45.2582431382522" lon="8.464097245985798"><ele>116.75</ele><time>2026-04-06T08:40:04Z</time></trkpt><trkpt lat="45.25834868996838" lon="8.464050924458132"><ele>117.5</ele><time>2026-04-06T08:40:05Z</time></trkpt><trkpt lat="45.25846100026881" lon="8.464028203959314"><ele>118.25</ele><time>2026-04-06T08:40:06Z</time></trkpt><trkpt lat="45.25858609720696" lon="8.464025552357468"><ele>119.0</ele><time>2026-04-06T08:40:07Z</time></trkpt><trkpt lat="45.25871615782871" lon="8.464030155700428"><ele>119.0</ele><time>2026-04-06T08:40:08Z</time></trkpt><trkpt lat="45.258835468734894" lon="8.464031022775423"><ele>119.0</ele><time>2026-04-06T08:40:09Z</time></trkpt><trkpt lat="45.25895888717064" lon="8.46402935321054"><ele>119.0</ele><time>2026-04-06T08:40:10Z</time></trkpt><trkpt lat="45.25908953890892" lon="8.46402592612501"><ele>119.0</ele><time>2026-04-06T08:40:11Z</time></trkpt><trkpt lat="45.25922511518748" lon="8.464023666400024"><ele>119.25</ele><time>2026-04-06T08:40:12Z</time></trkpt><trkpt lat="45.25936820107917" lon="8.464021991847346"><ele>119.5</ele><time>2026-04-06T08:40:13Z</time></trkpt><trkpt lat="45.2595184250636" lon="8.46402093649782"><ele>119.75</ele><time>2026-04-06T08:40:14Z</time></trkpt><trkpt lat="45.25967261903213" lon="8.464018524147352"><ele>120.0</ele><time>2026-04-06T08:40:15Z</time></trkpt><trkpt lat="45.25982866607261" lon="8.4640162584435"><ele>120.33333333333334</ele><time>2026-04-06T08:40:16Z</time></trkpt><trkpt lat="45.259991367166606" lon="8.464012181042031"><ele>120.66666666666667</ele><time>2026-04-06T08:40:17Z</time></trkpt><trkpt lat="45.26015221334414" lon="8.464007712428389"><ele>121.0</ele><time>2026-04-06T08:40:18Z</time></trkpt><trkpt lat="45.26031123143783" lon="8.464002197724424"><ele>121.0</ele><time>2026-04-06T08:40:19Z</time></trkpt><trkpt lat="45.26047758981543" lon="8.463996202076807"><ele>121.0</ele><time>2026-04-06T08:40:20Z</time></trkpt><trkpt lat="45.26064751802794" lon="8.463990012315078"><ele>121.0</ele><time>2026-04-06T08:40:21Z</time></trkpt><trkpt lat="45.26082542557075" lon="8.463983568058921"><ele>120.33333333333334</ele><time>2026-04-06T08:40:22Z</time></trkpt><trkpt lat="45.261006825424275" lon="8.463976566613914"><ele>119.66666666666666</ele><time>2026-04-06T08:40:23Z</time></trkpt><trkpt lat="45.261191969761796" lon="8.463976108529332"><ele>119.0</ele><time>2026-04-06T08:40:24Z</time></trkpt><trkpt lat="45.261380982163224" lon="8.463979130466555"><ele>119.0</ele><time>2026-04-06T08:40:25Z</time></trkpt><trkpt lat="45.26157059012007" lon="8.463979502218052"><ele>119.0</ele><time>2026-04-06T08:40:26Z</time></trkpt><trkpt lat="45.26175681695832" lon="8.463978721482407"><ele>119.0</ele><time>2026-04-06T08:40:27Z</time></trkpt><trkpt lat="45.26193892674954" lon="8.46397522764751"><ele>119.0</ele><time>2026-04-06T08:40:28Z</time></trkpt><trkpt lat="45.262118752691386" lon="8.463969113326005"><ele>119.0</ele><time>2026-04-06T08:40:29Z</time></trkpt><trkpt lat="45.262297048833574" lon="8.463962635249558"><ele>119.0</ele><time>2026-04-06T08:40:30Z</time></trkpt><trkpt lat="45.262473040231654" lon="8.463957139931573"><ele>118.66666666666666</ele><time>2026-04-06T08:40:31Z</time></trkpt><trkpt lat="45.26264560032241" lon="8.463952587140087"><ele>118.33333333333334</ele><time>2026-04-06T08:40:32Z</time></trkpt><trkpt lat="45.26282563032217" lon="8.463948863959967"><ele>118.0</ele><time>2026-04-06T08:40:33Z</time></trkpt><trkpt lat="45.263000388963526" lon="8.463944899866522"><ele>118.66666666666667</ele><time>2026-04-06T08:40:34Z</time></trkpt><trkpt lat="45.263173514897034" lon="8.463939585516806"><ele>119.33333333333334</ele><time>2026-04-06T08:40:35Z</time></trkpt><trkpt lat="45.26334062870551" lon="8.463935006077794"><ele>120.0</ele><time>2026-04-06T08:40:36Z</time></trkpt><trkpt lat="45.26349984365771" lon="8.463930660720765"><ele>120.0</ele><time>2026-04-06T08:40:37Z</time></trkpt><trkpt lat="45.26365207089841" lon="8.463927828666156"><ele>120.0</ele><time>2026-04-06T08:40:38Z</time></trkpt><trkpt lat="45.26379704850635" lon="8.46392267200171"><ele>120.0</ele><time>2026-04-06T08:40:39Z</time></trkpt><trkpt lat="45.26393458691838" lon="8.463919468542498"><ele>120.0</ele><time>2026-04-06T08:40:40Z</time></trkpt><trkpt lat="45.26407654049904" lon="8.46391780184694"><ele>119.0</ele><time>2026-04-06T08:40:41Z</time></trkpt><trkpt lat="45.264229082530484" lon="8.463914663020267"><ele>118.0</ele><time>2026-04-06T08:40:42Z</time></trkpt><trkpt lat="45.264389139168415" lon="8.463909700603246"><ele>117.0</ele><time>2026-04-06T08:40:43Z</time></trkpt><trkpt lat="45.26455490692962" lon="8.463903594608137"><ele>117.0</ele><time>2026-04-06T08:40:44Z</time></trkpt><trkpt lat="45.26471650754129" lon="8.463898844744838"><ele>117.0</ele><time>2026-04-06T08:40:45Z</time></trkpt><trkpt lat="45.264869552403795" lon="8.463895307707471"><ele>117.0</ele><time>2026-04-06T08:40:46Z</time></trkpt><trkpt lat="45.26502653530109" lon="8.463894099586108"><ele>117.0</ele><time>2026-04-06T08:40:47Z</time></trkpt><trkpt lat="45.265191454764285" lon="8.463891420985235"><ele>117.0</ele><time>2026-04-06T08:40:48Z</time></trkpt><trkpt lat="45.26536214630109" lon="8.463887245279928"><ele>117.0</ele><time>2026-04-06T08:40:49Z</time></trkpt><trkpt lat="45.265536365671856" lon="8.46388151893013"><ele>117.33333333333334</ele><time>2026-04-06T08:40:50Z</time></trkpt><trkpt lat="45.26571267194478" lon="8.463875508786526"><ele>117.66666666666667</ele><time>2026-04-06T08:40:51Z</time></trkpt><trkpt lat="45.26588504230451" lon="8.463870665386239"><ele>118.0</ele><time>2026-04-06T08:40:52Z</time></trkpt><trkpt lat="45.266050823488555" lon="8.463867398971983"><ele>118.0</ele><time>2026-04-06T08:40:53Z</time></trkpt><trkpt lat="45.26621677144038" lon="8.46386561591644"><ele>118.0</ele><time>2026-04-06T08:40:54Z</time></trkpt><trkpt lat="45.26638416244769" lon="8.463862326323666"><ele>118.0</ele><time>2026-04-06T08:40:55Z</time></trkpt><trkpt lat="45.2665538636162" lon="8.463858297226372"><ele>118.0</ele><time>2026-04-06T08:40:56Z</time></trkpt><trkpt lat="45.26671917471374" lon="8.463854458166281"><ele>118.0</ele><time>2026-04-06T08:40:57Z</time></trkpt><trkpt lat="45.266880529490805" lon="8.463849970167075"><ele>118.0</ele><time>2026-04-06T08:40:58Z</time></trkpt><trkpt lat="45.26704223247166" lon="8.46384739366597"><ele>118.0</ele><time>2026-04-06T08:40:59Z</time></trkpt><trkpt lat="45.26720172403349" lon="8.46384380708579"><ele>118.0</ele><time>2026-04-06T08:41:00Z</time></trkpt><trkpt lat="45.267364288905966" lon="8.46383694650153"><ele>118.0</ele><time>2026-04-06T08:41:01Z</time></trkpt><trkpt lat="45.267529020582224" lon="8.463830755583611"><ele>117.66666666666667</ele><time>2026-04-06T08:41:02Z</time></trkpt><trkpt lat="45.267696911718076" lon="8.463827093349993"><ele>117.33333333333334</ele><time>2026-04-06T08:41:03Z</time></trkpt><trkpt lat="45.267861946294765" lon="8.463823290241349"><ele>117.0</ele><time>2026-04-06T08:41:04Z</time></trkpt><trkpt lat="45.26802830599643" lon="8.463820198440933"><ele>117.0</ele><time>2026-04-06T08:41:05Z</time></trkpt><trkpt lat="45.268193447260614" lon="8.463816771648375"><ele>117.0</ele><time>2026-04-06T08:41:06Z</time></trkpt><trkpt lat="45.26835829365133" lon="8.463812807329667"><ele>117.0</ele><time>2026-04-06T08:41:07Z</time></trkpt><trkpt lat="45.26852253671209" lon="8.463808763054086"><ele>117.0</ele><time>2026-04-06T08:41:08Z</time></trkpt><trkpt lat="45.26868614696036" lon="8.463803898546931"><ele>117.0</ele><time>2026-04-06T08:41:09Z</time></trkpt><trkpt lat="45.268853556278025" lon="8.463799715975798"><ele>117.0</ele><time>2026-04-06T08:41:10Z</time></trkpt><trkpt lat="45.269019115215556" lon="8.463795029130393"><ele>117.33333333333334</ele><time>2026-04-06T08:41:11Z</time></trkpt><trkpt lat="45.26917972110057" lon="8.463789085002453"><ele>117.66666666666667</ele><time>2026-04-06T08:41:12Z</time></trkpt><trkpt lat="45.26934079871526" lon="8.4637851663459"><ele>118.0</ele><time>2026-04-06T08:41:13Z</time></trkpt><trkpt lat="45.26950267125352" lon="8.463780693104534"><ele>117.66666666666667</ele><time>2026-04-06T08:41:14Z</time></trkpt><trkpt lat="45.26966438526945" lon="8.463775504059711"><ele>117.33333333333334</ele><time>2026-04-06T08:41:15Z</time></trkpt><trkpt lat="45.26982588772324" lon="8.463771578762607"><ele>117.0</ele><time>2026-04-06T08:41:16Z</time></trkpt><trkpt lat="45.2699896196677" lon="8.46376766722029"><ele>117.66666666666666</ele><time>2026-04-06T08:41:17Z</time></trkpt><trkpt lat="45.27015543862896" lon="8.4637633242301"><ele>118.33333333333333</ele><time>2026-04-06T08:41:18Z</time></trkpt><trkpt lat="45.270318969056035" lon="8.463758089809804"><ele>119.0</ele><time>2026-04-06T08:41:18.999Z</time></trkpt><trkpt lat="45.27048265422617" lon="8.463753675568324"><ele>118.66666666666666</ele><time>2026-04-06T08:41:19.999Z</time></trkpt><trkpt lat="45.270642117531104" lon="8.463749029991815"><ele>118.33333333333334</ele><time>2026-04-06T08:41:20.999Z</time></trkpt><trkpt lat="45.270793349464256" lon="8.463744063452443"><ele>118.0</ele><time>2026-04-06T08:41:21.999Z</time></trkpt><trkpt lat="45.27093965848536" lon="8.463735695926562"><ele>118.0</ele><time>2026-04-06T08:41:22.999Z</time></trkpt><trkpt lat="45.27108523140408" lon="8.46373094405778"><ele>118.0</ele><time>2026-04-06T08:41:23.999Z</time></trkpt><trkpt lat="45.27122701969419" lon="8.463727067619825"><ele>118.0</ele><time>2026-04-06T08:41:24.999Z</time></trkpt><trkpt lat="45.27136846953923" lon="8.463722603126062"><ele>118.0</ele><time>2026-04-06T08:41:25.999Z</time></trkpt><trkpt lat="45.27150809279755" lon="8.463717931670697"><ele>118.25</ele><time>2026-04-06T08:41:26.999Z</time></trkpt><trkpt lat="45.271642434954565" lon="8.46371373709697"><ele>118.5</ele><time>2026-04-06T08:41:27.999Z</time></trkpt><trkpt lat="45.271775468751" lon="8.463710235357405"><ele>118.75</ele><time>2026-04-06T08:41:28.999Z</time></trkpt><trkpt lat="45.27190831121932" lon="8.463708401739462"><ele>119.0</ele><time>2026-04-06T08:41:29.999Z</time></trkpt><trkpt lat="45.272043218188614" lon="8.463706512862341"><ele>119.0</ele><time>2026-04-06T08:41:30.999Z</time></trkpt><trkpt lat="45.27217613423866" lon="8.463703985035796"><ele>119.0</ele><time>2026-04-06T08:41:31.999Z</time></trkpt><trkpt lat="45.2723076661108" lon="8.463699485668704"><ele>119.0</ele><time>2026-04-06T08:41:32.999Z</time></trkpt><trkpt lat="45.27243943207445" lon="8.46369451462784"><ele>119.0</ele><time>2026-04-06T08:41:33.999Z</time></trkpt><trkpt lat="45.27257451878408" lon="8.463689952034082"><ele>118.5</ele><time>2026-04-06T08:41:34.999Z</time></trkpt><trkpt lat="45.27270935048035" lon="8.463685491623012"><ele>118.0</ele><time>2026-04-06T08:41:35.999Z</time></trkpt><trkpt lat="45.27284835951324" lon="8.463680472795755"><ele>117.5</ele><time>2026-04-06T08:41:36.999Z</time></trkpt><trkpt lat="45.27299034392263" lon="8.463675248592956"><ele>117.0</ele><time>2026-04-06T08:41:37.999Z</time></trkpt><trkpt lat="45.27313024384114" lon="8.463668513757847"><ele>116.75</ele><time>2026-04-06T08:41:38.999Z</time></trkpt><trkpt lat="45.273273235334486" lon="8.463661196140453"><ele>116.5</ele><time>2026-04-06T08:41:39.999Z</time></trkpt><trkpt lat="45.27341798238081" lon="8.46365397216573"><ele>116.25</ele><time>2026-04-06T08:41:40.999Z</time></trkpt><trkpt lat="45.27356184824792" lon="8.463646189420217"><ele>116.0</ele><time>2026-04-06T08:41:41.999Z</time></trkpt><trkpt lat="45.273707656501244" lon="8.463637545790135"><ele>116.0</ele><time>2026-04-06T08:41:42.999Z</time></trkpt><trkpt lat="45.273849992484315" lon="8.46362959751723"><ele>116.0</ele><time>2026-04-06T08:41:43.999Z</time></trkpt><trkpt lat="45.27398954438736" lon="8.46362242490294"><ele>116.0</ele><time>2026-04-06T08:41:44.999Z</time></trkpt><trkpt lat="45.27412813170616" lon="8.463615788424706"><ele>116.0</ele><time>2026-04-06T08:41:45.999Z</time></trkpt><trkpt lat="45.2742677222798" lon="8.4636128353894"><ele>116.5</ele><time>2026-04-06T08:41:46.999Z</time></trkpt><trkpt lat="45.27440777073012" lon="8.463609223380928"><ele>117.0</ele><time>2026-04-06T08:41:47.999Z</time></trkpt><trkpt lat="45.27454793535332" lon="8.463606807869544"><ele>117.5</ele><time>2026-04-06T08:41:48.999Z</time></trkpt><trkpt lat="45.27468648133288" lon="8.463601625041074"><ele>118.0</ele><time>2026-04-06T08:41:49.999Z</time></trkpt><trkpt lat="45.27482159100383" lon="8.463595490093928"><ele>118.0</ele><time>2026-04-06T08:41:50.999Z</time></trkpt><trkpt lat="45.27495492340482" lon="8.463590253739875"><ele>118.0</ele><time>2026-04-06T08:41:51.999Z</time></trkpt><trkpt lat="45.275089328808804" lon="8.463585544826653"><ele>118.0</ele><time>2026-04-06T08:41:52.999Z</time></trkpt><trkpt lat="45.27522589271636" lon="8.463580564006524"><ele>118.0</ele><time>2026-04-06T08:41:53.999Z</time></trkpt><trkpt lat="45.27536430725923" lon="8.463573191102618"><ele>118.0</ele><time>2026-04-06T08:41:54.999Z</time></trkpt><trkpt lat="45.275509077282" lon="8.463567365458687"><ele>118.0</ele><time>2026-04-06T08:41:55.999Z</time></trkpt><trkpt lat="45.27566076664947" lon="8.463557645090479"><ele>118.0</ele><time>2026-04-06T08:41:56.999Z</time></trkpt><trkpt lat="45.27581683299542" lon="8.463549424699076"><ele>118.33333333333334</ele><time>2026-04-06T08:41:57.999Z</time></trkpt><trkpt lat="45.27597991146754" lon="8.463537670324191"><ele>118.66666666666666</ele><time>2026-04-06T08:41:58.999Z</time></trkpt><trkpt lat="45.27615197880625" lon="8.463554075423703"><ele>119.0</ele><time>2026-04-06T08:41:59.999Z</time></trkpt><trkpt lat="45.27633040591524" lon="8.463547532535522"><ele>119.0</ele><time>2026-04-06T08:42:00.999Z</time></trkpt><trkpt lat="45.2765157180782" lon="8.463540737175906"><ele>119.0</ele><time>2026-04-06T08:42:01.999Z</time></trkpt><trkpt lat="45.276704516224264" lon="8.463533813988484"><ele>119.0</ele><time>2026-04-06T08:42:02.999Z</time></trkpt><trkpt lat="45.27688358496575" lon="8.463504666884537"><ele>119.0</ele><time>2026-04-06T08:42:03.999Z</time></trkpt><trkpt lat="45.27705503334293" lon="8.463501232956148"><ele>119.0</ele><time>2026-04-06T08:42:04.999Z</time></trkpt><trkpt lat="45.27721845007474" lon="8.463495930040024"><ele>119.0</ele><time>2026-04-06T08:42:05.999Z</time></trkpt><trkpt lat="45.277377413454474" lon="8.46349144483613"><ele>118.5</ele><time>2026-04-06T08:42:06.999Z</time></trkpt><trkpt lat="45.27753016958369" lon="8.463486439059407"><ele>118.0</ele><time>2026-04-06T08:42:07.999Z</time></trkpt><trkpt lat="45.27767720920068" lon="8.463481410750116"><ele>117.5</ele><time>2026-04-06T08:42:08.999Z</time></trkpt><trkpt lat="45.277825539202446" lon="8.463477062456453"><ele>117.0</ele><time>2026-04-06T08:42:10Z</time></trkpt><trkpt lat="45.27797824220949" lon="8.463472119775448"><ele>117.33333333333334</ele><time>2026-04-06T08:42:11Z</time></trkpt><trkpt lat="45.278142844528475" lon="8.4634632091529"><ele>117.66666666666667</ele><time>2026-04-06T08:42:12Z</time></trkpt><trkpt lat="45.27831679589706" lon="8.46344933592518"><ele>118.0</ele><time>2026-04-06T08:42:13Z</time></trkpt><trkpt lat="45.278497838565166" lon="8.463434739598103"><ele>118.0</ele><time>2026-04-06T08:42:14Z</time></trkpt><trkpt lat="45.278685762471184" lon="8.463432150692304"><ele>118.0</ele><time>2026-04-06T08:42:15Z</time></trkpt><trkpt lat="45.27887099478" lon="8.463456965362811"><ele>118.0</ele><time>2026-04-06T08:42:16Z</time></trkpt><trkpt lat="45.27904261422932" lon="8.463430229581013"><ele>118.66666666666667</ele><time>2026-04-06T08:42:17Z</time></trkpt><trkpt lat="45.27920655264823" lon="8.4634268562785"><ele>119.33333333333334</ele><time>2026-04-06T08:42:18Z</time></trkpt><trkpt lat="45.27936784960621" lon="8.463425492959454"><ele>120.0</ele><time>2026-04-06T08:42:19Z</time></trkpt><trkpt lat="45.27952427411017" lon="8.463421680804721"><ele>120.0</ele><time>2026-04-06T08:42:20Z</time></trkpt><trkpt lat="45.27967809700732" lon="8.463413459277653"><ele>120.0</ele><time>2026-04-06T08:42:21Z</time></trkpt><trkpt lat="45.279829429719996" lon="8.46339621037541"><ele>120.0</ele><time>2026-04-06T08:42:22Z</time></trkpt><trkpt lat="45.279979446077334" lon="8.463362392802038"><ele>119.0</ele><time>2026-04-06T08:42:23Z</time></trkpt><trkpt lat="45.28013254822254" lon="8.46331430578831"><ele>118.0</ele><time>2026-04-06T08:42:24Z</time></trkpt><trkpt lat="45.28028793782379" lon="8.463247738309898"><ele>117.0</ele><time>2026-04-06T08:42:25Z</time></trkpt><trkpt lat="45.280443326596945" lon="8.463167826720754"><ele>117.0</ele><time>2026-04-06T08:42:26Z</time></trkpt><trkpt lat="45.280594775766865" lon="8.463077838441842"><ele>117.0</ele><time>2026-04-06T08:42:27Z</time></trkpt><trkpt lat="45.280742567380656" lon="8.462985196097614"><ele>117.0</ele><time>2026-04-06T08:42:28Z</time></trkpt><trkpt lat="45.28087914264134" lon="8.462899504728343"><ele>117.0</ele><time>2026-04-06T08:42:29Z</time></trkpt><trkpt lat="45.281010791163844" lon="8.462814525979002"><ele>117.0</ele><time>2026-04-06T08:42:30Z</time></trkpt><trkpt lat="45.281140164956184" lon="8.462729427987217"><ele>117.0</ele><time>2026-04-06T08:42:31Z</time></trkpt><trkpt lat="45.281267448587215" lon="8.462645783634139"><ele>117.0</ele><time>2026-04-06T08:42:32Z</time></trkpt><trkpt lat="45.28139281964023" lon="8.462566119516808"><ele>117.75</ele><time>2026-04-06T08:42:33Z</time></trkpt><trkpt lat="45.28151545592149" lon="8.462485034648513"><ele>118.5</ele><time>2026-04-06T08:42:34Z</time></trkpt><trkpt lat="45.28163548926422" lon="8.46240369597047"><ele>119.25</ele><time>2026-04-06T08:42:35Z</time></trkpt><trkpt lat="45.281759754480426" lon="8.462339150424329"><ele>120.0</ele><time>2026-04-06T08:42:36Z</time></trkpt><trkpt lat="45.281871158641295" lon="8.462240537363385"><ele>120.0</ele><time>2026-04-06T08:42:37Z</time></trkpt><trkpt lat="45.28199102498161" lon="8.46214885760874"><ele>120.0</ele><time>2026-04-06T08:42:38Z</time></trkpt><trkpt lat="45.28211974390334" lon="8.462050956070696"><ele>120.0</ele><time>2026-04-06T08:42:39Z</time></trkpt><trkpt lat="45.28225474365929" lon="8.461947927841438"><ele>120.0</ele><time>2026-04-06T08:42:40Z</time></trkpt><trkpt lat="45.28239326819415" lon="8.461843881877394"><ele>120.0</ele><time>2026-04-06T08:42:41Z</time></trkpt><trkpt lat="45.282541697494274" lon="8.461759393879282"><ele>120.0</ele><time>2026-04-06T08:42:42Z</time></trkpt><trkpt lat="45.28268031260044" lon="8.4616579910198"><ele>120.0</ele><time>2026-04-06T08:42:43Z</time></trkpt><trkpt lat="45.282815130428204" lon="8.461557241002257"><ele>120.0</ele><time>2026-04-06T08:42:44Z</time></trkpt><trkpt lat="45.28294739067013" lon="8.461448287722579"><ele>120.0</ele><time>2026-04-06T08:42:45Z</time></trkpt><trkpt lat="45.283073881772644" lon="8.46130853312525"><ele>120.0</ele><time>2026-04-06T08:42:46Z</time></trkpt><trkpt lat="45.28320437504434" lon="8.461187931691507"><ele>120.33333333333334</ele><time>2026-04-06T08:42:47Z</time></trkpt><trkpt lat="45.283350297010564" lon="8.46107845821611"><ele>120.66666666666667</ele><time>2026-04-06T08:42:48Z</time></trkpt><trkpt lat="45.283495424733246" lon="8.460941933536686"><ele>121.0</ele><time>2026-04-06T08:42:49Z</time></trkpt><trkpt lat="45.28364819608509" lon="8.460798218416468"><ele>121.0</ele><time>2026-04-06T08:42:50Z</time></trkpt><trkpt lat="45.283804303041485" lon="8.460651761650526"><ele>121.0</ele><time>2026-04-06T08:42:51Z</time></trkpt><trkpt lat="45.283964497856935" lon="8.460501861388838"><ele>121.0</ele><time>2026-04-06T08:42:52Z</time></trkpt><trkpt lat="45.28412018807093" lon="8.460356147125275"><ele>121.33333333333334</ele><time>2026-04-06T08:42:53Z</time></trkpt><trkpt lat="45.284269333053075" lon="8.460216565076728"><ele>121.66666666666666</ele><time>2026-04-06T08:42:54Z</time></trkpt><trkpt lat="45.284418670913254" lon="8.460076802418298"><ele>122.0</ele><time>2026-04-06T08:42:55Z</time></trkpt><trkpt lat="45.28456694259132" lon="8.459938037644784"><ele>122.0</ele><time>2026-04-06T08:42:56Z</time></trkpt><trkpt lat="45.284709996450665" lon="8.459804156128872"><ele>122.0</ele><time>2026-04-06T08:42:57Z</time></trkpt><trkpt lat="45.284849888075335" lon="8.459673234075094"><ele>122.0</ele><time>2026-04-06T08:42:58Z</time></trkpt><trkpt lat="45.2849865408473" lon="8.459545343169642"><ele>122.0</ele><time>2026-04-06T08:42:59Z</time></trkpt><trkpt lat="45.28512218895263" lon="8.459418633606939"><ele>122.0</ele><time>2026-04-06T08:43:00Z</time></trkpt><trkpt lat="45.2852535896486" lon="8.459296161145897"><ele>122.0</ele><time>2026-04-06T08:43:01Z</time></trkpt><trkpt lat="45.28538381282543" lon="8.459174925035667"><ele>122.0</ele><time>2026-04-06T08:43:02Z</time></trkpt><trkpt lat="45.28551914343376" lon="8.45904974319583"><ele>122.0</ele><time>2026-04-06T08:43:03Z</time></trkpt><trkpt lat="45.285652824315086" lon="8.458926087523057"><ele>122.0</ele><time>2026-04-06T08:43:04Z</time></trkpt><trkpt lat="45.28577977067837" lon="8.458808661250012"><ele>121.66666666666666</ele><time>2026-04-06T08:43:05Z</time></trkpt><trkpt lat="45.28590719543266" lon="8.458690792529582"><ele>121.33333333333334</ele><time>2026-04-06T08:43:06Z</time></trkpt><trkpt lat="45.28603478272941" lon="8.458572773388513"><ele>121.0</ele><time>2026-04-06T08:43:07Z</time></trkpt><trkpt lat="45.28616072336245" lon="8.458455255793629"><ele>121.0</ele><time>2026-04-06T08:43:08Z</time></trkpt><trkpt lat="45.286286485730294" lon="8.458336155868386"><ele>121.0</ele><time>2026-04-06T08:43:09Z</time></trkpt><trkpt lat="45.286415609784264" lon="8.458213293805999"><ele>121.0</ele><time>2026-04-06T08:43:10Z</time></trkpt><trkpt lat="45.28654834548444" lon="8.458084181568044"><ele>121.33333333333334</ele><time>2026-04-06T08:43:11Z</time></trkpt><trkpt lat="45.28667476657278" lon="8.457954876613623"><ele>121.66666666666666</ele><time>2026-04-06T08:43:12Z</time></trkpt><trkpt lat="45.28679928990016" lon="8.457819542265948"><ele>122.0</ele><time>2026-04-06T08:43:13Z</time></trkpt><trkpt lat="45.28691840254515" lon="8.45768203266661"><ele>122.0</ele><time>2026-04-06T08:43:14Z</time></trkpt><trkpt lat="45.287038385857414" lon="8.457541477066501"><ele>122.0</ele><time>2026-04-06T08:43:15Z</time></trkpt><trkpt lat="45.287158736717274" lon="8.45739194830065"><ele>122.0</ele><time>2026-04-06T08:43:16Z</time></trkpt><trkpt lat="45.28727522184718" lon="8.45724176785306"><ele>122.33333333333333</ele><time>2026-04-06T08:43:17Z</time></trkpt><trkpt lat="45.287391482775234" lon="8.457090212437109"><ele>122.66666666666666</ele><time>2026-04-06T08:43:18Z</time></trkpt><trkpt lat="45.28750594372837" lon="8.456938514593736"><ele>123.0</ele><time>2026-04-06T08:43:19Z</time></trkpt><trkpt lat="45.28761671480949" lon="8.45678672826081"><ele>123.0</ele><time>2026-04-06T08:43:20Z</time></trkpt><trkpt lat="45.28772559684021" lon="8.45663775338217"><ele>123.0</ele><time>2026-04-06T08:43:21Z</time></trkpt><trkpt lat="45.287833897258096" lon="8.456489688560444"><ele>123.0</ele><time>2026-04-06T08:43:22Z</time></trkpt><trkpt lat="45.28794075372271" lon="8.456343597956579"><ele>122.75</ele><time>2026-04-06T08:43:23Z</time></trkpt><trkpt lat="45.28804439110434" lon="8.456201908272245"><ele>122.5</ele><time>2026-04-06T08:43:24Z</time></trkpt><trkpt lat="45.28815079381488" lon="8.456056438032082"><ele>122.25</ele><time>2026-04-06T08:43:24.999Z</time></trkpt><trkpt lat="45.288254678707716" lon="8.455914409987182"><ele>122.0</ele><time>2026-04-06T08:43:25.999Z</time></trkpt><trkpt lat="45.288357366032535" lon="8.455774019747075"><ele>121.75</ele><time>2026-04-06T08:43:26.999Z</time></trkpt><trkpt lat="45.288459339931066" lon="8.455634253581362"><ele>121.5</ele><time>2026-04-06T08:43:27.999Z</time></trkpt><trkpt lat="45.28856047811873" lon="8.455495667134333"><ele>121.25</ele><time>2026-04-06T08:43:28.999Z</time></trkpt><trkpt lat="45.28865850665608" lon="8.45536134180948"><ele>121.0</ele><time>2026-04-06T08:43:29.999Z</time></trkpt><trkpt lat="45.28875392429507" lon="8.45523059410843"><ele>121.0</ele><time>2026-04-06T08:43:30.999Z</time></trkpt><trkpt lat="45.288843601235875" lon="8.455107712592675"><ele>121.0</ele><time>2026-04-06T08:43:31.999Z</time></trkpt><trkpt lat="45.288928334890755" lon="8.454991648931893"><ele>121.0</ele><time>2026-04-06T08:43:32.999Z</time></trkpt><trkpt lat="45.289009312615384" lon="8.454881712331547"><ele>121.0</ele><time>2026-04-06T08:43:33.999Z</time></trkpt><trkpt lat="45.28908499216907" lon="8.454777709983672"><ele>121.00000000000001</ele><time>2026-04-06T08:43:34.999Z</time></trkpt><trkpt lat="45.289156857727846" lon="8.454678482295362"><ele>121.0</ele><time>2026-04-06T08:43:35.999Z</time></trkpt><trkpt lat="45.28922418411201" lon="8.454585521914865"><ele>121.0</ele><time>2026-04-06T08:43:36.999Z</time></trkpt><trkpt lat="45.28928715936401" lon="8.454498569292122"><ele>121.0</ele><time>2026-04-06T08:43:37.999Z</time></trkpt><trkpt lat="45.28933698028423" lon="8.45440396078634"><ele>121.00000000000001</ele><time>2026-04-06T08:43:38.999Z</time></trkpt><trkpt lat="45.28940085700077" lon="8.454335243212471"><ele>121.0</ele><time>2026-04-06T08:43:39.999Z</time></trkpt><trkpt lat="45.28945885418426" lon="8.454277375756886"><ele>121.00000000000001</ele><time>2026-04-06T08:43:40.999Z</time></trkpt><trkpt lat="45.28951432878011" lon="8.454229825225042"><ele>121.0</ele><time>2026-04-06T08:43:41.999Z</time></trkpt><trkpt lat="45.28957596450469" lon="8.454186906180343"><ele>121.0</ele><time>2026-04-06T08:43:42.999Z</time></trkpt><trkpt lat="45.28963749272496" lon="8.454159926419658"><ele>121.0</ele><time>2026-04-06T08:43:43.999Z</time></trkpt><trkpt lat="45.289752154023994" lon="8.45409318919697"><ele>121.00000000000001</ele><time>2026-04-06T08:43:45.999Z</time></trkpt><trkpt lat="45.289802930807355" lon="8.45402683589126"><ele>121.0</ele><time>2026-04-06T08:43:46.999Z</time></trkpt><trkpt lat="45.28984016713144" lon="8.453933181765356"><ele>121.0</ele><time>2026-04-06T08:43:47.999Z</time></trkpt><trkpt lat="45.28987446787478" lon="8.453819034826822"><ele>121.0</ele><time>2026-04-06T08:43:48.999Z</time></trkpt><trkpt lat="45.2899115164744" lon="8.453698183267564"><ele>121.0</ele><time>2026-04-06T08:43:49.999Z</time></trkpt><trkpt lat="45.28995983415779" lon="8.453587360245795"><ele>121.0</ele><time>2026-04-06T08:43:50.999Z</time></trkpt><trkpt lat="45.290021528331735" lon="8.453479791118939"><ele>121.0</ele><time>2026-04-06T08:43:51.999Z</time></trkpt><trkpt lat="45.29008745863363" lon="8.453377201877863"><ele>121.0</ele><time>2026-04-06T08:43:52.999Z</time></trkpt><trkpt lat="45.29015983538243" lon="8.45326786762265"><ele>121.0</ele><time>2026-04-06T08:43:53.999Z</time></trkpt><trkpt lat="45.29025042708526" lon="8.453174735208107"><ele>121.0</ele><time>2026-04-06T08:43:54.999Z</time></trkpt><trkpt lat="45.29032288065179" lon="8.453075626161176"><ele>121.0</ele><time>2026-04-06T08:43:55.999Z</time></trkpt><trkpt lat="45.29040620240896" lon="8.452961881726972"><ele>121.0</ele><time>2026-04-06T08:43:56.999Z</time></trkpt><trkpt lat="45.29049303491625" lon="8.452843521739116"><ele>121.0</ele><time>2026-04-06T08:43:57.999Z</time></trkpt><trkpt lat="45.29058112804411" lon="8.452723443393069"><ele>121.0</ele><time>2026-04-06T08:43:58.999Z</time></trkpt><trkpt lat="45.290681313754945" lon="8.452586881885088"><ele>121.0</ele><time>2026-04-06T08:43:59.999Z</time></trkpt><trkpt lat="45.29080170389514" lon="8.452422780060036"><ele>121.0</ele><time>2026-04-06T08:44:00.999Z</time></trkpt><trkpt lat="45.290940657981906" lon="8.452233373607012"><ele>121.0</ele><time>2026-04-06T08:44:01.999Z</time></trkpt><trkpt lat="45.29108879857237" lon="8.452031445344108"><ele>121.0</ele><time>2026-04-06T08:44:02.999Z</time></trkpt><trkpt lat="45.2912461622117" lon="8.451816945247513"><ele>121.0</ele><time>2026-04-06T08:44:03.999Z</time></trkpt><trkpt lat="45.29141432921967" lon="8.45158771935741"><ele>121.5</ele><time>2026-04-06T08:44:04.999Z</time></trkpt><trkpt lat="45.29157313658662" lon="8.45135256313857"><ele>122.0</ele><time>2026-04-06T08:44:05.999Z</time></trkpt><trkpt lat="45.29174625625218" lon="8.451124998519548"><ele>121.0</ele><time>2026-04-06T08:44:06.999Z</time></trkpt><trkpt lat="45.29191679360002" lon="8.450897799758023"><ele>120.0</ele><time>2026-04-06T08:44:07.999Z</time></trkpt><trkpt lat="45.292081629764375" lon="8.45067452959688"><ele>120.0</ele><time>2026-04-06T08:44:08.999Z</time></trkpt><trkpt lat="45.29224352751651" lon="8.45045076086185"><ele>120.0</ele><time>2026-04-06T08:44:09.999Z</time></trkpt><trkpt lat="45.29240683627002" lon="8.45022741493464"><ele>119.66666666666666</ele><time>2026-04-06T08:44:10.999Z</time></trkpt><trkpt lat="45.29256717972528" lon="8.450009233067897"><ele>119.33333333333333</ele><time>2026-04-06T08:44:11.999Z</time></trkpt><trkpt lat="45.29272587426488" lon="8.449791568002338"><ele>119.0</ele><time>2026-04-06T08:44:12.999Z</time></trkpt><trkpt lat="45.29288377662867" lon="8.449574517896068"><ele>119.0</ele><time>2026-04-06T08:44:13.999Z</time></trkpt><trkpt lat="45.29304295824889" lon="8.44935651741451"><ele>119.0</ele><time>2026-04-06T08:44:14.999Z</time></trkpt><trkpt lat="45.29320270189521" lon="8.449136890816183"><ele>119.0</ele><time>2026-04-06T08:44:16Z</time></trkpt><trkpt lat="45.29336239281222" lon="8.448919804071842"><ele>119.33333333333333</ele><time>2026-04-06T08:44:17Z</time></trkpt><trkpt lat="45.29352214599948" lon="8.448701671690634"><ele>119.66666666666666</ele><time>2026-04-06T08:44:18Z</time></trkpt><trkpt lat="45.29367989221841" lon="8.448486200753981"><ele>120.0</ele><time>2026-04-06T08:44:19Z</time></trkpt><trkpt lat="45.29384002302842" lon="8.44826725257461"><ele>120.0</ele><time>2026-04-06T08:44:20Z</time></trkpt><trkpt lat="45.2939991258521" lon="8.448045942762791"><ele>120.0</ele><time>2026-04-06T08:44:21Z</time></trkpt><trkpt lat="45.29415750583877" lon="8.447822074558465"><ele>120.0</ele><time>2026-04-06T08:44:22Z</time></trkpt><trkpt lat="45.29431386446595" lon="8.447594612558207"><ele>120.33333333333334</ele><time>2026-04-06T08:44:23Z</time></trkpt><trkpt lat="45.29446381456599" lon="8.447359929745682"><ele>120.66666666666667</ele><time>2026-04-06T08:44:24Z</time></trkpt><trkpt lat="45.29460872973143" lon="8.447115740440237"><ele>121.0</ele><time>2026-04-06T08:44:25Z</time></trkpt><trkpt lat="45.29474872502312" lon="8.446865107444522"><ele>121.0</ele><time>2026-04-06T08:44:26Z</time></trkpt><trkpt lat="45.29488354533077" lon="8.446609926717185"><ele>121.0</ele><time>2026-04-06T08:44:27Z</time></trkpt><trkpt lat="45.295012489604225" lon="8.44634974151402"><ele>121.0</ele><time>2026-04-06T08:44:28Z</time></trkpt><trkpt lat="45.295135300826516" lon="8.446084881309059"><ele>121.0</ele><time>2026-04-06T08:44:29Z</time></trkpt><trkpt lat="45.29525322832061" lon="8.445815212763923"><ele>121.0</ele><time>2026-04-06T08:44:30Z</time></trkpt><trkpt lat="45.29536658558675" lon="8.445539704599646"><ele>121.0</ele><time>2026-04-06T08:44:31Z</time></trkpt><trkpt lat="45.295472392571135" lon="8.445260201035513"><ele>120.66666666666667</ele><time>2026-04-06T08:44:32Z</time></trkpt><trkpt lat="45.29557301069282" lon="8.444977101426758"><ele>120.33333333333334</ele><time>2026-04-06T08:44:33Z</time></trkpt><trkpt lat="45.29566896430722" lon="8.444693811916089"><ele>120.0</ele><time>2026-04-06T08:44:34Z</time></trkpt><trkpt lat="45.2957592948827" lon="8.444407118394324"><ele>120.66666666666666</ele><time>2026-04-06T08:44:35Z</time></trkpt><trkpt lat="45.295843985681046" lon="8.444117999570429"><ele>121.33333333333333</ele><time>2026-04-06T08:44:36Z</time></trkpt><trkpt lat="45.295923413245625" lon="8.44382990446052"><ele>122.0</ele><time>2026-04-06T08:44:37Z</time></trkpt><trkpt lat="45.29600233039032" lon="8.443538257690939"><ele>122.0</ele><time>2026-04-06T08:44:38Z</time></trkpt><trkpt lat="45.296080309243976" lon="8.443243640900546"><ele>122.0</ele><time>2026-04-06T08:44:39Z</time></trkpt><trkpt lat="45.29616003026462" lon="8.442946844200218"><ele>122.0</ele><time>2026-04-06T08:44:40Z</time></trkpt><trkpt lat="45.29624007114611" lon="8.442653605923882"><ele>121.66666666666666</ele><time>2026-04-06T08:44:41Z</time></trkpt><trkpt lat="45.296319914339705" lon="8.442358223056093"><ele>121.33333333333334</ele><time>2026-04-06T08:44:42Z</time></trkpt><trkpt lat="45.29639853087028" lon="8.4420626420474"><ele>121.0</ele><time>2026-04-06T08:44:43Z</time></trkpt><trkpt lat="45.29647722317896" lon="8.441767423022126"><ele>121.0</ele><time>2026-04-06T08:44:44Z</time></trkpt><trkpt lat="45.29655592345416" lon="8.441476217829125"><ele>121.0</ele><time>2026-04-06T08:44:45Z</time></trkpt><trkpt lat="45.29663400304853" lon="8.441185687549764"><ele>121.0</ele><time>2026-04-06T08:44:46Z</time></trkpt><trkpt lat="45.29671180155562" lon="8.440894293506979"><ele>121.0</ele><time>2026-04-06T08:44:47Z</time></trkpt><trkpt lat="45.2967880198312" lon="8.440606932059385"><ele>121.0</ele><time>2026-04-06T08:44:48Z</time></trkpt><trkpt lat="45.29686379946578" lon="8.440319603367609"><ele>121.0</ele><time>2026-04-06T08:44:49Z</time></trkpt><trkpt lat="45.29693914857954" lon="8.440034764699568"><ele>121.0</ele><time>2026-04-06T08:44:50Z</time></trkpt><trkpt lat="45.29701509738076" lon="8.439746962857313"><ele>121.0</ele><time>2026-04-06T08:44:51Z</time></trkpt><trkpt lat="45.29709363969924" lon="8.439456357876324"><ele>121.0</ele><time>2026-04-06T08:44:52Z</time></trkpt><trkpt lat="45.297172959717905" lon="8.439164422921463"><ele>121.33333333333334</ele><time>2026-04-06T08:44:53Z</time></trkpt><trkpt lat="45.29725000316462" lon="8.438875750845877"><ele>121.66666666666666</ele><time>2026-04-06T08:44:54Z</time></trkpt><trkpt lat="45.29732621658682" lon="8.438585596822755"><ele>122.0</ele><time>2026-04-06T08:44:55Z</time></trkpt><trkpt lat="45.29740406061424" lon="8.438290081768402"><ele>122.0</ele><time>2026-04-06T08:44:56Z</time></trkpt><trkpt lat="45.29748291250966" lon="8.437990643492636"><ele>122.0</ele><time>2026-04-06T08:44:57Z</time></trkpt><trkpt lat="45.29756099067691" lon="8.437689952475333"><ele>122.0</ele><time>2026-04-06T08:44:58Z</time></trkpt><trkpt lat="45.29763979383703" lon="8.43738775957161"><ele>122.0</ele><time>2026-04-06T08:44:59Z</time></trkpt><trkpt lat="45.29771981530771" lon="8.437083798057401"><ele>122.0</ele><time>2026-04-06T08:45:00Z</time></trkpt><trkpt lat="45.29780086336027" lon="8.436780390813917"><ele>122.0</ele><time>2026-04-06T08:45:01Z</time></trkpt><trkpt lat="45.29788187269338" lon="8.436477133174895"><ele>122.0</ele><time>2026-04-06T08:45:02Z</time></trkpt><trkpt lat="45.297962591819946" lon="8.43617391917433"><ele>122.0</ele><time>2026-04-06T08:45:03Z</time></trkpt><trkpt lat="45.29804417819916" lon="8.435869237695398"><ele>121.5</ele><time>2026-04-06T08:45:04Z</time></trkpt><trkpt lat="45.298124835972324" lon="8.43556569608342"><ele>121.0</ele><time>2026-04-06T08:45:05Z</time></trkpt><trkpt lat="45.29820429643735" lon="8.435263076195072"><ele>122.0</ele><time>2026-04-06T08:45:06Z</time></trkpt><trkpt lat="45.29828400772891" lon="8.43496048993662"><ele>123.0</ele><time>2026-04-06T08:45:07Z</time></trkpt><trkpt lat="45.298364936951906" lon="8.434656043382304"><ele>122.5</ele><time>2026-04-06T08:45:08Z</time></trkpt><trkpt lat="45.29844665079936" lon="8.434351457093381"><ele>122.0</ele><time>2026-04-06T08:45:09Z</time></trkpt><trkpt lat="45.29852762018766" lon="8.434045530572748"><ele>121.5</ele><time>2026-04-06T08:45:10Z</time></trkpt><trkpt lat="45.29860898849657" lon="8.433741524209454"><ele>121.0</ele><time>2026-04-06T08:45:11Z</time></trkpt><trkpt lat="45.298691975902564" lon="8.433433957901364"><ele>121.0</ele><time>2026-04-06T08:45:12Z</time></trkpt><trkpt lat="45.29877508826949" lon="8.433124999759903"><ele>121.0</ele><time>2026-04-06T08:45:13Z</time></trkpt><trkpt lat="45.29885804383151" lon="8.43281511813587"><ele>121.5</ele><time>2026-04-06T08:45:14Z</time></trkpt><trkpt lat="45.298940643176174" lon="8.432506802504319"><ele>122.0</ele><time>2026-04-06T08:45:15Z</time></trkpt><trkpt lat="45.299023911224275" lon="8.432200282498725"><ele>121.0</ele><time>2026-04-06T08:45:16Z</time></trkpt><trkpt lat="45.29910521396198" lon="8.431894526246682"><ele>120.0</ele><time>2026-04-06T08:45:17Z</time></trkpt><trkpt lat="45.29918573845107" lon="8.431588799215746"><ele>121.0</ele><time>2026-04-06T08:45:18Z</time></trkpt><trkpt lat="45.299266139486434" lon="8.431282402754205"><ele>122.0</ele><time>2026-04-06T08:45:19Z</time></trkpt><trkpt lat="45.29934711249878" lon="8.43097814351939"><ele>122.0</ele><time>2026-04-06T08:45:20Z</time></trkpt><trkpt lat="45.299429168915744" lon="8.430674765913622"><ele>122.0</ele><time>2026-04-06T08:45:21Z</time></trkpt><trkpt lat="45.2995106081522" lon="8.430371808853481"><ele>122.0</ele><time>2026-04-06T08:45:22Z</time></trkpt><trkpt lat="45.29959075441319" lon="8.430072414352027"><ele>122.0</ele><time>2026-04-06T08:45:23Z</time></trkpt><trkpt lat="45.2996706941896" lon="8.42976990144816"><ele>121.0</ele><time>2026-04-06T08:45:24Z</time></trkpt><trkpt lat="45.299751112627526" lon="8.429470210360666"><ele>120.0</ele><time>2026-04-06T08:45:25Z</time></trkpt><trkpt lat="45.299830700090624" lon="8.429171233291394"><ele>120.0</ele><time>2026-04-06T08:45:26Z</time></trkpt><trkpt lat="45.299910079163986" lon="8.428875069530404"><ele>120.0</ele><time>2026-04-06T08:45:27Z</time></trkpt><trkpt lat="45.29998744381519" lon="8.42858411578298"><ele>120.0</ele><time>2026-04-06T08:45:27.999Z</time></trkpt><trkpt lat="45.300061433933436" lon="8.428292730047596"><ele>121.0</ele><time>2026-04-06T08:45:28.999Z</time></trkpt><trkpt lat="45.300134015388785" lon="8.428004060859964"><ele>122.0</ele><time>2026-04-06T08:45:29.999Z</time></trkpt><trkpt lat="45.300205926752845" lon="8.427711678976893"><ele>123.0</ele><time>2026-04-06T08:45:30.999Z</time></trkpt><trkpt lat="45.3002742132256" lon="8.42742010376235"><ele>123.33333333333334</ele><time>2026-04-06T08:45:31.999Z</time></trkpt><trkpt lat="45.300339978451156" lon="8.427130059447421"><ele>123.66666666666667</ele><time>2026-04-06T08:45:32.999Z</time></trkpt><trkpt lat="45.30040454573638" lon="8.426837872153616"><ele>124.0</ele><time>2026-04-06T08:45:33.999Z</time></trkpt><trkpt lat="45.30046977466618" lon="8.426538580764543"><ele>124.0</ele><time>2026-04-06T08:45:34.999Z</time></trkpt><trkpt lat="45.30053446112194" lon="8.426236001723812"><ele>124.0</ele><time>2026-04-06T08:45:35.999Z</time></trkpt><trkpt lat="45.300598740400964" lon="8.425932170794352"><ele>124.0</ele><time>2026-04-06T08:45:36.999Z</time></trkpt><trkpt lat="45.3006619094128" lon="8.425632112867353"><ele>123.66666666666667</ele><time>2026-04-06T08:45:37.999Z</time></trkpt><trkpt lat="45.300723491233306" lon="8.425343109263107"><ele>123.33333333333334</ele><time>2026-04-06T08:45:38.999Z</time></trkpt><trkpt lat="45.300782036982646" lon="8.425071148431023"><ele>123.0</ele><time>2026-04-06T08:45:39.999Z</time></trkpt><trkpt lat="45.3008360424801" lon="8.424824353495264"><ele>123.0</ele><time>2026-04-06T08:45:40.999Z</time></trkpt><trkpt lat="45.300881766787654" lon="8.424627752654033"><ele>123.0</ele><time>2026-04-06T08:45:41.999Z</time></trkpt><trkpt lat="45.300925863262854" lon="8.424467782996299"><ele>123.0</ele><time>2026-04-06T08:45:42.999Z</time></trkpt><trkpt lat="45.30098368341547" lon="8.424339249500148"><ele>123.0</ele><time>2026-04-06T08:45:43.999Z</time></trkpt><trkpt lat="45.30106539573351" lon="8.42423099823649"><ele>123.0</ele><time>2026-04-06T08:45:44.999Z</time></trkpt><trkpt lat="45.30113357822886" lon="8.424127668895782"><ele>123.00000000000001</ele><time>2026-04-06T08:45:45.999Z</time></trkpt><trkpt lat="45.30116021191482" lon="8.424000229263937"><ele>123.00000000000001</ele><time>2026-04-06T08:45:46.999Z</time></trkpt><trkpt lat="45.30115119894249" lon="8.423847720081348"><ele>123.0</ele><time>2026-04-06T08:45:47.999Z</time></trkpt><trkpt lat="45.30112987580822" lon="8.423680023642266"><ele>123.0</ele><time>2026-04-06T08:45:48.999Z</time></trkpt><trkpt lat="45.30112732518068" lon="8.423499453751253"><ele>123.66666666666666</ele><time>2026-04-06T08:45:49.999Z</time></trkpt><trkpt lat="45.301161747247825" lon="8.423302280568782"><ele>124.33333333333333</ele><time>2026-04-06T08:45:50.999Z</time></trkpt><trkpt lat="45.30120851220098" lon="8.423093486723106"><ele>125.0</ele><time>2026-04-06T08:45:51.999Z</time></trkpt><trkpt lat="45.30126199579023" lon="8.422866399621325"><ele>125.0</ele><time>2026-04-06T08:45:52.999Z</time></trkpt><trkpt lat="45.30131288996331" lon="8.42264168685051"><ele>125.0</ele><time>2026-04-06T08:45:53.999Z</time></trkpt><trkpt lat="45.301366007990616" lon="8.422401090311196"><ele>125.0</ele><time>2026-04-06T08:45:54.999Z</time></trkpt><trkpt lat="45.30142304583268" lon="8.42214516615905"><ele>124.66666666666666</ele><time>2026-04-06T08:45:55.999Z</time></trkpt><trkpt lat="45.30148034032824" lon="8.4218721286504"><ele>124.33333333333334</ele><time>2026-04-06T08:45:56.999Z</time></trkpt><trkpt lat="45.30154017274823" lon="8.421590762635914"><ele>124.0</ele><time>2026-04-06T08:45:57.999Z</time></trkpt><trkpt lat="45.301599779911584" lon="8.421312915836872"><ele>124.33333333333334</ele><time>2026-04-06T08:45:58.999Z</time></trkpt><trkpt lat="45.3016609449159" lon="8.421026217139723"><ele>124.66666666666666</ele><time>2026-04-06T08:45:59.999Z</time></trkpt><trkpt lat="45.301723013195854" lon="8.420737059432081"><ele>125.0</ele><time>2026-04-06T08:46:00.999Z</time></trkpt><trkpt lat="45.30178660425254" lon="8.42044197061536"><ele>125.0</ele><time>2026-04-06T08:46:01.999Z</time></trkpt><trkpt lat="45.30184991826479" lon="8.420143475568004"><ele>125.0</ele><time>2026-04-06T08:46:02.999Z</time></trkpt><trkpt lat="45.30191375364114" lon="8.419841675174556"><ele>125.0</ele><time>2026-04-06T08:46:03.999Z</time></trkpt><trkpt lat="45.301979160980835" lon="8.419537136709737"><ele>125.0</ele><time>2026-04-06T08:46:04.999Z</time></trkpt><trkpt lat="45.30204506478305" lon="8.419231602063928"><ele>125.0</ele><time>2026-04-06T08:46:05.999Z</time></trkpt><trkpt lat="45.302110442178254" lon="8.418927341666565"><ele>125.0</ele><time>2026-04-06T08:46:06.999Z</time></trkpt><trkpt lat="45.302176995913015" lon="8.41862303631836"><ele>124.66666666666666</ele><time>2026-04-06T08:46:07.999Z</time></trkpt><trkpt lat="45.30224532092451" lon="8.418322571471597"><ele>124.33333333333334</ele><time>2026-04-06T08:46:08.999Z</time></trkpt><trkpt lat="45.30231636498819" lon="8.418023182353478"><ele>124.0</ele><time>2026-04-06T08:46:09.999Z</time></trkpt><trkpt lat="45.30238962301438" lon="8.417727656086265"><ele>124.0</ele><time>2026-04-06T08:46:10.999Z</time></trkpt><trkpt lat="45.30246771882339" lon="8.417435840915296"><ele>124.0</ele><time>2026-04-06T08:46:11.999Z</time></trkpt><trkpt lat="45.30254875508355" lon="8.417147379647991"><ele>124.0</ele><time>2026-04-06T08:46:12.999Z</time></trkpt><trkpt lat="45.30263250940239" lon="8.416855126997724"><ele>124.0</ele><time>2026-04-06T08:46:13.999Z</time></trkpt><trkpt lat="45.302716537495435" lon="8.416558847007352"><ele>124.0</ele><time>2026-04-06T08:46:14.999Z</time></trkpt><trkpt lat="45.302798536051235" lon="8.416258183401656"><ele>124.0</ele><time>2026-04-06T08:46:15.999Z</time></trkpt><trkpt lat="45.30288116206464" lon="8.41595676699723"><ele>124.0</ele><time>2026-04-06T08:46:16.999Z</time></trkpt><trkpt lat="45.30296404290225" lon="8.415655323257347"><ele>124.0</ele><time>2026-04-06T08:46:17.999Z</time></trkpt><trkpt lat="45.30304702905169" lon="8.415354085223422"><ele>124.0</ele><time>2026-04-06T08:46:18.999Z</time></trkpt><trkpt lat="45.303130546763626" lon="8.415049358312926"><ele>124.0</ele><time>2026-04-06T08:46:19.999Z</time></trkpt><trkpt lat="45.30321448369427" lon="8.414745875915076"><ele>124.0</ele><time>2026-04-06T08:46:21Z</time></trkpt><trkpt lat="45.30329685455587" lon="8.414441893374304"><ele>125.0</ele><time>2026-04-06T08:46:22Z</time></trkpt><trkpt lat="45.30337858867953" lon="8.414140061488371"><ele>126.0</ele><time>2026-04-06T08:46:23Z</time></trkpt><trkpt lat="45.303459633155676" lon="8.413838889159452"><ele>126.0</ele><time>2026-04-06T08:46:24Z</time></trkpt><trkpt lat="45.30354150787374" lon="8.41353893764269"><ele>126.0</ele><time>2026-04-06T08:46:25Z</time></trkpt><trkpt lat="45.30362365534556" lon="8.413238626785304"><ele>126.5</ele><time>2026-04-06T08:46:26Z</time></trkpt><trkpt lat="45.30370643750221" lon="8.412937377562303"><ele>127.0</ele><time>2026-04-06T08:46:27Z</time></trkpt><trkpt lat="45.30378845561859" lon="8.412630915344948"><ele>127.0</ele><time>2026-04-06T08:46:28Z</time></trkpt><trkpt lat="45.30387067471513" lon="8.41232652357364"><ele>127.0</ele><time>2026-04-06T08:46:29Z</time></trkpt><trkpt lat="45.30395385226499" lon="8.412024435181271"><ele>127.0</ele><time>2026-04-06T08:46:30Z</time></trkpt><trkpt lat="45.304034798497554" lon="8.411723699360591"><ele>127.0</ele><time>2026-04-06T08:46:31Z</time></trkpt><trkpt lat="45.30411370602994" lon="8.411426048026128"><ele>126.66666666666667</ele><time>2026-04-06T08:46:32Z</time></trkpt><trkpt lat="45.30419325438871" lon="8.411127670061822"><ele>126.33333333333334</ele><time>2026-04-06T08:46:33Z</time></trkpt><trkpt lat="45.30427280767962" lon="8.410830312366643"><ele>126.0</ele><time>2026-04-06T08:46:34Z</time></trkpt><trkpt lat="45.304351247097124" lon="8.410534426873346"><ele>126.33333333333334</ele><time>2026-04-06T08:46:35Z</time></trkpt><trkpt lat="45.30442844237299" lon="8.410244826914935"><ele>126.66666666666667</ele><time>2026-04-06T08:46:36Z</time></trkpt><trkpt lat="45.304503926461685" lon="8.409959955272779"><ele>127.0</ele><time>2026-04-06T08:46:37Z</time></trkpt><trkpt lat="45.30457661601015" lon="8.409685458465374"><ele>127.0</ele><time>2026-04-06T08:46:38Z</time></trkpt><trkpt lat="45.304641740610094" lon="8.409442888538777"><ele>127.0</ele><time>2026-04-06T08:46:39Z</time></trkpt><trkpt lat="45.30469667161986" lon="8.409244099724804"><ele>127.0</ele><time>2026-04-06T08:46:40Z</time></trkpt><trkpt lat="45.30474320619425" lon="8.409080122057459"><ele>127.0</ele><time>2026-04-06T08:46:41Z</time></trkpt><trkpt lat="45.3047877774061" lon="8.408945851721448"><ele>126.99999999999999</ele><time>2026-04-06T08:46:42Z</time></trkpt><trkpt lat="45.30484889062711" lon="8.408823223210243"><ele>126.99999999999999</ele><time>2026-04-06T08:46:43Z</time></trkpt><trkpt lat="45.304936890286235" lon="8.408720562870268"><ele>127.0</ele><time>2026-04-06T08:46:44Z</time></trkpt><trkpt lat="45.305010188001795" lon="8.40860398079703"><ele>127.0</ele><time>2026-04-06T08:46:45Z</time></trkpt><trkpt lat="45.305038409794705" lon="8.408457934598763"><ele>127.0</ele><time>2026-04-06T08:46:46Z</time></trkpt><trkpt lat="45.30502691098316" lon="8.408303756404916"><ele>127.0</ele><time>2026-04-06T08:46:47Z</time></trkpt><trkpt lat="45.305009299510864" lon="8.40812900291734"><ele>127.0</ele><time>2026-04-06T08:46:48Z</time></trkpt><trkpt lat="45.30504377675605" lon="8.407938106078433"><ele>127.0</ele><time>2026-04-06T08:46:49Z</time></trkpt><trkpt lat="45.30509427560724" lon="8.407745433862443"><ele>127.0</ele><time>2026-04-06T08:46:50Z</time></trkpt><trkpt lat="45.305155166822786" lon="8.407532084956951"><ele>127.0</ele><time>2026-04-06T08:46:51Z</time></trkpt><trkpt lat="45.30521869843192" lon="8.407308981492074"><ele>127.0</ele><time>2026-04-06T08:46:52Z</time></trkpt><trkpt lat="45.30528298559184" lon="8.407072487281749"><ele>127.0</ele><time>2026-04-06T08:46:53Z</time></trkpt><trkpt lat="45.30534791215518" lon="8.406822654198681"><ele>127.0</ele><time>2026-04-06T08:46:54Z</time></trkpt><trkpt lat="45.30541662796563" lon="8.406562390915878"><ele>127.0</ele><time>2026-04-06T08:46:55Z</time></trkpt><trkpt lat="45.305489794319385" lon="8.406291960612922"><ele>127.0</ele><time>2026-04-06T08:46:56Z</time></trkpt><trkpt lat="45.30556554739447" lon="8.406022933389739"><ele>127.0</ele><time>2026-04-06T08:46:57Z</time></trkpt><trkpt lat="45.30564868932962" lon="8.405753609091077"><ele>127.0</ele><time>2026-04-06T08:46:58Z</time></trkpt><trkpt lat="45.30574024578867" lon="8.405486911261162"><ele>127.0</ele><time>2026-04-06T08:46:59Z</time></trkpt><trkpt lat="45.305840299852704" lon="8.405219232944297"><ele>127.0</ele><time>2026-04-06T08:47:00Z</time></trkpt><trkpt lat="45.305949284066834" lon="8.404954292823286"><ele>127.0</ele><time>2026-04-06T08:47:01Z</time></trkpt><trkpt lat="45.306067219257" lon="8.404694091221504"><ele>127.33333333333334</ele><time>2026-04-06T08:47:02Z</time></trkpt><trkpt lat="45.30619513338952" lon="8.404441295372115"><ele>127.66666666666666</ele><time>2026-04-06T08:47:03Z</time></trkpt><trkpt lat="45.30633065132065" lon="8.404192809060897"><ele>128.0</ele><time>2026-04-06T08:47:04Z</time></trkpt><trkpt lat="45.30647010168998" lon="8.403945064007132"><ele>127.5</ele><time>2026-04-06T08:47:05Z</time></trkpt><trkpt lat="45.30661521545744" lon="8.40369421412649"><ele>127.0</ele><time>2026-04-06T08:47:06Z</time></trkpt><trkpt lat="45.30676788582815" lon="8.403447908326571"><ele>127.0</ele><time>2026-04-06T08:47:07Z</time></trkpt><trkpt lat="45.30692515440429" lon="8.403205190568018"><ele>127.0</ele><time>2026-04-06T08:47:08Z</time></trkpt><trkpt lat="45.307086257760275" lon="8.40297476607447"><ele>127.5</ele><time>2026-04-06T08:47:09Z</time></trkpt><trkpt lat="45.307253972051534" lon="8.40276121812036"><ele>128.0</ele><time>2026-04-06T08:47:10Z</time></trkpt><trkpt lat="45.30742812365004" lon="8.40255330584946"><ele>128.0</ele><time>2026-04-06T08:47:11Z</time></trkpt><trkpt lat="45.307603580218036" lon="8.402356211728385"><ele>128.0</ele><time>2026-04-06T08:47:12Z</time></trkpt><trkpt lat="45.30777741188547" lon="8.402170253912969"><ele>128.0</ele><time>2026-04-06T08:47:13Z</time></trkpt><trkpt lat="45.3079522886205" lon="8.401996021564393"><ele>127.66666666666666</ele><time>2026-04-06T08:47:14Z</time></trkpt><trkpt lat="45.308126607033586" lon="8.401833181556073"><ele>127.33333333333334</ele><time>2026-04-06T08:47:15Z</time></trkpt><trkpt lat="45.30829391954103" lon="8.401687993818538"><ele>127.0</ele><time>2026-04-06T08:47:16Z</time></trkpt><trkpt lat="45.30845450665326" lon="8.401552754156361"><ele>127.0</ele><time>2026-04-06T08:47:17Z</time></trkpt><trkpt lat="45.30860614582691" lon="8.401423636811538"><ele>127.0</ele><time>2026-04-06T08:47:18Z</time></trkpt><trkpt lat="45.308746743815064" lon="8.401298856239041"><ele>127.0</ele><time>2026-04-06T08:47:19Z</time></trkpt><trkpt lat="45.30888166599483" lon="8.401182858859581"><ele>128.0</ele><time>2026-04-06T08:47:20Z</time></trkpt><trkpt lat="45.309018196502876" lon="8.401067995293447"><ele>129.0</ele><time>2026-04-06T08:47:21Z</time></trkpt><trkpt lat="45.30915237973821" lon="8.40095480940742"><ele>130.0</ele><time>2026-04-06T08:47:22Z</time></trkpt><trkpt lat="45.30927973033412" lon="8.400845803634263"><ele>130.0</ele><time>2026-04-06T08:47:23Z</time></trkpt><trkpt lat="45.30940545570424" lon="8.40073720743651"><ele>130.0</ele><time>2026-04-06T08:47:24Z</time></trkpt><trkpt lat="45.30953182267858" lon="8.400628923601861"><ele>130.0</ele><time>2026-04-06T08:47:25Z</time></trkpt><trkpt lat="45.309651073499296" lon="8.400529100823087"><ele>130.0</ele><time>2026-04-06T08:47:26Z</time></trkpt><trkpt lat="45.30976475408162" lon="8.400436377510546"><ele>129.25</ele><time>2026-04-06T08:47:27Z</time></trkpt><trkpt lat="45.309871855774375" lon="8.400346341176775"><ele>128.5</ele><time>2026-04-06T08:47:28Z</time></trkpt><trkpt lat="45.309973331982285" lon="8.40025828474723"><ele>127.75</ele><time>2026-04-06T08:47:29Z</time></trkpt><trkpt lat="45.31007061564985" lon="8.400176622683874"><ele>127.0</ele><time>2026-04-06T08:47:30Z</time></trkpt><trkpt lat="45.310163544202105" lon="8.400097297345303"><ele>127.0</ele><time>2026-04-06T08:47:31Z</time></trkpt><trkpt lat="45.31025698634445" lon="8.400017294514948"><ele>127.0</ele><time>2026-04-06T08:47:32Z</time></trkpt><trkpt lat="45.310358157555314" lon="8.399930047032077"><ele>127.0</ele><time>2026-04-06T08:47:33Z</time></trkpt><trkpt lat="45.31046417268623" lon="8.399836723566475"><ele>127.0</ele><time>2026-04-06T08:47:34Z</time></trkpt><trkpt lat="45.31057474379926" lon="8.399740074358009"><ele>127.0</ele><time>2026-04-06T08:47:35Z</time></trkpt><trkpt lat="45.31068942568528" lon="8.399639081216728"><ele>127.0</ele><time>2026-04-06T08:47:36Z</time></trkpt><trkpt lat="45.31081098073398" lon="8.39953306574293"><ele>127.0</ele><time>2026-04-06T08:47:37Z</time></trkpt><trkpt lat="45.31093615285088" lon="8.399425579892007"><ele>127.0</ele><time>2026-04-06T08:47:38Z</time></trkpt><trkpt lat="45.3110658921439" lon="8.399316417890056"><ele>127.0</ele><time>2026-04-06T08:47:38.999Z</time></trkpt><trkpt lat="45.31120186265397" lon="8.399200258103681"><ele>127.0</ele><time>2026-04-06T08:47:39.999Z</time></trkpt><trkpt lat="45.31134128077478" lon="8.39908010367774"><ele>127.0</ele><time>2026-04-06T08:47:40.999Z</time></trkpt><trkpt lat="45.31148502385611" lon="8.398958240593988"><ele>127.0</ele><time>2026-04-06T08:47:41.999Z</time></trkpt><trkpt lat="45.31163070584175" lon="8.398833245824296"><ele>127.0</ele><time>2026-04-06T08:47:42.999Z</time></trkpt><trkpt lat="45.31178563394083" lon="8.398700534209828"><ele>127.0</ele><time>2026-04-06T08:47:43.999Z</time></trkpt><trkpt lat="45.311945116289" lon="8.398563782219187"><ele>127.0</ele><time>2026-04-06T08:47:44.999Z</time></trkpt><trkpt lat="45.31210653155564" lon="8.398422472166382"><ele>127.0</ele><time>2026-04-06T08:47:45.999Z</time></trkpt><trkpt lat="45.31226883025339" lon="8.398279825316031"><ele>127.0</ele><time>2026-04-06T08:47:46.999Z</time></trkpt><trkpt lat="45.312424212745434" lon="8.39814426521011"><ele>127.0</ele><time>2026-04-06T08:47:47.999Z</time></trkpt><trkpt lat="45.31257416447107" lon="8.398011003087534"><ele>127.0</ele><time>2026-04-06T08:47:48.999Z</time></trkpt><trkpt lat="45.31272041006299" lon="8.397882139544212"><ele>127.0</ele><time>2026-04-06T08:47:49.999Z</time></trkpt><trkpt lat="45.31287337054482" lon="8.397751854609893"><ele>127.0</ele><time>2026-04-06T08:47:50.999Z</time></trkpt><trkpt lat="45.31303153763592" lon="8.39761939771798"><ele>127.0</ele><time>2026-04-06T08:47:51.999Z</time></trkpt><trkpt lat="45.31319164451685" lon="8.397480796440021"><ele>127.0</ele><time>2026-04-06T08:47:52.999Z</time></trkpt><trkpt lat="45.31334552456553" lon="8.397349043863521"><ele>127.0</ele><time>2026-04-06T08:47:53.999Z</time></trkpt><trkpt lat="45.313495837273415" lon="8.39722106331445"><ele>127.0</ele><time>2026-04-06T08:47:54.999Z</time></trkpt><trkpt lat="45.31364399923632" lon="8.3970957878358"><ele>127.0</ele><time>2026-04-06T08:47:55.999Z</time></trkpt><trkpt lat="45.313793597732925" lon="8.396971046027732"><ele>126.66666666666667</ele><time>2026-04-06T08:47:56.999Z</time></trkpt><trkpt lat="45.31393901772722" lon="8.396848605160052"><ele>126.33333333333334</ele><time>2026-04-06T08:47:57.999Z</time></trkpt><trkpt lat="45.31408222802064" lon="8.396728068245352"><ele>126.0</ele><time>2026-04-06T08:47:58.999Z</time></trkpt><trkpt lat="45.31422485537818" lon="8.396603379071221"><ele>126.0</ele><time>2026-04-06T08:47:59.999Z</time></trkpt><trkpt lat="45.314369997696375" lon="8.396478514541647"><ele>126.0</ele><time>2026-04-06T08:48:00.999Z</time></trkpt><trkpt lat="45.31451122946878" lon="8.396356537779418"><ele>126.0</ele><time>2026-04-06T08:48:01.999Z</time></trkpt><trkpt lat="45.31465059700684" lon="8.39623837996347"><ele>126.33333333333334</ele><time>2026-04-06T08:48:02.999Z</time></trkpt><trkpt lat="45.314785011218106" lon="8.396125586962716"><ele>126.66666666666667</ele><time>2026-04-06T08:48:03.999Z</time></trkpt><trkpt lat="45.314916971375865" lon="8.396013639253738"><ele>127.0</ele><time>2026-04-06T08:48:04.999Z</time></trkpt><trkpt lat="45.31504328849543" lon="8.395901501286565"><ele>127.0</ele><time>2026-04-06T08:48:05.999Z</time></trkpt><trkpt lat="45.31517139589249" lon="8.395790592996713"><ele>127.0</ele><time>2026-04-06T08:48:06.999Z</time></trkpt><trkpt lat="45.31529744577731" lon="8.395685753573051"><ele>127.0</ele><time>2026-04-06T08:48:07.999Z</time></trkpt><trkpt lat="45.31541994265091" lon="8.39557922857211"><ele>127.0</ele><time>2026-04-06T08:48:08.999Z</time></trkpt><trkpt lat="45.31553948745671" lon="8.395481142404607"><ele>127.75</ele><time>2026-04-06T08:48:09.999Z</time></trkpt><trkpt lat="45.31565431538043" lon="8.395388582442868"><ele>128.5</ele><time>2026-04-06T08:48:10.999Z</time></trkpt><trkpt lat="45.31576307424917" lon="8.395299687842169"><ele>129.25</ele><time>2026-04-06T08:48:11.999Z</time></trkpt><trkpt lat="45.31586600481082" lon="8.39521289944612"><ele>130.0</ele><time>2026-04-06T08:48:12.999Z</time></trkpt><trkpt lat="45.315964121929994" lon="8.39512851956068"><ele>130.0</ele><time>2026-04-06T08:48:13.999Z</time></trkpt><trkpt lat="45.31605760405939" lon="8.395048684159974"><ele>130.0</ele><time>2026-04-06T08:48:14.999Z</time></trkpt><trkpt lat="45.31614579897291" lon="8.394973885275922"><ele>130.0</ele><time>2026-04-06T08:48:15.999Z</time></trkpt><trkpt lat="45.31623157431335" lon="8.394899987356927"><ele>130.0</ele><time>2026-04-06T08:48:16.999Z</time></trkpt><trkpt lat="45.316313950522265" lon="8.394832551166484"><ele>130.0</ele><time>2026-04-06T08:48:17.999Z</time></trkpt><trkpt lat="45.31639542474374" lon="8.39477457283706"><ele>130.16666666666669</ele><time>2026-04-06T08:48:18.999Z</time></trkpt><trkpt lat="45.31647672833811" lon="8.394731740177262"><ele>130.33333333333334</ele><time>2026-04-06T08:48:19.999Z</time></trkpt><trkpt lat="45.31655426454315" lon="8.394707748837988"><ele>130.5</ele><time>2026-04-06T08:48:20.999Z</time></trkpt><trkpt lat="45.316628756296026" lon="8.394701479810974"><ele>130.66666666666666</ele><time>2026-04-06T08:48:21.999Z</time></trkpt><trkpt lat="45.316700178237824" lon="8.394699235665636"><ele>130.83333333333331</ele><time>2026-04-06T08:48:22.999Z</time></trkpt><trkpt lat="45.31677379466184" lon="8.394688333707526"><ele>131.0</ele><time>2026-04-06T08:48:23.999Z</time></trkpt><trkpt lat="45.316845649828615" lon="8.39465806424116"><ele>130.66666666666666</ele><time>2026-04-06T08:48:24.999Z</time></trkpt><trkpt lat="45.3169112777599" lon="8.39460617956084"><ele>130.33333333333331</ele><time>2026-04-06T08:48:25.999Z</time></trkpt><trkpt lat="45.31696586947281" lon="8.394527583356224"><ele>130.0</ele><time>2026-04-06T08:48:27Z</time></trkpt><trkpt lat="45.317010046425864" lon="8.394423209379012"><ele>129.66666666666666</ele><time>2026-04-06T08:48:28Z</time></trkpt><trkpt lat="45.31706138840623" lon="8.394305411445757"><ele>129.33333333333334</ele><time>2026-04-06T08:48:29Z</time></trkpt><trkpt lat="45.31713370255356" lon="8.394185126651529"><ele>129.0</ele><time>2026-04-06T08:48:30Z</time></trkpt><trkpt lat="45.317228974808934" lon="8.394071344897066"><ele>128.66666666666666</ele><time>2026-04-06T08:48:31Z</time></trkpt><trkpt lat="45.31734086339223" lon="8.39395656236042"><ele>128.33333333333331</ele><time>2026-04-06T08:48:32Z</time></trkpt><trkpt lat="45.317467093593365" lon="8.393841130423933"><ele>128.0</ele><time>2026-04-06T08:48:33Z</time></trkpt><trkpt lat="45.317605690215494" lon="8.3937203708104"><ele>128.0</ele><time>2026-04-06T08:48:34Z</time></trkpt><trkpt lat="45.31775555363784" lon="8.393592605562908"><ele>128.0</ele><time>2026-04-06T08:48:35Z</time></trkpt><trkpt lat="45.31791603653188" lon="8.393456883204465"><ele>128.0</ele><time>2026-04-06T08:48:36Z</time></trkpt><trkpt lat="45.31808471553306" lon="8.393312058721122"><ele>128.33333333333331</ele><time>2026-04-06T08:48:37Z</time></trkpt><trkpt lat="45.318259877830464" lon="8.393163730224169"><ele>128.66666666666666</ele><time>2026-04-06T08:48:38Z</time></trkpt><trkpt lat="45.31843979335034" lon="8.393009747886135"><ele>129.0</ele><time>2026-04-06T08:48:39Z</time></trkpt><trkpt lat="45.31861803878805" lon="8.392858984565422"><ele>129.0</ele><time>2026-04-06T08:48:40Z</time></trkpt><trkpt lat="45.31880279754477" lon="8.392698475783074"><ele>129.0</ele><time>2026-04-06T08:48:41Z</time></trkpt><trkpt lat="45.318990562618815" lon="8.392538291056647"><ele>129.0</ele><time>2026-04-06T08:48:42Z</time></trkpt><trkpt lat="45.319179701909256" lon="8.392377356492336"><ele>128.66666666666666</ele><time>2026-04-06T08:48:43Z</time></trkpt><trkpt lat="45.319370199531065" lon="8.392214275469113"><ele>128.33333333333331</ele><time>2026-04-06T08:48:44Z</time></trkpt><trkpt lat="45.31956423105372" lon="8.392048926827195"><ele>128.0</ele><time>2026-04-06T08:48:45Z</time></trkpt><trkpt lat="45.319756155007035" lon="8.39188666042231"><ele>128.66666666666666</ele><time>2026-04-06T08:48:46Z</time></trkpt><trkpt lat="45.31994335493652" lon="8.391728406555275"><ele>129.33333333333334</ele><time>2026-04-06T08:48:47Z</time></trkpt><trkpt lat="45.32013127638108" lon="8.39156840508406"><ele>130.0</ele><time>2026-04-06T08:48:48Z</time></trkpt><trkpt lat="45.32032142474949" lon="8.391404461166083"><ele>130.66666666666669</ele><time>2026-04-06T08:48:49Z</time></trkpt><trkpt lat="45.320513336674104" lon="8.391239211239705"><ele>131.33333333333334</ele><time>2026-04-06T08:48:50Z</time></trkpt><trkpt lat="45.320702886563026" lon="8.391074972784422"><ele>132.0</ele><time>2026-04-06T08:48:51Z</time></trkpt><trkpt lat="45.32088975307482" lon="8.390913765853664"><ele>132.0</ele><time>2026-04-06T08:48:52Z</time></trkpt><trkpt lat="45.3210771964854" lon="8.390754853605094"><ele>132.0</ele><time>2026-04-06T08:48:53Z</time></trkpt><trkpt lat="45.32126412659105" lon="8.390595615787289"><ele>132.0</ele><time>2026-04-06T08:48:54Z</time></trkpt><trkpt lat="45.321451325927875" lon="8.390435939269752"><ele>132.5</ele><time>2026-04-06T08:48:55Z</time></trkpt><trkpt lat="45.321643167762254" lon="8.390271605468904"><ele>133.0</ele><time>2026-04-06T08:48:56Z</time></trkpt><trkpt lat="45.32183732253199" lon="8.390105128657265"><ele>133.0</ele><time>2026-04-06T08:48:57Z</time></trkpt><trkpt lat="45.322034105218535" lon="8.389935952866827"><ele>133.0</ele><time>2026-04-06T08:48:58Z</time></trkpt><trkpt lat="45.32223129200476" lon="8.389764888038316"><ele>132.66666666666669</ele><time>2026-04-06T08:48:59Z</time></trkpt><trkpt lat="45.3224217416267" lon="8.389598135287857"><ele>132.33333333333334</ele><time>2026-04-06T08:49:00Z</time></trkpt><trkpt lat="45.32260313122288" lon="8.389432759497353"><ele>132.0</ele><time>2026-04-06T08:49:01Z</time></trkpt><trkpt lat="45.32277063397236" lon="8.389266688363211"><ele>132.0</ele><time>2026-04-06T08:49:02Z</time></trkpt><trkpt lat="45.322930250303635" lon="8.389091525503765"><ele>132.0</ele><time>2026-04-06T08:49:03Z</time></trkpt><trkpt lat="45.32308144808465" lon="8.388916160647609"><ele>132.0</ele><time>2026-04-06T08:49:04Z</time></trkpt><trkpt lat="45.32321944853033" lon="8.388751997611893"><ele>132.0</ele><time>2026-04-06T08:49:05Z</time></trkpt><trkpt lat="45.32334523475803" lon="8.388600494050968"><ele>132.0</ele><time>2026-04-06T08:49:06Z</time></trkpt><trkpt lat="45.323449660762506" lon="8.388474450924654"><ele>132.0</ele><time>2026-04-06T08:49:07Z</time></trkpt><trkpt lat="45.323540420732364" lon="8.388368618006442"><ele>132.0</ele><time>2026-04-06T08:49:08Z</time></trkpt><trkpt lat="45.32362353554124" lon="8.388284480186536"><ele>132.0</ele><time>2026-04-06T08:49:09Z</time></trkpt><trkpt lat="45.323698734500496" lon="8.388235226281935"><ele>132.0</ele><time>2026-04-06T08:49:10Z</time></trkpt><trkpt lat="45.32376787861982" lon="8.388247899131635"><ele>132.0</ele><time>2026-04-06T08:49:11Z</time></trkpt><trkpt lat="45.323836943168" lon="8.388294358267654"><ele>132.0</ele><time>2026-04-06T08:49:12Z</time></trkpt><trkpt lat="45.32390808391987" lon="8.38835519484447"><ele>132.0</ele><time>2026-04-06T08:49:13Z</time></trkpt><trkpt lat="45.32399285235149" lon="8.388405909153954"><ele>132.0</ele><time>2026-04-06T08:49:14Z</time></trkpt><trkpt lat="45.32407138350704" lon="8.388448539626864"><ele>132.16666666666666</ele><time>2026-04-06T08:49:15Z</time></trkpt><trkpt lat="45.32415556427484" lon="8.388473039925373"><ele>132.33333333333334</ele><time>2026-04-06T08:49:17Z</time></trkpt><trkpt lat="45.32424509265087" lon="8.388365133047609"><ele>132.5</ele><time>2026-04-06T08:49:19Z</time></trkpt><trkpt lat="45.32428304603767" lon="8.38829101556147"><ele>132.66666666666669</ele><time>2026-04-06T08:49:20Z</time></trkpt><trkpt lat="45.324350199322616" lon="8.388168272926407"><ele>132.83333333333334</ele><time>2026-04-06T08:49:22Z</time></trkpt><trkpt lat="45.324415415865765" lon="8.388135944661025"><ele>133.0</ele><time>2026-04-06T08:49:23Z</time></trkpt><trkpt lat="45.32449550019717" lon="8.388134120698133"><ele>133.0</ele><time>2026-04-06T08:49:24Z</time></trkpt><trkpt lat="45.32459016269035" lon="8.388151250636996"><ele>133.0</ele><time>2026-04-06T08:49:25Z</time></trkpt><trkpt lat="45.32470052318876" lon="8.38818910800707"><ele>133.0</ele><time>2026-04-06T08:49:26Z</time></trkpt><trkpt lat="45.32481682522453" lon="8.388237150462903"><ele>133.0</ele><time>2026-04-06T08:49:27Z</time></trkpt><trkpt lat="45.324951724820856" lon="8.388288031144766"><ele>133.33333333333334</ele><time>2026-04-06T08:49:28Z</time></trkpt><trkpt lat="45.32510208190302" lon="8.388341748206162"><ele>133.66666666666666</ele><time>2026-04-06T08:49:29Z</time></trkpt><trkpt lat="45.325264499734274" lon="8.388400720244402"><ele>134.0</ele><time>2026-04-06T08:49:30Z</time></trkpt><trkpt lat="45.32543331001134" lon="8.388462046586541"><ele>132.66666666666666</ele><time>2026-04-06T08:49:31Z</time></trkpt><trkpt lat="45.3256154913246" lon="8.388527800380258"><ele>131.33333333333334</ele><time>2026-04-06T08:49:32Z</time></trkpt><trkpt lat="45.32580584255192" lon="8.388597240463325"><ele>130.0</ele><time>2026-04-06T08:49:33Z</time></trkpt><trkpt lat="45.3259954055012" lon="8.388665783595517"><ele>130.0</ele><time>2026-04-06T08:49:34Z</time></trkpt><trkpt lat="45.32618824837523" lon="8.388734769058848"><ele>130.0</ele><time>2026-04-06T08:49:35Z</time></trkpt><trkpt lat="45.32638635099163" lon="8.388806340959594"><ele>130.0</ele><time>2026-04-06T08:49:36Z</time></trkpt><trkpt lat="45.32658796027972" lon="8.388877718196358"><ele>130.0</ele><time>2026-04-06T08:49:37Z</time></trkpt><trkpt lat="45.326792194194006" lon="8.388950172328434"><ele>130.0</ele><time>2026-04-06T08:49:38Z</time></trkpt><trkpt lat="45.32699918093057" lon="8.389024712891729"><ele>130.0</ele><time>2026-04-06T08:49:39Z</time></trkpt><trkpt lat="45.327207645786416" lon="8.389099606218313"><ele>130.66666666666669</ele><time>2026-04-06T08:49:40Z</time></trkpt><trkpt lat="45.32741591828922" lon="8.3891760730868"><ele>131.33333333333334</ele><time>2026-04-06T08:49:41Z</time></trkpt><trkpt lat="45.32762011908569" lon="8.389250884413686"><ele>132.0</ele><time>2026-04-06T08:49:42Z</time></trkpt><trkpt lat="45.32781456633278" lon="8.389319800914532"><ele>132.0</ele><time>2026-04-06T08:49:43Z</time></trkpt><trkpt lat="45.32800191506635" lon="8.389387134716573"><ele>132.0</ele><time>2026-04-06T08:49:44Z</time></trkpt><trkpt lat="45.32819130823729" lon="8.38945532295137"><ele>132.0</ele><time>2026-04-06T08:49:45Z</time></trkpt><trkpt lat="45.32838656658883" lon="8.38952348007915"><ele>132.0</ele><time>2026-04-06T08:49:45.999Z</time></trkpt><trkpt lat="45.32858213761958" lon="8.389592379741682"><ele>132.0</ele><time>2026-04-06T08:49:46.999Z</time></trkpt><trkpt lat="45.32877439495499" lon="8.3896606229016"><ele>132.0</ele><time>2026-04-06T08:49:47.999Z</time></trkpt><trkpt lat="45.32896441584369" lon="8.389728223150776"><ele>132.0</ele><time>2026-04-06T08:49:48.999Z</time></trkpt><trkpt lat="45.329152535674005" lon="8.389794616225226"><ele>132.0</ele><time>2026-04-06T08:49:49.999Z</time></trkpt><trkpt lat="45.32934334992403" lon="8.38986408927282"><ele>132.0</ele><time>2026-04-06T08:49:50.999Z</time></trkpt><trkpt lat="45.32953611101263" lon="8.389935933988069"><ele>131.0</ele><time>2026-04-06T08:49:51.999Z</time></trkpt><trkpt lat="45.329730394148385" lon="8.390005869111633"><ele>130.0</ele><time>2026-04-06T08:49:52.999Z</time></trkpt><trkpt lat="45.32992295042024" lon="8.390074767976142"><ele>129.0</ele><time>2026-04-06T08:49:53.999Z</time></trkpt><trkpt lat="45.33011352047744" lon="8.39014322250565"><ele>129.0</ele><time>2026-04-06T08:49:54.999Z</time></trkpt><trkpt lat="45.330305178001694" lon="8.390210768220483"><ele>129.0</ele><time>2026-04-06T08:49:55.999Z</time></trkpt><trkpt lat="45.330498845090204" lon="8.390278666754707"><ele>129.0</ele><time>2026-04-06T08:49:56.999Z</time></trkpt><trkpt lat="45.33069335969122" lon="8.390349459169716"><ele>128.66666666666666</ele><time>2026-04-06T08:49:57.999Z</time></trkpt><trkpt lat="45.33088951731879" lon="8.390418807371706"><ele>128.33333333333331</ele><time>2026-04-06T08:49:58.999Z</time></trkpt><trkpt lat="45.33108490002619" lon="8.390488129334024"><ele>128.0</ele><time>2026-04-06T08:49:59.999Z</time></trkpt><trkpt lat="45.33128107040092" lon="8.390558886263415"><ele>128.66666666666666</ele><time>2026-04-06T08:50:00.999Z</time></trkpt><trkpt lat="45.33147873900217" lon="8.390628587341455"><ele>129.33333333333334</ele><time>2026-04-06T08:50:01.999Z</time></trkpt><trkpt lat="45.33167148300516" lon="8.390694879619751"><ele>130.0</ele><time>2026-04-06T08:50:02.999Z</time></trkpt><trkpt lat="45.33186196172847" lon="8.39076115039988"><ele>130.0</ele><time>2026-04-06T08:50:03.999Z</time></trkpt><trkpt lat="45.33204674694215" lon="8.390826194145488"><ele>130.0</ele><time>2026-04-06T08:50:04.999Z</time></trkpt><trkpt lat="45.33222488571504" lon="8.390890846671347"><ele>130.0</ele><time>2026-04-06T08:50:05.999Z</time></trkpt><trkpt lat="45.332399910698825" lon="8.39095383686677"><ele>129.66666666666669</ele><time>2026-04-06T08:50:06.999Z</time></trkpt><trkpt lat="45.33257216347295" lon="8.391015282082414"><ele>129.33333333333334</ele><time>2026-04-06T08:50:07.999Z</time></trkpt><trkpt lat="45.3327388744908" lon="8.391073947397933"><ele>129.0</ele><time>2026-04-06T08:50:08.999Z</time></trkpt><trkpt lat="45.332901295932174" lon="8.391132027912576"><ele>129.0</ele><time>2026-04-06T08:50:09.999Z</time></trkpt><trkpt lat="45.33306274780307" lon="8.39119007943901"><ele>129.0</ele><time>2026-04-06T08:50:10.999Z</time></trkpt><trkpt lat="45.33321440357599" lon="8.391242895728015"><ele>129.0</ele><time>2026-04-06T08:50:11.999Z</time></trkpt><trkpt lat="45.33335748143627" lon="8.39129383595543"><ele>129.0</ele><time>2026-04-06T08:50:12.999Z</time></trkpt><trkpt lat="45.333494219388676" lon="8.391344029509975"><ele>129.0</ele><time>2026-04-06T08:50:13.999Z</time></trkpt><trkpt lat="45.333624813666475" lon="8.39138893812822"><ele>129.0</ele><time>2026-04-06T08:50:14.999Z</time></trkpt><trkpt lat="45.333751224702006" lon="8.391432065810282"><ele>129.0</ele><time>2026-04-06T08:50:15.999Z</time></trkpt><trkpt lat="45.33386779506335" lon="8.391473748107035"><ele>129.16666666666666</ele><time>2026-04-06T08:50:16.999Z</time></trkpt><trkpt lat="45.333965228248864" lon="8.39150757692194"><ele>129.33333333333334</ele><time>2026-04-06T08:50:17.999Z</time></trkpt><trkpt lat="45.33404489034847" lon="8.391537814972018"><ele>129.5</ele><time>2026-04-06T08:50:18.999Z</time></trkpt><trkpt lat="45.33410601760341" lon="8.391566392400833"><ele>129.66666666666669</ele><time>2026-04-06T08:50:19.999Z</time></trkpt><trkpt lat="45.33420408288168" lon="8.391657180242401"><ele>129.83333333333334</ele><time>2026-04-06T08:50:21.999Z</time></trkpt><trkpt lat="45.334247771038825" lon="8.39173315904044"><ele>130.0</ele><time>2026-04-06T08:50:22.999Z</time></trkpt><trkpt lat="45.334297305813074" lon="8.391818880349188"><ele>130.0</ele><time>2026-04-06T08:50:23.999Z</time></trkpt><trkpt lat="45.334362914314916" lon="8.391881882376401"><ele>130.0</ele><time>2026-04-06T08:50:24.999Z</time></trkpt><trkpt lat="45.334438921118306" lon="8.39191517566208"><ele>130.0</ele><time>2026-04-06T08:50:25.999Z</time></trkpt><trkpt lat="45.33452090904994" lon="8.391909690216517"><ele>130.0</ele><time>2026-04-06T08:50:26.999Z</time></trkpt><trkpt lat="45.334605021662135" lon="8.391876335701197"><ele>130.0</ele><time>2026-04-06T08:50:27.999Z</time></trkpt><trkpt lat="45.33468581876611" lon="8.391831716527875"><ele>130.0</ele><time>2026-04-06T08:50:28.999Z</time></trkpt><trkpt lat="45.334771806197125" lon="8.391808491460214"><ele>129.6</ele><time>2026-04-06T08:50:29.999Z</time></trkpt><trkpt lat="45.3348648769418" lon="8.391826191580185"><ele>129.2</ele><time>2026-04-06T08:50:30.999Z</time></trkpt><trkpt lat="45.33496575434066" lon="8.391866813438709"><ele>128.8</ele><time>2026-04-06T08:50:31.999Z</time></trkpt><trkpt lat="45.335076001393794" lon="8.391915201509624"><ele>128.4</ele><time>2026-04-06T08:50:33Z</time></trkpt><trkpt lat="45.335197263073404" lon="8.391956124245862"><ele>128.0</ele><time>2026-04-06T08:50:34Z</time></trkpt><trkpt lat="45.335330179575614" lon="8.392002677412252"><ele>128.0</ele><time>2026-04-06T08:50:35Z</time></trkpt><trkpt lat="45.33546924728656" lon="8.392055296832197"><ele>128.0</ele><time>2026-04-06T08:50:36Z</time></trkpt><trkpt lat="45.33561007556306" lon="8.392105229863056"><ele>128.0</ele><time>2026-04-06T08:50:37Z</time></trkpt><trkpt lat="45.33574929488905" lon="8.392151462362396"><ele>128.0</ele><time>2026-04-06T08:50:38Z</time></trkpt><trkpt lat="45.33588346874988" lon="8.392197232614684"><ele>128.25</ele><time>2026-04-06T08:50:39Z</time></trkpt><trkpt lat="45.33601849976312" lon="8.392244960634176"><ele>128.5</ele><time>2026-04-06T08:50:40Z</time></trkpt><trkpt lat="45.336157748902494" lon="8.392295001872517"><ele>128.75</ele><time>2026-04-06T08:50:41Z</time></trkpt><trkpt lat="45.33630358566253" lon="8.392346870487449"><ele>129.0</ele><time>2026-04-06T08:50:42Z</time></trkpt><trkpt lat="45.3364516243547" lon="8.392399373963142"><ele>129.33333333333334</ele><time>2026-04-06T08:50:43Z</time></trkpt><trkpt lat="45.33660141017612" lon="8.392452547149137"><ele>129.66666666666669</ele><time>2026-04-06T08:50:44Z</time></trkpt><trkpt lat="45.33674851196838" lon="8.392506974469784"><ele>130.0</ele><time>2026-04-06T08:50:45Z</time></trkpt><trkpt lat="45.336890613904345" lon="8.392559346240706"><ele>130.0</ele><time>2026-04-06T08:50:46Z</time></trkpt><trkpt lat="45.337029288853685" lon="8.392609812250098"><ele>130.0</ele><time>2026-04-06T08:50:47Z</time></trkpt><trkpt lat="45.3371692044586" lon="8.392659995541733"><ele>130.0</ele><time>2026-04-06T08:50:48Z</time></trkpt><trkpt lat="45.33731899390218" lon="8.392714312589094"><ele>130.0</ele><time>2026-04-06T08:50:49Z</time></trkpt><trkpt lat="45.33747983020078" lon="8.392770215282955"><ele>130.33333333333334</ele><time>2026-04-06T08:50:50Z</time></trkpt><trkpt lat="45.33764176504361" lon="8.392826127237917"><ele>130.66666666666666</ele><time>2026-04-06T08:50:51Z</time></trkpt><trkpt lat="45.33781125708536" lon="8.392886269921457"><ele>131.0</ele><time>2026-04-06T08:50:52Z</time></trkpt><trkpt lat="45.33798317607913" lon="8.392945412384519"><ele>130.0</ele><time>2026-04-06T08:50:53Z</time></trkpt><trkpt lat="45.338159645987105" lon="8.393006945420689"><ele>129.0</ele><time>2026-04-06T08:50:54Z</time></trkpt><trkpt lat="45.338338586773546" lon="8.39307009218168"><ele>128.0</ele><time>2026-04-06T08:50:55Z</time></trkpt><trkpt lat="45.33851946938589" lon="8.393134991574517"><ele>128.0</ele><time>2026-04-06T08:50:56Z</time></trkpt><trkpt lat="45.33870126800605" lon="8.393200128411006"><ele>128.0</ele><time>2026-04-06T08:50:57Z</time></trkpt><trkpt lat="45.33888156186426" lon="8.393263143106804"><ele>128.0</ele><time>2026-04-06T08:50:58Z</time></trkpt><trkpt lat="45.33906168433122" lon="8.393326051699391"><ele>129.0</ele><time>2026-04-06T08:50:59Z</time></trkpt><trkpt lat="45.33924229998673" lon="8.393391225626829"><ele>130.0</ele><time>2026-04-06T08:51:00Z</time></trkpt><trkpt lat="45.339423744620646" lon="8.393456452249161"><ele>131.0</ele><time>2026-04-06T08:51:01Z</time></trkpt><trkpt lat="45.33960050816909" lon="8.393517431518857"><ele>130.66666666666666</ele><time>2026-04-06T08:51:02Z</time></trkpt><trkpt lat="45.33977042196712" lon="8.393577622259416"><ele>130.33333333333334</ele><time>2026-04-06T08:51:03Z</time></trkpt><trkpt lat="45.33993672600322" lon="8.393638265915778"><ele>130.0</ele><time>2026-04-06T08:51:04Z</time></trkpt><trkpt lat="45.3400971194141" lon="8.393695721735766"><ele>130.0</ele><time>2026-04-06T08:51:05Z</time></trkpt><trkpt lat="45.34025226429284" lon="8.393752922955436"><ele>130.0</ele><time>2026-04-06T08:51:06Z</time></trkpt><trkpt lat="45.340398583290195" lon="8.39380608628858"><ele>130.0</ele><time>2026-04-06T08:51:07Z</time></trkpt><trkpt lat="45.340548759931885" lon="8.393860545503125"><ele>130.0</ele><time>2026-04-06T08:51:08Z</time></trkpt><trkpt lat="45.34071219941739" lon="8.393915124748139"><ele>130.0</ele><time>2026-04-06T08:51:09Z</time></trkpt><trkpt lat="45.34088095384186" lon="8.393968307591594"><ele>130.0</ele><time>2026-04-06T08:51:10Z</time></trkpt><trkpt lat="45.34102746312723" lon="8.394020132481245"><ele>130.0</ele><time>2026-04-06T08:51:11Z</time></trkpt><trkpt lat="45.34115283095427" lon="8.394078700587183"><ele>130.0</ele><time>2026-04-06T08:51:12Z</time></trkpt><trkpt lat="45.34125122193791" lon="8.394167456229875"><ele>130.0</ele><time>2026-04-06T08:51:13Z</time></trkpt><trkpt lat="45.34133641965082" lon="8.394307794267604"><ele>130.0</ele><time>2026-04-06T08:51:14Z</time></trkpt><trkpt lat="45.341415904561956" lon="8.394467190544425"><ele>130.0</ele><time>2026-04-06T08:51:15Z</time></trkpt><trkpt lat="45.34150759187367" lon="8.394626577907488"><ele>130.0</ele><time>2026-04-06T08:51:16Z</time></trkpt><trkpt lat="45.34161709241477" lon="8.39479317076449"><ele>130.0</ele><time>2026-04-06T08:51:17Z</time></trkpt><trkpt lat="45.341710436099085" lon="8.394981768838582"><ele>130.0</ele><time>2026-04-06T08:51:18Z</time></trkpt><trkpt lat="45.34175919727796" lon="8.395195797260673"><ele>130.0</ele><time>2026-04-06T08:51:19Z</time></trkpt><trkpt lat="45.34178005371616" lon="8.395431127467695"><ele>130.0</ele><time>2026-04-06T08:51:20Z</time></trkpt><trkpt lat="45.34178832121092" lon="8.39567572556813"><ele>130.0</ele><time>2026-04-06T08:51:21Z</time></trkpt><trkpt lat="45.34179101363134" lon="8.395931222870734"><ele>130.0</ele><time>2026-04-06T08:51:22Z</time></trkpt><trkpt lat="45.3417890694759" lon="8.396171270936124"><ele>130.0</ele><time>2026-04-06T08:51:23Z</time></trkpt><trkpt lat="45.341784521114484" lon="8.396429710099222"><ele>130.0</ele><time>2026-04-06T08:51:24Z</time></trkpt><trkpt lat="45.341778328465686" lon="8.396697819083224"><ele>130.0</ele><time>2026-04-06T08:51:25Z</time></trkpt><trkpt lat="45.341771224061375" lon="8.39697661089012"><ele>130.0</ele><time>2026-04-06T08:51:26Z</time></trkpt><trkpt lat="45.341763441661506" lon="8.397262992659181"><ele>130.0</ele><time>2026-04-06T08:51:27Z</time></trkpt><trkpt lat="45.34175614677986" lon="8.397540329445862"><ele>130.0</ele><time>2026-04-06T08:51:28Z</time></trkpt><trkpt lat="45.341748975541584" lon="8.397822858615813"><ele>130.0</ele><time>2026-04-06T08:51:29Z</time></trkpt><trkpt lat="45.341741823154855" lon="8.398103304464273"><ele>130.33333333333334</ele><time>2026-04-06T08:51:30Z</time></trkpt><trkpt lat="45.34173508092066" lon="8.398367770767333"><ele>130.66666666666666</ele><time>2026-04-06T08:51:31Z</time></trkpt><trkpt lat="45.341727672590565" lon="8.398622828366555"><ele>131.0</ele><time>2026-04-06T08:51:32Z</time></trkpt><trkpt lat="45.341720602855254" lon="8.398863668052545"><ele>130.33333333333331</ele><time>2026-04-06T08:51:33Z</time></trkpt><trkpt lat="45.34171349017756" lon="8.399094096962516"><ele>129.66666666666666</ele><time>2026-04-06T08:51:34Z</time></trkpt><trkpt lat="45.34170662301259" lon="8.399313039154674"><ele>129.0</ele><time>2026-04-06T08:51:35Z</time></trkpt><trkpt lat="45.341701199926305" lon="8.399525183356191"><ele>129.0</ele><time>2026-04-06T08:51:36Z</time></trkpt><trkpt lat="45.341697630744584" lon="8.39972581814797"><ele>129.0</ele><time>2026-04-06T08:51:37Z</time></trkpt><trkpt lat="45.34169248934673" lon="8.3999202763533"><ele>129.0</ele><time>2026-04-06T08:51:38Z</time></trkpt><trkpt lat="45.34168650457521" lon="8.40010463077947"><ele>129.0</ele><time>2026-04-06T08:51:39Z</time></trkpt><trkpt lat="45.34168110693195" lon="8.4002836609791"><ele>129.0</ele><time>2026-04-06T08:51:40Z</time></trkpt><trkpt lat="45.34167672794361" lon="8.40046907989645"><ele>129.0</ele><time>2026-04-06T08:51:41Z</time></trkpt><trkpt lat="45.34167148188649" lon="8.40066609054297"><ele>129.0</ele><time>2026-04-06T08:51:42Z</time></trkpt><trkpt lat="45.34166618871833" lon="8.400880739150121"><ele>129.0</ele><time>2026-04-06T08:51:43Z</time></trkpt><trkpt lat="45.34166125437694" lon="8.401105774709634"><ele>128.75</ele><time>2026-04-06T08:51:44Z</time></trkpt><trkpt lat="45.341656128111275" lon="8.401311832813827"><ele>128.5</ele><time>2026-04-06T08:51:45Z</time></trkpt><trkpt lat="45.34164702695122" lon="8.401496177042507"><ele>128.25</ele><time>2026-04-06T08:51:46Z</time></trkpt><trkpt lat="45.3416197796786" lon="8.40166358169487"><ele>128.0</ele><time>2026-04-06T08:51:47Z</time></trkpt><trkpt lat="45.34156014637557" lon="8.401819459052557"><ele>128.0</ele><time>2026-04-06T08:51:48Z</time></trkpt><trkpt lat="45.34147337896806" lon="8.4019760539839"><ele>128.0</ele><time>2026-04-06T08:51:49Z</time></trkpt><trkpt lat="45.34138325995623" lon="8.40212722902191"><ele>128.0</ele><time>2026-04-06T08:51:50Z</time></trkpt><trkpt lat="45.34131579223486" lon="8.402286411203443"><ele>128.0</ele><time>2026-04-06T08:51:51Z</time></trkpt><trkpt lat="45.341280140256174" lon="8.402460029461333"><ele>128.25</ele><time>2026-04-06T08:51:51.999Z</time></trkpt><trkpt lat="45.34128258819879" lon="8.402634805984917"><ele>128.5</ele><time>2026-04-06T08:51:52.999Z</time></trkpt><trkpt lat="45.341322770620714" lon="8.402793785096536"><ele>128.75</ele><time>2026-04-06T08:51:53.999Z</time></trkpt><trkpt lat="45.341396780261626" lon="8.402944849048453"><ele>129.0</ele><time>2026-04-06T08:51:54.999Z</time></trkpt><trkpt lat="45.34149010667316" lon="8.403096681059672"><ele>129.0</ele><time>2026-04-06T08:51:55.999Z</time></trkpt><trkpt lat="45.34157394149175" lon="8.403274083985671"><ele>129.0</ele><time>2026-04-06T08:51:56.999Z</time></trkpt><trkpt lat="45.341609962672685" lon="8.403498737849743"><ele>129.0</ele><time>2026-04-06T08:51:57.999Z</time></trkpt><trkpt lat="45.34160878059353" lon="8.403739575568054"><ele>128.33333333333334</ele><time>2026-04-06T08:51:58.999Z</time></trkpt><trkpt lat="45.34159467649268" lon="8.403987251777032"><ele>127.66666666666667</ele><time>2026-04-06T08:51:59.999Z</time></trkpt><trkpt lat="45.341580049554004" lon="8.404249467552614"><ele>127.0</ele><time>2026-04-06T08:52:00.999Z</time></trkpt><trkpt lat="45.34156995906436" lon="8.404520745463158"><ele>127.66666666666667</ele><time>2026-04-06T08:52:01.999Z</time></trkpt><trkpt lat="45.34155873713567" lon="8.404790143353209"><ele>128.33333333333334</ele><time>2026-04-06T08:52:02.999Z</time></trkpt><trkpt lat="45.3415478004104" lon="8.405069003039442"><ele>129.0</ele><time>2026-04-06T08:52:03.999Z</time></trkpt><trkpt lat="45.34153956580017" lon="8.405352726764546"><ele>129.33333333333334</ele><time>2026-04-06T08:52:04.999Z</time></trkpt><trkpt lat="45.34153082886283" lon="8.40564382085854"><ele>129.66666666666669</ele><time>2026-04-06T08:52:05.999Z</time></trkpt><trkpt lat="45.34152216618403" lon="8.405940783585025"><ele>130.0</ele><time>2026-04-06T08:52:06.999Z</time></trkpt><trkpt lat="45.34151319851478" lon="8.406244373628716"><ele>129.0</ele><time>2026-04-06T08:52:07.999Z</time></trkpt><trkpt lat="45.34150387250568" lon="8.406555539896443"><ele>128.0</ele><time>2026-04-06T08:52:08.999Z</time></trkpt><trkpt lat="45.34149452841288" lon="8.406870239324348"><ele>127.0</ele><time>2026-04-06T08:52:09.999Z</time></trkpt><trkpt lat="45.341484921332246" lon="8.4071877319294"><ele>126.5</ele><time>2026-04-06T08:52:10.999Z</time></trkpt><trkpt lat="45.34147654847118" lon="8.407509600595748"><ele>126.0</ele><time>2026-04-06T08:52:11.999Z</time></trkpt><trkpt lat="45.34146771435757" lon="8.407831172494257"><ele>126.0</ele><time>2026-04-06T08:52:12.999Z</time></trkpt><trkpt lat="45.34145867965751" lon="8.408152821814792"><ele>126.0</ele><time>2026-04-06T08:52:13.999Z</time></trkpt><trkpt lat="45.34144962370325" lon="8.408473326238243"><ele>126.0</ele><time>2026-04-06T08:52:14.999Z</time></trkpt><trkpt lat="45.341440803576845" lon="8.40879246357224"><ele>126.0</ele><time>2026-04-06T08:52:15.999Z</time></trkpt><trkpt lat="45.34143367315715" lon="8.40910983459757"><ele>126.0</ele><time>2026-04-06T08:52:16.999Z</time></trkpt><trkpt lat="45.34142607071778" lon="8.409425113966556"><ele>125.66666666666666</ele><time>2026-04-06T08:52:17.999Z</time></trkpt><trkpt lat="45.34141452604035" lon="8.40973979294898"><ele>125.33333333333333</ele><time>2026-04-06T08:52:18.999Z</time></trkpt><trkpt lat="45.341400992500226" lon="8.410052979799628"><ele>125.0</ele><time>2026-04-06T08:52:19.999Z</time></trkpt><trkpt lat="45.34138778399389" lon="8.410367102353586"><ele>125.0</ele><time>2026-04-06T08:52:20.999Z</time></trkpt><trkpt lat="45.341377667922195" lon="8.410680036353016"><ele>125.0</ele><time>2026-04-06T08:52:21.999Z</time></trkpt><trkpt lat="45.34136822666984" lon="8.41099452190378"><ele>125.0</ele><time>2026-04-06T08:52:22.999Z</time></trkpt><trkpt lat="45.341357702155825" lon="8.411309167019231"><ele>125.66666666666666</ele><time>2026-04-06T08:52:23.999Z</time></trkpt><trkpt lat="45.34134693385783" lon="8.41162313263705"><ele>126.33333333333334</ele><time>2026-04-06T08:52:24.999Z</time></trkpt><trkpt lat="45.34133707210082" lon="8.41193814075819"><ele>127.0</ele><time>2026-04-06T08:52:25.999Z</time></trkpt><trkpt lat="45.34132707539856" lon="8.412256996737984"><ele>127.0</ele><time>2026-04-06T08:52:26.999Z</time></trkpt><trkpt lat="45.34131746671514" lon="8.412574856457029"><ele>127.0</ele><time>2026-04-06T08:52:27.999Z</time></trkpt><trkpt lat="45.34130786951504" lon="8.41289154088967"><ele>127.0</ele><time>2026-04-06T08:52:28.999Z</time></trkpt><trkpt lat="45.34129701818083" lon="8.41320744753626"><ele>127.33333333333334</ele><time>2026-04-06T08:52:29.999Z</time></trkpt><trkpt lat="45.34130334762932" lon="8.413524162039804"><ele>127.66666666666666</ele><time>2026-04-06T08:52:30.999Z</time></trkpt><trkpt lat="45.34127890728121" lon="8.413840051393139"><ele>128.0</ele><time>2026-04-06T08:52:31.999Z</time></trkpt><trkpt lat="45.34126807674581" lon="8.414153128042807"><ele>127.0</ele><time>2026-04-06T08:52:32.999Z</time></trkpt><trkpt lat="45.34125814034239" lon="8.41446885137211"><ele>126.0</ele><time>2026-04-06T08:52:33.999Z</time></trkpt><trkpt lat="45.34124801015195" lon="8.414786181775256"><ele>125.0</ele><time>2026-04-06T08:52:34.999Z</time></trkpt><trkpt lat="45.34123817411378" lon="8.415099459458988"><ele>125.0</ele><time>2026-04-06T08:52:35.999Z</time></trkpt><trkpt lat="45.341228483650944" lon="8.415412760495213"><ele>125.0</ele><time>2026-04-06T08:52:36.999Z</time></trkpt><trkpt lat="45.34121881671594" lon="8.415728736844756"><ele>125.0</ele><time>2026-04-06T08:52:38Z</time></trkpt><trkpt lat="45.34120869181187" lon="8.416044324518854"><ele>124.66666666666666</ele><time>2026-04-06T08:52:39Z</time></trkpt><trkpt lat="45.34119861474878" lon="8.416360290895883"><ele>124.33333333333334</ele><time>2026-04-06T08:52:40Z</time></trkpt><trkpt lat="45.34118927399672" lon="8.41667502960146"><ele>124.0</ele><time>2026-04-06T08:52:41Z</time></trkpt><trkpt lat="45.34118074138593" lon="8.416988493960819"><ele>124.33333333333334</ele><time>2026-04-06T08:52:42Z</time></trkpt><trkpt lat="45.34117212968741" lon="8.41730437106093"><ele>124.66666666666666</ele><time>2026-04-06T08:52:43Z</time></trkpt><trkpt lat="45.34116246645012" lon="8.417622055457967"><ele>125.0</ele><time>2026-04-06T08:52:44Z</time></trkpt><trkpt lat="45.341151990001606" lon="8.417939556015417"><ele>124.66666666666666</ele><time>2026-04-06T08:52:45Z</time></trkpt><trkpt lat="45.34114197454422" lon="8.418256691717561"><ele>124.33333333333334</ele><time>2026-04-06T08:52:46Z</time></trkpt><trkpt lat="45.3411317876027" lon="8.418574119652964"><ele>124.0</ele><time>2026-04-06T08:52:47Z</time></trkpt><trkpt lat="45.34112244750085" lon="8.418892240120346"><ele>124.0</ele><time>2026-04-06T08:52:48Z</time></trkpt><trkpt lat="45.34111282479731" lon="8.419210135694627"><ele>124.0</ele><time>2026-04-06T08:52:49Z</time></trkpt><trkpt lat="45.34110418376928" lon="8.419526890621604"><ele>124.0</ele><time>2026-04-06T08:52:50Z</time></trkpt><trkpt lat="45.341094906353554" lon="8.419847538690549"><ele>124.33333333333334</ele><time>2026-04-06T08:52:51Z</time></trkpt><trkpt lat="45.34108489955354" lon="8.42016593424954"><ele>124.66666666666666</ele><time>2026-04-06T08:52:52Z</time></trkpt><trkpt lat="45.34107456282453" lon="8.420484503443113"><ele>125.0</ele><time>2026-04-06T08:52:53Z</time></trkpt><trkpt lat="45.34106602874048" lon="8.420804113599443"><ele>125.5</ele><time>2026-04-06T08:52:54Z</time></trkpt><trkpt lat="45.34105621589847" lon="8.421126068423892"><ele>126.0</ele><time>2026-04-06T08:52:55Z</time></trkpt><trkpt lat="45.341046876795794" lon="8.421446861741382"><ele>125.0</ele><time>2026-04-06T08:52:56Z</time></trkpt><trkpt lat="45.341038154203275" lon="8.42176828040005"><ele>124.0</ele><time>2026-04-06T08:52:57Z</time></trkpt><trkpt lat="45.34102911693034" lon="8.422092367586332"><ele>124.0</ele><time>2026-04-06T08:52:58Z</time></trkpt><trkpt lat="45.3410188447698" lon="8.422408706047909"><ele>124.0</ele><time>2026-04-06T08:52:59Z</time></trkpt><trkpt lat="45.341008034099424" lon="8.422723512340898"><ele>124.0</ele><time>2026-04-06T08:53:00Z</time></trkpt><trkpt lat="45.34099754014063" lon="8.423044024938024"><ele>124.0</ele><time>2026-04-06T08:53:01Z</time></trkpt><trkpt lat="45.34098848730742" lon="8.4233640995883"><ele>124.0</ele><time>2026-04-06T08:53:02Z</time></trkpt><trkpt lat="45.340978490937104" lon="8.42368138062464"><ele>124.0</ele><time>2026-04-06T08:53:03Z</time></trkpt><trkpt lat="45.340969035565834" lon="8.424000427002882"><ele>124.0</ele><time>2026-04-06T08:53:04Z</time></trkpt><trkpt lat="45.340959306558624" lon="8.42431957706671"><ele>124.0</ele><time>2026-04-06T08:53:05Z</time></trkpt><trkpt lat="45.34094930375421" lon="8.424638845894622"><ele>124.0</ele><time>2026-04-06T08:53:06Z</time></trkpt><trkpt lat="45.34094150344158" lon="8.424954952395375"><ele>124.33333333333334</ele><time>2026-04-06T08:53:07Z</time></trkpt><trkpt lat="45.34093419811528" lon="8.42526882334783"><ele>124.66666666666666</ele><time>2026-04-06T08:53:08Z</time></trkpt><trkpt lat="45.34092995866436" lon="8.425583701959951"><ele>125.0</ele><time>2026-04-06T08:53:09Z</time></trkpt><trkpt lat="45.34093357930357" lon="8.425896257940694"><ele>125.0</ele><time>2026-04-06T08:53:10Z</time></trkpt><trkpt lat="45.3409444920017" lon="8.426215284577342"><ele>125.0</ele><time>2026-04-06T08:53:11Z</time></trkpt><trkpt lat="45.34096083333514" lon="8.426541572951175"><ele>125.0</ele><time>2026-04-06T08:53:12Z</time></trkpt><trkpt lat="45.34098249787914" lon="8.426866487349251"><ele>125.0</ele><time>2026-04-06T08:53:13Z</time></trkpt><trkpt lat="45.34100919196786" lon="8.427186646627623"><ele>125.5</ele><time>2026-04-06T08:53:14Z</time></trkpt><trkpt lat="45.34104265249589" lon="8.427507559982212"><ele>126.0</ele><time>2026-04-06T08:53:15Z</time></trkpt><trkpt lat="45.34107985403324" lon="8.427824610609026"><ele>125.66666666666666</ele><time>2026-04-06T08:53:16Z</time></trkpt><trkpt lat="45.341121674548795" lon="8.428137593104067"><ele>125.33333333333333</ele><time>2026-04-06T08:53:17Z</time></trkpt><trkpt lat="45.34117077739135" lon="8.428443092753517"><ele>125.0</ele><time>2026-04-06T08:53:18Z</time></trkpt><trkpt lat="45.341225651557494" lon="8.428754811117763"><ele>124.33333333333333</ele><time>2026-04-06T08:53:19Z</time></trkpt><trkpt lat="45.3412884778882" lon="8.429064611048556"><ele>123.66666666666666</ele><time>2026-04-06T08:53:20Z</time></trkpt><trkpt lat="45.341352267132024" lon="8.429359742478221"><ele>123.0</ele><time>2026-04-06T08:53:21Z</time></trkpt><trkpt lat="45.34141946590506" lon="8.42964935159234"><ele>123.0</ele><time>2026-04-06T08:53:22Z</time></trkpt><trkpt lat="45.34149199375666" lon="8.429944400327331"><ele>123.0</ele><time>2026-04-06T08:53:23Z</time></trkpt><trkpt lat="45.3415714921484" lon="8.43024449341577"><ele>123.0</ele><time>2026-04-06T08:53:24Z</time></trkpt><trkpt lat="45.341658871108685" lon="8.430540966436064"><ele>124.0</ele><time>2026-04-06T08:53:25Z</time></trkpt><trkpt lat="45.34175269623176" lon="8.430837783158633"><ele>125.0</ele><time>2026-04-06T08:53:26Z</time></trkpt><trkpt lat="45.34184968396044" lon="8.431129532310349"><ele>124.5</ele><time>2026-04-06T08:53:27Z</time></trkpt><trkpt lat="45.34194590813909" lon="8.431421213921457"><ele>124.0</ele><time>2026-04-06T08:53:28Z</time></trkpt><trkpt lat="45.34204072011439" lon="8.431714118839434"><ele>124.0</ele><time>2026-04-06T08:53:29Z</time></trkpt><trkpt lat="45.3421345014013" lon="8.43201178515462"><ele>124.0</ele><time>2026-04-06T08:53:30Z</time></trkpt><trkpt lat="45.34222708863422" lon="8.432306114157846"><ele>124.33333333333334</ele><time>2026-04-06T08:53:31Z</time></trkpt><trkpt lat="45.34231831065687" lon="8.432591382504581"><ele>124.66666666666666</ele><time>2026-04-06T08:53:32Z</time></trkpt><trkpt lat="45.34241214818537" lon="8.43287586061063"><ele>125.0</ele><time>2026-04-06T08:53:33Z</time></trkpt><trkpt lat="45.34250569760079" lon="8.433165104496977"><ele>124.0</ele><time>2026-04-06T08:53:34Z</time></trkpt><trkpt lat="45.342603329585685" lon="8.433461007738867"><ele>123.0</ele><time>2026-04-06T08:53:35Z</time></trkpt><trkpt lat="45.34269627587398" lon="8.433752937940218"><ele>123.66666666666666</ele><time>2026-04-06T08:53:36Z</time></trkpt><trkpt lat="45.34279038034766" lon="8.434041862749016"><ele>124.33333333333333</ele><time>2026-04-06T08:53:37Z</time></trkpt><trkpt lat="45.342884486825504" lon="8.434333471930014"><ele>125.0</ele><time>2026-04-06T08:53:38Z</time></trkpt><trkpt lat="45.34297955712236" lon="8.434624379674014"><ele>124.66666666666666</ele><time>2026-04-06T08:53:39Z</time></trkpt><trkpt lat="45.343074063051425" lon="8.434913361355886"><ele>124.33333333333334</ele><time>2026-04-06T08:53:40Z</time></trkpt><trkpt lat="45.343166428838416" lon="8.435201616096913"><ele>124.0</ele><time>2026-04-06T08:53:41Z</time></trkpt><trkpt lat="45.343257983970354" lon="8.435488355548687"><ele>124.0</ele><time>2026-04-06T08:53:42Z</time></trkpt><trkpt lat="45.34334901242336" lon="8.43577525176557"><ele>124.0</ele><time>2026-04-06T08:53:43Z</time></trkpt><trkpt lat="45.3434418127551" lon="8.43606302413566"><ele>124.0</ele><time>2026-04-06T08:53:44Z</time></trkpt><trkpt lat="45.343532859348315" lon="8.436353628380186"><ele>123.33333333333334</ele><time>2026-04-06T08:53:45Z</time></trkpt><trkpt lat="45.3436247952774" lon="8.436641197940718"><ele>122.66666666666666</ele><time>2026-04-06T08:53:46Z</time></trkpt><trkpt lat="45.3437170121789" lon="8.43693019925264"><ele>122.0</ele><time>2026-04-06T08:53:47Z</time></trkpt><trkpt lat="45.343810947853655" lon="8.437220792893239"><ele>122.33333333333333</ele><time>2026-04-06T08:53:48Z</time></trkpt><trkpt lat="45.34390498782139" lon="8.437508809670746"><ele>122.66666666666666</ele><time>2026-04-06T08:53:49Z</time></trkpt><trkpt lat="45.3439987648807" lon="8.437792215008724"><ele>123.0</ele><time>2026-04-06T08:53:50Z</time></trkpt><trkpt lat="45.3440909465572" lon="8.438073561803414"><ele>123.66666666666666</ele><time>2026-04-06T08:53:51Z</time></trkpt><trkpt lat="45.34418346146227" lon="8.4383581689871"><ele>124.33333333333333</ele><time>2026-04-06T08:53:52Z</time></trkpt><trkpt lat="45.344275420194876" lon="8.43864357445769"><ele>125.0</ele><time>2026-04-06T08:53:53Z</time></trkpt><trkpt lat="45.34436661631811" lon="8.43893078779448"><ele>125.0</ele><time>2026-04-06T08:53:54Z</time></trkpt><trkpt lat="45.344458607814936" lon="8.439221111687285"><ele>125.0</ele><time>2026-04-06T08:53:55Z</time></trkpt><trkpt lat="45.34455232361093" lon="8.4395162905867"><ele>124.0</ele><time>2026-04-06T08:53:56Z</time></trkpt><trkpt lat="45.344649251509566" lon="8.439821166213939"><ele>123.0</ele><time>2026-04-06T08:53:57Z</time></trkpt><trkpt lat="45.34474938266505" lon="8.440127711026543"><ele>123.0</ele><time>2026-04-06T08:53:57.999Z</time></trkpt><trkpt lat="45.344847967386414" lon="8.440434942453347"><ele>123.0</ele><time>2026-04-06T08:53:58.999Z</time></trkpt><trkpt lat="45.344945059519794" lon="8.440735580051301"><ele>123.0</ele><time>2026-04-06T08:53:59.999Z</time></trkpt><trkpt lat="45.3450417749938" lon="8.441035007619297"><ele>123.0</ele><time>2026-04-06T08:54:00.999Z</time></trkpt><trkpt lat="45.34513850214913" lon="8.441333598038378"><ele>124.5</ele><time>2026-04-06T08:54:01.999Z</time></trkpt><trkpt lat="45.3452350685523" lon="8.44163149719373"><ele>126.0</ele><time>2026-04-06T08:54:02.999Z</time></trkpt><trkpt lat="45.34532935706367" lon="8.441928552507564"><ele>125.0</ele><time>2026-04-06T08:54:03.999Z</time></trkpt><trkpt lat="45.345423824167746" lon="8.442223388461464"><ele>124.0</ele><time>2026-04-06T08:54:04.999Z</time></trkpt><trkpt lat="45.34551882354533" lon="8.442519351643822"><ele>124.0</ele><time>2026-04-06T08:54:05.999Z</time></trkpt><trkpt lat="45.34561348595322" lon="8.442812371183573"><ele>124.0</ele><time>2026-04-06T08:54:06.999Z</time></trkpt><trkpt lat="45.34570794652782" lon="8.443106270826092"><ele>123.0</ele><time>2026-04-06T08:54:07.999Z</time></trkpt><trkpt lat="45.34580190068953" lon="8.443398847086126"><ele>122.0</ele><time>2026-04-06T08:54:08.999Z</time></trkpt><trkpt lat="45.34589647110968" lon="8.443695096311409"><ele>122.0</ele><time>2026-04-06T08:54:09.999Z</time></trkpt><trkpt lat="45.345992571496616" lon="8.443992408077534"><ele>122.0</ele><time>2026-04-06T08:54:10.999Z</time></trkpt><trkpt lat="45.3460886578865" lon="8.444290908785845"><ele>122.0</ele><time>2026-04-06T08:54:11.999Z</time></trkpt><trkpt lat="45.346189325695775" lon="8.444580283094798"><ele>122.0</ele><time>2026-04-06T08:54:12.999Z</time></trkpt><trkpt lat="45.3462928494979" lon="8.444861320811833"><ele>123.5</ele><time>2026-04-06T08:54:13.999Z</time></trkpt><trkpt lat="45.346412081018634" lon="8.445140601785374"><ele>125.0</ele><time>2026-04-06T08:54:14.999Z</time></trkpt><trkpt lat="45.346532271941676" lon="8.445412632530681"><ele>124.5</ele><time>2026-04-06T08:54:15.999Z</time></trkpt><trkpt lat="45.3466560292236" lon="8.445682823327273"><ele>124.0</ele><time>2026-04-06T08:54:16.999Z</time></trkpt><trkpt lat="45.34678643766781" lon="8.445954305530353"><ele>124.0</ele><time>2026-04-06T08:54:17.999Z</time></trkpt><trkpt lat="45.34692218406357" lon="8.446221751225181"><ele>124.0</ele><time>2026-04-06T08:54:18.999Z</time></trkpt><trkpt lat="45.34706240309886" lon="8.446479973024891"><ele>123.5</ele><time>2026-04-06T08:54:19.999Z</time></trkpt><trkpt lat="45.347205201633116" lon="8.44673071359862"><ele>123.0</ele><time>2026-04-06T08:54:20.999Z</time></trkpt><trkpt lat="45.34735318030288" lon="8.446981828199045"><ele>123.0</ele><time>2026-04-06T08:54:21.999Z</time></trkpt><trkpt lat="45.347503976971744" lon="8.447222150149708"><ele>123.0</ele><time>2026-04-06T08:54:22.999Z</time></trkpt><trkpt lat="45.34765551745147" lon="8.447451501346283"><ele>123.0</ele><time>2026-04-06T08:54:23.999Z</time></trkpt><trkpt lat="45.34780880723782" lon="8.447674583069766"><ele>123.0</ele><time>2026-04-06T08:54:24.999Z</time></trkpt><trkpt lat="45.34796424753167" lon="8.447887359350826"><ele>123.0</ele><time>2026-04-06T08:54:25.999Z</time></trkpt><trkpt lat="45.348118909901665" lon="8.44809099047037"><ele>123.0</ele><time>2026-04-06T08:54:26.999Z</time></trkpt><trkpt lat="45.34828123995169" lon="8.44829770187112"><ele>122.66666666666666</ele><time>2026-04-06T08:54:27.999Z</time></trkpt><trkpt lat="45.348449314005656" lon="8.448500790813279"><ele>122.33333333333333</ele><time>2026-04-06T08:54:28.999Z</time></trkpt><trkpt lat="45.34862226661506" lon="8.448694515058525"><ele>122.0</ele><time>2026-04-06T08:54:29.999Z</time></trkpt><trkpt lat="45.34879991081873" lon="8.448885725037483"><ele>122.33333333333333</ele><time>2026-04-06T08:54:30.999Z</time></trkpt><trkpt lat="45.3489791056199" lon="8.44906853591573"><ele>122.66666666666666</ele><time>2026-04-06T08:54:31.999Z</time></trkpt><trkpt lat="45.349154445334214" lon="8.44924059927377"><ele>123.0</ele><time>2026-04-06T08:54:32.999Z</time></trkpt><trkpt lat="45.34933239738186" lon="8.449405544865076"><ele>123.0</ele><time>2026-04-06T08:54:33.999Z</time></trkpt><trkpt lat="45.34951359983444" lon="8.449566188829984"><ele>123.0</ele><time>2026-04-06T08:54:34.999Z</time></trkpt><trkpt lat="45.34969417958978" lon="8.449715793526751"><ele>123.0</ele><time>2026-04-06T08:54:35.999Z</time></trkpt><trkpt lat="45.34987547438259" lon="8.449856311307169"><ele>123.0</ele><time>2026-04-06T08:54:36.999Z</time></trkpt><trkpt lat="45.35005802897644" lon="8.449990956821253"><ele>123.0</ele><time>2026-04-06T08:54:37.999Z</time></trkpt><trkpt lat="45.35024617600955" lon="8.450124600057121"><ele>123.0</ele><time>2026-04-06T08:54:38.999Z</time></trkpt><trkpt lat="45.35043732519933" lon="8.450252609576536"><ele>123.0</ele><time>2026-04-06T08:54:39.999Z</time></trkpt><trkpt lat="45.35062384502617" lon="8.450369748406711"><ele>123.0</ele><time>2026-04-06T08:54:40.999Z</time></trkpt><trkpt lat="45.350807437501665" lon="8.450481288485028"><ele>123.0</ele><time>2026-04-06T08:54:41.999Z</time></trkpt><trkpt lat="45.350988738315564" lon="8.450589617087667"><ele>123.0</ele><time>2026-04-06T08:54:42.999Z</time></trkpt><trkpt lat="45.35116872038273" lon="8.450695943603014"><ele>123.0</ele><time>2026-04-06T08:54:44Z</time></trkpt><trkpt lat="45.35134340016491" lon="8.45079996523241"><ele>123.0</ele><time>2026-04-06T08:54:45Z</time></trkpt><trkpt lat="45.35151989368827" lon="8.450907101381189"><ele>123.33333333333334</ele><time>2026-04-06T08:54:46Z</time></trkpt><trkpt lat="45.351691268880245" lon="8.45100984114106"><ele>123.66666666666667</ele><time>2026-04-06T08:54:47Z</time></trkpt><trkpt lat="45.351858947017696" lon="8.451108613303113"><ele>124.0</ele><time>2026-04-06T08:54:48Z</time></trkpt><trkpt lat="45.35202846992277" lon="8.451207661334136"><ele>124.0</ele><time>2026-04-06T08:54:49Z</time></trkpt><trkpt lat="45.35219403076661" lon="8.451304455006497"><ele>124.0</ele><time>2026-04-06T08:54:50Z</time></trkpt><trkpt lat="45.352358348812615" lon="8.45140084432261"><ele>124.0</ele><time>2026-04-06T08:54:51Z</time></trkpt><trkpt lat="45.352527150116416" lon="8.45150201575664"><ele>124.0</ele><time>2026-04-06T08:54:52Z</time></trkpt><trkpt lat="45.35269871313816" lon="8.4516056338406"><ele>124.0</ele><time>2026-04-06T08:54:53Z</time></trkpt><trkpt lat="45.3528686318475" lon="8.451706493657586"><ele>124.0</ele><time>2026-04-06T08:54:54Z</time></trkpt><trkpt lat="45.35303893714602" lon="8.45180886868244"><ele>125.66666666666667</ele><time>2026-04-06T08:54:55Z</time></trkpt><trkpt lat="45.35320796831372" lon="8.451909263452265"><ele>127.33333333333334</ele><time>2026-04-06T08:54:56Z</time></trkpt><trkpt lat="45.35337516020848" lon="8.452007577398952"><ele>129.0</ele><time>2026-04-06T08:54:57Z</time></trkpt><trkpt lat="45.35353856525149" lon="8.452106198523914"><ele>129.66666666666666</ele><time>2026-04-06T08:54:58Z</time></trkpt><trkpt lat="45.353702921590184" lon="8.452202834229553"><ele>130.33333333333331</ele><time>2026-04-06T08:54:59Z</time></trkpt><trkpt lat="45.3538705541358" lon="8.452300977268026"><ele>131.0</ele><time>2026-04-06T08:55:00Z</time></trkpt><trkpt lat="45.35404407107148" lon="8.45240365403344"><ele>129.0</ele><time>2026-04-06T08:55:01Z</time></trkpt><trkpt lat="45.354222445235834" lon="8.452509872485283"><ele>127.0</ele><time>2026-04-06T08:55:02Z</time></trkpt><trkpt lat="45.35439428508432" lon="8.452610639988167"><ele>125.0</ele><time>2026-04-06T08:55:03Z</time></trkpt><trkpt lat="45.354553517268926" lon="8.452704707307667"><ele>125.0</ele><time>2026-04-06T08:55:04Z</time></trkpt><trkpt lat="45.354705676151895" lon="8.452795886718516"><ele>125.0</ele><time>2026-04-06T08:55:05Z</time></trkpt><trkpt lat="45.35484953490353" lon="8.452883049461901"><ele>125.0</ele><time>2026-04-06T08:55:06Z</time></trkpt><trkpt lat="45.35500194711633" lon="8.452975222603948"><ele>125.0</ele><time>2026-04-06T08:55:07Z</time></trkpt><trkpt lat="45.35516331859911" lon="8.453069412496898"><ele>125.0</ele><time>2026-04-06T08:55:08Z</time></trkpt><trkpt lat="45.35532918346769" lon="8.453167470595687"><ele>125.0</ele><time>2026-04-06T08:55:09Z</time></trkpt><trkpt lat="45.35550062334144" lon="8.453267706273685"><ele>124.33333333333333</ele><time>2026-04-06T08:55:10Z</time></trkpt><trkpt lat="45.35567917987901" lon="8.453368028238545"><ele>123.66666666666666</ele><time>2026-04-06T08:55:11Z</time></trkpt><trkpt lat="45.3558596352571" lon="8.453468452568805"><ele>123.0</ele><time>2026-04-06T08:55:12Z</time></trkpt><trkpt lat="45.35603701816037" lon="8.453569177863853"><ele>123.0</ele><time>2026-04-06T08:55:13Z</time></trkpt><trkpt lat="45.356205746815135" lon="8.453665757902348"><ele>123.0</ele><time>2026-04-06T08:55:14Z</time></trkpt><trkpt lat="45.3563768450306" lon="8.453765458308984"><ele>123.0</ele><time>2026-04-06T08:55:15Z</time></trkpt><trkpt lat="45.356554802884794" lon="8.453870261348154"><ele>123.0</ele><time>2026-04-06T08:55:16Z</time></trkpt><trkpt lat="45.356739720183526" lon="8.453980374112914"><ele>123.0</ele><time>2026-04-06T08:55:17Z</time></trkpt><trkpt lat="45.35692942361595" lon="8.454095123416513"><ele>123.0</ele><time>2026-04-06T08:55:18Z</time></trkpt><trkpt lat="45.35712454683186" lon="8.454212810087183"><ele>123.33333333333334</ele><time>2026-04-06T08:55:19Z</time></trkpt><trkpt lat="45.35732587801983" lon="8.4543351116556"><ele>123.66666666666667</ele><time>2026-04-06T08:55:20Z</time></trkpt><trkpt lat="45.357532619922736" lon="8.45445901042505"><ele>124.0</ele><time>2026-04-06T08:55:21Z</time></trkpt><trkpt lat="45.35774134156189" lon="8.454584691868442"><ele>124.5</ele><time>2026-04-06T08:55:22Z</time></trkpt><trkpt lat="45.35795410051667" lon="8.45471258695057"><ele>125.0</ele><time>2026-04-06T08:55:23Z</time></trkpt><trkpt lat="45.35816339246392" lon="8.454838638190491"><ele>125.0</ele><time>2026-04-06T08:55:24Z</time></trkpt><trkpt lat="45.35836965596683" lon="8.454963519109878"><ele>125.0</ele><time>2026-04-06T08:55:25Z</time></trkpt><trkpt lat="45.35857053562027" lon="8.455085588004726"><ele>125.0</ele><time>2026-04-06T08:55:26Z</time></trkpt><trkpt lat="45.358769863732356" lon="8.455208320171174"><ele>125.33333333333333</ele><time>2026-04-06T08:55:27Z</time></trkpt><trkpt lat="45.358967770992514" lon="8.45533156405421"><ele>125.66666666666666</ele><time>2026-04-06T08:55:28Z</time></trkpt><trkpt lat="45.35916603469294" lon="8.455453296498636"><ele>126.0</ele><time>2026-04-06T08:55:29Z</time></trkpt><trkpt lat="45.35936690660142" lon="8.455574152680606"><ele>126.0</ele><time>2026-04-06T08:55:30Z</time></trkpt><trkpt lat="45.35956707984544" lon="8.455692055332454"><ele>126.0</ele><time>2026-04-06T08:55:31Z</time></trkpt><trkpt lat="45.35976941676239" lon="8.455812586784399"><ele>126.0</ele><time>2026-04-06T08:55:32Z</time></trkpt><trkpt lat="45.35997642408206" lon="8.45593801021803"><ele>126.0</ele><time>2026-04-06T08:55:33Z</time></trkpt><trkpt lat="45.36018452378048" lon="8.456062588388233"><ele>126.0</ele><time>2026-04-06T08:55:34Z</time></trkpt><trkpt lat="45.36039571208208" lon="8.45619031007187"><ele>124.5</ele><time>2026-04-06T08:55:35Z</time></trkpt><trkpt lat="45.36060599722077" lon="8.456320539454213"><ele>123.0</ele><time>2026-04-06T08:55:36Z</time></trkpt><trkpt lat="45.36081566950035" lon="8.456455530367476"><ele>123.0</ele><time>2026-04-06T08:55:37Z</time></trkpt><trkpt lat="45.36102510222037" lon="8.45660297162158"><ele>123.0</ele><time>2026-04-06T08:55:38Z</time></trkpt><trkpt lat="45.36123057261456" lon="8.456763065950573"><ele>124.0</ele><time>2026-04-06T08:55:39Z</time></trkpt><trkpt lat="45.36143323557698" lon="8.456932200532393"><ele>125.0</ele><time>2026-04-06T08:55:40Z</time></trkpt><trkpt lat="45.3616297037198" lon="8.457112388717361"><ele>125.0</ele><time>2026-04-06T08:55:41Z</time></trkpt><trkpt lat="45.36182206545979" lon="8.457299124616211"><ele>125.0</ele><time>2026-04-06T08:55:42Z</time></trkpt><trkpt lat="45.36200897732884" lon="8.457492497281947"><ele>125.0</ele><time>2026-04-06T08:55:43Z</time></trkpt><trkpt lat="45.36218958890125" lon="8.457690167768678"><ele>125.0</ele><time>2026-04-06T08:55:44Z</time></trkpt><trkpt lat="45.36236600024281" lon="8.45789561545758"><ele>125.66666666666666</ele><time>2026-04-06T08:55:45Z</time></trkpt><trkpt lat="45.3625355103009" lon="8.45810466389136"><ele>126.33333333333334</ele><time>2026-04-06T08:55:46Z</time></trkpt><trkpt lat="45.36269923777309" lon="8.458323420967421"><ele>127.0</ele><time>2026-04-06T08:55:47Z</time></trkpt><trkpt lat="45.362859012947446" lon="8.458551143615733"><ele>127.0</ele><time>2026-04-06T08:55:48Z</time></trkpt><trkpt lat="45.36301399380518" lon="8.458786766444694"><ele>127.0</ele><time>2026-04-06T08:55:49Z</time></trkpt><trkpt lat="45.36316334229324" lon="8.459028082331447"><ele>127.0</ele><time>2026-04-06T08:55:50Z</time></trkpt><trkpt lat="45.36331806576472" lon="8.459257811580946"><ele>127.0</ele><time>2026-04-06T08:55:51Z</time></trkpt><trkpt lat="45.36344018520841" lon="8.459510348341311"><ele>127.0</ele><time>2026-04-06T08:55:52Z</time></trkpt><trkpt lat="45.36356374029949" lon="8.459748776127183"><ele>127.33333333333334</ele><time>2026-04-06T08:55:53Z</time></trkpt><trkpt lat="45.363679985587865" lon="8.459991138849906"><ele>127.66666666666666</ele><time>2026-04-06T08:55:54Z</time></trkpt><trkpt lat="45.36379322130991" lon="8.460238122518122"><ele>128.0</ele><time>2026-04-06T08:55:55Z</time></trkpt><trkpt lat="45.363898599562354" lon="8.460481952080718"><ele>127.0</ele><time>2026-04-06T08:55:56Z</time></trkpt><trkpt lat="45.36400102805952" lon="8.460734017089626"><ele>126.0</ele><time>2026-04-06T08:55:57Z</time></trkpt><trkpt lat="45.364098953655414" lon="8.46100122223839"><ele>125.0</ele><time>2026-04-06T08:55:58Z</time></trkpt><trkpt lat="45.36419545340673" lon="8.461280452848715"><ele>125.0</ele><time>2026-04-06T08:55:59Z</time></trkpt><trkpt lat="45.36428909042254" lon="8.461572618258737"><ele>125.0</ele><time>2026-04-06T08:56:00Z</time></trkpt><trkpt lat="45.36437990724795" lon="8.461879700546865"><ele>125.0</ele><time>2026-04-06T08:56:01Z</time></trkpt><trkpt lat="45.36446281432423" lon="8.462192794677568"><ele>125.0</ele><time>2026-04-06T08:56:02Z</time></trkpt><trkpt lat="45.36453688422914" lon="8.462499861743469"><ele>125.0</ele><time>2026-04-06T08:56:03Z</time></trkpt><trkpt lat="45.36460191540411" lon="8.462810335144347"><ele>125.0</ele><time>2026-04-06T08:56:04Z</time></trkpt><trkpt lat="45.36465863734833" lon="8.463124112101372"><ele>125.0</ele><time>2026-04-06T08:56:05Z</time></trkpt><trkpt lat="45.36471006923636" lon="8.463437523173829"><ele>125.0</ele><time>2026-04-06T08:56:06Z</time></trkpt><trkpt lat="45.364754283521314" lon="8.463748184411422"><ele>125.0</ele><time>2026-04-06T08:56:07Z</time></trkpt><trkpt lat="45.364793097942446" lon="8.464061886023032"><ele>125.0</ele><time>2026-04-06T08:56:07.999Z</time></trkpt><trkpt lat="45.36482509797639" lon="8.464380729339696"><ele>125.0</ele><time>2026-04-06T08:56:08.999Z</time></trkpt><trkpt lat="45.36484944342793" lon="8.464705670026778"><ele>125.0</ele><time>2026-04-06T08:56:09.999Z</time></trkpt><trkpt lat="45.36486592267788" lon="8.465032634788471"><ele>125.0</ele><time>2026-04-06T08:56:10.999Z</time></trkpt><trkpt lat="45.36487668725909" lon="8.465358896204698"><ele>126.0</ele><time>2026-04-06T08:56:11.999Z</time></trkpt><trkpt lat="45.36487843300102" lon="8.465688493198028"><ele>127.0</ele><time>2026-04-06T08:56:12.999Z</time></trkpt><trkpt lat="45.36487382580938" lon="8.466015719930963"><ele>127.5</ele><time>2026-04-06T08:56:13.999Z</time></trkpt><trkpt lat="45.36486319437648" lon="8.466342027831635"><ele>128.0</ele><time>2026-04-06T08:56:14.999Z</time></trkpt><trkpt lat="45.364842669596314" lon="8.466668326804225"><ele>128.0</ele><time>2026-04-06T08:56:15.999Z</time></trkpt><trkpt lat="45.36481622484375" lon="8.466992616548328"><ele>128.0</ele><time>2026-04-06T08:56:16.999Z</time></trkpt><trkpt lat="45.364780852901674" lon="8.467313441609683"><ele>128.5</ele><time>2026-04-06T08:56:17.999Z</time></trkpt><trkpt lat="45.364738844246475" lon="8.467634141051493"><ele>129.0</ele><time>2026-04-06T08:56:18.999Z</time></trkpt><trkpt lat="45.36468925405677" lon="8.467951892307667"><ele>127.0</ele><time>2026-04-06T08:56:19.999Z</time></trkpt><trkpt lat="45.364635508553626" lon="8.468267312649125"><ele>125.0</ele><time>2026-04-06T08:56:20.999Z</time></trkpt><trkpt lat="45.36457640580639" lon="8.468582315887158"><ele>125.0</ele><time>2026-04-06T08:56:21.999Z</time></trkpt><trkpt lat="45.364516053501305" lon="8.468893322662815"><ele>125.0</ele><time>2026-04-06T08:56:22.999Z</time></trkpt><trkpt lat="45.364454208256184" lon="8.469205996003337"><ele>125.0</ele><time>2026-04-06T08:56:23.999Z</time></trkpt><trkpt lat="45.36439379793635" lon="8.469519929609385"><ele>125.0</ele><time>2026-04-06T08:56:24.999Z</time></trkpt><trkpt lat="45.364336566488085" lon="8.469831275536182"><ele>125.0</ele><time>2026-04-06T08:56:25.999Z</time></trkpt><trkpt lat="45.36427716425312" lon="8.470142577861745"><ele>125.0</ele><time>2026-04-06T08:56:26.999Z</time></trkpt><trkpt lat="45.36421893903128" lon="8.47045691018517"><ele>126.5</ele><time>2026-04-06T08:56:27.999Z</time></trkpt><trkpt lat="45.36416001527988" lon="8.470770665742112"><ele>128.0</ele><time>2026-04-06T08:56:28.999Z</time></trkpt><trkpt lat="45.364101286836856" lon="8.471083301062253"><ele>127.33333333333333</ele><time>2026-04-06T08:56:29.999Z</time></trkpt><trkpt lat="45.36404195798573" lon="8.471392254057411"><ele>126.66666666666666</ele><time>2026-04-06T08:56:30.999Z</time></trkpt><trkpt lat="45.36398618612305" lon="8.47169648304748"><ele>126.0</ele><time>2026-04-06T08:56:31.999Z</time></trkpt><trkpt lat="45.36393280406014" lon="8.472002118969902"><ele>126.0</ele><time>2026-04-06T08:56:32.999Z</time></trkpt><trkpt lat="45.363882241857794" lon="8.472309744641265"><ele>126.0</ele><time>2026-04-06T08:56:33.999Z</time></trkpt><trkpt lat="45.36383711094568" lon="8.472624345976541"><ele>126.0</ele><time>2026-04-06T08:56:34.999Z</time></trkpt><trkpt lat="45.36380018771612" lon="8.472950988910156"><ele>126.0</ele><time>2026-04-06T08:56:35.999Z</time></trkpt><trkpt lat="45.363771966835515" lon="8.4732812144724"><ele>126.0</ele><time>2026-04-06T08:56:36.999Z</time></trkpt><trkpt lat="45.36375202643728" lon="8.473610037531012"><ele>126.0</ele><time>2026-04-06T08:56:37.999Z</time></trkpt><trkpt lat="45.3637390260237" lon="8.473936797039773"><ele>126.0</ele><time>2026-04-06T08:56:38.999Z</time></trkpt><trkpt lat="45.36373184538865" lon="8.474263599369202"><ele>126.0</ele><time>2026-04-06T08:56:39.999Z</time></trkpt><trkpt lat="45.363731280761165" lon="8.474591652721887"><ele>126.0</ele><time>2026-04-06T08:56:40.999Z</time></trkpt><trkpt lat="45.363739360214296" lon="8.47491629865075"><ele>126.0</ele><time>2026-04-06T08:56:41.999Z</time></trkpt><trkpt lat="45.36373146499464" lon="8.475237723694425"><ele>126.0</ele><time>2026-04-06T08:56:42.999Z</time></trkpt><trkpt lat="45.363783080522445" lon="8.475561320414199"><ele>126.0</ele><time>2026-04-06T08:56:43.999Z</time></trkpt><trkpt lat="45.36381368185092" lon="8.475882408532973"><ele>126.0</ele><time>2026-04-06T08:56:44.999Z</time></trkpt><trkpt lat="45.363847931589746" lon="8.476200207288029"><ele>126.5</ele><time>2026-04-06T08:56:45.999Z</time></trkpt><trkpt lat="45.36388908281843" lon="8.476517183193964"><ele>127.0</ele><time>2026-04-06T08:56:46.999Z</time></trkpt><trkpt lat="45.36393639854984" lon="8.476829252660455"><ele>126.66666666666667</ele><time>2026-04-06T08:56:47.999Z</time></trkpt><trkpt lat="45.363992852316606" lon="8.477137309958515"><ele>126.33333333333334</ele><time>2026-04-06T08:56:48.999Z</time></trkpt><trkpt lat="45.36405681201392" lon="8.47744323441487"><ele>126.0</ele><time>2026-04-06T08:56:50Z</time></trkpt><trkpt lat="45.364126420659034" lon="8.477749386336686"><ele>125.5</ele><time>2026-04-06T08:56:51Z</time></trkpt><trkpt lat="45.36420842420687" lon="8.478056771315263"><ele>125.0</ele><time>2026-04-06T08:56:52Z</time></trkpt><trkpt lat="45.364288586584216" lon="8.478357005339923"><ele>125.0</ele><time>2026-04-06T08:56:53Z</time></trkpt><trkpt lat="45.364382334641434" lon="8.478651781873639"><ele>125.0</ele><time>2026-04-06T08:56:54Z</time></trkpt><trkpt lat="45.36447911200739" lon="8.478945849528722"><ele>125.0</ele><time>2026-04-06T08:56:55Z</time></trkpt><trkpt lat="45.364582167282535" lon="8.479230542837826"><ele>125.0</ele><time>2026-04-06T08:56:56Z</time></trkpt><trkpt lat="45.364691942446846" lon="8.479511776152911"><ele>125.5</ele><time>2026-04-06T08:56:57Z</time></trkpt><trkpt lat="45.36481057832912" lon="8.479786018457222"><ele>126.0</ele><time>2026-04-06T08:56:58Z</time></trkpt><trkpt lat="45.364934669494815" lon="8.480058193529816"><ele>126.0</ele><time>2026-04-06T08:56:59Z</time></trkpt><trkpt lat="45.36506131508231" lon="8.480323692920223"><ele>126.0</ele><time>2026-04-06T08:57:00Z</time></trkpt><trkpt lat="45.365197057464" lon="8.480579374094063"><ele>126.0</ele><time>2026-04-06T08:57:01Z</time></trkpt><trkpt lat="45.365338273848955" lon="8.480830823639726"><ele>126.0</ele><time>2026-04-06T08:57:02Z</time></trkpt><trkpt lat="45.36548363961911" lon="8.481074566832993"><ele>126.0</ele><time>2026-04-06T08:57:03Z</time></trkpt><trkpt lat="45.36563324466441" lon="8.48130993387549"><ele>126.0</ele><time>2026-04-06T08:57:04Z</time></trkpt><trkpt lat="45.36579083073431" lon="8.481540949348219"><ele>126.0</ele><time>2026-04-06T08:57:05Z</time></trkpt><trkpt lat="45.3659548098139" lon="8.481766609761843"><ele>126.0</ele><time>2026-04-06T08:57:06Z</time></trkpt><trkpt lat="45.36612125853" lon="8.481987347343244"><ele>126.0</ele><time>2026-04-06T08:57:07Z</time></trkpt><trkpt lat="45.36629188436947" lon="8.482205142772894"><ele>127.5</ele><time>2026-04-06T08:57:08Z</time></trkpt><trkpt lat="45.36646324413721" lon="8.482419966467145"><ele>129.0</ele><time>2026-04-06T08:57:09Z</time></trkpt><trkpt lat="45.36663465118167" lon="8.48264222169207"><ele>129.0</ele><time>2026-04-06T08:57:10Z</time></trkpt><trkpt lat="45.36680522814287" lon="8.482860851733983"><ele>129.0</ele><time>2026-04-06T08:57:11Z</time></trkpt><trkpt lat="45.36697834047971" lon="8.48308397786686"><ele>128.0</ele><time>2026-04-06T08:57:12Z</time></trkpt><trkpt lat="45.36715062461578" lon="8.48330580003007"><ele>127.0</ele><time>2026-04-06T08:57:13Z</time></trkpt><trkpt lat="45.36732467110557" lon="8.483524186245175"><ele>127.0</ele><time>2026-04-06T08:57:14Z</time></trkpt><trkpt lat="45.36749885323317" lon="8.483743573438003"><ele>127.0</ele><time>2026-04-06T08:57:15Z</time></trkpt><trkpt lat="45.3676708475315" lon="8.483963890305596"><ele>127.0</ele><time>2026-04-06T08:57:16Z</time></trkpt><trkpt lat="45.36784109611196" lon="8.484184381693076"><ele>127.0</ele><time>2026-04-06T08:57:17Z</time></trkpt><trkpt lat="45.368009532289186" lon="8.484399184474217"><ele>126.5</ele><time>2026-04-06T08:57:18Z</time></trkpt><trkpt lat="45.36817780284777" lon="8.484611893235968"><ele>126.0</ele><time>2026-04-06T08:57:19Z</time></trkpt><trkpt lat="45.36834963225078" lon="8.484827417882407"><ele>126.0</ele><time>2026-04-06T08:57:20Z</time></trkpt><trkpt lat="45.36852357165655" lon="8.485044514228367"><ele>126.0</ele><time>2026-04-06T08:57:21Z</time></trkpt><trkpt lat="45.36869967132586" lon="8.485249459657734"><ele>127.0</ele><time>2026-04-06T08:57:22Z</time></trkpt><trkpt lat="45.368882118310566" lon="8.485437332032392"><ele>128.0</ele><time>2026-04-06T08:57:23Z</time></trkpt><trkpt lat="45.369071751184954" lon="8.48560720145079"><ele>129.0</ele><time>2026-04-06T08:57:24Z</time></trkpt><trkpt lat="45.3692713057837" lon="8.485749650946483"><ele>129.0</ele><time>2026-04-06T08:57:25Z</time></trkpt><trkpt lat="45.369473077118876" lon="8.485898460607874"><ele>129.0</ele><time>2026-04-06T08:57:26Z</time></trkpt><trkpt lat="45.36967002035238" lon="8.48605307745073"><ele>129.0</ele><time>2026-04-06T08:57:27Z</time></trkpt><trkpt lat="45.36987440589805" lon="8.486257994396194"><ele>129.0</ele><time>2026-04-06T08:57:28Z</time></trkpt><trkpt lat="45.37006679022805" lon="8.486413135713748"><ele>129.0</ele><time>2026-04-06T08:57:29Z</time></trkpt><trkpt lat="45.37025252478684" lon="8.486603471927195"><ele>129.0</ele><time>2026-04-06T08:57:30Z</time></trkpt><trkpt lat="45.37043690762771" lon="8.486778261587613"><ele>129.66666666666666</ele><time>2026-04-06T08:57:31Z</time></trkpt><trkpt lat="45.37062256233809" lon="8.486949649242078"><ele>130.33333333333331</ele><time>2026-04-06T08:57:32Z</time></trkpt><trkpt lat="45.370806460773096" lon="8.487117663319184"><ele>131.0</ele><time>2026-04-06T08:57:33Z</time></trkpt><trkpt lat="45.370993274474685" lon="8.48728635458741"><ele>131.0</ele><time>2026-04-06T08:57:34Z</time></trkpt><trkpt lat="45.37117963448602" lon="8.487453345693185"><ele>131.0</ele><time>2026-04-06T08:57:35Z</time></trkpt><trkpt lat="45.37136825940193" lon="8.487620501742976"><ele>131.0</ele><time>2026-04-06T08:57:36Z</time></trkpt><trkpt lat="45.371556606547884" lon="8.487787611836811"><ele>131.0</ele><time>2026-04-06T08:57:37Z</time></trkpt><trkpt lat="45.37174904551554" lon="8.48795526476001"><ele>131.0</ele><time>2026-04-06T08:57:38Z</time></trkpt><trkpt lat="45.3719450529047" lon="8.488133215416042"><ele>131.0</ele><time>2026-04-06T08:57:39Z</time></trkpt><trkpt lat="45.372137175760955" lon="8.488304680212968"><ele>131.0</ele><time>2026-04-06T08:57:40Z</time></trkpt><trkpt lat="45.37232994288879" lon="8.488476471983407"><ele>129.5</ele><time>2026-04-06T08:57:41Z</time></trkpt><trkpt lat="45.37252035677723" lon="8.488655013185713"><ele>128.0</ele><time>2026-04-06T08:57:42Z</time></trkpt><trkpt lat="45.37270962367631" lon="8.488831752627615"><ele>128.0</ele><time>2026-04-06T08:57:43Z</time></trkpt><trkpt lat="45.37289954932576" lon="8.48900641062703"><ele>128.0</ele><time>2026-04-06T08:57:44Z</time></trkpt><trkpt lat="45.37308798099692" lon="8.489172123915766"><ele>128.0</ele><time>2026-04-06T08:57:45Z</time></trkpt><trkpt lat="45.37327633239644" lon="8.489338792424862"><ele>128.33333333333331</ele><time>2026-04-06T08:57:46Z</time></trkpt><trkpt lat="45.37346153925532" lon="8.489514297282126"><ele>128.66666666666666</ele><time>2026-04-06T08:57:47Z</time></trkpt><trkpt lat="45.3736432004781" lon="8.489687142177134"><ele>129.0</ele><time>2026-04-06T08:57:48Z</time></trkpt><trkpt lat="45.37381879244892" lon="8.489853995875674"><ele>128.66666666666666</ele><time>2026-04-06T08:57:49Z</time></trkpt><trkpt lat="45.373989488043954" lon="8.490017706641506"><ele>128.33333333333331</ele><time>2026-04-06T08:57:50Z</time></trkpt><trkpt lat="45.37415564491329" lon="8.490177322376576"><ele>128.0</ele><time>2026-04-06T08:57:51Z</time></trkpt><trkpt lat="45.37431660078613" lon="8.490329078910076"><ele>128.0</ele><time>2026-04-06T08:57:52Z</time></trkpt><trkpt lat="45.37447330404777" lon="8.49047779732941"><ele>128.0</ele><time>2026-04-06T08:57:53Z</time></trkpt><trkpt lat="45.374633006959854" lon="8.49063395178833"><ele>128.0</ele><time>2026-04-06T08:57:54Z</time></trkpt><trkpt lat="45.3747951828018" lon="8.490790244231224"><ele>128.33333333333331</ele><time>2026-04-06T08:57:55Z</time></trkpt><trkpt lat="45.37495677810862" lon="8.490944979074065"><ele>128.66666666666666</ele><time>2026-04-06T08:57:56Z</time></trkpt><trkpt lat="45.375117376462754" lon="8.491100428189887"><ele>129.0</ele><time>2026-04-06T08:57:57Z</time></trkpt><trkpt lat="45.37527638372037" lon="8.491253364107557"><ele>129.33333333333334</ele><time>2026-04-06T08:57:58Z</time></trkpt><trkpt lat="45.37543290272005" lon="8.491406628025286"><ele>129.66666666666669</ele><time>2026-04-06T08:57:59Z</time></trkpt><trkpt lat="45.375594913038704" lon="8.491564556569942"><ele>130.0</ele><time>2026-04-06T08:58:00Z</time></trkpt><trkpt lat="45.375762617915946" lon="8.49172681986447"><ele>130.0</ele><time>2026-04-06T08:58:01Z</time></trkpt><trkpt lat="45.37593450352634" lon="8.491892582733653"><ele>130.0</ele><time>2026-04-06T08:58:02Z</time></trkpt><trkpt lat="45.37610225969838" lon="8.492054575227593"><ele>130.0</ele><time>2026-04-06T08:58:03Z</time></trkpt><trkpt lat="45.3762663926203" lon="8.492212082364215"><ele>129.66666666666669</ele><time>2026-04-06T08:58:04Z</time></trkpt><trkpt lat="45.37642105459703" lon="8.492360097502141"><ele>129.33333333333334</ele><time>2026-04-06T08:58:05Z</time></trkpt><trkpt lat="45.3765676805215" lon="8.492501664449899"><ele>129.0</ele><time>2026-04-06T08:58:06Z</time></trkpt><trkpt lat="45.37671469688755" lon="8.492644386132685"><ele>129.0</ele><time>2026-04-06T08:58:07Z</time></trkpt><trkpt lat="45.37686755928992" lon="8.492792942498149"><ele>129.0</ele><time>2026-04-06T08:58:08Z</time></trkpt><trkpt lat="45.37702106204316" lon="8.492940234291428"><ele>129.0</ele><time>2026-04-06T08:58:09Z</time></trkpt><trkpt lat="45.37716179145514" lon="8.493075430447979"><ele>129.66666666666666</ele><time>2026-04-06T08:58:10Z</time></trkpt><trkpt lat="45.377305034918386" lon="8.493212115817792"><ele>130.33333333333331</ele><time>2026-04-06T08:58:11Z</time></trkpt><trkpt lat="45.377449120189404" lon="8.493351064327175"><ele>131.0</ele><time>2026-04-06T08:58:12Z</time></trkpt><trkpt lat="45.37759349645779" lon="8.493489156352632"><ele>131.0</ele><time>2026-04-06T08:58:13Z</time></trkpt><trkpt lat="45.3777415883003" lon="8.493628593110607"><ele>131.0</ele><time>2026-04-06T08:58:14Z</time></trkpt><trkpt lat="45.37788832745139" lon="8.493768596295281"><ele>131.0</ele><time>2026-04-06T08:58:15Z</time></trkpt><trkpt lat="45.37803896810779" lon="8.49391378726065"><ele>131.0</ele><time>2026-04-06T08:58:16Z</time></trkpt><trkpt lat="45.37819346614697" lon="8.494062769757564"><ele>131.0</ele><time>2026-04-06T08:58:17Z</time></trkpt><trkpt lat="45.378347557488354" lon="8.494213394170501"><ele>131.0</ele><time>2026-04-06T08:58:18Z</time></trkpt><trkpt lat="45.378503913521996" lon="8.494364827586814"><ele>131.0</ele><time>2026-04-06T08:58:19Z</time></trkpt><trkpt lat="45.37866191870852" lon="8.49451689130449"><ele>131.0</ele><time>2026-04-06T08:58:19.999Z</time></trkpt><trkpt lat="45.37882114156871" lon="8.494672186693936"><ele>131.0</ele><time>2026-04-06T08:58:20.999Z</time></trkpt><trkpt lat="45.37897542217304" lon="8.494820633102917"><ele>131.33333333333331</ele><time>2026-04-06T08:58:21.999Z</time></trkpt><trkpt lat="45.379125739648494" lon="8.494966952411312"><ele>131.66666666666666</ele><time>2026-04-06T08:58:22.999Z</time></trkpt><trkpt lat="45.37927934278451" lon="8.495115174108252"><ele>132.0</ele><time>2026-04-06T08:58:23.999Z</time></trkpt><trkpt lat="45.37943254589221" lon="8.495263163679525"><ele>132.0</ele><time>2026-04-06T08:58:24.999Z</time></trkpt><trkpt lat="45.37958499476626" lon="8.495409074684648"><ele>132.0</ele><time>2026-04-06T08:58:25.999Z</time></trkpt><trkpt lat="45.37973599037381" lon="8.495553853215876"><ele>132.0</ele><time>2026-04-06T08:58:26.999Z</time></trkpt><trkpt lat="45.37988350423443" lon="8.495698218946863"><ele>131.66666666666666</ele><time>2026-04-06T08:58:27.999Z</time></trkpt><trkpt lat="45.38002251184858" lon="8.495833195733526"><ele>131.33333333333331</ele><time>2026-04-06T08:58:28.999Z</time></trkpt><trkpt lat="45.38016269525277" lon="8.495968443915674"><ele>131.0</ele><time>2026-04-06T08:58:29.999Z</time></trkpt><trkpt lat="45.38030273601418" lon="8.496102228914761"><ele>131.0</ele><time>2026-04-06T08:58:30.999Z</time></trkpt><trkpt lat="45.38044662213047" lon="8.496240060633813"><ele>131.0</ele><time>2026-04-06T08:58:31.999Z</time></trkpt><trkpt lat="45.380580727886276" lon="8.496369324873907"><ele>131.0</ele><time>2026-04-06T08:58:32.999Z</time></trkpt><trkpt lat="45.38070932148694" lon="8.496490543549317"><ele>131.25</ele><time>2026-04-06T08:58:33.999Z</time></trkpt><trkpt lat="45.38083161855656" lon="8.496607056034422"><ele>131.5</ele><time>2026-04-06T08:58:34.999Z</time></trkpt><trkpt lat="45.3809481599599" lon="8.496719837488262"><ele>131.75</ele><time>2026-04-06T08:58:35.999Z</time></trkpt><trkpt lat="45.381068488715556" lon="8.496838685446582"><ele>132.0</ele><time>2026-04-06T08:58:36.999Z</time></trkpt><trkpt lat="45.381198960783074" lon="8.496963325278456"><ele>132.0</ele><time>2026-04-06T08:58:37.999Z</time></trkpt><trkpt lat="45.38133383767216" lon="8.497091052272463"><ele>132.0</ele><time>2026-04-06T08:58:38.999Z</time></trkpt><trkpt lat="45.38146357312015" lon="8.497212293241377"><ele>132.0</ele><time>2026-04-06T08:58:39.999Z</time></trkpt><trkpt lat="45.38158744141993" lon="8.497327758418646"><ele>132.0</ele><time>2026-04-06T08:58:40.999Z</time></trkpt><trkpt lat="45.38170563480383" lon="8.497433775534681"><ele>132.0</ele><time>2026-04-06T08:58:41.999Z</time></trkpt><trkpt lat="45.381813530557906" lon="8.497535004763034"><ele>132.0</ele><time>2026-04-06T08:58:42.999Z</time></trkpt><trkpt lat="45.381919092623356" lon="8.49763533103174"><ele>132.0</ele><time>2026-04-06T08:58:43.999Z</time></trkpt><trkpt lat="45.38202600756073" lon="8.497736609777474"><ele>132.0</ele><time>2026-04-06T08:58:44.999Z</time></trkpt><trkpt lat="45.382133789888776" lon="8.497839437725514"><ele>132.0</ele><time>2026-04-06T08:58:45.999Z</time></trkpt><trkpt lat="45.382243638015865" lon="8.497943778026963"><ele>132.0</ele><time>2026-04-06T08:58:46.999Z</time></trkpt><trkpt lat="45.38235572649319" lon="8.498048633808805"><ele>132.0</ele><time>2026-04-06T08:58:47.999Z</time></trkpt><trkpt lat="45.3824722288549" lon="8.498153712319468"><ele>132.0</ele><time>2026-04-06T08:58:48.999Z</time></trkpt><trkpt lat="45.38259621228918" lon="8.4982598400747"><ele>132.0</ele><time>2026-04-06T08:58:49.999Z</time></trkpt><trkpt lat="45.382726215981194" lon="8.498364444314225"><ele>132.0</ele><time>2026-04-06T08:58:50.999Z</time></trkpt><trkpt lat="45.38285455773708" lon="8.498462129864834"><ele>132.0</ele><time>2026-04-06T08:58:51.999Z</time></trkpt><trkpt lat="45.38298244759745" lon="8.498555971142888"><ele>132.0</ele><time>2026-04-06T08:58:52.999Z</time></trkpt><trkpt lat="45.38311081921953" lon="8.498646688343218"><ele>132.0</ele><time>2026-04-06T08:58:53.999Z</time></trkpt><trkpt lat="45.383238009936626" lon="8.498736091401272"><ele>132.0</ele><time>2026-04-06T08:58:54.999Z</time></trkpt><trkpt lat="45.383368097926144" lon="8.498829182260009"><ele>132.0</ele><time>2026-04-06T08:58:56Z</time></trkpt><trkpt lat="45.38350076246406" lon="8.498926051092665"><ele>132.0</ele><time>2026-04-06T08:58:57Z</time></trkpt><trkpt lat="45.383636988090984" lon="8.49902436185445"><ele>132.0</ele><time>2026-04-06T08:58:58Z</time></trkpt><trkpt lat="45.383777124997636" lon="8.499124434892014"><ele>132.0</ele><time>2026-04-06T08:58:59Z</time></trkpt><trkpt lat="45.38392093709426" lon="8.499229181116814"><ele>132.0</ele><time>2026-04-06T08:59:00Z</time></trkpt><trkpt lat="45.38406390896841" lon="8.499333293609228"><ele>132.0</ele><time>2026-04-06T08:59:01Z</time></trkpt><trkpt lat="45.384206513673796" lon="8.49943633307204"><ele>132.0</ele><time>2026-04-06T08:59:02Z</time></trkpt><trkpt lat="45.38434773071716" lon="8.499538772757289"><ele>132.0</ele><time>2026-04-06T08:59:03Z</time></trkpt><trkpt lat="45.38448589433529" lon="8.499638603285085"><ele>132.0</ele><time>2026-04-06T08:59:04Z</time></trkpt><trkpt lat="45.38462048834952" lon="8.499736192115165"><ele>132.0</ele><time>2026-04-06T08:59:05Z</time></trkpt><trkpt lat="45.38475377570808" lon="8.499832618376566"><ele>132.0</ele><time>2026-04-06T08:59:06Z</time></trkpt><trkpt lat="45.384887210920866" lon="8.499929415700182"><ele>132.0</ele><time>2026-04-06T08:59:07Z</time></trkpt><trkpt lat="45.385022222330605" lon="8.500026649781105"><ele>132.0</ele><time>2026-04-06T08:59:08Z</time></trkpt><trkpt lat="45.38515407124344" lon="8.500120441458336"><ele>132.0</ele><time>2026-04-06T08:59:09Z</time></trkpt><trkpt lat="45.38528609657884" lon="8.500216174813275"><ele>132.0</ele><time>2026-04-06T08:59:10Z</time></trkpt><trkpt lat="45.38541694845385" lon="8.500311513999165"><ele>132.0</ele><time>2026-04-06T08:59:11Z</time></trkpt><trkpt lat="45.38554987279808" lon="8.500407810675355"><ele>132.0</ele><time>2026-04-06T08:59:12Z</time></trkpt><trkpt lat="45.38567967784103" lon="8.500502119564151"><ele>132.0</ele><time>2026-04-06T08:59:13Z</time></trkpt><trkpt lat="45.385801026891585" lon="8.500589628683539"><ele>132.25</ele><time>2026-04-06T08:59:14Z</time></trkpt><trkpt lat="45.38591639809657" lon="8.500670911238489"><ele>132.5</ele><time>2026-04-06T08:59:15Z</time></trkpt><trkpt lat="45.38602654683346" lon="8.500748928022489"><ele>132.75</ele><time>2026-04-06T08:59:16Z</time></trkpt><trkpt lat="45.38613215041812" lon="8.500824151183165"><ele>133.0</ele><time>2026-04-06T08:59:17Z</time></trkpt><trkpt lat="45.38624023151047" lon="8.500902954003385"><ele>133.0</ele><time>2026-04-06T08:59:18Z</time></trkpt><trkpt lat="45.38634733703426" lon="8.500982158013016"><ele>133.0</ele><time>2026-04-06T08:59:19Z</time></trkpt><trkpt lat="45.386451802259906" lon="8.501063896611434"><ele>133.0</ele><time>2026-04-06T08:59:20Z</time></trkpt><trkpt lat="45.38655594630813" lon="8.501149355123056"><ele>133.0</ele><time>2026-04-06T08:59:21Z</time></trkpt><trkpt lat="45.38665738639409" lon="8.501241830489063"><ele>132.75</ele><time>2026-04-06T08:59:22Z</time></trkpt><trkpt lat="45.38675407288998" lon="8.501349120151213"><ele>132.5</ele><time>2026-04-06T08:59:23Z</time></trkpt><trkpt lat="45.386853280810335" lon="8.501463684012117"><ele>132.25</ele><time>2026-04-06T08:59:24Z</time></trkpt><trkpt lat="45.38695756121148" lon="8.50157907074433"><ele>132.0</ele><time>2026-04-06T08:59:25Z</time></trkpt><trkpt lat="45.387065722359125" lon="8.501696835116263"><ele>132.0</ele><time>2026-04-06T08:59:26Z</time></trkpt><trkpt lat="45.38717500069247" lon="8.501815371723394"><ele>132.0</ele><time>2026-04-06T08:59:27Z</time></trkpt><trkpt lat="45.3872868687405" lon="8.501934564361614"><ele>132.0</ele><time>2026-04-06T08:59:28Z</time></trkpt><trkpt lat="45.3874009343783" lon="8.502055484155264"><ele>132.0</ele><time>2026-04-06T08:59:29Z</time></trkpt><trkpt lat="45.38751465320462" lon="8.502177264894483"><ele>132.75</ele><time>2026-04-06T08:59:30Z</time></trkpt><trkpt lat="45.3876284350928" lon="8.502301004624478"><ele>133.5</ele><time>2026-04-06T08:59:31Z</time></trkpt><trkpt lat="45.38774310292089" lon="8.502424382282852"><ele>134.25</ele><time>2026-04-06T08:59:32Z</time></trkpt><trkpt lat="45.387853726962106" lon="8.502543918341853"><ele>135.0</ele><time>2026-04-06T08:59:33Z</time></trkpt><trkpt lat="45.38796234649956" lon="8.502663811916856"><ele>135.25</ele><time>2026-04-06T08:59:34Z</time></trkpt><trkpt lat="45.38806791824144" lon="8.502777345131712"><ele>135.5</ele><time>2026-04-06T08:59:35Z</time></trkpt><trkpt lat="45.388167975335726" lon="8.502880177874635"><ele>135.75</ele><time>2026-04-06T08:59:36Z</time></trkpt><trkpt lat="45.388273662082504" lon="8.502977805263711"><ele>136.0</ele><time>2026-04-06T08:59:37Z</time></trkpt><trkpt lat="45.38838517841368" lon="8.503053346996598"><ele>136.25</ele><time>2026-04-06T08:59:38Z</time></trkpt><trkpt lat="45.38849962654096" lon="8.503111025746449"><ele>136.5</ele><time>2026-04-06T08:59:39Z</time></trkpt><trkpt lat="45.388613929132845" lon="8.503151717346018"><ele>136.75</ele><time>2026-04-06T08:59:40Z</time></trkpt><trkpt lat="45.38872554456098" lon="8.503192444598884"><ele>137.0</ele><time>2026-04-06T08:59:41Z</time></trkpt><trkpt lat="45.38883435757517" lon="8.503238950111152"><ele>137.25</ele><time>2026-04-06T08:59:42Z</time></trkpt><trkpt lat="45.388944500729366" lon="8.503295622548306"><ele>137.5</ele><time>2026-04-06T08:59:43Z</time></trkpt><trkpt lat="45.389053184525864" lon="8.50335614404075"><ele>137.75</ele><time>2026-04-06T08:59:44Z</time></trkpt><trkpt lat="45.38915841645307" lon="8.503413407028214"><ele>138.0</ele><time>2026-04-06T08:59:45Z</time></trkpt><trkpt lat="45.389258797604086" lon="8.503464796709789"><ele>138.0</ele><time>2026-04-06T08:59:46Z</time></trkpt><trkpt lat="45.38935763873168" lon="8.503514542958884"><ele>138.0</ele><time>2026-04-06T08:59:47Z</time></trkpt><trkpt lat="45.3894497201959" lon="8.503567510872749"><ele>138.0</ele><time>2026-04-06T08:59:48Z</time></trkpt><trkpt lat="45.38953785447051" lon="8.503639968443624"><ele>138.0</ele><time>2026-04-06T08:59:49Z</time></trkpt><trkpt lat="45.38962194632541" lon="8.503739927803302"><ele>138.0</ele><time>2026-04-06T08:59:50Z</time></trkpt><trkpt lat="45.38969263323034" lon="8.503859880194154"><ele>137.25</ele><time>2026-04-06T08:59:51Z</time></trkpt><trkpt lat="45.38974668747595" lon="8.504004903685189"><ele>136.5</ele><time>2026-04-06T08:59:52Z</time></trkpt><trkpt lat="45.38979552108117" lon="8.504162739035884"><ele>135.75</ele><time>2026-04-06T08:59:53Z</time></trkpt><trkpt lat="45.38984965955315" lon="8.504327649164756"><ele>135.0</ele><time>2026-04-06T08:59:54Z</time></trkpt><trkpt lat="45.38990847162962" lon="8.504496419893329"><ele>135.0</ele><time>2026-04-06T08:59:55Z</time></trkpt><trkpt lat="45.38997128247449" lon="8.504668811082103"><ele>135.0</ele><time>2026-04-06T08:59:56Z</time></trkpt><trkpt lat="45.390038713599516" lon="8.504842578525793"><ele>135.0</ele><time>2026-04-06T08:59:57Z</time></trkpt><trkpt lat="45.39010690047193" lon="8.505014369679609"><ele>135.0</ele><time>2026-04-06T08:59:58Z</time></trkpt><trkpt lat="45.3901748547549" lon="8.505181596847857"><ele>135.0</ele><time>2026-04-06T08:59:59Z</time></trkpt><trkpt lat="45.39024365895042" lon="8.505347145789198"><ele>135.0</ele><time>2026-04-06T09:00:00Z</time></trkpt><trkpt lat="45.39031581658011" lon="8.505516826505906"><ele>135.0</ele><time>2026-04-06T09:00:01Z</time></trkpt><trkpt lat="45.39038946641787" lon="8.505685559676637"><ele>135.0</ele><time>2026-04-06T09:00:02Z</time></trkpt><trkpt lat="45.39046139228372" lon="8.505847742236574"><ele>134.75</ele><time>2026-04-06T09:00:03Z</time></trkpt><trkpt lat="45.390533518176255" lon="8.50600761920549"><ele>134.5</ele><time>2026-04-06T09:00:04Z</time></trkpt><trkpt lat="45.39060978472243" lon="8.506167193289361"><ele>134.25</ele><time>2026-04-06T09:00:05Z</time></trkpt><trkpt lat="45.390692532398724" lon="8.50632486897501"><ele>134.0</ele><time>2026-04-06T09:00:06Z</time></trkpt><trkpt lat="45.39077730400115" lon="8.506477119121477"><ele>134.0</ele><time>2026-04-06T09:00:07Z</time></trkpt><trkpt lat="45.39086671007053" lon="8.506631197023413"><ele>134.0</ele><time>2026-04-06T09:00:08Z</time></trkpt><trkpt lat="45.39095650391324" lon="8.506785906928961"><ele>134.0</ele><time>2026-04-06T09:00:09Z</time></trkpt><trkpt lat="45.39104689277071" lon="8.506940651896503"><ele>134.0</ele><time>2026-04-06T09:00:10Z</time></trkpt><trkpt lat="45.391142533834" lon="8.507104114200397"><ele>134.0</ele><time>2026-04-06T09:00:11Z</time></trkpt><trkpt lat="45.39123566535192" lon="8.507267050939296"><ele>134.0</ele><time>2026-04-06T09:00:12Z</time></trkpt><trkpt lat="45.391333246689236" lon="8.507430763701121"><ele>134.0</ele><time>2026-04-06T09:00:13Z</time></trkpt><trkpt lat="45.391433324992114" lon="8.507596863740442"><ele>134.0</ele><time>2026-04-06T09:00:14Z</time></trkpt><trkpt lat="45.39153322808969" lon="8.507763219707922"><ele>134.0</ele><time>2026-04-06T09:00:15Z</time></trkpt><trkpt lat="45.39163629125699" lon="8.507941184039815"><ele>134.0</ele><time>2026-04-06T09:00:16Z</time></trkpt><trkpt lat="45.39174580872431" lon="8.508129859289744"><ele>134.0</ele><time>2026-04-06T09:00:17Z</time></trkpt><trkpt lat="45.39186028196623" lon="8.508325104748797"><ele>134.0</ele><time>2026-04-06T09:00:18Z</time></trkpt><trkpt lat="45.39197993032855" lon="8.508530394522142"><ele>134.0</ele><time>2026-04-06T09:00:19Z</time></trkpt><trkpt lat="45.392105005481305" lon="8.508743694202257"><ele>133.66666666666666</ele><time>2026-04-06T09:00:20Z</time></trkpt><trkpt lat="45.39223439218249" lon="8.508962248831567"><ele>133.33333333333334</ele><time>2026-04-06T09:00:21Z</time></trkpt><trkpt lat="45.39236310875158" lon="8.509181746173454"><ele>133.0</ele><time>2026-04-06T09:00:22Z</time></trkpt><trkpt lat="45.39248830890302" lon="8.509393269844654"><ele>133.33333333333334</ele><time>2026-04-06T09:00:22.999Z</time></trkpt><trkpt lat="45.39261137160533" lon="8.509604839177063"><ele>133.66666666666666</ele><time>2026-04-06T09:00:23.999Z</time></trkpt><trkpt lat="45.39273120782526" lon="8.509811312541771"><ele>134.0</ele><time>2026-04-06T09:00:24.999Z</time></trkpt><trkpt lat="45.39284790712932" lon="8.510011029037038"><ele>134.0</ele><time>2026-04-06T09:00:25.999Z</time></trkpt><trkpt lat="45.392962406165566" lon="8.510205290921093"><ele>134.0</ele><time>2026-04-06T09:00:26.999Z</time></trkpt><trkpt lat="45.393077368213774" lon="8.510397976690824"><ele>134.0</ele><time>2026-04-06T09:00:27.999Z</time></trkpt><trkpt lat="45.393189669737424" lon="8.510587041833206"><ele>134.66666666666666</ele><time>2026-04-06T09:00:28.999Z</time></trkpt><trkpt lat="45.39330042841901" lon="8.510772781348937"><ele>135.33333333333334</ele><time>2026-04-06T09:00:29.999Z</time></trkpt><trkpt lat="45.39341093595497" lon="8.510960447271836"><ele>136.0</ele><time>2026-04-06T09:00:30.999Z</time></trkpt><trkpt lat="45.3935151670419" lon="8.51114187762449"><ele>135.33333333333334</ele><time>2026-04-06T09:00:31.999Z</time></trkpt><trkpt lat="45.39361688050763" lon="8.511316483448395"><ele>134.66666666666666</ele><time>2026-04-06T09:00:32.999Z</time></trkpt><trkpt lat="45.393720897575186" lon="8.511490969191865"><ele>134.0</ele><time>2026-04-06T09:00:33.999Z</time></trkpt><trkpt lat="45.39382120000846" lon="8.511659954944623"><ele>134.33333333333331</ele><time>2026-04-06T09:00:34.999Z</time></trkpt><trkpt lat="45.39392066465759" lon="8.511828443383434"><ele>134.66666666666666</ele><time>2026-04-06T09:00:35.999Z</time></trkpt><trkpt lat="45.39401880819736" lon="8.512007647141639"><ele>135.0</ele><time>2026-04-06T09:00:36.999Z</time></trkpt><trkpt lat="45.3941095345391" lon="8.512207712931465"><ele>135.0</ele><time>2026-04-06T09:00:37.999Z</time></trkpt><trkpt lat="45.394181363306906" lon="8.51242841063076"><ele>135.0</ele><time>2026-04-06T09:00:38.999Z</time></trkpt><trkpt lat="45.39422271951928" lon="8.512675315396129"><ele>135.0</ele><time>2026-04-06T09:00:39.999Z</time></trkpt><trkpt lat="45.394250531137494" lon="8.512930877204424"><ele>135.33333333333334</ele><time>2026-04-06T09:00:40.999Z</time></trkpt><trkpt lat="45.394279436333456" lon="8.513182671688012"><ele>135.66666666666669</ele><time>2026-04-06T09:00:41.999Z</time></trkpt><trkpt lat="45.39430993496578" lon="8.513425735199348"><ele>136.0</ele><time>2026-04-06T09:00:42.999Z</time></trkpt><trkpt lat="45.39433847806452" lon="8.513674162388106"><ele>136.0</ele><time>2026-04-06T09:00:43.999Z</time></trkpt><trkpt lat="45.39436874425799" lon="8.513929655509799"><ele>136.0</ele><time>2026-04-06T09:00:44.999Z</time></trkpt><trkpt lat="45.39439919800475" lon="8.5141822298189"><ele>136.0</ele><time>2026-04-06T09:00:45.999Z</time></trkpt><trkpt lat="45.39443085109987" lon="8.514433290505005"><ele>135.66666666666669</ele><time>2026-04-06T09:00:46.999Z</time></trkpt><trkpt lat="45.394461613678175" lon="8.514692976713443"><ele>135.33333333333334</ele><time>2026-04-06T09:00:47.999Z</time></trkpt><trkpt lat="45.39449497281747" lon="8.514954095924347"><ele>135.0</ele><time>2026-04-06T09:00:48.999Z</time></trkpt><trkpt lat="45.394527969051744" lon="8.515209763316934"><ele>135.0</ele><time>2026-04-06T09:00:49.999Z</time></trkpt><trkpt lat="45.39456179301213" lon="8.515464102497107"><ele>135.0</ele><time>2026-04-06T09:00:50.999Z</time></trkpt><trkpt lat="45.394594371424745" lon="8.515718290745845"><ele>135.0</ele><time>2026-04-06T09:00:51.999Z</time></trkpt><trkpt lat="45.39462505160848" lon="8.515970888240513"><ele>135.0</ele><time>2026-04-06T09:00:52.999Z</time></trkpt><trkpt lat="45.39465649103338" lon="8.516220959253157"><ele>135.0</ele><time>2026-04-06T09:00:53.999Z</time></trkpt><trkpt lat="45.394685137319385" lon="8.516461292810183"><ele>135.0</ele><time>2026-04-06T09:00:54.999Z</time></trkpt><trkpt lat="45.394713450694475" lon="8.51668577444144"><ele>135.33333333333334</ele><time>2026-04-06T09:00:55.999Z</time></trkpt><trkpt lat="45.39473980338417" lon="8.516900790491082"><ele>135.66666666666669</ele><time>2026-04-06T09:00:56.999Z</time></trkpt><trkpt lat="45.39476478679836" lon="8.517107154910105"><ele>136.0</ele><time>2026-04-06T09:00:57.999Z</time></trkpt><trkpt lat="45.39479407880015" lon="8.517330961261493"><ele>136.0</ele><time>2026-04-06T09:00:58.999Z</time></trkpt><trkpt lat="45.39482479813905" lon="8.517564748572967"><ele>136.0</ele><time>2026-04-06T09:00:59.999Z</time></trkpt><trkpt lat="45.39485657165313" lon="8.517807791880522"><ele>136.0</ele><time>2026-04-06T09:01:00.999Z</time></trkpt><trkpt lat="45.39488937448459" lon="8.518055698624234"><ele>136.33333333333334</ele><time>2026-04-06T09:01:02Z</time></trkpt><trkpt lat="45.39492135616707" lon="8.518306122863128"><ele>136.66666666666666</ele><time>2026-04-06T09:01:03Z</time></trkpt><trkpt lat="45.394953554741626" lon="8.518553327111519"><ele>137.0</ele><time>2026-04-06T09:01:04Z</time></trkpt><trkpt lat="45.394986596677455" lon="8.51880859636703"><ele>137.0</ele><time>2026-04-06T09:01:05Z</time></trkpt><trkpt lat="45.395020267147" lon="8.519071695096573"><ele>137.0</ele><time>2026-04-06T09:01:06Z</time></trkpt><trkpt lat="45.39505411732743" lon="8.519331649573534"><ele>137.0</ele><time>2026-04-06T09:01:07Z</time></trkpt><trkpt lat="45.395086714364446" lon="8.51957877374423"><ele>137.33333333333331</ele><time>2026-04-06T09:01:08Z</time></trkpt><trkpt lat="45.39511623376509" lon="8.51981996975049"><ele>137.66666666666666</ele><time>2026-04-06T09:01:09Z</time></trkpt><trkpt lat="45.395141367657956" lon="8.520063042458094"><ele>138.0</ele><time>2026-04-06T09:01:10Z</time></trkpt><trkpt lat="45.39516113146528" lon="8.520302751894489"><ele>138.0</ele><time>2026-04-06T09:01:11Z</time></trkpt><trkpt lat="45.395164492686675" lon="8.52053325584734"><ele>138.0</ele><time>2026-04-06T09:01:12Z</time></trkpt><trkpt lat="45.39516265794482" lon="8.520768753445788"><ele>138.0</ele><time>2026-04-06T09:01:13Z</time></trkpt><trkpt lat="45.39515293804744" lon="8.520999683854827"><ele>138.0</ele><time>2026-04-06T09:01:14Z</time></trkpt><trkpt lat="45.395140498100425" lon="8.521212581095291"><ele>138.0</ele><time>2026-04-06T09:01:15Z</time></trkpt><trkpt lat="45.39513115417043" lon="8.521401015981533"><ele>138.0</ele><time>2026-04-06T09:01:16Z</time></trkpt><trkpt lat="45.3951225015942" lon="8.521569060680896"><ele>138.0</ele><time>2026-04-06T09:01:17Z</time></trkpt><trkpt lat="45.39511464676156" lon="8.521715547089833"><ele>137.8</ele><time>2026-04-06T09:01:18Z</time></trkpt><trkpt lat="45.39511355901615" lon="8.521827437579253"><ele>137.60000000000002</ele><time>2026-04-06T09:01:19Z</time></trkpt><trkpt lat="45.39512070285237" lon="8.521941927338615"><ele>137.39999999999998</ele><time>2026-04-06T09:01:21Z</time></trkpt><trkpt lat="45.395255405713996" lon="8.521957214996071"><ele>137.2</ele><time>2026-04-06T09:01:22Z</time></trkpt><trkpt lat="45.39535377263454" lon="8.521945411479146"><ele>137.0</ele><time>2026-04-06T09:01:23Z</time></trkpt><trkpt lat="45.39547283892071" lon="8.521948971128014"><ele>136.75</ele><time>2026-04-06T09:01:24Z</time></trkpt><trkpt lat="45.39559638368171" lon="8.521949497841687"><ele>136.5</ele><time>2026-04-06T09:01:25Z</time></trkpt><trkpt lat="45.39573751094202" lon="8.521952744889957"><ele>136.25</ele><time>2026-04-06T09:01:26Z</time></trkpt><trkpt lat="45.39589290109277" lon="8.521959733398173"><ele>136.0</ele><time>2026-04-06T09:01:27Z</time></trkpt><trkpt lat="45.39605354362308" lon="8.521962256569504"><ele>136.0</ele><time>2026-04-06T09:01:28Z</time></trkpt><trkpt lat="45.39622705279648" lon="8.521963023072143"><ele>136.0</ele><time>2026-04-06T09:01:29Z</time></trkpt><trkpt lat="45.39640843049782" lon="8.52196578498918"><ele>136.0</ele><time>2026-04-06T09:01:30Z</time></trkpt><trkpt lat="45.39659118369469" lon="8.521971189423233"><ele>136.66666666666669</ele><time>2026-04-06T09:01:31Z</time></trkpt><trkpt lat="45.39678173387544" lon="8.521976159342662"><ele>137.33333333333334</ele><time>2026-04-06T09:01:32Z</time></trkpt><trkpt lat="45.39697725172499" lon="8.521981129080132"><ele>138.0</ele><time>2026-04-06T09:01:33Z</time></trkpt><trkpt lat="45.39717579234536" lon="8.521985390227373"><ele>138.0</ele><time>2026-04-06T09:01:34Z</time></trkpt><trkpt lat="45.397373747490455" lon="8.521989257452878"><ele>138.0</ele><time>2026-04-06T09:01:35Z</time></trkpt><trkpt lat="45.397566218036005" lon="8.52199472611271"><ele>138.0</ele><time>2026-04-06T09:01:36Z</time></trkpt><trkpt lat="45.39775026330129" lon="8.521999880352338"><ele>138.0</ele><time>2026-04-06T09:01:37Z</time></trkpt><trkpt lat="45.3979331022628" lon="8.522003289858972"><ele>138.0</ele><time>2026-04-06T09:01:38Z</time></trkpt><trkpt lat="45.39811270884741" lon="8.522006545604091"><ele>138.0</ele><time>2026-04-06T09:01:39Z</time></trkpt><trkpt lat="45.39828296119828" lon="8.52201082067343"><ele>137.75</ele><time>2026-04-06T09:01:40Z</time></trkpt><trkpt lat="45.39843877665075" lon="8.522015813076333"><ele>137.5</ele><time>2026-04-06T09:01:41Z</time></trkpt><trkpt lat="45.39858330799474" lon="8.522019508973957"><ele>137.25</ele><time>2026-04-06T09:01:42Z</time></trkpt><trkpt lat="45.398714400622865" lon="8.52202284249873"><ele>137.0</ele><time>2026-04-06T09:01:43Z</time></trkpt><trkpt lat="45.39883989315991" lon="8.522026359182478"><ele>137.0</ele><time>2026-04-06T09:01:44Z</time></trkpt><trkpt lat="45.39896340963656" lon="8.52202791076784"><ele>137.0</ele><time>2026-04-06T09:01:45Z</time></trkpt><trkpt lat="45.39910575475145" lon="8.522026650283175"><ele>137.0</ele><time>2026-04-06T09:01:46Z</time></trkpt><trkpt lat="45.39926037710346" lon="8.522025651016406"><ele>137.0</ele><time>2026-04-06T09:01:47Z</time></trkpt><trkpt lat="45.3994244096363" lon="8.522027094790463"><ele>137.0</ele><time>2026-04-06T09:01:48Z</time></trkpt><trkpt lat="45.39960240419002" lon="8.522030440871443"><ele>137.0</ele><time>2026-04-06T09:01:49Z</time></trkpt><trkpt lat="45.399792571329996" lon="8.522035102713234"><ele>137.0</ele><time>2026-04-06T09:01:50Z</time></trkpt><trkpt lat="45.39998777753083" lon="8.522039190605415"><ele>137.0</ele><time>2026-04-06T09:01:51Z</time></trkpt><trkpt lat="45.400188110972834" lon="8.522041289359317"><ele>137.0</ele><time>2026-04-06T09:01:52Z</time></trkpt><trkpt lat="45.40039244781624" lon="8.522042052746329"><ele>137.0</ele><time>2026-04-06T09:01:53Z</time></trkpt><trkpt lat="45.40059239962695" lon="8.522042633134372"><ele>137.0</ele><time>2026-04-06T09:01:54Z</time></trkpt><trkpt lat="45.40076265097104" lon="8.522044149897498"><ele>137.0</ele><time>2026-04-06T09:01:55Z</time></trkpt><trkpt lat="45.40091039473109" lon="8.52205002306583"><ele>137.0</ele><time>2026-04-06T09:01:56Z</time></trkpt><trkpt lat="45.40104580440208" lon="8.5220648557458"><ele>137.0</ele><time>2026-04-06T09:01:57Z</time></trkpt><trkpt lat="45.40115114887157" lon="8.522133703551724"><ele>137.0</ele><time>2026-04-06T09:01:58Z</time></trkpt><trkpt lat="45.40122871134875" lon="8.5222697329144"><ele>137.0</ele><time>2026-04-06T09:01:59Z</time></trkpt><trkpt lat="45.40129316082541" lon="8.522420757078283"><ele>137.0</ele><time>2026-04-06T09:02:00Z</time></trkpt><trkpt lat="45.40136420944937" lon="8.522565982175454"><ele>137.0</ele><time>2026-04-06T09:02:01Z</time></trkpt><trkpt lat="45.40144134463934" lon="8.522707777039328"><ele>137.0</ele><time>2026-04-06T09:02:02Z</time></trkpt><trkpt lat="45.401527056282426" lon="8.522863704051197"><ele>137.0</ele><time>2026-04-06T09:02:03Z</time></trkpt><trkpt lat="45.401619926895286" lon="8.52303159904704"><ele>137.0</ele><time>2026-04-06T09:02:04Z</time></trkpt><trkpt lat="45.40171594263259" lon="8.523207465146921"><ele>137.33333333333331</ele><time>2026-04-06T09:02:05Z</time></trkpt><trkpt lat="45.40181815045595" lon="8.523379705206331"><ele>137.66666666666666</ele><time>2026-04-06T09:02:06Z</time></trkpt><trkpt lat="45.40192562837894" lon="8.523526305725413"><ele>138.0</ele><time>2026-04-06T09:02:07Z</time></trkpt><trkpt lat="45.40205262745566" lon="8.523627190693338"><ele>138.33333333333334</ele><time>2026-04-06T09:02:08Z</time></trkpt><trkpt lat="45.402205213399895" lon="8.523699348643534"><ele>138.66666666666669</ele><time>2026-04-06T09:02:09Z</time></trkpt><trkpt lat="45.40236880268252" lon="8.52373162519908"><ele>139.0</ele><time>2026-04-06T09:02:10Z</time></trkpt><trkpt lat="45.402530981628665" lon="8.523717490653102"><ele>139.0</ele><time>2026-04-06T09:02:11Z</time></trkpt><trkpt lat="45.40269007399758" lon="8.523660590856213"><ele>139.0</ele><time>2026-04-06T09:02:12Z</time></trkpt><trkpt lat="45.402827049133954" lon="8.523564846198326"><ele>139.0</ele><time>2026-04-06T09:02:13Z</time></trkpt><trkpt lat="45.40294893516258" lon="8.523450238619"><ele>139.0</ele><time>2026-04-06T09:02:14Z</time></trkpt><trkpt lat="45.40306678697678" lon="8.523301598867345"><ele>139.0</ele><time>2026-04-06T09:02:15Z</time></trkpt><trkpt lat="45.40321150762285" lon="8.523166588397634"><ele>139.0</ele><time>2026-04-06T09:02:16Z</time></trkpt><trkpt lat="45.40335541916538" lon="8.523007875387785"><ele>139.33333333333334</ele><time>2026-04-06T09:02:17Z</time></trkpt><trkpt lat="45.40350369555016" lon="8.522847367418002"><ele>139.66666666666666</ele><time>2026-04-06T09:02:18Z</time></trkpt><trkpt lat="45.40364521289505" lon="8.522690181486793"><ele>140.0</ele><time>2026-04-06T09:02:19Z</time></trkpt><trkpt lat="45.40377480478025" lon="8.5225241993035"><ele>139.66666666666666</ele><time>2026-04-06T09:02:20Z</time></trkpt><trkpt lat="45.403905965761616" lon="8.522382993886543"><ele>139.33333333333334</ele><time>2026-04-06T09:02:21Z</time></trkpt><trkpt lat="45.40402762103991" lon="8.522242905565466"><ele>139.0</ele><time>2026-04-06T09:02:22Z</time></trkpt><trkpt lat="45.404159501914634" lon="8.522120160124473"><ele>139.0</ele><time>2026-04-06T09:02:23Z</time></trkpt><trkpt lat="45.404272397144126" lon="8.521974954357466"><ele>139.0</ele><time>2026-04-06T09:02:24Z</time></trkpt><trkpt lat="45.40435636814007" lon="8.521782167173644"><ele>139.0</ele><time>2026-04-06T09:02:25Z</time></trkpt><trkpt lat="45.40445592810484" lon="8.521580724308588"><ele>139.0</ele><time>2026-04-06T09:02:26Z</time></trkpt><trkpt lat="45.4045095349216" lon="8.521375236663506"><ele>139.0</ele><time>2026-04-06T09:02:26.999Z</time></trkpt><trkpt lat="45.40453102306908" lon="8.521202214779718"><ele>139.0</ele><time>2026-04-06T09:02:27.999Z</time></trkpt><trkpt lat="45.40459081082247" lon="8.521069881461566"><ele>139.0</ele><time>2026-04-06T09:02:28.999Z</time></trkpt><trkpt lat="45.4046954260395" lon="8.521031860111718"><ele>138.75</ele><time>2026-04-06T09:02:29.999Z</time></trkpt><trkpt lat="45.40481899473172" lon="8.520995739714994"><ele>138.5</ele><time>2026-04-06T09:02:30.999Z</time></trkpt><trkpt lat="45.404954853147274" lon="8.520947868214684"><ele>138.25</ele><time>2026-04-06T09:02:31.999Z</time></trkpt><trkpt lat="45.405104737728685" lon="8.520896622994496"><ele>138.0</ele><time>2026-04-06T09:02:32.999Z</time></trkpt><trkpt lat="45.40526070309746" lon="8.520845827989515"><ele>138.0</ele><time>2026-04-06T09:02:33.999Z</time></trkpt><trkpt lat="45.40542192120752" lon="8.520767475706867"><ele>138.0</ele><time>2026-04-06T09:02:34.999Z</time></trkpt><trkpt lat="45.40559797374546" lon="8.520708663969836"><ele>138.0</ele><time>2026-04-06T09:02:35.999Z</time></trkpt><trkpt lat="45.40578548396565" lon="8.520644380160313"><ele>138.0</ele><time>2026-04-06T09:02:36.999Z</time></trkpt><trkpt lat="45.40597605761615" lon="8.520581933341335"><ele>138.0</ele><time>2026-04-06T09:02:37.999Z</time></trkpt><trkpt lat="45.40616942333278" lon="8.520524135471828"><ele>138.0</ele><time>2026-04-06T09:02:38.999Z</time></trkpt><trkpt lat="45.406368428892435" lon="8.52047116621445"><ele>137.66666666666666</ele><time>2026-04-06T09:02:39.999Z</time></trkpt><trkpt lat="45.40656436452083" lon="8.520420722484868"><ele>137.33333333333331</ele><time>2026-04-06T09:02:40.999Z</time></trkpt><trkpt lat="45.406754347584354" lon="8.5203733713129"><ele>137.0</ele><time>2026-04-06T09:02:41.999Z</time></trkpt><trkpt lat="45.406943852595724" lon="8.520337229457073"><ele>136.66666666666666</ele><time>2026-04-06T09:02:42.999Z</time></trkpt><trkpt lat="45.407137781456285" lon="8.52033605621818"><ele>136.33333333333334</ele><time>2026-04-06T09:02:43.999Z</time></trkpt><trkpt lat="45.40733271374568" lon="8.520375980301411"><ele>136.0</ele><time>2026-04-06T09:02:44.999Z</time></trkpt><trkpt lat="45.407530366580446" lon="8.520431202429814"><ele>136.33333333333334</ele><time>2026-04-06T09:02:45.999Z</time></trkpt><trkpt lat="45.407732570971056" lon="8.52048379423133"><ele>136.66666666666666</ele><time>2026-04-06T09:02:46.999Z</time></trkpt><trkpt lat="45.40793707212453" lon="8.520537522573292"><ele>137.0</ele><time>2026-04-06T09:02:47.999Z</time></trkpt><trkpt lat="45.40814442348063" lon="8.520593470797431"><ele>137.0</ele><time>2026-04-06T09:02:48.999Z</time></trkpt><trkpt lat="45.40834921719657" lon="8.520667583784725"><ele>137.0</ele><time>2026-04-06T09:02:49.999Z</time></trkpt><trkpt lat="45.40854763429375" lon="8.520769935508964"><ele>137.0</ele><time>2026-04-06T09:02:50.999Z</time></trkpt><trkpt lat="45.40874063291449" lon="8.520898386653815"><ele>137.0</ele><time>2026-04-06T09:02:51.999Z</time></trkpt><trkpt lat="45.40892508404029" lon="8.521019113845753"><ele>137.0</ele><time>2026-04-06T09:02:52.999Z</time></trkpt><trkpt lat="45.40911655825481" lon="8.521115548334382"><ele>137.0</ele><time>2026-04-06T09:02:53.999Z</time></trkpt><trkpt lat="45.409319533866224" lon="8.521186865339025"><ele>137.66666666666666</ele><time>2026-04-06T09:02:54.999Z</time></trkpt><trkpt lat="45.40953087922175" lon="8.52124640981962"><ele>138.33333333333334</ele><time>2026-04-06T09:02:55.999Z</time></trkpt><trkpt lat="45.40974794991518" lon="8.521302536992101"><ele>139.0</ele><time>2026-04-06T09:02:56.999Z</time></trkpt><trkpt lat="45.409965849659834" lon="8.521361447842304"><ele>139.0</ele><time>2026-04-06T09:02:57.999Z</time></trkpt><trkpt lat="45.41016038612343" lon="8.52141232818246"><ele>139.0</ele><time>2026-04-06T09:02:58.999Z</time></trkpt><trkpt lat="45.410337126952065" lon="8.521449343422505"><ele>139.0</ele><time>2026-04-06T09:02:59.999Z</time></trkpt><trkpt lat="45.41051657445192" lon="8.521477506339567"><ele>139.66666666666669</ele><time>2026-04-06T09:03:00.999Z</time></trkpt><trkpt lat="45.410700796580784" lon="8.521391995556842"><ele>140.33333333333334</ele><time>2026-04-06T09:03:01.999Z</time></trkpt><trkpt lat="45.410885109447364" lon="8.521297671554505"><ele>141.0</ele><time>2026-04-06T09:03:02.999Z</time></trkpt><trkpt lat="45.4110782428151" lon="8.521231622930653"><ele>141.33333333333334</ele><time>2026-04-06T09:03:03.999Z</time></trkpt><trkpt lat="45.41125068533173" lon="8.52116799489549"><ele>141.66666666666669</ele><time>2026-04-06T09:03:04.999Z</time></trkpt><trkpt lat="45.41141668988505" lon="8.521129802133146"><ele>142.0</ele><time>2026-04-06T09:03:05.999Z</time></trkpt><trkpt lat="45.41156161912356" lon="8.521104581422474"><ele>142.0</ele><time>2026-04-06T09:03:06.999Z</time></trkpt><trkpt lat="45.4116827722152" lon="8.521078135925816"><ele>142.0</ele><time>2026-04-06T09:03:08Z</time></trkpt><trkpt lat="45.41179094530392" lon="8.52107192414264"><ele>142.0</ele><time>2026-04-06T09:03:09Z</time></trkpt><trkpt lat="45.41188939479586" lon="8.521065229044577"><ele>142.0</ele><time>2026-04-06T09:03:10Z</time></trkpt><trkpt lat="45.41197602567095" lon="8.52095392391275"><ele>142.0</ele><time>2026-04-06T09:03:11Z</time></trkpt><trkpt lat="45.4120910509151" lon="8.520851808192965"><ele>142.0</ele><time>2026-04-06T09:03:12Z</time></trkpt><trkpt lat="45.41220490086254" lon="8.52072522198646"><ele>142.0</ele><time>2026-04-06T09:03:13Z</time></trkpt><trkpt lat="45.41232617610602" lon="8.52059037945588"><ele>142.0</ele><time>2026-04-06T09:03:14Z</time></trkpt><trkpt lat="45.41243970313606" lon="8.520453741823905"><ele>142.0</ele><time>2026-04-06T09:03:15Z</time></trkpt><trkpt lat="45.41253549589972" lon="8.520279778428094"><ele>141.66666666666669</ele><time>2026-04-06T09:03:16Z</time></trkpt><trkpt lat="45.41260769863268" lon="8.520064771745535"><ele>141.33333333333334</ele><time>2026-04-06T09:03:17Z</time></trkpt><trkpt lat="45.412677489067796" lon="8.519837537209426"><ele>141.0</ele><time>2026-04-06T09:03:18Z</time></trkpt><trkpt lat="45.412748941816794" lon="8.519599990231487"><ele>140.6</ele><time>2026-04-06T09:03:19Z</time></trkpt><trkpt lat="45.412803778744866" lon="8.51941768292032"><ele>140.2</ele><time>2026-04-06T09:03:20Z</time></trkpt><trkpt lat="45.41285176246582" lon="8.519277723733342"><ele>139.8</ele><time>2026-04-06T09:03:21Z</time></trkpt><trkpt lat="45.412892554415514" lon="8.519159170381162"><ele>139.4</ele><time>2026-04-06T09:03:22Z</time></trkpt><trkpt lat="45.4129811599995" lon="8.519157281614449"><ele>139.0</ele><time>2026-04-06T09:03:23Z</time></trkpt><trkpt lat="45.4130709091435" lon="8.51909996235981"><ele>139.0</ele><time>2026-04-06T09:03:24Z</time></trkpt><trkpt lat="45.41318009051804" lon="8.519080483467958"><ele>139.0</ele><time>2026-04-06T09:03:25Z</time></trkpt><trkpt lat="45.4132975799024" lon="8.519059404283517"><ele>139.0</ele><time>2026-04-06T09:03:26Z</time></trkpt><trkpt lat="45.413410343918486" lon="8.51903811318203"><ele>139.0</ele><time>2026-04-06T09:03:27Z</time></trkpt><trkpt lat="45.41353558036239" lon="8.51904339898625"><ele>139.0</ele><time>2026-04-06T09:03:28Z</time></trkpt><trkpt lat="45.4136739163533" lon="8.519015026590276"><ele>139.0</ele><time>2026-04-06T09:03:29Z</time></trkpt><trkpt lat="45.41381387845865" lon="8.518960387954875"><ele>139.0</ele><time>2026-04-06T09:03:30Z</time></trkpt><trkpt lat="45.41396617010028" lon="8.518929462404438"><ele>139.0</ele><time>2026-04-06T09:03:31Z</time></trkpt><trkpt lat="45.414130774632625" lon="8.518895281449414"><ele>139.33333333333334</ele><time>2026-04-06T09:03:32Z</time></trkpt><trkpt lat="45.41430548174534" lon="8.518857954922266"><ele>139.66666666666666</ele><time>2026-04-06T09:03:33Z</time></trkpt><trkpt lat="45.41448962417071" lon="8.518819773947088"><ele>140.0</ele><time>2026-04-06T09:03:34Z</time></trkpt><trkpt lat="45.41468350178711" lon="8.51877923404502"><ele>140.0</ele><time>2026-04-06T09:03:35Z</time></trkpt><trkpt lat="45.414883144147396" lon="8.51873674250025"><ele>140.0</ele><time>2026-04-06T09:03:36Z</time></trkpt><trkpt lat="45.41508740752556" lon="8.51869074644168"><ele>140.0</ele><time>2026-04-06T09:03:37Z</time></trkpt><trkpt lat="45.41529488545107" lon="8.518644184563458"><ele>139.66666666666666</ele><time>2026-04-06T09:03:38Z</time></trkpt><trkpt lat="45.415506599696165" lon="8.518596746132632"><ele>139.33333333333334</ele><time>2026-04-06T09:03:39Z</time></trkpt><trkpt lat="45.41572389614496" lon="8.518551416227115"><ele>139.0</ele><time>2026-04-06T09:03:40Z</time></trkpt><trkpt lat="45.415943584190785" lon="8.51850589847862"><ele>139.0</ele><time>2026-04-06T09:03:41Z</time></trkpt><trkpt lat="45.41615629269984" lon="8.518459032861987"><ele>139.0</ele><time>2026-04-06T09:03:42Z</time></trkpt><trkpt lat="45.416374081373476" lon="8.518409750270878"><ele>139.0</ele><time>2026-04-06T09:03:43Z</time></trkpt><trkpt lat="45.41659962547591" lon="8.518385002561855"><ele>140.0</ele><time>2026-04-06T09:03:44Z</time></trkpt><trkpt lat="45.416824295609814" lon="8.518337052073294"><ele>141.0</ele><time>2026-04-06T09:03:45Z</time></trkpt><trkpt lat="45.41704765231617" lon="8.518265604685245"><ele>141.0</ele><time>2026-04-06T09:03:46Z</time></trkpt><trkpt lat="45.417272628855336" lon="8.518215988520172"><ele>141.0</ele><time>2026-04-06T09:03:47Z</time></trkpt><trkpt lat="45.41749606159964" lon="8.518165353884868"><ele>141.0</ele><time>2026-04-06T09:03:48Z</time></trkpt><trkpt lat="45.417720155009306" lon="8.518116612998037"><ele>141.0</ele><time>2026-04-06T09:03:49Z</time></trkpt><trkpt lat="45.41794395514889" lon="8.518069173374776"><ele>141.5</ele><time>2026-04-06T09:03:50Z</time></trkpt><trkpt lat="45.4181702226506" lon="8.51802264948978"><ele>142.0</ele><time>2026-04-06T09:03:51Z</time></trkpt><trkpt lat="45.41839681846884" lon="8.517973679802761"><ele>142.0</ele><time>2026-04-06T09:03:52Z</time></trkpt><trkpt lat="45.418624271845715" lon="8.517923299597074"><ele>142.0</ele><time>2026-04-06T09:03:53Z</time></trkpt><trkpt lat="45.418852203429076" lon="8.517873610307442"><ele>142.0</ele><time>2026-04-06T09:03:54Z</time></trkpt><trkpt lat="45.419078699922345" lon="8.517823978399893"><ele>142.0</ele><time>2026-04-06T09:03:55Z</time></trkpt><trkpt lat="45.419304259066294" lon="8.517773859832205"><ele>142.0</ele><time>2026-04-06T09:03:56Z</time></trkpt><trkpt lat="45.419531875881304" lon="8.517725137174528"><ele>142.0</ele><time>2026-04-06T09:03:57Z</time></trkpt><trkpt lat="45.419760893650206" lon="8.517679120148278"><ele>142.0</ele><time>2026-04-06T09:03:58Z</time></trkpt><trkpt lat="45.419985736154366" lon="8.517632005785964"><ele>142.0</ele><time>2026-04-06T09:03:59Z</time></trkpt><trkpt lat="45.420211708997" lon="8.517583326957656"><ele>142.0</ele><time>2026-04-06T09:04:00Z</time></trkpt><trkpt lat="45.42043818986551" lon="8.51753386646556"><ele>142.0</ele><time>2026-04-06T09:04:01Z</time></trkpt><trkpt lat="45.420664928704895" lon="8.517483318446299"><ele>142.0</ele><time>2026-04-06T09:04:02Z</time></trkpt><trkpt lat="45.42089201555548" lon="8.517432714453847"><ele>142.0</ele><time>2026-04-06T09:04:03Z</time></trkpt><trkpt lat="45.421119821023595" lon="8.517383521931924"><ele>142.0</ele><time>2026-04-06T09:04:04Z</time></trkpt><trkpt lat="45.42134710800823" lon="8.517333357198682"><ele>142.0</ele><time>2026-04-06T09:04:05Z</time></trkpt><trkpt lat="45.42157462316685" lon="8.517283533471987"><ele>142.0</ele><time>2026-04-06T09:04:06Z</time></trkpt><trkpt lat="45.42180232296461" lon="8.517234342812168"><ele>142.0</ele><time>2026-04-06T09:04:07Z</time></trkpt><trkpt lat="45.42202864633356" lon="8.517186676456504"><ele>141.5</ele><time>2026-04-06T09:04:08Z</time></trkpt><trkpt lat="45.42225581853515" lon="8.517138253679668"><ele>141.0</ele><time>2026-04-06T09:04:09Z</time></trkpt><trkpt lat="45.422485456714256" lon="8.517088179261416"><ele>142.0</ele><time>2026-04-06T09:04:10Z</time></trkpt><trkpt lat="45.42271551130837" lon="8.51703608904535"><ele>143.0</ele><time>2026-04-06T09:04:11Z</time></trkpt><trkpt lat="45.422947615008795" lon="8.51700872103836"><ele>143.0</ele><time>2026-04-06T09:04:12Z</time></trkpt><trkpt lat="45.423176303171864" lon="8.516958819651212"><ele>143.0</ele><time>2026-04-06T09:04:13Z</time></trkpt><trkpt lat="45.42340174244881" lon="8.516886439372712"><ele>143.0</ele><time>2026-04-06T09:04:14Z</time></trkpt><trkpt lat="45.42363045055897" lon="8.516859920778765"><ele>143.0</ele><time>2026-04-06T09:04:15Z</time></trkpt><trkpt lat="45.42385387500793" lon="8.516788212961899"><ele>143.0</ele><time>2026-04-06T09:04:16Z</time></trkpt><trkpt lat="45.42408079360958" lon="8.516761850247407"><ele>143.0</ele><time>2026-04-06T09:04:17Z</time></trkpt><trkpt lat="45.42430234047809" lon="8.516695145898568"><ele>143.0</ele><time>2026-04-06T09:04:18Z</time></trkpt><trkpt lat="45.42452366075132" lon="8.516648186167968"><ele>143.0</ele><time>2026-04-06T09:04:19Z</time></trkpt><trkpt lat="45.42474664257171" lon="8.516599298300843"><ele>143.0</ele><time>2026-04-06T09:04:20Z</time></trkpt><trkpt lat="45.424969468320434" lon="8.516549407219049"><ele>143.0</ele><time>2026-04-06T09:04:21Z</time></trkpt><trkpt lat="45.42519220580298" lon="8.516501072124854"><ele>143.0</ele><time>2026-04-06T09:04:22Z</time></trkpt><trkpt lat="45.425417295507216" lon="8.516454053090483"><ele>142.5</ele><time>2026-04-06T09:04:23Z</time></trkpt><trkpt lat="45.42564284417898" lon="8.516404457909346"><ele>142.0</ele><time>2026-04-06T09:04:24Z</time></trkpt><trkpt lat="45.42586947171058" lon="8.516355013261231"><ele>142.0</ele><time>2026-04-06T09:04:25Z</time></trkpt><trkpt lat="45.42609378922463" lon="8.516306691284893"><ele>142.0</ele><time>2026-04-06T09:04:26Z</time></trkpt><trkpt lat="45.42631775012922" lon="8.516257502873625"><ele>142.5</ele><time>2026-04-06T09:04:27Z</time></trkpt><trkpt lat="45.42654074090187" lon="8.516208379453717"><ele>143.0</ele><time>2026-04-06T09:04:28Z</time></trkpt><trkpt lat="45.42676412809532" lon="8.51615958760927"><ele>143.0</ele><time>2026-04-06T09:04:29Z</time></trkpt><trkpt lat="45.42698665097959" lon="8.516111513812655"><ele>143.0</ele><time>2026-04-06T09:04:30Z</time></trkpt><trkpt lat="45.42720993374476" lon="8.516063262279074"><ele>142.5</ele><time>2026-04-06T09:04:31Z</time></trkpt><trkpt lat="45.42743342420915" lon="8.516014921960375"><ele>142.0</ele><time>2026-04-06T09:04:32Z</time></trkpt><trkpt lat="45.427658338654275" lon="8.51596604910943"><ele>142.0</ele><time>2026-04-06T09:04:33Z</time></trkpt><trkpt lat="45.42788449142608" lon="8.51591744545354"><ele>142.0</ele><time>2026-04-06T09:04:34Z</time></trkpt><trkpt lat="45.42811012442248" lon="8.515867830575592"><ele>142.5</ele><time>2026-04-06T09:04:35Z</time></trkpt><trkpt lat="45.42833562048819" lon="8.51581872078442"><ele>143.0</ele><time>2026-04-06T09:04:36Z</time></trkpt><trkpt lat="45.42856205499092" lon="8.515768453393166"><ele>143.0</ele><time>2026-04-06T09:04:36.999Z</time></trkpt><trkpt lat="45.42878711194608" lon="8.515718990403483"><ele>143.0</ele><time>2026-04-06T09:04:37.999Z</time></trkpt><trkpt lat="45.429013749511824" lon="8.515693954981577"><ele>143.0</ele><time>2026-04-06T09:04:38.999Z</time></trkpt><trkpt lat="45.429239873806615" lon="8.515646374237589"><ele>143.0</ele><time>2026-04-06T09:04:39.999Z</time></trkpt><trkpt lat="45.42946723826182" lon="8.515598535126356"><ele>143.5</ele><time>2026-04-06T09:04:40.999Z</time></trkpt><trkpt lat="45.42969559094537" lon="8.515550489047662"><ele>144.0</ele><time>2026-04-06T09:04:41.999Z</time></trkpt><trkpt lat="45.42992092318343" lon="8.515501784003265"><ele>144.0</ele><time>2026-04-06T09:04:42.999Z</time></trkpt><trkpt lat="45.43014607623622" lon="8.515452965575365"><ele>144.0</ele><time>2026-04-06T09:04:43.999Z</time></trkpt><trkpt lat="45.430367568007505" lon="8.515380759781864"><ele>144.0</ele><time>2026-04-06T09:04:44.999Z</time></trkpt><trkpt lat="45.43059068624472" lon="8.515331911606623"><ele>144.0</ele><time>2026-04-06T09:04:45.999Z</time></trkpt><trkpt lat="45.430811492069815" lon="8.515282830072909"><ele>144.0</ele><time>2026-04-06T09:04:46.999Z</time></trkpt><trkpt lat="45.43103231228498" lon="8.515233620117778"><ele>144.0</ele><time>2026-04-06T09:04:47.999Z</time></trkpt><trkpt lat="45.43125282065606" lon="8.51518459485615"><ele>144.0</ele><time>2026-04-06T09:04:48.999Z</time></trkpt><trkpt lat="45.43147195854846" lon="8.51513678635652"><ele>144.0</ele><time>2026-04-06T09:04:49.999Z</time></trkpt><trkpt lat="45.43168948495676" lon="8.515089434962603"><ele>144.0</ele><time>2026-04-06T09:04:50.999Z</time></trkpt><trkpt lat="45.43190692028659" lon="8.515045230870697"><ele>144.0</ele><time>2026-04-06T09:04:51.999Z</time></trkpt><trkpt lat="45.432123077027185" lon="8.51500065297041"><ele>144.0</ele><time>2026-04-06T09:04:52.999Z</time></trkpt><trkpt lat="45.43234179204494" lon="8.514955340197645"><ele>144.33333333333334</ele><time>2026-04-06T09:04:53.999Z</time></trkpt><trkpt lat="45.432561436495774" lon="8.514908921958932"><ele>144.66666666666669</ele><time>2026-04-06T09:04:54.999Z</time></trkpt><trkpt lat="45.432782589882954" lon="8.51486197601848"><ele>145.0</ele><time>2026-04-06T09:04:55.999Z</time></trkpt><trkpt lat="45.43300501138498" lon="8.514813865789835"><ele>145.33333333333334</ele><time>2026-04-06T09:04:56.999Z</time></trkpt><trkpt lat="45.43322637662676" lon="8.514764486085133"><ele>145.66666666666666</ele><time>2026-04-06T09:04:57.999Z</time></trkpt><trkpt lat="45.43344810102639" lon="8.514713794387228"><ele>146.0</ele><time>2026-04-06T09:04:58.999Z</time></trkpt><trkpt lat="45.43366848472014" lon="8.514663659237392"><ele>146.0</ele><time>2026-04-06T09:04:59.999Z</time></trkpt><trkpt lat="45.43388964870724" lon="8.5146146072704"><ele>146.0</ele><time>2026-04-06T09:05:00.999Z</time></trkpt><trkpt lat="45.43410991796943" lon="8.514569968782489"><ele>146.0</ele><time>2026-04-06T09:05:01.999Z</time></trkpt><trkpt lat="45.43433070742792" lon="8.514526983700542"><ele>146.0</ele><time>2026-04-06T09:05:02.999Z</time></trkpt><trkpt lat="45.43455078656136" lon="8.514478211740236"><ele>146.0</ele><time>2026-04-06T09:05:03.999Z</time></trkpt><trkpt lat="45.434770841336544" lon="8.514426948015387"><ele>146.0</ele><time>2026-04-06T09:05:04.999Z</time></trkpt><trkpt lat="45.434990890995806" lon="8.514379095320914"><ele>145.66666666666666</ele><time>2026-04-06T09:05:05.999Z</time></trkpt><trkpt lat="45.435211690268495" lon="8.514335617934641"><ele>145.33333333333334</ele><time>2026-04-06T09:05:06.999Z</time></trkpt><trkpt lat="45.43543214721839" lon="8.514291700562772"><ele>145.0</ele><time>2026-04-06T09:05:07.999Z</time></trkpt><trkpt lat="45.4356500409532" lon="8.514248527163714"><ele>145.0</ele><time>2026-04-06T09:05:08.999Z</time></trkpt><trkpt lat="45.43586936287213" lon="8.51420481235672"><ele>145.0</ele><time>2026-04-06T09:05:09.999Z</time></trkpt><trkpt lat="45.43608946954018" lon="8.514155708919432"><ele>145.0</ele><time>2026-04-06T09:05:10.999Z</time></trkpt><trkpt lat="45.43630960555104" lon="8.514106030793604"><ele>145.33333333333334</ele><time>2026-04-06T09:05:11.999Z</time></trkpt><trkpt lat="45.436527306529655" lon="8.51405688154416"><ele>145.66666666666666</ele><time>2026-04-06T09:05:12.999Z</time></trkpt><trkpt lat="45.43674277380895" lon="8.514010001487426"><ele>146.0</ele><time>2026-04-06T09:05:14Z</time></trkpt><trkpt lat="45.43695928964997" lon="8.513966085416378"><ele>146.0</ele><time>2026-04-06T09:05:15Z</time></trkpt><trkpt lat="45.43717661564272" lon="8.51392164101192"><ele>146.0</ele><time>2026-04-06T09:05:16Z</time></trkpt><trkpt lat="45.437387201569955" lon="8.513878052764543"><ele>146.0</ele><time>2026-04-06T09:05:17Z</time></trkpt><trkpt lat="45.43758790595457" lon="8.513838978701271"><ele>146.0</ele><time>2026-04-06T09:05:18Z</time></trkpt><trkpt lat="45.437774346876104" lon="8.513804700639161"><ele>146.0</ele><time>2026-04-06T09:05:19Z</time></trkpt><trkpt lat="45.437936428076924" lon="8.513775263527588"><ele>146.0</ele><time>2026-04-06T09:05:20Z</time></trkpt><trkpt lat="45.43807116980902" lon="8.513752146990186"><ele>146.4</ele><time>2026-04-06T09:05:21Z</time></trkpt><trkpt lat="45.438169461685206" lon="8.513733751966114"><ele>146.8</ele><time>2026-04-06T09:05:22Z</time></trkpt><trkpt lat="45.43824614036505" lon="8.513725302041257"><ele>147.20000000000002</ele><time>2026-04-06T09:05:23Z</time></trkpt><trkpt lat="45.438327794642795" lon="8.513838696795622"><ele>147.6</ele><time>2026-04-06T09:05:25Z</time></trkpt><trkpt lat="45.43844958645219" lon="8.513956001477066"><ele>148.0</ele><time>2026-04-06T09:05:27Z</time></trkpt><trkpt lat="45.438545976351456" lon="8.513987559175908"><ele>148.0</ele><time>2026-04-06T09:05:28Z</time></trkpt><trkpt lat="45.43865371309229" lon="8.514025146638934"><ele>148.0</ele><time>2026-04-06T09:05:29Z</time></trkpt><trkpt lat="45.43876130204602" lon="8.51406717869388"><ele>148.0</ele><time>2026-04-06T09:05:30Z</time></trkpt><trkpt lat="45.43888004572109" lon="8.514114602057953"><ele>148.0</ele><time>2026-04-06T09:05:31Z</time></trkpt><trkpt lat="45.438998937343776" lon="8.514161157764834"><ele>148.20000000000002</ele><time>2026-04-06T09:05:32Z</time></trkpt><trkpt lat="45.43910594479104" lon="8.514207121954009"><ele>148.4</ele><time>2026-04-06T09:05:33Z</time></trkpt><trkpt lat="45.439208306346416" lon="8.514252725260548"><ele>148.60000000000002</ele><time>2026-04-06T09:05:34Z</time></trkpt><trkpt lat="45.43931372955067" lon="8.514297253391943"><ele>148.8</ele><time>2026-04-06T09:05:35Z</time></trkpt><trkpt lat="45.439420875659344" lon="8.514341119655539"><ele>149.0</ele><time>2026-04-06T09:05:36Z</time></trkpt><trkpt lat="45.439536001167056" lon="8.51438842236344"><ele>148.75</ele><time>2026-04-06T09:05:37Z</time></trkpt><trkpt lat="45.43965750111306" lon="8.514437069678285"><ele>148.5</ele><time>2026-04-06T09:05:38Z</time></trkpt><trkpt lat="45.43977472230325" lon="8.51448331061325"><ele>148.25</ele><time>2026-04-06T09:05:39Z</time></trkpt><trkpt lat="45.439882632401854" lon="8.514525836108746"><ele>148.0</ele><time>2026-04-06T09:05:40Z</time></trkpt><trkpt lat="45.43998040400773" lon="8.514565684626405"><ele>148.0</ele><time>2026-04-06T09:05:41Z</time></trkpt><trkpt lat="45.440066761885056" lon="8.514600097549335"><ele>148.0</ele><time>2026-04-06T09:05:42Z</time></trkpt><trkpt lat="45.44013993242064" lon="8.514616029888613"><ele>148.0</ele><time>2026-04-06T09:05:43Z</time></trkpt><trkpt lat="45.4402033764556" lon="8.514577974143783"><ele>148.0</ele><time>2026-04-06T09:05:44Z</time></trkpt><trkpt lat="45.44026188329053" lon="8.514486998312456"><ele>148.0</ele><time>2026-04-06T09:05:45Z</time></trkpt><trkpt lat="45.44033174323422" lon="8.514413637771305"><ele>148.0</ele><time>2026-04-06T09:05:46Z</time></trkpt><trkpt lat="45.44041751006744" lon="8.514407677536688"><ele>148.0</ele><time>2026-04-06T09:05:47Z</time></trkpt><trkpt lat="45.44051437355543" lon="8.514422608816863"><ele>148.0</ele><time>2026-04-06T09:05:48Z</time></trkpt><trkpt lat="45.44062263993808" lon="8.514436953314865"><ele>148.0</ele><time>2026-04-06T09:05:49Z</time></trkpt><trkpt lat="45.440737944383535" lon="8.514450984294884"><ele>148.0</ele><time>2026-04-06T09:05:50Z</time></trkpt><trkpt lat="45.440862876156004" lon="8.514463120347285"><ele>148.0</ele><time>2026-04-06T09:05:51Z</time></trkpt><trkpt lat="45.44100018746354" lon="8.514474950177402"><ele>148.0</ele><time>2026-04-06T09:05:52Z</time></trkpt><trkpt lat="45.44114640653821" lon="8.514511679505967"><ele>148.0</ele><time>2026-04-06T09:05:53Z</time></trkpt><trkpt lat="45.44130600156555" lon="8.514527649062602"><ele>148.0</ele><time>2026-04-06T09:05:54Z</time></trkpt><trkpt lat="45.44148007085045" lon="8.514545066957426"><ele>148.0</ele><time>2026-04-06T09:05:55Z</time></trkpt><trkpt lat="45.441666271433455" lon="8.514542360202414"><ele>148.0</ele><time>2026-04-06T09:05:56Z</time></trkpt><trkpt lat="45.44186407772224" lon="8.51456309845243"><ele>148.0</ele><time>2026-04-06T09:05:57Z</time></trkpt><trkpt lat="45.442069993009525" lon="8.514583210076232"><ele>148.33333333333334</ele><time>2026-04-06T09:05:58Z</time></trkpt><trkpt lat="45.442274828140214" lon="8.514603678854119"><ele>148.66666666666666</ele><time>2026-04-06T09:05:59Z</time></trkpt><trkpt lat="45.44248441901251" lon="8.514624837133017"><ele>149.0</ele><time>2026-04-06T09:06:00Z</time></trkpt><trkpt lat="45.442697655095024" lon="8.514646968076077"><ele>149.0</ele><time>2026-04-06T09:06:01Z</time></trkpt><trkpt lat="45.44291542848973" lon="8.51466931600183"><ele>149.0</ele><time>2026-04-06T09:06:02Z</time></trkpt><trkpt lat="45.44313586226897" lon="8.514692095336002"><ele>149.0</ele><time>2026-04-06T09:06:03Z</time></trkpt><trkpt lat="45.44335890399285" lon="8.51471427155304"><ele>149.0</ele><time>2026-04-06T09:06:04Z</time></trkpt><trkpt lat="45.44358441145811" lon="8.514734691343916"><ele>149.0</ele><time>2026-04-06T09:06:05Z</time></trkpt><trkpt lat="45.44381153629482" lon="8.514755594618794"><ele>148.0</ele><time>2026-04-06T09:06:06Z</time></trkpt><trkpt lat="45.44404029439371" lon="8.514778418758135"><ele>147.0</ele><time>2026-04-06T09:06:07Z</time></trkpt><trkpt lat="45.444268150968746" lon="8.514800398621958"><ele>147.0</ele><time>2026-04-06T09:06:08Z</time></trkpt><trkpt lat="45.444497544047316" lon="8.514823354354133"><ele>147.0</ele><time>2026-04-06T09:06:09Z</time></trkpt><trkpt lat="45.44472469003874" lon="8.514845620966753"><ele>148.0</ele><time>2026-04-06T09:06:10Z</time></trkpt><trkpt lat="45.444952138180284" lon="8.514867890679483"><ele>149.0</ele><time>2026-04-06T09:06:11Z</time></trkpt><trkpt lat="45.44517878256172" lon="8.514890477653468"><ele>149.0</ele><time>2026-04-06T09:06:12Z</time></trkpt><trkpt lat="45.445401376270695" lon="8.514912228262089"><ele>149.0</ele><time>2026-04-06T09:06:13Z</time></trkpt><trkpt lat="45.44562243546369" lon="8.514934510936163"><ele>149.0</ele><time>2026-04-06T09:06:14Z</time></trkpt><trkpt lat="45.44584485683003" lon="8.514962310490958"><ele>148.5</ele><time>2026-04-06T09:06:15Z</time></trkpt><trkpt lat="45.446067821136495" lon="8.515000788339316"><ele>148.0</ele><time>2026-04-06T09:06:16Z</time></trkpt><trkpt lat="45.44629189066001" lon="8.515047379644225"><ele>149.0</ele><time>2026-04-06T09:06:17Z</time></trkpt><trkpt lat="45.44651571275369" lon="8.51509746628174"><ele>150.0</ele><time>2026-04-06T09:06:18Z</time></trkpt><trkpt lat="45.446738731904205" lon="8.515144546332365"><ele>150.0</ele><time>2026-04-06T09:06:19Z</time></trkpt><trkpt lat="45.44696168265865" lon="8.515191148685354"><ele>150.0</ele><time>2026-04-06T09:06:20Z</time></trkpt><trkpt lat="45.44718530200369" lon="8.515238917437044"><ele>150.0</ele><time>2026-04-06T09:06:21Z</time></trkpt><trkpt lat="45.44740899137781" lon="8.515286167126023"><ele>150.0</ele><time>2026-04-06T09:06:22Z</time></trkpt><trkpt lat="45.447631579236976" lon="8.515332485047937"><ele>150.0</ele><time>2026-04-06T09:06:23Z</time></trkpt><trkpt lat="45.44785261510951" lon="8.515379877874128"><ele>150.0</ele><time>2026-04-06T09:06:24Z</time></trkpt><trkpt lat="45.44806351526329" lon="8.515427516783822"><ele>150.0</ele><time>2026-04-06T09:06:25Z</time></trkpt><trkpt lat="45.44826202634729" lon="8.515473347874476"><ele>149.66666666666666</ele><time>2026-04-06T09:06:26Z</time></trkpt><trkpt lat="45.44846003821858" lon="8.515522806891527"><ele>149.33333333333331</ele><time>2026-04-06T09:06:27Z</time></trkpt><trkpt lat="45.448661581538666" lon="8.515566454337803"><ele>149.0</ele><time>2026-04-06T09:06:28Z</time></trkpt><trkpt lat="45.44886640439963" lon="8.515614675897094"><ele>149.0</ele><time>2026-04-06T09:06:29Z</time></trkpt><trkpt lat="45.449076731192775" lon="8.515578952280524"><ele>149.0</ele><time>2026-04-06T09:06:30Z</time></trkpt><trkpt lat="45.44928228997629" lon="8.515543470864422"><ele>149.0</ele><time>2026-04-06T09:06:31Z</time></trkpt><trkpt lat="45.449493243309384" lon="8.515497214878371"><ele>149.5</ele><time>2026-04-06T09:06:32Z</time></trkpt><trkpt lat="45.449714434658695" lon="8.51547812824269"><ele>150.0</ele><time>2026-04-06T09:06:33Z</time></trkpt><trkpt lat="45.449937934132656" lon="8.515411619201437"><ele>150.5</ele><time>2026-04-06T09:06:34Z</time></trkpt><trkpt lat="45.4501697255738" lon="8.51539095629642"><ele>151.0</ele><time>2026-04-06T09:06:35Z</time></trkpt><trkpt lat="45.45040121801707" lon="8.51534731675804"><ele>150.5</ele><time>2026-04-06T09:06:36Z</time></trkpt><trkpt lat="45.45063035149692" lon="8.515304121799133"><ele>150.0</ele><time>2026-04-06T09:06:37Z</time></trkpt><trkpt lat="45.45085732732297" lon="8.515261333640536"><ele>150.0</ele><time>2026-04-06T09:06:38Z</time></trkpt><trkpt lat="45.451082613361315" lon="8.515218863982588"><ele>150.0</ele><time>2026-04-06T09:06:39Z</time></trkpt><trkpt lat="45.451306275155595" lon="8.515153855525165"><ele>150.5</ele><time>2026-04-06T09:06:39.999Z</time></trkpt><trkpt lat="45.451532963097726" lon="8.515111642443948"><ele>151.0</ele><time>2026-04-06T09:06:40.999Z</time></trkpt><trkpt lat="45.451759465229635" lon="8.515067500913279"><ele>151.0</ele><time>2026-04-06T09:06:41.999Z</time></trkpt><trkpt lat="45.45199017866077" lon="8.515047774925133"><ele>151.0</ele><time>2026-04-06T09:06:42.999Z</time></trkpt><trkpt lat="45.45221892247744" lon="8.515004653480503"><ele>151.0</ele><time>2026-04-06T09:06:43.999Z</time></trkpt><trkpt lat="45.452446418858955" lon="8.5149617668464"><ele>151.0</ele><time>2026-04-06T09:06:44.999Z</time></trkpt><trkpt lat="45.45267146860913" lon="8.514919344129542"><ele>151.0</ele><time>2026-04-06T09:06:45.999Z</time></trkpt><trkpt lat="45.45289682043192" lon="8.514855970027043"><ele>151.0</ele><time>2026-04-06T09:06:46.999Z</time></trkpt><trkpt lat="45.453127035015704" lon="8.514829012068228"><ele>152.0</ele><time>2026-04-06T09:06:47.999Z</time></trkpt><trkpt lat="45.45335677556027" lon="8.514814107665657"><ele>153.0</ele><time>2026-04-06T09:06:48.999Z</time></trkpt><trkpt lat="45.453586194319584" lon="8.514805284871661"><ele>152.66666666666666</ele><time>2026-04-06T09:06:49.999Z</time></trkpt><trkpt lat="45.453809062803494" lon="8.514795341197091"><ele>152.33333333333331</ele><time>2026-04-06T09:06:50.999Z</time></trkpt><trkpt lat="45.4540222139269" lon="8.514786412937841"><ele>152.0</ele><time>2026-04-06T09:06:51.999Z</time></trkpt><trkpt lat="45.45422531362661" lon="8.51478019414061"><ele>152.0</ele><time>2026-04-06T09:06:52.999Z</time></trkpt><trkpt lat="45.454413412305705" lon="8.514774656045416"><ele>152.0</ele><time>2026-04-06T09:06:53.999Z</time></trkpt><trkpt lat="45.45458501958316" lon="8.514768323547187"><ele>152.0</ele><time>2026-04-06T09:06:54.999Z</time></trkpt><trkpt lat="45.45472260072183" lon="8.514761753508756"><ele>152.0</ele><time>2026-04-06T09:06:55.999Z</time></trkpt><trkpt lat="45.454845455958136" lon="8.514755213350373"><ele>152.0</ele><time>2026-04-06T09:06:56.999Z</time></trkpt><trkpt lat="45.454944914275615" lon="8.514750614217803"><ele>152.0</ele><time>2026-04-06T09:06:57.999Z</time></trkpt><trkpt lat="45.45501151892349" lon="8.514750518455896"><ele>152.0</ele><time>2026-04-06T09:06:58.999Z</time></trkpt><trkpt lat="45.45507453062772" lon="8.514796365000644"><ele>152.0</ele><time>2026-04-06T09:07:02.999Z</time></trkpt><trkpt lat="45.45506247714506" lon="8.515001041221298"><ele>152.0</ele><time>2026-04-06T09:07:04.999Z</time></trkpt><trkpt lat="45.45505291603202" lon="8.515129756958423"><ele>152.0</ele><time>2026-04-06T09:07:05.999Z</time></trkpt><trkpt lat="45.455045440544126" lon="8.51528351138161"><ele>152.0</ele><time>2026-04-06T09:07:06.999Z</time></trkpt><trkpt lat="45.45503893296104" lon="8.5154636670086"><ele>152.0</ele><time>2026-04-06T09:07:07.999Z</time></trkpt><trkpt lat="45.4550324187832" lon="8.515648225550814"><ele>152.0</ele><time>2026-04-06T09:07:08.999Z</time></trkpt><trkpt lat="45.45502468117357" lon="8.515855571334555"><ele>152.0</ele><time>2026-04-06T09:07:09.999Z</time></trkpt><trkpt lat="45.45501584248151" lon="8.516074538908487"><ele>152.0</ele><time>2026-04-06T09:07:10.999Z</time></trkpt><trkpt lat="45.45500573547536" lon="8.5163022893146"><ele>152.33333333333331</ele><time>2026-04-06T09:07:11.999Z</time></trkpt><trkpt lat="45.45499537836367" lon="8.51654700327852"><ele>152.66666666666666</ele><time>2026-04-06T09:07:12.999Z</time></trkpt><trkpt lat="45.4549856759629" lon="8.51680679050167"><ele>153.0</ele><time>2026-04-06T09:07:13.999Z</time></trkpt><trkpt lat="45.454975339919365" lon="8.517080918001557"><ele>153.0</ele><time>2026-04-06T09:07:14.999Z</time></trkpt><trkpt lat="45.454963215031384" lon="8.517353805538002"><ele>153.0</ele><time>2026-04-06T09:07:15.999Z</time></trkpt><trkpt lat="45.45495152303745" lon="8.517630628089638"><ele>153.0</ele><time>2026-04-06T09:07:16.999Z</time></trkpt><trkpt lat="45.45493988418277" lon="8.517915430150262"><ele>153.0</ele><time>2026-04-06T09:07:17.999Z</time></trkpt><trkpt lat="45.4549286263363" lon="8.51820588445621"><ele>153.0</ele><time>2026-04-06T09:07:18.999Z</time></trkpt><trkpt lat="45.45491786223105" lon="8.518503176457264"><ele>153.0</ele><time>2026-04-06T09:07:20Z</time></trkpt><trkpt lat="45.454906632607084" lon="8.518805715436528"><ele>153.0</ele><time>2026-04-06T09:07:21Z</time></trkpt><trkpt lat="45.45489479971506" lon="8.51911335353276"><ele>153.0</ele><time>2026-04-06T09:07:22Z</time></trkpt><trkpt lat="45.45488121313977" lon="8.51942614085039"><ele>153.0</ele><time>2026-04-06T09:07:23Z</time></trkpt><trkpt lat="45.45486859434275" lon="8.519743542625513"><ele>153.0</ele><time>2026-04-06T09:07:24Z</time></trkpt><trkpt lat="45.45485609594244" lon="8.520064614617292"><ele>153.0</ele><time>2026-04-06T09:07:25Z</time></trkpt><trkpt lat="45.45484334070391" lon="8.520385745779306"><ele>153.0</ele><time>2026-04-06T09:07:26Z</time></trkpt><trkpt lat="45.454832465671664" lon="8.520696225577487"><ele>153.0</ele><time>2026-04-06T09:07:27Z</time></trkpt><trkpt lat="45.4548204297729" lon="8.521007008097634"><ele>153.0</ele><time>2026-04-06T09:07:28Z</time></trkpt><trkpt lat="45.45480689782048" lon="8.521325134568755"><ele>152.5</ele><time>2026-04-06T09:07:29Z</time></trkpt><trkpt lat="45.45479466555967" lon="8.521647029522056"><ele>152.0</ele><time>2026-04-06T09:07:30Z</time></trkpt><trkpt lat="45.45478176106167" lon="8.521966757607718"><ele>152.0</ele><time>2026-04-06T09:07:31Z</time></trkpt><trkpt lat="45.45476950580634" lon="8.522285335041484"><ele>152.0</ele><time>2026-04-06T09:07:32Z</time></trkpt><trkpt lat="45.45475783339784" lon="8.522603345385601"><ele>152.0</ele><time>2026-04-06T09:07:33Z</time></trkpt><trkpt lat="45.454745694677875" lon="8.522921100970198"><ele>152.0</ele><time>2026-04-06T09:07:34Z</time></trkpt><trkpt lat="45.45473188551483" lon="8.523243539744346"><ele>152.0</ele><time>2026-04-06T09:07:35Z</time></trkpt><trkpt lat="45.45471778802076" lon="8.523563375186413"><ele>152.33333333333331</ele><time>2026-04-06T09:07:36Z</time></trkpt><trkpt lat="45.454706908601075" lon="8.523882974634798"><ele>152.66666666666666</ele><time>2026-04-06T09:07:37Z</time></trkpt><trkpt lat="45.454696712685916" lon="8.524199909040746"><ele>153.0</ele><time>2026-04-06T09:07:38Z</time></trkpt><trkpt lat="45.454685396028424" lon="8.52451000229563"><ele>153.0</ele><time>2026-04-06T09:07:39Z</time></trkpt><trkpt lat="45.45467376307548" lon="8.524800669978065"><ele>153.0</ele><time>2026-04-06T09:07:40Z</time></trkpt><trkpt lat="45.45466205372455" lon="8.525085594838805"><ele>153.0</ele><time>2026-04-06T09:07:41Z</time></trkpt><trkpt lat="45.45465261268962" lon="8.525348842843055"><ele>153.33333333333334</ele><time>2026-04-06T09:07:42Z</time></trkpt><trkpt lat="45.454642150207135" lon="8.525593755818772"><ele>153.66666666666669</ele><time>2026-04-06T09:07:43Z</time></trkpt><trkpt lat="45.454630474835994" lon="8.525812808437347"><ele>154.0</ele><time>2026-04-06T09:07:44Z</time></trkpt><trkpt lat="45.454615768316124" lon="8.5260073226492"><ele>153.6</ele><time>2026-04-06T09:07:45Z</time></trkpt><trkpt lat="45.45459420106553" lon="8.52617219738864"><ele>153.2</ele><time>2026-04-06T09:07:46Z</time></trkpt><trkpt lat="45.45455386553468" lon="8.526326498360724"><ele>152.79999999999998</ele><time>2026-04-06T09:07:47Z</time></trkpt><trkpt lat="45.454507722294" lon="8.526455471145924"><ele>152.4</ele><time>2026-04-06T09:07:48Z</time></trkpt><trkpt lat="45.45449579148848" lon="8.526572363708738"><ele>152.0</ele><time>2026-04-06T09:07:49Z</time></trkpt><trkpt lat="45.45453028624886" lon="8.526665856655848"><ele>152.0</ele><time>2026-04-06T09:07:50Z</time></trkpt><trkpt lat="45.45459609125754" lon="8.526722545216819"><ele>152.0</ele><time>2026-04-06T09:07:51Z</time></trkpt><trkpt lat="45.454684834845" lon="8.52671081567787"><ele>152.0</ele><time>2026-04-06T09:07:52Z</time></trkpt><trkpt lat="45.45477733055414" lon="8.526654924373043"><ele>152.0</ele><time>2026-04-06T09:07:53Z</time></trkpt><trkpt lat="45.45487578772185" lon="8.526572714074211"><ele>152.0</ele><time>2026-04-06T09:07:54Z</time></trkpt><trkpt lat="45.454986355912865" lon="8.526532097474592"><ele>152.0</ele><time>2026-04-06T09:07:55Z</time></trkpt><trkpt lat="45.45512166453892" lon="8.526534080268497"><ele>152.0</ele><time>2026-04-06T09:07:56Z</time></trkpt><trkpt lat="45.45525994111468" lon="8.526532405135544"><ele>152.0</ele><time>2026-04-06T09:07:57Z</time></trkpt><trkpt lat="45.45540454558884" lon="8.526527731383682"><ele>152.0</ele><time>2026-04-06T09:07:58Z</time></trkpt><trkpt lat="45.45555891885271" lon="8.526520661203651"><ele>152.0</ele><time>2026-04-06T09:07:59Z</time></trkpt><trkpt lat="45.455724064898796" lon="8.526515223410751"><ele>152.0</ele><time>2026-04-06T09:08:00Z</time></trkpt><trkpt lat="45.4558990012623" lon="8.526509052655493"><ele>152.0</ele><time>2026-04-06T09:08:01Z</time></trkpt><trkpt lat="45.45608311859947" lon="8.526503995281637"><ele>152.0</ele><time>2026-04-06T09:08:02Z</time></trkpt><trkpt lat="45.45627695412824" lon="8.526497900377258"><ele>152.0</ele><time>2026-04-06T09:08:03Z</time></trkpt><trkpt lat="45.45647199677117" lon="8.526491480433622"><ele>152.0</ele><time>2026-04-06T09:08:04Z</time></trkpt><trkpt lat="45.4566688308042" lon="8.52648272067332"><ele>152.33333333333331</ele><time>2026-04-06T09:08:05Z</time></trkpt><trkpt lat="45.4568715954766" lon="8.52647475468043"><ele>152.66666666666666</ele><time>2026-04-06T09:08:06Z</time></trkpt><trkpt lat="45.45708085533916" lon="8.526467466039993"><ele>153.0</ele><time>2026-04-06T09:08:07Z</time></trkpt><trkpt lat="45.45729476629678" lon="8.526461015487289"><ele>153.33333333333334</ele><time>2026-04-06T09:08:08Z</time></trkpt><trkpt lat="45.45751294853642" lon="8.526452826987322"><ele>153.66666666666669</ele><time>2026-04-06T09:08:09Z</time></trkpt><trkpt lat="45.45773379356259" lon="8.526444473909747"><ele>154.0</ele><time>2026-04-06T09:08:10Z</time></trkpt><trkpt lat="45.457954748385774" lon="8.526437878918241"><ele>154.33333333333334</ele><time>2026-04-06T09:08:11Z</time></trkpt><trkpt lat="45.45817329006502" lon="8.526429814626653"><ele>154.66666666666666</ele><time>2026-04-06T09:08:12Z</time></trkpt><trkpt lat="45.458387477949415" lon="8.52642123985746"><ele>155.0</ele><time>2026-04-06T09:08:13Z</time></trkpt><trkpt lat="45.4586003218502" lon="8.526412706872772"><ele>154.66666666666666</ele><time>2026-04-06T09:08:14Z</time></trkpt><trkpt lat="45.458814485441586" lon="8.526404911182132"><ele>154.33333333333334</ele><time>2026-04-06T09:08:15Z</time></trkpt><trkpt lat="45.459031580742895" lon="8.526398199499337"><ele>154.0</ele><time>2026-04-06T09:08:16Z</time></trkpt><trkpt lat="45.45924994422788" lon="8.526392688510054"><ele>154.0</ele><time>2026-04-06T09:08:17Z</time></trkpt><trkpt lat="45.459471584153675" lon="8.526386093606721"><ele>154.0</ele><time>2026-04-06T09:08:18Z</time></trkpt><trkpt lat="45.45969464842108" lon="8.526379589320802"><ele>154.0</ele><time>2026-04-06T09:08:19Z</time></trkpt><trkpt lat="45.45991912439502" lon="8.526371426053041"><ele>154.33333333333334</ele><time>2026-04-06T09:08:20Z</time></trkpt><trkpt lat="45.46014340430424" lon="8.526363406731496"><ele>154.66666666666666</ele><time>2026-04-06T09:08:21Z</time></trkpt><trkpt lat="45.46036681165622" lon="8.526356310179143"><ele>155.0</ele><time>2026-04-06T09:08:22Z</time></trkpt><trkpt lat="45.46058825009003" lon="8.526346400570155"><ele>155.33333333333331</ele><time>2026-04-06T09:08:23Z</time></trkpt><trkpt lat="45.46080926162762" lon="8.526334090118269"><ele>155.66666666666666</ele><time>2026-04-06T09:08:24Z</time></trkpt><trkpt lat="45.46102943574044" lon="8.52631698451729"><ele>156.0</ele><time>2026-04-06T09:08:25Z</time></trkpt><trkpt lat="45.46124879265836" lon="8.526297080924454"><ele>155.66666666666666</ele><time>2026-04-06T09:08:26Z</time></trkpt><trkpt lat="45.46146870445194" lon="8.526273816992408"><ele>155.33333333333331</ele><time>2026-04-06T09:08:27Z</time></trkpt><trkpt lat="45.4616885208008" lon="8.52625010196672"><ele>155.0</ele><time>2026-04-06T09:08:28Z</time></trkpt><trkpt lat="45.461912619124256" lon="8.526228494334175"><ele>155.0</ele><time>2026-04-06T09:08:29Z</time></trkpt><trkpt lat="45.46213706647732" lon="8.526207383272249"><ele>155.0</ele><time>2026-04-06T09:08:30Z</time></trkpt><trkpt lat="45.46236038854464" lon="8.52618787479031"><ele>155.0</ele><time>2026-04-06T09:08:31Z</time></trkpt><trkpt lat="45.46258317553251" lon="8.526167057777865"><ele>155.0</ele><time>2026-04-06T09:08:32Z</time></trkpt><trkpt lat="45.462806892183806" lon="8.52614410148428"><ele>155.0</ele><time>2026-04-06T09:08:33Z</time></trkpt><trkpt lat="45.46302993477283" lon="8.526121529776278"><ele>155.0</ele><time>2026-04-06T09:08:34Z</time></trkpt><trkpt lat="45.46325323563064" lon="8.526100769703856"><ele>155.0</ele><time>2026-04-06T09:08:35Z</time></trkpt><trkpt lat="45.46347637315367" lon="8.526075607190926"><ele>155.0</ele><time>2026-04-06T09:08:36Z</time></trkpt><trkpt lat="45.463697486185296" lon="8.526050786735516"><ele>155.0</ele><time>2026-04-06T09:08:37Z</time></trkpt><trkpt lat="45.46392033952266" lon="8.526026027516279"><ele>155.66666666666666</ele><time>2026-04-06T09:08:38Z</time></trkpt><trkpt lat="45.46414216240551" lon="8.526002604054186"><ele>156.33333333333334</ele><time>2026-04-06T09:08:39Z</time></trkpt><trkpt lat="45.464364399785545" lon="8.525980565549636"><ele>157.0</ele><time>2026-04-06T09:08:40Z</time></trkpt><trkpt lat="45.46458704667718" lon="8.525957992944072"><ele>157.0</ele><time>2026-04-06T09:08:41Z</time></trkpt><trkpt lat="45.46480970933476" lon="8.525935752083427"><ele>157.0</ele><time>2026-04-06T09:08:42Z</time></trkpt><trkpt lat="45.46503212862738" lon="8.525915338704586"><ele>157.0</ele><time>2026-04-06T09:08:43Z</time></trkpt><trkpt lat="45.46525664006624" lon="8.52589572547498"><ele>157.0</ele><time>2026-04-06T09:08:44Z</time></trkpt><trkpt lat="45.465480762112016" lon="8.52587378749281"><ele>157.0</ele><time>2026-04-06T09:08:45Z</time></trkpt><trkpt lat="45.46570622339408" lon="8.525850145580636"><ele>157.0</ele><time>2026-04-06T09:08:46Z</time></trkpt><trkpt lat="45.46592888141305" lon="8.525826562955325"><ele>157.0</ele><time>2026-04-06T09:08:47Z</time></trkpt><trkpt lat="45.46614879330825" lon="8.525803389625676"><ele>157.0</ele><time>2026-04-06T09:08:47.999Z</time></trkpt><trkpt lat="45.46636851006733" lon="8.525778803050516"><ele>157.0</ele><time>2026-04-06T09:08:48.999Z</time></trkpt><trkpt lat="45.46659149600895" lon="8.525752061562507"><ele>157.0</ele><time>2026-04-06T09:08:49.999Z</time></trkpt><trkpt lat="45.46681447542258" lon="8.525715150999034"><ele>157.0</ele><time>2026-04-06T09:08:50.999Z</time></trkpt><trkpt lat="45.46703629545093" lon="8.5256609092378"><ele>157.0</ele><time>2026-04-06T09:08:51.999Z</time></trkpt><trkpt lat="45.46725631532034" lon="8.52559418503778"><ele>157.0</ele><time>2026-04-06T09:08:52.999Z</time></trkpt><trkpt lat="45.46747271471185" lon="8.525530237683542"><ele>157.0</ele><time>2026-04-06T09:08:53.999Z</time></trkpt><trkpt lat="45.46769165740978" lon="8.525468445180964"><ele>157.0</ele><time>2026-04-06T09:08:54.999Z</time></trkpt><trkpt lat="45.467908671793836" lon="8.525409729361202"><ele>157.0</ele><time>2026-04-06T09:08:55.999Z</time></trkpt><trkpt lat="45.468126991777794" lon="8.525352305457918"><ele>157.0</ele><time>2026-04-06T09:08:56.999Z</time></trkpt><trkpt lat="45.46834077484936" lon="8.525292236966019"><ele>157.0</ele><time>2026-04-06T09:08:57.999Z</time></trkpt><trkpt lat="45.46855428182813" lon="8.525223525969745"><ele>157.0</ele><time>2026-04-06T09:08:58.999Z</time></trkpt><trkpt lat="45.468766693170124" lon="8.525129879971484"><ele>157.0</ele><time>2026-04-06T09:08:59.999Z</time></trkpt><trkpt lat="45.468972976110194" lon="8.525006293882422"><ele>157.0</ele><time>2026-04-06T09:09:00.999Z</time></trkpt><trkpt lat="45.46917148802663" lon="8.524853302504361"><ele>157.0</ele><time>2026-04-06T09:09:01.999Z</time></trkpt><trkpt lat="45.4693639280221" lon="8.524685851691965"><ele>158.0</ele><time>2026-04-06T09:09:02.999Z</time></trkpt><trkpt lat="45.46955352097422" lon="8.524511928324888"><ele>159.0</ele><time>2026-04-06T09:09:03.999Z</time></trkpt><trkpt lat="45.46974209519839" lon="8.524336033020582"><ele>159.5</ele><time>2026-04-06T09:09:04.999Z</time></trkpt><trkpt lat="45.469932765421476" lon="8.524160266615427"><ele>160.0</ele><time>2026-04-06T09:09:05.999Z</time></trkpt><trkpt lat="45.47012168324798" lon="8.523985209955296"><ele>160.0</ele><time>2026-04-06T09:09:06.999Z</time></trkpt><trkpt lat="45.47031100652219" lon="8.523808641355973"><ele>160.0</ele><time>2026-04-06T09:09:07.999Z</time></trkpt><trkpt lat="45.47050167592974" lon="8.523634485763573"><ele>160.5</ele><time>2026-04-06T09:09:08.999Z</time></trkpt><trkpt lat="45.47069127823087" lon="8.523459781690157"><ele>161.0</ele><time>2026-04-06T09:09:09.999Z</time></trkpt><trkpt lat="45.4708796521416" lon="8.523286356326592"><ele>161.0</ele><time>2026-04-06T09:09:10.999Z</time></trkpt><trkpt lat="45.47106859556215" lon="8.523115939274533"><ele>161.0</ele><time>2026-04-06T09:09:11.999Z</time></trkpt><trkpt lat="45.47125500441128" lon="8.52294553441685"><ele>161.0</ele><time>2026-04-06T09:09:12.999Z</time></trkpt><trkpt lat="45.4714342850017" lon="8.52278086315993"><ele>160.33333333333331</ele><time>2026-04-06T09:09:13.999Z</time></trkpt><trkpt lat="45.471607577065356" lon="8.522617895930596"><ele>159.66666666666666</ele><time>2026-04-06T09:09:14.999Z</time></trkpt><trkpt lat="45.47178440529599" lon="8.522439084199373"><ele>159.0</ele><time>2026-04-06T09:09:15.999Z</time></trkpt><trkpt lat="45.4719560646284" lon="8.522233339046839"><ele>159.0</ele><time>2026-04-06T09:09:16.999Z</time></trkpt><trkpt lat="45.472108905738175" lon="8.52200605392559"><ele>159.0</ele><time>2026-04-06T09:09:17.999Z</time></trkpt><trkpt lat="45.47224063439073" lon="8.521758308473732"><ele>159.0</ele><time>2026-04-06T09:09:18.999Z</time></trkpt><trkpt lat="45.47235116144289" lon="8.521490396508485"><ele>159.33333333333334</ele><time>2026-04-06T09:09:19.999Z</time></trkpt><trkpt lat="45.47243572134604" lon="8.521207211005185"><ele>159.66666666666669</ele><time>2026-04-06T09:09:20.999Z</time></trkpt><trkpt lat="45.47250073520956" lon="8.520914390285899"><ele>160.0</ele><time>2026-04-06T09:09:21.999Z</time></trkpt><trkpt lat="45.472543994777475" lon="8.520602678342355"><ele>160.0</ele><time>2026-04-06T09:09:22.999Z</time></trkpt><trkpt lat="45.47257621542748" lon="8.520277209120522"><ele>160.0</ele><time>2026-04-06T09:09:23.999Z</time></trkpt><trkpt lat="45.47260531945074" lon="8.519946534308136"><ele>160.0</ele><time>2026-04-06T09:09:24.999Z</time></trkpt><trkpt lat="45.472633754791936" lon="8.519609303281523"><ele>160.0</ele><time>2026-04-06T09:09:26Z</time></trkpt><trkpt lat="45.47266127262548" lon="8.51927407271994"><ele>160.0</ele><time>2026-04-06T09:09:27Z</time></trkpt><trkpt lat="45.47268826635796" lon="8.51894134312006"><ele>160.0</ele><time>2026-04-06T09:09:28Z</time></trkpt><trkpt lat="45.4727131332044" lon="8.518610023946216"><ele>159.5</ele><time>2026-04-06T09:09:29Z</time></trkpt><trkpt lat="45.47273615175181" lon="8.518277809147143"><ele>159.0</ele><time>2026-04-06T09:09:30Z</time></trkpt><trkpt lat="45.47275555232986" lon="8.517942423895656"><ele>159.0</ele><time>2026-04-06T09:09:31Z</time></trkpt><trkpt lat="45.472769824209145" lon="8.517610597279571"><ele>159.0</ele><time>2026-04-06T09:09:32Z</time></trkpt><trkpt lat="45.472780694585374" lon="8.517279214452019"><ele>159.0</ele><time>2026-04-06T09:09:33Z</time></trkpt><trkpt lat="45.47279276442997" lon="8.516947233104133"><ele>159.0</ele><time>2026-04-06T09:09:34Z</time></trkpt><trkpt lat="45.47280570048523" lon="8.51661831890422"><ele>159.0</ele><time>2026-04-06T09:09:35Z</time></trkpt><trkpt lat="45.47281761738219" lon="8.51629002868916"><ele>159.0</ele><time>2026-04-06T09:09:36Z</time></trkpt><trkpt lat="45.47282964372514" lon="8.515961917358277"><ele>159.0</ele><time>2026-04-06T09:09:37Z</time></trkpt><trkpt lat="45.472840594615306" lon="8.515635552891265"><ele>159.0</ele><time>2026-04-06T09:09:38Z</time></trkpt><trkpt lat="45.47285086601566" lon="8.51530903814556"><ele>159.0</ele><time>2026-04-06T09:09:39Z</time></trkpt><trkpt lat="45.4728628144523" lon="8.514985601650494"><ele>159.0</ele><time>2026-04-06T09:09:40Z</time></trkpt><trkpt lat="45.47288030768085" lon="8.514663621604422"><ele>159.5</ele><time>2026-04-06T09:09:41Z</time></trkpt><trkpt lat="45.47291475205519" lon="8.514338448309845"><ele>160.0</ele><time>2026-04-06T09:09:42Z</time></trkpt><trkpt lat="45.47296959570405" lon="8.514025759619274"><ele>160.33333333333334</ele><time>2026-04-06T09:09:43Z</time></trkpt><trkpt lat="45.4730452379387" lon="8.513736858875292"><ele>160.66666666666666</ele><time>2026-04-06T09:09:44Z</time></trkpt><trkpt lat="45.47314991938415" lon="8.513455380655515"><ele>161.0</ele><time>2026-04-06T09:09:45Z</time></trkpt><trkpt lat="45.47328171771595" lon="8.513193609781165"><ele>161.0</ele><time>2026-04-06T09:09:46Z</time></trkpt><trkpt lat="45.47343482160767" lon="8.512950678710691"><ele>161.0</ele><time>2026-04-06T09:09:47Z</time></trkpt><trkpt lat="45.47360468201425" lon="8.512742072577723"><ele>161.0</ele><time>2026-04-06T09:09:48Z</time></trkpt><trkpt lat="45.473794208212844" lon="8.512556763873214"><ele>161.0</ele><time>2026-04-06T09:09:49Z</time></trkpt><trkpt lat="45.474000256461764" lon="8.512399273059062"><ele>161.0</ele><time>2026-04-06T09:09:50Z</time></trkpt><trkpt lat="45.47421577666782" lon="8.512260305160632"><ele>161.0</ele><time>2026-04-06T09:09:51Z</time></trkpt><trkpt lat="45.47442733666578" lon="8.512123199329428"><ele>161.0</ele><time>2026-04-06T09:09:52Z</time></trkpt><trkpt lat="45.47463051452248" lon="8.511984599739183"><ele>161.0</ele><time>2026-04-06T09:09:53Z</time></trkpt><trkpt lat="45.474826991940866" lon="8.511848712566316"><ele>161.0</ele><time>2026-04-06T09:09:54Z</time></trkpt><trkpt lat="45.47502745929934" lon="8.511710912914443"><ele>161.0</ele><time>2026-04-06T09:09:55Z</time></trkpt><trkpt lat="45.475232101332836" lon="8.511573562732378"><ele>161.0</ele><time>2026-04-06T09:09:56Z</time></trkpt><trkpt lat="45.475439865428854" lon="8.511435045583141"><ele>161.0</ele><time>2026-04-06T09:09:57Z</time></trkpt><trkpt lat="45.47565133600969" lon="8.511293351318383"><ele>161.0</ele><time>2026-04-06T09:09:58Z</time></trkpt><trkpt lat="45.47586336247513" lon="8.511147518117687"><ele>161.0</ele><time>2026-04-06T09:09:59Z</time></trkpt><trkpt lat="45.47607565539775" lon="8.510997548910364"><ele>161.0</ele><time>2026-04-06T09:10:00Z</time></trkpt><trkpt lat="45.47628395219988" lon="8.510847052849252"><ele>160.5</ele><time>2026-04-06T09:10:01Z</time></trkpt><trkpt lat="45.47648737241812" lon="8.51069295657905"><ele>160.0</ele><time>2026-04-06T09:10:02Z</time></trkpt><trkpt lat="45.476693421714515" lon="8.510537425093059"><ele>161.5</ele><time>2026-04-06T09:10:03Z</time></trkpt><trkpt lat="45.47690473134821" lon="8.510392364923408"><ele>163.0</ele><time>2026-04-06T09:10:04Z</time></trkpt><trkpt lat="45.47712043547747" lon="8.510260839444332"><ele>163.0</ele><time>2026-04-06T09:10:05Z</time></trkpt><trkpt lat="45.47733814612934" lon="8.510134584569878"><ele>163.0</ele><time>2026-04-06T09:10:06Z</time></trkpt><trkpt lat="45.47755672606091" lon="8.510009468026608"><ele>163.0</ele><time>2026-04-06T09:10:07Z</time></trkpt><trkpt lat="45.477773912373344" lon="8.50988366286495"><ele>163.0</ele><time>2026-04-06T09:10:08Z</time></trkpt><trkpt lat="45.47798407521795" lon="8.50975838927315"><ele>163.0</ele><time>2026-04-06T09:10:09Z</time></trkpt><trkpt lat="45.47819500987252" lon="8.509633593703457"><ele>163.0</ele><time>2026-04-06T09:10:10Z</time></trkpt><trkpt lat="45.47840434327179" lon="8.509508368276013"><ele>163.0</ele><time>2026-04-06T09:10:11Z</time></trkpt><trkpt lat="45.478614102731726" lon="8.509381801286093"><ele>163.0</ele><time>2026-04-06T09:10:12Z</time></trkpt><trkpt lat="45.478823880568186" lon="8.50925806314408"><ele>162.5</ele><time>2026-04-06T09:10:13Z</time></trkpt><trkpt lat="45.47903411949211" lon="8.50913553851009"><ele>162.0</ele><time>2026-04-06T09:10:14Z</time></trkpt><trkpt lat="45.47924364856198" lon="8.5090121997683"><ele>162.0</ele><time>2026-04-06T09:10:15Z</time></trkpt><trkpt lat="45.479453752340284" lon="8.508891555520211"><ele>162.0</ele><time>2026-04-06T09:10:16Z</time></trkpt><trkpt lat="45.47966578133268" lon="8.508777130212911"><ele>163.0</ele><time>2026-04-06T09:10:17Z</time></trkpt><trkpt lat="45.47988147910285" lon="8.508679434504794"><ele>164.0</ele><time>2026-04-06T09:10:18Z</time></trkpt><trkpt lat="45.48010069376826" lon="8.508598496080909"><ele>164.0</ele><time>2026-04-06T09:10:19Z</time></trkpt><trkpt lat="45.4803201519297" lon="8.508526893418246"><ele>164.0</ele><time>2026-04-06T09:10:20Z</time></trkpt><trkpt lat="45.480538772328664" lon="8.508455030455469"><ele>164.0</ele><time>2026-04-06T09:10:21Z</time></trkpt><trkpt lat="45.48075604007546" lon="8.508375491329712"><ele>164.0</ele><time>2026-04-06T09:10:22Z</time></trkpt><trkpt lat="45.48096951967345" lon="8.508282443106658"><ele>164.0</ele><time>2026-04-06T09:10:23Z</time></trkpt><trkpt lat="45.48117950262634" lon="8.50817976907876"><ele>164.0</ele><time>2026-04-06T09:10:24Z</time></trkpt><trkpt lat="45.48139033476922" lon="8.508068797494305"><ele>164.0</ele><time>2026-04-06T09:10:25Z</time></trkpt><trkpt lat="45.48160131118658" lon="8.50795652872164"><ele>164.0</ele><time>2026-04-06T09:10:26Z</time></trkpt><trkpt lat="45.481811577265006" lon="8.507841885963474"><ele>164.5</ele><time>2026-04-06T09:10:27Z</time></trkpt><trkpt lat="45.48202498723683" lon="8.507722682696906"><ele>165.0</ele><time>2026-04-06T09:10:28Z</time></trkpt><trkpt lat="45.48223334233565" lon="8.507590424333529"><ele>164.0</ele><time>2026-04-06T09:10:29Z</time></trkpt><trkpt lat="45.482433183366574" lon="8.507433179600255"><ele>163.0</ele><time>2026-04-06T09:10:30Z</time></trkpt><trkpt lat="45.48262730997435" lon="8.50726138942362"><ele>163.0</ele><time>2026-04-06T09:10:31Z</time></trkpt><trkpt lat="45.48281656219222" lon="8.507084887572626"><ele>163.0</ele><time>2026-04-06T09:10:32Z</time></trkpt><trkpt lat="45.48300374498006" lon="8.506904960759822"><ele>164.0</ele><time>2026-04-06T09:10:33Z</time></trkpt><trkpt lat="45.48319231820165" lon="8.506726183336685"><ele>165.0</ele><time>2026-04-06T09:10:34Z</time></trkpt><trkpt lat="45.48338084412221" lon="8.50654953361889"><ele>165.0</ele><time>2026-04-06T09:10:35Z</time></trkpt><trkpt lat="45.48356902265836" lon="8.50637316534688"><ele>165.0</ele><time>2026-04-06T09:10:36Z</time></trkpt><trkpt lat="45.483757069735404" lon="8.50619523844855"><ele>165.0</ele><time>2026-04-06T09:10:37Z</time></trkpt><trkpt lat="45.483945177849016" lon="8.50601933139551"><ele>165.0</ele><time>2026-04-06T09:10:38Z</time></trkpt><trkpt lat="45.484132845772315" lon="8.505842854456805"><ele>165.0</ele><time>2026-04-06T09:10:39Z</time></trkpt><trkpt lat="45.48432055547878" lon="8.505666117303864"><ele>165.0</ele><time>2026-04-06T09:10:40Z</time></trkpt><trkpt lat="45.48450794259675" lon="8.50549018003842"><ele>165.0</ele><time>2026-04-06T09:10:41Z</time></trkpt><trkpt lat="45.48469605881391" lon="8.505315531552014"><ele>166.33333333333334</ele><time>2026-04-06T09:10:42Z</time></trkpt><trkpt lat="45.484883873473414" lon="8.505140698560455"><ele>167.66666666666669</ele><time>2026-04-06T09:10:43Z</time></trkpt><trkpt lat="45.48506571600058" lon="8.504960641890584"><ele>169.0</ele><time>2026-04-06T09:10:44Z</time></trkpt><trkpt lat="45.48523155202037" lon="8.504769521721013"><ele>168.66666666666669</ele><time>2026-04-06T09:10:45Z</time></trkpt><trkpt lat="45.48537369750005" lon="8.504558289285976"><ele>168.33333333333334</ele><time>2026-04-06T09:10:46Z</time></trkpt><trkpt lat="45.48549407168175" lon="8.504328914150047"><ele>168.0</ele><time>2026-04-06T09:10:47Z</time></trkpt><trkpt lat="45.48560231911816" lon="8.50408211166235"><ele>168.0</ele><time>2026-04-06T09:10:48Z</time></trkpt><trkpt lat="45.48570774144556" lon="8.503841631251744"><ele>168.0</ele><time>2026-04-06T09:10:49Z</time></trkpt><trkpt lat="45.485807934438824" lon="8.50361573075557"><ele>168.0</ele><time>2026-04-06T09:10:50Z</time></trkpt><trkpt lat="45.48591412629897" lon="8.503404344948596"><ele>167.66666666666666</ele><time>2026-04-06T09:10:51Z</time></trkpt><trkpt lat="45.48599044246431" lon="8.503156409009478"><ele>167.33333333333331</ele><time>2026-04-06T09:10:52Z</time></trkpt><trkpt lat="45.48600391696824" lon="8.502874247045057"><ele>167.0</ele><time>2026-04-06T09:10:52.999Z</time></trkpt><trkpt lat="45.486010493757405" lon="8.502588130128647"><ele>167.0</ele><time>2026-04-06T09:10:53.999Z</time></trkpt><trkpt lat="45.48600666437573" lon="8.502293572364128"><ele>167.0</ele><time>2026-04-06T09:10:54.999Z</time></trkpt><trkpt lat="45.48600247618814" lon="8.50199361074225"><ele>167.0</ele><time>2026-04-06T09:10:55.999Z</time></trkpt><trkpt lat="45.48601663727477" lon="8.501690616371251"><ele>167.33333333333331</ele><time>2026-04-06T09:10:56.999Z</time></trkpt><trkpt lat="45.486014490605555" lon="8.50140202866449"><ele>167.66666666666666</ele><time>2026-04-06T09:10:57.999Z</time></trkpt><trkpt lat="45.48601247061368" lon="8.501130470876163"><ele>168.0</ele><time>2026-04-06T09:10:58.999Z</time></trkpt><trkpt lat="45.48601051616767" lon="8.500867724731984"><ele>168.0</ele><time>2026-04-06T09:10:59.999Z</time></trkpt><trkpt lat="45.486008681764964" lon="8.500621116627151"><ele>168.0</ele><time>2026-04-06T09:11:00.999Z</time></trkpt><trkpt lat="45.4860068052794" lon="8.50038208261028"><ele>168.0</ele><time>2026-04-06T09:11:01.999Z</time></trkpt><trkpt lat="45.485988314668" lon="8.500147453629907"><ele>168.0</ele><time>2026-04-06T09:11:02.999Z</time></trkpt><trkpt lat="45.485987508117866" lon="8.49991562613769"><ele>168.0</ele><time>2026-04-06T09:11:03.999Z</time></trkpt><trkpt lat="45.48598526589378" lon="8.499683699949744"><ele>168.0</ele><time>2026-04-06T09:11:04.999Z</time></trkpt><trkpt lat="45.48599923552788" lon="8.49945239870376"><ele>168.0</ele><time>2026-04-06T09:11:05.999Z</time></trkpt><trkpt lat="45.48599734084467" lon="8.49921970206682"><ele>168.0</ele><time>2026-04-06T09:11:06.999Z</time></trkpt><trkpt lat="45.48599550993185" lon="8.498994837368713"><ele>168.0</ele><time>2026-04-06T09:11:07.999Z</time></trkpt><trkpt lat="45.48597718409" lon="8.498770641923842"><ele>168.0</ele><time>2026-04-06T09:11:08.999Z</time></trkpt><trkpt lat="45.48597590142913" lon="8.498538389898831"><ele>168.0</ele><time>2026-04-06T09:11:09.999Z</time></trkpt><trkpt lat="45.48598987909218" lon="8.498307983312904"><ele>168.0</ele><time>2026-04-06T09:11:10.999Z</time></trkpt><trkpt lat="45.48598750137838" lon="8.498083914970286"><ele>168.0</ele><time>2026-04-06T09:11:11.999Z</time></trkpt><trkpt lat="45.485966846886896" lon="8.497862332370946"><ele>168.0</ele><time>2026-04-06T09:11:12.999Z</time></trkpt><trkpt lat="45.48596250668087" lon="8.497640988305484"><ele>168.0</ele><time>2026-04-06T09:11:13.999Z</time></trkpt><trkpt lat="45.48595898875761" lon="8.497416301281564"><ele>168.0</ele><time>2026-04-06T09:11:14.999Z</time></trkpt><trkpt lat="45.485957584146576" lon="8.497196437765508"><ele>168.0</ele><time>2026-04-06T09:11:15.999Z</time></trkpt><trkpt lat="45.48597287038085" lon="8.496987833360192"><ele>168.0</ele><time>2026-04-06T09:11:16.999Z</time></trkpt><trkpt lat="45.48595548762445" lon="8.49679002935128"><ele>168.0</ele><time>2026-04-06T09:11:17.999Z</time></trkpt><trkpt lat="45.485955281964756" lon="8.496617159434333"><ele>168.2</ele><time>2026-04-06T09:11:18.999Z</time></trkpt><trkpt lat="45.48595411959521" lon="8.496470897204134"><ele>168.4</ele><time>2026-04-06T09:11:19.999Z</time></trkpt><trkpt lat="45.48595898408091" lon="8.496358438884046"><ele>168.6</ele><time>2026-04-06T09:11:20.999Z</time></trkpt><trkpt lat="45.486036231742844" lon="8.496230360208694"><ele>168.79999999999998</ele><time>2026-04-06T09:11:22.999Z</time></trkpt><trkpt lat="45.48611601279986" lon="8.496232873793437"><ele>169.0</ele><time>2026-04-06T09:11:23.999Z</time></trkpt><trkpt lat="45.486205833524664" lon="8.496187383256665"><ele>169.0</ele><time>2026-04-06T09:11:24.999Z</time></trkpt><trkpt lat="45.48631087724315" lon="8.496164804439607"><ele>169.0</ele><time>2026-04-06T09:11:25.999Z</time></trkpt><trkpt lat="45.48642323429516" lon="8.496138341032445"><ele>169.0</ele><time>2026-04-06T09:11:26.999Z</time></trkpt><trkpt lat="45.48653916810732" lon="8.496106937186944"><ele>169.0</ele><time>2026-04-06T09:11:27.999Z</time></trkpt><trkpt lat="45.48666091491979" lon="8.496074236999302"><ele>169.0</ele><time>2026-04-06T09:11:28.999Z</time></trkpt><trkpt lat="45.48677921568032" lon="8.496040509735495"><ele>169.0</ele><time>2026-04-06T09:11:29.999Z</time></trkpt><trkpt lat="45.4868974133916" lon="8.496002295448529"><ele>169.0</ele><time>2026-04-06T09:11:31Z</time></trkpt><trkpt lat="45.4870168075418" lon="8.495968714203244"><ele>169.0</ele><time>2026-04-06T09:11:32Z</time></trkpt><trkpt lat="45.487139178855934" lon="8.495940184901007"><ele>169.25</ele><time>2026-04-06T09:11:33Z</time></trkpt><trkpt lat="45.487266955153444" lon="8.495923808437187"><ele>169.5</ele><time>2026-04-06T09:11:34Z</time></trkpt><trkpt lat="45.48740283170655" lon="8.495927370812984"><ele>169.75</ele><time>2026-04-06T09:11:35Z</time></trkpt><trkpt lat="45.48753264072777" lon="8.495944144012265"><ele>170.0</ele><time>2026-04-06T09:11:36Z</time></trkpt><trkpt lat="45.48765767738745" lon="8.495966071406452"><ele>170.0</ele><time>2026-04-06T09:11:37Z</time></trkpt><trkpt lat="45.487788515197366" lon="8.495998074890002"><ele>170.0</ele><time>2026-04-06T09:11:38Z</time></trkpt><trkpt lat="45.487920764187855" lon="8.496032390785611"><ele>170.0</ele><time>2026-04-06T09:11:39Z</time></trkpt><trkpt lat="45.48805945518085" lon="8.49607146301449"><ele>170.0</ele><time>2026-04-06T09:11:40Z</time></trkpt><trkpt lat="45.48819750949087" lon="8.496115798770504"><ele>170.0</ele><time>2026-04-06T09:11:41Z</time></trkpt><trkpt lat="45.48833508618029" lon="8.496163851778192"><ele>170.0</ele><time>2026-04-06T09:11:42Z</time></trkpt><trkpt lat="45.4884706179451" lon="8.496211611783334"><ele>170.0</ele><time>2026-04-06T09:11:43Z</time></trkpt><trkpt lat="45.488597620776645" lon="8.496253739370028"><ele>170.0</ele><time>2026-04-06T09:11:44Z</time></trkpt><trkpt lat="45.488718280653835" lon="8.496288987395038"><ele>169.5</ele><time>2026-04-06T09:11:45Z</time></trkpt><trkpt lat="45.48883978619452" lon="8.496310675304354"><ele>169.0</ele><time>2026-04-06T09:11:46Z</time></trkpt><trkpt lat="45.48897610159844" lon="8.496314533416445"><ele>168.5</ele><time>2026-04-06T09:11:47Z</time></trkpt><trkpt lat="45.48912759641711" lon="8.49631403939341"><ele>168.0</ele><time>2026-04-06T09:11:48Z</time></trkpt><trkpt lat="45.48928883714698" lon="8.496315224664237"><ele>168.0</ele><time>2026-04-06T09:11:49Z</time></trkpt><trkpt lat="45.48945194168868" lon="8.496319603970225"><ele>168.0</ele><time>2026-04-06T09:11:50Z</time></trkpt><trkpt lat="45.489602088634484" lon="8.496326405676546"><ele>168.0</ele><time>2026-04-06T09:11:51Z</time></trkpt><trkpt lat="45.4897403211303" lon="8.496335162304044"><ele>168.4</ele><time>2026-04-06T09:11:52Z</time></trkpt><trkpt lat="45.48985531627649" lon="8.496343114967077"><ele>168.8</ele><time>2026-04-06T09:11:53Z</time></trkpt><trkpt lat="45.489946788105584" lon="8.496368630903167"><ele>169.2</ele><time>2026-04-06T09:11:54Z</time></trkpt><trkpt lat="45.49002780564293" lon="8.496355540008665"><ele>169.6</ele><time>2026-04-06T09:11:55Z</time></trkpt><trkpt lat="45.49009113176426" lon="8.496283710281793"><ele>170.0</ele><time>2026-04-06T09:11:56Z</time></trkpt><trkpt lat="45.490090288416894" lon="8.496158821121643"><ele>170.0</ele><time>2026-04-06T09:11:57Z</time></trkpt><trkpt lat="45.49009684336972" lon="8.49605018221038"><ele>170.0</ele><time>2026-04-06T09:11:58Z</time></trkpt><trkpt lat="45.4901088686757" lon="8.49593521475629"><ele>170.0</ele><time>2026-04-06T09:11:59Z</time></trkpt><trkpt lat="45.49013867213372" lon="8.495803950234684"><ele>170.0</ele><time>2026-04-06T09:12:00Z</time></trkpt><trkpt lat="45.490159441882184" lon="8.495662695053502"><ele>170.0</ele><time>2026-04-06T09:12:01Z</time></trkpt><trkpt lat="45.49018347905832" lon="8.495524741647964"><ele>170.25</ele><time>2026-04-06T09:12:02Z</time></trkpt><trkpt lat="45.49021101629591" lon="8.495368359259716"><ele>170.5</ele><time>2026-04-06T09:12:03Z</time></trkpt><trkpt lat="45.490222554379564" lon="8.495200564576278"><ele>170.75</ele><time>2026-04-06T09:12:04Z</time></trkpt><trkpt lat="45.49025006024363" lon="8.495039409473758"><ele>171.0</ele><time>2026-04-06T09:12:05Z</time></trkpt><trkpt lat="45.49027548882544" lon="8.49488487919309"><ele>171.0</ele><time>2026-04-06T09:12:06Z</time></trkpt><trkpt lat="45.49030039305294" lon="8.49473602639317"><ele>171.0</ele><time>2026-04-06T09:12:07Z</time></trkpt><trkpt lat="45.49032294144506" lon="8.49459521369238"><ele>171.0</ele><time>2026-04-06T09:12:08Z</time></trkpt><trkpt lat="45.49034378126186" lon="8.494464752213789"><ele>171.0</ele><time>2026-04-06T09:12:09Z</time></trkpt><trkpt lat="45.490373658274414" lon="8.494358652595434"><ele>171.0</ele><time>2026-04-06T09:12:10Z</time></trkpt><trkpt lat="45.49036512698673" lon="8.49425615325925"><ele>170.83333333333334</ele><time>2026-04-06T09:12:11Z</time></trkpt><trkpt lat="45.49029720100826" lon="8.494190313978143"><ele>170.66666666666666</ele><time>2026-04-06T09:12:12Z</time></trkpt><trkpt lat="45.4902459120853" lon="8.49406152515541"><ele>170.5</ele><time>2026-04-06T09:12:14Z</time></trkpt><trkpt lat="45.490295536523554" lon="8.493989755376951"><ele>170.33333333333331</ele><time>2026-04-06T09:12:15Z</time></trkpt><trkpt lat="45.490333079747124" lon="8.493876468251244"><ele>170.16666666666666</ele><time>2026-04-06T09:12:17Z</time></trkpt><trkpt lat="45.490384925026554" lon="8.493817686872676"><ele>170.0</ele><time>2026-04-06T09:12:20Z</time></trkpt><trkpt lat="45.49045476003992" lon="8.493894629438827"><ele>170.4</ele><time>2026-04-06T09:12:21Z</time></trkpt><trkpt lat="45.49049885132803" lon="8.493964766668427"><ele>170.8</ele><time>2026-04-06T09:12:22Z</time></trkpt><trkpt lat="45.490567694732206" lon="8.49404150807229"><ele>171.2</ele><time>2026-04-06T09:12:23Z</time></trkpt><trkpt lat="45.49063956967114" lon="8.494120173665003"><ele>171.6</ele><time>2026-04-06T09:12:24Z</time></trkpt><trkpt lat="45.49072350315058" lon="8.494213007331135"><ele>172.0</ele><time>2026-04-06T09:12:25Z</time></trkpt><trkpt lat="45.490808464605514" lon="8.494304492352262"><ele>172.0</ele><time>2026-04-06T09:12:26Z</time></trkpt><trkpt lat="45.49090013468537" lon="8.494400392393482"><ele>172.0</ele><time>2026-04-06T09:12:27Z</time></trkpt><trkpt lat="45.49100024596101" lon="8.49450606678914"><ele>172.0</ele><time>2026-04-06T09:12:28Z</time></trkpt><trkpt lat="45.49110355719645" lon="8.494619300272934"><ele>172.0</ele><time>2026-04-06T09:12:29Z</time></trkpt><trkpt lat="45.49120447641915" lon="8.494729710950601"><ele>172.25</ele><time>2026-04-06T09:12:30Z</time></trkpt><trkpt lat="45.49131692863073" lon="8.494845862191353"><ele>172.5</ele><time>2026-04-06T09:12:31Z</time></trkpt><trkpt lat="45.49143364914679" lon="8.494959353580217"><ele>172.75</ele><time>2026-04-06T09:12:32Z</time></trkpt><trkpt lat="45.491556272716466" lon="8.495081771587072"><ele>173.0</ele><time>2026-04-06T09:12:33Z</time></trkpt><trkpt lat="45.49167700892564" lon="8.495210660750015"><ele>173.0</ele><time>2026-04-06T09:12:34Z</time></trkpt><trkpt lat="45.4917926913521" lon="8.495330613585898"><ele>173.0</ele><time>2026-04-06T09:12:35Z</time></trkpt><trkpt lat="45.49190424898302" lon="8.495447675898207"><ele>173.0</ele><time>2026-04-06T09:12:36Z</time></trkpt><trkpt lat="45.49201203938455" lon="8.495563773863783"><ele>173.0</ele><time>2026-04-06T09:12:37Z</time></trkpt><trkpt lat="45.49211955279119" lon="8.495683434412394"><ele>172.5</ele><time>2026-04-06T09:12:38Z</time></trkpt><trkpt lat="45.4922260418676" lon="8.495801522188454"><ele>172.0</ele><time>2026-04-06T09:12:39Z</time></trkpt><trkpt lat="45.492323750001304" lon="8.495910702755632"><ele>171.5</ele><time>2026-04-06T09:12:40Z</time></trkpt><trkpt lat="45.4924243050192" lon="8.496012052487435"><ele>171.0</ele><time>2026-04-06T09:12:41Z</time></trkpt><trkpt lat="45.49252945130502" lon="8.496113643667053"><ele>171.0</ele><time>2026-04-06T09:12:42Z</time></trkpt><trkpt lat="45.49264499019801" lon="8.496221373596821"><ele>171.0</ele><time>2026-04-06T09:12:43Z</time></trkpt><trkpt lat="45.49277659503448" lon="8.496317613109598"><ele>171.0</ele><time>2026-04-06T09:12:44Z</time></trkpt><trkpt lat="45.49292797983766" lon="8.496395726865373"><ele>171.0</ele><time>2026-04-06T09:12:45Z</time></trkpt><trkpt lat="45.49309521834027" lon="8.4964499785434"><ele>170.66666666666666</ele><time>2026-04-06T09:12:46Z</time></trkpt><trkpt lat="45.49326651147348" lon="8.496477238536624"><ele>170.33333333333331</ele><time>2026-04-06T09:12:47Z</time></trkpt><trkpt lat="45.49344245146175" lon="8.496479729853855"><ele>170.0</ele><time>2026-04-06T09:12:48Z</time></trkpt><trkpt lat="45.49362544090105" lon="8.496447560159922"><ele>170.33333333333331</ele><time>2026-04-06T09:12:49Z</time></trkpt><trkpt lat="45.493811203051195" lon="8.496385679571956"><ele>170.66666666666666</ele><time>2026-04-06T09:12:50Z</time></trkpt><trkpt lat="45.49399828737494" lon="8.496298272713117"><ele>171.0</ele><time>2026-04-06T09:12:51Z</time></trkpt><trkpt lat="45.49418159542749" lon="8.496212381034951"><ele>171.0</ele><time>2026-04-06T09:12:52Z</time></trkpt><trkpt lat="45.49437163748547" lon="8.496125464097972"><ele>171.0</ele><time>2026-04-06T09:12:53Z</time></trkpt><trkpt lat="45.494566247339215" lon="8.496037825267951"><ele>171.0</ele><time>2026-04-06T09:12:54Z</time></trkpt><trkpt lat="45.49476630665765" lon="8.49594828768209"><ele>171.0</ele><time>2026-04-06T09:12:55Z</time></trkpt><trkpt lat="45.494971932613865" lon="8.495857277798109"><ele>171.0</ele><time>2026-04-06T09:12:56Z</time></trkpt><trkpt lat="45.495180058664594" lon="8.495763755879695"><ele>171.0</ele><time>2026-04-06T09:12:57Z</time></trkpt><trkpt lat="45.49539069074557" lon="8.495669545979787"><ele>171.0</ele><time>2026-04-06T09:12:58Z</time></trkpt><trkpt lat="45.49560306223627" lon="8.495573584679477"><ele>171.0</ele><time>2026-04-06T09:12:59Z</time></trkpt><trkpt lat="45.49581653542756" lon="8.495475278312979"><ele>171.0</ele><time>2026-04-06T09:13:00Z</time></trkpt><trkpt lat="45.496028854228214" lon="8.495379605769969"><ele>171.0</ele><time>2026-04-06T09:13:00.999Z</time></trkpt><trkpt lat="45.49623911367676" lon="8.495286897924226"><ele>171.0</ele><time>2026-04-06T09:13:01.999Z</time></trkpt><trkpt lat="45.49644718710177" lon="8.495194297626606"><ele>171.0</ele><time>2026-04-06T09:13:02.999Z</time></trkpt><trkpt lat="45.49664882872683" lon="8.495104031488895"><ele>171.33333333333334</ele><time>2026-04-06T09:13:03.999Z</time></trkpt><trkpt lat="45.49685195278079" lon="8.495011691682173"><ele>171.66666666666669</ele><time>2026-04-06T09:13:04.999Z</time></trkpt><trkpt lat="45.49705493784026" lon="8.494922037796972"><ele>172.0</ele><time>2026-04-06T09:13:05.999Z</time></trkpt><trkpt lat="45.49725774440927" lon="8.494831985410082"><ele>172.0</ele><time>2026-04-06T09:13:06.999Z</time></trkpt><trkpt lat="45.49746153322452" lon="8.49473968418157"><ele>172.0</ele><time>2026-04-06T09:13:07.999Z</time></trkpt><trkpt lat="45.49766651096443" lon="8.494647366416645"><ele>172.0</ele><time>2026-04-06T09:13:08.999Z</time></trkpt><trkpt lat="45.49787348503986" lon="8.494555186738221"><ele>172.66666666666669</ele><time>2026-04-06T09:13:09.999Z</time></trkpt><trkpt lat="45.49808115241214" lon="8.49446375871554"><ele>173.33333333333334</ele><time>2026-04-06T09:13:10.999Z</time></trkpt><trkpt lat="45.49828997092009" lon="8.494372046973842"><ele>174.0</ele><time>2026-04-06T09:13:11.999Z</time></trkpt><trkpt lat="45.498498212785364" lon="8.494282777189051"><ele>174.0</ele><time>2026-04-06T09:13:12.999Z</time></trkpt><trkpt lat="45.49870485444066" lon="8.494190149255608"><ele>174.0</ele><time>2026-04-06T09:13:13.999Z</time></trkpt><trkpt lat="45.498910003097265" lon="8.49409674282649"><ele>174.0</ele><time>2026-04-06T09:13:14.999Z</time></trkpt><trkpt lat="45.49911517400833" lon="8.494004365647768"><ele>174.0</ele><time>2026-04-06T09:13:15.999Z</time></trkpt><trkpt lat="45.49931979355342" lon="8.493911948630595"><ele>174.0</ele><time>2026-04-06T09:13:16.999Z</time></trkpt><trkpt lat="45.49952380636621" lon="8.493819115308522"><ele>174.0</ele><time>2026-04-06T09:13:17.999Z</time></trkpt><trkpt lat="45.499727159639754" lon="8.49372696442781"><ele>174.0</ele><time>2026-04-06T09:13:18.999Z</time></trkpt><trkpt lat="45.49992912782782" lon="8.493632883997476"><ele>174.0</ele><time>2026-04-06T09:13:19.999Z</time></trkpt><trkpt lat="45.50013248742341" lon="8.493540598433118"><ele>174.0</ele><time>2026-04-06T09:13:20.999Z</time></trkpt><trkpt lat="45.50033566214963" lon="8.493449582970351"><ele>174.33333333333334</ele><time>2026-04-06T09:13:21.999Z</time></trkpt><trkpt lat="45.50053972967892" lon="8.493359354735764"><ele>174.66666666666669</ele><time>2026-04-06T09:13:22.999Z</time></trkpt><trkpt lat="45.50074383658017" lon="8.493271499917293"><ele>175.0</ele><time>2026-04-06T09:13:23.999Z</time></trkpt><trkpt lat="45.500948339640324" lon="8.493184915961491"><ele>175.0</ele><time>2026-04-06T09:13:24.999Z</time></trkpt><trkpt lat="45.50115285371573" lon="8.493095545124596"><ele>175.0</ele><time>2026-04-06T09:13:25.999Z</time></trkpt><trkpt lat="45.501357632268004" lon="8.493010336331466"><ele>175.0</ele><time>2026-04-06T09:13:26.999Z</time></trkpt><trkpt lat="45.50156100999216" lon="8.492925763784116"><ele>175.0</ele><time>2026-04-06T09:13:27.999Z</time></trkpt><trkpt lat="45.50176227896343" lon="8.492843018334609"><ele>175.0</ele><time>2026-04-06T09:13:28.999Z</time></trkpt><trkpt lat="45.5019656572097" lon="8.492758748692767"><ele>175.0</ele><time>2026-04-06T09:13:29.999Z</time></trkpt><trkpt lat="45.502172377215295" lon="8.492674224195575"><ele>174.66666666666669</ele><time>2026-04-06T09:13:30.999Z</time></trkpt><trkpt lat="45.50238152966425" lon="8.492585629923136"><ele>174.33333333333334</ele><time>2026-04-06T09:13:31.999Z</time></trkpt><trkpt lat="45.50259258618119" lon="8.492497138097075"><ele>174.0</ele><time>2026-04-06T09:13:32.999Z</time></trkpt><trkpt lat="45.50280494627979" lon="8.492409302340103"><ele>174.66666666666666</ele><time>2026-04-06T09:13:33.999Z</time></trkpt><trkpt lat="45.50301500742044" lon="8.492319402246919"><ele>175.33333333333331</ele><time>2026-04-06T09:13:34.999Z</time></trkpt><trkpt lat="45.50322790999245" lon="8.492233896288443"><ele>176.0</ele><time>2026-04-06T09:13:35.999Z</time></trkpt><trkpt lat="45.50344108576885" lon="8.492145316907717"><ele>175.66666666666666</ele><time>2026-04-06T09:13:37Z</time></trkpt><trkpt lat="45.503654499471686" lon="8.492057157785506"><ele>175.33333333333334</ele><time>2026-04-06T09:13:38Z</time></trkpt><trkpt lat="45.503868425523144" lon="8.491967443821292"><ele>175.0</ele><time>2026-04-06T09:13:39Z</time></trkpt><trkpt lat="45.50407949469" lon="8.491875269833423"><ele>175.66666666666669</ele><time>2026-04-06T09:13:40Z</time></trkpt><trkpt lat="45.50429005486479" lon="8.491782457990542"><ele>176.33333333333334</ele><time>2026-04-06T09:13:41Z</time></trkpt><trkpt lat="45.50450268980401" lon="8.491688510241882"><ele>177.0</ele><time>2026-04-06T09:13:42Z</time></trkpt><trkpt lat="45.504715089940824" lon="8.491595379681526"><ele>177.0</ele><time>2026-04-06T09:13:43Z</time></trkpt><trkpt lat="45.50492831269091" lon="8.491501073832314"><ele>177.0</ele><time>2026-04-06T09:13:44Z</time></trkpt><trkpt lat="45.50514367629887" lon="8.491406193992171"><ele>177.0</ele><time>2026-04-06T09:13:45Z</time></trkpt><trkpt lat="45.50535850283006" lon="8.491309741791188"><ele>177.33333333333334</ele><time>2026-04-06T09:13:46Z</time></trkpt><trkpt lat="45.50557290144564" lon="8.491214720531744"><ele>177.66666666666669</ele><time>2026-04-06T09:13:47Z</time></trkpt><trkpt lat="45.50578706651663" lon="8.491119662971226"><ele>178.0</ele><time>2026-04-06T09:13:48Z</time></trkpt><trkpt lat="45.50600101096229" lon="8.491026030038583"><ele>178.0</ele><time>2026-04-06T09:13:49Z</time></trkpt><trkpt lat="45.506215834873544" lon="8.490932511051945"><ele>178.0</ele><time>2026-04-06T09:13:50Z</time></trkpt><trkpt lat="45.50642909223212" lon="8.490839057761866"><ele>178.0</ele><time>2026-04-06T09:13:51Z</time></trkpt><trkpt lat="45.50664345817393" lon="8.490745603785998"><ele>177.66666666666669</ele><time>2026-04-06T09:13:52Z</time></trkpt><trkpt lat="45.50685508938655" lon="8.490650137585105"><ele>177.33333333333334</ele><time>2026-04-06T09:13:53Z</time></trkpt><trkpt lat="45.507059769814354" lon="8.490537080473398"><ele>177.0</ele><time>2026-04-06T09:13:54Z</time></trkpt><trkpt lat="45.507279949215686" lon="8.490463270609288"><ele>177.0</ele><time>2026-04-06T09:13:55Z</time></trkpt><trkpt lat="45.50748832160617" lon="8.490370199163285"><ele>177.0</ele><time>2026-04-06T09:13:56Z</time></trkpt><trkpt lat="45.50769634255986" lon="8.490280236210495"><ele>177.0</ele><time>2026-04-06T09:13:57Z</time></trkpt><trkpt lat="45.50790444386354" lon="8.490190743406727"><ele>176.66666666666666</ele><time>2026-04-06T09:13:58Z</time></trkpt><trkpt lat="45.50811239979782" lon="8.490101453404849"><ele>176.33333333333331</ele><time>2026-04-06T09:13:59Z</time></trkpt><trkpt lat="45.50832155515243" lon="8.490014354584112"><ele>176.0</ele><time>2026-04-06T09:14:00Z</time></trkpt><trkpt lat="45.5085309793611" lon="8.489926452703696"><ele>176.0</ele><time>2026-04-06T09:14:01Z</time></trkpt><trkpt lat="45.50874180921092" lon="8.48983775177686"><ele>176.0</ele><time>2026-04-06T09:14:02Z</time></trkpt><trkpt lat="45.50895174838483" lon="8.48975142280553"><ele>176.0</ele><time>2026-04-06T09:14:03Z</time></trkpt><trkpt lat="45.50916070474901" lon="8.489662315349214"><ele>176.66666666666666</ele><time>2026-04-06T09:14:04Z</time></trkpt><trkpt lat="45.5093707316173" lon="8.489570553227663"><ele>177.33333333333334</ele><time>2026-04-06T09:14:05Z</time></trkpt><trkpt lat="45.50957903726888" lon="8.489481068709912"><ele>178.0</ele><time>2026-04-06T09:14:06Z</time></trkpt><trkpt lat="45.509784337921495" lon="8.489393257551885"><ele>178.33333333333334</ele><time>2026-04-06T09:14:07Z</time></trkpt><trkpt lat="45.509990263881896" lon="8.489306981171678"><ele>178.66666666666666</ele><time>2026-04-06T09:14:08Z</time></trkpt><trkpt lat="45.51020147871401" lon="8.489218505575657"><ele>179.0</ele><time>2026-04-06T09:14:09Z</time></trkpt><trkpt lat="45.510412664946166" lon="8.489128620529792"><ele>179.0</ele><time>2026-04-06T09:14:10Z</time></trkpt><trkpt lat="45.51061935160833" lon="8.489039599597538"><ele>179.0</ele><time>2026-04-06T09:14:11Z</time></trkpt><trkpt lat="45.51081623197908" lon="8.488954209786941"><ele>179.0</ele><time>2026-04-06T09:14:12Z</time></trkpt><trkpt lat="45.51100737682215" lon="8.488871949116426"><ele>179.0</ele><time>2026-04-06T09:14:13Z</time></trkpt><trkpt lat="45.51119839346332" lon="8.488794401870523"><ele>179.0</ele><time>2026-04-06T09:14:14Z</time></trkpt><trkpt lat="45.51139928757281" lon="8.488716783342674"><ele>179.0</ele><time>2026-04-06T09:14:15Z</time></trkpt><trkpt lat="45.511605484594604" lon="8.488636306636336"><ele>179.0</ele><time>2026-04-06T09:14:16Z</time></trkpt><trkpt lat="45.51181657287818" lon="8.48855612239435"><ele>179.0</ele><time>2026-04-06T09:14:17Z</time></trkpt><trkpt lat="45.51202267450749" lon="8.488477006596723"><ele>179.0</ele><time>2026-04-06T09:14:18Z</time></trkpt><trkpt lat="45.512215167722346" lon="8.488399660893505"><ele>179.0</ele><time>2026-04-06T09:14:19Z</time></trkpt><trkpt lat="45.51239802838275" lon="8.488323596568776"><ele>179.0</ele><time>2026-04-06T09:14:20Z</time></trkpt><trkpt lat="45.51257160900008" lon="8.48825010282477"><ele>179.0</ele><time>2026-04-06T09:14:21Z</time></trkpt><trkpt lat="45.51273350511234" lon="8.488178303403867"><ele>179.0</ele><time>2026-04-06T09:14:22Z</time></trkpt><trkpt lat="45.51288718251778" lon="8.488112099882773"><ele>179.0</ele><time>2026-04-06T09:14:23Z</time></trkpt><trkpt lat="45.51302356720575" lon="8.488056262538548"><ele>179.0</ele><time>2026-04-06T09:14:24Z</time></trkpt><trkpt lat="45.51314859456411" lon="8.488002081371059"><ele>179.0</ele><time>2026-04-06T09:14:25Z</time></trkpt><trkpt lat="45.51325683998423" lon="8.487956588016374"><ele>180.0</ele><time>2026-04-06T09:14:26Z</time></trkpt><trkpt lat="45.513338589886736" lon="8.48792294373421"><ele>181.0</ele><time>2026-04-06T09:14:27Z</time></trkpt><trkpt lat="45.5134412356862" lon="8.487882354242144"><ele>182.0</ele><time>2026-04-06T09:14:29Z</time></trkpt><trkpt lat="45.51353516175073" lon="8.487843249191547"><ele>183.0</ele><time>2026-04-06T09:14:51Z</time></trkpt><trkpt lat="45.5136167006407" lon="8.487807744537674"><ele>184.0</ele><time>2026-04-06T09:14:53Z</time></trkpt><trkpt lat="45.51370361167768" lon="8.48777412829422"><ele>184.0</ele><time>2026-04-06T09:14:55Z</time></trkpt><trkpt lat="45.51379246653266" lon="8.487815275675544"><ele>184.0</ele><time>2026-04-06T09:14:58Z</time></trkpt><trkpt lat="45.51381723482746" lon="8.48790512946655"><ele>184.0</ele><time>2026-04-06T09:14:59Z</time></trkpt><trkpt lat="45.51384813275245" lon="8.487995501172897"><ele>184.0</ele><time>2026-04-06T09:15:00Z</time></trkpt><trkpt lat="45.513884014253975" lon="8.488110269921908"><ele>184.0</ele><time>2026-04-06T09:15:01Z</time></trkpt><trkpt lat="45.51392268098806" lon="8.488222920188328"><ele>184.0</ele><time>2026-04-06T09:15:02Z</time></trkpt><trkpt lat="45.51397060709223" lon="8.488352336326447"><ele>184.0</ele><time>2026-04-06T09:15:03Z</time></trkpt><trkpt lat="45.514025003997936" lon="8.488497383247777"><ele>184.0</ele><time>2026-04-06T09:15:04Z</time></trkpt><trkpt lat="45.514075729683675" lon="8.4886403754147"><ele>184.0</ele><time>2026-04-06T09:15:05Z</time></trkpt><trkpt lat="45.514117021955784" lon="8.488766045149926"><ele>184.0</ele><time>2026-04-06T09:15:06Z</time></trkpt><trkpt lat="45.514162052554084" lon="8.48889545740502"><ele>184.0</ele><time>2026-04-06T09:15:07Z</time></trkpt><trkpt lat="45.51421360510644" lon="8.48903073375939"><ele>184.0</ele><time>2026-04-06T09:15:08Z</time></trkpt><trkpt lat="45.5142695497991" lon="8.48918154066289"><ele>184.0</ele><time>2026-04-06T09:15:09Z</time></trkpt><trkpt lat="45.51432933601704" lon="8.489328139549327"><ele>184.0</ele><time>2026-04-06T09:15:09.999Z</time></trkpt><trkpt lat="45.514386122370695" lon="8.489469279159216"><ele>184.0</ele><time>2026-04-06T09:15:10.999Z</time></trkpt><trkpt lat="45.514443453586324" lon="8.489620082521615"><ele>183.5</ele><time>2026-04-06T09:15:11.999Z</time></trkpt><trkpt lat="45.514505205215066" lon="8.489767012562883"><ele>183.0</ele><time>2026-04-06T09:15:12.999Z</time></trkpt><trkpt lat="45.514565316411385" lon="8.489914036005459"><ele>182.5</ele><time>2026-04-06T09:15:13.999Z</time></trkpt><trkpt lat="45.51462396333178" lon="8.490062234791111"><ele>182.0</ele><time>2026-04-06T09:15:14.999Z</time></trkpt><trkpt lat="45.514683876677005" lon="8.490212214988702"><ele>182.0</ele><time>2026-04-06T09:15:15.999Z</time></trkpt><trkpt lat="45.51474411879774" lon="8.490362627825847"><ele>182.0</ele><time>2026-04-06T09:15:16.999Z</time></trkpt><trkpt lat="45.5148001577518" lon="8.490506783246447"><ele>182.0</ele><time>2026-04-06T09:15:17.999Z</time></trkpt><trkpt lat="45.51485528421663" lon="8.490652383275991"><ele>182.0</ele><time>2026-04-06T09:15:18.999Z</time></trkpt><trkpt lat="45.51491314863495" lon="8.490796105848686"><ele>182.0</ele><time>2026-04-06T09:15:19.999Z</time></trkpt><trkpt lat="45.514975249953665" lon="8.49094540470865"><ele>182.0</ele><time>2026-04-06T09:15:20.999Z</time></trkpt><trkpt lat="45.5150503808003" lon="8.491112516421897"><ele>182.0</ele><time>2026-04-06T09:15:21.999Z</time></trkpt><trkpt lat="45.51514153965741" lon="8.491278154521213"><ele>182.0</ele><time>2026-04-06T09:15:22.999Z</time></trkpt><trkpt lat="45.515245468851056" lon="8.491434454526118"><ele>181.5</ele><time>2026-04-06T09:15:23.999Z</time></trkpt><trkpt lat="45.51536290323104" lon="8.491569675798024"><ele>181.0</ele><time>2026-04-06T09:15:24.999Z</time></trkpt><trkpt lat="45.515477653040854" lon="8.491697924717052"><ele>180.5</ele><time>2026-04-06T09:15:25.999Z</time></trkpt><trkpt lat="45.515595663549306" lon="8.491831708533878"><ele>180.0</ele><time>2026-04-06T09:15:26.999Z</time></trkpt><trkpt lat="45.515716091987194" lon="8.491967418117728"><ele>179.66666666666666</ele><time>2026-04-06T09:15:27.999Z</time></trkpt><trkpt lat="45.515834401688544" lon="8.49209851751599"><ele>179.33333333333331</ele><time>2026-04-06T09:15:28.999Z</time></trkpt><trkpt lat="45.51595625064894" lon="8.492236871689766"><ele>179.0</ele><time>2026-04-06T09:15:29.999Z</time></trkpt><trkpt lat="45.51608045077164" lon="8.492392782410734"><ele>179.0</ele><time>2026-04-06T09:15:30.999Z</time></trkpt><trkpt lat="45.516203242600135" lon="8.492570894940473"><ele>179.0</ele><time>2026-04-06T09:15:31.999Z</time></trkpt><trkpt lat="45.516317203050576" lon="8.492769004665398"><ele>179.0</ele><time>2026-04-06T09:15:32.999Z</time></trkpt><trkpt lat="45.51641923617869" lon="8.492983627014453"><ele>179.66666666666666</ele><time>2026-04-06T09:15:33.999Z</time></trkpt><trkpt lat="45.51651487217277" lon="8.493204177180342"><ele>180.33333333333334</ele><time>2026-04-06T09:15:34.999Z</time></trkpt><trkpt lat="45.51660885906188" lon="8.493427452993576"><ele>181.0</ele><time>2026-04-06T09:15:35.999Z</time></trkpt><trkpt lat="45.51670554565959" lon="8.493652621424364"><ele>181.33333333333334</ele><time>2026-04-06T09:15:36.999Z</time></trkpt><trkpt lat="45.51680509328534" lon="8.493879329883814"><ele>181.66666666666666</ele><time>2026-04-06T09:15:37.999Z</time></trkpt><trkpt lat="45.5169090080621" lon="8.494113818038606"><ele>182.0</ele><time>2026-04-06T09:15:38.999Z</time></trkpt><trkpt lat="45.51701942777656" lon="8.494361363414251"><ele>182.33333333333331</ele><time>2026-04-06T09:15:39.999Z</time></trkpt><trkpt lat="45.51712808557384" lon="8.494606800879033"><ele>182.66666666666666</ele><time>2026-04-06T09:15:40.999Z</time></trkpt><trkpt lat="45.517240248255455" lon="8.494861386958044"><ele>183.0</ele><time>2026-04-06T09:15:41.999Z</time></trkpt><trkpt lat="45.5173537615423" lon="8.495119984230596"><ele>183.0</ele><time>2026-04-06T09:15:43Z</time></trkpt><trkpt lat="45.517469057987064" lon="8.49537968211142"><ele>183.0</ele><time>2026-04-06T09:15:44Z</time></trkpt><trkpt lat="45.51758658312406" lon="8.495645654810808"><ele>183.0</ele><time>2026-04-06T09:15:45Z</time></trkpt><trkpt lat="45.51770787122868" lon="8.495916513676285"><ele>182.66666666666666</ele><time>2026-04-06T09:15:46Z</time></trkpt><trkpt lat="45.51782653511505" lon="8.496185208517318"><ele>182.33333333333331</ele><time>2026-04-06T09:15:47Z</time></trkpt><trkpt lat="45.517940408219275" lon="8.496443987884202"><ele>182.0</ele><time>2026-04-06T09:15:48Z</time></trkpt><trkpt lat="45.518055263957635" lon="8.49670570003103"><ele>181.66666666666666</ele><time>2026-04-06T09:15:49Z</time></trkpt><trkpt lat="45.518170452517076" lon="8.496969044429743"><ele>181.33333333333334</ele><time>2026-04-06T09:15:50Z</time></trkpt><trkpt lat="45.51828618599739" lon="8.497230805322106"><ele>181.0</ele><time>2026-04-06T09:15:51Z</time></trkpt><trkpt lat="45.5184020709376" lon="8.497495487130667"><ele>181.0</ele><time>2026-04-06T09:15:52Z</time></trkpt><trkpt lat="45.51851775168529" lon="8.497761564429734"><ele>181.0</ele><time>2026-04-06T09:15:53Z</time></trkpt><trkpt lat="45.51863436050573" lon="8.498027544004435"><ele>181.0</ele><time>2026-04-06T09:15:54Z</time></trkpt><trkpt lat="45.51875164917678" lon="8.498293439705524"><ele>181.0</ele><time>2026-04-06T09:15:55Z</time></trkpt><trkpt lat="45.51886967891493" lon="8.498560448686057"><ele>181.0</ele><time>2026-04-06T09:15:56Z</time></trkpt><trkpt lat="45.5189877136274" lon="8.4988303979164"><ele>181.0</ele><time>2026-04-06T09:15:57Z</time></trkpt><trkpt lat="45.519104579280516" lon="8.49910016634772"><ele>181.0</ele><time>2026-04-06T09:15:58Z</time></trkpt><trkpt lat="45.5192209061612" lon="8.499364950507"><ele>181.0</ele><time>2026-04-06T09:15:59Z</time></trkpt><trkpt lat="45.51933575633213" lon="8.499623730970578"><ele>181.0</ele><time>2026-04-06T09:16:00Z</time></trkpt><trkpt lat="45.51944394731393" lon="8.499866418829901"><ele>181.0</ele><time>2026-04-06T09:16:01Z</time></trkpt><trkpt lat="45.519548825576486" lon="8.500106719232459"><ele>181.0</ele><time>2026-04-06T09:16:02Z</time></trkpt><trkpt lat="45.51965086681173" lon="8.500343216493388"><ele>181.0</ele><time>2026-04-06T09:16:03Z</time></trkpt><trkpt lat="45.51975110238763" lon="8.500570934909838"><ele>180.33333333333334</ele><time>2026-04-06T09:16:04Z</time></trkpt><trkpt lat="45.51984857937441" lon="8.500791356103885"><ele>179.66666666666666</ele><time>2026-04-06T09:16:05Z</time></trkpt><trkpt lat="45.51994253140894" lon="8.501002613623136"><ele>179.0</ele><time>2026-04-06T09:16:06Z</time></trkpt><trkpt lat="45.52003212072127" lon="8.501208699472912"><ele>179.0</ele><time>2026-04-06T09:16:07Z</time></trkpt><trkpt lat="45.5201217956225" lon="8.501414758046279"><ele>179.0</ele><time>2026-04-06T09:16:08Z</time></trkpt><trkpt lat="45.52021381347023" lon="8.50162188962249"><ele>179.0</ele><time>2026-04-06T09:16:09Z</time></trkpt><trkpt lat="45.520306343773164" lon="8.501828920827624"><ele>179.66666666666666</ele><time>2026-04-06T09:16:10Z</time></trkpt><trkpt lat="45.52040045666142" lon="8.502042141440507"><ele>180.33333333333334</ele><time>2026-04-06T09:16:11Z</time></trkpt><trkpt lat="45.520500470202954" lon="8.502268063740438"><ele>181.0</ele><time>2026-04-06T09:16:12Z</time></trkpt><trkpt lat="45.520605222803255" lon="8.502500000078717"><ele>181.66666666666669</ele><time>2026-04-06T09:16:13Z</time></trkpt><trkpt lat="45.52071157809846" lon="8.502731269401885"><ele>182.33333333333334</ele><time>2026-04-06T09:16:14Z</time></trkpt><trkpt lat="45.52081126420315" lon="8.502953454683492"><ele>183.0</ele><time>2026-04-06T09:16:15Z</time></trkpt><trkpt lat="45.520914680929216" lon="8.503177777774063"><ele>183.0</ele><time>2026-04-06T09:16:16Z</time></trkpt><trkpt lat="45.521011437552076" lon="8.50339342225349"><ele>183.0</ele><time>2026-04-06T09:16:17Z</time></trkpt><trkpt lat="45.521096332938846" lon="8.503599107667133"><ele>183.0</ele><time>2026-04-06T09:16:18Z</time></trkpt><trkpt lat="45.52118305582734" lon="8.503798139059622"><ele>183.0</ele><time>2026-04-06T09:16:19Z</time></trkpt><trkpt lat="45.521271525676646" lon="8.503996747743079"><ele>183.0</ele><time>2026-04-06T09:16:20Z</time></trkpt><trkpt lat="45.52136057568879" lon="8.504205143949262"><ele>183.0</ele><time>2026-04-06T09:16:21Z</time></trkpt><trkpt lat="45.52145080429949" lon="8.504409551676538"><ele>183.0</ele><time>2026-04-06T09:16:22Z</time></trkpt><trkpt lat="45.521539238046586" lon="8.504609620934563"><ele>183.0</ele><time>2026-04-06T09:16:23Z</time></trkpt><trkpt lat="45.52162645716116" lon="8.504810075673415"><ele>183.0</ele><time>2026-04-06T09:16:24Z</time></trkpt><trkpt lat="45.521713334690894" lon="8.505014007037225"><ele>183.0</ele><time>2026-04-06T09:16:25Z</time></trkpt><trkpt lat="45.52180315654658" lon="8.505214804238333"><ele>183.0</ele><time>2026-04-06T09:16:26Z</time></trkpt><trkpt lat="45.52189630731664" lon="8.505420692494843"><ele>183.0</ele><time>2026-04-06T09:16:27Z</time></trkpt><trkpt lat="45.52199846305562" lon="8.505641999227144"><ele>183.0</ele><time>2026-04-06T09:16:28Z</time></trkpt><trkpt lat="45.52210225561771" lon="8.50587270622315"><ele>183.0</ele><time>2026-04-06T09:16:29Z</time></trkpt><trkpt lat="45.522214237997964" lon="8.506111097738973"><ele>183.0</ele><time>2026-04-06T09:16:30Z</time></trkpt><trkpt lat="45.52233378655599" lon="8.506353874894863"><ele>183.0</ele><time>2026-04-06T09:16:31Z</time></trkpt><trkpt lat="45.52245347116768" lon="8.506611130530723"><ele>183.0</ele><time>2026-04-06T09:16:32Z</time></trkpt><trkpt lat="45.52257185347121" lon="8.50688217720879"><ele>183.0</ele><time>2026-04-06T09:16:33Z</time></trkpt><trkpt lat="45.52269182365174" lon="8.50716234310118"><ele>183.5</ele><time>2026-04-06T09:16:34Z</time></trkpt><trkpt lat="45.52281552868684" lon="8.507451246877881"><ele>184.0</ele><time>2026-04-06T09:16:35Z</time></trkpt><trkpt lat="45.52294333185339" lon="8.507748589353"><ele>183.0</ele><time>2026-04-06T09:16:36Z</time></trkpt><trkpt lat="45.52307040997313" lon="8.508047157566585"><ele>182.0</ele><time>2026-04-06T09:16:37Z</time></trkpt><trkpt lat="45.52319246193641" lon="8.50833444601192"><ele>182.0</ele><time>2026-04-06T09:16:38Z</time></trkpt><trkpt lat="45.52331468025822" lon="8.508618592190308"><ele>182.0</ele><time>2026-04-06T09:16:39Z</time></trkpt><trkpt lat="45.523435223495405" lon="8.508898989769948"><ele>182.0</ele><time>2026-04-06T09:16:40Z</time></trkpt><trkpt lat="45.523553051339384" lon="8.509170639973572"><ele>182.0</ele><time>2026-04-06T09:16:41Z</time></trkpt><trkpt lat="45.52366982009358" lon="8.509437712625907"><ele>182.0</ele><time>2026-04-06T09:16:42Z</time></trkpt><trkpt lat="45.523786011305575" lon="8.509699914195625"><ele>182.0</ele><time>2026-04-06T09:16:43Z</time></trkpt><trkpt lat="45.5239020768144" lon="8.509961279384191"><ele>182.0</ele><time>2026-04-06T09:16:44Z</time></trkpt><trkpt lat="45.52401741317309" lon="8.51022176227424"><ele>182.0</ele><time>2026-04-06T09:16:45Z</time></trkpt><trkpt lat="45.524132208648695" lon="8.51048188842555"><ele>182.0</ele><time>2026-04-06T09:16:46Z</time></trkpt><trkpt lat="45.52424513314699" lon="8.510740165354196"><ele>182.0</ele><time>2026-04-06T09:16:47Z</time></trkpt><trkpt lat="45.524356786349834" lon="8.510996293136019"><ele>182.0</ele><time>2026-04-06T09:16:48Z</time></trkpt><trkpt lat="45.524468183867974" lon="8.511249812327096"><ele>182.0</ele><time>2026-04-06T09:16:49Z</time></trkpt><trkpt lat="45.52458002836456" lon="8.511502001067786"><ele>182.0</ele><time>2026-04-06T09:16:50Z</time></trkpt><trkpt lat="45.52469155352045" lon="8.511755093255427"><ele>182.0</ele><time>2026-04-06T09:16:51Z</time></trkpt><trkpt lat="45.524802298077084" lon="8.512005342419034"><ele>182.0</ele><time>2026-04-06T09:16:52Z</time></trkpt><trkpt lat="45.52490805375578" lon="8.512244953215031"><ele>182.0</ele><time>2026-04-06T09:16:53Z</time></trkpt><trkpt lat="45.52500863860356" lon="8.512466935975977"><ele>182.0</ele><time>2026-04-06T09:16:54Z</time></trkpt><trkpt lat="45.52510131170129" lon="8.512671859298086"><ele>182.0</ele><time>2026-04-06T09:16:55Z</time></trkpt><trkpt lat="45.525181364730784" lon="8.51285050774156"><ele>182.0</ele><time>2026-04-06T09:16:56Z</time></trkpt><trkpt lat="45.525250708692525" lon="8.51300801222738"><ele>182.0</ele><time>2026-04-06T09:16:57Z</time></trkpt><trkpt lat="45.52531192457581" lon="8.513146092320213"><ele>182.0</ele><time>2026-04-06T09:16:58Z</time></trkpt><trkpt lat="45.52536252914733" lon="8.51325235207561"><ele>182.0</ele><time>2026-04-06T09:16:59Z</time></trkpt><trkpt lat="45.525406989969525" lon="8.513324760389077"><ele>182.0</ele><time>2026-04-06T09:17:00Z</time></trkpt><trkpt lat="45.525464098601546" lon="8.513374771369257"><ele>182.0</ele><time>2026-04-06T09:17:10Z</time></trkpt><trkpt lat="45.52553884221994" lon="8.51340815066553"><ele>182.0</ele><time>2026-04-06T09:17:20.999Z</time></trkpt><trkpt lat="45.52562212389208" lon="8.513308277248264"><ele>182.0</ele><time>2026-04-06T09:17:22.999Z</time></trkpt><trkpt lat="45.525707363436965" lon="8.513211423744078"><ele>182.0</ele><time>2026-04-06T09:17:24.999Z</time></trkpt><trkpt lat="45.52568461458806" lon="8.513109640017674"><ele>182.0</ele><time>2026-04-06T09:17:26.999Z</time></trkpt><trkpt lat="45.525762677438344" lon="8.513027154279417"><ele>182.0</ele><time>2026-04-06T09:17:29.999Z</time></trkpt><trkpt lat="45.52581389522251" lon="8.512934129563456"><ele>182.0</ele><time>2026-04-06T09:17:30.999Z</time></trkpt><trkpt lat="45.525867329029666" lon="8.51280299462343"><ele>182.0</ele><time>2026-04-06T09:17:31.999Z</time></trkpt><trkpt lat="45.52592593310589" lon="8.5126545597809"><ele>182.0</ele><time>2026-04-06T09:17:32.999Z</time></trkpt><trkpt lat="45.525994407324454" lon="8.512485530580076"><ele>182.33333333333331</ele><time>2026-04-06T09:17:33.999Z</time></trkpt><trkpt lat="45.52607186674667" lon="8.51228874989621"><ele>182.66666666666666</ele><time>2026-04-06T09:17:34.999Z</time></trkpt><trkpt lat="45.52615251703033" lon="8.51208033545506"><ele>183.0</ele><time>2026-04-06T09:17:35.999Z</time></trkpt><trkpt lat="45.52624079243102" lon="8.511854641658726"><ele>183.33333333333334</ele><time>2026-04-06T09:17:36.999Z</time></trkpt><trkpt lat="45.526332690107225" lon="8.51162441725567"><ele>183.66666666666669</ele><time>2026-04-06T09:17:37.999Z</time></trkpt><trkpt lat="45.52643065885795" lon="8.511380388219772"><ele>184.0</ele><time>2026-04-06T09:17:38.999Z</time></trkpt><trkpt lat="45.52653327900327" lon="8.511124435129943"><ele>184.0</ele><time>2026-04-06T09:17:39.999Z</time></trkpt><trkpt lat="45.52663673352497" lon="8.510862855862543"><ele>184.0</ele><time>2026-04-06T09:17:40.999Z</time></trkpt><trkpt lat="45.52673842016957" lon="8.510609342522926"><ele>184.0</ele><time>2026-04-06T09:17:41.999Z</time></trkpt><trkpt lat="45.5268414903723" lon="8.51034984130593"><ele>183.66666666666669</ele><time>2026-04-06T09:17:42.999Z</time></trkpt><trkpt lat="45.52694636385419" lon="8.510093894741225"><ele>183.33333333333334</ele><time>2026-04-06T09:17:43.999Z</time></trkpt><trkpt lat="45.527049637262685" lon="8.509846710332857"><ele>183.0</ele><time>2026-04-06T09:17:44.999Z</time></trkpt><trkpt lat="45.52714571144193" lon="8.509609323779486"><ele>183.33333333333334</ele><time>2026-04-06T09:17:45.999Z</time></trkpt><trkpt lat="45.52723597670372" lon="8.509375853963423"><ele>183.66666666666669</ele><time>2026-04-06T09:17:46.999Z</time></trkpt><trkpt lat="45.527324936436536" lon="8.509143282278952"><ele>184.0</ele><time>2026-04-06T09:17:47.999Z</time></trkpt><trkpt lat="45.52741151508699" lon="8.50891963256529"><ele>184.0</ele><time>2026-04-06T09:17:49Z</time></trkpt><trkpt lat="45.52749791763745" lon="8.508705627610167"><ele>184.0</ele><time>2026-04-06T09:17:50Z</time></trkpt><trkpt lat="45.52757708868941" lon="8.508501620081892"><ele>184.0</ele><time>2026-04-06T09:17:51Z</time></trkpt><trkpt lat="45.527658765229724" lon="8.50829652829711"><ele>184.0</ele><time>2026-04-06T09:17:52Z</time></trkpt><trkpt lat="45.52773789855306" lon="8.508093439497284"><ele>184.0</ele><time>2026-04-06T09:17:53Z</time></trkpt><trkpt lat="45.52781586518168" lon="8.507893486317592"><ele>184.0</ele><time>2026-04-06T09:17:54Z</time></trkpt><trkpt lat="45.5278916950594" lon="8.507698013114013"><ele>184.33333333333334</ele><time>2026-04-06T09:17:55Z</time></trkpt><trkpt lat="45.527967769689084" lon="8.507502465902016"><ele>184.66666666666666</ele><time>2026-04-06T09:17:56Z</time></trkpt><trkpt lat="45.52804413400167" lon="8.507302098371781"><ele>185.0</ele><time>2026-04-06T09:17:57Z</time></trkpt><trkpt lat="45.528118097363894" lon="8.507107812742492"><ele>185.0</ele><time>2026-04-06T09:17:58Z</time></trkpt><trkpt lat="45.528189363173794" lon="8.506918161885237"><ele>185.0</ele><time>2026-04-06T09:17:59Z</time></trkpt><trkpt lat="45.52825782471335" lon="8.506738276512099"><ele>185.0</ele><time>2026-04-06T09:18:00Z</time></trkpt><trkpt lat="45.528324653812824" lon="8.506570837433973"><ele>185.0</ele><time>2026-04-06T09:18:01Z</time></trkpt><trkpt lat="45.528387772666065" lon="8.506420266635848"><ele>185.0</ele><time>2026-04-06T09:18:02Z</time></trkpt><trkpt lat="45.5284480040419" lon="8.506284881134418"><ele>185.0</ele><time>2026-04-06T09:18:03Z</time></trkpt><trkpt lat="45.52850490329684" lon="8.506162852003719"><ele>185.0</ele><time>2026-04-06T09:18:04Z</time></trkpt><trkpt lat="45.528559078160306" lon="8.50605058224987"><ele>185.0</ele><time>2026-04-06T09:18:05Z</time></trkpt><trkpt lat="45.52861008247355" lon="8.505955767110853"><ele>185.0</ele><time>2026-04-06T09:18:06Z</time></trkpt><trkpt lat="45.528671890013555" lon="8.505883151080496"><ele>185.0</ele><time>2026-04-06T09:18:07Z</time></trkpt><trkpt lat="45.52874276676346" lon="8.505853228734441"><ele>185.0</ele><time>2026-04-06T09:18:08Z</time></trkpt><trkpt lat="45.52880735358469" lon="8.505831074104057"><ele>185.0</ele><time>2026-04-06T09:18:09Z</time></trkpt><trkpt lat="45.52889306290525" lon="8.505804296901742"><ele>185.0</ele><time>2026-04-06T09:18:10Z</time></trkpt><trkpt lat="45.52899685154754" lon="8.505784557353834"><ele>185.0</ele><time>2026-04-06T09:18:11Z</time></trkpt><trkpt lat="45.52908752577478" lon="8.505808084345205"><ele>185.0</ele><time>2026-04-06T09:18:12Z</time></trkpt><trkpt lat="45.52917572026697" lon="8.50585795759815"><ele>185.0</ele><time>2026-04-06T09:18:13Z</time></trkpt><trkpt lat="45.529269277706106" lon="8.505931756427374"><ele>185.0</ele><time>2026-04-06T09:18:14Z</time></trkpt><trkpt lat="45.52935819575947" lon="8.506008245837847"><ele>185.0</ele><time>2026-04-06T09:18:15Z</time></trkpt><trkpt lat="45.52944011864556" lon="8.50608538976058"><ele>185.0</ele><time>2026-04-06T09:18:16Z</time></trkpt><trkpt lat="45.52952533527112" lon="8.506161584306836"><ele>185.0</ele><time>2026-04-06T09:18:17Z</time></trkpt><trkpt lat="45.52962213386787" lon="8.506243301562224"><ele>185.5</ele><time>2026-04-06T09:18:18Z</time></trkpt><trkpt lat="45.529724210781374" lon="8.506328040443238"><ele>186.0</ele><time>2026-04-06T09:18:19Z</time></trkpt><trkpt lat="45.5298325691877" lon="8.50642451446617"><ele>186.5</ele><time>2026-04-06T09:18:20Z</time></trkpt><trkpt lat="45.52993943471651" lon="8.506518466756456"><ele>187.0</ele><time>2026-04-06T09:18:21Z</time></trkpt><trkpt lat="45.53004538293043" lon="8.506607799858326"><ele>187.0</ele><time>2026-04-06T09:18:22Z</time></trkpt><trkpt lat="45.53014824945765" lon="8.506696291776136"><ele>187.0</ele><time>2026-04-06T09:18:23Z</time></trkpt><trkpt lat="45.53025052792522" lon="8.506788845318194"><ele>187.0</ele><time>2026-04-06T09:18:24Z</time></trkpt><trkpt lat="45.53035319497115" lon="8.506877771535985"><ele>187.0</ele><time>2026-04-06T09:18:25Z</time></trkpt><trkpt lat="45.530455124242685" lon="8.506965756333958"><ele>187.0</ele><time>2026-04-06T09:18:26Z</time></trkpt><trkpt lat="45.530563291110234" lon="8.507059724073631"><ele>187.0</ele><time>2026-04-06T09:18:27Z</time></trkpt><trkpt lat="45.53066725997662" lon="8.507150360209042"><ele>187.0</ele><time>2026-04-06T09:18:28Z</time></trkpt><trkpt lat="45.530771094136036" lon="8.507240478093086"><ele>187.0</ele><time>2026-04-06T09:18:29Z</time></trkpt><trkpt lat="45.53087895787586" lon="8.507335198264292"><ele>187.0</ele><time>2026-04-06T09:18:30Z</time></trkpt><trkpt lat="45.53098120102086" lon="8.507426127206584"><ele>187.0</ele><time>2026-04-06T09:18:31Z</time></trkpt><trkpt lat="45.53107815607279" lon="8.507512435800411"><ele>187.0</ele><time>2026-04-06T09:18:32Z</time></trkpt><trkpt lat="45.53117381715889" lon="8.507595866667364"><ele>187.0</ele><time>2026-04-06T09:18:33Z</time></trkpt><trkpt lat="45.531267736537934" lon="8.507674513877976"><ele>187.0</ele><time>2026-04-06T09:18:34Z</time></trkpt><trkpt lat="45.53135947398655" lon="8.507755498242506"><ele>187.0</ele><time>2026-04-06T09:18:35Z</time></trkpt><trkpt lat="45.53144889791871" lon="8.507835914851453"><ele>187.0</ele><time>2026-04-06T09:18:36Z</time></trkpt><trkpt lat="45.531538834992006" lon="8.507918579747896"><ele>187.0</ele><time>2026-04-06T09:18:37Z</time></trkpt><trkpt lat="45.531634315058284" lon="8.508003492979823"><ele>187.0</ele><time>2026-04-06T09:18:38Z</time></trkpt><trkpt lat="45.53173232126519" lon="8.508086825031931"><ele>187.0</ele><time>2026-04-06T09:18:39Z</time></trkpt><trkpt lat="45.531829042958265" lon="8.508167530644224"><ele>187.0</ele><time>2026-04-06T09:18:40Z</time></trkpt><trkpt lat="45.531923851996936" lon="8.508245719877225"><ele>187.0</ele><time>2026-04-06T09:18:41Z</time></trkpt><trkpt lat="45.5320136884302" lon="8.508321249412816"><ele>187.0</ele><time>2026-04-06T09:18:42Z</time></trkpt><trkpt lat="45.532098332193314" lon="8.508397462056264"><ele>187.0</ele><time>2026-04-06T09:18:43Z</time></trkpt><trkpt lat="45.53217915931074" lon="8.508470372683163"><ele>187.2</ele><time>2026-04-06T09:18:44Z</time></trkpt><trkpt lat="45.532261615329816" lon="8.50854404392186"><ele>187.39999999999998</ele><time>2026-04-06T09:18:45Z</time></trkpt><trkpt lat="45.532342406168645" lon="8.508614389892688"><ele>187.60000000000002</ele><time>2026-04-06T09:18:46Z</time></trkpt><trkpt lat="45.532426224182394" lon="8.508686922289295"><ele>187.8</ele><time>2026-04-06T09:18:47Z</time></trkpt><trkpt lat="45.532512365912524" lon="8.508765206594086"><ele>188.0</ele><time>2026-04-06T09:18:48Z</time></trkpt><trkpt lat="45.53260946468578" lon="8.508857988003307"><ele>188.0</ele><time>2026-04-06T09:18:49Z</time></trkpt><trkpt lat="45.532718513095865" lon="8.508955955555681"><ele>188.0</ele><time>2026-04-06T09:18:50Z</time></trkpt><trkpt lat="45.53283668260248" lon="8.509057544300974"><ele>188.0</ele><time>2026-04-06T09:18:51Z</time></trkpt><trkpt lat="45.53296194373675" lon="8.50916516331556"><ele>188.0</ele><time>2026-04-06T09:18:52Z</time></trkpt><trkpt lat="45.53309317710992" lon="8.50927848484538"><ele>188.33333333333331</ele><time>2026-04-06T09:18:53Z</time></trkpt><trkpt lat="45.53322929882145" lon="8.509396387428922"><ele>188.66666666666666</ele><time>2026-04-06T09:18:54Z</time></trkpt><trkpt lat="45.53336884335746" lon="8.509517875509513"><ele>189.0</ele><time>2026-04-06T09:18:55Z</time></trkpt><trkpt lat="45.5335010940174" lon="8.509633791300086"><ele>189.0</ele><time>2026-04-06T09:18:56Z</time></trkpt><trkpt lat="45.53362749595568" lon="8.509743700843668"><ele>189.0</ele><time>2026-04-06T09:18:57Z</time></trkpt><trkpt lat="45.533750943676644" lon="8.50985077660116"><ele>189.0</ele><time>2026-04-06T09:18:58Z</time></trkpt><trkpt lat="45.53387248674597" lon="8.50995898908236"><ele>189.0</ele><time>2026-04-06T09:18:59Z</time></trkpt><trkpt lat="45.53398879614078" lon="8.510063727255721"><ele>189.0</ele><time>2026-04-06T09:19:00Z</time></trkpt><trkpt lat="45.53410521817358" lon="8.510164092755597"><ele>189.0</ele><time>2026-04-06T09:19:01Z</time></trkpt><trkpt lat="45.53422076358145" lon="8.510263287411366"><ele>189.0</ele><time>2026-04-06T09:19:02Z</time></trkpt><trkpt lat="45.5343359404629" lon="8.510361571147026"><ele>189.0</ele><time>2026-04-06T09:19:03Z</time></trkpt><trkpt lat="45.534448787180644" lon="8.510461799703002"><ele>189.0</ele><time>2026-04-06T09:19:04Z</time></trkpt><trkpt lat="45.53455990854075" lon="8.51056220087541"><ele>189.0</ele><time>2026-04-06T09:19:05Z</time></trkpt><trkpt lat="45.53467444787807" lon="8.51066300519971"><ele>189.0</ele><time>2026-04-06T09:19:06Z</time></trkpt><trkpt lat="45.53479368903697" lon="8.510765179530983"><ele>189.0</ele><time>2026-04-06T09:19:07Z</time></trkpt><trkpt lat="45.53491347559698" lon="8.510869767733347"><ele>189.0</ele><time>2026-04-06T09:19:08Z</time></trkpt><trkpt lat="45.535032514495434" lon="8.510975267064468"><ele>189.0</ele><time>2026-04-06T09:19:09Z</time></trkpt><trkpt lat="45.53515140767799" lon="8.511078588995542"><ele>189.0</ele><time>2026-04-06T09:19:10Z</time></trkpt><trkpt lat="45.53526823547783" lon="8.511181520879257"><ele>189.0</ele><time>2026-04-06T09:19:11Z</time></trkpt><trkpt lat="45.53538397201988" lon="8.511288364698906"><ele>189.25</ele><time>2026-04-06T09:19:12Z</time></trkpt><trkpt lat="45.53549830383437" lon="8.511401491986097"><ele>189.5</ele><time>2026-04-06T09:19:13Z</time></trkpt><trkpt lat="45.53560309163196" lon="8.511513376106056"><ele>189.75</ele><time>2026-04-06T09:19:14Z</time></trkpt><trkpt lat="45.53569848768568" lon="8.511623516403915"><ele>190.0</ele><time>2026-04-06T09:19:15Z</time></trkpt><trkpt lat="45.53578765827023" lon="8.511737262327749"><ele>190.0</ele><time>2026-04-06T09:19:16Z</time></trkpt><trkpt lat="45.53586864709514" lon="8.511853627034286"><ele>190.0</ele><time>2026-04-06T09:19:17Z</time></trkpt><trkpt lat="45.535942766049764" lon="8.511967751902056"><ele>190.0</ele><time>2026-04-06T09:19:18Z</time></trkpt><trkpt lat="45.53601734432321" lon="8.51207313776167"><ele>190.0</ele><time>2026-04-06T09:19:19Z</time></trkpt><trkpt lat="45.53608501569315" lon="8.512176588122472"><ele>190.0</ele><time>2026-04-06T09:19:20Z</time></trkpt><trkpt lat="45.53614909665872" lon="8.512286735715996"><ele>189.8</ele><time>2026-04-06T09:19:21Z</time></trkpt><trkpt lat="45.53620615141012" lon="8.512394825550627"><ele>189.6</ele><time>2026-04-06T09:19:22Z</time></trkpt><trkpt lat="45.53625892986309" lon="8.512515352037836"><ele>189.39999999999998</ele><time>2026-04-06T09:19:23Z</time></trkpt><trkpt lat="45.53631278829579" lon="8.512653171371324"><ele>189.2</ele><time>2026-04-06T09:19:24Z</time></trkpt><trkpt lat="45.53636693043718" lon="8.512810253323583"><ele>189.0</ele><time>2026-04-06T09:19:25Z</time></trkpt><trkpt lat="45.53642128633306" lon="8.512982626005968"><ele>189.0</ele><time>2026-04-06T09:19:25.999Z</time></trkpt><trkpt lat="45.536476658977534" lon="8.513160996451608"><ele>189.0</ele><time>2026-04-06T09:19:26.999Z</time></trkpt><trkpt lat="45.53653695302544" lon="8.513350392019154"><ele>189.0</ele><time>2026-04-06T09:19:27.999Z</time></trkpt><trkpt lat="45.53660142900591" lon="8.513555304800999"><ele>189.0</ele><time>2026-04-06T09:19:28.999Z</time></trkpt><trkpt lat="45.53667062466967" lon="8.513771290433134"><ele>189.0</ele><time>2026-04-06T09:19:29.999Z</time></trkpt><trkpt lat="45.53673964631362" lon="8.513995017597399"><ele>189.0</ele><time>2026-04-06T09:19:30.999Z</time></trkpt><trkpt lat="45.53680942684809" lon="8.514224308930913"><ele>189.0</ele><time>2026-04-06T09:19:31.999Z</time></trkpt><trkpt lat="45.53688018486161" lon="8.514454545613482"><ele>189.33333333333334</ele><time>2026-04-06T09:19:32.999Z</time></trkpt><trkpt lat="45.53694701204904" lon="8.514665801423215"><ele>189.66666666666669</ele><time>2026-04-06T09:19:33.999Z</time></trkpt><trkpt lat="45.5370122039173" lon="8.51487244551315"><ele>190.0</ele><time>2026-04-06T09:19:34.999Z</time></trkpt><trkpt lat="45.537085491938086" lon="8.515097427533664"><ele>190.33333333333334</ele><time>2026-04-06T09:19:35.999Z</time></trkpt><trkpt lat="45.53716727465319" lon="8.515332402246049"><ele>190.66666666666666</ele><time>2026-04-06T09:19:36.999Z</time></trkpt><trkpt lat="45.53725465384231" lon="8.515581589670402"><ele>191.0</ele><time>2026-04-06T09:19:37.999Z</time></trkpt><trkpt lat="45.53733349818959" lon="8.515843104213879"><ele>191.0</ele><time>2026-04-06T09:19:38.999Z</time></trkpt><trkpt lat="45.53740455302801" lon="8.516121144059738"><ele>191.0</ele><time>2026-04-06T09:19:39.999Z</time></trkpt><trkpt lat="45.537479482965054" lon="8.516406816120975"><ele>191.0</ele><time>2026-04-06T09:19:40.999Z</time></trkpt><trkpt lat="45.537555190476844" lon="8.51667683457007"><ele>191.0</ele><time>2026-04-06T09:19:41.999Z</time></trkpt><trkpt lat="45.53763246882494" lon="8.516916469440472"><ele>191.0</ele><time>2026-04-06T09:19:42.999Z</time></trkpt><trkpt lat="45.53772987288883" lon="8.517144238363757"><ele>191.0</ele><time>2026-04-06T09:19:43.999Z</time></trkpt><trkpt lat="45.53786811149964" lon="8.517352967058486"><ele>190.66666666666666</ele><time>2026-04-06T09:19:44.999Z</time></trkpt><trkpt lat="45.5380351821438" lon="8.51750874195893"><ele>190.33333333333334</ele><time>2026-04-06T09:19:45.999Z</time></trkpt><trkpt lat="45.5382081392572" lon="8.517622193303907"><ele>190.0</ele><time>2026-04-06T09:19:46.999Z</time></trkpt><trkpt lat="45.53838634422013" lon="8.517682360005379"><ele>190.0</ele><time>2026-04-06T09:19:47.999Z</time></trkpt><trkpt lat="45.53857829668131" lon="8.517693832798571"><ele>190.0</ele><time>2026-04-06T09:19:48.999Z</time></trkpt><trkpt lat="45.53877792168646" lon="8.517677409712773"><ele>190.0</ele><time>2026-04-06T09:19:49.999Z</time></trkpt><trkpt lat="45.53898089941821" lon="8.517654870976061"><ele>190.66666666666669</ele><time>2026-04-06T09:19:50.999Z</time></trkpt><trkpt lat="45.539176754780414" lon="8.517638601791473"><ele>191.33333333333334</ele><time>2026-04-06T09:19:51.999Z</time></trkpt><trkpt lat="45.53936746887384" lon="8.517626000256062"><ele>192.0</ele><time>2026-04-06T09:19:52.999Z</time></trkpt><trkpt lat="45.53955710938699" lon="8.517617359261894"><ele>192.0</ele><time>2026-04-06T09:19:53.999Z</time></trkpt><trkpt lat="45.539746896892304" lon="8.517606523288766"><ele>192.0</ele><time>2026-04-06T09:19:55Z</time></trkpt><trkpt lat="45.539936763664215" lon="8.517591551641159"><ele>192.0</ele><time>2026-04-06T09:19:56Z</time></trkpt><trkpt lat="45.54013372930086" lon="8.517578482039733"><ele>192.0</ele><time>2026-04-06T09:19:57Z</time></trkpt><trkpt lat="45.540332611022684" lon="8.51756630824962"><ele>192.0</ele><time>2026-04-06T09:19:58Z</time></trkpt><trkpt lat="45.54053258360998" lon="8.517554484058698"><ele>192.0</ele><time>2026-04-06T09:19:59Z</time></trkpt><trkpt lat="45.54073441940473" lon="8.51754273646368"><ele>191.66666666666666</ele><time>2026-04-06T09:20:00Z</time></trkpt><trkpt lat="45.54093779801129" lon="8.517531610607033"><ele>191.33333333333331</ele><time>2026-04-06T09:20:01Z</time></trkpt><trkpt lat="45.54114259994471" lon="8.517517253904645"><ele>191.0</ele><time>2026-04-06T09:20:02Z</time></trkpt><trkpt lat="45.54135024009059" lon="8.517501239883165"><ele>192.0</ele><time>2026-04-06T09:20:03Z</time></trkpt><trkpt lat="45.541561119922946" lon="8.517486702908752"><ele>193.0</ele><time>2026-04-06T09:20:04Z</time></trkpt><trkpt lat="45.5417764630972" lon="8.517473453128602"><ele>194.0</ele><time>2026-04-06T09:20:05Z</time></trkpt><trkpt lat="45.54198987315317" lon="8.5174590562982"><ele>194.0</ele><time>2026-04-06T09:20:06Z</time></trkpt><trkpt lat="45.542201874075296" lon="8.517445172254877"><ele>194.0</ele><time>2026-04-06T09:20:07Z</time></trkpt><trkpt lat="45.54241381353383" lon="8.51743247876365"><ele>194.0</ele><time>2026-04-06T09:20:08Z</time></trkpt><trkpt lat="45.542625068302335" lon="8.517418672560336"><ele>194.0</ele><time>2026-04-06T09:20:09Z</time></trkpt><trkpt lat="45.542831717580924" lon="8.517404132179296"><ele>194.0</ele><time>2026-04-06T09:20:10Z</time></trkpt><trkpt lat="45.54304256427221" lon="8.517390691807107"><ele>194.0</ele><time>2026-04-06T09:20:11Z</time></trkpt><trkpt lat="45.54325414607915" lon="8.517377850325401"><ele>194.0</ele><time>2026-04-06T09:20:12Z</time></trkpt><trkpt lat="45.54346763287578" lon="8.517364322212984"><ele>194.0</ele><time>2026-04-06T09:20:13Z</time></trkpt><trkpt lat="45.54368221134792" lon="8.517350634674104"><ele>194.0</ele><time>2026-04-06T09:20:14Z</time></trkpt><trkpt lat="45.54389738072306" lon="8.517335678498762"><ele>194.0</ele><time>2026-04-06T09:20:15Z</time></trkpt><trkpt lat="45.544112463488915" lon="8.517320245569207"><ele>194.0</ele><time>2026-04-06T09:20:16Z</time></trkpt><trkpt lat="45.544326359115225" lon="8.517305164473463"><ele>194.0</ele><time>2026-04-06T09:20:17Z</time></trkpt><trkpt lat="45.54453849883014" lon="8.5172927230359"><ele>194.33333333333334</ele><time>2026-04-06T09:20:18Z</time></trkpt><trkpt lat="45.54475384165958" lon="8.517279801229552"><ele>194.66666666666669</ele><time>2026-04-06T09:20:19Z</time></trkpt><trkpt lat="45.54497032281694" lon="8.517265207222199"><ele>195.0</ele><time>2026-04-06T09:20:20Z</time></trkpt><trkpt lat="45.54518493286857" lon="8.517251392730861"><ele>195.33333333333331</ele><time>2026-04-06T09:20:21Z</time></trkpt><trkpt lat="45.54539929399114" lon="8.517237428322316"><ele>195.66666666666666</ele><time>2026-04-06T09:20:22Z</time></trkpt><trkpt lat="45.545615299941595" lon="8.517223736886903"><ele>196.0</ele><time>2026-04-06T09:20:23Z</time></trkpt><trkpt lat="45.54583376493963" lon="8.517210846734704"><ele>196.0</ele><time>2026-04-06T09:20:24Z</time></trkpt><trkpt lat="45.54605254808134" lon="8.517196108925825"><ele>196.0</ele><time>2026-04-06T09:20:25Z</time></trkpt><trkpt lat="45.54627034737439" lon="8.517180094011472"><ele>196.0</ele><time>2026-04-06T09:20:26Z</time></trkpt><trkpt lat="45.54648910015013" lon="8.517165399811875"><ele>195.66666666666666</ele><time>2026-04-06T09:20:27Z</time></trkpt><trkpt lat="45.546707525083214" lon="8.517151700777395"><ele>195.33333333333331</ele><time>2026-04-06T09:20:28Z</time></trkpt><trkpt lat="45.54692474045538" lon="8.51713829257598"><ele>195.0</ele><time>2026-04-06T09:20:29Z</time></trkpt><trkpt lat="45.5471437705029" lon="8.517125522291407"><ele>195.0</ele><time>2026-04-06T09:20:30Z</time></trkpt><trkpt lat="45.54736332722728" lon="8.517110737316354"><ele>195.0</ele><time>2026-04-06T09:20:31Z</time></trkpt><trkpt lat="45.54758368543995" lon="8.5170952482267"><ele>195.0</ele><time>2026-04-06T09:20:32Z</time></trkpt><trkpt lat="45.54780465903626" lon="8.517080765798628"><ele>195.66666666666669</ele><time>2026-04-06T09:20:33Z</time></trkpt><trkpt lat="45.5480240059097" lon="8.517066284861242"><ele>196.33333333333334</ele><time>2026-04-06T09:20:34Z</time></trkpt><trkpt lat="45.5482416563988" lon="8.517053711442804"><ele>197.0</ele><time>2026-04-06T09:20:35Z</time></trkpt><trkpt lat="45.54846029711623" lon="8.517042997831487"><ele>197.0</ele><time>2026-04-06T09:20:36Z</time></trkpt><trkpt lat="45.54867753317647" lon="8.517031634946512"><ele>197.0</ele><time>2026-04-06T09:20:37Z</time></trkpt><trkpt lat="45.54889133425218" lon="8.517020106042242"><ele>197.0</ele><time>2026-04-06T09:20:38Z</time></trkpt><trkpt lat="45.54910559508982" lon="8.517012935017481"><ele>197.66666666666669</ele><time>2026-04-06T09:20:39Z</time></trkpt><trkpt lat="45.54932100226503" lon="8.517006092393816"><ele>198.33333333333331</ele><time>2026-04-06T09:20:40Z</time></trkpt><trkpt lat="45.54953609237626" lon="8.516999140200952"><ele>199.0</ele><time>2026-04-06T09:20:41Z</time></trkpt><trkpt lat="45.54975110376966" lon="8.51699108823787"><ele>199.0</ele><time>2026-04-06T09:20:42Z</time></trkpt><trkpt lat="45.549966159090026" lon="8.516983439303031"><ele>199.0</ele><time>2026-04-06T09:20:43Z</time></trkpt><trkpt lat="45.550182076099155" lon="8.516976199912717"><ele>199.0</ele><time>2026-04-06T09:20:44Z</time></trkpt><trkpt lat="45.55039772561224" lon="8.516968722142757"><ele>198.0</ele><time>2026-04-06T09:20:45Z</time></trkpt><trkpt lat="45.55061364405208" lon="8.516962482345983"><ele>197.0</ele><time>2026-04-06T09:20:46Z</time></trkpt><trkpt lat="45.55083287839514" lon="8.516956779627176"><ele>196.0</ele><time>2026-04-06T09:20:47Z</time></trkpt><trkpt lat="45.55104974377362" lon="8.516948842389626"><ele>196.66666666666666</ele><time>2026-04-06T09:20:48Z</time></trkpt><trkpt lat="45.55126814113085" lon="8.516940794828304"><ele>197.33333333333331</ele><time>2026-04-06T09:20:49Z</time></trkpt><trkpt lat="45.55148784809881" lon="8.516933102067958"><ele>198.0</ele><time>2026-04-06T09:20:50Z</time></trkpt><trkpt lat="45.551707689631556" lon="8.516926725895395"><ele>198.0</ele><time>2026-04-06T09:20:51Z</time></trkpt><trkpt lat="45.55192607563406" lon="8.516921206984644"><ele>198.0</ele><time>2026-04-06T09:20:52Z</time></trkpt><trkpt lat="45.552141721382284" lon="8.51691246449356"><ele>198.0</ele><time>2026-04-06T09:20:53Z</time></trkpt><trkpt lat="45.55235976907461" lon="8.51690484608041"><ele>198.0</ele><time>2026-04-06T09:20:54Z</time></trkpt><trkpt lat="45.552576107913595" lon="8.516896205081583"><ele>198.0</ele><time>2026-04-06T09:20:55Z</time></trkpt><trkpt lat="45.55279274489078" lon="8.516887920078132"><ele>198.0</ele><time>2026-04-06T09:20:56Z</time></trkpt><trkpt lat="45.553007969481285" lon="8.516878410368122"><ele>198.66666666666669</ele><time>2026-04-06T09:20:57Z</time></trkpt><trkpt lat="45.553223869297476" lon="8.51687153441266"><ele>199.33333333333334</ele><time>2026-04-06T09:20:58Z</time></trkpt><trkpt lat="45.553439300301115" lon="8.516864571834603"><ele>200.0</ele><time>2026-04-06T09:20:59Z</time></trkpt><trkpt lat="45.553653504519225" lon="8.516858545917438"><ele>200.33333333333334</ele><time>2026-04-06T09:21:00Z</time></trkpt><trkpt lat="45.55386925914216" lon="8.516852355586447"><ele>200.66666666666669</ele><time>2026-04-06T09:21:01Z</time></trkpt><trkpt lat="45.5540845056337" lon="8.516846043265767"><ele>201.0</ele><time>2026-04-06T09:21:02Z</time></trkpt><trkpt lat="45.5542994396816" lon="8.516838428472065"><ele>201.0</ele><time>2026-04-06T09:21:03Z</time></trkpt><trkpt lat="45.55451359868753" lon="8.516830282710712"><ele>201.0</ele><time>2026-04-06T09:21:04Z</time></trkpt><trkpt lat="45.55472824730368" lon="8.516823769537071"><ele>201.0</ele><time>2026-04-06T09:21:05Z</time></trkpt><trkpt lat="45.554943002342036" lon="8.516815721786678"><ele>201.33333333333331</ele><time>2026-04-06T09:21:06Z</time></trkpt><trkpt lat="45.5551563618753" lon="8.516808747260718"><ele>201.66666666666666</ele><time>2026-04-06T09:21:07Z</time></trkpt><trkpt lat="45.555368821581666" lon="8.51680134430731"><ele>202.0</ele><time>2026-04-06T09:21:08Z</time></trkpt><trkpt lat="45.55558166195994" lon="8.516793727865643"><ele>202.0</ele><time>2026-04-06T09:21:09Z</time></trkpt><trkpt lat="45.55579449457187" lon="8.516787129896791"><ele>202.0</ele><time>2026-04-06T09:21:10Z</time></trkpt><trkpt lat="45.55600786340481" lon="8.516779773774184"><ele>202.0</ele><time>2026-04-06T09:21:11Z</time></trkpt><trkpt lat="45.55622200510996" lon="8.516771988715535"><ele>202.0</ele><time>2026-04-06T09:21:12Z</time></trkpt><trkpt lat="45.55643638990343" lon="8.51676383986475"><ele>202.0</ele><time>2026-04-06T09:21:13Z</time></trkpt><trkpt lat="45.55665012871642" lon="8.516755499329717"><ele>202.0</ele><time>2026-04-06T09:21:14Z</time></trkpt><trkpt lat="45.55686366417549" lon="8.516748209805217"><ele>202.33333333333331</ele><time>2026-04-06T09:21:15Z</time></trkpt><trkpt lat="45.55707675673935" lon="8.516741381795507"><ele>202.66666666666669</ele><time>2026-04-06T09:21:16Z</time></trkpt><trkpt lat="45.5572871509646" lon="8.516733221178121"><ele>203.0</ele><time>2026-04-06T09:21:17Z</time></trkpt><trkpt lat="45.55748874308436" lon="8.51672641833632"><ele>203.0</ele><time>2026-04-06T09:21:18Z</time></trkpt><trkpt lat="45.55768202172259" lon="8.516720173418207"><ele>203.0</ele><time>2026-04-06T09:21:19Z</time></trkpt><trkpt lat="45.55786485211291" lon="8.516715175519336"><ele>203.0</ele><time>2026-04-06T09:21:20Z</time></trkpt><trkpt lat="45.55803738593843" lon="8.516711554100157"><ele>203.25</ele><time>2026-04-06T09:21:21Z</time></trkpt><trkpt lat="45.55819364083348" lon="8.516714391102314"><ele>203.5</ele><time>2026-04-06T09:21:22Z</time></trkpt><trkpt lat="45.55833554557555" lon="8.516735036101771"><ele>203.75</ele><time>2026-04-06T09:21:23Z</time></trkpt><trkpt lat="45.55846328712775" lon="8.516780457213795"><ele>204.0</ele><time>2026-04-06T09:21:24Z</time></trkpt><trkpt lat="45.55857014127029" lon="8.516836758381812"><ele>204.0</ele><time>2026-04-06T09:21:25Z</time></trkpt><trkpt lat="45.558654100083785" lon="8.516906978411704"><ele>204.0</ele><time>2026-04-06T09:21:26Z</time></trkpt><trkpt lat="45.55873122760496" lon="8.51698687988511"><ele>204.0</ele><time>2026-04-06T09:21:27Z</time></trkpt><trkpt lat="45.558801256923786" lon="8.517007474865979"><ele>204.0</ele><time>2026-04-06T09:21:27.999Z</time></trkpt><trkpt lat="45.55886711542206" lon="8.516969270408186"><ele>204.0</ele><time>2026-04-06T09:21:28.999Z</time></trkpt><trkpt lat="45.55891536479874" lon="8.516878831182208"><ele>204.0</ele><time>2026-04-06T09:21:29.999Z</time></trkpt><trkpt lat="45.55895975584927" lon="8.516765601387462"><ele>204.2</ele><time>2026-04-06T09:21:30.999Z</time></trkpt><trkpt lat="45.559030010722296" lon="8.516688182177475"><ele>204.39999999999998</ele><time>2026-04-06T09:21:31.999Z</time></trkpt><trkpt lat="45.559126887542064" lon="8.516674059711473"><ele>204.6</ele><time>2026-04-06T09:21:32.999Z</time></trkpt><trkpt lat="45.559236929324705" lon="8.516679257641087"><ele>204.8</ele><time>2026-04-06T09:21:33.999Z</time></trkpt><trkpt lat="45.559359614331356" lon="8.516696919270906"><ele>205.0</ele><time>2026-04-06T09:21:34.999Z</time></trkpt><trkpt lat="45.55948489283087" lon="8.516710178708394"><ele>205.33333333333331</ele><time>2026-04-06T09:21:35.999Z</time></trkpt><trkpt lat="45.559628456461475" lon="8.516717150649246"><ele>205.66666666666669</ele><time>2026-04-06T09:21:36.999Z</time></trkpt><trkpt lat="45.55978330609605" lon="8.51672319425421"><ele>206.0</ele><time>2026-04-06T09:21:37.999Z</time></trkpt><trkpt lat="45.55993601215476" lon="8.51673124279951"><ele>206.0</ele><time>2026-04-06T09:21:38.999Z</time></trkpt><trkpt lat="45.56010093779041" lon="8.516739429911597"><ele>206.0</ele><time>2026-04-06T09:21:39.999Z</time></trkpt><trkpt lat="45.560272660044625" lon="8.516749246694525"><ele>206.0</ele><time>2026-04-06T09:21:40.999Z</time></trkpt><trkpt lat="45.5604539679611" lon="8.51675922818074"><ele>206.0</ele><time>2026-04-06T09:21:41.999Z</time></trkpt><trkpt lat="45.56064159206899" lon="8.516770159785533"><ele>206.0</ele><time>2026-04-06T09:21:42.999Z</time></trkpt><trkpt lat="45.560835452124486" lon="8.516779890061533"><ele>206.0</ele><time>2026-04-06T09:21:43.999Z</time></trkpt><trkpt lat="45.5610403063294" lon="8.516787840253818"><ele>206.0</ele><time>2026-04-06T09:21:44.999Z</time></trkpt><trkpt lat="45.56125532926754" lon="8.516799319294067"><ele>206.0</ele><time>2026-04-06T09:21:45.999Z</time></trkpt><trkpt lat="45.561464378328054" lon="8.51681141803811"><ele>206.0</ele><time>2026-04-06T09:21:46.999Z</time></trkpt><trkpt lat="45.56167870969059" lon="8.516820833933197"><ele>206.0</ele><time>2026-04-06T09:21:47.999Z</time></trkpt><trkpt lat="45.56189546423009" lon="8.516830097869228"><ele>206.0</ele><time>2026-04-06T09:21:48.999Z</time></trkpt><trkpt lat="45.56211524306099" lon="8.516841356468086"><ele>206.0</ele><time>2026-04-06T09:21:49.999Z</time></trkpt><trkpt lat="45.562337394339664" lon="8.516852426338088"><ele>206.0</ele><time>2026-04-06T09:21:50.999Z</time></trkpt><trkpt lat="45.56256317968656" lon="8.516861928927021"><ele>206.0</ele><time>2026-04-06T09:21:51.999Z</time></trkpt><trkpt lat="45.56279146736756" lon="8.516872209804673"><ele>207.0</ele><time>2026-04-06T09:21:52.999Z</time></trkpt><trkpt lat="45.56302154597276" lon="8.516882646400427"><ele>208.0</ele><time>2026-04-06T09:21:53.999Z</time></trkpt><trkpt lat="45.563250224260784" lon="8.51689445958942"><ele>208.0</ele><time>2026-04-06T09:21:54.999Z</time></trkpt><trkpt lat="45.563478637094455" lon="8.516905808234762"><ele>208.0</ele><time>2026-04-06T09:21:55.999Z</time></trkpt><trkpt lat="45.563703782290894" lon="8.516918197951036"><ele>207.5</ele><time>2026-04-06T09:21:56.999Z</time></trkpt><trkpt lat="45.56392854102728" lon="8.516929046687775"><ele>207.0</ele><time>2026-04-06T09:21:57.999Z</time></trkpt><trkpt lat="45.56415373311463" lon="8.51694005277901"><ele>207.0</ele><time>2026-04-06T09:21:58.999Z</time></trkpt><trkpt lat="45.56437736178181" lon="8.516950774209853"><ele>207.0</ele><time>2026-04-06T09:21:59.999Z</time></trkpt><trkpt lat="45.564602240486124" lon="8.516962007321599"><ele>207.0</ele><time>2026-04-06T09:22:01Z</time></trkpt><trkpt lat="45.56482797511354" lon="8.516972797784598"><ele>207.5</ele><time>2026-04-06T09:22:02Z</time></trkpt><trkpt lat="45.56505354811376" lon="8.516982479354416"><ele>208.0</ele><time>2026-04-06T09:22:03Z</time></trkpt><trkpt lat="45.56527809350801" lon="8.516990802545067"><ele>208.33333333333331</ele><time>2026-04-06T09:22:04Z</time></trkpt><trkpt lat="45.56550220621497" lon="8.517001860437805"><ele>208.66666666666669</ele><time>2026-04-06T09:22:05Z</time></trkpt><trkpt lat="45.56572542942242" lon="8.517014914073789"><ele>209.0</ele><time>2026-04-06T09:22:06Z</time></trkpt><trkpt lat="45.5659479493396" lon="8.517026689444762"><ele>209.0</ele><time>2026-04-06T09:22:07Z</time></trkpt><trkpt lat="45.56616912631466" lon="8.51703835160877"><ele>209.0</ele><time>2026-04-06T09:22:08Z</time></trkpt><trkpt lat="45.56638810674855" lon="8.517048439479405"><ele>209.0</ele><time>2026-04-06T09:22:09Z</time></trkpt><trkpt lat="45.56660474295092" lon="8.517059263675646"><ele>209.0</ele><time>2026-04-06T09:22:10Z</time></trkpt><trkpt lat="45.56682157826375" lon="8.517069463973163"><ele>209.0</ele><time>2026-04-06T09:22:11Z</time></trkpt><trkpt lat="45.56703978071753" lon="8.517080346958826"><ele>209.0</ele><time>2026-04-06T09:22:12Z</time></trkpt><trkpt lat="45.56725846948951" lon="8.517091242738486"><ele>209.0</ele><time>2026-04-06T09:22:13Z</time></trkpt><trkpt lat="45.567478609103375" lon="8.517100976410548"><ele>209.0</ele><time>2026-04-06T09:22:14Z</time></trkpt><trkpt lat="45.567701500542064" lon="8.51711055817021"><ele>209.0</ele><time>2026-04-06T09:22:15Z</time></trkpt><trkpt lat="45.56791431327582" lon="8.517118937299859"><ele>209.33333333333334</ele><time>2026-04-06T09:22:16Z</time></trkpt><trkpt lat="45.5681176467789" lon="8.517126189392407"><ele>209.66666666666669</ele><time>2026-04-06T09:22:17Z</time></trkpt><trkpt lat="45.568318382168755" lon="8.517135138547726"><ele>210.0</ele><time>2026-04-06T09:22:18Z</time></trkpt><trkpt lat="45.56852134582493" lon="8.517146825849922"><ele>210.66666666666669</ele><time>2026-04-06T09:22:19Z</time></trkpt><trkpt lat="45.56872405445772" lon="8.517159060458921"><ele>211.33333333333334</ele><time>2026-04-06T09:22:20Z</time></trkpt><trkpt lat="45.56892708836331" lon="8.517169161416446"><ele>212.0</ele><time>2026-04-06T09:22:21Z</time></trkpt><trkpt lat="45.569125271110515" lon="8.517178430504654"><ele>212.0</ele><time>2026-04-06T09:22:22Z</time></trkpt><trkpt lat="45.569318905769876" lon="8.517187691312024"><ele>212.0</ele><time>2026-04-06T09:22:23Z</time></trkpt><trkpt lat="45.56950639127016" lon="8.51719569635709"><ele>212.0</ele><time>2026-04-06T09:22:24Z</time></trkpt><trkpt lat="45.56969294359846" lon="8.517204539837083"><ele>211.66666666666669</ele><time>2026-04-06T09:22:25Z</time></trkpt><trkpt lat="45.569877537365805" lon="8.51721471847036"><ele>211.33333333333331</ele><time>2026-04-06T09:22:26Z</time></trkpt><trkpt lat="45.57005340175528" lon="8.51722300951301"><ele>211.0</ele><time>2026-04-06T09:22:27Z</time></trkpt><trkpt lat="45.57022277868902" lon="8.517228909456948"><ele>211.33333333333331</ele><time>2026-04-06T09:22:28Z</time></trkpt><trkpt lat="45.570387550217234" lon="8.517236713347877"><ele>211.66666666666669</ele><time>2026-04-06T09:22:29Z</time></trkpt><trkpt lat="45.57054266725474" lon="8.517243309485726"><ele>212.0</ele><time>2026-04-06T09:22:30Z</time></trkpt><trkpt lat="45.57068610948286" lon="8.517250477429263"><ele>212.0</ele><time>2026-04-06T09:22:31Z</time></trkpt><trkpt lat="45.57081167525619" lon="8.517255476890973"><ele>212.0</ele><time>2026-04-06T09:22:32Z</time></trkpt><trkpt lat="45.57092308748547" lon="8.5172606850669"><ele>212.0</ele><time>2026-04-06T09:22:33Z</time></trkpt><trkpt lat="45.57101442513379" lon="8.517276831507125"><ele>212.0</ele><time>2026-04-06T09:22:34Z</time></trkpt><trkpt lat="45.571091494522896" lon="8.517320102968231"><ele>212.0</ele><time>2026-04-06T09:22:35Z</time></trkpt><trkpt lat="45.57116717789379" lon="8.51737803192604"><ele>212.16666666666669</ele><time>2026-04-06T09:22:36Z</time></trkpt><trkpt lat="45.57124095427156" lon="8.517426021062294"><ele>212.33333333333334</ele><time>2026-04-06T09:22:37Z</time></trkpt><trkpt lat="45.571305364535476" lon="8.517425743871144"><ele>212.5</ele><time>2026-04-06T09:22:38Z</time></trkpt><trkpt lat="45.571386846974406" lon="8.517285995799433"><ele>212.66666666666669</ele><time>2026-04-06T09:22:40Z</time></trkpt><trkpt lat="45.57137569486481" lon="8.517176345225902"><ele>212.83333333333334</ele><time>2026-04-06T09:22:41Z</time></trkpt><trkpt lat="45.571339294716815" lon="8.51706808915195"><ele>213.0</ele><time>2026-04-06T09:22:42Z</time></trkpt><trkpt lat="45.571299302862634" lon="8.516948435694816"><ele>213.0</ele><time>2026-04-06T09:22:43Z</time></trkpt><trkpt lat="45.5712699320456" lon="8.516807106141552"><ele>213.0</ele><time>2026-04-06T09:22:44Z</time></trkpt><trkpt lat="45.57128497628066" lon="8.516673488503624"><ele>213.0</ele><time>2026-04-06T09:22:45Z</time></trkpt><trkpt lat="45.57128406652721" lon="8.51654816384777"><ele>213.0</ele><time>2026-04-06T09:22:46Z</time></trkpt><trkpt lat="45.571282686215206" lon="8.51642950457679"><ele>213.0</ele><time>2026-04-06T09:22:47Z</time></trkpt><trkpt lat="45.57128122574004" lon="8.516311378263465"><ele>213.4</ele><time>2026-04-06T09:22:48Z</time></trkpt><trkpt lat="45.57126392328898" lon="8.516183506515436"><ele>213.8</ele><time>2026-04-06T09:22:49Z</time></trkpt><trkpt lat="45.57126266918075" lon="8.51603899313685"><ele>214.2</ele><time>2026-04-06T09:22:50Z</time></trkpt><trkpt lat="45.57126067312934" lon="8.51587181770554"><ele>214.6</ele><time>2026-04-06T09:22:51Z</time></trkpt><trkpt lat="45.57125936319301" lon="8.51567845075317"><ele>215.0</ele><time>2026-04-06T09:22:52Z</time></trkpt><trkpt lat="45.57125810805309" lon="8.515462742146072"><ele>214.33333333333334</ele><time>2026-04-06T09:22:53Z</time></trkpt><trkpt lat="45.57125604002508" lon="8.515226827253912"><ele>213.66666666666669</ele><time>2026-04-06T09:22:54Z</time></trkpt><trkpt lat="45.57125440443878" lon="8.514981687137087"><ele>213.0</ele><time>2026-04-06T09:22:55Z</time></trkpt><trkpt lat="45.5712524888837" lon="8.514720272039042"><ele>213.0</ele><time>2026-04-06T09:22:56Z</time></trkpt><trkpt lat="45.57125043506745" lon="8.514440240015036"><ele>213.0</ele><time>2026-04-06T09:22:57Z</time></trkpt><trkpt lat="45.571247778203656" lon="8.514156105268324"><ele>213.0</ele><time>2026-04-06T09:22:58Z</time></trkpt><trkpt lat="45.57124312569288" lon="8.5138650012907"><ele>214.0</ele><time>2026-04-06T09:22:59Z</time></trkpt><trkpt lat="45.5712375012953" lon="8.513569877089767"><ele>215.0</ele><time>2026-04-06T09:23:00Z</time></trkpt><trkpt lat="45.57123246609115" lon="8.513294931499772"><ele>216.0</ele><time>2026-04-06T09:23:01Z</time></trkpt><trkpt lat="45.57122832608189" lon="8.513036424718546"><ele>216.0</ele><time>2026-04-06T09:23:02Z</time></trkpt><trkpt lat="45.571224356637615" lon="8.512791750652466"><ele>216.0</ele><time>2026-04-06T09:23:03Z</time></trkpt><trkpt lat="45.5712210037559" lon="8.512552862171798"><ele>216.0</ele><time>2026-04-06T09:23:04Z</time></trkpt><trkpt lat="45.571218263201345" lon="8.512315157916795"><ele>216.0</ele><time>2026-04-06T09:23:05Z</time></trkpt><trkpt lat="45.57121550100072" lon="8.512089859002172"><ele>216.0</ele><time>2026-04-06T09:23:06Z</time></trkpt><trkpt lat="45.57121443191029" lon="8.511892600444474"><ele>216.0</ele><time>2026-04-06T09:23:07Z</time></trkpt><trkpt lat="45.57121609945668" lon="8.511721589261002"><ele>216.0</ele><time>2026-04-06T09:23:08Z</time></trkpt><trkpt lat="45.57122187177564" lon="8.51157653588389"><ele>216.8</ele><time>2026-04-06T09:23:09Z</time></trkpt><trkpt lat="45.5712363087512" lon="8.511469851993674"><ele>217.60000000000002</ele><time>2026-04-06T09:23:10Z</time></trkpt><trkpt lat="45.57130822273558" lon="8.511375139774994"><ele>218.4</ele><time>2026-04-06T09:23:12Z</time></trkpt><trkpt lat="45.57140866414377" lon="8.511384435947866"><ele>219.2</ele><time>2026-04-06T09:23:13Z</time></trkpt><trkpt lat="45.571500063961686" lon="8.511390633330652"><ele>220.0</ele><time>2026-04-06T09:23:14Z</time></trkpt><trkpt lat="45.57161109828132" lon="8.511386109884288"><ele>220.0</ele><time>2026-04-06T09:23:15Z</time></trkpt><trkpt lat="45.571733147063235" lon="8.511378797138457"><ele>220.0</ele><time>2026-04-06T09:23:16Z</time></trkpt><trkpt lat="45.57186775410951" lon="8.511366429585749"><ele>220.0</ele><time>2026-04-06T09:23:17Z</time></trkpt><trkpt lat="45.571986559576374" lon="8.51135844223591"><ele>220.0</ele><time>2026-04-06T09:23:18Z</time></trkpt><trkpt lat="45.57209383598703" lon="8.511353762848271"><ele>219.8</ele><time>2026-04-06T09:23:19Z</time></trkpt><trkpt lat="45.572198437743495" lon="8.511345620643285"><ele>219.6</ele><time>2026-04-06T09:23:20Z</time></trkpt><trkpt lat="45.57229919643882" lon="8.511331133331586"><ele>219.39999999999998</ele><time>2026-04-06T09:23:21Z</time></trkpt><trkpt lat="45.572397401731685" lon="8.511306486576364"><ele>219.2</ele><time>2026-04-06T09:23:22Z</time></trkpt><trkpt lat="45.572486294056425" lon="8.511261575770975"><ele>219.0</ele><time>2026-04-06T09:23:23Z</time></trkpt><trkpt lat="45.57257659750115" lon="8.511188382845647"><ele>219.39999999999998</ele><time>2026-04-06T09:23:24Z</time></trkpt><trkpt lat="45.57265423698887" lon="8.511130966311834"><ele>219.79999999999998</ele><time>2026-04-06T09:23:25Z</time></trkpt><trkpt lat="45.57272252329058" lon="8.511092041121845"><ele>220.20000000000002</ele><time>2026-04-06T09:23:26Z</time></trkpt><trkpt lat="45.572799788619555" lon="8.511050561049487"><ele>220.60000000000002</ele><time>2026-04-06T09:23:28Z</time></trkpt><trkpt lat="45.572890856260976" lon="8.511290006487288"><ele>221.0</ele><time>2026-04-06T09:23:35Z</time></trkpt><trkpt lat="45.57290245257498" lon="8.511416346050495"><ele>221.0</ele><time>2026-04-06T09:23:36Z</time></trkpt><trkpt lat="45.57291422667001" lon="8.511531609895163"><ele>221.00000000000003</ele><time>2026-04-06T09:23:37Z</time></trkpt><trkpt lat="45.57292547797238" lon="8.5116417555295"><ele>221.00000000000003</ele><time>2026-04-06T09:23:38Z</time></trkpt><trkpt lat="45.572936440339575" lon="8.511749072457901"><ele>221.0</ele><time>2026-04-06T09:23:39Z</time></trkpt><trkpt lat="45.57304958438283" lon="8.511827413539034"><ele>221.0</ele><time>2026-04-06T09:23:42Z</time></trkpt><trkpt lat="45.57317076803362" lon="8.5118163581454"><ele>221.0</ele><time>2026-04-06T09:23:43.999Z</time></trkpt><trkpt lat="45.57327830784594" lon="8.51184041490971"><ele>221.00000000000003</ele><time>2026-04-06T09:23:44.999Z</time></trkpt><trkpt lat="45.57339556713318" lon="8.511850616894437"><ele>221.00000000000003</ele><time>2026-04-06T09:23:45.999Z</time></trkpt><trkpt lat="45.57350168828269" lon="8.511859849814451"><ele>221.0</ele><time>2026-04-06T09:23:46.999Z</time></trkpt><trkpt lat="45.57360678453421" lon="8.511865755117592"><ele>221.0</ele><time>2026-04-06T09:23:47.999Z</time></trkpt><trkpt lat="45.57372799250115" lon="8.51186884236131"><ele>221.0</ele><time>2026-04-06T09:23:48.999Z</time></trkpt><trkpt lat="45.57384713036868" lon="8.511871639025365"><ele>221.00000000000003</ele><time>2026-04-06T09:23:49.999Z</time></trkpt><trkpt lat="45.573946111550924" lon="8.51187396252733"><ele>221.00000000000003</ele><time>2026-04-06T09:23:50.999Z</time></trkpt><trkpt lat="45.574053383860566" lon="8.511878329036483"><ele>221.0</ele><time>2026-04-06T09:23:51.999Z</time></trkpt><trkpt lat="45.57415843882009" lon="8.511882787349943"><ele>221.0</ele><time>2026-04-06T09:23:52.999Z</time></trkpt><trkpt lat="45.57423645211573" lon="8.511875736545823"><ele>221.00000000000003</ele><time>2026-04-06T09:23:53.999Z</time></trkpt><trkpt lat="45.57434601316406" lon="8.511884467024704"><ele>221.0</ele><time>2026-04-06T09:23:54.999Z</time></trkpt><trkpt lat="45.57444278477153" lon="8.511890370765979"><ele>221.0</ele><time>2026-04-06T09:23:55.999Z</time></trkpt><trkpt lat="45.5745112029161" lon="8.511900094562574"><ele>221.0</ele><time>2026-04-06T09:23:56.999Z</time></trkpt><trkpt lat="45.57458628009886" lon="8.511931094436036"><ele>221.00000000000003</ele><time>2026-04-06T09:23:58.999Z</time></trkpt><trkpt lat="45.57457948459541" lon="8.512052134417488"><ele>221.0</ele><time>2026-04-06T09:24:00.999Z</time></trkpt><trkpt lat="45.57456666221478" lon="8.512156234965468"><ele>220.60000000000002</ele><time>2026-04-06T09:24:01.999Z</time></trkpt><trkpt lat="45.57456541577443" lon="8.512276931851721"><ele>220.20000000000002</ele><time>2026-04-06T09:24:02.999Z</time></trkpt><trkpt lat="45.57457518002241" lon="8.512394493336524"><ele>219.79999999999998</ele><time>2026-04-06T09:24:03.999Z</time></trkpt><trkpt lat="45.5745787009699" lon="8.512527867171856"><ele>219.39999999999998</ele><time>2026-04-06T09:24:04.999Z</time></trkpt><trkpt lat="45.574585142445905" lon="8.512656533186131"><ele>219.0</ele><time>2026-04-06T09:24:05.999Z</time></trkpt><trkpt lat="45.57459249396293" lon="8.512804593145074"><ele>218.5</ele><time>2026-04-06T09:24:07Z</time></trkpt><trkpt lat="45.57460152104638" lon="8.512987745957123"><ele>218.0</ele><time>2026-04-06T09:24:08Z</time></trkpt><trkpt lat="45.574606257725186" lon="8.51320312478958"><ele>217.5</ele><time>2026-04-06T09:24:09Z</time></trkpt><trkpt lat="45.57461754065497" lon="8.513425357244037"><ele>217.0</ele><time>2026-04-06T09:24:10Z</time></trkpt><trkpt lat="45.57463054352888" lon="8.51361954276384"><ele>217.2</ele><time>2026-04-06T09:24:11Z</time></trkpt><trkpt lat="45.57463973065862" lon="8.513795843240356"><ele>217.39999999999998</ele><time>2026-04-06T09:24:12Z</time></trkpt><trkpt lat="45.574647672044335" lon="8.513960209786735"><ele>217.60000000000002</ele><time>2026-04-06T09:24:13Z</time></trkpt><trkpt lat="45.574655910094776" lon="8.514114753967641"><ele>217.8</ele><time>2026-04-06T09:24:14Z</time></trkpt><trkpt lat="45.57466249102906" lon="8.514258447174145"><ele>218.0</ele><time>2026-04-06T09:24:15Z</time></trkpt><trkpt lat="45.574670237572015" lon="8.51440826725923"><ele>218.0</ele><time>2026-04-06T09:24:16Z</time></trkpt><trkpt lat="45.57467892368231" lon="8.514564649674732"><ele>218.0</ele><time>2026-04-06T09:24:17Z</time></trkpt><trkpt lat="45.57468716274895" lon="8.514717527315902"><ele>218.0</ele><time>2026-04-06T09:24:18Z</time></trkpt><trkpt lat="45.57469624024944" lon="8.51485683658081"><ele>218.0</ele><time>2026-04-06T09:24:19Z</time></trkpt><trkpt lat="45.57470403359849" lon="8.514984073302664"><ele>218.0</ele><time>2026-04-06T09:24:20Z</time></trkpt><trkpt lat="45.57471036876887" lon="8.5151129006164"><ele>217.8</ele><time>2026-04-06T09:24:21Z</time></trkpt><trkpt lat="45.57471676523647" lon="8.515255924621925"><ele>217.60000000000002</ele><time>2026-04-06T09:24:22Z</time></trkpt><trkpt lat="45.57472133433019" lon="8.515392554475955"><ele>217.39999999999998</ele><time>2026-04-06T09:24:23Z</time></trkpt><trkpt lat="45.57473004088753" lon="8.515540487266424"><ele>217.2</ele><time>2026-04-06T09:24:24Z</time></trkpt><trkpt lat="45.57474232816036" lon="8.515710727830342"><ele>217.0</ele><time>2026-04-06T09:24:25Z</time></trkpt><trkpt lat="45.574753881263526" lon="8.515897860404563"><ele>217.0</ele><time>2026-04-06T09:24:26Z</time></trkpt><trkpt lat="45.574765280992075" lon="8.516093155189536"><ele>217.0</ele><time>2026-04-06T09:24:27Z</time></trkpt><trkpt lat="45.57477885719096" lon="8.516273377395333"><ele>217.0</ele><time>2026-04-06T09:24:28Z</time></trkpt><trkpt lat="45.574790277832555" lon="8.51644126624779"><ele>217.0</ele><time>2026-04-06T09:24:29Z</time></trkpt><trkpt lat="45.57479983444338" lon="8.516602666286461"><ele>217.0</ele><time>2026-04-06T09:24:30Z</time></trkpt><trkpt lat="45.57480699484081" lon="8.516757065886935"><ele>217.0</ele><time>2026-04-06T09:24:31Z</time></trkpt><trkpt lat="45.57481317686516" lon="8.51689387631432"><ele>217.0</ele><time>2026-04-06T09:24:32Z</time></trkpt><trkpt lat="45.574819282158884" lon="8.516993956774465"><ele>217.0</ele><time>2026-04-06T09:24:33Z</time></trkpt><trkpt lat="45.574825694364804" lon="8.517116473344212"><ele>217.0</ele><time>2026-04-06T09:24:38Z</time></trkpt><trkpt lat="45.57483776800051" lon="8.517258789078141"><ele>216.8</ele><time>2026-04-06T09:24:40Z</time></trkpt><trkpt lat="45.574941444820105" lon="8.517286357857145"><ele>216.6</ele><time>2026-04-06T09:24:42Z</time></trkpt><trkpt lat="45.57501157209119" lon="8.517239464805208"><ele>216.40000000000003</ele><time>2026-04-06T09:24:43Z</time></trkpt><trkpt lat="45.575100728189454" lon="8.51718284519199"><ele>216.20000000000002</ele><time>2026-04-06T09:24:44Z</time></trkpt><trkpt lat="45.575203124096014" lon="8.517143114191622"><ele>216.0</ele><time>2026-04-06T09:24:45Z</time></trkpt><trkpt lat="45.5753183274015" lon="8.517122033196555"><ele>216.25</ele><time>2026-04-06T09:24:46Z</time></trkpt><trkpt lat="45.57543546754332" lon="8.517112780594626"><ele>216.5</ele><time>2026-04-06T09:24:47Z</time></trkpt><trkpt lat="45.57555950345289" lon="8.517100667513457"><ele>216.75</ele><time>2026-04-06T09:24:48Z</time></trkpt><trkpt lat="45.575697191473516" lon="8.517082298747846"><ele>217.0</ele><time>2026-04-06T09:24:49Z</time></trkpt><trkpt lat="45.57583278664347" lon="8.517061380168256"><ele>217.0</ele><time>2026-04-06T09:24:50Z</time></trkpt><trkpt lat="45.575969256266404" lon="8.517035686498378"><ele>217.0</ele><time>2026-04-06T09:24:51Z</time></trkpt><trkpt lat="45.57609313608136" lon="8.517013809868692"><ele>217.0</ele><time>2026-04-06T09:24:52Z</time></trkpt><trkpt lat="45.57621481536928" lon="8.51699399381451"><ele>217.0</ele><time>2026-04-06T09:24:53Z</time></trkpt><trkpt lat="45.57633301019145" lon="8.516977976926187"><ele>217.25</ele><time>2026-04-06T09:24:54Z</time></trkpt><trkpt lat="45.57644761280475" lon="8.516962094261457"><ele>217.5</ele><time>2026-04-06T09:24:55Z</time></trkpt><trkpt lat="45.57656378798689" lon="8.516947236630068"><ele>217.75</ele><time>2026-04-06T09:24:56Z</time></trkpt><trkpt lat="45.57668478669373" lon="8.51692953259183"><ele>218.0</ele><time>2026-04-06T09:24:57Z</time></trkpt><trkpt lat="45.576809487500086" lon="8.516913386581022"><ele>218.0</ele><time>2026-04-06T09:24:58Z</time></trkpt><trkpt lat="45.57693764119611" lon="8.51689558871193"><ele>218.0</ele><time>2026-04-06T09:24:59Z</time></trkpt><trkpt lat="45.577066028679916" lon="8.51687715399613"><ele>218.0</ele><time>2026-04-06T09:25:00Z</time></trkpt><trkpt lat="45.57719458304975" lon="8.516858049092118"><ele>218.0</ele><time>2026-04-06T09:25:01Z</time></trkpt><trkpt lat="45.5773256986543" lon="8.516839661019688"><ele>217.5</ele><time>2026-04-06T09:25:02Z</time></trkpt><trkpt lat="45.577453847879504" lon="8.5168208255138"><ele>217.0</ele><time>2026-04-06T09:25:03Z</time></trkpt><trkpt lat="45.57758028990439" lon="8.516800103526387"><ele>216.5</ele><time>2026-04-06T09:25:04Z</time></trkpt><trkpt lat="45.57771033132626" lon="8.516779838761389"><ele>216.0</ele><time>2026-04-06T09:25:05Z</time></trkpt><trkpt lat="45.57784110684144" lon="8.516758224007148"><ele>216.75</ele><time>2026-04-06T09:25:06Z</time></trkpt><trkpt lat="45.577973848912926" lon="8.516729714626932"><ele>217.5</ele><time>2026-04-06T09:25:07Z</time></trkpt><trkpt lat="45.57811229550738" lon="8.51669297549695"><ele>218.25</ele><time>2026-04-06T09:25:08Z</time></trkpt><trkpt lat="45.57823787275684" lon="8.516654672837188"><ele>219.0</ele><time>2026-04-06T09:25:09Z</time></trkpt><trkpt lat="45.578369375487725" lon="8.51660608261631"><ele>219.0</ele><time>2026-04-06T09:25:10Z</time></trkpt><trkpt lat="45.57850080028057" lon="8.516550996649308"><ele>219.0</ele><time>2026-04-06T09:25:11Z</time></trkpt><trkpt lat="45.57862362254138" lon="8.516490138001279"><ele>219.0</ele><time>2026-04-06T09:25:12Z</time></trkpt><trkpt lat="45.57876106489182" lon="8.516414441012572"><ele>219.0</ele><time>2026-04-06T09:25:13Z</time></trkpt><trkpt lat="45.57892106625565" lon="8.516346667718416"><ele>218.66666666666669</ele><time>2026-04-06T09:25:14Z</time></trkpt><trkpt lat="45.579082972338256" lon="8.516249390966198"><ele>218.33333333333334</ele><time>2026-04-06T09:25:15Z</time></trkpt><trkpt lat="45.57925553332575" lon="8.516131454575198"><ele>218.0</ele><time>2026-04-06T09:25:16Z</time></trkpt><trkpt lat="45.579432497306954" lon="8.516002352323456"><ele>217.33333333333334</ele><time>2026-04-06T09:25:17Z</time></trkpt><trkpt lat="45.5796165948599" lon="8.515847717128"><ele>216.66666666666669</ele><time>2026-04-06T09:25:18Z</time></trkpt><trkpt lat="45.57981432389141" lon="8.515706051750175"><ele>216.0</ele><time>2026-04-06T09:25:19Z</time></trkpt><trkpt lat="45.58001516588557" lon="8.515558580464083"><ele>216.0</ele><time>2026-04-06T09:25:20Z</time></trkpt><trkpt lat="45.58021536959266" lon="8.515409964977465"><ele>216.0</ele><time>2026-04-06T09:25:21Z</time></trkpt><trkpt lat="45.580416467531165" lon="8.515258269877977"><ele>217.5</ele><time>2026-04-06T09:25:22Z</time></trkpt><trkpt lat="45.58061910238123" lon="8.515103842788953"><ele>219.0</ele><time>2026-04-06T09:25:23Z</time></trkpt><trkpt lat="45.58082211128391" lon="8.514950571157131"><ele>219.0</ele><time>2026-04-06T09:25:24Z</time></trkpt><trkpt lat="45.58102562190527" lon="8.51480106162284"><ele>219.0</ele><time>2026-04-06T09:25:25Z</time></trkpt><trkpt lat="45.58122936948751" lon="8.514655192234777"><ele>218.5</ele><time>2026-04-06T09:25:26Z</time></trkpt><trkpt lat="45.58143258782949" lon="8.514510986015111"><ele>218.0</ele><time>2026-04-06T09:25:27Z</time></trkpt><trkpt lat="45.58163503191082" lon="8.514362692796407"><ele>218.0</ele><time>2026-04-06T09:25:28Z</time></trkpt><trkpt lat="45.581835809507304" lon="8.514214414063579"><ele>218.0</ele><time>2026-04-06T09:25:29Z</time></trkpt><trkpt lat="45.582036787809166" lon="8.514067967054812"><ele>218.0</ele><time>2026-04-06T09:25:30Z</time></trkpt><trkpt lat="45.58223980306107" lon="8.51392009910663"><ele>218.0</ele><time>2026-04-06T09:25:31Z</time></trkpt><trkpt lat="45.58243796950209" lon="8.513773332143419"><ele>218.5</ele><time>2026-04-06T09:25:32Z</time></trkpt><trkpt lat="45.58263885655193" lon="8.513623058482457"><ele>219.0</ele><time>2026-04-06T09:25:33Z</time></trkpt><trkpt lat="45.58283902131025" lon="8.513473057151915"><ele>219.5</ele><time>2026-04-06T09:25:34Z</time></trkpt><trkpt lat="45.58303955374998" lon="8.513325427840126"><ele>220.0</ele><time>2026-04-06T09:25:35Z</time></trkpt><trkpt lat="45.58323841616123" lon="8.513177989563587"><ele>220.0</ele><time>2026-04-06T09:25:36Z</time></trkpt><trkpt lat="45.58343876954581" lon="8.513028756593469"><ele>220.0</ele><time>2026-04-06T09:25:37Z</time></trkpt><trkpt lat="45.58363831049529" lon="8.512879000886375"><ele>221.0</ele><time>2026-04-06T09:25:38Z</time></trkpt><trkpt lat="45.58383947885756" lon="8.512729047248492"><ele>222.0</ele><time>2026-04-06T09:25:39Z</time></trkpt><trkpt lat="45.58404255738761" lon="8.51257779843904"><ele>222.0</ele><time>2026-04-06T09:25:40Z</time></trkpt><trkpt lat="45.58424530609171" lon="8.512427452968582"><ele>222.0</ele><time>2026-04-06T09:25:41Z</time></trkpt><trkpt lat="45.58444988605656" lon="8.512274677158047"><ele>222.5</ele><time>2026-04-06T09:25:42Z</time></trkpt><trkpt lat="45.58465315935045" lon="8.512123417949356"><ele>223.0</ele><time>2026-04-06T09:25:43Z</time></trkpt><trkpt lat="45.584855325738694" lon="8.511973643345225"><ele>223.0</ele><time>2026-04-06T09:25:44Z</time></trkpt><trkpt lat="45.58506044512633" lon="8.511823660853508"><ele>223.0</ele><time>2026-04-06T09:25:45Z</time></trkpt><trkpt lat="45.58526423267854" lon="8.511674130549924"><ele>222.5</ele><time>2026-04-06T09:25:46Z</time></trkpt><trkpt lat="45.58546891670209" lon="8.511522900422884"><ele>222.0</ele><time>2026-04-06T09:25:47Z</time></trkpt><trkpt lat="45.58567296894017" lon="8.511373281545689"><ele>222.5</ele><time>2026-04-06T09:25:48Z</time></trkpt><trkpt lat="45.585875205232014" lon="8.511222102479495"><ele>223.0</ele><time>2026-04-06T09:25:49Z</time></trkpt><trkpt lat="45.58607938750575" lon="8.511069633088635"><ele>223.5</ele><time>2026-04-06T09:25:50Z</time></trkpt><trkpt lat="45.58628112412678" lon="8.510919391962872"><ele>224.0</ele><time>2026-04-06T09:25:50.999Z</time></trkpt><trkpt lat="45.58648580364879" lon="8.510768452164834"><ele>224.0</ele><time>2026-04-06T09:25:51.999Z</time></trkpt><trkpt lat="45.58668842187668" lon="8.510617971106052"><ele>224.0</ele><time>2026-04-06T09:25:52.999Z</time></trkpt><trkpt lat="45.58689159727138" lon="8.510469490551067"><ele>223.5</ele><time>2026-04-06T09:25:53.999Z</time></trkpt><trkpt lat="45.587094234779755" lon="8.510320117243745"><ele>223.0</ele><time>2026-04-06T09:25:54.999Z</time></trkpt><trkpt lat="45.58729440349299" lon="8.510170881640374"><ele>223.0</ele><time>2026-04-06T09:25:55.999Z</time></trkpt><trkpt lat="45.58749706204483" lon="8.51001970764253"><ele>223.0</ele><time>2026-04-06T09:25:56.999Z</time></trkpt><trkpt lat="45.58769962728879" lon="8.50987036677811"><ele>223.5</ele><time>2026-04-06T09:25:57.999Z</time></trkpt><trkpt lat="45.58789966708955" lon="8.509722282039679"><ele>224.0</ele><time>2026-04-06T09:25:58.999Z</time></trkpt><trkpt lat="45.5881026660629" lon="8.50957302713338"><ele>226.5</ele><time>2026-04-06T09:25:59.999Z</time></trkpt><trkpt lat="45.588299702986895" lon="8.509423212030656"><ele>229.0</ele><time>2026-04-06T09:26:00.999Z</time></trkpt><trkpt lat="45.58850119837002" lon="8.509272719068907"><ele>228.33333333333331</ele><time>2026-04-06T09:26:01.999Z</time></trkpt><trkpt lat="45.588700836361475" lon="8.509122232241426"><ele>227.66666666666669</ele><time>2026-04-06T09:26:02.999Z</time></trkpt><trkpt lat="45.58889864250294" lon="8.508974565241376"><ele>227.0</ele><time>2026-04-06T09:26:03.999Z</time></trkpt><trkpt lat="45.58909915932576" lon="8.508825860732818"><ele>228.5</ele><time>2026-04-06T09:26:04.999Z</time></trkpt><trkpt lat="45.58929948420667" lon="8.508679412709315"><ele>230.0</ele><time>2026-04-06T09:26:05.999Z</time></trkpt><trkpt lat="45.5894986065962" lon="8.508531155869028"><ele>228.5</ele><time>2026-04-06T09:26:06.999Z</time></trkpt><trkpt lat="45.58969984192988" lon="8.50838325840628"><ele>227.0</ele><time>2026-04-06T09:26:07.999Z</time></trkpt><trkpt lat="45.58990050686379" lon="8.508234493131264"><ele>227.0</ele><time>2026-04-06T09:26:08.999Z</time></trkpt><trkpt lat="45.59010242422436" lon="8.508087767666884"><ele>227.0</ele><time>2026-04-06T09:26:09.999Z</time></trkpt><trkpt lat="45.590302022351594" lon="8.507935434721809"><ele>227.0</ele><time>2026-04-06T09:26:10.999Z</time></trkpt><trkpt lat="45.59050253677846" lon="8.507788700334254"><ele>227.0</ele><time>2026-04-06T09:26:11.999Z</time></trkpt><trkpt lat="45.59070360969441" lon="8.507637255005767"><ele>227.0</ele><time>2026-04-06T09:26:13Z</time></trkpt><trkpt lat="45.59090701391536" lon="8.507487458970562"><ele>227.0</ele><time>2026-04-06T09:26:14Z</time></trkpt><trkpt lat="45.59111063820983" lon="8.50733743882223"><ele>227.0</ele><time>2026-04-06T09:26:15Z</time></trkpt><trkpt lat="45.59131537878142" lon="8.507186801494957"><ele>227.0</ele><time>2026-04-06T09:26:16Z</time></trkpt><trkpt lat="45.59152189298918" lon="8.50703549463542"><ele>227.0</ele><time>2026-04-06T09:26:17Z</time></trkpt><trkpt lat="45.59172822297194" lon="8.506881578339318"><ele>227.0</ele><time>2026-04-06T09:26:18Z</time></trkpt><trkpt lat="45.591932225391844" lon="8.506729841694296"><ele>228.0</ele><time>2026-04-06T09:26:19Z</time></trkpt><trkpt lat="45.59213423458212" lon="8.50658057191772"><ele>229.0</ele><time>2026-04-06T09:26:20Z</time></trkpt><trkpt lat="45.592335835125084" lon="8.506431207665141"><ele>229.0</ele><time>2026-04-06T09:26:21Z</time></trkpt><trkpt lat="45.592537209841716" lon="8.506280139272736"><ele>229.0</ele><time>2026-04-06T09:26:22Z</time></trkpt><trkpt lat="45.592738322689165" lon="8.506129667994639"><ele>229.0</ele><time>2026-04-06T09:26:23Z</time></trkpt><trkpt lat="45.59293976144764" lon="8.50597948680476"><ele>229.0</ele><time>2026-04-06T09:26:24Z</time></trkpt><trkpt lat="45.59314216274692" lon="8.505831790689598"><ele>229.0</ele><time>2026-04-06T09:26:25Z</time></trkpt><trkpt lat="45.59334459989069" lon="8.505682361739625"><ele>229.0</ele><time>2026-04-06T09:26:26Z</time></trkpt><trkpt lat="45.59354515514884" lon="8.505532924294629"><ele>228.5</ele><time>2026-04-06T09:26:27Z</time></trkpt><trkpt lat="45.59374807632052" lon="8.505382139064402"><ele>228.0</ele><time>2026-04-06T09:26:28Z</time></trkpt><trkpt lat="45.59395362604551" lon="8.505230753058614"><ele>228.0</ele><time>2026-04-06T09:26:29Z</time></trkpt><trkpt lat="45.59415825581442" lon="8.505080851764951"><ele>228.0</ele><time>2026-04-06T09:26:30Z</time></trkpt><trkpt lat="45.59436090968859" lon="8.504931391552825"><ele>228.5</ele><time>2026-04-06T09:26:31Z</time></trkpt><trkpt lat="45.59456299001073" lon="8.504781087950224"><ele>229.0</ele><time>2026-04-06T09:26:32Z</time></trkpt><trkpt lat="45.59476508766417" lon="8.504630854125777"><ele>228.5</ele><time>2026-04-06T09:26:33Z</time></trkpt><trkpt lat="45.59496676592359" lon="8.504482748028554"><ele>228.0</ele><time>2026-04-06T09:26:34Z</time></trkpt><trkpt lat="45.595166717953184" lon="8.504334251948935"><ele>229.0</ele><time>2026-04-06T09:26:35Z</time></trkpt><trkpt lat="45.5953657248127" lon="8.504185777404315"><ele>230.0</ele><time>2026-04-06T09:26:36Z</time></trkpt><trkpt lat="45.5955652541606" lon="8.504038547912977"><ele>231.0</ele><time>2026-04-06T09:26:37Z</time></trkpt><trkpt lat="45.59576730701688" lon="8.503889001230506"><ele>230.5</ele><time>2026-04-06T09:26:38Z</time></trkpt><trkpt lat="45.595971274793754" lon="8.503738185982227"><ele>230.0</ele><time>2026-04-06T09:26:39Z</time></trkpt><trkpt lat="45.596175726067315" lon="8.503585421935846"><ele>230.0</ele><time>2026-04-06T09:26:40Z</time></trkpt><trkpt lat="45.596379867976964" lon="8.503433213942657"><ele>230.0</ele><time>2026-04-06T09:26:41Z</time></trkpt><trkpt lat="45.59658419108168" lon="8.503282202901234"><ele>230.0</ele><time>2026-04-06T09:26:42Z</time></trkpt><trkpt lat="45.596787165564706" lon="8.503131123119543"><ele>230.0</ele><time>2026-04-06T09:26:43Z</time></trkpt><trkpt lat="45.59698857778161" lon="8.502981195041185"><ele>230.0</ele><time>2026-04-06T09:26:44Z</time></trkpt><trkpt lat="45.597190473355454" lon="8.502831758623236"><ele>230.0</ele><time>2026-04-06T09:26:45Z</time></trkpt><trkpt lat="45.597391601618504" lon="8.502681818901488"><ele>230.0</ele><time>2026-04-06T09:26:46Z</time></trkpt><trkpt lat="45.59759153479848" lon="8.502534137662922"><ele>230.0</ele><time>2026-04-06T09:26:47Z</time></trkpt><trkpt lat="45.59778937404277" lon="8.50238796967477"><ele>230.0</ele><time>2026-04-06T09:26:48Z</time></trkpt><trkpt lat="45.59798500274617" lon="8.502244029329397"><ele>229.66666666666669</ele><time>2026-04-06T09:26:49Z</time></trkpt><trkpt lat="45.5981771133802" lon="8.502100042010754"><ele>229.33333333333331</ele><time>2026-04-06T09:26:50Z</time></trkpt><trkpt lat="45.59837068482271" lon="8.501953844201369"><ele>229.0</ele><time>2026-04-06T09:26:51Z</time></trkpt><trkpt lat="45.59856117966927" lon="8.501812295941823"><ele>230.33333333333331</ele><time>2026-04-06T09:26:52Z</time></trkpt><trkpt lat="45.59875712567741" lon="8.501667664257951"><ele>231.66666666666669</ele><time>2026-04-06T09:26:53Z</time></trkpt><trkpt lat="45.598959516078494" lon="8.501515718920135"><ele>233.0</ele><time>2026-04-06T09:26:54Z</time></trkpt><trkpt lat="45.59916571975426" lon="8.501362618940375"><ele>233.0</ele><time>2026-04-06T09:26:55Z</time></trkpt><trkpt lat="45.59937420249622" lon="8.501208193187923"><ele>233.0</ele><time>2026-04-06T09:26:56Z</time></trkpt><trkpt lat="45.599583016864685" lon="8.501052886936536"><ele>233.5</ele><time>2026-04-06T09:26:57Z</time></trkpt><trkpt lat="45.59979387135307" lon="8.500897123978259"><ele>234.0</ele><time>2026-04-06T09:26:58Z</time></trkpt><trkpt lat="45.600001958129425" lon="8.500745351570721"><ele>234.0</ele><time>2026-04-06T09:26:59Z</time></trkpt><trkpt lat="45.60020991273868" lon="8.500592845525453"><ele>234.0</ele><time>2026-04-06T09:27:00Z</time></trkpt><trkpt lat="45.60041806815109" lon="8.500438999262729"><ele>234.0</ele><time>2026-04-06T09:27:01Z</time></trkpt><trkpt lat="45.60062066614013" lon="8.500287189361213"><ele>234.0</ele><time>2026-04-06T09:27:02Z</time></trkpt><trkpt lat="45.60081947604394" lon="8.50013532495826"><ele>234.0</ele><time>2026-04-06T09:27:03Z</time></trkpt><trkpt lat="45.60102374092692" lon="8.499981393905358"><ele>234.0</ele><time>2026-04-06T09:27:04Z</time></trkpt><trkpt lat="45.60122869960429" lon="8.499831146620643"><ele>234.0</ele><time>2026-04-06T09:27:05Z</time></trkpt><trkpt lat="45.6014233073376" lon="8.499686521997756"><ele>234.0</ele><time>2026-04-06T09:27:06Z</time></trkpt><trkpt lat="45.6016067209964" lon="8.499548862088561"><ele>234.0</ele><time>2026-04-06T09:27:07Z</time></trkpt><trkpt lat="45.601784711550664" lon="8.499414165564035"><ele>233.66666666666669</ele><time>2026-04-06T09:27:08Z</time></trkpt><trkpt lat="45.60195791753086" lon="8.499285526524504"><ele>233.33333333333334</ele><time>2026-04-06T09:27:09Z</time></trkpt><trkpt lat="45.6021214196657" lon="8.499165764916434"><ele>233.0</ele><time>2026-04-06T09:27:10Z</time></trkpt><trkpt lat="45.60227486257754" lon="8.499049782180737"><ele>233.0</ele><time>2026-04-06T09:27:11Z</time></trkpt><trkpt lat="45.602418249623135" lon="8.498936123292454"><ele>233.0</ele><time>2026-04-06T09:27:12Z</time></trkpt><trkpt lat="45.60254438010872" lon="8.498838382154045"><ele>233.0</ele><time>2026-04-06T09:27:13Z</time></trkpt><trkpt lat="45.60266633325954" lon="8.498760333326716"><ele>233.0</ele><time>2026-04-06T09:27:14Z</time></trkpt><trkpt lat="45.60280122640133" lon="8.498676713686672"><ele>233.33333333333334</ele><time>2026-04-06T09:27:15Z</time></trkpt><trkpt lat="45.60293563733221" lon="8.4985687543548"><ele>233.66666666666669</ele><time>2026-04-06T09:27:16Z</time></trkpt><trkpt lat="45.603076998014764" lon="8.4984511785992"><ele>234.0</ele><time>2026-04-06T09:27:17Z</time></trkpt><trkpt lat="45.60323066659333" lon="8.498341807465238"><ele>234.0</ele><time>2026-04-06T09:27:18Z</time></trkpt><trkpt lat="45.60339148986696" lon="8.49822874381382"><ele>234.0</ele><time>2026-04-06T09:27:19Z</time></trkpt><trkpt lat="45.603555606561464" lon="8.49810521374671"><ele>234.0</ele><time>2026-04-06T09:27:20Z</time></trkpt><trkpt lat="45.60372350832709" lon="8.497978468026934"><ele>234.33333333333331</ele><time>2026-04-06T09:27:21Z</time></trkpt><trkpt lat="45.603897299504006" lon="8.497852035940273"><ele>234.66666666666666</ele><time>2026-04-06T09:27:22Z</time></trkpt><trkpt lat="45.60407009236695" lon="8.497724926392731"><ele>235.0</ele><time>2026-04-06T09:27:23Z</time></trkpt><trkpt lat="45.60423825964036" lon="8.497597877150262"><ele>235.0</ele><time>2026-04-06T09:27:24Z</time></trkpt><trkpt lat="45.60441047798092" lon="8.49746904675012"><ele>235.0</ele><time>2026-04-06T09:27:25Z</time></trkpt><trkpt lat="45.604583281966555" lon="8.497340511734466"><ele>235.0</ele><time>2026-04-06T09:27:26Z</time></trkpt><trkpt lat="45.604757101731906" lon="8.49721029479676"><ele>235.0</ele><time>2026-04-06T09:27:27Z</time></trkpt><trkpt lat="45.6049303881771" lon="8.49707839618649"><ele>235.0</ele><time>2026-04-06T09:27:28Z</time></trkpt><trkpt lat="45.60510277364247" lon="8.496948395159846"><ele>235.0</ele><time>2026-04-06T09:27:29Z</time></trkpt><trkpt lat="45.60527349531582" lon="8.496821953307919"><ele>235.33333333333331</ele><time>2026-04-06T09:27:30Z</time></trkpt><trkpt lat="45.6054457557182" lon="8.496694321204348"><ele>235.66666666666669</ele><time>2026-04-06T09:27:31Z</time></trkpt><trkpt lat="45.60562616575847" lon="8.496564226357295"><ele>236.0</ele><time>2026-04-06T09:27:32Z</time></trkpt><trkpt lat="45.6058113575994" lon="8.496438542246235"><ele>236.0</ele><time>2026-04-06T09:27:33Z</time></trkpt><trkpt lat="45.60599607739158" lon="8.496322752925446"><ele>236.0</ele><time>2026-04-06T09:27:34Z</time></trkpt><trkpt lat="45.606181083964515" lon="8.496220508390083"><ele>236.0</ele><time>2026-04-06T09:27:35Z</time></trkpt><trkpt lat="45.60637024847343" lon="8.496127873136901"><ele>236.33333333333334</ele><time>2026-04-06T09:27:36Z</time></trkpt><trkpt lat="45.606557807084116" lon="8.496050247453455"><ele>236.66666666666669</ele><time>2026-04-06T09:27:37Z</time></trkpt><trkpt lat="45.60674789666715" lon="8.495983768772915"><ele>237.0</ele><time>2026-04-06T09:27:38Z</time></trkpt><trkpt lat="45.606944512658806" lon="8.495936026308772"><ele>236.66666666666669</ele><time>2026-04-06T09:27:39Z</time></trkpt><trkpt lat="45.60714487413425" lon="8.495899053933446"><ele>236.33333333333334</ele><time>2026-04-06T09:27:40Z</time></trkpt><trkpt lat="45.60734797148436" lon="8.495862551338856"><ele>236.0</ele><time>2026-04-06T09:27:41Z</time></trkpt><trkpt lat="45.60754657950993" lon="8.495823321626608"><ele>236.0</ele><time>2026-04-06T09:27:42Z</time></trkpt><trkpt lat="45.607744367546935" lon="8.495783726184529"><ele>236.0</ele><time>2026-04-06T09:27:43Z</time></trkpt><trkpt lat="45.607937059907215" lon="8.495743370584686"><ele>236.0</ele><time>2026-04-06T09:27:44Z</time></trkpt><trkpt lat="45.60812391593231" lon="8.495704023823206"><ele>236.66666666666669</ele><time>2026-04-06T09:27:45Z</time></trkpt><trkpt lat="45.60830431984568" lon="8.495666519736933"><ele>237.33333333333331</ele><time>2026-04-06T09:27:46Z</time></trkpt><trkpt lat="45.60848426819747" lon="8.495628883380794"><ele>238.0</ele><time>2026-04-06T09:27:47Z</time></trkpt><trkpt lat="45.6086660124196" lon="8.49559296452911"><ele>238.33333333333331</ele><time>2026-04-06T09:27:48Z</time></trkpt><trkpt lat="45.60884700996613" lon="8.49555661839498"><ele>238.66666666666669</ele><time>2026-04-06T09:27:49Z</time></trkpt><trkpt lat="45.609029148803" lon="8.495519797032658"><ele>239.0</ele><time>2026-04-06T09:27:50Z</time></trkpt><trkpt lat="45.60921273111372" lon="8.49548118847239"><ele>239.0</ele><time>2026-04-06T09:27:51Z</time></trkpt><trkpt lat="45.609395234637155" lon="8.49544227922259"><ele>239.0</ele><time>2026-04-06T09:27:52Z</time></trkpt><trkpt lat="45.60957790250683" lon="8.49540314280384"><ele>239.0</ele><time>2026-04-06T09:27:53Z</time></trkpt><trkpt lat="45.609759052804066" lon="8.495366322763033"><ele>239.66666666666669</ele><time>2026-04-06T09:27:54Z</time></trkpt><trkpt lat="45.60993614033786" lon="8.49532851359961"><ele>240.33333333333331</ele><time>2026-04-06T09:27:55Z</time></trkpt><trkpt lat="45.61011064103012" lon="8.49529214197994"><ele>241.0</ele><time>2026-04-06T09:27:56Z</time></trkpt><trkpt lat="45.61028468142098" lon="8.49525333366664"><ele>241.0</ele><time>2026-04-06T09:27:57Z</time></trkpt><trkpt lat="45.6104591659449" lon="8.495209529711687"><ele>241.0</ele><time>2026-04-06T09:27:58Z</time></trkpt><trkpt lat="45.61063349857536" lon="8.495159265508269"><ele>241.0</ele><time>2026-04-06T09:27:59Z</time></trkpt><trkpt lat="45.61081050827824" lon="8.495096902896321"><ele>241.0</ele><time>2026-04-06T09:28:00Z</time></trkpt><trkpt lat="45.61099061375207" lon="8.495031758187869"><ele>241.0</ele><time>2026-04-06T09:28:01Z</time></trkpt><trkpt lat="45.61116319705026" lon="8.494965557614497"><ele>241.0</ele><time>2026-04-06T09:28:02Z</time></trkpt><trkpt lat="45.611320676686155" lon="8.494898239721348"><ele>240.75</ele><time>2026-04-06T09:28:03Z</time></trkpt><trkpt lat="45.611450345878964" lon="8.494839826836936"><ele>240.5</ele><time>2026-04-06T09:28:04Z</time></trkpt><trkpt lat="45.611559544609754" lon="8.494789679402787"><ele>240.25</ele><time>2026-04-06T09:28:05Z</time></trkpt><trkpt lat="45.61165982886776" lon="8.494742865164309"><ele>240.0</ele><time>2026-04-06T09:28:05.999Z</time></trkpt><trkpt lat="45.61175002201586" lon="8.494698023568764"><ele>240.0</ele><time>2026-04-06T09:28:06.999Z</time></trkpt><trkpt lat="45.611829580197735" lon="8.494655167942472"><ele>240.0</ele><time>2026-04-06T09:28:07.999Z</time></trkpt><trkpt lat="45.611909022491" lon="8.4946098925669"><ele>240.0</ele><time>2026-04-06T09:28:08.999Z</time></trkpt><trkpt lat="45.61198449637661" lon="8.494564617978567"><ele>240.0</ele><time>2026-04-06T09:28:09.999Z</time></trkpt><trkpt lat="45.61205580548398" lon="8.49452161567243"><ele>240.0</ele><time>2026-04-06T09:28:10.999Z</time></trkpt><trkpt lat="45.61212394122856" lon="8.494483765439723"><ele>240.0</ele><time>2026-04-06T09:28:11.999Z</time></trkpt><trkpt lat="45.612189342899505" lon="8.494451801549873"><ele>240.2</ele><time>2026-04-06T09:28:12.999Z</time></trkpt><trkpt lat="45.61230936348668" lon="8.494417743658701"><ele>240.4</ele><time>2026-04-06T09:28:14.999Z</time></trkpt><trkpt lat="45.612393837455144" lon="8.494398716978804"><ele>240.60000000000002</ele><time>2026-04-06T09:28:15.999Z</time></trkpt><trkpt lat="45.612484933618724" lon="8.494329376356239"><ele>240.8</ele><time>2026-04-06T09:28:16.999Z</time></trkpt><trkpt lat="45.61257539650842" lon="8.49423810529554"><ele>241.0</ele><time>2026-04-06T09:28:17.999Z</time></trkpt><trkpt lat="45.61268302424315" lon="8.4941276801888"><ele>241.0</ele><time>2026-04-06T09:28:19Z</time></trkpt><trkpt lat="45.61279053567593" lon="8.494049571325643"><ele>241.00000000000003</ele><time>2026-04-06T09:28:20Z</time></trkpt><trkpt lat="45.612890603037236" lon="8.493985533135511"><ele>241.00000000000003</ele><time>2026-04-06T09:28:21Z</time></trkpt><trkpt lat="45.61297512480099" lon="8.493922993700734"><ele>241.0</ele><time>2026-04-06T09:28:22Z</time></trkpt><trkpt lat="45.61306184706903" lon="8.493855914818148"><ele>241.0</ele><time>2026-04-06T09:28:23Z</time></trkpt><trkpt lat="45.61315902225097" lon="8.493779015850242"><ele>241.25</ele><time>2026-04-06T09:28:24Z</time></trkpt><trkpt lat="45.613261128180156" lon="8.493695420366507"><ele>241.5</ele><time>2026-04-06T09:28:25Z</time></trkpt><trkpt lat="45.61337052357497" lon="8.493598521879115"><ele>241.75</ele><time>2026-04-06T09:28:26Z</time></trkpt><trkpt lat="45.61348381089466" lon="8.4934908125579"><ele>242.0</ele><time>2026-04-06T09:28:27Z</time></trkpt><trkpt lat="45.613616534027585" lon="8.493393146575231"><ele>241.66666666666669</ele><time>2026-04-06T09:28:28Z</time></trkpt><trkpt lat="45.61375335779845" lon="8.493267240443023"><ele>241.33333333333331</ele><time>2026-04-06T09:28:29Z</time></trkpt><trkpt lat="45.613900653276104" lon="8.493128771991598"><ele>241.0</ele><time>2026-04-06T09:28:30Z</time></trkpt><trkpt lat="45.6140583348891" lon="8.492980936433167"><ele>241.33333333333331</ele><time>2026-04-06T09:28:31Z</time></trkpt><trkpt lat="45.61422807685732" lon="8.492821423687758"><ele>241.66666666666669</ele><time>2026-04-06T09:28:32Z</time></trkpt><trkpt lat="45.61438882791509" lon="8.49264689050586"><ele>242.0</ele><time>2026-04-06T09:28:33Z</time></trkpt><trkpt lat="45.614563520024944" lon="8.49248776025117"><ele>242.0</ele><time>2026-04-06T09:28:34Z</time></trkpt><trkpt lat="45.614741358812225" lon="8.492324689809832"><ele>242.0</ele><time>2026-04-06T09:28:35Z</time></trkpt><trkpt lat="45.61492350624473" lon="8.49215776403517"><ele>242.0</ele><time>2026-04-06T09:28:36Z</time></trkpt><trkpt lat="45.61510744748512" lon="8.491986291300325"><ele>242.33333333333334</ele><time>2026-04-06T09:28:37Z</time></trkpt><trkpt lat="45.61529165670852" lon="8.491810959587117"><ele>242.66666666666669</ele><time>2026-04-06T09:28:38Z</time></trkpt><trkpt lat="45.615478215194216" lon="8.491634226767621"><ele>243.0</ele><time>2026-04-06T09:28:39Z</time></trkpt><trkpt lat="45.61566528848024" lon="8.491455816569784"><ele>243.33333333333331</ele><time>2026-04-06T09:28:40Z</time></trkpt><trkpt lat="45.61585321680187" lon="8.491278227829758"><ele>243.66666666666666</ele><time>2026-04-06T09:28:41Z</time></trkpt><trkpt lat="45.6160365747909" lon="8.49110840096427"><ele>244.0</ele><time>2026-04-06T09:28:42Z</time></trkpt><trkpt lat="45.6162130859832" lon="8.490944905303742"><ele>244.0</ele><time>2026-04-06T09:28:43Z</time></trkpt><trkpt lat="45.616388188433675" lon="8.490781711888646"><ele>244.0</ele><time>2026-04-06T09:28:44Z</time></trkpt><trkpt lat="45.6165613049986" lon="8.49061819063945"><ele>244.0</ele><time>2026-04-06T09:28:45Z</time></trkpt><trkpt lat="45.616734369095056" lon="8.490453589552429"><ele>244.0</ele><time>2026-04-06T09:28:46Z</time></trkpt><trkpt lat="45.61690810356123" lon="8.490287627664273"><ele>244.0</ele><time>2026-04-06T09:28:47Z</time></trkpt><trkpt lat="45.617082518551534" lon="8.490122201927207"><ele>244.0</ele><time>2026-04-06T09:28:48Z</time></trkpt><trkpt lat="45.6172562818166" lon="8.489948733261539"><ele>244.0</ele><time>2026-04-06T09:28:49Z</time></trkpt><trkpt lat="45.617427077663486" lon="8.489765417105502"><ele>244.0</ele><time>2026-04-06T09:28:50Z</time></trkpt><trkpt lat="45.61759285715033" lon="8.489569755574514"><ele>244.0</ele><time>2026-04-06T09:28:51Z</time></trkpt><trkpt lat="45.617753427551264" lon="8.489363356189463"><ele>244.33333333333331</ele><time>2026-04-06T09:28:52Z</time></trkpt><trkpt lat="45.617909943806794" lon="8.489151413242189"><ele>244.66666666666669</ele><time>2026-04-06T09:28:53Z</time></trkpt><trkpt lat="45.61806428942525" lon="8.488936390200335"><ele>245.0</ele><time>2026-04-06T09:28:54Z</time></trkpt><trkpt lat="45.618219524201734" lon="8.488723057755786"><ele>245.0</ele><time>2026-04-06T09:28:55Z</time></trkpt><trkpt lat="45.618377624829265" lon="8.488517460498526"><ele>245.0</ele><time>2026-04-06T09:28:56Z</time></trkpt><trkpt lat="45.61854879034114" lon="8.488329612588377"><ele>245.0</ele><time>2026-04-06T09:28:57Z</time></trkpt><trkpt lat="45.61873096463427" lon="8.48815832416463"><ele>245.0</ele><time>2026-04-06T09:28:58Z</time></trkpt><trkpt lat="45.61892432778815" lon="8.488006516311529"><ele>245.0</ele><time>2026-04-06T09:28:59Z</time></trkpt><trkpt lat="45.61912838031648" lon="8.487879204519048"><ele>245.0</ele><time>2026-04-06T09:29:00Z</time></trkpt><trkpt lat="45.619339819070646" lon="8.487774782657324"><ele>245.33333333333334</ele><time>2026-04-06T09:29:01Z</time></trkpt><trkpt lat="45.61955540882133" lon="8.487682668136861"><ele>245.66666666666669</ele><time>2026-04-06T09:29:02Z</time></trkpt><trkpt lat="45.61977085456446" lon="8.487593305111307"><ele>246.0</ele><time>2026-04-06T09:29:03Z</time></trkpt><trkpt lat="45.61998443701963" lon="8.48750060303869"><ele>246.0</ele><time>2026-04-06T09:29:04Z</time></trkpt><trkpt lat="45.620194613440695" lon="8.487405872140267"><ele>246.0</ele><time>2026-04-06T09:29:05Z</time></trkpt><trkpt lat="45.620405148865245" lon="8.48731017770433"><ele>246.0</ele><time>2026-04-06T09:29:06Z</time></trkpt><trkpt lat="45.6206215097521" lon="8.487215321440987"><ele>246.33333333333331</ele><time>2026-04-06T09:29:07Z</time></trkpt><trkpt lat="45.62084235159219" lon="8.48713761121365"><ele>246.66666666666666</ele><time>2026-04-06T09:29:08Z</time></trkpt><trkpt lat="45.62106080704922" lon="8.487101759933656"><ele>247.0</ele><time>2026-04-06T09:29:09Z</time></trkpt><trkpt lat="45.62128398074442" lon="8.48708853697939"><ele>247.0</ele><time>2026-04-06T09:29:10Z</time></trkpt><trkpt lat="45.62150251950931" lon="8.48707965377892"><ele>247.0</ele><time>2026-04-06T09:29:11Z</time></trkpt><trkpt lat="45.621705657589914" lon="8.487065372809589"><ele>247.0</ele><time>2026-04-06T09:29:12Z</time></trkpt><trkpt lat="45.62191330177968" lon="8.487051716628399"><ele>247.33333333333331</ele><time>2026-04-06T09:29:13Z</time></trkpt><trkpt lat="45.62212916968505" lon="8.487033197976555"><ele>247.66666666666669</ele><time>2026-04-06T09:29:14Z</time></trkpt><trkpt lat="45.62234652594882" lon="8.487012614375953"><ele>248.0</ele><time>2026-04-06T09:29:15Z</time></trkpt><trkpt lat="45.62256789045217" lon="8.486993893994864"><ele>248.0</ele><time>2026-04-06T09:29:16Z</time></trkpt><trkpt lat="45.622792127805866" lon="8.486975876174217"><ele>248.0</ele><time>2026-04-06T09:29:17Z</time></trkpt><trkpt lat="45.62301723549899" lon="8.486959176821303"><ele>248.0</ele><time>2026-04-06T09:29:18Z</time></trkpt><trkpt lat="45.62324196720299" lon="8.486942717103883"><ele>248.0</ele><time>2026-04-06T09:29:19Z</time></trkpt><trkpt lat="45.623466117264435" lon="8.486926336896842"><ele>248.0</ele><time>2026-04-06T09:29:20Z</time></trkpt><trkpt lat="45.623690235538106" lon="8.486910204034308"><ele>249.0</ele><time>2026-04-06T09:29:21Z</time></trkpt><trkpt lat="45.623913698011066" lon="8.486893616321789"><ele>250.0</ele><time>2026-04-06T09:29:22Z</time></trkpt><trkpt lat="45.62413788579971" lon="8.48687662345277"><ele>251.0</ele><time>2026-04-06T09:29:23Z</time></trkpt><trkpt lat="45.624360967429745" lon="8.486859958904127"><ele>250.66666666666669</ele><time>2026-04-06T09:29:24Z</time></trkpt><trkpt lat="45.62458144446819" lon="8.486842786519473"><ele>250.33333333333331</ele><time>2026-04-06T09:29:25Z</time></trkpt><trkpt lat="45.62480402341347" lon="8.48682458939874"><ele>250.0</ele><time>2026-04-06T09:29:26Z</time></trkpt><trkpt lat="45.62502480531951" lon="8.48680751068411"><ele>250.0</ele><time>2026-04-06T09:29:27Z</time></trkpt><trkpt lat="45.62524763869818" lon="8.486792343562511"><ele>250.0</ele><time>2026-04-06T09:29:28Z</time></trkpt><trkpt lat="45.625473085046075" lon="8.486775423608336"><ele>250.0</ele><time>2026-04-06T09:29:29Z</time></trkpt><trkpt lat="45.62569907591779" lon="8.486758556280881"><ele>250.0</ele><time>2026-04-06T09:29:30Z</time></trkpt><trkpt lat="45.625925641981034" lon="8.486741264318441"><ele>250.0</ele><time>2026-04-06T09:29:31Z</time></trkpt><trkpt lat="45.62615227190829" lon="8.486717269246787"><ele>250.5</ele><time>2026-04-06T09:29:32Z</time></trkpt><trkpt lat="45.62637626142748" lon="8.486681535477071"><ele>251.0</ele><time>2026-04-06T09:29:33Z</time></trkpt><trkpt lat="45.62660082956734" lon="8.486629881461052"><ele>251.0</ele><time>2026-04-06T09:29:34Z</time></trkpt><trkpt lat="45.6268231773257" lon="8.486565799829473"><ele>251.0</ele><time>2026-04-06T09:29:35Z</time></trkpt><trkpt lat="45.62704471565327" lon="8.486494760678635"><ele>251.66666666666669</ele><time>2026-04-06T09:29:36Z</time></trkpt><trkpt lat="45.62726569816694" lon="8.486420189163526"><ele>252.33333333333331</ele><time>2026-04-06T09:29:37Z</time></trkpt><trkpt lat="45.627480764170194" lon="8.486351363363132"><ele>253.0</ele><time>2026-04-06T09:29:38Z</time></trkpt><trkpt lat="45.62769925739846" lon="8.486285808264194"><ele>253.0</ele><time>2026-04-06T09:29:39Z</time></trkpt><trkpt lat="45.62792129593679" lon="8.486217961024705"><ele>253.0</ele><time>2026-04-06T09:29:40Z</time></trkpt><trkpt lat="45.62814111893403" lon="8.486145924106006"><ele>253.0</ele><time>2026-04-06T09:29:41Z</time></trkpt><trkpt lat="45.62836023306935" lon="8.48606811454129"><ele>253.0</ele><time>2026-04-06T09:29:42Z</time></trkpt><trkpt lat="45.628580111372756" lon="8.485976370557339"><ele>253.5</ele><time>2026-04-06T09:29:43Z</time></trkpt><trkpt lat="45.628795246401125" lon="8.48586635346033"><ele>254.0</ele><time>2026-04-06T09:29:44Z</time></trkpt><trkpt lat="45.62899780883469" lon="8.485733861923693"><ele>254.0</ele><time>2026-04-06T09:29:45Z</time></trkpt><trkpt lat="45.629196243530025" lon="8.485585513048058"><ele>254.0</ele><time>2026-04-06T09:29:46Z</time></trkpt><trkpt lat="45.62939280113677" lon="8.485427024264823"><ele>254.0</ele><time>2026-04-06T09:29:47Z</time></trkpt><trkpt lat="45.6295883011057" lon="8.485265481517416"><ele>254.0</ele><time>2026-04-06T09:29:48Z</time></trkpt><trkpt lat="45.629782705213415" lon="8.485106143243474"><ele>254.0</ele><time>2026-04-06T09:29:49Z</time></trkpt><trkpt lat="45.62997563199812" lon="8.484945828075396"><ele>254.0</ele><time>2026-04-06T09:29:50Z</time></trkpt><trkpt lat="45.63016846554287" lon="8.484783838680723"><ele>254.0</ele><time>2026-04-06T09:29:51Z</time></trkpt><trkpt lat="45.63036220573426" lon="8.484623400414273"><ele>254.33333333333334</ele><time>2026-04-06T09:29:52Z</time></trkpt><trkpt lat="45.63055481781054" lon="8.484464788283388"><ele>254.66666666666669</ele><time>2026-04-06T09:29:53Z</time></trkpt><trkpt lat="45.63074692357727" lon="8.484309926516136"><ele>255.0</ele><time>2026-04-06T09:29:54Z</time></trkpt><trkpt lat="45.63093555655591" lon="8.484156862818821"><ele>255.0</ele><time>2026-04-06T09:29:55Z</time></trkpt><trkpt lat="45.63112159551957" lon="8.484005650501372"><ele>255.0</ele><time>2026-04-06T09:29:56Z</time></trkpt><trkpt lat="45.63130341243021" lon="8.48385779368316"><ele>255.0</ele><time>2026-04-06T09:29:57Z</time></trkpt><trkpt lat="45.6314781644317" lon="8.48371339637824"><ele>255.0</ele><time>2026-04-06T09:29:58Z</time></trkpt><trkpt lat="45.6316467130985" lon="8.483580443922497"><ele>255.0</ele><time>2026-04-06T09:29:59Z</time></trkpt><trkpt lat="45.631811086380736" lon="8.483457588809376"><ele>255.0</ele><time>2026-04-06T09:30:00Z</time></trkpt><trkpt lat="45.63196789657483" lon="8.483344174834468"><ele>255.25</ele><time>2026-04-06T09:30:01Z</time></trkpt><trkpt lat="45.63211182031521" lon="8.483242081963736"><ele>255.5</ele><time>2026-04-06T09:30:02Z</time></trkpt><trkpt lat="45.632233500143016" lon="8.483156292413337"><ele>255.75</ele><time>2026-04-06T09:30:03Z</time></trkpt><trkpt lat="45.63233675504615" lon="8.483090952335196"><ele>256.0</ele><time>2026-04-06T09:30:04Z</time></trkpt><trkpt lat="45.63242847563637" lon="8.483057058615143"><ele>255.99999999999997</ele><time>2026-04-06T09:30:05Z</time></trkpt><trkpt lat="45.63251133421174" lon="8.483059003802303"><ele>256.0</ele><time>2026-04-06T09:30:06Z</time></trkpt><trkpt lat="45.63257522027464" lon="8.483126398743275"><ele>256.0</ele><time>2026-04-06T09:30:07Z</time></trkpt><trkpt lat="45.63261609129438" lon="8.483224697457413"><ele>256.0</ele><time>2026-04-06T09:30:08Z</time></trkpt><trkpt lat="45.63263487590646" lon="8.483346860330222"><ele>255.99999999999997</ele><time>2026-04-06T09:30:09Z</time></trkpt><trkpt lat="45.63264845668515" lon="8.483483928882753"><ele>256.0</ele><time>2026-04-06T09:30:10Z</time></trkpt><trkpt lat="45.632671468049026" lon="8.483628374461981"><ele>256.0</ele><time>2026-04-06T09:30:11Z</time></trkpt><trkpt lat="45.63271691613531" lon="8.48376112326051"><ele>256.0</ele><time>2026-04-06T09:30:12Z</time></trkpt><trkpt lat="45.63278997697419" lon="8.48387837184843"><ele>256.0</ele><time>2026-04-06T09:30:13Z</time></trkpt><trkpt lat="45.632882506519266" lon="8.483961644751227"><ele>256.0</ele><time>2026-04-06T09:30:14Z</time></trkpt><trkpt lat="45.632998404772145" lon="8.48402067270355"><ele>256.0</ele><time>2026-04-06T09:30:15Z</time></trkpt><trkpt lat="45.633135362582145" lon="8.484045336156578"><ele>256.0</ele><time>2026-04-06T09:30:16Z</time></trkpt><trkpt lat="45.63328187919282" lon="8.48406146410335"><ele>256.0</ele><time>2026-04-06T09:30:16.999Z</time></trkpt><trkpt lat="45.63343238609689" lon="8.484079925142675"><ele>256.0</ele><time>2026-04-06T09:30:17.999Z</time></trkpt><trkpt lat="45.63358921398138" lon="8.484109376730308"><ele>256.0</ele><time>2026-04-06T09:30:18.999Z</time></trkpt><trkpt lat="45.63373449455478" lon="8.484181099162079"><ele>256.0</ele><time>2026-04-06T09:30:19.999Z</time></trkpt><trkpt lat="45.63386992984643" lon="8.484306968418588"><ele>256.0</ele><time>2026-04-06T09:30:20.999Z</time></trkpt><trkpt lat="45.63399840062761" lon="8.48446506048661"><ele>256.0</ele><time>2026-04-06T09:30:21.999Z</time></trkpt><trkpt lat="45.634123979748935" lon="8.484627861572749"><ele>256.0</ele><time>2026-04-06T09:30:22.999Z</time></trkpt><trkpt lat="45.63424510716972" lon="8.484778744690658"><ele>256.0</ele><time>2026-04-06T09:30:23.999Z</time></trkpt><trkpt lat="45.63436442269313" lon="8.484920418995827"><ele>255.75</ele><time>2026-04-06T09:30:25Z</time></trkpt><trkpt lat="45.634479969254265" lon="8.485058900153232"><ele>255.5</ele><time>2026-04-06T09:30:26Z</time></trkpt><trkpt lat="45.63458709421816" lon="8.48518947098478"><ele>255.25</ele><time>2026-04-06T09:30:27Z</time></trkpt><trkpt lat="45.634688133687945" lon="8.485311368614806"><ele>255.0</ele><time>2026-04-06T09:30:28Z</time></trkpt><trkpt lat="45.6347796723966" lon="8.485419776385777"><ele>254.83333333333334</ele><time>2026-04-06T09:30:29Z</time></trkpt><trkpt lat="45.63486390126532" lon="8.485517921205195"><ele>254.66666666666669</ele><time>2026-04-06T09:30:30Z</time></trkpt><trkpt lat="45.63494152646606" lon="8.485607097895954"><ele>254.5</ele><time>2026-04-06T09:30:31Z</time></trkpt><trkpt lat="45.635009491517955" lon="8.485694324889518"><ele>254.33333333333334</ele><time>2026-04-06T09:30:32Z</time></trkpt><trkpt lat="45.63506564871921" lon="8.485771445556313"><ele>254.16666666666669</ele><time>2026-04-06T09:30:33Z</time></trkpt><trkpt lat="45.63511031866458" lon="8.485839956734539"><ele>254.0</ele><time>2026-04-06T09:30:34Z</time></trkpt><trkpt lat="45.63517625664488" lon="8.485986856404638"><ele>254.00000000000003</ele><time>2026-04-06T09:30:36Z</time></trkpt><trkpt lat="45.63525419784308" lon="8.48612475909438"><ele>254.0</ele><time>2026-04-06T09:30:38Z</time></trkpt><trkpt lat="45.635314919851155" lon="8.486165312914977"><ele>254.0</ele><time>2026-04-06T09:30:39Z</time></trkpt><trkpt lat="45.63538336459337" lon="8.486192815622262"><ele>254.0</ele><time>2026-04-06T09:30:40Z</time></trkpt><trkpt lat="45.635447422198155" lon="8.486235104124267"><ele>254.00000000000003</ele><time>2026-04-06T09:30:41Z</time></trkpt><trkpt lat="45.63550512195843" lon="8.486292883561282"><ele>254.0</ele><time>2026-04-06T09:30:42Z</time></trkpt><trkpt lat="45.635565431664" lon="8.486362730626745"><ele>254.75</ele><time>2026-04-06T09:30:43Z</time></trkpt><trkpt lat="45.63563632112047" lon="8.486441429326845"><ele>255.5</ele><time>2026-04-06T09:30:44Z</time></trkpt><trkpt lat="45.6357225235374" lon="8.486527573457264"><ele>256.25</ele><time>2026-04-06T09:30:45Z</time></trkpt><trkpt lat="45.635825566095676" lon="8.486625585291987"><ele>257.0</ele><time>2026-04-06T09:30:46Z</time></trkpt><trkpt lat="45.635921128658545" lon="8.486769579283136"><ele>257.0</ele><time>2026-04-06T09:30:47Z</time></trkpt><trkpt lat="45.6360383870776" lon="8.486911652147269"><ele>257.0</ele><time>2026-04-06T09:30:48Z</time></trkpt><trkpt lat="45.63617245962116" lon="8.487058990205531"><ele>257.0</ele><time>2026-04-06T09:30:49Z</time></trkpt><trkpt lat="45.636301373774955" lon="8.487223723163273"><ele>257.0</ele><time>2026-04-06T09:30:50Z</time></trkpt><trkpt lat="45.63644544134918" lon="8.487374018379157"><ele>257.0</ele><time>2026-04-06T09:30:51Z</time></trkpt><trkpt lat="45.63660515117584" lon="8.487492379405076"><ele>257.0</ele><time>2026-04-06T09:30:52Z</time></trkpt><trkpt lat="45.63678401427206" lon="8.48756580882092"><ele>257.0</ele><time>2026-04-06T09:30:53Z</time></trkpt><trkpt lat="45.63696758593521" lon="8.487597702614327"><ele>257.0</ele><time>2026-04-06T09:30:54Z</time></trkpt><trkpt lat="45.637157695342594" lon="8.487576679875383"><ele>257.0</ele><time>2026-04-06T09:30:55Z</time></trkpt><trkpt lat="45.637349362544974" lon="8.487505558617341"><ele>257.0</ele><time>2026-04-06T09:30:56Z</time></trkpt><trkpt lat="45.637533033361485" lon="8.48739855915269"><ele>257.0</ele><time>2026-04-06T09:30:57Z</time></trkpt><trkpt lat="45.637716259711816" lon="8.487255677398966"><ele>257.0</ele><time>2026-04-06T09:30:58Z</time></trkpt><trkpt lat="45.63790311549385" lon="8.487113039956483"><ele>257.0</ele><time>2026-04-06T09:30:59Z</time></trkpt><trkpt lat="45.63809214310441" lon="8.486967341477797"><ele>257.0</ele><time>2026-04-06T09:31:00Z</time></trkpt><trkpt lat="45.63827957090651" lon="8.486814833155826"><ele>257.0</ele><time>2026-04-06T09:31:01Z</time></trkpt><trkpt lat="45.638469274454984" lon="8.486663702952741"><ele>256.6666666666667</ele><time>2026-04-06T09:31:02Z</time></trkpt><trkpt lat="45.63865397206301" lon="8.486517156923966"><ele>256.3333333333333</ele><time>2026-04-06T09:31:03Z</time></trkpt><trkpt lat="45.63883563314824" lon="8.486375200035518"><ele>256.0</ele><time>2026-04-06T09:31:04Z</time></trkpt><trkpt lat="45.639013821797356" lon="8.486235598105647"><ele>256.0</ele><time>2026-04-06T09:31:05Z</time></trkpt><trkpt lat="45.639192435503055" lon="8.486100657586631"><ele>256.0</ele><time>2026-04-06T09:31:06Z</time></trkpt><trkpt lat="45.63937055458298" lon="8.485968525710081"><ele>256.0</ele><time>2026-04-06T09:31:07Z</time></trkpt><trkpt lat="45.639551467723905" lon="8.485837704151065"><ele>256.0</ele><time>2026-04-06T09:31:08Z</time></trkpt><trkpt lat="45.63973574176801" lon="8.485710740693037"><ele>256.0</ele><time>2026-04-06T09:31:09Z</time></trkpt><trkpt lat="45.63992060765437" lon="8.485586887118574"><ele>256.0</ele><time>2026-04-06T09:31:10Z</time></trkpt><trkpt lat="45.64009764800843" lon="8.485468874449998"><ele>257.3333333333333</ele><time>2026-04-06T09:31:11Z</time></trkpt><trkpt lat="45.64026555448901" lon="8.485347425810627"><ele>258.6666666666667</ele><time>2026-04-06T09:31:12Z</time></trkpt><trkpt lat="45.640422990673365" lon="8.485222136984452"><ele>260.0</ele><time>2026-04-06T09:31:13Z</time></trkpt><trkpt lat="45.640576350120696" lon="8.485088714530624"><ele>260.0</ele><time>2026-04-06T09:31:14Z</time></trkpt><trkpt lat="45.640720216509905" lon="8.484962859549553"><ele>260.0</ele><time>2026-04-06T09:31:15Z</time></trkpt><trkpt lat="45.640863445490616" lon="8.484853039976475"><ele>260.0</ele><time>2026-04-06T09:31:16Z</time></trkpt><trkpt lat="45.64102345468885" lon="8.484769087174453"><ele>260.0</ele><time>2026-04-06T09:31:17Z</time></trkpt><trkpt lat="45.6411967276196" lon="8.484720124024934"><ele>260.0</ele><time>2026-04-06T09:31:18Z</time></trkpt><trkpt lat="45.641345377158714" lon="8.48469069016423"><ele>260.0</ele><time>2026-04-06T09:31:19Z</time></trkpt><trkpt lat="45.64145949445847" lon="8.484667866631888"><ele>260.0</ele><time>2026-04-06T09:31:20Z</time></trkpt><trkpt lat="45.64154381473494" lon="8.484647125925898"><ele>260.0</ele><time>2026-04-06T09:31:21Z</time></trkpt><trkpt lat="45.64161876969378" lon="8.484642818435967"><ele>260.0</ele><time>2026-04-06T09:31:24Z</time></trkpt><trkpt lat="45.64165269772462" lon="8.484822744957999"><ele>260.0</ele><time>2026-04-06T09:31:27Z</time></trkpt><trkpt lat="45.64163559597345" lon="8.484936699626552"><ele>260.0</ele><time>2026-04-06T09:31:28Z</time></trkpt><trkpt lat="45.64163847133747" lon="8.485047311721035"><ele>260.0</ele><time>2026-04-06T09:31:29Z</time></trkpt><trkpt lat="45.641639964598646" lon="8.48519053847872"><ele>260.0</ele><time>2026-04-06T09:31:30Z</time></trkpt><trkpt lat="45.64164967792318" lon="8.485355016809361"><ele>260.0</ele><time>2026-04-06T09:31:31Z</time></trkpt><trkpt lat="45.641668048618165" lon="8.485520425305278"><ele>260.0</ele><time>2026-04-06T09:31:32Z</time></trkpt><trkpt lat="45.64169479288327" lon="8.485709605830404"><ele>260.0</ele><time>2026-04-06T09:31:33Z</time></trkpt><trkpt lat="45.64172651155063" lon="8.485908958592432"><ele>260.0</ele><time>2026-04-06T09:31:34Z</time></trkpt><trkpt lat="45.64175994236045" lon="8.486122776665825"><ele>260.0</ele><time>2026-04-06T09:31:35Z</time></trkpt><trkpt lat="45.64179462501289" lon="8.486352478806694"><ele>260.0</ele><time>2026-04-06T09:31:36Z</time></trkpt><trkpt lat="45.64182915418575" lon="8.486584215080963"><ele>260.0</ele><time>2026-04-06T09:31:37Z</time></trkpt><trkpt lat="45.641866866499065" lon="8.486806078845849"><ele>260.0</ele><time>2026-04-06T09:31:38Z</time></trkpt><trkpt lat="45.641920928668036" lon="8.487028245822387"><ele>260.0</ele><time>2026-04-06T09:31:39Z</time></trkpt><trkpt lat="45.642000153874406" lon="8.487241845244558"><ele>259.6666666666667</ele><time>2026-04-06T09:31:40Z</time></trkpt><trkpt lat="45.64210652943266" lon="8.487436034170148"><ele>259.3333333333333</ele><time>2026-04-06T09:31:41Z</time></trkpt><trkpt lat="45.64224198326019" lon="8.487606783230856"><ele>259.0</ele><time>2026-04-06T09:31:42Z</time></trkpt><trkpt lat="45.64238845883544" lon="8.487766288776287"><ele>259.0</ele><time>2026-04-06T09:31:43Z</time></trkpt><trkpt lat="45.64254122280961" lon="8.487919992567894"><ele>259.0</ele><time>2026-04-06T09:31:44Z</time></trkpt><trkpt lat="45.64269315215281" lon="8.488076093542324"><ele>259.0</ele><time>2026-04-06T09:31:45Z</time></trkpt><trkpt lat="45.6428453629633" lon="8.488231351658941"><ele>259.3333333333333</ele><time>2026-04-06T09:31:46Z</time></trkpt><trkpt lat="45.64299967337254" lon="8.488390839768805"><ele>259.6666666666667</ele><time>2026-04-06T09:31:47Z</time></trkpt><trkpt lat="45.64314430460645" lon="8.48854607881143"><ele>260.0</ele><time>2026-04-06T09:31:48Z</time></trkpt><trkpt lat="45.6432739152368" lon="8.488702471282012"><ele>260.0</ele><time>2026-04-06T09:31:49Z</time></trkpt><trkpt lat="45.643386656794426" lon="8.488887125244698"><ele>260.0</ele><time>2026-04-06T09:31:50Z</time></trkpt><trkpt lat="45.64347514098934" lon="8.489105689694986"><ele>260.0</ele><time>2026-04-06T09:31:51Z</time></trkpt><trkpt lat="45.64353629184344" lon="8.489349812275115"><ele>260.0</ele><time>2026-04-06T09:31:52Z</time></trkpt><trkpt lat="45.643564020604586" lon="8.48961488529583"><ele>260.0</ele><time>2026-04-06T09:31:53Z</time></trkpt><trkpt lat="45.643570960921444" lon="8.489886831951177"><ele>260.0</ele><time>2026-04-06T09:31:54Z</time></trkpt><trkpt lat="45.643569985023134" lon="8.49011457178357"><ele>260.0</ele><time>2026-04-06T09:31:55Z</time></trkpt><trkpt lat="45.643571248967376" lon="8.49028701340475"><ele>260.0</ele><time>2026-04-06T09:31:56Z</time></trkpt><trkpt lat="45.643570213904624" lon="8.490438608777154"><ele>260.0</ele><time>2026-04-06T09:31:57Z</time></trkpt><trkpt lat="45.64356283380389" lon="8.490567157226453"><ele>260.0</ele><time>2026-04-06T09:31:58Z</time></trkpt><trkpt lat="45.64353996580809" lon="8.490684711062444"><ele>260.0</ele><time>2026-04-06T09:31:59Z</time></trkpt><trkpt lat="45.64349946468481" lon="8.490810506446195"><ele>260.33333333333337</ele><time>2026-04-06T09:32:00Z</time></trkpt><trkpt lat="45.64347501786687" lon="8.490919973927017"><ele>260.6666666666667</ele><time>2026-04-06T09:32:01Z</time></trkpt><trkpt lat="45.64348666634349" lon="8.491027260089567"><ele>261.0</ele><time>2026-04-06T09:32:02Z</time></trkpt><trkpt lat="45.64353272529106" lon="8.491108921260736"><ele>261.3333333333333</ele><time>2026-04-06T09:32:03Z</time></trkpt><trkpt lat="45.643604441634956" lon="8.491140826573272"><ele>261.66666666666663</ele><time>2026-04-06T09:32:04Z</time></trkpt><trkpt lat="45.64369179893344" lon="8.491118668359434"><ele>262.0</ele><time>2026-04-06T09:32:05Z</time></trkpt><trkpt lat="45.64379563994337" lon="8.491063988994927"><ele>262.25</ele><time>2026-04-06T09:32:06Z</time></trkpt><trkpt lat="45.64390648673216" lon="8.491017288993811"><ele>262.5</ele><time>2026-04-06T09:32:07Z</time></trkpt><trkpt lat="45.64403381957054" lon="8.491008187091325"><ele>262.75</ele><time>2026-04-06T09:32:08Z</time></trkpt><trkpt lat="45.6441721975164" lon="8.491026838431496"><ele>263.0</ele><time>2026-04-06T09:32:09Z</time></trkpt><trkpt lat="45.64431521280648" lon="8.49104920944893"><ele>263.33333333333337</ele><time>2026-04-06T09:32:10Z</time></trkpt><trkpt lat="45.64447062022262" lon="8.491081651847699"><ele>263.6666666666667</ele><time>2026-04-06T09:32:11Z</time></trkpt><trkpt lat="45.64463217829508" lon="8.49112997137398"><ele>264.0</ele><time>2026-04-06T09:32:12Z</time></trkpt><trkpt lat="45.64480108191121" lon="8.491189609946595"><ele>263.6666666666667</ele><time>2026-04-06T09:32:13Z</time></trkpt><trkpt lat="45.644979327558616" lon="8.491258316780474"><ele>263.33333333333337</ele><time>2026-04-06T09:32:14Z</time></trkpt><trkpt lat="45.64516326038459" lon="8.491329613828162"><ele>263.0</ele><time>2026-04-06T09:32:15Z</time></trkpt><trkpt lat="45.645348904322645" lon="8.49140428957374"><ele>265.33333333333337</ele><time>2026-04-06T09:32:16Z</time></trkpt><trkpt lat="45.645523065356635" lon="8.491473446703969"><ele>267.6666666666667</ele><time>2026-04-06T09:32:17Z</time></trkpt><trkpt lat="45.64569032414054" lon="8.49153892960992"><ele>270.0</ele><time>2026-04-06T09:32:18Z</time></trkpt><trkpt lat="45.64585647547366" lon="8.491604818291778"><ele>270.0</ele><time>2026-04-06T09:32:19Z</time></trkpt><trkpt lat="45.64602067714824" lon="8.491672403389439"><ele>270.0</ele><time>2026-04-06T09:32:20Z</time></trkpt><trkpt lat="45.64618503490612" lon="8.491744991499703"><ele>270.0</ele><time>2026-04-06T09:32:21Z</time></trkpt><trkpt lat="45.64635075439004" lon="8.491815755312066"><ele>269.0</ele><time>2026-04-06T09:32:22Z</time></trkpt><trkpt lat="45.646514361659044" lon="8.491878976957677"><ele>268.0</ele><time>2026-04-06T09:32:23Z</time></trkpt><trkpt lat="45.646678572452885" lon="8.491940820795872"><ele>267.0</ele><time>2026-04-06T09:32:24Z</time></trkpt><trkpt lat="45.64684520668841" lon="8.492004710695213"><ele>266.6666666666667</ele><time>2026-04-06T09:32:25Z</time></trkpt><trkpt lat="45.647008744206246" lon="8.492066538552512"><ele>266.33333333333337</ele><time>2026-04-06T09:32:26Z</time></trkpt><trkpt lat="45.647170068181225" lon="8.4921279910154"><ele>266.0</ele><time>2026-04-06T09:32:27Z</time></trkpt><trkpt lat="45.647324480905944" lon="8.492186826378223"><ele>266.25</ele><time>2026-04-06T09:32:28Z</time></trkpt><trkpt lat="45.64746944915787" lon="8.492243345749475"><ele>266.5</ele><time>2026-04-06T09:32:29Z</time></trkpt><trkpt lat="45.647604299561536" lon="8.492298104936413"><ele>266.75</ele><time>2026-04-06T09:32:30Z</time></trkpt><trkpt lat="45.6477340747974" lon="8.492351601751526"><ele>267.0</ele><time>2026-04-06T09:32:31Z</time></trkpt><trkpt lat="45.64786622059545" lon="8.492403853723516"><ele>267.0</ele><time>2026-04-06T09:32:32Z</time></trkpt><trkpt lat="45.64800177623772" lon="8.492456555623699"><ele>267.0</ele><time>2026-04-06T09:32:33Z</time></trkpt><trkpt lat="45.648141580173025" lon="8.492510957111424"><ele>267.0</ele><time>2026-04-06T09:32:34Z</time></trkpt><trkpt lat="45.64827838434071" lon="8.492565281119106"><ele>267.0</ele><time>2026-04-06T09:32:35Z</time></trkpt><trkpt lat="45.64841275282772" lon="8.492619680105388"><ele>267.0</ele><time>2026-04-06T09:32:36Z</time></trkpt><trkpt lat="45.64856022295924" lon="8.492680478528289"><ele>267.0</ele><time>2026-04-06T09:32:37Z</time></trkpt><trkpt lat="45.64870735441983" lon="8.492739834834843"><ele>267.0</ele><time>2026-04-06T09:32:38Z</time></trkpt><trkpt lat="45.6488535252042" lon="8.492797032081139"><ele>266.75</ele><time>2026-04-06T09:32:39Z</time></trkpt><trkpt lat="45.64899384222353" lon="8.492851487511833"><ele>266.5</ele><time>2026-04-06T09:32:40Z</time></trkpt><trkpt lat="45.64913034580134" lon="8.492907458404508"><ele>266.25</ele><time>2026-04-06T09:32:41Z</time></trkpt><trkpt lat="45.6492602313725" lon="8.492963379532046"><ele>266.0</ele><time>2026-04-06T09:32:42Z</time></trkpt><trkpt lat="45.64940052338437" lon="8.4930176795223"><ele>266.6666666666667</ele><time>2026-04-06T09:32:43Z</time></trkpt><trkpt lat="45.64955331425226" lon="8.493074953571417"><ele>267.3333333333333</ele><time>2026-04-06T09:32:44Z</time></trkpt><trkpt lat="45.649706710593826" lon="8.493133706696035"><ele>268.0</ele><time>2026-04-06T09:32:45Z</time></trkpt><trkpt lat="45.649858548318704" lon="8.493188551740511"><ele>268.0</ele><time>2026-04-06T09:32:46Z</time></trkpt><trkpt lat="45.650024568011844" lon="8.493246795568089"><ele>268.0</ele><time>2026-04-06T09:32:47Z</time></trkpt><trkpt lat="45.65019794832091" lon="8.493332254187983"><ele>268.0</ele><time>2026-04-06T09:32:48Z</time></trkpt><trkpt lat="45.650395016098194" lon="8.493392324157062"><ele>267.66666666666663</ele><time>2026-04-06T09:32:49Z</time></trkpt><trkpt lat="45.65060290899469" lon="8.493483015853409"><ele>267.3333333333333</ele><time>2026-04-06T09:32:50Z</time></trkpt><trkpt lat="45.650813646981476" lon="8.493572544869163"><ele>267.0</ele><time>2026-04-06T09:32:51Z</time></trkpt><trkpt lat="45.65103338652678" lon="8.493670385938165"><ele>268.5</ele><time>2026-04-06T09:32:52Z</time></trkpt><trkpt lat="45.65125909830387" lon="8.493771145406278"><ele>270.0</ele><time>2026-04-06T09:32:53Z</time></trkpt><trkpt lat="45.651487476726324" lon="8.493870414333095"><ele>270.0</ele><time>2026-04-06T09:32:54Z</time></trkpt><trkpt lat="45.65170407413906" lon="8.49395677674704"><ele>270.0</ele><time>2026-04-06T09:32:55Z</time></trkpt><trkpt lat="45.651906740505126" lon="8.494034625594951"><ele>270.0</ele><time>2026-04-06T09:32:56Z</time></trkpt><trkpt lat="45.652095039190115" lon="8.494107606627747"><ele>269.6666666666667</ele><time>2026-04-06T09:32:57Z</time></trkpt><trkpt lat="45.652290662126774" lon="8.494179966426492"><ele>269.33333333333337</ele><time>2026-04-06T09:32:58Z</time></trkpt><trkpt lat="45.65249686435304" lon="8.494252918758237"><ele>269.0</ele><time>2026-04-06T09:32:59Z</time></trkpt><trkpt lat="45.652707625735324" lon="8.494325709923066"><ele>269.0</ele><time>2026-04-06T09:33:00Z</time></trkpt><trkpt lat="45.652926252951154" lon="8.494393589876607"><ele>269.0</ele><time>2026-04-06T09:33:01Z</time></trkpt><trkpt lat="45.653152237372424" lon="8.494457524569654"><ele>269.0</ele><time>2026-04-06T09:33:02Z</time></trkpt><trkpt lat="45.65338310635318" lon="8.49451126149598"><ele>269.0</ele><time>2026-04-06T09:33:03Z</time></trkpt><trkpt lat="45.653611787340594" lon="8.49454901996582"><ele>269.33333333333337</ele><time>2026-04-06T09:33:04Z</time></trkpt><trkpt lat="45.65383740260622" lon="8.494578831622452"><ele>269.6666666666667</ele><time>2026-04-06T09:33:05Z</time></trkpt><trkpt lat="45.65405856321087" lon="8.494594591525962"><ele>270.0</ele><time>2026-04-06T09:33:06Z</time></trkpt><trkpt lat="45.65427482342557" lon="8.494600743628052"><ele>270.0</ele><time>2026-04-06T09:33:07Z</time></trkpt><trkpt lat="45.65449225690454" lon="8.494596148406208"><ele>270.0</ele><time>2026-04-06T09:33:08Z</time></trkpt><trkpt lat="45.65471426494622" lon="8.494583407029177"><ele>270.0</ele><time>2026-04-06T09:33:09Z</time></trkpt><trkpt lat="45.65493737331616" lon="8.494558623982813"><ele>270.0</ele><time>2026-04-06T09:33:10Z</time></trkpt><trkpt lat="45.655160595496376" lon="8.494523358618107"><ele>270.0</ele><time>2026-04-06T09:33:11Z</time></trkpt><trkpt lat="45.65537923220686" lon="8.494481471894789"><ele>270.0</ele><time>2026-04-06T09:33:12Z</time></trkpt><trkpt lat="45.655594720297955" lon="8.49442917189643"><ele>270.6666666666667</ele><time>2026-04-06T09:33:13Z</time></trkpt><trkpt lat="45.65580787123833" lon="8.494364270155026"><ele>271.33333333333337</ele><time>2026-04-06T09:33:14Z</time></trkpt><trkpt lat="45.65601661516706" lon="8.494292676918246"><ele>272.0</ele><time>2026-04-06T09:33:15Z</time></trkpt><trkpt lat="45.65622568065042" lon="8.494217543350455"><ele>272.0</ele><time>2026-04-06T09:33:16Z</time></trkpt><trkpt lat="45.65643790419708" lon="8.494138526439562"><ele>272.0</ele><time>2026-04-06T09:33:17Z</time></trkpt><trkpt lat="45.65665508131571" lon="8.494059556932143"><ele>272.0</ele><time>2026-04-06T09:33:18Z</time></trkpt><trkpt lat="45.656876088796906" lon="8.493982888208013"><ele>272.6666666666667</ele><time>2026-04-06T09:33:19Z</time></trkpt><trkpt lat="45.657096213885396" lon="8.49390983880094"><ele>273.3333333333333</ele><time>2026-04-06T09:33:20Z</time></trkpt><trkpt lat="45.657308673931915" lon="8.493838004910833"><ele>274.0</ele><time>2026-04-06T09:33:21Z</time></trkpt><trkpt lat="45.65751795419225" lon="8.493762645822619"><ele>273.66666666666663</ele><time>2026-04-06T09:33:22Z</time></trkpt><trkpt lat="45.65772238102245" lon="8.493687082203522"><ele>273.3333333333333</ele><time>2026-04-06T09:33:23Z</time></trkpt><trkpt lat="45.65791761458649" lon="8.493612889918225"><ele>273.0</ele><time>2026-04-06T09:33:24Z</time></trkpt><trkpt lat="45.65810858146912" lon="8.493540055857753"><ele>273.0</ele><time>2026-04-06T09:33:25Z</time></trkpt><trkpt lat="45.658298122470846" lon="8.493468294256449"><ele>273.0</ele><time>2026-04-06T09:33:26Z</time></trkpt><trkpt lat="45.658481118919575" lon="8.49339727062349"><ele>273.0</ele><time>2026-04-06T09:33:27Z</time></trkpt><trkpt lat="45.658657590332886" lon="8.49332972098205"><ele>274.0</ele><time>2026-04-06T09:33:28Z</time></trkpt><trkpt lat="45.658826860233845" lon="8.493262168610121"><ele>275.0</ele><time>2026-04-06T09:33:29Z</time></trkpt><trkpt lat="45.658988532251435" lon="8.493198087814443"><ele>276.0</ele><time>2026-04-06T09:33:30Z</time></trkpt><trkpt lat="45.65913835003614" lon="8.493139316353739"><ele>276.0</ele><time>2026-04-06T09:33:31Z</time></trkpt><trkpt lat="45.65928349754932" lon="8.493071726549177"><ele>276.0</ele><time>2026-04-06T09:33:32Z</time></trkpt><trkpt lat="45.659416003527895" lon="8.492996136355208"><ele>276.0</ele><time>2026-04-06T09:33:33Z</time></trkpt><trkpt lat="45.659530990700965" lon="8.492925537974966"><ele>276.0</ele><time>2026-04-06T09:33:34Z</time></trkpt><trkpt lat="45.65962576091785" lon="8.492862705651557"><ele>276.0</ele><time>2026-04-06T09:33:35Z</time></trkpt><trkpt lat="45.659709814601165" lon="8.492811850450357"><ele>276.0</ele><time>2026-04-06T09:33:36Z</time></trkpt><trkpt lat="45.65978133922964" lon="8.492796335305085"><ele>276.0</ele><time>2026-04-06T09:33:37Z</time></trkpt><trkpt lat="45.65984944546586" lon="8.492792145123683"><ele>276.0</ele><time>2026-04-06T09:33:38Z</time></trkpt><trkpt lat="45.65991417963235" lon="8.492785660382673"><ele>276.0</ele><time>2026-04-06T09:33:39Z</time></trkpt><trkpt lat="45.659979488503346" lon="8.492764134689871"><ele>276.0</ele><time>2026-04-06T09:33:40Z</time></trkpt><trkpt lat="45.6600468178906" lon="8.492722114873208"><ele>276.0</ele><time>2026-04-06T09:33:41Z</time></trkpt><trkpt lat="45.66011809578867" lon="8.49267020873362"><ele>276.0</ele><time>2026-04-06T09:33:42Z</time></trkpt><trkpt lat="45.660191581998006" lon="8.492627909149428"><ele>276.0</ele><time>2026-04-06T09:33:43Z</time></trkpt><trkpt lat="45.66027047156706" lon="8.492600177153697"><ele>276.0</ele><time>2026-04-06T09:33:44Z</time></trkpt><trkpt lat="45.66035005078485" lon="8.492587779542017"><ele>276.0</ele><time>2026-04-06T09:33:45Z</time></trkpt><trkpt lat="45.660430615387085" lon="8.492572967884069"><ele>276.0</ele><time>2026-04-06T09:33:46Z</time></trkpt><trkpt lat="45.66051361816429" lon="8.492556518526037"><ele>276.0</ele><time>2026-04-06T09:33:47Z</time></trkpt><trkpt lat="45.66061739026015" lon="8.492532921594872"><ele>276.0</ele><time>2026-04-06T09:33:48Z</time></trkpt><trkpt lat="45.6607404058766" lon="8.492500045709786"><ele>276.0</ele><time>2026-04-06T09:33:49Z</time></trkpt><trkpt lat="45.66086907862748" lon="8.492452339641376"><ele>276.0</ele><time>2026-04-06T09:33:50Z</time></trkpt><trkpt lat="45.66101393472045" lon="8.492388163945911"><ele>276.0</ele><time>2026-04-06T09:33:51Z</time></trkpt><trkpt lat="45.6611693273894" lon="8.492319868661069"><ele>276.6666666666667</ele><time>2026-04-06T09:33:52Z</time></trkpt><trkpt lat="45.661330402357486" lon="8.492253016241383"><ele>277.33333333333337</ele><time>2026-04-06T09:33:53Z</time></trkpt><trkpt lat="45.661503253182836" lon="8.492180315233247"><ele>278.0</ele><time>2026-04-06T09:33:54Z</time></trkpt><trkpt lat="45.66168091233853" lon="8.492108237589697"><ele>278.0</ele><time>2026-04-06T09:33:55Z</time></trkpt><trkpt lat="45.66185973671111" lon="8.492035293647017"><ele>278.0</ele><time>2026-04-06T09:33:56Z</time></trkpt><trkpt lat="45.66204258340793" lon="8.491958527719072"><ele>278.0</ele><time>2026-04-06T09:33:57Z</time></trkpt><trkpt lat="45.66222812747923" lon="8.491877701962204"><ele>278.0</ele><time>2026-04-06T09:33:58Z</time></trkpt><trkpt lat="45.66240971527194" lon="8.491793625099818"><ele>278.0</ele><time>2026-04-06T09:33:59Z</time></trkpt><trkpt lat="45.662583280041375" lon="8.491709864702809"><ele>278.0</ele><time>2026-04-06T09:34:00Z</time></trkpt><trkpt lat="45.66275501734884" lon="8.491623356469821"><ele>278.0</ele><time>2026-04-06T09:34:01Z</time></trkpt><trkpt lat="45.66292312847517" lon="8.491534052378123"><ele>278.0</ele><time>2026-04-06T09:34:02Z</time></trkpt><trkpt lat="45.663089900138694" lon="8.491441406621629"><ele>278.0</ele><time>2026-04-06T09:34:03Z</time></trkpt><trkpt lat="45.66325347844326" lon="8.491345278519018"><ele>277.6666666666667</ele><time>2026-04-06T09:34:04Z</time></trkpt><trkpt lat="45.663411646933696" lon="8.491249807010385"><ele>277.3333333333333</ele><time>2026-04-06T09:34:05Z</time></trkpt><trkpt lat="45.663573907597986" lon="8.491152230728021"><ele>277.0</ele><time>2026-04-06T09:34:06Z</time></trkpt><trkpt lat="45.663740077723894" lon="8.491049056334676"><ele>277.0</ele><time>2026-04-06T09:34:07Z</time></trkpt><trkpt lat="45.66390359062701" lon="8.49094326680644"><ele>277.0</ele><time>2026-04-06T09:34:08Z</time></trkpt><trkpt lat="45.66406061009164" lon="8.490836958881626"><ele>277.0</ele><time>2026-04-06T09:34:09Z</time></trkpt><trkpt lat="45.66421311109822" lon="8.49073108786947"><ele>277.0</ele><time>2026-04-06T09:34:10Z</time></trkpt><trkpt lat="45.664359440090564" lon="8.490629319407088"><ele>277.0</ele><time>2026-04-06T09:34:11Z</time></trkpt><trkpt lat="45.66449926836505" lon="8.490535200866619"><ele>277.0</ele><time>2026-04-06T09:34:12Z</time></trkpt><trkpt lat="45.664630579144244" lon="8.49044620437333"><ele>277.5</ele><time>2026-04-06T09:34:13Z</time></trkpt><trkpt lat="45.6647541637034" lon="8.49036140049903"><ele>278.0</ele><time>2026-04-06T09:34:14Z</time></trkpt><trkpt lat="45.664878060437545" lon="8.490273446099366"><ele>278.5</ele><time>2026-04-06T09:34:15Z</time></trkpt><trkpt lat="45.66500075786727" lon="8.490185565416976"><ele>279.0</ele><time>2026-04-06T09:34:16Z</time></trkpt><trkpt lat="45.66512459916094" lon="8.490099834234037"><ele>279.0</ele><time>2026-04-06T09:34:17Z</time></trkpt><trkpt lat="45.6652518168902" lon="8.490011769812751"><ele>279.0</ele><time>2026-04-06T09:34:18Z</time></trkpt><trkpt lat="45.665380752778944" lon="8.489922810263442"><ele>279.0</ele><time>2026-04-06T09:34:19Z</time></trkpt><trkpt lat="45.6655055323862" lon="8.489836380974957"><ele>279.0</ele><time>2026-04-06T09:34:20Z</time></trkpt><trkpt lat="45.665624104764646" lon="8.489755634401993"><ele>279.75</ele><time>2026-04-06T09:34:21Z</time></trkpt><trkpt lat="45.66573735684209" lon="8.489678373034335"><ele>280.5</ele><time>2026-04-06T09:34:22Z</time></trkpt><trkpt lat="45.66584457235385" lon="8.489604911314423"><ele>281.25</ele><time>2026-04-06T09:34:23Z</time></trkpt><trkpt lat="45.66595212784897" lon="8.489529546595637"><ele>282.0</ele><time>2026-04-06T09:34:24Z</time></trkpt><trkpt lat="45.66606915275003" lon="8.48944718922499"><ele>282.75</ele><time>2026-04-06T09:34:25Z</time></trkpt><trkpt lat="45.66619468202152" lon="8.48936084872449"><ele>283.5</ele><time>2026-04-06T09:34:26Z</time></trkpt><trkpt lat="45.666327782237694" lon="8.489269510603373"><ele>284.25</ele><time>2026-04-06T09:34:27Z</time></trkpt><trkpt lat="45.66645888127179" lon="8.489179605382835"><ele>285.0</ele><time>2026-04-06T09:34:28Z</time></trkpt><trkpt lat="45.66658620511784" lon="8.489093702420002"><ele>285.0</ele><time>2026-04-06T09:34:29Z</time></trkpt><trkpt lat="45.66671212875526" lon="8.489009664097118"><ele>285.0</ele><time>2026-04-06T09:34:30Z</time></trkpt><trkpt lat="45.6668394474092" lon="8.488922349661205"><ele>285.0</ele><time>2026-04-06T09:34:31Z</time></trkpt><trkpt lat="45.66696994926438" lon="8.488830204278784"><ele>285.0</ele><time>2026-04-06T09:34:32Z</time></trkpt><trkpt lat="45.66710401494026" lon="8.488737568756644"><ele>284.3333333333333</ele><time>2026-04-06T09:34:33Z</time></trkpt><trkpt lat="45.66723894020216" lon="8.488645837422322"><ele>283.66666666666663</ele><time>2026-04-06T09:34:34Z</time></trkpt><trkpt lat="45.66737296621135" lon="8.488554854469939"><ele>283.0</ele><time>2026-04-06T09:34:35Z</time></trkpt><trkpt lat="45.6675106241318" lon="8.488459977062153"><ele>283.0</ele><time>2026-04-06T09:34:36Z</time></trkpt><trkpt lat="45.66764856004974" lon="8.488364829176383"><ele>283.0</ele><time>2026-04-06T09:34:37Z</time></trkpt><trkpt lat="45.667785724758545" lon="8.48827085652029"><ele>283.0</ele><time>2026-04-06T09:34:38Z</time></trkpt><trkpt lat="45.66792895718069" lon="8.488172456950904"><ele>283.3333333333333</ele><time>2026-04-06T09:34:39Z</time></trkpt><trkpt lat="45.668074297200334" lon="8.488073232921836"><ele>283.6666666666667</ele><time>2026-04-06T09:34:40Z</time></trkpt><trkpt lat="45.668218600202856" lon="8.487975594813525"><ele>284.0</ele><time>2026-04-06T09:34:41Z</time></trkpt><trkpt lat="45.668367685378314" lon="8.487873616463903"><ele>284.33333333333337</ele><time>2026-04-06T09:34:42Z</time></trkpt><trkpt lat="45.668517196034394" lon="8.487771839325612"><ele>284.6666666666667</ele><time>2026-04-06T09:34:43Z</time></trkpt><trkpt lat="45.66866595478037" lon="8.487668290996234"><ele>285.0</ele><time>2026-04-06T09:34:44Z</time></trkpt><trkpt lat="45.66881718944741" lon="8.487564360207775"><ele>285.0</ele><time>2026-04-06T09:34:45Z</time></trkpt><trkpt lat="45.66896871352849" lon="8.487460452657938"><ele>285.0</ele><time>2026-04-06T09:34:46Z</time></trkpt><trkpt lat="45.66911954552458" lon="8.487356856338794"><ele>285.0</ele><time>2026-04-06T09:34:47Z</time></trkpt><trkpt lat="45.6692685848437" lon="8.487254492018536"><ele>285.0</ele><time>2026-04-06T09:34:48Z</time></trkpt><trkpt lat="45.669416520591334" lon="8.48715501215806"><ele>285.0</ele><time>2026-04-06T09:34:49Z</time></trkpt><trkpt lat="45.66956136714681" lon="8.487056672114829"><ele>285.0</ele><time>2026-04-06T09:34:50Z</time></trkpt><trkpt lat="45.66970244493042" lon="8.486959378633"><ele>285.0</ele><time>2026-04-06T09:34:51Z</time></trkpt><trkpt lat="45.6698487274911" lon="8.486857331514555"><ele>285.0</ele><time>2026-04-06T09:34:52Z</time></trkpt><trkpt lat="45.66999884980604" lon="8.486752292026358"><ele>285.0</ele><time>2026-04-06T09:34:53Z</time></trkpt><trkpt lat="45.670153543563764" lon="8.486645668995193"><ele>284.6666666666667</ele><time>2026-04-06T09:34:54Z</time></trkpt><trkpt lat="45.670309987484494" lon="8.486539092456308"><ele>284.33333333333337</ele><time>2026-04-06T09:34:55Z</time></trkpt><trkpt lat="45.6704688390097" lon="8.486428586195292"><ele>284.0</ele><time>2026-04-06T09:34:56Z</time></trkpt><trkpt lat="45.67062955663494" lon="8.486317873055388"><ele>284.33333333333337</ele><time>2026-04-06T09:34:57Z</time></trkpt><trkpt lat="45.67079338206167" lon="8.486206406567137"><ele>284.6666666666667</ele><time>2026-04-06T09:34:58Z</time></trkpt><trkpt lat="45.67095798260985" lon="8.486094637864362"><ele>285.0</ele><time>2026-04-06T09:34:59Z</time></trkpt><trkpt lat="45.671122654112324" lon="8.48598051130902"><ele>285.6666666666667</ele><time>2026-04-06T09:35:00Z</time></trkpt><trkpt lat="45.671288387896425" lon="8.485865212058746"><ele>286.33333333333337</ele><time>2026-04-06T09:35:01Z</time></trkpt><trkpt lat="45.671453281887615" lon="8.485749211646965"><ele>287.0</ele><time>2026-04-06T09:35:02Z</time></trkpt><trkpt lat="45.67161576860458" lon="8.48563254009561"><ele>287.0</ele><time>2026-04-06T09:35:03Z</time></trkpt><trkpt lat="45.67178009249003" lon="8.485515375243207"><ele>287.0</ele><time>2026-04-06T09:35:04Z</time></trkpt><trkpt lat="45.67194480823623" lon="8.485401199681606"><ele>287.0</ele><time>2026-04-06T09:35:05Z</time></trkpt><trkpt lat="45.672109284295196" lon="8.485289869210163"><ele>287.0</ele><time>2026-04-06T09:35:06Z</time></trkpt><trkpt lat="45.672270862132045" lon="8.485181344840187"><ele>287.0</ele><time>2026-04-06T09:35:07Z</time></trkpt><trkpt lat="45.67243143953865" lon="8.485078651843448"><ele>287.0</ele><time>2026-04-06T09:35:08Z</time></trkpt><trkpt lat="45.67259550336339" lon="8.48498123234069"><ele>287.0</ele><time>2026-04-06T09:35:09Z</time></trkpt><trkpt lat="45.67276665950811" lon="8.484892281107149"><ele>287.0</ele><time>2026-04-06T09:35:10Z</time></trkpt><trkpt lat="45.67293760839261" lon="8.484813357308896"><ele>287.0</ele><time>2026-04-06T09:35:11Z</time></trkpt><trkpt lat="45.67310593670564" lon="8.484748981025268"><ele>286.6666666666667</ele><time>2026-04-06T09:35:12Z</time></trkpt><trkpt lat="45.67327117068886" lon="8.484694722749625"><ele>286.3333333333333</ele><time>2026-04-06T09:35:13Z</time></trkpt><trkpt lat="45.67343345740028" lon="8.484647488956528"><ele>286.0</ele><time>2026-04-06T09:35:14Z</time></trkpt><trkpt lat="45.673595580503964" lon="8.484608606557167"><ele>286.3333333333333</ele><time>2026-04-06T09:35:15Z</time></trkpt><trkpt lat="45.67375238527685" lon="8.484575207055807"><ele>286.6666666666667</ele><time>2026-04-06T09:35:16Z</time></trkpt><trkpt lat="45.67390871137038" lon="8.484546877005727"><ele>287.0</ele><time>2026-04-06T09:35:17Z</time></trkpt><trkpt lat="45.67405925819556" lon="8.484530309637163"><ele>287.0</ele><time>2026-04-06T09:35:18Z</time></trkpt><trkpt lat="45.674200708702934" lon="8.48452039921271"><ele>287.0</ele><time>2026-04-06T09:35:19Z</time></trkpt><trkpt lat="45.674335402263" lon="8.484517645986884"><ele>287.0</ele><time>2026-04-06T09:35:20Z</time></trkpt><trkpt lat="45.6744641086615" lon="8.484521332227052"><ele>287.0</ele><time>2026-04-06T09:35:21Z</time></trkpt><trkpt lat="45.67457862170178" lon="8.48454789321084"><ele>287.0</ele><time>2026-04-06T09:35:22Z</time></trkpt><trkpt lat="45.67467537843887" lon="8.484617746802611"><ele>287.0</ele><time>2026-04-06T09:35:23Z</time></trkpt><trkpt lat="45.67476292313472" lon="8.484712199003823"><ele>287.0</ele><time>2026-04-06T09:35:24Z</time></trkpt><trkpt lat="45.67485049476259" lon="8.484810464046904"><ele>287.0</ele><time>2026-04-06T09:35:25Z</time></trkpt><trkpt lat="45.67494496987443" lon="8.484902196008854"><ele>287.0</ele><time>2026-04-06T09:35:26Z</time></trkpt><trkpt lat="45.67505043470818" lon="8.484963525471345"><ele>287.0</ele><time>2026-04-06T09:35:27Z</time></trkpt><trkpt lat="45.675165648730015" lon="8.484989059094158"><ele>287.0</ele><time>2026-04-06T09:35:28Z</time></trkpt><trkpt lat="45.675283874528326" lon="8.484982634733917"><ele>287.0</ele><time>2026-04-06T09:35:29Z</time></trkpt><trkpt lat="45.67539666071005" lon="8.484943112556056"><ele>287.0</ele><time>2026-04-06T09:35:30Z</time></trkpt><trkpt lat="45.67549940576" lon="8.484874031170612"><ele>287.0</ele><time>2026-04-06T09:35:31Z</time></trkpt><trkpt lat="45.67558865512962" lon="8.484773809185926"><ele>287.0</ele><time>2026-04-06T09:35:32Z</time></trkpt><trkpt lat="45.675662043598436" lon="8.484647937289838"><ele>287.0</ele><time>2026-04-06T09:35:33Z</time></trkpt><trkpt lat="45.67571616578029" lon="8.484500422253094"><ele>287.0</ele><time>2026-04-06T09:35:34Z</time></trkpt><trkpt lat="45.67574525360027" lon="8.48434053371351"><ele>287.0</ele><time>2026-04-06T09:35:35Z</time></trkpt><trkpt lat="45.675751116575945" lon="8.484182585399001"><ele>287.0</ele><time>2026-04-06T09:35:36Z</time></trkpt><trkpt lat="45.67573922862976" lon="8.484023342807722"><ele>287.0</ele><time>2026-04-06T09:35:37Z</time></trkpt><trkpt lat="45.67570881333613" lon="8.483868254783804"><ele>287.0</ele><time>2026-04-06T09:35:38Z</time></trkpt><trkpt lat="45.67565432027617" lon="8.483722765577937"><ele>286.8</ele><time>2026-04-06T09:35:39Z</time></trkpt><trkpt lat="45.67558090444316" lon="8.483601562683964"><ele>286.6</ele><time>2026-04-06T09:35:40Z</time></trkpt><trkpt lat="45.675499530757364" lon="8.48349961264739"><ele>286.40000000000003</ele><time>2026-04-06T09:35:41Z</time></trkpt><trkpt lat="45.67541425183388" lon="8.483406840997455"><ele>286.2</ele><time>2026-04-06T09:35:42Z</time></trkpt><trkpt lat="45.67533874625483" lon="8.483314595872475"><ele>286.0</ele><time>2026-04-06T09:35:43Z</time></trkpt><trkpt lat="45.67529115715813" lon="8.4832029902685"><ele>286.0</ele><time>2026-04-06T09:35:44Z</time></trkpt><trkpt lat="45.675270360461234" lon="8.48307636565952"><ele>286.0</ele><time>2026-04-06T09:35:45Z</time></trkpt><trkpt lat="45.67527386883957" lon="8.482946561434535"><ele>286.0</ele><time>2026-04-06T09:35:46Z</time></trkpt><trkpt lat="45.67529545527346" lon="8.482825607827458"><ele>286.0</ele><time>2026-04-06T09:35:47Z</time></trkpt><trkpt lat="45.675332654562915" lon="8.48271751147799"><ele>286.0</ele><time>2026-04-06T09:35:48Z</time></trkpt><trkpt lat="45.67538694112007" lon="8.48262906693898"><ele>286.0</ele><time>2026-04-06T09:35:49Z</time></trkpt><trkpt lat="45.675419937656244" lon="8.4825291866829"><ele>285.8</ele><time>2026-04-06T09:35:50Z</time></trkpt><trkpt lat="45.67554648525456" lon="8.48253512626582"><ele>285.6</ele><time>2026-04-06T09:35:51Z</time></trkpt><trkpt lat="45.67563470860419" lon="8.482515984074094"><ele>285.4</ele><time>2026-04-06T09:35:52Z</time></trkpt><trkpt lat="45.675723582658236" lon="8.48251831312143"><ele>285.2</ele><time>2026-04-06T09:35:53Z</time></trkpt><trkpt lat="45.67581199701565" lon="8.48253159159465"><ele>285.0</ele><time>2026-04-06T09:35:54Z</time></trkpt><trkpt lat="45.675902236511085" lon="8.482554812390385"><ele>285.0</ele><time>2026-04-06T09:35:55Z</time></trkpt><trkpt lat="45.675997615033054" lon="8.482586524884152"><ele>285.0</ele><time>2026-04-06T09:35:56Z</time></trkpt><trkpt lat="45.67609561238094" lon="8.482627828056184"><ele>285.0</ele><time>2026-04-06T09:35:57Z</time></trkpt><trkpt lat="45.676196975862204" lon="8.48267430714408"><ele>285.0</ele><time>2026-04-06T09:35:58Z</time></trkpt><trkpt lat="45.676301567807734" lon="8.482733976126225"><ele>285.0</ele><time>2026-04-06T09:35:59Z</time></trkpt><trkpt lat="45.67640563374891" lon="8.482809683246758"><ele>285.5</ele><time>2026-04-06T09:36:00Z</time></trkpt><trkpt lat="45.676511953783084" lon="8.482898576272929"><ele>286.0</ele><time>2026-04-06T09:36:01Z</time></trkpt><trkpt lat="45.67661719449997" lon="8.482996611681047"><ele>286.5</ele><time>2026-04-06T09:36:02Z</time></trkpt><trkpt lat="45.676721151400486" lon="8.48310805132048"><ele>287.0</ele><time>2026-04-06T09:36:03Z</time></trkpt><trkpt lat="45.676821280661656" lon="8.483238492760863"><ele>287.25</ele><time>2026-04-06T09:36:04Z</time></trkpt><trkpt lat="45.67691557432028" lon="8.483382950481799"><ele>287.5</ele><time>2026-04-06T09:36:05Z</time></trkpt><trkpt lat="45.67700655006483" lon="8.483544639534713"><ele>287.75</ele><time>2026-04-06T09:36:06Z</time></trkpt><trkpt lat="45.67709524524161" lon="8.48372555248057"><ele>288.0</ele><time>2026-04-06T09:36:07Z</time></trkpt><trkpt lat="45.677183408314555" lon="8.483912162311398"><ele>288.3333333333333</ele><time>2026-04-06T09:36:08Z</time></trkpt><trkpt lat="45.677271867945954" lon="8.484111837848134"><ele>288.66666666666663</ele><time>2026-04-06T09:36:09Z</time></trkpt><trkpt lat="45.67736240335163" lon="8.484319616353156"><ele>289.0</ele><time>2026-04-06T09:36:10Z</time></trkpt><trkpt lat="45.67745839209656" lon="8.484537128365002"><ele>289.0</ele><time>2026-04-06T09:36:11Z</time></trkpt><trkpt lat="45.677557555746326" lon="8.484759476055311"><ele>289.0</ele><time>2026-04-06T09:36:12Z</time></trkpt><trkpt lat="45.67765790601966" lon="8.484990596932205"><ele>289.0</ele><time>2026-04-06T09:36:13Z</time></trkpt><trkpt lat="45.677757666451704" lon="8.485225740441107"><ele>289.66666666666663</ele><time>2026-04-06T09:36:14Z</time></trkpt><trkpt lat="45.67786075170487" lon="8.485465610633861"><ele>290.3333333333333</ele><time>2026-04-06T09:36:15Z</time></trkpt><trkpt lat="45.677965592666034" lon="8.48570915033996"><ele>291.0</ele><time>2026-04-06T09:36:16Z</time></trkpt><trkpt lat="45.67806986184831" lon="8.485951455854812"><ele>291.0</ele><time>2026-04-06T09:36:17Z</time></trkpt><trkpt lat="45.678174699390524" lon="8.486193798995467"><ele>291.0</ele><time>2026-04-06T09:36:18Z</time></trkpt><trkpt lat="45.678278081068555" lon="8.486429447091586"><ele>291.0</ele><time>2026-04-06T09:36:19Z</time></trkpt><trkpt lat="45.678381180990634" lon="8.486664721782663"><ele>290.6666666666667</ele><time>2026-04-06T09:36:20Z</time></trkpt><trkpt lat="45.678481651655005" lon="8.4868962655459"><ele>290.33333333333337</ele><time>2026-04-06T09:36:21Z</time></trkpt><trkpt lat="45.67857985981254" lon="8.487120690163064"><ele>290.0</ele><time>2026-04-06T09:36:22Z</time></trkpt><trkpt lat="45.678680387535856" lon="8.487345455030061"><ele>290.0</ele><time>2026-04-06T09:36:23Z</time></trkpt><trkpt lat="45.67878350227374" lon="8.487574000396275"><ele>290.0</ele><time>2026-04-06T09:36:24Z</time></trkpt><trkpt lat="45.678890975016145" lon="8.487796427419813"><ele>290.0</ele><time>2026-04-06T09:36:25Z</time></trkpt><trkpt lat="45.67900322297154" lon="8.488012691449157"><ele>290.0</ele><time>2026-04-06T09:36:26Z</time></trkpt><trkpt lat="45.67911857455318" lon="8.488220779125012"><ele>290.0</ele><time>2026-04-06T09:36:27Z</time></trkpt><trkpt lat="45.679241225304985" lon="8.48842635400069"><ele>290.0</ele><time>2026-04-06T09:36:28Z</time></trkpt><trkpt lat="45.679369811011505" lon="8.4886304494244"><ele>290.6666666666667</ele><time>2026-04-06T09:36:29Z</time></trkpt><trkpt lat="45.67950527912889" lon="8.488827647391181"><ele>291.3333333333333</ele><time>2026-04-06T09:36:30Z</time></trkpt><trkpt lat="45.679644322351116" lon="8.489014761556266"><ele>292.0</ele><time>2026-04-06T09:36:31Z</time></trkpt><trkpt lat="45.679785778567684" lon="8.489194188875"><ele>292.0</ele><time>2026-04-06T09:36:32Z</time></trkpt><trkpt lat="45.67993165848773" lon="8.489365927091294"><ele>292.0</ele><time>2026-04-06T09:36:33Z</time></trkpt><trkpt lat="45.680082756710746" lon="8.489530541308818"><ele>292.0</ele><time>2026-04-06T09:36:34Z</time></trkpt><trkpt lat="45.68023406181217" lon="8.489685088287882"><ele>291.0</ele><time>2026-04-06T09:36:35Z</time></trkpt><trkpt lat="45.68038898630719" lon="8.489828780414333"><ele>290.0</ele><time>2026-04-06T09:36:36Z</time></trkpt><trkpt lat="45.68054322488237" lon="8.489961103024681"><ele>289.0</ele><time>2026-04-06T09:36:37Z</time></trkpt><trkpt lat="45.680698876627666" lon="8.490084970516202"><ele>289.0</ele><time>2026-04-06T09:36:38Z</time></trkpt><trkpt lat="45.68085741015819" lon="8.490198600130654"><ele>289.0</ele><time>2026-04-06T09:36:39Z</time></trkpt><trkpt lat="45.68101591404787" lon="8.49030845145867"><ele>289.0</ele><time>2026-04-06T09:36:40Z</time></trkpt><trkpt lat="45.68117890855174" lon="8.490411557781812"><ele>291.3333333333333</ele><time>2026-04-06T09:36:41Z</time></trkpt><trkpt lat="45.68135152319564" lon="8.490508513347882"><ele>293.6666666666667</ele><time>2026-04-06T09:36:42Z</time></trkpt><trkpt lat="45.68152500108264" lon="8.490601369958714"><ele>296.0</ele><time>2026-04-06T09:36:43Z</time></trkpt><trkpt lat="45.681696851757934" lon="8.490684097011364"><ele>296.0</ele><time>2026-04-06T09:36:44Z</time></trkpt><trkpt lat="45.68187591580498" lon="8.490758678899782"><ele>296.0</ele><time>2026-04-06T09:36:45Z</time></trkpt><trkpt lat="45.68206048878023" lon="8.490830866075644"><ele>296.0</ele><time>2026-04-06T09:36:46Z</time></trkpt><trkpt lat="45.68225013022306" lon="8.490894179354353"><ele>295.6666666666667</ele><time>2026-04-06T09:36:47Z</time></trkpt><trkpt lat="45.68244268786541" lon="8.490945023070555"><ele>295.3333333333333</ele><time>2026-04-06T09:36:48Z</time></trkpt><trkpt lat="45.68264188629558" lon="8.490984942720246"><ele>295.0</ele><time>2026-04-06T09:36:49Z</time></trkpt><trkpt lat="45.68284203290536" lon="8.49101041356"><ele>295.0</ele><time>2026-04-06T09:36:50Z</time></trkpt><trkpt lat="45.683035701285" lon="8.491027774156318"><ele>295.0</ele><time>2026-04-06T09:36:51Z</time></trkpt><trkpt lat="45.683227959644945" lon="8.49103328377746"><ele>295.0</ele><time>2026-04-06T09:36:52Z</time></trkpt><trkpt lat="45.68342338971743" lon="8.491030843641253"><ele>294.0</ele><time>2026-04-06T09:36:53Z</time></trkpt><trkpt lat="45.68361988225029" lon="8.491019433071688"><ele>293.0</ele><time>2026-04-06T09:36:54Z</time></trkpt><trkpt lat="45.683810664223884" lon="8.490999186822275"><ele>292.0</ele><time>2026-04-06T09:36:55Z</time></trkpt><trkpt lat="45.68400181366484" lon="8.49096956645494"><ele>292.0</ele><time>2026-04-06T09:36:56Z</time></trkpt><trkpt lat="45.684194774717184" lon="8.490929150996589"><ele>292.0</ele><time>2026-04-06T09:36:57Z</time></trkpt><trkpt lat="45.68438395430625" lon="8.490879346906688"><ele>292.0</ele><time>2026-04-06T09:36:58Z</time></trkpt><trkpt lat="45.684571889276874" lon="8.490819540091753"><ele>293.3333333333333</ele><time>2026-04-06T09:36:59Z</time></trkpt><trkpt lat="45.68475240947183" lon="8.490753327824512"><ele>294.6666666666667</ele><time>2026-04-06T09:37:00Z</time></trkpt><trkpt lat="45.68493361440434" lon="8.490676265144984"><ele>296.0</ele><time>2026-04-06T09:37:01Z</time></trkpt><trkpt lat="45.68511159759044" lon="8.490587691671417"><ele>296.33333333333337</ele><time>2026-04-06T09:37:02Z</time></trkpt><trkpt lat="45.68528862273983" lon="8.490490846111776"><ele>296.6666666666667</ele><time>2026-04-06T09:37:03Z</time></trkpt><trkpt lat="45.68545983270601" lon="8.490385787390734"><ele>297.0</ele><time>2026-04-06T09:37:04Z</time></trkpt><trkpt lat="45.68563059104023" lon="8.490274566551959"><ele>297.0</ele><time>2026-04-06T09:37:05Z</time></trkpt><trkpt lat="45.685799606287155" lon="8.490157920893003"><ele>297.0</ele><time>2026-04-06T09:37:06Z</time></trkpt><trkpt lat="45.68597281714837" lon="8.490033016864045"><ele>297.0</ele><time>2026-04-06T09:37:07Z</time></trkpt><trkpt lat="45.686147998149956" lon="8.489899056142615"><ele>297.0</ele><time>2026-04-06T09:37:08Z</time></trkpt><trkpt lat="45.68632831480455" lon="8.48976131841727"><ele>297.0</ele><time>2026-04-06T09:37:09Z</time></trkpt><trkpt lat="45.68651510038848" lon="8.489621851776015"><ele>297.0</ele><time>2026-04-06T09:37:10Z</time></trkpt><trkpt lat="45.68670322742754" lon="8.48947700378993"><ele>297.3333333333333</ele><time>2026-04-06T09:37:11Z</time></trkpt><trkpt lat="45.6868918134417" lon="8.489330487100583"><ele>297.66666666666663</ele><time>2026-04-06T09:37:12Z</time></trkpt><trkpt lat="45.687081809599235" lon="8.489183890361964"><ele>298.0</ele><time>2026-04-06T09:37:13Z</time></trkpt><trkpt lat="45.68727201287807" lon="8.489038021941012"><ele>298.3333333333333</ele><time>2026-04-06T09:37:14Z</time></trkpt><trkpt lat="45.68745837920554" lon="8.488893719394328"><ele>298.6666666666667</ele><time>2026-04-06T09:37:15Z</time></trkpt><trkpt lat="45.687643545586404" lon="8.488749671359056"><ele>299.0</ele><time>2026-04-06T09:37:16Z</time></trkpt><trkpt lat="45.68782750004631" lon="8.488606088286714"><ele>299.0</ele><time>2026-04-06T09:37:17Z</time></trkpt><trkpt lat="45.68800351147763" lon="8.488466949015564"><ele>299.0</ele><time>2026-04-06T09:37:18Z</time></trkpt><trkpt lat="45.688168825737286" lon="8.488338537836388"><ele>299.0</ele><time>2026-04-06T09:37:19Z</time></trkpt><trkpt lat="45.688330032583416" lon="8.488217442377799"><ele>299.0</ele><time>2026-04-06T09:37:20Z</time></trkpt><trkpt lat="45.68849594323458" lon="8.488091863559303"><ele>299.0</ele><time>2026-04-06T09:37:21Z</time></trkpt><trkpt lat="45.688665366306935" lon="8.487964157720667"><ele>299.0</ele><time>2026-04-06T09:37:22Z</time></trkpt><trkpt lat="45.688834483689746" lon="8.48783560974057"><ele>298.6666666666667</ele><time>2026-04-06T09:37:23Z</time></trkpt><trkpt lat="45.68900559244649" lon="8.487702076638877"><ele>298.3333333333333</ele><time>2026-04-06T09:37:24Z</time></trkpt><trkpt lat="45.68917939864396" lon="8.487566613844445"><ele>298.0</ele><time>2026-04-06T09:37:25Z</time></trkpt><trkpt lat="45.68935576675508" lon="8.48742932297587"><ele>298.66666666666663</ele><time>2026-04-06T09:37:26Z</time></trkpt><trkpt lat="45.68953448637117" lon="8.487290886087575"><ele>299.3333333333333</ele><time>2026-04-06T09:37:27Z</time></trkpt><trkpt lat="45.68971595741085" lon="8.487152625297"><ele>300.0</ele><time>2026-04-06T09:37:28Z</time></trkpt><trkpt lat="45.68989865871056" lon="8.48701301550614"><ele>300.0</ele><time>2026-04-06T09:37:29Z</time></trkpt><trkpt lat="45.690083864274925" lon="8.486872027923573"><ele>300.0</ele><time>2026-04-06T09:37:30Z</time></trkpt><trkpt lat="45.69027151551634" lon="8.48672804509763"><ele>300.0</ele><time>2026-04-06T09:37:31Z</time></trkpt><trkpt lat="45.690457798487394" lon="8.486583852717965"><ele>299.6666666666667</ele><time>2026-04-06T09:37:32Z</time></trkpt><trkpt lat="45.69063855909174" lon="8.486443429209453"><ele>299.33333333333337</ele><time>2026-04-06T09:37:33Z</time></trkpt><trkpt lat="45.6908165065219" lon="8.48630758335247"><ele>299.0</ele><time>2026-04-06T09:37:34Z</time></trkpt><trkpt lat="45.690992363617454" lon="8.486171233634247"><ele>299.6666666666667</ele><time>2026-04-06T09:37:35Z</time></trkpt><trkpt lat="45.69117137253641" lon="8.486030842287079"><ele>300.3333333333333</ele><time>2026-04-06T09:37:36Z</time></trkpt><trkpt lat="45.6913550255454" lon="8.48588802743804"><ele>301.0</ele><time>2026-04-06T09:37:37Z</time></trkpt><trkpt lat="45.691539630468" lon="8.485744397141392"><ele>301.0</ele><time>2026-04-06T09:37:38Z</time></trkpt><trkpt lat="45.691723780391925" lon="8.485603820054939"><ele>301.0</ele><time>2026-04-06T09:37:39Z</time></trkpt><trkpt lat="45.6919079117768" lon="8.485463325397381"><ele>301.0</ele><time>2026-04-06T09:37:40Z</time></trkpt><trkpt lat="45.69208972664866" lon="8.485324358729756"><ele>301.66666666666663</ele><time>2026-04-06T09:37:41Z</time></trkpt><trkpt lat="45.69227442285452" lon="8.485182236583862"><ele>302.3333333333333</ele><time>2026-04-06T09:37:42Z</time></trkpt><trkpt lat="45.69246094675304" lon="8.485038977402672"><ele>303.0</ele><time>2026-04-06T09:37:43Z</time></trkpt><trkpt lat="45.69264558642282" lon="8.484896969458237"><ele>303.3333333333333</ele><time>2026-04-06T09:37:44Z</time></trkpt><trkpt lat="45.69282747666046" lon="8.48475463274494"><ele>303.66666666666663</ele><time>2026-04-06T09:37:45Z</time></trkpt><trkpt lat="45.69300599475706" lon="8.484615981692311"><ele>304.0</ele><time>2026-04-06T09:37:46Z</time></trkpt><trkpt lat="45.693181033466885" lon="8.484480622429762"><ele>304.0</ele><time>2026-04-06T09:37:47Z</time></trkpt><trkpt lat="45.69335468281142" lon="8.484346521249954"><ele>304.0</ele><time>2026-04-06T09:37:48Z</time></trkpt><trkpt lat="45.693532729908135" lon="8.484210963571194"><ele>304.0</ele><time>2026-04-06T09:37:49Z</time></trkpt><trkpt lat="45.69371143595527" lon="8.484074779984129"><ele>303.66666666666663</ele><time>2026-04-06T09:37:50Z</time></trkpt><trkpt lat="45.69389184336244" lon="8.483935795055087"><ele>303.3333333333333</ele><time>2026-04-06T09:37:51Z</time></trkpt><trkpt lat="45.69406791360316" lon="8.483799083035983"><ele>303.0</ele><time>2026-04-06T09:37:52Z</time></trkpt><trkpt lat="45.69424014270414" lon="8.483666041776406"><ele>302.6666666666667</ele><time>2026-04-06T09:37:53Z</time></trkpt><trkpt lat="45.6944047590122" lon="8.483540598570855"><ele>302.33333333333337</ele><time>2026-04-06T09:37:54Z</time></trkpt><trkpt lat="45.69456589948811" lon="8.4834221586916"><ele>302.0</ele><time>2026-04-06T09:37:55Z</time></trkpt><trkpt lat="45.69473167340432" lon="8.483303456396388"><ele>302.6666666666667</ele><time>2026-04-06T09:37:56Z</time></trkpt><trkpt lat="45.694894436430005" lon="8.483189884412987"><ele>303.3333333333333</ele><time>2026-04-06T09:37:57Z</time></trkpt><trkpt lat="45.69505259726642" lon="8.48307883123817"><ele>304.0</ele><time>2026-04-06T09:37:58Z</time></trkpt><trkpt lat="45.69520807647986" lon="8.48296899996734"><ele>304.0</ele><time>2026-04-06T09:37:59Z</time></trkpt><trkpt lat="45.695363560216165" lon="8.482863804123436"><ele>304.0</ele><time>2026-04-06T09:38:00Z</time></trkpt><trkpt lat="45.69551827525697" lon="8.482764287075597"><ele>304.0</ele><time>2026-04-06T09:38:01Z</time></trkpt><trkpt lat="45.69566985375192" lon="8.482666715470794"><ele>304.0</ele><time>2026-04-06T09:38:02Z</time></trkpt><trkpt lat="45.69582730371738" lon="8.482572449959832"><ele>304.0</ele><time>2026-04-06T09:38:03Z</time></trkpt><trkpt lat="45.69599038514744" lon="8.482475971871112"><ele>304.0</ele><time>2026-04-06T09:38:04Z</time></trkpt><trkpt lat="45.696155893395265" lon="8.482377155261725"><ele>304.3333333333333</ele><time>2026-04-06T09:38:05Z</time></trkpt><trkpt lat="45.69632510857187" lon="8.482279650404042"><ele>304.6666666666667</ele><time>2026-04-06T09:38:06Z</time></trkpt><trkpt lat="45.69649694557214" lon="8.48218582623478"><ele>305.0</ele><time>2026-04-06T09:38:07Z</time></trkpt><trkpt lat="45.696663438884016" lon="8.482097632008607"><ele>305.0</ele><time>2026-04-06T09:38:08Z</time></trkpt><trkpt lat="45.69683268855608" lon="8.482011394964463"><ele>305.0</ele><time>2026-04-06T09:38:09Z</time></trkpt><trkpt lat="45.69700154458295" lon="8.48192901615669"><ele>305.0</ele><time>2026-04-06T09:38:10Z</time></trkpt><trkpt lat="45.69717330319537" lon="8.481848201882439"><ele>306.0</ele><time>2026-04-06T09:38:11Z</time></trkpt><trkpt lat="45.69734316866944" lon="8.481768844777424"><ele>307.0</ele><time>2026-04-06T09:38:12Z</time></trkpt><trkpt lat="45.69751155197954" lon="8.481688828786494"><ele>308.0</ele><time>2026-04-06T09:38:13Z</time></trkpt><trkpt lat="45.697679402759285" lon="8.48161709688504"><ele>309.0</ele><time>2026-04-06T09:38:14Z</time></trkpt><trkpt lat="45.69784397308811" lon="8.48154524502317"><ele>310.0</ele><time>2026-04-06T09:38:15Z</time></trkpt><trkpt lat="45.698006570364015" lon="8.481477025621176"><ele>311.0</ele><time>2026-04-06T09:38:16Z</time></trkpt><trkpt lat="45.69816871514235" lon="8.481412430284276"><ele>311.0</ele><time>2026-04-06T09:38:17Z</time></trkpt><trkpt lat="45.698335667914655" lon="8.481355702951127"><ele>311.0</ele><time>2026-04-06T09:38:18Z</time></trkpt><trkpt lat="45.698503368010606" lon="8.48129553410516"><ele>311.0</ele><time>2026-04-06T09:38:19Z</time></trkpt><trkpt lat="45.69867493485896" lon="8.48124261775595"><ele>311.0</ele><time>2026-04-06T09:38:20Z</time></trkpt><trkpt lat="45.698848655389696" lon="8.481182621313172"><ele>311.0</ele><time>2026-04-06T09:38:21Z</time></trkpt><trkpt lat="45.69902069227075" lon="8.481119824700107"><ele>311.0</ele><time>2026-04-06T09:38:22Z</time></trkpt><trkpt lat="45.69919025049805" lon="8.48105943963482"><ele>311.0</ele><time>2026-04-06T09:38:23Z</time></trkpt><trkpt lat="45.69935980558484" lon="8.481005208547188"><ele>311.0</ele><time>2026-04-06T09:38:24Z</time></trkpt><trkpt lat="45.6995279264598" lon="8.480948884493612"><ele>311.0</ele><time>2026-04-06T09:38:25Z</time></trkpt><trkpt lat="45.69969607535922" lon="8.480897963910895"><ele>311.33333333333337</ele><time>2026-04-06T09:38:26Z</time></trkpt><trkpt lat="45.69985330373103" lon="8.480851322222453"><ele>311.6666666666667</ele><time>2026-04-06T09:38:27Z</time></trkpt><trkpt lat="45.70000080156172" lon="8.480802927173043"><ele>312.0</ele><time>2026-04-06T09:38:28Z</time></trkpt><trkpt lat="45.7001416169507" lon="8.480757157554544"><ele>311.75</ele><time>2026-04-06T09:38:29Z</time></trkpt><trkpt lat="45.700276851549006" lon="8.480712944748898"><ele>311.5</ele><time>2026-04-06T09:38:30Z</time></trkpt><trkpt lat="45.70041105336147" lon="8.480672362455039"><ele>311.25</ele><time>2026-04-06T09:38:31Z</time></trkpt><trkpt lat="45.70054513295407" lon="8.480635441110213"><ele>311.0</ele><time>2026-04-06T09:38:32Z</time></trkpt><trkpt lat="45.700670194329255" lon="8.480605445105265"><ele>311.0</ele><time>2026-04-06T09:38:33Z</time></trkpt><trkpt lat="45.70079760453301" lon="8.48056983729637"><ele>311.0</ele><time>2026-04-06T09:38:34Z</time></trkpt><trkpt lat="45.700932931088914" lon="8.480531750240441"><ele>311.0</ele><time>2026-04-06T09:38:35Z</time></trkpt><trkpt lat="45.70107365676643" lon="8.480492755161341"><ele>311.0</ele><time>2026-04-06T09:38:36Z</time></trkpt><trkpt lat="45.7012211309451" lon="8.480453895759515"><ele>311.0</ele><time>2026-04-06T09:38:37Z</time></trkpt><trkpt lat="45.70137257913412" lon="8.480416636900793"><ele>311.0</ele><time>2026-04-06T09:38:38Z</time></trkpt><trkpt lat="45.70150918325294" lon="8.480348146525847"><ele>311.0</ele><time>2026-04-06T09:38:39Z</time></trkpt><trkpt lat="45.70165232977117" lon="8.480371842772232"><ele>311.0</ele><time>2026-04-06T09:38:40Z</time></trkpt><trkpt lat="45.70177900260322" lon="8.480346728774563"><ele>311.0</ele><time>2026-04-06T09:38:41Z</time></trkpt><trkpt lat="45.70190526684371" lon="8.480322007672733"><ele>311.0</ele><time>2026-04-06T09:38:42Z</time></trkpt><trkpt lat="45.70203833699724" lon="8.480296858963209"><ele>311.0</ele><time>2026-04-06T09:38:43Z</time></trkpt><trkpt lat="45.70217751723212" lon="8.480268264799292"><ele>311.0</ele><time>2026-04-06T09:38:44Z</time></trkpt><trkpt lat="45.70232629033065" lon="8.48023850508215"><ele>311.25</ele><time>2026-04-06T09:38:45Z</time></trkpt><trkpt lat="45.70248062275746" lon="8.480205399030218"><ele>311.5</ele><time>2026-04-06T09:38:46Z</time></trkpt><trkpt lat="45.70262270094165" lon="8.480182310937376"><ele>311.75</ele><time>2026-04-06T09:38:47Z</time></trkpt><trkpt lat="45.70275674480222" lon="8.480183251939836"><ele>312.0</ele><time>2026-04-06T09:38:48Z</time></trkpt><trkpt lat="45.70287872561684" lon="8.48023055165907"><ele>312.25</ele><time>2026-04-06T09:38:49Z</time></trkpt><trkpt lat="45.702989241461324" lon="8.480317779720663"><ele>312.5</ele><time>2026-04-06T09:38:50Z</time></trkpt><trkpt lat="45.703082906926" lon="8.480449659360804"><ele>312.75</ele><time>2026-04-06T09:38:51Z</time></trkpt><trkpt lat="45.70316161318039" lon="8.480614808417858"><ele>313.0</ele><time>2026-04-06T09:38:52Z</time></trkpt><trkpt lat="45.703219691321316" lon="8.480805767198778"><ele>313.0</ele><time>2026-04-06T09:38:53Z</time></trkpt><trkpt lat="45.70325602818058" lon="8.481023406246326"><ele>313.0</ele><time>2026-04-06T09:38:54Z</time></trkpt><trkpt lat="45.70328778086225" lon="8.48124775028382"><ele>313.0</ele><time>2026-04-06T09:38:55Z</time></trkpt><trkpt lat="45.70332444222319" lon="8.481466725476752"><ele>313.66666666666663</ele><time>2026-04-06T09:38:56Z</time></trkpt><trkpt lat="45.70338788502205" lon="8.481688372802063"><ele>314.3333333333333</ele><time>2026-04-06T09:38:57Z</time></trkpt><trkpt lat="45.70341399878932" lon="8.481947565970456"><ele>315.0</ele><time>2026-04-06T09:38:58Z</time></trkpt><trkpt lat="45.70346273731903" lon="8.482207459718678"><ele>316.3333333333333</ele><time>2026-04-06T09:38:59Z</time></trkpt><trkpt lat="45.70351087404353" lon="8.482476290527616"><ele>317.66666666666663</ele><time>2026-04-06T09:39:00Z</time></trkpt><trkpt lat="45.70355737682277" lon="8.482746599178927"><ele>319.0</ele><time>2026-04-06T09:39:01Z</time></trkpt><trkpt lat="45.70360766718536" lon="8.483023663171144"><ele>319.66666666666663</ele><time>2026-04-06T09:39:02Z</time></trkpt><trkpt lat="45.703669692109536" lon="8.483300440120367"><ele>320.3333333333333</ele><time>2026-04-06T09:39:03Z</time></trkpt><trkpt lat="45.70373416791167" lon="8.483562628916337"><ele>321.0</ele><time>2026-04-06T09:39:04Z</time></trkpt><trkpt lat="45.70379316704684" lon="8.483802981430934"><ele>319.6666666666667</ele><time>2026-04-06T09:39:05Z</time></trkpt><trkpt lat="45.70384696564323" lon="8.48403701062814"><ele>318.33333333333337</ele><time>2026-04-06T09:39:06Z</time></trkpt><trkpt lat="45.70389038277853" lon="8.48427462869706"><ele>317.0</ele><time>2026-04-06T09:39:07Z</time></trkpt><trkpt lat="45.703929582101274" lon="8.484516789825008"><ele>316.33333333333337</ele><time>2026-04-06T09:39:08Z</time></trkpt><trkpt lat="45.70397283589095" lon="8.48476825673996"><ele>315.6666666666667</ele><time>2026-04-06T09:39:09Z</time></trkpt><trkpt lat="45.70401555644001" lon="8.48502641002283"><ele>315.0</ele><time>2026-04-06T09:39:10Z</time></trkpt><trkpt lat="45.70405936604646" lon="8.485297682224187"><ele>315.6666666666667</ele><time>2026-04-06T09:39:11Z</time></trkpt><trkpt lat="45.704105721023595" lon="8.485573453782486"><ele>316.33333333333337</ele><time>2026-04-06T09:39:12Z</time></trkpt><trkpt lat="45.70414900147756" lon="8.485855501272287"><ele>317.0</ele><time>2026-04-06T09:39:13Z</time></trkpt><trkpt lat="45.704191150162075" lon="8.486140516019887"><ele>318.0</ele><time>2026-04-06T09:39:14Z</time></trkpt><trkpt lat="45.70423582909566" lon="8.486410212747176"><ele>319.0</ele><time>2026-04-06T09:39:15Z</time></trkpt><trkpt lat="45.70428066875925" lon="8.486667988954522"><ele>320.0</ele><time>2026-04-06T09:39:16Z</time></trkpt><trkpt lat="45.7043216891547" lon="8.486913941892437"><ele>320.0</ele><time>2026-04-06T09:39:17Z</time></trkpt><trkpt lat="45.70435983849103" lon="8.487156208045809"><ele>320.0</ele><time>2026-04-06T09:39:18Z</time></trkpt><trkpt lat="45.70439399095487" lon="8.487388074899236"><ele>320.0</ele><time>2026-04-06T09:39:19Z</time></trkpt><trkpt lat="45.704427539866984" lon="8.487618257033033"><ele>320.33333333333337</ele><time>2026-04-06T09:39:20Z</time></trkpt><trkpt lat="45.704463656858685" lon="8.487842800273517"><ele>320.6666666666667</ele><time>2026-04-06T09:39:21Z</time></trkpt><trkpt lat="45.70449964786055" lon="8.48807031085507"><ele>321.0</ele><time>2026-04-06T09:39:22Z</time></trkpt><trkpt lat="45.70453394027267" lon="8.48827656643185"><ele>321.75</ele><time>2026-04-06T09:39:23Z</time></trkpt><trkpt lat="45.704563790796534" lon="8.488469891163945"><ele>322.5</ele><time>2026-04-06T09:39:24Z</time></trkpt><trkpt lat="45.70459324861926" lon="8.488652683916719"><ele>323.25</ele><time>2026-04-06T09:39:25Z</time></trkpt><trkpt lat="45.704621728664186" lon="8.488831030106795"><ele>324.0</ele><time>2026-04-06T09:39:26Z</time></trkpt><trkpt lat="45.70465241125056" lon="8.489019998100435"><ele>324.25</ele><time>2026-04-06T09:39:27Z</time></trkpt><trkpt lat="45.704682372787985" lon="8.4891993224469"><ele>324.5</ele><time>2026-04-06T09:39:28Z</time></trkpt><trkpt lat="45.70470853918607" lon="8.489362756531564"><ele>324.75</ele><time>2026-04-06T09:39:29Z</time></trkpt><trkpt lat="45.704736579025116" lon="8.489530244637184"><ele>325.0</ele><time>2026-04-06T09:39:30Z</time></trkpt><trkpt lat="45.70476585837714" lon="8.489698105107971"><ele>325.0</ele><time>2026-04-06T09:39:31Z</time></trkpt><trkpt lat="45.704791543075196" lon="8.489859352039945"><ele>325.0</ele><time>2026-04-06T09:39:32Z</time></trkpt><trkpt lat="45.70481639897018" lon="8.490028209618101"><ele>325.0</ele><time>2026-04-06T09:39:33Z</time></trkpt><trkpt lat="45.704840706263845" lon="8.490203432688974"><ele>325.0</ele><time>2026-04-06T09:39:34Z</time></trkpt><trkpt lat="45.70486937359914" lon="8.490378904128107"><ele>325.25</ele><time>2026-04-06T09:39:35Z</time></trkpt><trkpt lat="45.70489868705544" lon="8.49055047779326"><ele>325.5</ele><time>2026-04-06T09:39:36Z</time></trkpt><trkpt lat="45.70492694492956" lon="8.490717314253974"><ele>325.75</ele><time>2026-04-06T09:39:37Z</time></trkpt><trkpt lat="45.70495580627368" lon="8.490886439889252"><ele>326.0</ele><time>2026-04-06T09:39:38Z</time></trkpt><trkpt lat="45.704984810693766" lon="8.49105449955853"><ele>326.0</ele><time>2026-04-06T09:39:39Z</time></trkpt><trkpt lat="45.70501177108414" lon="8.491219120794904"><ele>326.0</ele><time>2026-04-06T09:39:40Z</time></trkpt><trkpt lat="45.70503839494101" lon="8.491393091484861"><ele>326.0</ele><time>2026-04-06T09:39:41Z</time></trkpt><trkpt lat="45.705065719446196" lon="8.491572702396255"><ele>326.0</ele><time>2026-04-06T09:39:42Z</time></trkpt><trkpt lat="45.70509441992329" lon="8.49175592622637"><ele>327.0</ele><time>2026-04-06T09:39:43Z</time></trkpt><trkpt lat="45.705124943869265" lon="8.491944026905273"><ele>328.0</ele><time>2026-04-06T09:39:44Z</time></trkpt><trkpt lat="45.70515552986413" lon="8.49213755057081"><ele>329.0</ele><time>2026-04-06T09:39:45Z</time></trkpt><trkpt lat="45.7051869468037" lon="8.492337281551183"><ele>330.0</ele><time>2026-04-06T09:39:46Z</time></trkpt><trkpt lat="45.70521689469012" lon="8.492534932107075"><ele>330.75</ele><time>2026-04-06T09:39:47Z</time></trkpt><trkpt lat="45.70524237583747" lon="8.492703291676541"><ele>331.5</ele><time>2026-04-06T09:39:48Z</time></trkpt><trkpt lat="45.7052713858998" lon="8.49286071139778"><ele>332.25</ele><time>2026-04-06T09:39:49Z</time></trkpt><trkpt lat="45.705299848585696" lon="8.493017093513593"><ele>333.0</ele><time>2026-04-06T09:39:50Z</time></trkpt><trkpt lat="45.70532633501549" lon="8.493183942114007"><ele>334.0</ele><time>2026-04-06T09:39:51Z</time></trkpt><trkpt lat="45.705362163902784" lon="8.493347579969594"><ele>335.0</ele><time>2026-04-06T09:39:52Z</time></trkpt><trkpt lat="45.70540862343185" lon="8.493507460259623"><ele>336.0</ele><time>2026-04-06T09:39:53Z</time></trkpt><trkpt lat="45.705462622171126" lon="8.49366020891222"><ele>337.0</ele><time>2026-04-06T09:39:54Z</time></trkpt><trkpt lat="45.70552236515293" lon="8.493807477529579"><ele>338.75</ele><time>2026-04-06T09:39:55Z</time></trkpt><trkpt lat="45.705584813709415" lon="8.493951505515872"><ele>340.5</ele><time>2026-04-06T09:39:56Z</time></trkpt><trkpt lat="45.705654639662335" lon="8.494086927018255"><ele>342.25</ele><time>2026-04-06T09:39:57Z</time></trkpt><trkpt lat="45.70573143129462" lon="8.494213953084808"><ele>344.0</ele><time>2026-04-06T09:39:58Z</time></trkpt><trkpt lat="45.70581294794917" lon="8.494334963143853"><ele>344.0</ele><time>2026-04-06T09:39:59Z</time></trkpt><trkpt lat="45.70589710468526" lon="8.494453220086342"><ele>344.0</ele><time>2026-04-06T09:40:00Z</time></trkpt><trkpt lat="45.70598810049918" lon="8.494569779207414"><ele>344.0</ele><time>2026-04-06T09:40:01Z</time></trkpt><trkpt lat="45.706084028495034" lon="8.494686562490593"><ele>344.0</ele><time>2026-04-06T09:40:02Z</time></trkpt><trkpt lat="45.706178730723146" lon="8.49481050206831"><ele>344.75</ele><time>2026-04-06T09:40:03Z</time></trkpt><trkpt lat="45.70626791157687" lon="8.494937041126493"><ele>345.5</ele><time>2026-04-06T09:40:04Z</time></trkpt><trkpt lat="45.706342671036126" lon="8.495058674446318"><ele>346.25</ele><time>2026-04-06T09:40:05Z</time></trkpt><trkpt lat="45.70639977866196" lon="8.495191483892517"><ele>347.0</ele><time>2026-04-06T09:40:06Z</time></trkpt><trkpt lat="45.706443427253085" lon="8.495327753860504"><ele>347.40000000000003</ele><time>2026-04-06T09:40:07Z</time></trkpt><trkpt lat="45.7064734018405" lon="8.4954700775334"><ele>347.8</ele><time>2026-04-06T09:40:08Z</time></trkpt><trkpt lat="45.70649072424406" lon="8.495614457041992"><ele>348.2</ele><time>2026-04-06T09:40:09Z</time></trkpt><trkpt lat="45.706502326262694" lon="8.495757379024413"><ele>348.6</ele><time>2026-04-06T09:40:10Z</time></trkpt><trkpt lat="45.706512980245705" lon="8.49590227271193"><ele>349.0</ele><time>2026-04-06T09:40:11Z</time></trkpt><trkpt lat="45.70652703813039" lon="8.496053209884328"><ele>349.0</ele><time>2026-04-06T09:40:12Z</time></trkpt><trkpt lat="45.70654157051687" lon="8.496199205290152"><ele>349.0</ele><time>2026-04-06T09:40:13Z</time></trkpt><trkpt lat="45.70656193695991" lon="8.496350416412364"><ele>349.0</ele><time>2026-04-06T09:40:14Z</time></trkpt><trkpt lat="45.706598150297026" lon="8.496516375953878"><ele>349.0</ele><time>2026-04-06T09:40:15Z</time></trkpt><trkpt lat="45.70664706946973" lon="8.496665040279522"><ele>349.0</ele><time>2026-04-06T09:40:16Z</time></trkpt><trkpt lat="45.706711802826504" lon="8.496813490407279"><ele>349.0</ele><time>2026-04-06T09:40:17Z</time></trkpt><trkpt lat="45.70678970959468" lon="8.496964709675236"><ele>349.0</ele><time>2026-04-06T09:40:18Z</time></trkpt><trkpt lat="45.70687682623172" lon="8.497102822969046"><ele>349.0</ele><time>2026-04-06T09:40:19Z</time></trkpt><trkpt lat="45.7069634657178" lon="8.497233737417167"><ele>349.0</ele><time>2026-04-06T09:40:20Z</time></trkpt><trkpt lat="45.707046161301434" lon="8.497360943066367"><ele>348.79999999999995</ele><time>2026-04-06T09:40:21Z</time></trkpt><trkpt lat="45.70712230248361" lon="8.497485054703779"><ele>348.59999999999997</ele><time>2026-04-06T09:40:22Z</time></trkpt><trkpt lat="45.707192513517064" lon="8.497603587744267"><ele>348.4</ele><time>2026-04-06T09:40:23Z</time></trkpt><trkpt lat="45.70725924212555" lon="8.497719343265523"><ele>348.2</ele><time>2026-04-06T09:40:24Z</time></trkpt><trkpt lat="45.70732833485124" lon="8.497846307321668"><ele>348.0</ele><time>2026-04-06T09:40:25Z</time></trkpt><trkpt lat="45.70740021130938" lon="8.497985405728711"><ele>348.0</ele><time>2026-04-06T09:40:26Z</time></trkpt><trkpt lat="45.70746301714074" lon="8.49812624385686"><ele>348.0</ele><time>2026-04-06T09:40:27Z</time></trkpt><trkpt lat="45.70751824713299" lon="8.498264590245634"><ele>348.0</ele><time>2026-04-06T09:40:28Z</time></trkpt><trkpt lat="45.70756919748715" lon="8.498404260615123"><ele>348.0</ele><time>2026-04-06T09:40:29Z</time></trkpt><trkpt lat="45.707619463471296" lon="8.498552016790219"><ele>348.0</ele><time>2026-04-06T09:40:30Z</time></trkpt><trkpt lat="45.70766500636471" lon="8.498695218890743"><ele>348.0</ele><time>2026-04-06T09:40:31Z</time></trkpt><trkpt lat="45.707711892850895" lon="8.498833452080289"><ele>348.0</ele><time>2026-04-06T09:40:32Z</time></trkpt><trkpt lat="45.70776150645657" lon="8.49897865130677"><ele>348.0</ele><time>2026-04-06T09:40:33Z</time></trkpt><trkpt lat="45.70781574113071" lon="8.499138495323821"><ele>348.0</ele><time>2026-04-06T09:40:34Z</time></trkpt><trkpt lat="45.70787737005077" lon="8.499311883507225"><ele>348.0</ele><time>2026-04-06T09:40:35Z</time></trkpt><trkpt lat="45.70794124741802" lon="8.499497205752258"><ele>348.0</ele><time>2026-04-06T09:40:36Z</time></trkpt><trkpt lat="45.70800341117044" lon="8.49968335277589"><ele>348.0</ele><time>2026-04-06T09:40:37Z</time></trkpt><trkpt lat="45.70805897312745" lon="8.49985892971474"><ele>349.0</ele><time>2026-04-06T09:40:38Z</time></trkpt><trkpt lat="45.708116597571596" lon="8.500034342911558"><ele>350.0</ele><time>2026-04-06T09:40:39Z</time></trkpt><trkpt lat="45.708177189057444" lon="8.500210121264626"><ele>351.0</ele><time>2026-04-06T09:40:40Z</time></trkpt><trkpt lat="45.70823797112995" lon="8.50038794501967"><ele>352.0</ele><time>2026-04-06T09:40:41Z</time></trkpt><trkpt lat="45.7083006815548" lon="8.500572569366854"><ele>352.75</ele><time>2026-04-06T09:40:42Z</time></trkpt><trkpt lat="45.70836578760362" lon="8.50076435581914"><ele>353.5</ele><time>2026-04-06T09:40:43Z</time></trkpt><trkpt lat="45.70843220795832" lon="8.500955110207967"><ele>354.25</ele><time>2026-04-06T09:40:44Z</time></trkpt><trkpt lat="45.70849898250701" lon="8.501148552357423"><ele>355.0</ele><time>2026-04-06T09:40:45Z</time></trkpt><trkpt lat="45.708566105724536" lon="8.501339622536333"><ele>355.5</ele><time>2026-04-06T09:40:46Z</time></trkpt><trkpt lat="45.70863240763633" lon="8.501532962524134"><ele>356.0</ele><time>2026-04-06T09:40:47Z</time></trkpt><trkpt lat="45.708696271185" lon="8.501722672917602"><ele>356.5</ele><time>2026-04-06T09:40:48Z</time></trkpt><trkpt lat="45.70875875987505" lon="8.50190830410191"><ele>357.0</ele><time>2026-04-06T09:40:49Z</time></trkpt><trkpt lat="45.708821370980814" lon="8.502094143335622"><ele>357.75</ele><time>2026-04-06T09:40:50Z</time></trkpt><trkpt lat="45.70888397938178" lon="8.502275168814935"><ele>358.5</ele><time>2026-04-06T09:40:51Z</time></trkpt><trkpt lat="45.70894335650016" lon="8.502449111275633"><ele>359.25</ele><time>2026-04-06T09:40:52Z</time></trkpt><trkpt lat="45.709001157368334" lon="8.50262186400648"><ele>360.0</ele><time>2026-04-06T09:40:53Z</time></trkpt><trkpt lat="45.7090589959977" lon="8.502793295895357"><ele>360.5</ele><time>2026-04-06T09:40:54Z</time></trkpt><trkpt lat="45.70912112551223" lon="8.502975256911515"><ele>361.0</ele><time>2026-04-06T09:40:55Z</time></trkpt><trkpt lat="45.709185702258544" lon="8.503163881390387"><ele>361.5</ele><time>2026-04-06T09:40:56Z</time></trkpt><trkpt lat="45.70925181962502" lon="8.503360732859809"><ele>362.0</ele><time>2026-04-06T09:40:57Z</time></trkpt><trkpt lat="45.70931567779906" lon="8.503549817785235"><ele>362.0</ele><time>2026-04-06T09:40:58Z</time></trkpt><trkpt lat="45.70937598989023" lon="8.503731611949028"><ele>362.0</ele><time>2026-04-06T09:40:59Z</time></trkpt><trkpt lat="45.70943678810027" lon="8.503910269588557"><ele>362.0</ele><time>2026-04-06T09:41:00Z</time></trkpt><trkpt lat="45.709493462643195" lon="8.504078870635068"><ele>362.0</ele><time>2026-04-06T09:41:01Z</time></trkpt><trkpt lat="45.709550147158815" lon="8.504249077709899"><ele>361.6666666666667</ele><time>2026-04-06T09:41:02Z</time></trkpt><trkpt lat="45.70961486946643" lon="8.5044359565981"><ele>361.3333333333333</ele><time>2026-04-06T09:41:03Z</time></trkpt><trkpt lat="45.70968382853776" lon="8.504633301103151"><ele>361.0</ele><time>2026-04-06T09:41:04Z</time></trkpt><trkpt lat="45.7097568119003" lon="8.50484226838968"><ele>362.3333333333333</ele><time>2026-04-06T09:41:05Z</time></trkpt><trkpt lat="45.709832039000446" lon="8.50506372408211"><ele>363.6666666666667</ele><time>2026-04-06T09:41:06Z</time></trkpt><trkpt lat="45.709909883079675" lon="8.50529480656031"><ele>365.0</ele><time>2026-04-06T09:41:07Z</time></trkpt><trkpt lat="45.70998390045977" lon="8.505515586324124"><ele>366.0</ele><time>2026-04-06T09:41:08Z</time></trkpt><trkpt lat="45.71005316080706" lon="8.505725482370975"><ele>367.0</ele><time>2026-04-06T09:41:09Z</time></trkpt><trkpt lat="45.71012026714799" lon="8.505944817088034"><ele>368.0</ele><time>2026-04-06T09:41:10Z</time></trkpt><trkpt lat="45.71018103064502" lon="8.506186802115849"><ele>369.33333333333337</ele><time>2026-04-06T09:41:11Z</time></trkpt><trkpt lat="45.71023002045166" lon="8.506419879715173"><ele>370.6666666666667</ele><time>2026-04-06T09:41:12Z</time></trkpt><trkpt lat="45.71026303667129" lon="8.506633752729863"><ele>372.0</ele><time>2026-04-06T09:41:13Z</time></trkpt><trkpt lat="45.71028453025579" lon="8.506831105829528"><ele>373.0</ele><time>2026-04-06T09:41:14Z</time></trkpt><trkpt lat="45.71029972553694" lon="8.507012084194008"><ele>374.0</ele><time>2026-04-06T09:41:15Z</time></trkpt><trkpt lat="45.71030577603227" lon="8.507178993091964"><ele>375.0</ele><time>2026-04-06T09:41:16Z</time></trkpt><trkpt lat="45.71030834580327" lon="8.507328428624664"><ele>376.0</ele><time>2026-04-06T09:41:17Z</time></trkpt><trkpt lat="45.71031020004586" lon="8.50746334934715"><ele>377.0</ele><time>2026-04-06T09:41:18Z</time></trkpt><trkpt lat="45.710309493868664" lon="8.507594600744728"><ele>377.20000000000005</ele><time>2026-04-06T09:41:19Z</time></trkpt><trkpt lat="45.710310630975" lon="8.507721735775238"><ele>377.4</ele><time>2026-04-06T09:41:20Z</time></trkpt><trkpt lat="45.71031019283765" lon="8.507854697345785"><ele>377.6</ele><time>2026-04-06T09:41:21Z</time></trkpt><trkpt lat="45.71031092167424" lon="8.507987942177568"><ele>377.79999999999995</ele><time>2026-04-06T09:41:22Z</time></trkpt><trkpt lat="45.710311379365315" lon="8.508119586916509"><ele>378.0</ele><time>2026-04-06T09:41:23Z</time></trkpt><trkpt lat="45.710311587918085" lon="8.508252479434907"><ele>377.59999999999997</ele><time>2026-04-06T09:41:24Z</time></trkpt><trkpt lat="45.710311858585776" lon="8.508383580746921"><ele>377.2</ele><time>2026-04-06T09:41:25Z</time></trkpt><trkpt lat="45.71030993527731" lon="8.50851335801435"><ele>376.8</ele><time>2026-04-06T09:41:26Z</time></trkpt><trkpt lat="45.71030868359768" lon="8.508642978546277"><ele>376.4</ele><time>2026-04-06T09:41:27Z</time></trkpt><trkpt lat="45.71030533525745" lon="8.50877010175912"><ele>376.0</ele><time>2026-04-06T09:41:28Z</time></trkpt><trkpt lat="45.710303000050125" lon="8.508898740987055"><ele>375.4</ele><time>2026-04-06T09:41:29Z</time></trkpt><trkpt lat="45.710301081855015" lon="8.50903059732008"><ele>374.8</ele><time>2026-04-06T09:41:30Z</time></trkpt><trkpt lat="45.71029755757571" lon="8.509168657685446"><ele>374.2</ele><time>2026-04-06T09:41:31Z</time></trkpt><trkpt lat="45.710290278127076" lon="8.50931062066558"><ele>373.59999999999997</ele><time>2026-04-06T09:41:32Z</time></trkpt><trkpt lat="45.710279945598465" lon="8.509463659712697"><ele>373.0</ele><time>2026-04-06T09:41:33Z</time></trkpt><trkpt lat="45.710262442862465" lon="8.509622629523648"><ele>370.75</ele><time>2026-04-06T09:41:34Z</time></trkpt><trkpt lat="45.71024123747024" lon="8.509781427059629"><ele>368.5</ele><time>2026-04-06T09:41:35Z</time></trkpt><trkpt lat="45.710218697336444" lon="8.509940639931521"><ele>366.25</ele><time>2026-04-06T09:41:36Z</time></trkpt><trkpt lat="45.710195105996775" lon="8.5100996801916"><ele>364.0</ele><time>2026-04-06T09:41:37Z</time></trkpt><trkpt lat="45.71017303031657" lon="8.510258117426668"><ele>363.75</ele><time>2026-04-06T09:41:38Z</time></trkpt><trkpt lat="45.71015026592109" lon="8.510418744228252"><ele>363.5</ele><time>2026-04-06T09:41:39Z</time></trkpt><trkpt lat="45.71012490427548" lon="8.510582380292824"><ele>363.25</ele><time>2026-04-06T09:41:40Z</time></trkpt><trkpt lat="45.71010120444969" lon="8.510745016449883"><ele>363.0</ele><time>2026-04-06T09:41:41Z</time></trkpt><trkpt lat="45.710076860297576" lon="8.510909568037269"><ele>363.0</ele><time>2026-04-06T09:41:42Z</time></trkpt><trkpt lat="45.71005234876152" lon="8.511081610211303"><ele>363.0</ele><time>2026-04-06T09:41:43Z</time></trkpt><trkpt lat="45.710028478179666" lon="8.511251731406634"><ele>363.0</ele><time>2026-04-06T09:41:44Z</time></trkpt><trkpt lat="45.7100042142008" lon="8.51141478179453"><ele>363.0</ele><time>2026-04-06T09:41:45Z</time></trkpt><trkpt lat="45.70997980499671" lon="8.511575956223897"><ele>363.0</ele><time>2026-04-06T09:41:46Z</time></trkpt><trkpt lat="45.70995458610269" lon="8.511739112627582"><ele>363.0</ele><time>2026-04-06T09:41:47Z</time></trkpt><trkpt lat="45.70992862159183" lon="8.511899838105561"><ele>363.0</ele><time>2026-04-06T09:41:48Z</time></trkpt><trkpt lat="45.70990278460803" lon="8.512060132237542"><ele>363.0</ele><time>2026-04-06T09:41:49Z</time></trkpt><trkpt lat="45.70987719299236" lon="8.512219878923512"><ele>362.59999999999997</ele><time>2026-04-06T09:41:50Z</time></trkpt><trkpt lat="45.70985339476909" lon="8.512372244841016"><ele>362.2</ele><time>2026-04-06T09:41:51Z</time></trkpt><trkpt lat="45.70983094850387" lon="8.512518182828988"><ele>361.8</ele><time>2026-04-06T09:41:52Z</time></trkpt><trkpt lat="45.70981217738362" lon="8.512645794718692"><ele>361.4</ele><time>2026-04-06T09:41:53Z</time></trkpt><trkpt lat="45.70979740354881" lon="8.512752845726991"><ele>361.0</ele><time>2026-04-06T09:41:54Z</time></trkpt><trkpt lat="45.70977833712428" lon="8.51289144669094"><ele>361.20000000000005</ele><time>2026-04-06T09:41:56Z</time></trkpt><trkpt lat="45.70977150484104" lon="8.51300629901672"><ele>361.40000000000003</ele><time>2026-04-06T09:41:59Z</time></trkpt><trkpt lat="45.70988656793991" lon="8.513157408301304"><ele>361.6</ele><time>2026-04-06T09:42:02Z</time></trkpt><trkpt lat="45.7099474604474" lon="8.513194003930808"><ele>361.8</ele><time>2026-04-06T09:42:03Z</time></trkpt><trkpt lat="45.710017747967285" lon="8.513226417599308"><ele>362.0</ele><time>2026-04-06T09:42:04Z</time></trkpt><trkpt lat="45.71009789108896" lon="8.513261026192602"><ele>362.0</ele><time>2026-04-06T09:42:05Z</time></trkpt><trkpt lat="45.71017919198801" lon="8.513292283315849"><ele>362.0</ele><time>2026-04-06T09:42:06Z</time></trkpt><trkpt lat="45.71026284937598" lon="8.513322221891258"><ele>362.0</ele><time>2026-04-06T09:42:07Z</time></trkpt><trkpt lat="45.7103483454409" lon="8.513350393146908"><ele>362.0</ele><time>2026-04-06T09:42:08Z</time></trkpt><trkpt lat="45.7104355279824" lon="8.513373036629929"><ele>362.0</ele><time>2026-04-06T09:42:09Z</time></trkpt><trkpt lat="45.710524354442434" lon="8.513376649509285"><ele>362.0</ele><time>2026-04-06T09:42:10Z</time></trkpt><trkpt lat="45.71060342257309" lon="8.513346212086274"><ele>362.0</ele><time>2026-04-06T09:42:11Z</time></trkpt><trkpt lat="45.710681363135315" lon="8.513264440578908"><ele>362.0</ele><time>2026-04-06T09:42:12Z</time></trkpt><trkpt lat="45.710756517011724" lon="8.513152177912911"><ele>362.0</ele><time>2026-04-06T09:42:13Z</time></trkpt><trkpt lat="45.71083011253239" lon="8.513006278911218"><ele>362.0</ele><time>2026-04-06T09:42:14Z</time></trkpt><trkpt lat="45.71090932572495" lon="8.512863063047613"><ele>362.0</ele><time>2026-04-06T09:42:15Z</time></trkpt><trkpt lat="45.71100680440337" lon="8.51273077508148"><ele>362.0</ele><time>2026-04-06T09:42:16Z</time></trkpt><trkpt lat="45.711125601705795" lon="8.512625679963929"><ele>362.0</ele><time>2026-04-06T09:42:17Z</time></trkpt><trkpt lat="45.71125236017026" lon="8.512567620591811"><ele>362.0</ele><time>2026-04-06T09:42:18Z</time></trkpt><trkpt lat="45.71139683526543" lon="8.512576438064505"><ele>362.0</ele><time>2026-04-06T09:42:19Z</time></trkpt><trkpt lat="45.711548928952894" lon="8.512592930930486"><ele>362.0</ele><time>2026-04-06T09:42:20Z</time></trkpt><trkpt lat="45.71170826462014" lon="8.512640699765402"><ele>362.0</ele><time>2026-04-06T09:42:21Z</time></trkpt><trkpt lat="45.71186698802637" lon="8.512730067419728"><ele>362.33333333333337</ele><time>2026-04-06T09:42:22Z</time></trkpt><trkpt lat="45.712007616763145" lon="8.512837039739368"><ele>362.6666666666667</ele><time>2026-04-06T09:42:23Z</time></trkpt><trkpt lat="45.71212951271347" lon="8.512979779200132"><ele>363.0</ele><time>2026-04-06T09:42:24Z</time></trkpt><trkpt lat="45.712233434072466" lon="8.513157217470042"><ele>363.0</ele><time>2026-04-06T09:42:25Z</time></trkpt><trkpt lat="45.712322073980914" lon="8.513357577101667"><ele>363.0</ele><time>2026-04-06T09:42:26Z</time></trkpt><trkpt lat="45.712399551789815" lon="8.513567069124475"><ele>363.0</ele><time>2026-04-06T09:42:27Z</time></trkpt><trkpt lat="45.71247667525093" lon="8.513761823799394"><ele>363.0</ele><time>2026-04-06T09:42:28Z</time></trkpt><trkpt lat="45.71254791635051" lon="8.513945896123694"><ele>363.0</ele><time>2026-04-06T09:42:29Z</time></trkpt><trkpt lat="45.71261308747838" lon="8.514120042246017"><ele>363.0</ele><time>2026-04-06T09:42:30Z</time></trkpt><trkpt lat="45.71266686663561" lon="8.514291791112665"><ele>363.0</ele><time>2026-04-06T09:42:31Z</time></trkpt><trkpt lat="45.71270317924301" lon="8.514463274224438"><ele>363.1666666666667</ele><time>2026-04-06T09:42:32Z</time></trkpt><trkpt lat="45.71272787726518" lon="8.514622604745831"><ele>363.3333333333333</ele><time>2026-04-06T09:42:33Z</time></trkpt><trkpt lat="45.71274123770321" lon="8.514758599774312"><ele>363.5</ele><time>2026-04-06T09:42:34Z</time></trkpt><trkpt lat="45.712749249679106" lon="8.514870162506163"><ele>363.66666666666663</ele><time>2026-04-06T09:42:35Z</time></trkpt><trkpt lat="45.712752406208764" lon="8.514975890219066"><ele>363.8333333333333</ele><time>2026-04-06T09:42:36Z</time></trkpt><trkpt lat="45.712751392173246" lon="8.515087581313997"><ele>364.0</ele><time>2026-04-06T09:42:37Z</time></trkpt><trkpt lat="45.71274510111017" lon="8.515212512182604"><ele>364.5</ele><time>2026-04-06T09:42:38Z</time></trkpt><trkpt lat="45.712733790257424" lon="8.51533022742417"><ele>365.0</ele><time>2026-04-06T09:42:39Z</time></trkpt><trkpt lat="45.71271622679967" lon="8.515450383602078"><ele>365.5</ele><time>2026-04-06T09:42:40Z</time></trkpt><trkpt lat="45.712694403067054" lon="8.515569876667092"><ele>366.0</ele><time>2026-04-06T09:42:41Z</time></trkpt><trkpt lat="45.71267194680029" lon="8.51567890695651"><ele>366.5</ele><time>2026-04-06T09:42:42Z</time></trkpt><trkpt lat="45.712648424527075" lon="8.515785293816752"><ele>367.0</ele><time>2026-04-06T09:42:43Z</time></trkpt><trkpt lat="45.712622104969284" lon="8.51588885616889"><ele>367.8</ele><time>2026-04-06T09:42:44Z</time></trkpt><trkpt lat="45.712589224141446" lon="8.51600001429123"><ele>368.6</ele><time>2026-04-06T09:42:45Z</time></trkpt><trkpt lat="45.7125494490604" lon="8.516121115696095"><ele>369.40000000000003</ele><time>2026-04-06T09:42:46Z</time></trkpt><trkpt lat="45.71249972352468" lon="8.516252819834527"><ele>370.20000000000005</ele><time>2026-04-06T09:42:47Z</time></trkpt><trkpt lat="45.712442896162514" lon="8.516400900331993"><ele>371.0</ele><time>2026-04-06T09:42:48Z</time></trkpt><trkpt lat="45.71239805979767" lon="8.516559374130667"><ele>371.6</ele><time>2026-04-06T09:42:49Z</time></trkpt><trkpt lat="45.71238771668525" lon="8.516704336717146"><ele>372.20000000000005</ele><time>2026-04-06T09:42:50Z</time></trkpt><trkpt lat="45.71240457052326" lon="8.516848797133354"><ele>372.79999999999995</ele><time>2026-04-06T09:42:51Z</time></trkpt><trkpt lat="45.712439723957274" lon="8.517000791531476"><ele>373.4</ele><time>2026-04-06T09:42:52Z</time></trkpt><trkpt lat="45.71249978222229" lon="8.517142731082476"><ele>374.0</ele><time>2026-04-06T09:42:53Z</time></trkpt><trkpt lat="45.71257808229601" lon="8.517256898519577"><ele>374.25</ele><time>2026-04-06T09:42:54Z</time></trkpt><trkpt lat="45.712682323829824" lon="8.517342874009154"><ele>374.5</ele><time>2026-04-06T09:42:55Z</time></trkpt><trkpt lat="45.712811036224764" lon="8.517422430729802"><ele>374.75</ele><time>2026-04-06T09:42:56Z</time></trkpt><trkpt lat="45.712951903579224" lon="8.517485134972999"><ele>375.0</ele><time>2026-04-06T09:42:57Z</time></trkpt><trkpt lat="45.71309945282695" lon="8.517534778639831"><ele>374.2</ele><time>2026-04-06T09:42:58Z</time></trkpt><trkpt lat="45.71322021728167" lon="8.517577878602404"><ele>373.4</ele><time>2026-04-06T09:42:59Z</time></trkpt><trkpt lat="45.71331901221394" lon="8.517625055893463"><ele>372.6</ele><time>2026-04-06T09:43:00Z</time></trkpt><trkpt lat="45.713392510217275" lon="8.517692707385924"><ele>371.8</ele><time>2026-04-06T09:43:01Z</time></trkpt><trkpt lat="45.71343914049952" lon="8.517781734871912"><ele>371.0</ele><time>2026-04-06T09:43:02Z</time></trkpt><trkpt lat="45.71346172691076" lon="8.517899064175888"><ele>370.75</ele><time>2026-04-06T09:43:03Z</time></trkpt><trkpt lat="45.71347397928628" lon="8.518026215750723"><ele>370.5</ele><time>2026-04-06T09:43:04Z</time></trkpt><trkpt lat="45.71348327780871" lon="8.518183492294074"><ele>370.25</ele><time>2026-04-06T09:43:05Z</time></trkpt><trkpt lat="45.7134989025487" lon="8.518371071074522"><ele>370.0</ele><time>2026-04-06T09:43:06Z</time></trkpt><trkpt lat="45.713518876003384" lon="8.518578171727551"><ele>369.25</ele><time>2026-04-06T09:43:07Z</time></trkpt><trkpt lat="45.71354458541682" lon="8.518790525674936"><ele>368.5</ele><time>2026-04-06T09:43:08Z</time></trkpt><trkpt lat="45.71357185246197" lon="8.5189967183455"><ele>367.75</ele><time>2026-04-06T09:43:09Z</time></trkpt><trkpt lat="45.71359909494348" lon="8.519198538048983"><ele>367.0</ele><time>2026-04-06T09:43:10Z</time></trkpt><trkpt lat="45.71362034306242" lon="8.519397044322142"><ele>365.75</ele><time>2026-04-06T09:43:11Z</time></trkpt><trkpt lat="45.71363709796101" lon="8.519588186136088"><ele>364.5</ele><time>2026-04-06T09:43:12Z</time></trkpt><trkpt lat="45.71364873668982" lon="8.519760021547377"><ele>363.25</ele><time>2026-04-06T09:43:13Z</time></trkpt><trkpt lat="45.71365631126035" lon="8.519912148312999"><ele>362.0</ele><time>2026-04-06T09:43:14Z</time></trkpt><trkpt lat="45.713664680321415" lon="8.520038328615696"><ele>362.0</ele><time>2026-04-06T09:43:15Z</time></trkpt><trkpt lat="45.7136781976642" lon="8.520153431372728"><ele>362.0</ele><time>2026-04-06T09:43:16Z</time></trkpt><trkpt lat="45.713709637476846" lon="8.520265636800117"><ele>362.0</ele><time>2026-04-06T09:43:17Z</time></trkpt><trkpt lat="45.71377221150531" lon="8.520352396613612"><ele>362.0</ele><time>2026-04-06T09:43:18Z</time></trkpt><trkpt lat="45.71385213841664" lon="8.520418696780874"><ele>362.0</ele><time>2026-04-06T09:43:19Z</time></trkpt><trkpt lat="45.71394618631675" lon="8.520483798631846"><ele>362.5</ele><time>2026-04-06T09:43:20Z</time></trkpt><trkpt lat="45.71404706303269" lon="8.52057671483546"><ele>363.0</ele><time>2026-04-06T09:43:21Z</time></trkpt><trkpt lat="45.71415336314656" lon="8.520698654506326"><ele>363.5</ele><time>2026-04-06T09:43:22Z</time></trkpt><trkpt lat="45.71425898557639" lon="8.520849555707018"><ele>364.0</ele><time>2026-04-06T09:43:23Z</time></trkpt><trkpt lat="45.71435561468756" lon="8.521015739533485"><ele>364.75</ele><time>2026-04-06T09:43:24Z</time></trkpt><trkpt lat="45.71444037145865" lon="8.521173747657398"><ele>365.5</ele><time>2026-04-06T09:43:25Z</time></trkpt><trkpt lat="45.7145147080166" lon="8.521335754188671"><ele>366.25</ele><time>2026-04-06T09:43:26Z</time></trkpt><trkpt lat="45.71457981315236" lon="8.52150805536796"><ele>367.0</ele><time>2026-04-06T09:43:27Z</time></trkpt><trkpt lat="45.71462878381223" lon="8.521684142959446"><ele>365.25</ele><time>2026-04-06T09:43:28Z</time></trkpt><trkpt lat="45.71466698440963" lon="8.521867348838995"><ele>363.5</ele><time>2026-04-06T09:43:29Z</time></trkpt><trkpt lat="45.714703098756736" lon="8.522051982762758"><ele>361.75</ele><time>2026-04-06T09:43:30Z</time></trkpt><trkpt lat="45.71474252245628" lon="8.52223907142074"><ele>360.0</ele><time>2026-04-06T09:43:31Z</time></trkpt><trkpt lat="45.71477954188412" lon="8.522429598585012"><ele>359.0</ele><time>2026-04-06T09:43:32Z</time></trkpt><trkpt lat="45.71481156774765" lon="8.522623494006654"><ele>358.0</ele><time>2026-04-06T09:43:33Z</time></trkpt><trkpt lat="45.714844947469686" lon="8.522814510667038"><ele>357.0</ele><time>2026-04-06T09:43:34Z</time></trkpt><trkpt lat="45.71488116173901" lon="8.523000177134984"><ele>356.0</ele><time>2026-04-06T09:43:35Z</time></trkpt><trkpt lat="45.71491424550009" lon="8.523179915299417"><ele>355.5</ele><time>2026-04-06T09:43:36Z</time></trkpt><trkpt lat="45.7149472958029" lon="8.523362880050295"><ele>355.0</ele><time>2026-04-06T09:43:37Z</time></trkpt><trkpt lat="45.714979156854234" lon="8.523546155247908"><ele>354.5</ele><time>2026-04-06T09:43:38Z</time></trkpt><trkpt lat="45.71501060766399" lon="8.523729792903238"><ele>354.0</ele><time>2026-04-06T09:43:39Z</time></trkpt><trkpt lat="45.71504293755129" lon="8.523916640924613"><ele>352.75</ele><time>2026-04-06T09:43:40Z</time></trkpt><trkpt lat="45.715073730315176" lon="8.524098038400323"><ele>351.5</ele><time>2026-04-06T09:43:41Z</time></trkpt><trkpt lat="45.71511595977423" lon="8.524264623385577"><ele>350.25</ele><time>2026-04-06T09:43:42Z</time></trkpt><trkpt lat="45.7151717310779" lon="8.52441336247536"><ele>349.0</ele><time>2026-04-06T09:43:43Z</time></trkpt><trkpt lat="45.71523617617947" lon="8.524547426903672"><ele>348.0</ele><time>2026-04-06T09:43:44Z</time></trkpt><trkpt lat="45.715305177683476" lon="8.524678191265364"><ele>347.0</ele><time>2026-04-06T09:43:45Z</time></trkpt><trkpt lat="45.715372191996956" lon="8.524796387740231"><ele>346.0</ele><time>2026-04-06T09:43:46Z</time></trkpt><trkpt lat="45.71543379238323" lon="8.524908212557223"><ele>345.0</ele><time>2026-04-06T09:43:47Z</time></trkpt><trkpt lat="45.71548846755261" lon="8.525009157819762"><ele>344.0</ele><time>2026-04-06T09:43:48Z</time></trkpt><trkpt lat="45.71553856167244" lon="8.525110579266574"><ele>344.0</ele><time>2026-04-06T09:43:49Z</time></trkpt><trkpt lat="45.715593905480326" lon="8.525211595648905"><ele>344.0</ele><time>2026-04-06T09:43:50Z</time></trkpt><trkpt lat="45.715650834998854" lon="8.525312400623818"><ele>344.0</ele><time>2026-04-06T09:43:51Z</time></trkpt><trkpt lat="45.71570658502986" lon="8.525415453959777"><ele>344.0</ele><time>2026-04-06T09:43:52Z</time></trkpt><trkpt lat="45.71576749437953" lon="8.52553726816145"><ele>344.0</ele><time>2026-04-06T09:43:53Z</time></trkpt><trkpt lat="45.71584773783519" lon="8.525690367381802"><ele>343.25</ele><time>2026-04-06T09:43:54Z</time></trkpt><trkpt lat="45.71594246391942" lon="8.525829603136797"><ele>342.5</ele><time>2026-04-06T09:43:55Z</time></trkpt><trkpt lat="45.71604895543012" lon="8.525917671046258"><ele>341.75</ele><time>2026-04-06T09:43:56Z</time></trkpt><trkpt lat="45.716170175039345" lon="8.525983807319268"><ele>341.0</ele><time>2026-04-06T09:43:57Z</time></trkpt><trkpt lat="45.71629857677424" lon="8.526049657257065"><ele>341.0</ele><time>2026-04-06T09:43:58Z</time></trkpt><trkpt lat="45.71643217090084" lon="8.526113803612446"><ele>341.0</ele><time>2026-04-06T09:43:59Z</time></trkpt><trkpt lat="45.716562221604846" lon="8.52617115503049"><ele>341.0</ele><time>2026-04-06T09:44:00Z</time></trkpt><trkpt lat="45.71669003129906" lon="8.526234239565241"><ele>341.0</ele><time>2026-04-06T09:44:01Z</time></trkpt><trkpt lat="45.716814405075915" lon="8.526298675412852"><ele>340.0</ele><time>2026-04-06T09:44:02Z</time></trkpt><trkpt lat="45.71694221291133" lon="8.526364862358461"><ele>339.0</ele><time>2026-04-06T09:44:03Z</time></trkpt><trkpt lat="45.71707735884872" lon="8.526432545851824"><ele>338.0</ele><time>2026-04-06T09:44:04Z</time></trkpt><trkpt lat="45.717218665557645" lon="8.526500863191764"><ele>337.0</ele><time>2026-04-06T09:44:05Z</time></trkpt><trkpt lat="45.71737086164907" lon="8.526573374820392"><ele>337.0</ele><time>2026-04-06T09:44:06Z</time></trkpt><trkpt lat="45.71752221669591" lon="8.526646272979132"><ele>337.0</ele><time>2026-04-06T09:44:07Z</time></trkpt><trkpt lat="45.7176709524251" lon="8.526715919057008"><ele>337.0</ele><time>2026-04-06T09:44:08Z</time></trkpt><trkpt lat="45.71782115425894" lon="8.526788726837648"><ele>337.0</ele><time>2026-04-06T09:44:09Z</time></trkpt><trkpt lat="45.717975707832494" lon="8.526878090200805"><ele>337.0</ele><time>2026-04-06T09:44:10Z</time></trkpt><trkpt lat="45.71813773339467" lon="8.526998351525119"><ele>337.0</ele><time>2026-04-06T09:44:11Z</time></trkpt><trkpt lat="45.71830257736546" lon="8.527147952255234"><ele>334.0</ele><time>2026-04-06T09:44:12Z</time></trkpt><trkpt lat="45.718471131986185" lon="8.527309636955822"><ele>331.0</ele><time>2026-04-06T09:44:13Z</time></trkpt><trkpt lat="45.718645600130756" lon="8.527478173612987"><ele>328.0</ele><time>2026-04-06T09:44:14Z</time></trkpt><trkpt lat="45.718807930874135" lon="8.527631802498771"><ele>327.3333333333333</ele><time>2026-04-06T09:44:15Z</time></trkpt><trkpt lat="45.71895478155034" lon="8.527774221888276"><ele>326.6666666666667</ele><time>2026-04-06T09:44:16Z</time></trkpt><trkpt lat="45.719081441673445" lon="8.527893992877305"><ele>326.0</ele><time>2026-04-06T09:44:17Z</time></trkpt><trkpt lat="45.7192090342653" lon="8.528020001906054"><ele>326.0</ele><time>2026-04-06T09:44:18Z</time></trkpt><trkpt lat="45.719342430334386" lon="8.528155649201437"><ele>326.0</ele><time>2026-04-06T09:44:19Z</time></trkpt><trkpt lat="45.71949217175425" lon="8.528294614839451"><ele>326.0</ele><time>2026-04-06T09:44:20Z</time></trkpt><trkpt lat="45.719654867178306" lon="8.528432558794286"><ele>326.0</ele><time>2026-04-06T09:44:21Z</time></trkpt><trkpt lat="45.719818927700985" lon="8.528588978988017"><ele>326.0</ele><time>2026-04-06T09:44:22Z</time></trkpt><trkpt lat="45.71999200436175" lon="8.528754945035864"><ele>326.0</ele><time>2026-04-06T09:44:23Z</time></trkpt><trkpt lat="45.72017508553609" lon="8.528928408065356"><ele>324.0</ele><time>2026-04-06T09:44:24Z</time></trkpt><trkpt lat="45.72036834097928" lon="8.52910819427823"><ele>322.0</ele><time>2026-04-06T09:44:25Z</time></trkpt><trkpt lat="45.720565961478115" lon="8.529292174498675"><ele>322.0</ele><time>2026-04-06T09:44:26Z</time></trkpt><trkpt lat="45.72075434935945" lon="8.52946655772156"><ele>322.0</ele><time>2026-04-06T09:44:27Z</time></trkpt><trkpt lat="45.72093359194804" lon="8.52963514166833"><ele>322.0</ele><time>2026-04-06T09:44:28Z</time></trkpt><trkpt lat="45.721115557204875" lon="8.529811851638211"><ele>317.5</ele><time>2026-04-06T09:44:29Z</time></trkpt><trkpt lat="45.721304682554056" lon="8.529996758098136"><ele>313.0</ele><time>2026-04-06T09:44:30Z</time></trkpt><trkpt lat="45.72150393111596" lon="8.530179621229916"><ele>313.0</ele><time>2026-04-06T09:44:31Z</time></trkpt><trkpt lat="45.72172384981433" lon="8.530363162553614"><ele>313.0</ele><time>2026-04-06T09:44:32Z</time></trkpt><trkpt lat="45.72195726795032" lon="8.530537556045706"><ele>311.66666666666663</ele><time>2026-04-06T09:44:33Z</time></trkpt><trkpt lat="45.72217441840862" lon="8.530690495500707"><ele>310.3333333333333</ele><time>2026-04-06T09:44:34Z</time></trkpt><trkpt lat="45.722354831894485" lon="8.53081842804135"><ele>309.0</ele><time>2026-04-06T09:44:35Z</time></trkpt><trkpt lat="45.722519324024965" lon="8.530942026676044"><ele>309.0</ele><time>2026-04-06T09:44:36Z</time></trkpt><trkpt lat="45.72267802478733" lon="8.531088291216868"><ele>309.0</ele><time>2026-04-06T09:44:37Z</time></trkpt><trkpt lat="45.722822204752326" lon="8.531292587499467"><ele>309.0</ele><time>2026-04-06T09:44:38Z</time></trkpt><trkpt lat="45.7229481569508" lon="8.53152909202656"><ele>308.6666666666667</ele><time>2026-04-06T09:44:39Z</time></trkpt><trkpt lat="45.723070870590846" lon="8.531776914643384"><ele>308.33333333333337</ele><time>2026-04-06T09:44:40Z</time></trkpt><trkpt lat="45.72319480850845" lon="8.532034441867683"><ele>308.0</ele><time>2026-04-06T09:44:41Z</time></trkpt><trkpt lat="45.723321401909686" lon="8.53229674043791"><ele>308.0</ele><time>2026-04-06T09:44:41.999Z</time></trkpt><trkpt lat="45.723451899054204" lon="8.532562344765413"><ele>308.0</ele><time>2026-04-06T09:44:42.999Z</time></trkpt><trkpt lat="45.72358591979539" lon="8.532826448458938"><ele>309.6666666666667</ele><time>2026-04-06T09:44:43.999Z</time></trkpt><trkpt lat="45.72370552578612" lon="8.533063568076127"><ele>311.3333333333333</ele><time>2026-04-06T09:44:44.999Z</time></trkpt><trkpt lat="45.723804444885225" lon="8.533267057741908"><ele>313.0</ele><time>2026-04-06T09:44:45.999Z</time></trkpt><trkpt lat="45.72390638891926" lon="8.533450432097524"><ele>313.0</ele><time>2026-04-06T09:44:46.999Z</time></trkpt><trkpt lat="45.724024701439866" lon="8.533609433423369"><ele>313.0</ele><time>2026-04-06T09:44:47.999Z</time></trkpt><trkpt lat="45.724169442905584" lon="8.53375289584069"><ele>313.0</ele><time>2026-04-06T09:44:48.999Z</time></trkpt><trkpt lat="45.72432381902192" lon="8.53389453615214"><ele>311.66666666666663</ele><time>2026-04-06T09:44:49.999Z</time></trkpt><trkpt lat="45.72448435767628" lon="8.534043631461842"><ele>310.3333333333333</ele><time>2026-04-06T09:44:50.999Z</time></trkpt><trkpt lat="45.72465000511709" lon="8.534202325940077"><ele>309.0</ele><time>2026-04-06T09:44:51.999Z</time></trkpt><trkpt lat="45.72482129362329" lon="8.534364862761395"><ele>309.0</ele><time>2026-04-06T09:44:52.999Z</time></trkpt><trkpt lat="45.72499743364683" lon="8.534530954857473"><ele>309.0</ele><time>2026-04-06T09:44:53.999Z</time></trkpt><trkpt lat="45.72517200511073" lon="8.534696499307936"><ele>309.0</ele><time>2026-04-06T09:44:54.999Z</time></trkpt><trkpt lat="45.72531959510571" lon="8.534831289413004"><ele>309.6666666666667</ele><time>2026-04-06T09:44:55.999Z</time></trkpt><trkpt lat="45.72545029740532" lon="8.534932769270668"><ele>310.33333333333337</ele><time>2026-04-06T09:44:56.999Z</time></trkpt><trkpt lat="45.72559476139741" lon="8.53499124890127"><ele>311.0</ele><time>2026-04-06T09:44:57.999Z</time></trkpt><trkpt lat="45.72575698565553" lon="8.534990010149349"><ele>311.0</ele><time>2026-04-06T09:44:58.999Z</time></trkpt><trkpt lat="45.72592636674766" lon="8.534960118946872"><ele>311.0</ele><time>2026-04-06T09:44:59.999Z</time></trkpt><trkpt lat="45.72609476873234" lon="8.534910015699536"><ele>311.0</ele><time>2026-04-06T09:45:00.999Z</time></trkpt><trkpt lat="45.726250429465765" lon="8.534817542273903"><ele>311.6666666666667</ele><time>2026-04-06T09:45:01.999Z</time></trkpt><trkpt lat="45.72640591506932" lon="8.534680375382706"><ele>312.3333333333333</ele><time>2026-04-06T09:45:02.999Z</time></trkpt><trkpt lat="45.72656554747583" lon="8.534519922000468"><ele>313.0</ele><time>2026-04-06T09:45:03.999Z</time></trkpt><trkpt lat="45.72673808106454" lon="8.534352559677199"><ele>310.66666666666663</ele><time>2026-04-06T09:45:04.999Z</time></trkpt><trkpt lat="45.726914563096614" lon="8.534187411168737"><ele>308.3333333333333</ele><time>2026-04-06T09:45:05.999Z</time></trkpt><trkpt lat="45.727095167795845" lon="8.534017964950076"><ele>306.0</ele><time>2026-04-06T09:45:06.999Z</time></trkpt><trkpt lat="45.72727715372886" lon="8.533841626606597"><ele>309.0</ele><time>2026-04-06T09:45:07.999Z</time></trkpt><trkpt lat="45.727461505362726" lon="8.533661592251338"><ele>312.0</ele><time>2026-04-06T09:45:08.999Z</time></trkpt><trkpt lat="45.72765026812326" lon="8.53348197790726"><ele>309.5</ele><time>2026-04-06T09:45:09.999Z</time></trkpt><trkpt lat="45.72784039248495" lon="8.533303865955414"><ele>307.0</ele><time>2026-04-06T09:45:10.999Z</time></trkpt><trkpt lat="45.7280335709127" lon="8.533124704837755"><ele>307.0</ele><time>2026-04-06T09:45:11.999Z</time></trkpt><trkpt lat="45.72822901867764" lon="8.532944137481532"><ele>307.0</ele><time>2026-04-06T09:45:12.999Z</time></trkpt><trkpt lat="45.728423509405005" lon="8.532765203184105"><ele>307.66666666666663</ele><time>2026-04-06T09:45:13.999Z</time></trkpt><trkpt lat="45.728610386543664" lon="8.53259072954256"><ele>308.3333333333333</ele><time>2026-04-06T09:45:14.999Z</time></trkpt><trkpt lat="45.72878768807535" lon="8.532415716167764"><ele>309.0</ele><time>2026-04-06T09:45:15.999Z</time></trkpt><trkpt lat="45.72896523883361" lon="8.532212274984643"><ele>308.0</ele><time>2026-04-06T09:45:16.999Z</time></trkpt><trkpt lat="45.72913934418188" lon="8.531992559947067"><ele>307.0</ele><time>2026-04-06T09:45:17.999Z</time></trkpt><trkpt lat="45.72930640238088" lon="8.531776401267233"><ele>306.66666666666663</ele><time>2026-04-06T09:45:18.999Z</time></trkpt><trkpt lat="45.72947213203583" lon="8.53156750627293"><ele>306.3333333333333</ele><time>2026-04-06T09:45:19.999Z</time></trkpt><trkpt lat="45.729639927978766" lon="8.531356787986972"><ele>306.0</ele><time>2026-04-06T09:45:20.999Z</time></trkpt><trkpt lat="45.729807887143735" lon="8.531142828170918"><ele>307.5</ele><time>2026-04-06T09:45:21.999Z</time></trkpt><trkpt lat="45.72997722345052" lon="8.530927976441118"><ele>309.0</ele><time>2026-04-06T09:45:22.999Z</time></trkpt><trkpt lat="45.73014650184745" lon="8.530714701485692"><ele>309.0</ele><time>2026-04-06T09:45:23.999Z</time></trkpt><trkpt lat="45.730313586000676" lon="8.530506130897672"><ele>309.0</ele><time>2026-04-06T09:45:24.999Z</time></trkpt><trkpt lat="45.7304846427091" lon="8.530292003055566"><ele>309.0</ele><time>2026-04-06T09:45:25.999Z</time></trkpt><trkpt lat="45.73065769158376" lon="8.530075907190382"><ele>311.5</ele><time>2026-04-06T09:45:26.999Z</time></trkpt><trkpt lat="45.73083132966853" lon="8.5298596456593"><ele>314.0</ele><time>2026-04-06T09:45:27.999Z</time></trkpt><trkpt lat="45.730995698842115" lon="8.529649080083816"><ele>315.0</ele><time>2026-04-06T09:45:28.999Z</time></trkpt><trkpt lat="45.73116200601512" lon="8.52944035444711"><ele>316.0</ele><time>2026-04-06T09:45:29.999Z</time></trkpt><trkpt lat="45.731312142941114" lon="8.529263261254082"><ele>317.0</ele><time>2026-04-06T09:45:30.999Z</time></trkpt><trkpt lat="45.731455991515205" lon="8.529116869961637"><ele>317.0</ele><time>2026-04-06T09:45:31.999Z</time></trkpt><trkpt lat="45.73160889143813" lon="8.529008568349619"><ele>317.0</ele><time>2026-04-06T09:45:32.999Z</time></trkpt><trkpt lat="45.73178239558523" lon="8.528948684555353"><ele>317.0</ele><time>2026-04-06T09:45:33.999Z</time></trkpt><trkpt lat="45.73196941815995" lon="8.52892334695332"><ele>315.33333333333337</ele><time>2026-04-06T09:45:34.999Z</time></trkpt><trkpt lat="45.73216064474855" lon="8.528911453684087"><ele>313.6666666666667</ele><time>2026-04-06T09:45:35.999Z</time></trkpt><trkpt lat="45.732351741212426" lon="8.528893696177365"><ele>312.0</ele><time>2026-04-06T09:45:36.999Z</time></trkpt><trkpt lat="45.73251975071861" lon="8.528875269381453"><ele>312.0</ele><time>2026-04-06T09:45:37.999Z</time></trkpt><trkpt lat="45.732663019203194" lon="8.528846203969122"><ele>312.0</ele><time>2026-04-06T09:45:38.999Z</time></trkpt><trkpt lat="45.732790954921754" lon="8.528775791965638"><ele>312.0</ele><time>2026-04-06T09:45:39.999Z</time></trkpt><trkpt lat="45.73291311932445" lon="8.528656924065357"><ele>312.0</ele><time>2026-04-06T09:45:40.999Z</time></trkpt><trkpt lat="45.73303117271242" lon="8.528507848001167"><ele>311.0</ele><time>2026-04-06T09:45:41.999Z</time></trkpt><trkpt lat="45.73314800522687" lon="8.528336445727907"><ele>310.0</ele><time>2026-04-06T09:45:42.999Z</time></trkpt><trkpt lat="45.73326784165324" lon="8.528156780808656"><ele>309.0</ele><time>2026-04-06T09:45:43.999Z</time></trkpt><trkpt lat="45.73338157147446" lon="8.527986668610735"><ele>308.3333333333333</ele><time>2026-04-06T09:45:44.999Z</time></trkpt><trkpt lat="45.73349004907562" lon="8.52782062144426"><ele>307.66666666666663</ele><time>2026-04-06T09:45:45.999Z</time></trkpt><trkpt lat="45.73359326240481" lon="8.527660631052008"><ele>307.0</ele><time>2026-04-06T09:45:46.999Z</time></trkpt><trkpt lat="45.7336894178833" lon="8.527507866872208"><ele>307.0</ele><time>2026-04-06T09:45:47.999Z</time></trkpt><trkpt lat="45.73378214592249" lon="8.527353776848354"><ele>307.0</ele><time>2026-04-06T09:45:48.999Z</time></trkpt><trkpt lat="45.73387399906915" lon="8.52720775854475"><ele>307.0</ele><time>2026-04-06T09:45:49.999Z</time></trkpt><trkpt lat="45.73395722884888" lon="8.527082640857818"><ele>307.0</ele><time>2026-04-06T09:45:50.999Z</time></trkpt><trkpt lat="45.734038966433886" lon="8.526963464463748"><ele>307.75</ele><time>2026-04-06T09:45:51.999Z</time></trkpt><trkpt lat="45.73411616244296" lon="8.52685037253669"><ele>308.5</ele><time>2026-04-06T09:45:52.999Z</time></trkpt><trkpt lat="45.73419281584482" lon="8.526732243639103"><ele>309.25</ele><time>2026-04-06T09:45:53.999Z</time></trkpt><trkpt lat="45.73427392491667" lon="8.526604148631899"><ele>310.0</ele><time>2026-04-06T09:45:54.999Z</time></trkpt><trkpt lat="45.734363498959304" lon="8.526467151759253"><ele>310.0</ele><time>2026-04-06T09:45:55.999Z</time></trkpt><trkpt lat="45.73445707435574" lon="8.52632655608521"><ele>310.0</ele><time>2026-04-06T09:45:56.999Z</time></trkpt><trkpt lat="45.7345433776519" lon="8.52619096785442"><ele>310.0</ele><time>2026-04-06T09:45:57.999Z</time></trkpt><trkpt lat="45.734627801894874" lon="8.526061417963025"><ele>310.0</ele><time>2026-04-06T09:45:58.999Z</time></trkpt><trkpt lat="45.73471321760314" lon="8.52593504543566"><ele>310.0</ele><time>2026-04-06T09:45:59.999Z</time></trkpt><trkpt lat="45.73479892155974" lon="8.52581016915439"><ele>310.0</ele><time>2026-04-06T09:46:00.999Z</time></trkpt><trkpt lat="45.73488468238033" lon="8.525688460331992"><ele>310.0</ele><time>2026-04-06T09:46:01.999Z</time></trkpt><trkpt lat="45.73496800795996" lon="8.525570792204599"><ele>310.0</ele><time>2026-04-06T09:46:02.999Z</time></trkpt><trkpt lat="45.735055832535146" lon="8.525456542488733"><ele>310.75</ele><time>2026-04-06T09:46:03.999Z</time></trkpt><trkpt lat="45.735161291658216" lon="8.525330822098683"><ele>311.5</ele><time>2026-04-06T09:46:04.999Z</time></trkpt><trkpt lat="45.73526888108175" lon="8.525221975608805"><ele>312.25</ele><time>2026-04-06T09:46:05.999Z</time></trkpt><trkpt lat="45.73538165962532" lon="8.525124012171185"><ele>313.0</ele><time>2026-04-06T09:46:06.999Z</time></trkpt><trkpt lat="45.735510097125065" lon="8.525034304813149"><ele>310.3333333333333</ele><time>2026-04-06T09:46:07.999Z</time></trkpt><trkpt lat="45.735660148070835" lon="8.524950849960264"><ele>307.6666666666667</ele><time>2026-04-06T09:46:08.999Z</time></trkpt><trkpt lat="45.73581871455038" lon="8.524877719364728"><ele>305.0</ele><time>2026-04-06T09:46:09.999Z</time></trkpt><trkpt lat="45.73599764169595" lon="8.524823576557077"><ele>304.0</ele><time>2026-04-06T09:46:10.999Z</time></trkpt><trkpt lat="45.73618966691379" lon="8.524746627480036"><ele>303.0</ele><time>2026-04-06T09:46:11.999Z</time></trkpt><trkpt lat="45.736396521694324" lon="8.524663808929017"><ele>302.0</ele><time>2026-04-06T09:46:12.999Z</time></trkpt><trkpt lat="45.7366046351858" lon="8.5245609831236"><ele>302.0</ele><time>2026-04-06T09:46:13.999Z</time></trkpt><trkpt lat="45.73682886390741" lon="8.524480170516885"><ele>302.0</ele><time>2026-04-06T09:46:14.999Z</time></trkpt><trkpt lat="45.73704804066491" lon="8.524392883500092"><ele>300.33333333333337</ele><time>2026-04-06T09:46:15.999Z</time></trkpt><trkpt lat="45.73725477692792" lon="8.524313445367081"><ele>298.6666666666667</ele><time>2026-04-06T09:46:16.999Z</time></trkpt><trkpt lat="45.73744198421347" lon="8.52424092606996"><ele>297.0</ele><time>2026-04-06T09:46:17.999Z</time></trkpt><trkpt lat="45.73760690927548" lon="8.52417640428285"><ele>298.0</ele><time>2026-04-06T09:46:18.999Z</time></trkpt><trkpt lat="45.73776121017193" lon="8.524128274200171"><ele>299.0</ele><time>2026-04-06T09:46:19.999Z</time></trkpt><trkpt lat="45.73792010386332" lon="8.524117059981313"><ele>300.0</ele><time>2026-04-06T09:46:20.999Z</time></trkpt><trkpt lat="45.738074239617355" lon="8.52418149021257"><ele>300.0</ele><time>2026-04-06T09:46:21.999Z</time></trkpt><trkpt lat="45.73822251082042" lon="8.524311923361136"><ele>300.0</ele><time>2026-04-06T09:46:22.999Z</time></trkpt><trkpt lat="45.738369477302136" lon="8.524474951069228"><ele>300.0</ele><time>2026-04-06T09:46:23.999Z</time></trkpt><trkpt lat="45.738519979652715" lon="8.524650174733603"><ele>299.6666666666667</ele><time>2026-04-06T09:46:24.999Z</time></trkpt><trkpt lat="45.73867569111596" lon="8.52483007794448"><ele>299.33333333333337</ele><time>2026-04-06T09:46:25.999Z</time></trkpt><trkpt lat="45.73882948123585" lon="8.525005127551534"><ele>299.0</ele><time>2026-04-06T09:46:26.999Z</time></trkpt><trkpt lat="45.738976731910114" lon="8.525175675882048"><ele>299.0</ele><time>2026-04-06T09:46:27.999Z</time></trkpt><trkpt lat="45.73911928871495" lon="8.525335460564484"><ele>299.0</ele><time>2026-04-06T09:46:28.999Z</time></trkpt><trkpt lat="45.73926314016498" lon="8.525474109084785"><ele>299.0</ele><time>2026-04-06T09:46:29.999Z</time></trkpt><trkpt lat="45.73941754119036" lon="8.525585201266184"><ele>296.33333333333337</ele><time>2026-04-06T09:46:30.999Z</time></trkpt><trkpt lat="45.739581904076935" lon="8.52565822923641"><ele>293.6666666666667</ele><time>2026-04-06T09:46:31.999Z</time></trkpt><trkpt lat="45.739751355562404" lon="8.525701262545383"><ele>291.0</ele><time>2026-04-06T09:46:32.999Z</time></trkpt><trkpt lat="45.7399186505662" lon="8.525722719828249"><ele>291.0</ele><time>2026-04-06T09:46:33.999Z</time></trkpt><trkpt lat="45.7400765259357" lon="8.525727188142985"><ele>291.0</ele><time>2026-04-06T09:46:34.999Z</time></trkpt><trkpt lat="45.740223054542945" lon="8.525711393652672"><ele>291.0</ele><time>2026-04-06T09:46:35.999Z</time></trkpt><trkpt lat="45.74036670017759" lon="8.52569032350392"><ele>291.0</ele><time>2026-04-06T09:46:36.999Z</time></trkpt><trkpt lat="45.74050023433101" lon="8.525669908257193"><ele>290.5</ele><time>2026-04-06T09:46:37.999Z</time></trkpt><trkpt lat="45.74063345410819" lon="8.52564592700758"><ele>290.0</ele><time>2026-04-06T09:46:38.999Z</time></trkpt><trkpt lat="45.740764627480196" lon="8.5256215426728"><ele>289.5</ele><time>2026-04-06T09:46:39.999Z</time></trkpt><trkpt lat="45.740889708881504" lon="8.525599579365938"><ele>289.0</ele><time>2026-04-06T09:46:40.999Z</time></trkpt><trkpt lat="45.741010073636005" lon="8.525577157843356"><ele>288.8</ele><time>2026-04-06T09:46:41.999Z</time></trkpt><trkpt lat="45.74112796500296" lon="8.525551838700094"><ele>288.59999999999997</ele><time>2026-04-06T09:46:42.999Z</time></trkpt><trkpt lat="45.74123638087139" lon="8.525527013225025"><ele>288.4</ele><time>2026-04-06T09:46:43.999Z</time></trkpt><trkpt lat="45.74134653746195" lon="8.525507220532793"><ele>288.2</ele><time>2026-04-06T09:46:44.999Z</time></trkpt><trkpt lat="45.74145504284251" lon="8.525492673559125"><ele>288.0</ele><time>2026-04-06T09:46:45.999Z</time></trkpt><trkpt lat="45.741571928632204" lon="8.52547919303994"><ele>288.0</ele><time>2026-04-06T09:46:46.999Z</time></trkpt><trkpt lat="45.741700216680194" lon="8.525461434050435"><ele>288.0</ele><time>2026-04-06T09:46:47.999Z</time></trkpt><trkpt lat="45.74183787970695" lon="8.525431354714414"><ele>288.0</ele><time>2026-04-06T09:46:48.999Z</time></trkpt><trkpt lat="45.741984273768416" lon="8.525378283397465"><ele>288.0</ele><time>2026-04-06T09:46:49.999Z</time></trkpt><trkpt lat="45.74213463785293" lon="8.525305045722648"><ele>289.0</ele><time>2026-04-06T09:46:50.999Z</time></trkpt><trkpt lat="45.742290215692634" lon="8.525221355157504"><ele>290.0</ele><time>2026-04-06T09:46:51.999Z</time></trkpt><trkpt lat="45.74245124960597" lon="8.52513353986248"><ele>291.0</ele><time>2026-04-06T09:46:52.999Z</time></trkpt><trkpt lat="45.74261295459793" lon="8.525045127898736"><ele>290.75</ele><time>2026-04-06T09:46:53.999Z</time></trkpt><trkpt lat="45.7427567547343" lon="8.52496471563495"><ele>290.5</ele><time>2026-04-06T09:46:54.999Z</time></trkpt><trkpt lat="45.74288512520829" lon="8.524893196903594"><ele>290.25</ele><time>2026-04-06T09:46:55.999Z</time></trkpt><trkpt lat="45.74300320804701" lon="8.524837292146602"><ele>290.0</ele><time>2026-04-06T09:46:56.999Z</time></trkpt><trkpt lat="45.743106981006044" lon="8.524791629853716"><ele>290.0</ele><time>2026-04-06T09:46:57.999Z</time></trkpt><trkpt lat="45.743186963162046" lon="8.524765979790288"><ele>290.0</ele><time>2026-04-06T09:46:58.999Z</time></trkpt><trkpt lat="45.74330322982505" lon="8.524729752929085"><ele>290.0</ele><time>2026-04-06T09:47:00.999Z</time></trkpt><trkpt lat="45.74339994989493" lon="8.524982774861003"><ele>290.0</ele><time>2026-04-06T09:47:02.999Z</time></trkpt><trkpt lat="45.74342026303606" lon="8.525115778650695"><ele>290.0</ele><time>2026-04-06T09:47:03.999Z</time></trkpt><trkpt lat="45.74343613620402" lon="8.525267418975723"><ele>290.0</ele><time>2026-04-06T09:47:04.999Z</time></trkpt><trkpt lat="45.743452029907075" lon="8.525438011447926"><ele>290.0</ele><time>2026-04-06T09:47:05.999Z</time></trkpt><trkpt lat="45.74346891555277" lon="8.52560922887714"><ele>290.0</ele><time>2026-04-06T09:47:06.999Z</time></trkpt><trkpt lat="45.743485139425346" lon="8.525775210178415"><ele>289.75</ele><time>2026-04-06T09:47:07.999Z</time></trkpt><trkpt lat="45.743502537775434" lon="8.52594461067553"><ele>289.5</ele><time>2026-04-06T09:47:08.999Z</time></trkpt><trkpt lat="45.74352432213316" lon="8.526127389900594"><ele>289.25</ele><time>2026-04-06T09:47:09.999Z</time></trkpt><trkpt lat="45.74354804002071" lon="8.526323118887591"><ele>289.0</ele><time>2026-04-06T09:47:10.999Z</time></trkpt><trkpt lat="45.743572178294976" lon="8.526534756337018"><ele>289.0</ele><time>2026-04-06T09:47:11.999Z</time></trkpt><trkpt lat="45.74359604903388" lon="8.526740278337819"><ele>289.0</ele><time>2026-04-06T09:47:13Z</time></trkpt><trkpt lat="45.74361974128997" lon="8.52694493500318"><ele>289.0</ele><time>2026-04-06T09:47:14Z</time></trkpt><trkpt lat="45.74364146789306" lon="8.527154630433568"><ele>289.0</ele><time>2026-04-06T09:47:15Z</time></trkpt><trkpt lat="45.74366399857624" lon="8.527362618151912"><ele>288.75</ele><time>2026-04-06T09:47:16Z</time></trkpt><trkpt lat="45.74368811274045" lon="8.527564859277122"><ele>288.5</ele><time>2026-04-06T09:47:17Z</time></trkpt><trkpt lat="45.743710081430045" lon="8.527757748090165"><ele>288.25</ele><time>2026-04-06T09:47:18Z</time></trkpt><trkpt lat="45.743728517945044" lon="8.527936110694208"><ele>288.0</ele><time>2026-04-06T09:47:19Z</time></trkpt><trkpt lat="45.74374443849941" lon="8.528101760506932"><ele>288.6666666666667</ele><time>2026-04-06T09:47:20Z</time></trkpt><trkpt lat="45.74375530695447" lon="8.528237987860116"><ele>289.3333333333333</ele><time>2026-04-06T09:47:21Z</time></trkpt><trkpt lat="45.74376128643635" lon="8.528328826342932"><ele>290.0</ele><time>2026-04-06T09:47:22Z</time></trkpt><trkpt lat="45.7437596114631" lon="8.52843666650403"><ele>290.66666666666663</ele><time>2026-04-06T09:47:26Z</time></trkpt><trkpt lat="45.74377887523718" lon="8.52855339465381"><ele>291.3333333333333</ele><time>2026-04-06T09:47:29Z</time></trkpt><trkpt lat="45.743855513222144" lon="8.528562383330076"><ele>292.0</ele><time>2026-04-06T09:47:30Z</time></trkpt><trkpt lat="45.74395620433329" lon="8.528574837588415"><ele>292.0</ele><time>2026-04-06T09:47:32Z</time></trkpt><trkpt lat="45.74407414695465" lon="8.528595881604819"><ele>292.0</ele><time>2026-04-06T09:47:34Z</time></trkpt><trkpt lat="45.744144457054944" lon="8.528602959219212"><ele>292.0</ele><time>2026-04-06T09:47:35Z</time></trkpt><trkpt lat="45.74421244527366" lon="8.528609900113318"><ele>292.0</ele><time>2026-04-06T09:47:35.999Z</time></trkpt><trkpt lat="45.74428529386355" lon="8.528613899206606"><ele>292.0</ele><time>2026-04-06T09:47:36.999Z</time></trkpt><trkpt lat="45.744360742145" lon="8.52861530805424"><ele>292.0</ele><time>2026-04-06T09:47:37.999Z</time></trkpt><trkpt lat="45.74445139348439" lon="8.528613720507934"><ele>292.2</ele><time>2026-04-06T09:47:38.999Z</time></trkpt><trkpt lat="45.74454076356544" lon="8.528616872331778"><ele>292.4</ele><time>2026-04-06T09:47:39.999Z</time></trkpt><trkpt lat="45.74463704880653" lon="8.528626262957607"><ele>292.6</ele><time>2026-04-06T09:47:40.999Z</time></trkpt><trkpt lat="45.74473929812004" lon="8.528641704904965"><ele>292.8</ele><time>2026-04-06T09:47:41.999Z</time></trkpt><trkpt lat="45.74483937199935" lon="8.528665232696556"><ele>293.0</ele><time>2026-04-06T09:47:42.999Z</time></trkpt><trkpt lat="45.74493431520121" lon="8.528687870742203"><ele>293.0</ele><time>2026-04-06T09:47:43.999Z</time></trkpt><trkpt lat="45.74503179560432" lon="8.528702794917523"><ele>293.0</ele><time>2026-04-06T09:47:44.999Z</time></trkpt><trkpt lat="45.74512318158859" lon="8.528719018810829"><ele>293.0</ele><time>2026-04-06T09:47:45.999Z</time></trkpt><trkpt lat="45.74521444633797" lon="8.528733670849597"><ele>293.0</ele><time>2026-04-06T09:47:46.999Z</time></trkpt><trkpt lat="45.745308582982496" lon="8.528748170385875"><ele>293.0</ele><time>2026-04-06T09:47:47.999Z</time></trkpt><trkpt lat="45.745399408579004" lon="8.5287600160201"><ele>295.8</ele><time>2026-04-06T09:47:48.999Z</time></trkpt><trkpt lat="45.74549047926718" lon="8.528773625465377"><ele>298.6</ele><time>2026-04-06T09:47:49.999Z</time></trkpt><trkpt lat="45.745580058019954" lon="8.528793976594603"><ele>301.4</ele><time>2026-04-06T09:47:50.999Z</time></trkpt><trkpt lat="45.74568091058051" lon="8.528815406300996"><ele>304.2</ele><time>2026-04-06T09:47:51.999Z</time></trkpt><trkpt lat="45.74580166313805" lon="8.528833146434373"><ele>307.0</ele><time>2026-04-06T09:47:52.999Z</time></trkpt><trkpt lat="45.74593272846692" lon="8.528854543497376"><ele>306.5</ele><time>2026-04-06T09:47:53.999Z</time></trkpt><trkpt lat="45.74607436195434" lon="8.528875338389167"><ele>306.0</ele><time>2026-04-06T09:47:54.999Z</time></trkpt><trkpt lat="45.74622056584437" lon="8.528893004609325"><ele>305.5</ele><time>2026-04-06T09:47:55.999Z</time></trkpt><trkpt lat="45.746370919561926" lon="8.528901228818896"><ele>305.0</ele><time>2026-04-06T09:47:56.999Z</time></trkpt><trkpt lat="45.74653212705971" lon="8.528909504870459"><ele>305.0</ele><time>2026-04-06T09:47:57.999Z</time></trkpt><trkpt lat="45.746683554231474" lon="8.528914254752822"><ele>305.0</ele><time>2026-04-06T09:47:58.999Z</time></trkpt><trkpt lat="45.746824377497816" lon="8.528921623784756"><ele>305.0</ele><time>2026-04-06T09:47:59.999Z</time></trkpt><trkpt lat="45.74696114141905" lon="8.528925524944263"><ele>305.0</ele><time>2026-04-06T09:48:00.999Z</time></trkpt><trkpt lat="45.74708892916116" lon="8.528927409097497"><ele>305.4</ele><time>2026-04-06T09:48:01.999Z</time></trkpt><trkpt lat="45.7472106327869" lon="8.528930491997212"><ele>305.8</ele><time>2026-04-06T09:48:02.999Z</time></trkpt><trkpt lat="45.747326880695304" lon="8.528929767030467"><ele>306.2</ele><time>2026-04-06T09:48:03.999Z</time></trkpt><trkpt lat="45.74743055319091" lon="8.52892909848554"><ele>306.6</ele><time>2026-04-06T09:48:04.999Z</time></trkpt><trkpt lat="45.74752481345416" lon="8.528923946401878"><ele>307.0</ele><time>2026-04-06T09:48:05.999Z</time></trkpt><trkpt lat="45.7476097199469" lon="8.528918886435598"><ele>307.0</ele><time>2026-04-06T09:48:06.999Z</time></trkpt><trkpt lat="45.74768575864753" lon="8.528909262275485"><ele>307.0</ele><time>2026-04-06T09:48:07.999Z</time></trkpt><trkpt lat="45.74775692937358" lon="8.528894347972601"><ele>307.0</ele><time>2026-04-06T09:48:08.999Z</time></trkpt><trkpt lat="45.74786970982222" lon="8.528881527097889"><ele>307.0</ele><time>2026-04-06T09:48:10.999Z</time></trkpt><trkpt lat="45.74795634385727" lon="8.528863951147477"><ele>307.0</ele><time>2026-04-06T09:48:12.999Z</time></trkpt><trkpt lat="45.74802912054645" lon="8.528844743658478"><ele>307.0</ele><time>2026-04-06T09:48:14.999Z</time></trkpt><trkpt lat="45.74811941657325" lon="8.528812455440844"><ele>306.6</ele><time>2026-04-06T09:48:35.999Z</time></trkpt><trkpt lat="45.748182403047025" lon="8.528797312961267"><ele>306.2</ele><time>2026-04-06T09:48:36.999Z</time></trkpt><trkpt lat="45.748288960280156" lon="8.528771695675056"><ele>305.8</ele><time>2026-04-06T09:48:38.999Z</time></trkpt><trkpt lat="45.74838849009042" lon="8.528747767869126"><ele>305.4</ele><time>2026-04-06T09:48:40.999Z</time></trkpt><trkpt lat="45.748488315357584" lon="8.528715054645156"><ele>305.0</ele><time>2026-04-06T09:48:42.999Z</time></trkpt><trkpt lat="45.74857424512004" lon="8.528709290436423"><ele>304.33333333333337</ele><time>2026-04-06T09:48:44.999Z</time></trkpt><trkpt lat="45.7486627988987" lon="8.528703737826461"><ele>303.6666666666667</ele><time>2026-04-06T09:48:46.999Z</time></trkpt><trkpt lat="45.748741771764344" lon="8.52869172746711"><ele>303.0</ele><time>2026-04-06T09:48:48.999Z</time></trkpt><trkpt lat="45.74880784410995" lon="8.528674619429141"><ele>302.3333333333333</ele><time>2026-04-06T09:48:55.999Z</time></trkpt><trkpt lat="45.74888049865103" lon="8.528673385474578"><ele>301.66666666666663</ele><time>2026-04-06T09:49:06.999Z</time></trkpt><trkpt lat="45.748942913635176" lon="8.528780003658163"><ele>301.0</ele><time>2026-04-06T09:49:09.999Z</time></trkpt><trkpt lat="45.748978828926944" lon="8.528854983560391"><ele>301.0</ele><time>2026-04-06T09:49:10.999Z</time></trkpt><trkpt lat="45.7490169113782" lon="8.529012178308989"><ele>301.0</ele><time>2026-04-06T09:49:12.999Z</time></trkpt><trkpt lat="45.74905950370016" lon="8.529132584902168"><ele>301.0</ele><time>2026-04-06T09:49:14.999Z</time></trkpt><trkpt lat="45.7490776983509" lon="8.529234630387913"><ele>301.0</ele><time>2026-04-06T09:49:16.999Z</time></trkpt><trkpt lat="45.74910166331181" lon="8.529339923007864"><ele>301.0</ele><time>2026-04-06T09:49:20Z</time></trkpt><trkpt lat="45.749115023395696" lon="8.529428398708454"><ele>301.0</ele><time>2026-04-06T09:49:24Z</time></trkpt><trkpt lat="45.74914617354267" lon="8.529579017301009"><ele>300.8333333333333</ele><time>2026-04-06T09:49:35Z</time></trkpt><trkpt lat="45.74914273278865" lon="8.529731907440148"><ele>300.66666666666663</ele><time>2026-04-06T09:49:37Z</time></trkpt><trkpt lat="45.749130023989075" lon="8.529828718275478"><ele>300.5</ele><time>2026-04-06T09:49:38Z</time></trkpt><trkpt lat="45.749092255293675" lon="8.529924604237175"><ele>300.3333333333333</ele><time>2026-04-06T09:49:39Z</time></trkpt><trkpt lat="45.74906989026471" lon="8.530014973145157"><ele>300.1666666666667</ele><time>2026-04-06T09:49:40Z</time></trkpt><trkpt lat="45.74904362093348" lon="8.530112770891956"><ele>300.0</ele><time>2026-04-06T09:49:41Z</time></trkpt><trkpt lat="45.74901803760849" lon="8.530219887724261"><ele>300.0</ele><time>2026-04-06T09:49:42Z</time></trkpt><trkpt lat="45.748997313763276" lon="8.530328949040722"><ele>300.0</ele><time>2026-04-06T09:49:43Z</time></trkpt><trkpt lat="45.74897282606578" lon="8.530453138367788"><ele>300.0</ele><time>2026-04-06T09:49:44Z</time></trkpt><trkpt lat="45.74896475078872" lon="8.530570485301688"><ele>300.0</ele><time>2026-04-06T09:49:44.999Z</time></trkpt><trkpt lat="45.748955567696434" lon="8.530696113418282"><ele>300.0</ele><time>2026-04-06T09:49:45.999Z</time></trkpt><trkpt lat="45.74895244401358" lon="8.530830784511693"><ele>300.0</ele><time>2026-04-06T09:49:46.999Z</time></trkpt><trkpt lat="45.748950981390806" lon="8.530969673914639"><ele>299.5</ele><time>2026-04-06T09:49:47.999Z</time></trkpt><trkpt lat="45.74895577570009" lon="8.53112131514237"><ele>299.0</ele><time>2026-04-06T09:49:48.999Z</time></trkpt><trkpt lat="45.74895911394114" lon="8.531294999443531"><ele>298.5</ele><time>2026-04-06T09:49:49.999Z</time></trkpt><trkpt lat="45.7489605153487" lon="8.531485268216368"><ele>298.0</ele><time>2026-04-06T09:49:50.999Z</time></trkpt><trkpt lat="45.748963592754286" lon="8.531683426503394"><ele>298.75</ele><time>2026-04-06T09:49:51.999Z</time></trkpt><trkpt lat="45.74896288859476" lon="8.53188506357972"><ele>299.5</ele><time>2026-04-06T09:49:52.999Z</time></trkpt><trkpt lat="45.74896631775251" lon="8.532082791846877"><ele>300.25</ele><time>2026-04-06T09:49:53.999Z</time></trkpt><trkpt lat="45.74898849560233" lon="8.5322637101412"><ele>301.0</ele><time>2026-04-06T09:49:54.999Z</time></trkpt><trkpt lat="45.74897409084536" lon="8.532440480585853"><ele>301.0</ele><time>2026-04-06T09:49:55.999Z</time></trkpt><trkpt lat="45.748979420561405" lon="8.532644186585372"><ele>301.0</ele><time>2026-04-06T09:49:56.999Z</time></trkpt><trkpt lat="45.748979339063936" lon="8.532863992763817"><ele>301.0</ele><time>2026-04-06T09:49:57.999Z</time></trkpt><trkpt lat="45.748980882196086" lon="8.53307922590762"><ele>301.0</ele><time>2026-04-06T09:49:58.999Z</time></trkpt><trkpt lat="45.74898005242595" lon="8.533294888245994"><ele>299.0</ele><time>2026-04-06T09:49:59.999Z</time></trkpt><trkpt lat="45.74897888600463" lon="8.533512703999637"><ele>297.0</ele><time>2026-04-06T09:50:00.999Z</time></trkpt><trkpt lat="45.74897757027979" lon="8.533735672676926"><ele>295.0</ele><time>2026-04-06T09:50:01.999Z</time></trkpt><trkpt lat="45.748975131702856" lon="8.533957180261927"><ele>295.0</ele><time>2026-04-06T09:50:02.999Z</time></trkpt><trkpt lat="45.74897394270605" lon="8.534180357824818"><ele>295.0</ele><time>2026-04-06T09:50:03.999Z</time></trkpt><trkpt lat="45.74897146344466" lon="8.534409680307457"><ele>295.0</ele><time>2026-04-06T09:50:04.999Z</time></trkpt><trkpt lat="45.74897026740888" lon="8.534640589157336"><ele>293.66666666666663</ele><time>2026-04-06T09:50:05.999Z</time></trkpt><trkpt lat="45.74896784132783" lon="8.534864511691225"><ele>292.3333333333333</ele><time>2026-04-06T09:50:06.999Z</time></trkpt><trkpt lat="45.748967778667534" lon="8.535086255728604"><ele>291.0</ele><time>2026-04-06T09:50:07.999Z</time></trkpt><trkpt lat="45.74896788859957" lon="8.53530474009378"><ele>290.25</ele><time>2026-04-06T09:50:08.999Z</time></trkpt><trkpt lat="45.7489665257302" lon="8.535520700340328"><ele>289.5</ele><time>2026-04-06T09:50:09.999Z</time></trkpt><trkpt lat="45.74896409510307" lon="8.535732275466806"><ele>288.75</ele><time>2026-04-06T09:50:10.999Z</time></trkpt><trkpt lat="45.74896230027956" lon="8.535939585045261"><ele>288.0</ele><time>2026-04-06T09:50:11.999Z</time></trkpt><trkpt lat="45.7489601746575" lon="8.536140223681132"><ele>286.75</ele><time>2026-04-06T09:50:12.999Z</time></trkpt><trkpt lat="45.74895986559404" lon="8.536333387958093"><ele>285.5</ele><time>2026-04-06T09:50:13.999Z</time></trkpt><trkpt lat="45.748961125195656" lon="8.536523454613324"><ele>284.25</ele><time>2026-04-06T09:50:14.999Z</time></trkpt><trkpt lat="45.74896374687698" lon="8.536711963322004"><ele>283.0</ele><time>2026-04-06T09:50:15.999Z</time></trkpt><trkpt lat="45.74896053909396" lon="8.53689838462533"><ele>280.66666666666663</ele><time>2026-04-06T09:50:16.999Z</time></trkpt><trkpt lat="45.748957886419966" lon="8.537097121880917"><ele>278.3333333333333</ele><time>2026-04-06T09:50:17.999Z</time></trkpt><trkpt lat="45.74894953105845" lon="8.537335959621627"><ele>276.0</ele><time>2026-04-06T09:50:18.999Z</time></trkpt><trkpt lat="45.748944900299875" lon="8.537608677077179"><ele>273.3333333333333</ele><time>2026-04-06T09:50:19.999Z</time></trkpt><trkpt lat="45.74894226826712" lon="8.537893961642043"><ele>270.66666666666663</ele><time>2026-04-06T09:50:20.999Z</time></trkpt><trkpt lat="45.748944167769714" lon="8.538116916224467"><ele>268.0</ele><time>2026-04-06T09:50:21.999Z</time></trkpt><trkpt lat="45.74896337184911" lon="8.538323003596846"><ele>268.0</ele><time>2026-04-06T09:50:22.999Z</time></trkpt><trkpt lat="45.74900605060632" lon="8.538500108454325"><ele>268.0</ele><time>2026-04-06T09:50:23.999Z</time></trkpt><trkpt lat="45.749082260945045" lon="8.538648000919817"><ele>268.0</ele><time>2026-04-06T09:50:24.999Z</time></trkpt><trkpt lat="45.74919980196297" lon="8.538744172139278"><ele>268.0</ele><time>2026-04-06T09:50:25.999Z</time></trkpt><trkpt lat="45.7493344784358" lon="8.538781531458186"><ele>265.75</ele><time>2026-04-06T09:50:26.999Z</time></trkpt><trkpt lat="45.749472859281994" lon="8.538752248531763"><ele>263.5</ele><time>2026-04-06T09:50:27.999Z</time></trkpt><trkpt lat="45.7495922674192" lon="8.538663552623326"><ele>261.25</ele><time>2026-04-06T09:50:28.999Z</time></trkpt><trkpt lat="45.74968420206597" lon="8.538515625731511"><ele>259.0</ele><time>2026-04-06T09:50:29.999Z</time></trkpt><trkpt lat="45.749747249793636" lon="8.538338390852966"><ele>259.0</ele><time>2026-04-06T09:50:30.999Z</time></trkpt><trkpt lat="45.749804291591396" lon="8.538131030288756"><ele>259.0</ele><time>2026-04-06T09:50:31.999Z</time></trkpt><trkpt lat="45.74987210561864" lon="8.537918611665075"><ele>259.0</ele><time>2026-04-06T09:50:32.999Z</time></trkpt><trkpt lat="45.74994664707409" lon="8.537698055819346"><ele>259.0</ele><time>2026-04-06T09:50:33.999Z</time></trkpt><trkpt lat="45.75002113855366" lon="8.537485924758558"><ele>259.0</ele><time>2026-04-06T09:50:34.999Z</time></trkpt><trkpt lat="45.75011313227399" lon="8.537257724729088"><ele>259.0</ele><time>2026-04-06T09:50:35.999Z</time></trkpt><trkpt lat="45.750223597570084" lon="8.537051082706332"><ele>259.0</ele><time>2026-04-06T09:50:36.999Z</time></trkpt><trkpt lat="45.75035646486556" lon="8.536894658591999"><ele>259.0</ele><time>2026-04-06T09:50:37.999Z</time></trkpt><trkpt lat="45.75052238795646" lon="8.536791106435489"><ele>259.0</ele><time>2026-04-06T09:50:38.999Z</time></trkpt><trkpt lat="45.75071170371815" lon="8.536747370935931"><ele>259.0</ele><time>2026-04-06T09:50:39.999Z</time></trkpt><trkpt lat="45.75088777494524" lon="8.53677725084335"><ele>259.0</ele><time>2026-04-06T09:50:40.999Z</time></trkpt><trkpt lat="45.75104631812984" lon="8.536876473263682"><ele>259.0</ele><time>2026-04-06T09:50:41.999Z</time></trkpt><trkpt lat="45.75119112942157" lon="8.537035391028622"><ele>254.66666666666666</ele><time>2026-04-06T09:50:42.999Z</time></trkpt><trkpt lat="45.75130810533169" lon="8.537231126110111"><ele>250.33333333333331</ele><time>2026-04-06T09:50:43.999Z</time></trkpt><trkpt lat="45.751382871505236" lon="8.537440402672114"><ele>246.0</ele><time>2026-04-06T09:50:44.999Z</time></trkpt><trkpt lat="45.75141242051407" lon="8.537657469025847"><ele>241.66666666666669</ele><time>2026-04-06T09:50:45.999Z</time></trkpt><trkpt lat="45.751431097805934" lon="8.53790626128062"><ele>237.33333333333334</ele><time>2026-04-06T09:50:46.999Z</time></trkpt><trkpt lat="45.75146912869021" lon="8.538183951893043"><ele>233.0</ele><time>2026-04-06T09:50:47.999Z</time></trkpt><trkpt lat="45.751524929567736" lon="8.538461805837821"><ele>232.5</ele><time>2026-04-06T09:50:48.999Z</time></trkpt><trkpt lat="45.751603020336375" lon="8.538739285348438"><ele>232.0</ele><time>2026-04-06T09:50:49.999Z</time></trkpt><trkpt lat="45.751711823682015" lon="8.539058011855996"><ele>232.0</ele><time>2026-04-06T09:50:50.999Z</time></trkpt><trkpt lat="45.75184544597317" lon="8.539367151694679"><ele>232.0</ele><time>2026-04-06T09:50:51.999Z</time></trkpt><trkpt lat="45.75198563518782" lon="8.539630191506609"><ele>228.5</ele><time>2026-04-06T09:50:52.999Z</time></trkpt><trkpt lat="45.7521383142694" lon="8.53993214683787"><ele>225.0</ele><time>2026-04-06T09:50:53.999Z</time></trkpt><trkpt lat="45.752268331768036" lon="8.54020660852429"><ele>225.66666666666669</ele><time>2026-04-06T09:50:54.999Z</time></trkpt><trkpt lat="45.75238078679778" lon="8.54045294781734"><ele>226.33333333333334</ele><time>2026-04-06T09:50:55.999Z</time></trkpt><trkpt lat="45.75248704159652" lon="8.540686679849275"><ele>227.0</ele><time>2026-04-06T09:50:56.999Z</time></trkpt><trkpt lat="45.75261019013166" lon="8.540943332743515"><ele>226.0</ele><time>2026-04-06T09:50:57.999Z</time></trkpt><trkpt lat="45.75275630571927" lon="8.541231806803564"><ele>225.0</ele><time>2026-04-06T09:50:58.999Z</time></trkpt><trkpt lat="45.7529136957152" lon="8.541550670017902"><ele>225.0</ele><time>2026-04-06T09:50:59.999Z</time></trkpt><trkpt lat="45.753074850722605" lon="8.541886845631193"><ele>225.0</ele><time>2026-04-06T09:51:00.999Z</time></trkpt><trkpt lat="45.75322844622414" lon="8.542176420451266"><ele>225.0</ele><time>2026-04-06T09:51:01.999Z</time></trkpt><trkpt lat="45.75337575072201" lon="8.542434904301428"><ele>225.0</ele><time>2026-04-06T09:51:02.999Z</time></trkpt><trkpt lat="45.753517525236276" lon="8.542670580135605"><ele>225.5</ele><time>2026-04-06T09:51:03.999Z</time></trkpt><trkpt lat="45.753674608631975" lon="8.542926468247261"><ele>226.0</ele><time>2026-04-06T09:51:04.999Z</time></trkpt><trkpt lat="45.75383735229749" lon="8.543197549846294"><ele>226.0</ele><time>2026-04-06T09:51:05.999Z</time></trkpt><trkpt lat="45.7539899433543" lon="8.54345290363833"><ele>226.0</ele><time>2026-04-06T09:51:06.999Z</time></trkpt><trkpt lat="45.75411613892209" lon="8.543672582305302"><ele>226.0</ele><time>2026-04-06T09:51:07.999Z</time></trkpt><trkpt lat="45.75423170518885" lon="8.543875642424739"><ele>224.66666666666666</ele><time>2026-04-06T09:51:08.999Z</time></trkpt><trkpt lat="45.754330927197906" lon="8.544074811437653"><ele>223.33333333333331</ele><time>2026-04-06T09:51:09.999Z</time></trkpt><trkpt lat="45.75440666532067" lon="8.544271512749136"><ele>222.0</ele><time>2026-04-06T09:51:10.999Z</time></trkpt><trkpt lat="45.75445422610015" lon="8.54444044821013"><ele>221.6</ele><time>2026-04-06T09:51:11.999Z</time></trkpt><trkpt lat="45.75447899830227" lon="8.544581475839516"><ele>221.2</ele><time>2026-04-06T09:51:12.999Z</time></trkpt><trkpt lat="45.75448272653101" lon="8.54467309606371"><ele>220.8</ele><time>2026-04-06T09:51:13.999Z</time></trkpt><trkpt lat="45.754491660016" lon="8.544797452733805"><ele>220.4</ele><time>2026-04-06T09:51:15.999Z</time></trkpt><trkpt lat="45.75449818752516" lon="8.544901622984803"><ele>220.0</ele><time>2026-04-06T09:51:18.999Z</time></trkpt><trkpt lat="45.754477685379605" lon="8.545095000282934"><ele>220.0</ele><time>2026-04-06T09:51:20.999Z</time></trkpt><trkpt lat="45.75449805251751" lon="8.545231102931307"><ele>220.0</ele><time>2026-04-06T09:51:21.999Z</time></trkpt><trkpt lat="45.75451422995161" lon="8.545387115034817"><ele>220.0</ele><time>2026-04-06T09:51:22.999Z</time></trkpt><trkpt lat="45.754513684810966" lon="8.545542097291527"><ele>220.0</ele><time>2026-04-06T09:51:23.999Z</time></trkpt><trkpt lat="45.75448935719971" lon="8.545741052184884"><ele>219.33333333333331</ele><time>2026-04-06T09:51:25Z</time></trkpt><trkpt lat="45.7544627462964" lon="8.54595609009834"><ele>218.66666666666669</ele><time>2026-04-06T09:51:26Z</time></trkpt><trkpt lat="45.75443607418715" lon="8.546186634059014"><ele>218.0</ele><time>2026-04-06T09:51:27Z</time></trkpt><trkpt lat="45.75441292198555" lon="8.546395239253137"><ele>217.75</ele><time>2026-04-06T09:51:28Z</time></trkpt><trkpt lat="45.75439362869861" lon="8.546605051557155"><ele>217.5</ele><time>2026-04-06T09:51:29Z</time></trkpt><trkpt lat="45.75438204107017" lon="8.54680472898349"><ele>217.25</ele><time>2026-04-06T09:51:30Z</time></trkpt><trkpt lat="45.75438090685274" lon="8.546982002695403"><ele>217.0</ele><time>2026-04-06T09:51:31Z</time></trkpt><trkpt lat="45.75439278284245" lon="8.547138502280008"><ele>217.0</ele><time>2026-04-06T09:51:32Z</time></trkpt><trkpt lat="45.75441199420202" lon="8.547273158830995"><ele>217.0</ele><time>2026-04-06T09:51:33Z</time></trkpt><trkpt lat="45.75442767500723" lon="8.547368663923626"><ele>217.0</ele><time>2026-04-06T09:51:34Z</time></trkpt><trkpt lat="45.754438963760705" lon="8.547541863742218"><ele>217.0</ele><time>2026-04-06T09:51:36Z</time></trkpt><trkpt lat="45.754457644356265" lon="8.54772376878902"><ele>217.0</ele><time>2026-04-06T09:51:38Z</time></trkpt><trkpt lat="45.75449737988668" lon="8.547824485466672"><ele>217.0</ele><time>2026-04-06T09:51:39Z</time></trkpt><trkpt lat="45.754547604124454" lon="8.547956078035234"><ele>217.0</ele><time>2026-04-06T09:51:39.999Z</time></trkpt><trkpt lat="45.754592640996506" lon="8.54813185386513"><ele>217.0</ele><time>2026-04-06T09:51:40.999Z</time></trkpt><trkpt lat="45.75464360466555" lon="8.548363818072842"><ele>217.0</ele><time>2026-04-06T09:51:41.999Z</time></trkpt><trkpt lat="45.75470506340006" lon="8.548633969883003"><ele>216.66666666666666</ele><time>2026-04-06T09:51:42.999Z</time></trkpt><trkpt lat="45.75476437699317" lon="8.548933747475452"><ele>216.33333333333331</ele><time>2026-04-06T09:51:43.999Z</time></trkpt><trkpt lat="45.754821025754794" lon="8.549213768966066"><ele>216.0</ele><time>2026-04-06T09:51:44.999Z</time></trkpt><trkpt lat="45.754864549534624" lon="8.549422524976126"><ele>215.25</ele><time>2026-04-06T09:51:45.999Z</time></trkpt><trkpt lat="45.75490293473999" lon="8.549613493900946"><ele>214.5</ele><time>2026-04-06T09:51:46.999Z</time></trkpt><trkpt lat="45.75494075008536" lon="8.549788190585122"><ele>213.75</ele><time>2026-04-06T09:51:47.999Z</time></trkpt><trkpt lat="45.7549717558104" lon="8.549923429983759"><ele>213.0</ele><time>2026-04-06T09:51:48.999Z</time></trkpt><trkpt lat="45.755001299752806" lon="8.550052305419047"><ele>213.0</ele><time>2026-04-06T09:51:49.999Z</time></trkpt><trkpt lat="45.755028475116724" lon="8.550173232745133"><ele>213.0</ele><time>2026-04-06T09:51:50.999Z</time></trkpt><trkpt lat="45.75507208548014" lon="8.550308780220199"><ele>213.0</ele><time>2026-04-06T09:51:52.999Z</time></trkpt><trkpt lat="45.755132600669064" lon="8.550381027682297"><ele>213.0</ele><time>2026-04-06T09:51:54.999Z</time></trkpt><trkpt lat="45.75519325351358" lon="8.55043355401772"><ele>213.0</ele><time>2026-04-06T09:51:56.999Z</time></trkpt><trkpt lat="45.7552517310673" lon="8.550693061479658"><ele>213.0</ele><time>2026-04-06T10:00:17Z</time></trkpt><trkpt lat="45.75529675955583" lon="8.55088312405577"><ele>213.0</ele><time>2026-04-06T10:00:18Z</time></trkpt><trkpt lat="45.75534332029945" lon="8.551043397649721"><ele>213.0</ele><time>2026-04-06T10:00:19Z</time></trkpt><trkpt lat="45.75539060638057" lon="8.55120068928405"><ele>213.0</ele><time>2026-04-06T10:00:20Z</time></trkpt><trkpt lat="45.75544742856886" lon="8.551390679312808"><ele>213.0</ele><time>2026-04-06T10:00:21Z</time></trkpt><trkpt lat="45.75550918844765" lon="8.551582517157438"><ele>213.0</ele><time>2026-04-06T10:00:22Z</time></trkpt><trkpt lat="45.755581065473564" lon="8.55181884717857"><ele>213.0</ele><time>2026-04-06T10:00:23Z</time></trkpt><trkpt lat="45.75564761412165" lon="8.552014682142925"><ele>212.75</ele><time>2026-04-06T10:00:24Z</time></trkpt><trkpt lat="45.755707497578754" lon="8.552204321263707"><ele>212.5</ele><time>2026-04-06T10:00:25Z</time></trkpt><trkpt lat="45.75575818178088" lon="8.55237641539692"><ele>212.25</ele><time>2026-04-06T10:00:26Z</time></trkpt><trkpt lat="45.755795635094756" lon="8.552528211488733"><ele>212.0</ele><time>2026-04-06T10:00:27Z</time></trkpt><trkpt lat="45.755814044367625" lon="8.552716847519639"><ele>212.00000000000003</ele><time>2026-04-06T10:00:28.999Z</time></trkpt><trkpt lat="45.755835673352195" lon="8.552820176437693"><ele>212.0</ele><time>2026-04-06T10:00:29.999Z</time></trkpt><trkpt lat="45.75585414336924" lon="8.552941057784041"><ele>212.0</ele><time>2026-04-06T10:00:30.999Z</time></trkpt><trkpt lat="45.75586589561225" lon="8.553065395679997"><ele>212.0</ele><time>2026-04-06T10:00:31.999Z</time></trkpt><trkpt lat="45.755879844460544" lon="8.553192322355343"><ele>212.00000000000003</ele><time>2026-04-06T10:00:32.999Z</time></trkpt><trkpt lat="45.755894930472046" lon="8.553317929271802"><ele>212.0</ele><time>2026-04-06T10:00:33.999Z</time></trkpt><trkpt lat="45.755904481697954" lon="8.553433915431123"><ele>212.0</ele><time>2026-04-06T10:00:34.999Z</time></trkpt><trkpt lat="45.75592098572168" lon="8.553528065219377"><ele>212.0</ele><time>2026-04-06T10:00:35.999Z</time></trkpt><trkpt lat="45.75596805266387" lon="8.553662819334"><ele>212.0</ele><time>2026-04-06T10:00:37.999Z</time></trkpt><trkpt lat="45.75603671003031" lon="8.553793391831842"><ele>212.0</ele><time>2026-04-06T10:00:39.999Z</time></trkpt><trkpt lat="45.756086428960415" lon="8.553881601718546"><ele>212.0</ele><time>2026-04-06T10:00:43.999Z</time></trkpt><trkpt lat="45.75615699299602" lon="8.553967695298544"><ele>212.00000000000003</ele><time>2026-04-06T10:00:46.999Z</time></trkpt><trkpt lat="45.756254897297474" lon="8.55404732761798"><ele>212.0</ele><time>2026-04-06T10:00:48.999Z</time></trkpt><trkpt lat="45.756324345505185" lon="8.554086013175228"><ele>212.0</ele><time>2026-04-06T10:00:49.999Z</time></trkpt><trkpt lat="45.75640081763994" lon="8.554117794676797"><ele>212.0</ele><time>2026-04-06T10:00:50.999Z</time></trkpt><trkpt lat="45.75648186255505" lon="8.554141634294941"><ele>212.00000000000003</ele><time>2026-04-06T10:00:51.999Z</time></trkpt><trkpt lat="45.756575881388876" lon="8.554158684215535"><ele>212.0</ele><time>2026-04-06T10:00:52.999Z</time></trkpt><trkpt lat="45.75666890412881" lon="8.554186645744023"><ele>212.00000000000003</ele><time>2026-04-06T10:00:53.999Z</time></trkpt><trkpt lat="45.75675946481784" lon="8.554214763504307"><ele>212.0</ele><time>2026-04-06T10:00:54.999Z</time></trkpt><trkpt lat="45.756823209828866" lon="8.55423836193269"><ele>212.0</ele><time>2026-04-06T10:00:55.999Z</time></trkpt><trkpt lat="45.756921382763764" lon="8.554259424534772"><ele>212.0</ele><time>2026-04-06T10:01:00.999Z</time></trkpt><trkpt lat="45.75701387974087" lon="8.55429168572073"><ele>212.00000000000003</ele><time>2026-04-06T10:01:02.999Z</time></trkpt><trkpt lat="45.75708543369569" lon="8.554317377979666"><ele>212.0</ele><time>2026-04-06T10:01:04.999Z</time></trkpt><trkpt lat="45.757148276489886" lon="8.554345054147038"><ele>211.50000000000003</ele><time>2026-04-06T10:01:08.999Z</time></trkpt><trkpt lat="45.757248263640626" lon="8.554385409940041"><ele>211.0</ele><time>2026-04-06T10:01:11.999Z</time></trkpt><trkpt lat="45.7573323879352" lon="8.554437370174027"><ele>210.5</ele><time>2026-04-06T10:01:13.999Z</time></trkpt><trkpt lat="45.75740208643679" lon="8.554505079001709"><ele>210.0</ele><time>2026-04-06T10:01:15.999Z</time></trkpt><trkpt lat="45.7574573967442" lon="8.5545885038824"><ele>209.50000000000003</ele><time>2026-04-06T10:01:18.999Z</time></trkpt><trkpt lat="45.75751196431925" lon="8.554666658237306"><ele>209.0</ele><time>2026-04-06T10:01:23.999Z</time></trkpt><trkpt lat="45.75756302055034" lon="8.554752179433512"><ele>209.00000000000003</ele><time>2026-04-06T10:01:25.999Z</time></trkpt><trkpt lat="45.75760329290747" lon="8.554880104678233"><ele>209.0</ele><time>2026-04-06T10:01:27.999Z</time></trkpt><trkpt lat="45.7576423185296" lon="8.554978665672037"><ele>209.0</ele><time>2026-04-06T10:01:30.999Z</time></trkpt><trkpt lat="45.75767581777683" lon="8.555085809536925"><ele>209.0</ele><time>2026-04-06T10:01:32.999Z</time></trkpt><trkpt lat="45.75769781379984" lon="8.555181022651862"><ele>209.00000000000003</ele><time>2026-04-06T10:01:34.999Z</time></trkpt><trkpt lat="45.757716928972314" lon="8.55529123003089"><ele>209.0</ele><time>2026-04-06T10:01:38.999Z</time></trkpt><trkpt lat="45.75771697897547" lon="8.555421215553201"><ele>209.0</ele><time>2026-04-06T10:01:41.999Z</time></trkpt><trkpt lat="45.757672793484716" lon="8.555548912541788"><ele>209.0</ele><time>2026-04-06T10:01:44.999Z</time></trkpt><trkpt lat="45.75761846796386" lon="8.555638240437869"><ele>209.0</ele><time>2026-04-06T10:01:46.999Z</time></trkpt><trkpt lat="45.757549379218574" lon="8.555738780398597"><ele>209.0</ele><time>2026-04-06T10:01:48.999Z</time></trkpt><trkpt lat="45.75748783642971" lon="8.555852791477411"><ele>209.0</ele><time>2026-04-06T10:01:50.999Z</time></trkpt><trkpt lat="45.757433219314436" lon="8.555949879135591"><ele>209.00000000000003</ele><time>2026-04-06T10:01:52.999Z</time></trkpt><trkpt lat="45.75739996375211" lon="8.556060860117945"><ele>209.0</ele><time>2026-04-06T10:01:55Z</time></trkpt><trkpt lat="45.7573312994733" lon="8.556186115632615"><ele>209.0</ele><time>2026-04-06T10:01:57Z</time></trkpt><trkpt lat="45.757302885798" lon="8.556268893566285"><ele>209.0</ele><time>2026-04-06T10:01:58Z</time></trkpt><trkpt lat="45.75726945314478" lon="8.55634963113833"><ele>209.00000000000003</ele><time>2026-04-06T10:01:59Z</time></trkpt><trkpt lat="45.75724104312156" lon="8.556434114769967"><ele>209.0</ele><time>2026-04-06T10:02:00Z</time></trkpt><trkpt lat="45.757172501493756" lon="8.556560623644842"><ele>208.71428571428572</ele><time>2026-04-06T10:02:02Z</time></trkpt><trkpt lat="45.75711607980461" lon="8.556623586421072"><ele>208.42857142857142</ele><time>2026-04-06T10:02:04Z</time></trkpt><trkpt lat="45.75706423835734" lon="8.556686527802635"><ele>208.14285714285717</ele><time>2026-04-06T10:02:06Z</time></trkpt><trkpt lat="45.75701563454817" lon="8.556753100826782"><ele>207.85714285714286</ele><time>2026-04-06T10:02:08Z</time></trkpt><trkpt lat="45.75696145744231" lon="8.556837694114536"><ele>207.57142857142858</ele><time>2026-04-06T10:02:10Z</time></trkpt><trkpt lat="45.75691715016794" lon="8.55691036716399"><ele>207.2857142857143</ele><time>2026-04-06T10:02:12Z</time></trkpt><trkpt lat="45.75687527768565" lon="8.556985763679135"><ele>207.0</ele><time>2026-04-06T10:02:14.999Z</time></trkpt><trkpt lat="45.75681439714183" lon="8.55711679467066"><ele>206.8</ele><time>2026-04-06T10:02:16.999Z</time></trkpt><trkpt lat="45.75677388390089" lon="8.557188065558664"><ele>206.6</ele><time>2026-04-06T10:02:17.999Z</time></trkpt><trkpt lat="45.75668639459896" lon="8.55730744235545"><ele>206.4</ele><time>2026-04-06T10:02:19.999Z</time></trkpt><trkpt lat="45.75657362008754" lon="8.557351348956594"><ele>206.20000000000002</ele><time>2026-04-06T10:02:21.999Z</time></trkpt><trkpt lat="45.75648778763039" lon="8.557348167921212"><ele>206.0</ele><time>2026-04-06T10:02:22.999Z</time></trkpt><trkpt lat="45.75640943843459" lon="8.557331531865055"><ele>206.0</ele><time>2026-04-06T10:02:23.999Z</time></trkpt><trkpt lat="45.75632094866434" lon="8.557337168850665"><ele>206.0</ele><time>2026-04-06T10:02:24.999Z</time></trkpt><trkpt lat="45.75622147223308" lon="8.557329291265217"><ele>206.0</ele><time>2026-04-06T10:02:25.999Z</time></trkpt><trkpt lat="45.756131475177156" lon="8.557345848196494"><ele>206.0</ele><time>2026-04-06T10:02:26.999Z</time></trkpt><trkpt lat="45.75604201276537" lon="8.55736046899998"><ele>206.0</ele><time>2026-04-06T10:02:27.999Z</time></trkpt><trkpt lat="45.75595280888755" lon="8.557371369703908"><ele>206.00000000000003</ele><time>2026-04-06T10:02:28.999Z</time></trkpt><trkpt lat="45.755866802362654" lon="8.557387546682863"><ele>206.0</ele><time>2026-04-06T10:02:29.999Z</time></trkpt><trkpt lat="45.755782241166" lon="8.557408628050798"><ele>206.0</ele><time>2026-04-06T10:02:30.999Z</time></trkpt><trkpt lat="45.75569637842272" lon="8.557430094806605"><ele>206.0</ele><time>2026-04-06T10:02:31.999Z</time></trkpt><trkpt lat="45.75560698464975" lon="8.557451371447524"><ele>206.00000000000003</ele><time>2026-04-06T10:02:32.999Z</time></trkpt><trkpt lat="45.75551856852078" lon="8.557478967130509"><ele>206.0</ele><time>2026-04-06T10:02:33.999Z</time></trkpt><trkpt lat="45.75543231590336" lon="8.557507158802188"><ele>206.0</ele><time>2026-04-06T10:02:34.999Z</time></trkpt><trkpt lat="45.75534685432856" lon="8.557541477840362"><ele>206.0</ele><time>2026-04-06T10:02:35.999Z</time></trkpt><trkpt lat="45.75525273031276" lon="8.557583072899542"><ele>206.0</ele><time>2026-04-06T10:02:36.999Z</time></trkpt><trkpt lat="45.755158484242315" lon="8.557627656513075"><ele>206.0</ele><time>2026-04-06T10:02:37.999Z</time></trkpt><trkpt lat="45.75506789415099" lon="8.557671127356466"><ele>206.0</ele><time>2026-04-06T10:02:38.999Z</time></trkpt><trkpt lat="45.75498143143844" lon="8.557722567654363"><ele>205.83333333333334</ele><time>2026-04-06T10:02:39.999Z</time></trkpt><trkpt lat="45.75489756952976" lon="8.557774918516321"><ele>205.66666666666669</ele><time>2026-04-06T10:02:40.999Z</time></trkpt><trkpt lat="45.754824646979266" lon="8.557827322191386"><ele>205.5</ele><time>2026-04-06T10:02:41.999Z</time></trkpt><trkpt lat="45.75475516249479" lon="8.557880117231772"><ele>205.33333333333331</ele><time>2026-04-06T10:02:42.999Z</time></trkpt><trkpt lat="45.75468693706704" lon="8.557928896890237"><ele>205.16666666666666</ele><time>2026-04-06T10:02:43.999Z</time></trkpt><trkpt lat="45.75461899018296" lon="8.557976974909453"><ele>205.0</ele><time>2026-04-06T10:02:44.999Z</time></trkpt><trkpt lat="45.754545668816945" lon="8.558029239336836"><ele>205.0</ele><time>2026-04-06T10:02:45.999Z</time></trkpt><trkpt lat="45.7544634364086" lon="8.558087868526476"><ele>205.0</ele><time>2026-04-06T10:02:46.999Z</time></trkpt><trkpt lat="45.75438191564967" lon="8.558146649318378"><ele>205.0</ele><time>2026-04-06T10:02:47.999Z</time></trkpt><trkpt lat="45.75429845800637" lon="8.558210063607532"><ele>205.0</ele><time>2026-04-06T10:02:48.999Z</time></trkpt><trkpt lat="45.75421264772341" lon="8.558279761109654"><ele>205.0</ele><time>2026-04-06T10:02:49.999Z</time></trkpt><trkpt lat="45.75411755297704" lon="8.558356089893914"><ele>205.5</ele><time>2026-04-06T10:02:50.999Z</time></trkpt><trkpt lat="45.75401542497129" lon="8.558437929317323"><ele>206.0</ele><time>2026-04-06T10:02:51.999Z</time></trkpt><trkpt lat="45.75391215884548" lon="8.558517059300627"><ele>206.5</ele><time>2026-04-06T10:02:52.999Z</time></trkpt><trkpt lat="45.75380197792882" lon="8.55860077098771"><ele>207.0</ele><time>2026-04-06T10:02:53.999Z</time></trkpt><trkpt lat="45.753696473508214" lon="8.558685070086753"><ele>206.6</ele><time>2026-04-06T10:02:54.999Z</time></trkpt><trkpt lat="45.75359759335145" lon="8.558764704220783"><ele>206.2</ele><time>2026-04-06T10:02:55.999Z</time></trkpt><trkpt lat="45.75350260011965" lon="8.558844255162676"><ele>205.8</ele><time>2026-04-06T10:02:56.999Z</time></trkpt><trkpt lat="45.75341047022597" lon="8.558917409006671"><ele>205.4</ele><time>2026-04-06T10:02:57.999Z</time></trkpt><trkpt lat="45.75332188349922" lon="8.55898044363994"><ele>205.0</ele><time>2026-04-06T10:02:58.999Z</time></trkpt><trkpt lat="45.753234045233356" lon="8.55903137572224"><ele>204.99999999999997</ele><time>2026-04-06T10:02:59.999Z</time></trkpt><trkpt lat="45.75315092787274" lon="8.559066092961155"><ele>205.0</ele><time>2026-04-06T10:03:00.999Z</time></trkpt><trkpt lat="45.75306443291418" lon="8.559081256395247"><ele>205.0</ele><time>2026-04-06T10:03:01.999Z</time></trkpt><trkpt lat="45.75298461289752" lon="8.559086852128033"><ele>205.0</ele><time>2026-04-06T10:03:02.999Z</time></trkpt><trkpt lat="45.75291598374302" lon="8.559105045556592"><ele>204.99999999999997</ele><time>2026-04-06T10:03:03.999Z</time></trkpt><trkpt lat="45.75283118955698" lon="8.559219258369433"><ele>205.0</ele><time>2026-04-06T10:03:05.999Z</time></trkpt><trkpt lat="45.75276892376925" lon="8.55937755599801"><ele>205.0</ele><time>2026-04-06T10:03:07.999Z</time></trkpt><trkpt lat="45.75271977609264" lon="8.559446747896002"><ele>205.0</ele><time>2026-04-06T10:03:08.999Z</time></trkpt><trkpt lat="45.75266204572266" lon="8.559503025450985"><ele>205.0</ele><time>2026-04-06T10:03:09.999Z</time></trkpt><trkpt lat="45.75260121894511" lon="8.559550445914278"><ele>205.0</ele><time>2026-04-06T10:03:10.999Z</time></trkpt><trkpt lat="45.75253855839727" lon="8.559598558264739"><ele>205.0</ele><time>2026-04-06T10:03:11.999Z</time></trkpt><trkpt lat="45.75247176303104" lon="8.55964801190009"><ele>205.0</ele><time>2026-04-06T10:03:12.999Z</time></trkpt><trkpt lat="45.75240976204061" lon="8.559697286457373"><ele>205.0</ele><time>2026-04-06T10:03:13.999Z</time></trkpt><trkpt lat="45.75234820193786" lon="8.559744209281014"><ele>204.83333333333331</ele><time>2026-04-06T10:03:14.999Z</time></trkpt><trkpt lat="45.75228486761643" lon="8.55979445463472"><ele>204.66666666666666</ele><time>2026-04-06T10:03:15.999Z</time></trkpt><trkpt lat="45.75221709255838" lon="8.559847096033161"><ele>204.5</ele><time>2026-04-06T10:03:16.999Z</time></trkpt><trkpt lat="45.752142104582994" lon="8.559904694606717"><ele>204.33333333333331</ele><time>2026-04-06T10:03:17.999Z</time></trkpt><trkpt lat="45.75205790092712" lon="8.559973848083303"><ele>204.16666666666666</ele><time>2026-04-06T10:03:18.999Z</time></trkpt><trkpt lat="45.75196500926115" lon="8.560052595206232"><ele>204.0</ele><time>2026-04-06T10:03:19.999Z</time></trkpt><trkpt lat="45.75186636902836" lon="8.560132944026897"><ele>204.0</ele><time>2026-04-06T10:03:20.999Z</time></trkpt><trkpt lat="45.75176737702293" lon="8.560212538462837"><ele>204.0</ele><time>2026-04-06T10:03:21.999Z</time></trkpt><trkpt lat="45.751671283952774" lon="8.560287357667487"><ele>204.0</ele><time>2026-04-06T10:03:22.999Z</time></trkpt><trkpt lat="45.75158202868846" lon="8.560358575271513"><ele>204.0</ele><time>2026-04-06T10:03:23.999Z</time></trkpt><trkpt lat="45.75149729833048" lon="8.560431867364551"><ele>204.0</ele><time>2026-04-06T10:03:24.999Z</time></trkpt><trkpt lat="45.751408253766975" lon="8.560497197479352"><ele>203.83333333333334</ele><time>2026-04-06T10:03:25.999Z</time></trkpt><trkpt lat="45.75132444274172" lon="8.560569251872995"><ele>203.66666666666669</ele><time>2026-04-06T10:03:26.999Z</time></trkpt><trkpt lat="45.751242648049" lon="8.560627990128644"><ele>203.5</ele><time>2026-04-06T10:03:27.999Z</time></trkpt><trkpt lat="45.75117340273076" lon="8.560679498834594"><ele>203.33333333333334</ele><time>2026-04-06T10:03:28.999Z</time></trkpt><trkpt lat="45.751116270685806" lon="8.560723595387127"><ele>203.16666666666669</ele><time>2026-04-06T10:03:29.999Z</time></trkpt><trkpt lat="45.751054042590184" lon="8.560770085900307"><ele>203.0</ele><time>2026-04-06T10:03:31.999Z</time></trkpt><trkpt lat="45.75099857196502" lon="8.56082722478848"><ele>202.60000000000002</ele><time>2026-04-06T10:03:40.999Z</time></trkpt><trkpt lat="45.75091872079804" lon="8.560889685311775"><ele>202.20000000000002</ele><time>2026-04-06T10:03:42.999Z</time></trkpt><trkpt lat="45.75086364138645" lon="8.560934598038141"><ele>201.8</ele><time>2026-04-06T10:03:43.999Z</time></trkpt><trkpt lat="45.750785829543936" lon="8.560995250745918"><ele>201.4</ele><time>2026-04-06T10:03:44.999Z</time></trkpt><trkpt lat="45.750695449084695" lon="8.561067636332119"><ele>201.0</ele><time>2026-04-06T10:03:45.999Z</time></trkpt><trkpt lat="45.75059780828288" lon="8.56114539560582"><ele>201.25</ele><time>2026-04-06T10:03:46.999Z</time></trkpt><trkpt lat="45.7504887423178" lon="8.56123363749939"><ele>201.5</ele><time>2026-04-06T10:03:47.999Z</time></trkpt><trkpt lat="45.750374218990316" lon="8.561327594913088"><ele>201.75</ele><time>2026-04-06T10:03:48.999Z</time></trkpt><trkpt lat="45.750253670957804" lon="8.561425819733998"><ele>202.0</ele><time>2026-04-06T10:03:49.999Z</time></trkpt><trkpt lat="45.75012449204917" lon="8.56152711876873"><ele>202.0</ele><time>2026-04-06T10:03:50.999Z</time></trkpt><trkpt lat="45.74999355335953" lon="8.561627087117019"><ele>202.0</ele><time>2026-04-06T10:03:51.999Z</time></trkpt><trkpt lat="45.749871346727794" lon="8.561721321964297"><ele>202.0</ele><time>2026-04-06T10:03:52.999Z</time></trkpt><trkpt lat="45.7497603332939" lon="8.561809892126744"><ele>202.0</ele><time>2026-04-06T10:03:53.999Z</time></trkpt><trkpt lat="45.74965371067518" lon="8.561892742593171"><ele>202.0</ele><time>2026-04-06T10:03:54.999Z</time></trkpt><trkpt lat="45.74955166584479" lon="8.561973317773719"><ele>202.0</ele><time>2026-04-06T10:03:55.999Z</time></trkpt><trkpt lat="45.749450637897645" lon="8.562055878668758"><ele>202.0</ele><time>2026-04-06T10:03:56.999Z</time></trkpt><trkpt lat="45.74935314662365" lon="8.562135939741434"><ele>202.0</ele><time>2026-04-06T10:03:57.999Z</time></trkpt><trkpt lat="45.749261531167605" lon="8.562208845421372"><ele>202.0</ele><time>2026-04-06T10:03:58.999Z</time></trkpt><trkpt lat="45.749170734355836" lon="8.56228235207797"><ele>202.0</ele><time>2026-04-06T10:03:59.999Z</time></trkpt><trkpt lat="45.749083742116326" lon="8.562349793138798"><ele>202.0</ele><time>2026-04-06T10:04:00.999Z</time></trkpt><trkpt lat="45.748998027375734" lon="8.562415149750787"><ele>202.0</ele><time>2026-04-06T10:04:01.999Z</time></trkpt><trkpt lat="45.74891583690288" lon="8.562479003986045"><ele>202.0</ele><time>2026-04-06T10:04:02.999Z</time></trkpt><trkpt lat="45.748837138008184" lon="8.562543571615485"><ele>202.0</ele><time>2026-04-06T10:04:03.999Z</time></trkpt><trkpt lat="45.74875517307591" lon="8.562609731125965"><ele>202.0</ele><time>2026-04-06T10:04:04.999Z</time></trkpt><trkpt lat="45.74866924459855" lon="8.562679868469987"><ele>202.0</ele><time>2026-04-06T10:04:05.999Z</time></trkpt><trkpt lat="45.748581091528735" lon="8.562753309831201"><ele>202.0</ele><time>2026-04-06T10:04:06.999Z</time></trkpt><trkpt lat="45.748488078853505" lon="8.562822291322982"><ele>202.0</ele><time>2026-04-06T10:04:07.999Z</time></trkpt><trkpt lat="45.74839152875672" lon="8.56289867944943"><ele>201.75</ele><time>2026-04-06T10:04:08.999Z</time></trkpt><trkpt lat="45.74829899567036" lon="8.562971362220473"><ele>201.5</ele><time>2026-04-06T10:04:09.999Z</time></trkpt><trkpt lat="45.74819844846442" lon="8.56304908934667"><ele>201.25</ele><time>2026-04-06T10:04:10.999Z</time></trkpt><trkpt lat="45.74809244970787" lon="8.563132252709048"><ele>201.0</ele><time>2026-04-06T10:04:11.999Z</time></trkpt><trkpt lat="45.747981329978295" lon="8.563216760568992"><ele>201.0</ele><time>2026-04-06T10:04:12.999Z</time></trkpt><trkpt lat="45.747872293047934" lon="8.563297932437996"><ele>201.0</ele><time>2026-04-06T10:04:13.999Z</time></trkpt><trkpt lat="45.74776742479853" lon="8.563376829690569"><ele>201.0</ele><time>2026-04-06T10:04:14.999Z</time></trkpt><trkpt lat="45.7476645818243" lon="8.563456572914726"><ele>201.0</ele><time>2026-04-06T10:04:15.999Z</time></trkpt><trkpt lat="45.74755927879378" lon="8.56354269924576"><ele>201.0</ele><time>2026-04-06T10:04:16.999Z</time></trkpt><trkpt lat="45.74747082918816" lon="8.563637835884558"><ele>201.0</ele><time>2026-04-06T10:04:17.999Z</time></trkpt><trkpt lat="45.74739590590113" lon="8.56375450661369"><ele>201.0</ele><time>2026-04-06T10:04:18.999Z</time></trkpt><trkpt lat="45.74732553436487" lon="8.563892042684374"><ele>201.0</ele><time>2026-04-06T10:04:19.999Z</time></trkpt><trkpt lat="45.747260690123355" lon="8.564024334029625"><ele>201.0</ele><time>2026-04-06T10:04:20.999Z</time></trkpt><trkpt lat="45.74720454796026" lon="8.564142052286984"><ele>201.0</ele><time>2026-04-06T10:04:21.999Z</time></trkpt><trkpt lat="45.74715427712958" lon="8.564244929007991"><ele>201.0</ele><time>2026-04-06T10:04:22.999Z</time></trkpt><trkpt lat="45.74711034725481" lon="8.564325894426354"><ele>201.0</ele><time>2026-04-06T10:04:23.999Z</time></trkpt><trkpt lat="45.747050558423204" lon="8.564431999617955"><ele>201.0</ele><time>2026-04-06T10:04:25.999Z</time></trkpt><trkpt lat="45.746989543057175" lon="8.564570422164534"><ele>201.0</ele><time>2026-04-06T10:04:32.999Z</time></trkpt><trkpt lat="45.74695646176002" lon="8.564731803722074"><ele>201.0</ele><time>2026-04-06T10:04:34.999Z</time></trkpt><trkpt lat="45.74704612209245" lon="8.564838983852082"><ele>201.0</ele><time>2026-04-06T10:04:36.999Z</time></trkpt><trkpt lat="45.747150779793245" lon="8.56476674585208"><ele>201.0</ele><time>2026-04-06T10:04:38.999Z</time></trkpt><trkpt lat="45.74713759775171" lon="8.564581428937881"><ele>201.0</ele><time>2026-04-06T10:04:40.999Z</time></trkpt><trkpt lat="45.74702600154753" lon="8.564519101221574"><ele>201.0</ele><time>2026-04-06T10:04:42.999Z</time></trkpt><trkpt lat="45.7469689924008" lon="8.564574288043337"><ele>201.0</ele><time>2026-04-06T10:04:43.999Z</time></trkpt><trkpt lat="45.74694722310043" lon="8.564733533111175"><ele>201.0</ele><time>2026-04-06T10:04:45.999Z</time></trkpt><trkpt lat="45.746959879566326" lon="8.564905411396545"><ele>201.0</ele><time>2026-04-06T10:04:47.999Z</time></trkpt><trkpt lat="45.746930652586904" lon="8.565052283346358"><ele>201.0</ele><time>2026-04-06T10:04:49.999Z</time></trkpt><trkpt lat="45.746918115327624" lon="8.565201494181386"><ele>201.0</ele><time>2026-04-06T10:04:51.999Z</time></trkpt><trkpt lat="45.7469434468102" lon="8.565326595502862"><ele>201.0</ele><time>2026-04-06T10:04:53.999Z</time></trkpt><trkpt lat="45.74702372668805" lon="8.565432427353572"><ele>201.0</ele><time>2026-04-06T10:04:55.999Z</time></trkpt><trkpt lat="45.74712581074911" lon="8.565452580313181"><ele>201.0</ele><time>2026-04-06T10:04:57.999Z</time></trkpt><trkpt lat="45.74719582755307" lon="8.565464958254868"><ele>200.4</ele><time>2026-04-06T10:04:59.999Z</time></trkpt><trkpt lat="45.74726301846778" lon="8.565500184634042"><ele>199.8</ele><time>2026-04-06T10:05:04.999Z</time></trkpt><trkpt lat="45.74732790280163" lon="8.565466033637932"><ele>199.20000000000002</ele><time>2026-04-06T10:05:24.999Z</time></trkpt><trkpt lat="45.74752244467565" lon="8.565503643139422"><ele>198.60000000000002</ele><time>2026-04-06T10:05:30.999Z</time></trkpt><trkpt lat="45.74759874049424" lon="8.56551038468776"><ele>198.0</ele><time>2026-04-06T10:05:32.999Z</time></trkpt><trkpt lat="45.74767664632839" lon="8.565517580298952"><ele>198.16666666666666</ele><time>2026-04-06T10:05:34.999Z</time></trkpt><trkpt lat="45.747764014120754" lon="8.565547005464767"><ele>198.33333333333331</ele><time>2026-04-06T10:05:36.999Z</time></trkpt><trkpt lat="45.7478567403395" lon="8.565565343966236"><ele>198.5</ele><time>2026-04-06T10:05:38.999Z</time></trkpt><trkpt lat="45.747944429037105" lon="8.565564866538057"><ele>198.66666666666666</ele><time>2026-04-06T10:05:40.999Z</time></trkpt><trkpt lat="45.74801617461123" lon="8.565549501078667"><ele>198.83333333333331</ele><time>2026-04-06T10:05:43.999Z</time></trkpt><trkpt lat="45.74808941798935" lon="8.565526039773065"><ele>199.0</ele><time>2026-04-06T10:05:47.999Z</time></trkpt><trkpt lat="45.748170088740935" lon="8.5655222834888"><ele>198.99999999999997</ele><time>2026-04-06T10:05:50.999Z</time></trkpt><trkpt lat="45.748269182263954" lon="8.565558892744857"><ele>199.0</ele><time>2026-04-06T10:05:53.999Z</time></trkpt><trkpt lat="45.748364090171236" lon="8.56554038197715"><ele>199.0</ele><time>2026-04-06T10:05:55.999Z</time></trkpt><trkpt lat="45.74844637149839" lon="8.565517369384704"><ele>199.0</ele><time>2026-04-06T10:05:57.999Z</time></trkpt><trkpt lat="45.74850962309661" lon="8.56545249695679"><ele>198.99999999999997</ele><time>2026-04-06T10:05:59.999Z</time></trkpt><trkpt lat="45.74853349747006" lon="8.565334905422606"><ele>199.0</ele><time>2026-04-06T10:06:01.999Z</time></trkpt><trkpt lat="45.74853699847542" lon="8.565169764889161"><ele>199.49999999999997</ele><time>2026-04-06T10:06:03.999Z</time></trkpt><trkpt lat="45.7485363542724" lon="8.565059782226323"><ele>200.0</ele><time>2026-04-06T10:06:04.999Z</time></trkpt><trkpt lat="45.748533890103936" lon="8.564949667216636"><ele>200.5</ele><time>2026-04-06T10:06:05.999Z</time></trkpt><trkpt lat="45.748535566966986" lon="8.564810290079064"><ele>201.0</ele><time>2026-04-06T10:06:07.999Z</time></trkpt><trkpt lat="45.748602961826535" lon="8.564719679692375"><ele>201.49999999999997</ele><time>2026-04-06T10:06:16.999Z</time></trkpt><trkpt lat="45.74867569657634" lon="8.564709701458366"><ele>202.0</ele><time>2026-04-06T10:06:17.999Z</time></trkpt><trkpt lat="45.74874180338052" lon="8.5647043582867"><ele>202.0</ele><time>2026-04-06T10:06:18.999Z</time></trkpt><trkpt lat="45.748817302605914" lon="8.564697540022335"><ele>202.0</ele><time>2026-04-06T10:06:19.999Z</time></trkpt><trkpt lat="45.74889122773021" lon="8.564690906446"><ele>202.0</ele><time>2026-04-06T10:06:20.999Z</time></trkpt><trkpt lat="45.74899386870324" lon="8.564671439606274"><ele>202.0</ele><time>2026-04-06T10:06:21.999Z</time></trkpt><trkpt lat="45.74909950868421" lon="8.564647573928333"><ele>202.0</ele><time>2026-04-06T10:06:22.999Z</time></trkpt><trkpt lat="45.749201267343054" lon="8.564620300298959"><ele>202.0</ele><time>2026-04-06T10:06:23.999Z</time></trkpt><trkpt lat="45.749305129083524" lon="8.564581803304197"><ele>202.0</ele><time>2026-04-06T10:06:24.999Z</time></trkpt><trkpt lat="45.74942793544623" lon="8.564537076544726"><ele>202.0</ele><time>2026-04-06T10:06:25.999Z</time></trkpt><trkpt lat="45.74956192583123" lon="8.564477888991721"><ele>202.0</ele><time>2026-04-06T10:06:26.999Z</time></trkpt><trkpt lat="45.74967926663406" lon="8.564439367328466"><ele>202.0</ele><time>2026-04-06T10:06:27.999Z</time></trkpt><trkpt lat="45.74976100000575" lon="8.564415274689935"><ele>202.0</ele><time>2026-04-06T10:06:28.999Z</time></trkpt><trkpt lat="45.749877980719155" lon="8.564360459572521"><ele>202.0</ele><time>2026-04-06T10:06:30.999Z</time></trkpt><trkpt lat="45.74998654039263" lon="8.56430672205893"><ele>202.0</ele><time>2026-04-06T10:06:32.999Z</time></trkpt><trkpt lat="45.7500841322073" lon="8.564258847325807"><ele>202.0</ele><time>2026-04-06T10:06:34.999Z</time></trkpt><trkpt lat="45.75016818212325" lon="8.564201806640332"><ele>202.0</ele><time>2026-04-06T10:06:36.999Z</time></trkpt><trkpt lat="45.750260517159155" lon="8.564134566317732"><ele>202.0</ele><time>2026-04-06T10:06:38.999Z</time></trkpt><trkpt lat="45.75036385657333" lon="8.56405946662264"><ele>202.0</ele><time>2026-04-06T10:06:40.999Z</time></trkpt><trkpt lat="45.75042415547516" lon="8.564090873852832"><ele>202.0</ele><time>2026-04-06T10:06:41.999Z</time></trkpt><trkpt lat="45.75051233964425" lon="8.564036454233245"><ele>202.0</ele><time>2026-04-06T10:06:43.999Z</time></trkpt><trkpt lat="45.75058816436721" lon="8.563990030918914"><ele>202.0</ele><time>2026-04-06T10:06:45.999Z</time></trkpt><trkpt lat="45.7506839652577" lon="8.563931377328124"><ele>202.0</ele><time>2026-04-06T10:06:47.999Z</time></trkpt><trkpt lat="45.75076208100267" lon="8.563883551378293"><ele>202.0</ele><time>2026-04-06T10:06:49.999Z</time></trkpt><trkpt lat="45.75082378119255" lon="8.563845829392623"><ele>202.0</ele><time>2026-04-06T10:06:51.999Z</time></trkpt><trkpt lat="45.75090819985781" lon="8.5637945997819"><ele>202.0</ele><time>2026-04-06T10:06:53.999Z</time></trkpt><trkpt lat="45.75101141114425" lon="8.563731965880256"><ele>201.66666666666666</ele><time>2026-04-06T10:06:55.999Z</time></trkpt><trkpt lat="45.751071203650845" lon="8.563695666565748"><ele>201.33333333333331</ele><time>2026-04-06T10:06:56.999Z</time></trkpt><trkpt lat="45.75117369656026" lon="8.56363335038352"><ele>201.0</ele><time>2026-04-06T10:06:58.999Z</time></trkpt><trkpt lat="45.75126804735404" lon="8.563575984518911"><ele>200.66666666666669</ele><time>2026-04-06T10:07:00.999Z</time></trkpt><trkpt lat="45.751340960206385" lon="8.563531653192987"><ele>200.33333333333334</ele><time>2026-04-06T10:07:01.999Z</time></trkpt><trkpt lat="45.75140824872905" lon="8.56349051718818"><ele>200.0</ele><time>2026-04-06T10:07:02.999Z</time></trkpt><trkpt lat="45.751513383863085" lon="8.56342610635363"><ele>200.00000000000003</ele><time>2026-04-06T10:07:04.999Z</time></trkpt><trkpt lat="45.75162901839124" lon="8.563355286296021"><ele>200.0</ele><time>2026-04-06T10:07:06.999Z</time></trkpt><trkpt lat="45.75169272374" lon="8.56331627029819"><ele>200.0</ele><time>2026-04-06T10:07:07.999Z</time></trkpt><trkpt lat="45.751755876746884" lon="8.56327759240442"><ele>200.0</ele><time>2026-04-06T10:07:08.999Z</time></trkpt><trkpt lat="45.751815368490355" lon="8.563241156912083"><ele>200.00000000000003</ele><time>2026-04-06T10:07:09.999Z</time></trkpt><trkpt lat="45.75191963345506" lon="8.563177282839844"><ele>200.0</ele><time>2026-04-06T10:07:11.999Z</time></trkpt><trkpt lat="45.75199232429075" lon="8.563132517194559"><ele>200.2</ele><time>2026-04-06T10:07:12.999Z</time></trkpt><trkpt lat="45.75206806041868" lon="8.563085288729223"><ele>200.4</ele><time>2026-04-06T10:07:13.999Z</time></trkpt><trkpt lat="45.752167525813825" lon="8.563024131533126"><ele>200.60000000000002</ele><time>2026-04-06T10:07:14.999Z</time></trkpt><trkpt lat="45.752262302666026" lon="8.562965617409143"><ele>200.8</ele><time>2026-04-06T10:07:15.999Z</time></trkpt><trkpt lat="45.752345196728875" lon="8.562916467601953"><ele>201.0</ele><time>2026-04-06T10:07:16.999Z</time></trkpt><trkpt lat="45.75241976310522" lon="8.562871788865875"><ele>201.20000000000002</ele><time>2026-04-06T10:07:17.999Z</time></trkpt><trkpt lat="45.75248141616434" lon="8.56283453500601"><ele>201.4</ele><time>2026-04-06T10:07:18.999Z</time></trkpt><trkpt lat="45.752586027556546" lon="8.562770990123616"><ele>201.6</ele><time>2026-04-06T10:07:20.999Z</time></trkpt><trkpt lat="45.752682673672474" lon="8.562711767145199"><ele>201.8</ele><time>2026-04-06T10:07:22.999Z</time></trkpt><trkpt lat="45.752782430084046" lon="8.562650456102812"><ele>202.0</ele><time>2026-04-06T10:07:24.999Z</time></trkpt><trkpt lat="45.75289400433804" lon="8.562582352255221"><ele>202.0</ele><time>2026-04-06T10:07:26.999Z</time></trkpt><trkpt lat="45.7529773610004" lon="8.562531590683498"><ele>202.0</ele><time>2026-04-06T10:07:27.999Z</time></trkpt><trkpt lat="45.75308150876469" lon="8.562467480872488"><ele>202.0</ele><time>2026-04-06T10:07:28.999Z</time></trkpt><trkpt lat="45.75320401092426" lon="8.562391805859857"><ele>202.0</ele><time>2026-04-06T10:07:29.999Z</time></trkpt><trkpt lat="45.75332379476035" lon="8.56231859744912"><ele>202.0</ele><time>2026-04-06T10:07:30.999Z</time></trkpt><trkpt lat="45.75343646611456" lon="8.56224729620689"><ele>202.0</ele><time>2026-04-06T10:07:31.999Z</time></trkpt><trkpt lat="45.75354202682221" lon="8.562175516596502"><ele>202.0</ele><time>2026-04-06T10:07:32.999Z</time></trkpt><trkpt lat="45.753643487314434" lon="8.562098505869011"><ele>202.0</ele><time>2026-04-06T10:07:33.999Z</time></trkpt><trkpt lat="45.75376152533095" lon="8.562006488865489"><ele>202.0</ele><time>2026-04-06T10:07:34.999Z</time></trkpt><trkpt lat="45.75389012204073" lon="8.561903232767772"><ele>202.0</ele><time>2026-04-06T10:07:35.999Z</time></trkpt><trkpt lat="45.75399684484388" lon="8.561813307294242"><ele>202.0</ele><time>2026-04-06T10:07:36.999Z</time></trkpt><trkpt lat="45.754086470475194" lon="8.561733100468201"><ele>202.0</ele><time>2026-04-06T10:07:37.999Z</time></trkpt><trkpt lat="45.75416701559867" lon="8.561659160377411"><ele>201.99999999999997</ele><time>2026-04-06T10:07:38.999Z</time></trkpt><trkpt lat="45.7542280843767" lon="8.561602025901681"><ele>202.0</ele><time>2026-04-06T10:07:39.999Z</time></trkpt><trkpt lat="45.7543081882378" lon="8.561521244218952"><ele>202.0</ele><time>2026-04-06T10:07:41.999Z</time></trkpt><trkpt lat="45.75438064197817" lon="8.56144500729054"><ele>202.0</ele><time>2026-04-06T10:07:43.999Z</time></trkpt><trkpt lat="45.754445039111374" lon="8.561375339490551"><ele>201.99999999999997</ele><time>2026-04-06T10:07:45.999Z</time></trkpt><trkpt lat="45.754497104350705" lon="8.561316751875628"><ele>202.0</ele><time>2026-04-06T10:07:47.999Z</time></trkpt><trkpt lat="45.75456321871047" lon="8.561239559870787"><ele>201.66666666666666</ele><time>2026-04-06T10:07:50.999Z</time></trkpt><trkpt lat="45.754612394578174" lon="8.56118134519915"><ele>201.33333333333331</ele><time>2026-04-06T10:07:57.999Z</time></trkpt><trkpt lat="45.75463922101899" lon="8.561075447398363"><ele>201.0</ele><time>2026-04-06T10:08:03.999Z</time></trkpt><trkpt lat="45.75470298056774" lon="8.560999532149621"><ele>200.66666666666669</ele><time>2026-04-06T10:08:07.999Z</time></trkpt><trkpt lat="45.75477640245194" lon="8.560918961641669"><ele>200.33333333333334</ele><time>2026-04-06T10:08:10.999Z</time></trkpt><trkpt lat="45.75483673231832" lon="8.560847114831066"><ele>200.0</ele><time>2026-04-06T10:08:12.999Z</time></trkpt><trkpt lat="45.75489137299732" lon="8.560777977558148"><ele>200.0</ele><time>2026-04-06T10:08:14.999Z</time></trkpt><trkpt lat="45.754955329280214" lon="8.560715526987577"><ele>200.0</ele><time>2026-04-06T10:08:16.999Z</time></trkpt><trkpt lat="45.755035822913904" lon="8.560642759885589"><ele>200.0</ele><time>2026-04-06T10:08:18.999Z</time></trkpt><trkpt lat="45.75511964574729" lon="8.560547047831022"><ele>200.0</ele><time>2026-04-06T10:08:20.999Z</time></trkpt><trkpt lat="45.75523117830932" lon="8.560425688768724"><ele>200.0</ele><time>2026-04-06T10:08:22.999Z</time></trkpt><trkpt lat="45.755302900163684" lon="8.560360837808446"><ele>200.16666666666669</ele><time>2026-04-06T10:08:23.999Z</time></trkpt><trkpt lat="45.755380274982265" lon="8.560297588571107"><ele>200.33333333333334</ele><time>2026-04-06T10:08:24.999Z</time></trkpt><trkpt lat="45.75544442033351" lon="8.560245246684447"><ele>200.5</ele><time>2026-04-06T10:08:25.999Z</time></trkpt><trkpt lat="45.75550968985846" lon="8.560195062323256"><ele>200.66666666666669</ele><time>2026-04-06T10:08:26.999Z</time></trkpt><trkpt lat="45.75557598294194" lon="8.560147267863131"><ele>200.83333333333334</ele><time>2026-04-06T10:08:27.999Z</time></trkpt><trkpt lat="45.75564110582467" lon="8.560101260405704"><ele>201.0</ele><time>2026-04-06T10:08:28.999Z</time></trkpt><trkpt lat="45.75570878331178" lon="8.56005582042664"><ele>201.0</ele><time>2026-04-06T10:08:29.999Z</time></trkpt><trkpt lat="45.755785403851014" lon="8.560020898645062"><ele>201.0</ele><time>2026-04-06T10:08:30.999Z</time></trkpt><trkpt lat="45.755858285265596" lon="8.55999151209432"><ele>201.0</ele><time>2026-04-06T10:08:31.999Z</time></trkpt><trkpt lat="45.75592427644007" lon="8.559973945891919"><ele>201.0</ele><time>2026-04-06T10:08:32.999Z</time></trkpt><trkpt lat="45.75604926773387" lon="8.559943396004238"><ele>201.0</ele><time>2026-04-06T10:08:34.999Z</time></trkpt><trkpt lat="45.756120821731606" lon="8.559935771831919"><ele>201.0</ele><time>2026-04-06T10:08:35.999Z</time></trkpt><trkpt lat="45.75619268997575" lon="8.55992598218792"><ele>201.4</ele><time>2026-04-06T10:08:36.999Z</time></trkpt><trkpt lat="45.75630559154134" lon="8.559896622690573"><ele>201.8</ele><time>2026-04-06T10:08:38.999Z</time></trkpt><trkpt lat="45.756401697470615" lon="8.559885231382045"><ele>202.20000000000002</ele><time>2026-04-06T10:08:40.999Z</time></trkpt><trkpt lat="45.75652049532288" lon="8.559882262342894"><ele>202.60000000000002</ele><time>2026-04-06T10:08:42.999Z</time></trkpt><trkpt lat="45.756631928236835" lon="8.559906275064089"><ele>203.0</ele><time>2026-04-06T10:08:44.999Z</time></trkpt><trkpt lat="45.75672236632416" lon="8.559927347704894"><ele>203.00000000000003</ele><time>2026-04-06T10:08:46.999Z</time></trkpt><trkpt lat="45.75681213579594" lon="8.559948832603501"><ele>203.0</ele><time>2026-04-06T10:08:49.999Z</time></trkpt><trkpt lat="45.75688367321446" lon="8.559969317354009"><ele>203.0</ele><time>2026-04-06T10:08:52.999Z</time></trkpt><trkpt lat="45.756951688439294" lon="8.559993458433057"><ele>203.0</ele><time>2026-04-06T10:08:54.999Z</time></trkpt><trkpt lat="45.757026932588225" lon="8.560026291158502"><ele>203.00000000000003</ele><time>2026-04-06T10:08:57.999Z</time></trkpt><trkpt lat="45.7570906600349" lon="8.560053009346232"><ele>203.0</ele><time>2026-04-06T10:09:02.999Z</time></trkpt><trkpt lat="45.75721141461562" lon="8.560094051453673"><ele>203.2</ele><time>2026-04-06T10:09:04.999Z</time></trkpt><trkpt lat="45.757325204675006" lon="8.56013717390482"><ele>203.4</ele><time>2026-04-06T10:09:06.999Z</time></trkpt><trkpt lat="45.75742318119977" lon="8.560173814879317"><ele>203.6</ele><time>2026-04-06T10:09:08.999Z</time></trkpt><trkpt lat="45.75752793905362" lon="8.560209696122788"><ele>203.79999999999998</ele><time>2026-04-06T10:09:10.999Z</time></trkpt><trkpt lat="45.75762347397523" lon="8.560244944198033"><ele>204.0</ele><time>2026-04-06T10:09:12.999Z</time></trkpt><trkpt lat="45.757699072910185" lon="8.560281101057928"><ele>204.16666666666666</ele><time>2026-04-06T10:09:15.999Z</time></trkpt><trkpt lat="45.75777824732609" lon="8.560318360993875"><ele>204.33333333333331</ele><time>2026-04-06T10:09:19.999Z</time></trkpt><trkpt lat="45.757839325439875" lon="8.560381174862105"><ele>204.5</ele><time>2026-04-06T10:09:22.999Z</time></trkpt><trkpt lat="45.757918355575185" lon="8.560407263752305"><ele>204.66666666666666</ele><time>2026-04-06T10:09:25.999Z</time></trkpt><trkpt lat="45.757983045189" lon="8.56041639297589"><ele>204.83333333333331</ele><time>2026-04-06T10:09:27.999Z</time></trkpt><trkpt lat="45.75805825477597" lon="8.560438472031729"><ele>205.0</ele><time>2026-04-06T10:09:32.999Z</time></trkpt><trkpt lat="45.758131225641215" lon="8.560465094401811"><ele>205.33333333333331</ele><time>2026-04-06T10:09:34.999Z</time></trkpt><trkpt lat="45.75822092931918" lon="8.560520533195543"><ele>205.66666666666666</ele><time>2026-04-06T10:09:42.999Z</time></trkpt><trkpt lat="45.75828285418546" lon="8.560557365061713"><ele>206.0</ele><time>2026-04-06T10:09:43.999Z</time></trkpt><trkpt lat="45.75834362371216" lon="8.560590397984155"><ele>206.33333333333331</ele><time>2026-04-06T10:09:44.999Z</time></trkpt><trkpt lat="45.75842970351383" lon="8.560651008684632"><ele>206.66666666666666</ele><time>2026-04-06T10:09:46.999Z</time></trkpt><trkpt lat="45.758493201088605" lon="8.560700803718586"><ele>207.0</ele><time>2026-04-06T10:09:48.999Z</time></trkpt><trkpt lat="45.75853689541102" lon="8.560772989497329"><ele>207.0</ele><time>2026-04-06T10:09:51.999Z</time></trkpt><trkpt lat="45.75856664173677" lon="8.560866397303371"><ele>207.0</ele><time>2026-04-06T10:10:04.999Z</time></trkpt><trkpt lat="45.75855423881036" lon="8.561007629873952"><ele>207.0</ele><time>2026-04-06T10:10:07.999Z</time></trkpt><trkpt lat="45.75853443654204" lon="8.56112759118719"><ele>207.0</ele><time>2026-04-06T10:10:10.999Z</time></trkpt><trkpt lat="45.75851065633794" lon="8.561229455504508"><ele>207.0</ele><time>2026-04-06T10:10:12.999Z</time></trkpt><trkpt lat="45.75851056688606" lon="8.56132207028004"><ele>207.0</ele><time>2026-04-06T10:10:16.999Z</time></trkpt><trkpt lat="45.75842456309171" lon="8.56141790112751"><ele>207.00000000000003</ele><time>2026-04-06T10:13:38.999Z</time></trkpt><trkpt lat="45.75847821724633" lon="8.56136626815143"><ele>207.0</ele><time>2026-04-06T10:14:14.999Z</time></trkpt><trkpt lat="45.75851796434037" lon="8.561292541581526"><ele>207.0</ele><time>2026-04-06T10:14:29.999Z</time></trkpt><trkpt lat="45.758544637994696" lon="8.561202310540923"><ele>207.0</ele><time>2026-04-06T10:14:40.999Z</time></trkpt><trkpt lat="45.75858582955497" lon="8.561126368772944"><ele>207.0</ele><time>2026-04-06T10:14:51.999Z</time></trkpt><trkpt lat="45.75863597502828" lon="8.561070245174506"><ele>207.00000000000003</ele><time>2026-04-06T10:15:01.999Z</time></trkpt><trkpt lat="45.758638784856245" lon="8.561166271719125"><ele>207.0</ele><time>2026-04-06T10:16:21.999Z</time></trkpt><trkpt lat="45.75859353150233" lon="8.561242127390734"><ele>198.0</ele><time>2026-04-06T10:16:29.999Z</time></trkpt><trkpt lat="45.758607012041836" lon="8.561334855291248"><ele>198.0</ele><time>2026-04-06T10:16:39.999Z</time></trkpt><trkpt lat="45.758590330560104" lon="8.561241277465648"><ele>198.0</ele><time>2026-04-06T10:17:06.999Z</time></trkpt><trkpt lat="45.75859904418052" lon="8.561145583358526"><ele>207.0</ele><time>2026-04-06T10:17:16.999Z</time></trkpt><trkpt lat="45.7586355362088" lon="8.561068185937277"><ele>207.0</ele><time>2026-04-06T10:17:24.999Z</time></trkpt></trkseg><trkseg><trkpt lat="45.758182914773165" lon="8.559184001057414"><ele>206.00000000000003</ele><time>2026-04-06T11:37:10Z</time></trkpt><trkpt lat="45.75820916720135" lon="8.559056918950967"><ele>206.0</ele><time>2026-04-06T11:37:11Z</time></trkpt><trkpt lat="45.75822937656953" lon="8.558940228322351"><ele>206.0</ele><time>2026-04-06T11:37:12Z</time></trkpt><trkpt lat="45.758251353010884" lon="8.558841565185933"><ele>206.0</ele><time>2026-04-06T11:37:13Z</time></trkpt><trkpt lat="45.75825633252567" lon="8.55872334558486"><ele>206.00000000000003</ele><time>2026-04-06T11:37:14Z</time></trkpt><trkpt lat="45.758284505020434" lon="8.558614804037278"><ele>206.0</ele><time>2026-04-06T11:37:15Z</time></trkpt><trkpt lat="45.75830860372264" lon="8.558492601220356"><ele>206.60000000000002</ele><time>2026-04-06T11:37:16Z</time></trkpt><trkpt lat="45.758330325269206" lon="8.558391069563767"><ele>207.2</ele><time>2026-04-06T11:37:17Z</time></trkpt><trkpt lat="45.758355449364366" lon="8.55829143576877"><ele>207.8</ele><time>2026-04-06T11:37:18Z</time></trkpt><trkpt lat="45.758425238808144" lon="8.558152873151393"><ele>208.39999999999998</ele><time>2026-04-06T11:37:20Z</time></trkpt><trkpt lat="45.75845915805926" lon="8.55796763232806"><ele>209.0</ele><time>2026-04-06T11:37:22Z</time></trkpt><trkpt lat="45.7584874565291" lon="8.557869051946696"><ele>209.00000000000003</ele><time>2026-04-06T11:37:23Z</time></trkpt><trkpt lat="45.758498151931086" lon="8.557705564268991"><ele>209.0</ele><time>2026-04-06T11:37:24Z</time></trkpt><trkpt lat="45.75854345018966" lon="8.557587472941659"><ele>209.0</ele><time>2026-04-06T11:37:25Z</time></trkpt><trkpt lat="45.75856037001584" lon="8.55746699756112"><ele>209.0</ele><time>2026-04-06T11:37:26Z</time></trkpt><trkpt lat="45.75856835559314" lon="8.557352610415949"><ele>209.00000000000003</ele><time>2026-04-06T11:37:27Z</time></trkpt><trkpt lat="45.75858711739276" lon="8.557249447215593"><ele>209.0</ele><time>2026-04-06T11:37:28Z</time></trkpt><trkpt lat="45.758616066631305" lon="8.557167285667886"><ele>209.66666666666669</ele><time>2026-04-06T11:37:29Z</time></trkpt><trkpt lat="45.758653662783935" lon="8.557085698107375"><ele>210.33333333333334</ele><time>2026-04-06T11:37:30Z</time></trkpt><trkpt lat="45.75874230640042" lon="8.556950473705136"><ele>211.0</ele><time>2026-04-06T11:37:32Z</time></trkpt><trkpt lat="45.758795952635204" lon="8.556888429168565"><ele>211.66666666666669</ele><time>2026-04-06T11:37:33Z</time></trkpt><trkpt lat="45.75883751327913" lon="8.556815565431721"><ele>212.33333333333334</ele><time>2026-04-06T11:37:34Z</time></trkpt><trkpt lat="45.7588831951318" lon="8.55673547645774"><ele>213.0</ele><time>2026-04-06T11:37:35Z</time></trkpt><trkpt lat="45.758911010856096" lon="8.55664935086821"><ele>213.0</ele><time>2026-04-06T11:37:36Z</time></trkpt><trkpt lat="45.75900378144223" lon="8.556524066280451"><ele>213.0</ele><time>2026-04-06T11:37:38Z</time></trkpt><trkpt lat="45.759077377344276" lon="8.556395025394288"><ele>213.0</ele><time>2026-04-06T11:37:40Z</time></trkpt><trkpt lat="45.75910579140061" lon="8.556311496803138"><ele>213.0</ele><time>2026-04-06T11:37:41Z</time></trkpt><trkpt lat="45.759186049219835" lon="8.556177023392705"><ele>213.0</ele><time>2026-04-06T11:37:43Z</time></trkpt><trkpt lat="45.759231500575915" lon="8.55609953139335"><ele>212.99999999999997</ele><time>2026-04-06T11:37:44Z</time></trkpt><trkpt lat="45.75927564321669" lon="8.55602115812999"><ele>213.0</ele><time>2026-04-06T11:37:45Z</time></trkpt><trkpt lat="45.759319904829816" lon="8.555945590848609"><ele>213.0</ele><time>2026-04-06T11:37:46Z</time></trkpt><trkpt lat="45.75936383318381" lon="8.55586605877877"><ele>213.0</ele><time>2026-04-06T11:37:47Z</time></trkpt><trkpt lat="45.75940645098975" lon="8.555791506482636"><ele>213.0</ele><time>2026-04-06T11:37:48Z</time></trkpt><trkpt lat="45.75947356702014" lon="8.555698886364386"><ele>212.99999999999997</ele><time>2026-04-06T11:37:50Z</time></trkpt><trkpt lat="45.75950657577453" lon="8.555616120225354"><ele>213.0</ele><time>2026-04-06T11:37:52Z</time></trkpt><trkpt lat="45.759569688625405" lon="8.555529809303897"><ele>213.33333333333334</ele><time>2026-04-06T11:37:54Z</time></trkpt><trkpt lat="45.75963467899567" lon="8.5553972995686"><ele>213.66666666666669</ele><time>2026-04-06T11:37:56Z</time></trkpt><trkpt lat="45.759681239261596" lon="8.555320899175943"><ele>214.0</ele><time>2026-04-06T11:37:57Z</time></trkpt><trkpt lat="45.759728684354975" lon="8.555247802454753"><ele>214.33333333333334</ele><time>2026-04-06T11:37:58Z</time></trkpt><trkpt lat="45.75977744371261" lon="8.555150341886641"><ele>214.66666666666669</ele><time>2026-04-06T11:37:59Z</time></trkpt><trkpt lat="45.75983004014115" lon="8.555056093881321"><ele>215.0</ele><time>2026-04-06T11:38:00Z</time></trkpt><trkpt lat="45.75988333725454" lon="8.554964414261562"><ele>215.00000000000003</ele><time>2026-04-06T11:38:01Z</time></trkpt><trkpt lat="45.759938074638356" lon="8.554854604453219"><ele>215.0</ele><time>2026-04-06T11:38:02Z</time></trkpt><trkpt lat="45.759997142712756" lon="8.554754472675505"><ele>215.0</ele><time>2026-04-06T11:38:03Z</time></trkpt><trkpt lat="45.76005032704761" lon="8.554646619870462"><ele>215.0</ele><time>2026-04-06T11:38:04Z</time></trkpt><trkpt lat="45.76010989335322" lon="8.554553962783395"><ele>215.00000000000003</ele><time>2026-04-06T11:38:05Z</time></trkpt><trkpt lat="45.760162370902144" lon="8.55446560562029"><ele>215.0</ele><time>2026-04-06T11:38:06Z</time></trkpt><trkpt lat="45.76020891470076" lon="8.554374899724383"><ele>214.8</ele><time>2026-04-06T11:38:07Z</time></trkpt><trkpt lat="45.760254210027064" lon="8.554299228791445"><ele>214.6</ele><time>2026-04-06T11:38:08Z</time></trkpt><trkpt lat="45.76029774277366" lon="8.554229733787178"><ele>214.39999999999998</ele><time>2026-04-06T11:38:09Z</time></trkpt><trkpt lat="45.76037818537083" lon="8.554094358049372"><ele>214.2</ele><time>2026-04-06T11:38:11Z</time></trkpt><trkpt lat="45.76045012238424" lon="8.553972053539615"><ele>214.0</ele><time>2026-04-06T11:38:13Z</time></trkpt><trkpt lat="45.7605178398233" lon="8.55384656986443"><ele>214.00000000000003</ele><time>2026-04-06T11:38:15Z</time></trkpt><trkpt lat="45.76057757447836" lon="8.553737415368266"><ele>214.0</ele><time>2026-04-06T11:38:17Z</time></trkpt><trkpt lat="45.76061829058084" lon="8.553665260515528"><ele>214.0</ele><time>2026-04-06T11:38:19Z</time></trkpt><trkpt lat="45.76065910643718" lon="8.553592813235639"><ele>214.0</ele><time>2026-04-06T11:38:22Z</time></trkpt><trkpt lat="45.76069119376628" lon="8.553505673325136"><ele>214.0</ele><time>2026-04-06T11:38:25Z</time></trkpt><trkpt lat="45.760721722561605" lon="8.553414233608377"><ele>214.00000000000003</ele><time>2026-04-06T11:38:27Z</time></trkpt><trkpt lat="45.760709174176014" lon="8.553305240054415"><ele>214.0</ele><time>2026-04-06T11:38:29Z</time></trkpt><trkpt lat="45.760695782348535" lon="8.553155343747411"><ele>214.42857142857144</ele><time>2026-04-06T11:38:31Z</time></trkpt><trkpt lat="45.760697305438455" lon="8.553064274571456"><ele>214.85714285714286</ele><time>2026-04-06T11:38:32Z</time></trkpt><trkpt lat="45.76070706068519" lon="8.552975063233466"><ele>215.28571428571428</ele><time>2026-04-06T11:38:33Z</time></trkpt><trkpt lat="45.760711591451795" lon="8.552882089251566"><ele>215.71428571428572</ele><time>2026-04-06T11:38:34Z</time></trkpt><trkpt lat="45.76072710252448" lon="8.55278062330974"><ele>216.14285714285714</ele><time>2026-04-06T11:38:35Z</time></trkpt><trkpt lat="45.7607419793526" lon="8.552669803104841"><ele>216.57142857142858</ele><time>2026-04-06T11:38:36Z</time></trkpt><trkpt lat="45.76071811617292" lon="8.55255839532854"><ele>217.0</ele><time>2026-04-06T11:38:37Z</time></trkpt><trkpt lat="45.760697046939185" lon="8.552461460392152"><ele>217.42857142857142</ele><time>2026-04-06T11:38:38Z</time></trkpt><trkpt lat="45.76066863651966" lon="8.552376171500791"><ele>217.85714285714286</ele><time>2026-04-06T11:38:39Z</time></trkpt><trkpt lat="45.760637952366764" lon="8.552297186001395"><ele>218.28571428571428</ele><time>2026-04-06T11:38:40Z</time></trkpt><trkpt lat="45.760605938133885" lon="8.552197659971501"><ele>218.71428571428572</ele><time>2026-04-06T11:38:41Z</time></trkpt><trkpt lat="45.760574650491215" lon="8.552102416249319"><ele>219.14285714285714</ele><time>2026-04-06T11:38:42Z</time></trkpt><trkpt lat="45.760542766520885" lon="8.552009484728446"><ele>219.57142857142856</ele><time>2026-04-06T11:38:43Z</time></trkpt><trkpt lat="45.760502324922015" lon="8.5519176628399"><ele>220.0</ele><time>2026-04-06T11:38:44Z</time></trkpt><trkpt lat="45.76046401797185" lon="8.551821009317933"><ele>221.0</ele><time>2026-04-06T11:38:45Z</time></trkpt><trkpt lat="45.76042840232378" lon="8.55170561756733"><ele>222.0</ele><time>2026-04-06T11:38:46Z</time></trkpt><trkpt lat="45.76039818775116" lon="8.55157141199706"><ele>223.0</ele><time>2026-04-06T11:38:47Z</time></trkpt><trkpt lat="45.760375529054" lon="8.551434765056351"><ele>224.0</ele><time>2026-04-06T11:38:48Z</time></trkpt><trkpt lat="45.760356238891276" lon="8.551294574345262"><ele>225.0</ele><time>2026-04-06T11:38:49Z</time></trkpt><trkpt lat="45.76034045887728" lon="8.551163888866563"><ele>225.66666666666666</ele><time>2026-04-06T11:38:50Z</time></trkpt><trkpt lat="45.76031875947085" lon="8.551042700497142"><ele>226.33333333333331</ele><time>2026-04-06T11:38:51Z</time></trkpt><trkpt lat="45.760302753975935" lon="8.550923555806126"><ele>227.0</ele><time>2026-04-06T11:38:52Z</time></trkpt><trkpt lat="45.760278013721944" lon="8.550815329847588"><ele>227.66666666666666</ele><time>2026-04-06T11:38:53.001Z</time></trkpt><trkpt lat="45.76024009374195" lon="8.55071263182446"><ele>228.33333333333331</ele><time>2026-04-06T11:38:54.001Z</time></trkpt><trkpt lat="45.76019245206473" lon="8.550616745244797"><ele>229.0</ele><time>2026-04-06T11:38:55.001Z</time></trkpt><trkpt lat="45.76017595377954" lon="8.550503238080674"><ele>227.79999999999998</ele><time>2026-04-06T11:38:56.001Z</time></trkpt><trkpt lat="45.76013597668647" lon="8.550397304332003"><ele>226.59999999999997</ele><time>2026-04-06T11:38:57.001Z</time></trkpt><trkpt lat="45.760094428844006" lon="8.550289713976763"><ele>225.4</ele><time>2026-04-06T11:38:58.001Z</time></trkpt><trkpt lat="45.76000668338743" lon="8.550200666766829"><ele>224.2</ele><time>2026-04-06T11:38:59.001Z</time></trkpt><trkpt lat="45.75994241191194" lon="8.550081771220476"><ele>223.0</ele><time>2026-04-06T11:39:00.001Z</time></trkpt><trkpt lat="45.759850283196855" lon="8.550005247454525"><ele>223.0</ele><time>2026-04-06T11:39:01.001Z</time></trkpt><trkpt lat="45.75976792291437" lon="8.549915041470815"><ele>223.0</ele><time>2026-04-06T11:39:02.001Z</time></trkpt><trkpt lat="45.759675686063915" lon="8.549822551483325"><ele>223.0</ele><time>2026-04-06T11:39:03.001Z</time></trkpt><trkpt lat="45.75958588668084" lon="8.549714809616587"><ele>223.0</ele><time>2026-04-06T11:39:04.001Z</time></trkpt><trkpt lat="45.759503784989796" lon="8.549613923027957"><ele>223.0</ele><time>2026-04-06T11:39:05.001Z</time></trkpt><trkpt lat="45.75942488125278" lon="8.549521298521489"><ele>223.2</ele><time>2026-04-06T11:39:06Z</time></trkpt><trkpt lat="45.75934633569125" lon="8.549428802463872"><ele>223.4</ele><time>2026-04-06T11:39:07Z</time></trkpt><trkpt lat="45.759267364249254" lon="8.54934018323986"><ele>223.59999999999997</ele><time>2026-04-06T11:39:08Z</time></trkpt><trkpt lat="45.75918250775902" lon="8.549248252430438"><ele>223.79999999999998</ele><time>2026-04-06T11:39:09Z</time></trkpt><trkpt lat="45.75908866275744" lon="8.549149784846533"><ele>224.0</ele><time>2026-04-06T11:39:10Z</time></trkpt><trkpt lat="45.7589952026047" lon="8.549048476683561"><ele>224.0</ele><time>2026-04-06T11:39:11Z</time></trkpt><trkpt lat="45.75891329160968" lon="8.548954614098717"><ele>223.99999999999997</ele><time>2026-04-06T11:39:12Z</time></trkpt><trkpt lat="45.75883859355203" lon="8.548860510493316"><ele>223.99999999999997</ele><time>2026-04-06T11:39:13Z</time></trkpt><trkpt lat="45.758764753910945" lon="8.548764320003077"><ele>224.0</ele><time>2026-04-06T11:39:14Z</time></trkpt><trkpt lat="45.75868914942897" lon="8.548671057323322"><ele>224.0</ele><time>2026-04-06T11:39:15Z</time></trkpt><trkpt lat="45.75861285356383" lon="8.548583364645213"><ele>224.2</ele><time>2026-04-06T11:39:16Z</time></trkpt><trkpt lat="45.75853679020189" lon="8.548495019785957"><ele>224.39999999999998</ele><time>2026-04-06T11:39:17Z</time></trkpt><trkpt lat="45.75846239425757" lon="8.548414109092173"><ele>224.6</ele><time>2026-04-06T11:39:18Z</time></trkpt><trkpt lat="45.75838679779121" lon="8.548337021779881"><ele>224.8</ele><time>2026-04-06T11:39:19Z</time></trkpt><trkpt lat="45.758303527251186" lon="8.548256237868621"><ele>225.0</ele><time>2026-04-06T11:39:20Z</time></trkpt><trkpt lat="45.75821603932299" lon="8.548173284445928"><ele>225.0</ele><time>2026-04-06T11:39:21Z</time></trkpt><trkpt lat="45.75812397989475" lon="8.548087852046846"><ele>225.0</ele><time>2026-04-06T11:39:22Z</time></trkpt><trkpt lat="45.758029621702924" lon="8.54799395078496"><ele>225.0</ele><time>2026-04-06T11:39:23Z</time></trkpt><trkpt lat="45.75792886864377" lon="8.547895914331667"><ele>225.0</ele><time>2026-04-06T11:39:24Z</time></trkpt><trkpt lat="45.75782712451993" lon="8.547805070351652"><ele>225.0</ele><time>2026-04-06T11:39:25Z</time></trkpt><trkpt lat="45.75773244138061" lon="8.547705658120638"><ele>225.0</ele><time>2026-04-06T11:39:26Z</time></trkpt><trkpt lat="45.757637656584265" lon="8.547622888145046"><ele>225.0</ele><time>2026-04-06T11:39:27Z</time></trkpt><trkpt lat="45.757553927074134" lon="8.5475271922351"><ele>225.0</ele><time>2026-04-06T11:39:28Z</time></trkpt><trkpt lat="45.75747156772505" lon="8.547430437275876"><ele>225.0</ele><time>2026-04-06T11:39:29Z</time></trkpt><trkpt lat="45.75739031836644" lon="8.547331893482271"><ele>224.8</ele><time>2026-04-06T11:39:30Z</time></trkpt><trkpt lat="45.757304882540254" lon="8.547241388252006"><ele>224.6</ele><time>2026-04-06T11:39:31Z</time></trkpt><trkpt lat="45.7572059180199" lon="8.547175433349663"><ele>224.39999999999998</ele><time>2026-04-06T11:39:32Z</time></trkpt><trkpt lat="45.75710361292407" lon="8.547135646649174"><ele>224.2</ele><time>2026-04-06T11:39:33Z</time></trkpt><trkpt lat="45.756999689909435" lon="8.547117684038707"><ele>224.0</ele><time>2026-04-06T11:39:34Z</time></trkpt><trkpt lat="45.756909089097114" lon="8.547105994630291"><ele>223.6</ele><time>2026-04-06T11:39:35Z</time></trkpt><trkpt lat="45.75683617353816" lon="8.547095068086238"><ele>223.2</ele><time>2026-04-06T11:39:36Z</time></trkpt><trkpt lat="45.7567354046819" lon="8.547075864440844"><ele>222.79999999999998</ele><time>2026-04-06T11:39:38Z</time></trkpt><trkpt lat="45.75663092571051" lon="8.54704070128964"><ele>222.39999999999998</ele><time>2026-04-06T11:39:40Z</time></trkpt><trkpt lat="45.75651637756077" lon="8.54703449894291"><ele>222.0</ele><time>2026-04-06T11:39:42Z</time></trkpt><trkpt lat="45.75639798222863" lon="8.547057417700644"><ele>221.6</ele><time>2026-04-06T11:39:44Z</time></trkpt><trkpt lat="45.75634557939654" lon="8.547160989504114"><ele>221.2</ele><time>2026-04-06T11:39:45Z</time></trkpt><trkpt lat="45.75626762130056" lon="8.547225180273038"><ele>220.8</ele><time>2026-04-06T11:39:46Z</time></trkpt><trkpt lat="45.75616736748147" lon="8.547242932667094"><ele>220.4</ele><time>2026-04-06T11:39:47Z</time></trkpt><trkpt lat="45.75605957750767" lon="8.547293036364637"><ele>220.0</ele><time>2026-04-06T11:39:48Z</time></trkpt><trkpt lat="45.75593581085444" lon="8.547322723144754"><ele>219.0</ele><time>2026-04-06T11:39:49Z</time></trkpt><trkpt lat="45.75580216281743" lon="8.547361565115926"><ele>218.0</ele><time>2026-04-06T11:39:50Z</time></trkpt><trkpt lat="45.75566411519511" lon="8.547407496457279"><ele>217.0</ele><time>2026-04-06T11:39:51Z</time></trkpt><trkpt lat="45.755526827252275" lon="8.547455666079848"><ele>216.0</ele><time>2026-04-06T11:39:52Z</time></trkpt><trkpt lat="45.75538807924117" lon="8.547503607947503"><ele>216.0</ele><time>2026-04-06T11:39:53Z</time></trkpt><trkpt lat="45.75524698143004" lon="8.547551192063436"><ele>216.0</ele><time>2026-04-06T11:39:54Z</time></trkpt><trkpt lat="45.75510317366705" lon="8.547586732590403"><ele>216.0</ele><time>2026-04-06T11:39:55Z</time></trkpt><trkpt lat="45.75497130830929" lon="8.547611172814387"><ele>216.0</ele><time>2026-04-06T11:39:56Z</time></trkpt><trkpt lat="45.754850290880725" lon="8.547620811513289"><ele>216.20000000000002</ele><time>2026-04-06T11:39:57Z</time></trkpt><trkpt lat="45.7547483366206" lon="8.547627292651148"><ele>216.40000000000003</ele><time>2026-04-06T11:39:58Z</time></trkpt><trkpt lat="45.754668138937774" lon="8.547618082395962"><ele>216.6</ele><time>2026-04-06T11:39:59Z</time></trkpt><trkpt lat="45.75455137293718" lon="8.547550394118396"><ele>216.8</ele><time>2026-04-06T11:40:01Z</time></trkpt><trkpt lat="45.754502419871855" lon="8.547460070213333"><ele>217.0</ele><time>2026-04-06T11:40:02Z</time></trkpt><trkpt lat="45.75447053679462" lon="8.547330834742064"><ele>217.0</ele><time>2026-04-06T11:40:03Z</time></trkpt><trkpt lat="45.75444778170167" lon="8.547172013734999"><ele>217.0</ele><time>2026-04-06T11:40:04Z</time></trkpt><trkpt lat="45.75443704587745" lon="8.546999570058565"><ele>217.0</ele><time>2026-04-06T11:40:05Z</time></trkpt><trkpt lat="45.754438911213384" lon="8.546808630526563"><ele>217.0</ele><time>2026-04-06T11:40:06Z</time></trkpt><trkpt lat="45.75444941987812" lon="8.546601967472897"><ele>217.0</ele><time>2026-04-06T11:40:07Z</time></trkpt><trkpt lat="45.754471342944164" lon="8.546390481700247"><ele>217.0</ele><time>2026-04-06T11:40:08Z</time></trkpt><trkpt lat="45.754498572802156" lon="8.546167490977169"><ele>217.0</ele><time>2026-04-06T11:40:09Z</time></trkpt><trkpt lat="45.754523230648736" lon="8.545950494198772"><ele>217.25</ele><time>2026-04-06T11:40:10Z</time></trkpt><trkpt lat="45.75454480751093" lon="8.545736774892712"><ele>217.5</ele><time>2026-04-06T11:40:11Z</time></trkpt><trkpt lat="45.75456174074416" lon="8.545533428834425"><ele>217.75</ele><time>2026-04-06T11:40:12Z</time></trkpt><trkpt lat="45.75457311420443" lon="8.545349850998198"><ele>218.0</ele><time>2026-04-06T11:40:13Z</time></trkpt><trkpt lat="45.75458358447724" lon="8.54518104816816"><ele>218.5</ele><time>2026-04-06T11:40:14Z</time></trkpt><trkpt lat="45.75458460242166" lon="8.545006788727113"><ele>219.0</ele><time>2026-04-06T11:40:15Z</time></trkpt><trkpt lat="45.754568532097466" lon="8.54481376413047"><ele>219.5</ele><time>2026-04-06T11:40:16Z</time></trkpt><trkpt lat="45.754535796272414" lon="8.544612072944618"><ele>220.0</ele><time>2026-04-06T11:40:17Z</time></trkpt><trkpt lat="45.75448576651413" lon="8.544403501536861"><ele>220.33333333333331</ele><time>2026-04-06T11:40:18Z</time></trkpt><trkpt lat="45.75441795715465" lon="8.54420252800034"><ele>220.66666666666669</ele><time>2026-04-06T11:40:19Z</time></trkpt><trkpt lat="45.75434154844883" lon="8.544016091257106"><ele>221.0</ele><time>2026-04-06T11:40:20Z</time></trkpt><trkpt lat="45.7542579928158" lon="8.543842928497048"><ele>222.66666666666669</ele><time>2026-04-06T11:40:21Z</time></trkpt><trkpt lat="45.75416506186847" lon="8.54367397643547"><ele>224.33333333333331</ele><time>2026-04-06T11:40:22Z</time></trkpt><trkpt lat="45.75405763360348" lon="8.543494553301414"><ele>226.0</ele><time>2026-04-06T11:40:23Z</time></trkpt><trkpt lat="45.753946562904765" lon="8.543309188613115"><ele>226.0</ele><time>2026-04-06T11:40:24Z</time></trkpt><trkpt lat="45.75383808080141" lon="8.543127228840548"><ele>226.0</ele><time>2026-04-06T11:40:25Z</time></trkpt><trkpt lat="45.75373276736248" lon="8.542952133869615"><ele>226.0</ele><time>2026-04-06T11:40:26Z</time></trkpt><trkpt lat="45.75362804574036" lon="8.542776649472541"><ele>225.66666666666666</ele><time>2026-04-06T11:40:27Z</time></trkpt><trkpt lat="45.75353076574749" lon="8.542609830398714"><ele>225.33333333333331</ele><time>2026-04-06T11:40:28Z</time></trkpt><trkpt lat="45.753433577611396" lon="8.54244805013949"><ele>225.0</ele><time>2026-04-06T11:40:29Z</time></trkpt><trkpt lat="45.75333259067054" lon="8.542274987936255"><ele>225.0</ele><time>2026-04-06T11:40:30Z</time></trkpt><trkpt lat="45.75323528992088" lon="8.54210434426549"><ele>225.0</ele><time>2026-04-06T11:40:31Z</time></trkpt><trkpt lat="45.75313703628092" lon="8.541929665650835"><ele>225.0</ele><time>2026-04-06T11:40:32Z</time></trkpt><trkpt lat="45.75303660811317" lon="8.541747128199672"><ele>225.0</ele><time>2026-04-06T11:40:33Z</time></trkpt><trkpt lat="45.752931333360586" lon="8.54155204931639"><ele>225.0</ele><time>2026-04-06T11:40:34Z</time></trkpt><trkpt lat="45.752822390063294" lon="8.54133751213533"><ele>225.0</ele><time>2026-04-06T11:40:35Z</time></trkpt><trkpt lat="45.752711911975226" lon="8.541109504368178"><ele>225.0</ele><time>2026-04-06T11:40:36Z</time></trkpt><trkpt lat="45.7525940256858" lon="8.54086413066108"><ele>225.0</ele><time>2026-04-06T11:40:37Z</time></trkpt><trkpt lat="45.75248381022229" lon="8.540592356801202"><ele>225.0</ele><time>2026-04-06T11:40:38Z</time></trkpt><trkpt lat="45.75235606318899" lon="8.540319946413966"><ele>225.0</ele><time>2026-04-06T11:40:39Z</time></trkpt><trkpt lat="45.75221728415968" lon="8.540056327325475"><ele>225.0</ele><time>2026-04-06T11:40:40Z</time></trkpt><trkpt lat="45.75209225277937" lon="8.539783890340427"><ele>225.0</ele><time>2026-04-06T11:40:41Z</time></trkpt><trkpt lat="45.751964656626264" lon="8.53950843994002"><ele>225.0</ele><time>2026-04-06T11:40:42Z</time></trkpt><trkpt lat="45.75183692742522" lon="8.53923300944545"><ele>228.5</ele><time>2026-04-06T11:40:43Z</time></trkpt><trkpt lat="45.75171415898942" lon="8.538956223100353"><ele>232.0</ele><time>2026-04-06T11:40:44Z</time></trkpt><trkpt lat="45.751609406841574" lon="8.538664086758684"><ele>232.33333333333331</ele><time>2026-04-06T11:40:45Z</time></trkpt><trkpt lat="45.751538996766385" lon="8.538362607761652"><ele>232.66666666666669</ele><time>2026-04-06T11:40:46Z</time></trkpt><trkpt lat="45.751494663019685" lon="8.538047256309918"><ele>233.0</ele><time>2026-04-06T11:40:47Z</time></trkpt><trkpt lat="45.75146193816583" lon="8.537734295708852"><ele>237.33333333333334</ele><time>2026-04-06T11:40:48Z</time></trkpt><trkpt lat="45.75142509939017" lon="8.537472319120488"><ele>241.66666666666669</ele><time>2026-04-06T11:40:49Z</time></trkpt><trkpt lat="45.7513688504182" lon="8.537250354923025"><ele>246.0</ele><time>2026-04-06T11:40:50Z</time></trkpt><trkpt lat="45.751280155226205" lon="8.537058038691864"><ele>248.66666666666669</ele><time>2026-04-06T11:40:51Z</time></trkpt><trkpt lat="45.751146469659794" lon="8.536902076886344"><ele>251.33333333333334</ele><time>2026-04-06T11:40:52Z</time></trkpt><trkpt lat="45.7509898885151" lon="8.536774864180613"><ele>254.0</ele><time>2026-04-06T11:40:53Z</time></trkpt><trkpt lat="45.75081843149342" lon="8.536699513210387"><ele>255.66666666666669</ele><time>2026-04-06T11:40:54Z</time></trkpt><trkpt lat="45.75064457049936" lon="8.536689204238893"><ele>257.3333333333333</ele><time>2026-04-06T11:40:55Z</time></trkpt><trkpt lat="45.750470106679686" lon="8.536737186523888"><ele>259.0</ele><time>2026-04-06T11:40:56Z</time></trkpt><trkpt lat="45.750307003325254" lon="8.536856847203714"><ele>261.0</ele><time>2026-04-06T11:40:57Z</time></trkpt><trkpt lat="45.750173761162266" lon="8.53702626777674"><ele>263.0</ele><time>2026-04-06T11:40:58.001Z</time></trkpt><trkpt lat="45.750063363113185" lon="8.53725025587887"><ele>265.0</ele><time>2026-04-06T11:40:59.001Z</time></trkpt><trkpt lat="45.749976997093775" lon="8.53750036839926"><ele>265.0</ele><time>2026-04-06T11:41:00.001Z</time></trkpt><trkpt lat="45.74989334401438" lon="8.537742453030473"><ele>265.0</ele><time>2026-04-06T11:41:01.001Z</time></trkpt><trkpt lat="45.74981542939406" lon="8.537986932645325"><ele>265.0</ele><time>2026-04-06T11:41:02.001Z</time></trkpt><trkpt lat="45.74974418515112" lon="8.538213306917324"><ele>263.5</ele><time>2026-04-06T11:41:03.001Z</time></trkpt><trkpt lat="45.749672001450335" lon="8.538415361209099"><ele>262.0</ele><time>2026-04-06T11:41:04.001Z</time></trkpt><trkpt lat="45.74959109820755" lon="8.538578368209343"><ele>260.5</ele><time>2026-04-06T11:41:05.001Z</time></trkpt><trkpt lat="45.74949033214637" lon="8.538685681088685"><ele>259.0</ele><time>2026-04-06T11:41:06.001Z</time></trkpt><trkpt lat="45.74936647649307" lon="8.538735000609629"><ele>261.25</ele><time>2026-04-06T11:41:07.001Z</time></trkpt><trkpt lat="45.74922987410351" lon="8.53869803455927"><ele>263.5</ele><time>2026-04-06T11:41:08.001Z</time></trkpt><trkpt lat="45.749111958177544" lon="8.538592756215051"><ele>265.75</ele><time>2026-04-06T11:41:09.001Z</time></trkpt><trkpt lat="45.749030085684716" lon="8.538440400551082"><ele>268.0</ele><time>2026-04-06T11:41:10.001Z</time></trkpt><trkpt lat="45.74898772785063" lon="8.538251897491655"><ele>268.0</ele><time>2026-04-06T11:41:11.001Z</time></trkpt><trkpt lat="45.74898780836535" lon="8.538031479783475"><ele>268.0</ele><time>2026-04-06T11:41:12.001Z</time></trkpt><trkpt lat="45.749001380396834" lon="8.537794948506908"><ele>268.0</ele><time>2026-04-06T11:41:13.001Z</time></trkpt><trkpt lat="45.7490090711146" lon="8.537551577189353"><ele>270.66666666666663</ele><time>2026-04-06T11:41:14.001Z</time></trkpt><trkpt lat="45.74900898175792" lon="8.537313052543077"><ele>273.3333333333333</ele><time>2026-04-06T11:41:15.001Z</time></trkpt><trkpt lat="45.74900857483041" lon="8.537057164186983"><ele>276.0</ele><time>2026-04-06T11:41:16.001Z</time></trkpt><trkpt lat="45.74900951867821" lon="8.536793263384753"><ele>278.3333333333333</ele><time>2026-04-06T11:41:17.001Z</time></trkpt><trkpt lat="45.7490099781602" lon="8.536519835608278"><ele>280.66666666666663</ele><time>2026-04-06T11:41:18.001Z</time></trkpt><trkpt lat="45.74900867750464" lon="8.5362400473653"><ele>283.0</ele><time>2026-04-06T11:41:19.001Z</time></trkpt><trkpt lat="45.74900945102412" lon="8.535963531265237"><ele>284.66666666666663</ele><time>2026-04-06T11:41:20.001Z</time></trkpt><trkpt lat="45.749010125626064" lon="8.535683024215643"><ele>286.3333333333333</ele><time>2026-04-06T11:41:21.001Z</time></trkpt><trkpt lat="45.74901198453341" lon="8.535399291728847"><ele>288.0</ele><time>2026-04-06T11:41:22.001Z</time></trkpt><trkpt lat="45.74901368855437" lon="8.535111716378596"><ele>289.0</ele><time>2026-04-06T11:41:23.001Z</time></trkpt><trkpt lat="45.749016967491926" lon="8.534821502236685"><ele>290.0</ele><time>2026-04-06T11:41:24.001Z</time></trkpt><trkpt lat="45.7490181124043" lon="8.534530479960242"><ele>291.0</ele><time>2026-04-06T11:41:25.001Z</time></trkpt><trkpt lat="45.749017802843206" lon="8.534238630084955"><ele>292.3333333333333</ele><time>2026-04-06T11:41:26.001Z</time></trkpt><trkpt lat="45.74901853425256" lon="8.533942814982261"><ele>293.66666666666663</ele><time>2026-04-06T11:41:27.001Z</time></trkpt><trkpt lat="45.74901926379581" lon="8.533649534355037"><ele>295.0</ele><time>2026-04-06T11:41:28.001Z</time></trkpt><trkpt lat="45.749021761299254" lon="8.533364565656132"><ele>295.0</ele><time>2026-04-06T11:41:29Z</time></trkpt><trkpt lat="45.74901967125522" lon="8.53309378807395"><ele>295.0</ele><time>2026-04-06T11:41:30Z</time></trkpt><trkpt lat="45.74901921877227" lon="8.532824702772734"><ele>295.0</ele><time>2026-04-06T11:41:31Z</time></trkpt><trkpt lat="45.749018043382726" lon="8.532569434953022"><ele>297.0</ele><time>2026-04-06T11:41:32Z</time></trkpt><trkpt lat="45.7490189046239" lon="8.532306993780592"><ele>299.0</ele><time>2026-04-06T11:41:33Z</time></trkpt><trkpt lat="45.749016614253804" lon="8.532048973645614"><ele>301.0</ele><time>2026-04-06T11:41:34Z</time></trkpt><trkpt lat="45.74901361044347" lon="8.53180400763763"><ele>301.25</ele><time>2026-04-06T11:41:35Z</time></trkpt><trkpt lat="45.749009594441596" lon="8.531572593466965"><ele>301.5</ele><time>2026-04-06T11:41:36Z</time></trkpt><trkpt lat="45.749009363929815" lon="8.53136429768154"><ele>301.75</ele><time>2026-04-06T11:41:37Z</time></trkpt><trkpt lat="45.749007419329146" lon="8.53116791886929"><ele>302.0</ele><time>2026-04-06T11:41:38Z</time></trkpt><trkpt lat="45.74899932784499" lon="8.530970352962791"><ele>301.5</ele><time>2026-04-06T11:41:39Z</time></trkpt><trkpt lat="45.74899565763507" lon="8.53078065322993"><ele>301.0</ele><time>2026-04-06T11:41:40Z</time></trkpt><trkpt lat="45.748995063318574" lon="8.530606876164784"><ele>300.5</ele><time>2026-04-06T11:41:41Z</time></trkpt><trkpt lat="45.7490003638538" lon="8.530445973920672"><ele>300.0</ele><time>2026-04-06T11:41:42Z</time></trkpt><trkpt lat="45.74901629441171" lon="8.53028786204127"><ele>300.0</ele><time>2026-04-06T11:41:43Z</time></trkpt><trkpt lat="45.74904568069358" lon="8.530133647341701"><ele>300.0</ele><time>2026-04-06T11:41:44Z</time></trkpt><trkpt lat="45.74907684302542" lon="8.529993511190002"><ele>300.0</ele><time>2026-04-06T11:41:45Z</time></trkpt><trkpt lat="45.749106847855934" lon="8.529863663409214"><ele>300.0</ele><time>2026-04-06T11:41:46Z</time></trkpt><trkpt lat="45.74913440021965" lon="8.529729487822022"><ele>300.0</ele><time>2026-04-06T11:41:47Z</time></trkpt><trkpt lat="45.74914884397657" lon="8.529595336864373"><ele>300.2</ele><time>2026-04-06T11:41:48Z</time></trkpt><trkpt lat="45.74914831721015" lon="8.529461072834337"><ele>300.4</ele><time>2026-04-06T11:41:49Z</time></trkpt><trkpt lat="45.74913830431828" lon="8.52932289144992"><ele>300.6</ele><time>2026-04-06T11:41:50Z</time></trkpt><trkpt lat="45.749114679493545" lon="8.529183408037545"><ele>300.8</ele><time>2026-04-06T11:41:51Z</time></trkpt><trkpt lat="45.74908650176642" lon="8.52904512944762"><ele>301.0</ele><time>2026-04-06T11:41:52Z</time></trkpt><trkpt lat="45.74904951268602" lon="8.528909583447751"><ele>301.0</ele><time>2026-04-06T11:41:53Z</time></trkpt><trkpt lat="45.749004482875094" lon="8.528776805314653"><ele>301.0</ele><time>2026-04-06T11:41:54Z</time></trkpt><trkpt lat="45.748944777503425" lon="8.528648019498357"><ele>301.0</ele><time>2026-04-06T11:41:55Z</time></trkpt><trkpt lat="45.74887868063499" lon="8.528518181071417"><ele>301.0</ele><time>2026-04-06T11:41:56Z</time></trkpt><trkpt lat="45.748813108358945" lon="8.528393052978783"><ele>301.0</ele><time>2026-04-06T11:41:57Z</time></trkpt><trkpt lat="45.748750958527964" lon="8.528271140803618"><ele>299.6</ele><time>2026-04-06T11:41:58Z</time></trkpt><trkpt lat="45.748690710864295" lon="8.528154734106591"><ele>298.20000000000005</ele><time>2026-04-06T11:41:59Z</time></trkpt><trkpt lat="45.74863259106206" lon="8.528042958852438"><ele>296.79999999999995</ele><time>2026-04-06T11:42:00Z</time></trkpt><trkpt lat="45.74857964123307" lon="8.527936698259364"><ele>295.4</ele><time>2026-04-06T11:42:01Z</time></trkpt><trkpt lat="45.748529591611565" lon="8.527838852437206"><ele>294.0</ele><time>2026-04-06T11:42:02Z</time></trkpt><trkpt lat="45.74848120631147" lon="8.527745464471034"><ele>294.0</ele><time>2026-04-06T11:42:03Z</time></trkpt><trkpt lat="45.74842870828335" lon="8.527647060921822"><ele>294.0</ele><time>2026-04-06T11:42:04Z</time></trkpt><trkpt lat="45.74837336151558" lon="8.527540669064022"><ele>294.0</ele><time>2026-04-06T11:42:05Z</time></trkpt><trkpt lat="45.74831160672832" lon="8.527418270350601"><ele>294.0</ele><time>2026-04-06T11:42:06Z</time></trkpt><trkpt lat="45.74824586553081" lon="8.527285386419804"><ele>294.0</ele><time>2026-04-06T11:42:07Z</time></trkpt><trkpt lat="45.74817265833516" lon="8.527139399486874"><ele>293.75</ele><time>2026-04-06T11:42:08Z</time></trkpt><trkpt lat="45.74810124772059" lon="8.527000950601256"><ele>293.5</ele><time>2026-04-06T11:42:09Z</time></trkpt><trkpt lat="45.74803258319189" lon="8.526865424063192"><ele>293.25</ele><time>2026-04-06T11:42:10Z</time></trkpt><trkpt lat="45.74796057523217" lon="8.526725870321707"><ele>293.0</ele><time>2026-04-06T11:42:11Z</time></trkpt><trkpt lat="45.7478809569103" lon="8.526574739912833"><ele>293.0</ele><time>2026-04-06T11:42:12Z</time></trkpt><trkpt lat="45.7478010586364" lon="8.526423457861657"><ele>293.0</ele><time>2026-04-06T11:42:13Z</time></trkpt><trkpt lat="45.747721545249476" lon="8.526267261489084"><ele>293.0</ele><time>2026-04-06T11:42:14Z</time></trkpt><trkpt lat="45.74764310457846" lon="8.52611386453635"><ele>293.0</ele><time>2026-04-06T11:42:15Z</time></trkpt><trkpt lat="45.74756846321401" lon="8.525964894197188"><ele>293.2</ele><time>2026-04-06T11:42:16Z</time></trkpt><trkpt lat="45.74749714926746" lon="8.525824641713665"><ele>293.4</ele><time>2026-04-06T11:42:17Z</time></trkpt><trkpt lat="45.74743138936027" lon="8.525688613043666"><ele>293.59999999999997</ele><time>2026-04-06T11:42:18Z</time></trkpt><trkpt lat="45.74737126373135" lon="8.525563610481997"><ele>293.8</ele><time>2026-04-06T11:42:19Z</time></trkpt><trkpt lat="45.74732085991764" lon="8.525460050649627"><ele>294.0</ele><time>2026-04-06T11:42:20Z</time></trkpt><trkpt lat="45.74727822635292" lon="8.525373200096599"><ele>294.0</ele><time>2026-04-06T11:42:21Z</time></trkpt><trkpt lat="45.747233736112584" lon="8.52528929347482"><ele>294.0</ele><time>2026-04-06T11:42:22Z</time></trkpt><trkpt lat="45.74718350078286" lon="8.52521018224334"><ele>294.0</ele><time>2026-04-06T11:42:23Z</time></trkpt><trkpt lat="45.747127351587814" lon="8.525137332000806"><ele>294.0</ele><time>2026-04-06T11:42:24Z</time></trkpt><trkpt lat="45.747075001346964" lon="8.525057725719087"><ele>294.0</ele><time>2026-04-06T11:42:25Z</time></trkpt><trkpt lat="45.747032899554114" lon="8.524959471023042"><ele>294.0</ele><time>2026-04-06T11:42:26Z</time></trkpt><trkpt lat="45.746983873963956" lon="8.524854843947193"><ele>294.0</ele><time>2026-04-06T11:42:27Z</time></trkpt><trkpt lat="45.74692717815557" lon="8.524745099543917"><ele>294.0</ele><time>2026-04-06T11:42:28Z</time></trkpt><trkpt lat="45.74686370898739" lon="8.52462389614593"><ele>294.0</ele><time>2026-04-06T11:42:29Z</time></trkpt><trkpt lat="45.746797488392694" lon="8.524492667677771"><ele>294.0</ele><time>2026-04-06T11:42:30Z</time></trkpt><trkpt lat="45.74672634679395" lon="8.524350790017815"><ele>294.0</ele><time>2026-04-06T11:42:31Z</time></trkpt><trkpt lat="45.74665223794682" lon="8.524205516887204"><ele>294.0</ele><time>2026-04-06T11:42:32Z</time></trkpt><trkpt lat="45.74657432200204" lon="8.524052738120192"><ele>294.0</ele><time>2026-04-06T11:42:33Z</time></trkpt><trkpt lat="45.74649517483944" lon="8.523899199974869"><ele>294.0</ele><time>2026-04-06T11:42:34Z</time></trkpt><trkpt lat="45.74641568788957" lon="8.523747873016974"><ele>294.0</ele><time>2026-04-06T11:42:35Z</time></trkpt><trkpt lat="45.74633316123559" lon="8.52359058209203"><ele>294.0</ele><time>2026-04-06T11:42:36Z</time></trkpt><trkpt lat="45.74624522921206" lon="8.523420520862818"><ele>294.0</ele><time>2026-04-06T11:42:37Z</time></trkpt><trkpt lat="45.74616281070196" lon="8.52325872169521"><ele>294.0</ele><time>2026-04-06T11:42:38Z</time></trkpt><trkpt lat="45.74608042685748" lon="8.52309724558347"><ele>294.0</ele><time>2026-04-06T11:42:39Z</time></trkpt><trkpt lat="45.74599777884034" lon="8.522936748241412"><ele>294.75</ele><time>2026-04-06T11:42:40Z</time></trkpt><trkpt lat="45.745915117801495" lon="8.522774858997288"><ele>295.5</ele><time>2026-04-06T11:42:41Z</time></trkpt><trkpt lat="45.745842316401074" lon="8.52259072866183"><ele>296.25</ele><time>2026-04-06T11:42:42Z</time></trkpt><trkpt lat="45.745748880309165" lon="8.522444056240587"><ele>297.0</ele><time>2026-04-06T11:42:43Z</time></trkpt><trkpt lat="45.745672993737905" lon="8.522292259795446"><ele>297.0</ele><time>2026-04-06T11:42:44Z</time></trkpt><trkpt lat="45.745598408319225" lon="8.522141385458253"><ele>297.0</ele><time>2026-04-06T11:42:45Z</time></trkpt><trkpt lat="45.74552113489093" lon="8.521982843528193"><ele>297.0</ele><time>2026-04-06T11:42:46Z</time></trkpt><trkpt lat="45.74543654753072" lon="8.521816958171705"><ele>297.0</ele><time>2026-04-06T11:42:47Z</time></trkpt><trkpt lat="45.745343215689104" lon="8.5216423344174"><ele>296.3333333333333</ele><time>2026-04-06T11:42:48Z</time></trkpt><trkpt lat="45.74523905157532" lon="8.521448370592406"><ele>295.66666666666663</ele><time>2026-04-06T11:42:49Z</time></trkpt><trkpt lat="45.74512882582781" lon="8.52124607206292"><ele>295.0</ele><time>2026-04-06T11:42:50Z</time></trkpt><trkpt lat="45.745014137133396" lon="8.521024281009433"><ele>295.0</ele><time>2026-04-06T11:42:51Z</time></trkpt><trkpt lat="45.74490254573545" lon="8.520796482230738"><ele>295.0</ele><time>2026-04-06T11:42:52Z</time></trkpt><trkpt lat="45.744815090882916" lon="8.520561460483789"><ele>295.0</ele><time>2026-04-06T11:42:53Z</time></trkpt><trkpt lat="45.74471173978769" lon="8.520360096754535"><ele>295.3333333333333</ele><time>2026-04-06T11:42:54Z</time></trkpt><trkpt lat="45.74461063114933" lon="8.520163102536856"><ele>295.6666666666667</ele><time>2026-04-06T11:42:55Z</time></trkpt><trkpt lat="45.74451371226229" lon="8.519972906594639"><ele>296.0</ele><time>2026-04-06T11:42:56Z</time></trkpt><trkpt lat="45.74441712802269" lon="8.519786906897613"><ele>296.0</ele><time>2026-04-06T11:42:57Z</time></trkpt><trkpt lat="45.744307509424395" lon="8.51961537994554"><ele>296.0</ele><time>2026-04-06T11:42:58Z</time></trkpt><trkpt lat="45.74421417188686" lon="8.519429923759"><ele>296.0</ele><time>2026-04-06T11:42:59Z</time></trkpt><trkpt lat="45.74412152038759" lon="8.51924967250707"><ele>296.0</ele><time>2026-04-06T11:43:00Z</time></trkpt><trkpt lat="45.74403183641017" lon="8.519076978431475"><ele>296.0</ele><time>2026-04-06T11:43:01Z</time></trkpt><trkpt lat="45.74394275678532" lon="8.518907984399778"><ele>296.0</ele><time>2026-04-06T11:43:02Z</time></trkpt><trkpt lat="45.743869298485656" lon="8.518721301783499"><ele>296.0</ele><time>2026-04-06T11:43:03Z</time></trkpt><trkpt lat="45.743770509276146" lon="8.518563854995483"><ele>296.0</ele><time>2026-04-06T11:43:04.001Z</time></trkpt><trkpt lat="45.743684373987776" lon="8.518394150337446"><ele>296.0</ele><time>2026-04-06T11:43:05.001Z</time></trkpt><trkpt lat="45.7435978315488" lon="8.518220381400452"><ele>296.0</ele><time>2026-04-06T11:43:06.001Z</time></trkpt><trkpt lat="45.743511739643374" lon="8.518049398709111"><ele>296.0</ele><time>2026-04-06T11:43:07.001Z</time></trkpt><trkpt lat="45.74342337253329" lon="8.517863255813655"><ele>296.0</ele><time>2026-04-06T11:43:08.001Z</time></trkpt><trkpt lat="45.74333781052033" lon="8.517668875110582"><ele>296.0</ele><time>2026-04-06T11:43:09.001Z</time></trkpt><trkpt lat="45.743263851707134" lon="8.51744607932257"><ele>296.0</ele><time>2026-04-06T11:43:10.001Z</time></trkpt><trkpt lat="45.743178335086256" lon="8.517217758241811"><ele>296.33333333333337</ele><time>2026-04-06T11:43:11.001Z</time></trkpt><trkpt lat="45.743088655863936" lon="8.516977254826525"><ele>296.6666666666667</ele><time>2026-04-06T11:43:12.001Z</time></trkpt><trkpt lat="45.74299366592616" lon="8.516722289696276"><ele>297.0</ele><time>2026-04-06T11:43:13.001Z</time></trkpt><trkpt lat="45.74289636862731" lon="8.516457717187075"><ele>297.6666666666667</ele><time>2026-04-06T11:43:14.001Z</time></trkpt><trkpt lat="45.742782746341184" lon="8.516192522639855"><ele>298.33333333333337</ele><time>2026-04-06T11:43:15.001Z</time></trkpt><trkpt lat="45.742683806984296" lon="8.515908209845115"><ele>299.0</ele><time>2026-04-06T11:43:16.001Z</time></trkpt><trkpt lat="45.742584706490184" lon="8.515623291129144"><ele>300.0</ele><time>2026-04-06T11:43:17.001Z</time></trkpt><trkpt lat="45.74249062202868" lon="8.515338741817432"><ele>301.0</ele><time>2026-04-06T11:43:18.001Z</time></trkpt><trkpt lat="45.74239346960652" lon="8.515056451559543"><ele>302.0</ele><time>2026-04-06T11:43:19.001Z</time></trkpt><trkpt lat="45.74229811902453" lon="8.514774300762303"><ele>304.6666666666667</ele><time>2026-04-06T11:43:20.001Z</time></trkpt><trkpt lat="45.742201621248576" lon="8.5144919646392"><ele>307.3333333333333</ele><time>2026-04-06T11:43:21.001Z</time></trkpt><trkpt lat="45.74210189395927" lon="8.51421132093849"><ele>310.0</ele><time>2026-04-06T11:43:22.001Z</time></trkpt><trkpt lat="45.74199572331316" lon="8.513936688568018"><ele>313.0</ele><time>2026-04-06T11:43:23.001Z</time></trkpt><trkpt lat="45.741878305355904" lon="8.513671673567318"><ele>316.0</ele><time>2026-04-06T11:43:24.001Z</time></trkpt><trkpt lat="45.74174926448753" lon="8.513422823295647"><ele>319.0</ele><time>2026-04-06T11:43:25.001Z</time></trkpt><trkpt lat="45.7416078473842" lon="8.513189381277966"><ele>319.0</ele><time>2026-04-06T11:43:26.001Z</time></trkpt><trkpt lat="45.74145396638356" lon="8.51297342767324"><ele>319.0</ele><time>2026-04-06T11:43:27.001Z</time></trkpt><trkpt lat="45.741288274812725" lon="8.51277912756934"><ele>319.0</ele><time>2026-04-06T11:43:28.001Z</time></trkpt><trkpt lat="45.74111297558225" lon="8.51260533787877"><ele>321.66666666666663</ele><time>2026-04-06T11:43:29.001Z</time></trkpt><trkpt lat="45.74092959718532" lon="8.512453221322476"><ele>324.3333333333333</ele><time>2026-04-06T11:43:30.001Z</time></trkpt><trkpt lat="45.74073923933314" lon="8.512321005324841"><ele>327.0</ele><time>2026-04-06T11:43:31.001Z</time></trkpt><trkpt lat="45.74054365083885" lon="8.512203079309316"><ele>327.0</ele><time>2026-04-06T11:43:32.001Z</time></trkpt><trkpt lat="45.74034948106717" lon="8.512090015079478"><ele>327.0</ele><time>2026-04-06T11:43:33.001Z</time></trkpt><trkpt lat="45.740157341883524" lon="8.511975306286669"><ele>327.0</ele><time>2026-04-06T11:43:34.001Z</time></trkpt><trkpt lat="45.73996875877585" lon="8.511858500005447"><ele>329.0</ele><time>2026-04-06T11:43:35Z</time></trkpt><trkpt lat="45.739784551710116" lon="8.511728124490805"><ele>331.0</ele><time>2026-04-06T11:43:36Z</time></trkpt><trkpt lat="45.73960398261042" lon="8.511582282154567"><ele>333.0</ele><time>2026-04-06T11:43:37Z</time></trkpt><trkpt lat="45.73942936450703" lon="8.511418536202642"><ele>334.6666666666667</ele><time>2026-04-06T11:43:38Z</time></trkpt><trkpt lat="45.739262200868176" lon="8.511234141716931"><ele>336.33333333333337</ele><time>2026-04-06T11:43:39Z</time></trkpt><trkpt lat="45.739102732504875" lon="8.511031618188857"><ele>338.0</ele><time>2026-04-06T11:43:40Z</time></trkpt><trkpt lat="45.73894699469969" lon="8.510821987835552"><ele>338.0</ele><time>2026-04-06T11:43:41Z</time></trkpt><trkpt lat="45.73879686171838" lon="8.510608471398102"><ele>338.0</ele><time>2026-04-06T11:43:42Z</time></trkpt><trkpt lat="45.73865192801346" lon="8.510391943483206"><ele>338.0</ele><time>2026-04-06T11:43:43Z</time></trkpt><trkpt lat="45.738506998587106" lon="8.510175430935625"><ele>340.6666666666667</ele><time>2026-04-06T11:43:44Z</time></trkpt><trkpt lat="45.73836210513673" lon="8.509961587881875"><ele>343.3333333333333</ele><time>2026-04-06T11:43:45Z</time></trkpt><trkpt lat="45.738216177633284" lon="8.509749452340632"><ele>346.0</ele><time>2026-04-06T11:43:46Z</time></trkpt><trkpt lat="45.73806963513184" lon="8.509537502972329"><ele>347.0</ele><time>2026-04-06T11:43:47Z</time></trkpt><trkpt lat="45.737922391420966" lon="8.509324347056307"><ele>348.0</ele><time>2026-04-06T11:43:48Z</time></trkpt><trkpt lat="45.73777720466055" lon="8.509112583865075"><ele>349.0</ele><time>2026-04-06T11:43:49Z</time></trkpt><trkpt lat="45.737632574764646" lon="8.508898498182875"><ele>350.3333333333333</ele><time>2026-04-06T11:43:50Z</time></trkpt><trkpt lat="45.737485413280986" lon="8.50868523408289"><ele>351.6666666666667</ele><time>2026-04-06T11:43:51Z</time></trkpt><trkpt lat="45.737336672335296" lon="8.508471665509996"><ele>353.0</ele><time>2026-04-06T11:43:52Z</time></trkpt><trkpt lat="45.73718758759548" lon="8.508255786184753"><ele>353.0</ele><time>2026-04-06T11:43:53Z</time></trkpt><trkpt lat="45.737038210719646" lon="8.508040587173733"><ele>353.0</ele><time>2026-04-06T11:43:54Z</time></trkpt><trkpt lat="45.73688892958853" lon="8.507824636681582"><ele>353.0</ele><time>2026-04-06T11:43:55Z</time></trkpt><trkpt lat="45.73673945264129" lon="8.50760498377457"><ele>357.33333333333337</ele><time>2026-04-06T11:43:56Z</time></trkpt><trkpt lat="45.73659064741687" lon="8.507379922870463"><ele>361.6666666666667</ele><time>2026-04-06T11:43:57Z</time></trkpt><trkpt lat="45.73644372183468" lon="8.507152916462392"><ele>366.0</ele><time>2026-04-06T11:43:58Z</time></trkpt><trkpt lat="45.736297681648715" lon="8.506923829717866"><ele>368.0</ele><time>2026-04-06T11:43:59Z</time></trkpt><trkpt lat="45.73615065069757" lon="8.506695380028685"><ele>370.0</ele><time>2026-04-06T11:44:00Z</time></trkpt><trkpt lat="45.736001790612875" lon="8.506465804365849"><ele>372.0</ele><time>2026-04-06T11:44:01Z</time></trkpt><trkpt lat="45.73585348499362" lon="8.506236054132994"><ele>372.0</ele><time>2026-04-06T11:44:02Z</time></trkpt><trkpt lat="45.735703941045195" lon="8.506005882926775"><ele>372.0</ele><time>2026-04-06T11:44:03Z</time></trkpt><trkpt lat="45.73555786212094" lon="8.505774118928032"><ele>372.0</ele><time>2026-04-06T11:44:04Z</time></trkpt><trkpt lat="45.73540993404121" lon="8.505544109646744"><ele>371.0</ele><time>2026-04-06T11:44:05Z</time></trkpt><trkpt lat="45.73526027133623" lon="8.505313961957134"><ele>370.0</ele><time>2026-04-06T11:44:06Z</time></trkpt><trkpt lat="45.73511261017459" lon="8.50508122373563"><ele>369.0</ele><time>2026-04-06T11:44:07Z</time></trkpt><trkpt lat="45.73496582760989" lon="8.50484634450288"><ele>369.0</ele><time>2026-04-06T11:44:08Z</time></trkpt><trkpt lat="45.73481679782033" lon="8.504617913830664"><ele>369.0</ele><time>2026-04-06T11:44:09Z</time></trkpt><trkpt lat="45.73466566096888" lon="8.504387747743463"><ele>369.0</ele><time>2026-04-06T11:44:10Z</time></trkpt><trkpt lat="45.73451470270897" lon="8.504160022120663"><ele>368.0</ele><time>2026-04-06T11:44:11Z</time></trkpt><trkpt lat="45.734369582286256" lon="8.503937640357321"><ele>367.0</ele><time>2026-04-06T11:44:12Z</time></trkpt><trkpt lat="45.73422427509729" lon="8.50371301139618"><ele>366.0</ele><time>2026-04-06T11:44:13Z</time></trkpt><trkpt lat="45.734077197753656" lon="8.503488574373764"><ele>365.3333333333333</ele><time>2026-04-06T11:44:14Z</time></trkpt><trkpt lat="45.73393038313143" lon="8.503256649116333"><ele>364.66666666666663</ele><time>2026-04-06T11:44:15Z</time></trkpt><trkpt lat="45.73378287447278" lon="8.503024306978848"><ele>364.0</ele><time>2026-04-06T11:44:16Z</time></trkpt><trkpt lat="45.73363538603118" lon="8.502794148506656"><ele>361.66666666666663</ele><time>2026-04-06T11:44:17Z</time></trkpt><trkpt lat="45.733487029326795" lon="8.502565166121041"><ele>359.3333333333333</ele><time>2026-04-06T11:44:18Z</time></trkpt><trkpt lat="45.733338479380556" lon="8.502338366304595"><ele>357.0</ele><time>2026-04-06T11:44:19Z</time></trkpt><trkpt lat="45.733185740092644" lon="8.502114604088224"><ele>356.6666666666667</ele><time>2026-04-06T11:44:20Z</time></trkpt><trkpt lat="45.73302976529802" lon="8.501898328149949"><ele>356.33333333333337</ele><time>2026-04-06T11:44:21Z</time></trkpt><trkpt lat="45.73287160828463" lon="8.501687947343138"><ele>356.0</ele><time>2026-04-06T11:44:22Z</time></trkpt><trkpt lat="45.73270849838882" lon="8.501482953300272"><ele>356.0</ele><time>2026-04-06T11:44:23Z</time></trkpt><trkpt lat="45.73253918773255" lon="8.501290811720924"><ele>356.0</ele><time>2026-04-06T11:44:24Z</time></trkpt><trkpt lat="45.732367630392034" lon="8.501111169745457"><ele>356.0</ele><time>2026-04-06T11:44:25Z</time></trkpt><trkpt lat="45.732192335929085" lon="8.500937900157055"><ele>355.33333333333337</ele><time>2026-04-06T11:44:26Z</time></trkpt><trkpt lat="45.73201526616768" lon="8.50076510965314"><ele>354.6666666666667</ele><time>2026-04-06T11:44:27Z</time></trkpt><trkpt lat="45.731839295211245" lon="8.500590015682223"><ele>354.0</ele><time>2026-04-06T11:44:28Z</time></trkpt><trkpt lat="45.73166507547909" lon="8.500415821396095"><ele>352.0</ele><time>2026-04-06T11:44:29Z</time></trkpt><trkpt lat="45.73149051662957" lon="8.500241981323997"><ele>350.0</ele><time>2026-04-06T11:44:30Z</time></trkpt><trkpt lat="45.73131433162888" lon="8.500067221307084"><ele>348.0</ele><time>2026-04-06T11:44:31Z</time></trkpt><trkpt lat="45.73113748547591" lon="8.499892422778714"><ele>348.0</ele><time>2026-04-06T11:44:32Z</time></trkpt><trkpt lat="45.730962580895614" lon="8.499719511688268"><ele>348.0</ele><time>2026-04-06T11:44:33Z</time></trkpt><trkpt lat="45.73078594975186" lon="8.499544814575705"><ele>348.0</ele><time>2026-04-06T11:44:34Z</time></trkpt><trkpt lat="45.73060808028779" lon="8.499370778972263"><ele>347.6666666666667</ele><time>2026-04-06T11:44:35Z</time></trkpt><trkpt lat="45.73043213038423" lon="8.49919889840563"><ele>347.33333333333337</ele><time>2026-04-06T11:44:36Z</time></trkpt><trkpt lat="45.73025455070117" lon="8.499025804128811"><ele>347.0</ele><time>2026-04-06T11:44:37Z</time></trkpt><trkpt lat="45.73007780896778" lon="8.498853105435987"><ele>347.33333333333337</ele><time>2026-04-06T11:44:38Z</time></trkpt><trkpt lat="45.7298995880339" lon="8.49868066729151"><ele>347.6666666666667</ele><time>2026-04-06T11:44:39Z</time></trkpt><trkpt lat="45.729723710724606" lon="8.498509087595096"><ele>348.0</ele><time>2026-04-06T11:44:40Z</time></trkpt><trkpt lat="45.729548923125726" lon="8.498339577514411"><ele>347.3333333333333</ele><time>2026-04-06T11:44:41Z</time></trkpt><trkpt lat="45.729374353180035" lon="8.498169402025866"><ele>346.66666666666663</ele><time>2026-04-06T11:44:42Z</time></trkpt><trkpt lat="45.7292049335095" lon="8.498002139734773"><ele>346.0</ele><time>2026-04-06T11:44:43Z</time></trkpt><trkpt lat="45.72904467136894" lon="8.49783708634832"><ele>345.66666666666663</ele><time>2026-04-06T11:44:44Z</time></trkpt><trkpt lat="45.728877874318265" lon="8.497668360716355"><ele>345.3333333333333</ele><time>2026-04-06T11:44:45Z</time></trkpt><trkpt lat="45.728705380848524" lon="8.497498579805816"><ele>345.0</ele><time>2026-04-06T11:44:46Z</time></trkpt><trkpt lat="45.72852996497157" lon="8.49732441429411"><ele>345.0</ele><time>2026-04-06T11:44:47Z</time></trkpt><trkpt lat="45.72835399382012" lon="8.49715439111984"><ele>345.0</ele><time>2026-04-06T11:44:48Z</time></trkpt><trkpt lat="45.7281806333492" lon="8.496986588557085"><ele>345.0</ele><time>2026-04-06T11:44:49Z</time></trkpt><trkpt lat="45.72801036270555" lon="8.49682136049433"><ele>344.6666666666667</ele><time>2026-04-06T11:44:50Z</time></trkpt><trkpt lat="45.72784389348017" lon="8.496660975775598"><ele>344.33333333333337</ele><time>2026-04-06T11:44:51Z</time></trkpt><trkpt lat="45.72767782657824" lon="8.496499665242203"><ele>344.0</ele><time>2026-04-06T11:44:52Z</time></trkpt><trkpt lat="45.727514212063916" lon="8.496342096408522"><ele>344.0</ele><time>2026-04-06T11:44:53Z</time></trkpt><trkpt lat="45.72735054510455" lon="8.49618487801718"><ele>344.0</ele><time>2026-04-06T11:44:54Z</time></trkpt><trkpt lat="45.72718304819269" lon="8.49601946309448"><ele>344.0</ele><time>2026-04-06T11:44:55Z</time></trkpt><trkpt lat="45.727015091257606" lon="8.495851554629272"><ele>344.0</ele><time>2026-04-06T11:44:56Z</time></trkpt><trkpt lat="45.72684797127474" lon="8.495683480529141"><ele>344.0</ele><time>2026-04-06T11:44:57Z</time></trkpt><trkpt lat="45.72668799229895" lon="8.49552469857582"><ele>344.0</ele><time>2026-04-06T11:44:58Z</time></trkpt><trkpt lat="45.72653549617881" lon="8.49537247094057"><ele>345.33333333333337</ele><time>2026-04-06T11:44:59Z</time></trkpt><trkpt lat="45.726385386048065" lon="8.495221799741005"><ele>346.6666666666667</ele><time>2026-04-06T11:45:00Z</time></trkpt><trkpt lat="45.72623973813134" lon="8.495078601228075"><ele>348.0</ele><time>2026-04-06T11:45:01Z</time></trkpt><trkpt lat="45.72609287000421" lon="8.49493583552746"><ele>348.3333333333333</ele><time>2026-04-06T11:45:02Z</time></trkpt><trkpt lat="45.725950378584166" lon="8.494798060675512"><ele>348.66666666666663</ele><time>2026-04-06T11:45:03Z</time></trkpt><trkpt lat="45.725815409849794" lon="8.494666643644543"><ele>349.0</ele><time>2026-04-06T11:45:04Z</time></trkpt><trkpt lat="45.72568321506829" lon="8.494537519277156"><ele>348.0</ele><time>2026-04-06T11:45:05Z</time></trkpt><trkpt lat="45.72555203945028" lon="8.494410965355959"><ele>347.0</ele><time>2026-04-06T11:45:06Z</time></trkpt><trkpt lat="45.72542057010966" lon="8.494282203277628"><ele>346.0</ele><time>2026-04-06T11:45:07Z</time></trkpt><trkpt lat="45.72529477589931" lon="8.49415807586659"><ele>346.75</ele><time>2026-04-06T11:45:08Z</time></trkpt><trkpt lat="45.725169418495376" lon="8.494037550309875"><ele>347.5</ele><time>2026-04-06T11:45:09Z</time></trkpt><trkpt lat="45.72504966878198" lon="8.4939205073211"><ele>348.25</ele><time>2026-04-06T11:45:10.001Z</time></trkpt><trkpt lat="45.724935610815415" lon="8.493810187506197"><ele>349.0</ele><time>2026-04-06T11:45:11.001Z</time></trkpt><trkpt lat="45.724819822643624" lon="8.49369683051251"><ele>348.5</ele><time>2026-04-06T11:45:12.001Z</time></trkpt><trkpt lat="45.72470418181699" lon="8.493581995352493"><ele>348.0</ele><time>2026-04-06T11:45:13.001Z</time></trkpt><trkpt lat="45.724592979689064" lon="8.493473430196305"><ele>347.5</ele><time>2026-04-06T11:45:14.001Z</time></trkpt><trkpt lat="45.724489644826974" lon="8.493371229180271"><ele>347.0</ele><time>2026-04-06T11:45:15.001Z</time></trkpt><trkpt lat="45.72439145439494" lon="8.49327399827811"><ele>347.0</ele><time>2026-04-06T11:45:16.001Z</time></trkpt><trkpt lat="45.724296155018976" lon="8.493178758943893"><ele>347.0</ele><time>2026-04-06T11:45:17.001Z</time></trkpt><trkpt lat="45.724206669245135" lon="8.4930867837871"><ele>347.0</ele><time>2026-04-06T11:45:18.001Z</time></trkpt><trkpt lat="45.72413544124186" lon="8.493009410844127"><ele>347.0</ele><time>2026-04-06T11:45:19.001Z</time></trkpt><trkpt lat="45.72405269507055" lon="8.492912488370685"><ele>347.0</ele><time>2026-04-06T11:45:21.001Z</time></trkpt><trkpt lat="45.72399985162199" lon="8.492839883994323"><ele>346.6</ele><time>2026-04-06T11:45:23.001Z</time></trkpt><trkpt lat="45.72395145710855" lon="8.492738151927739"><ele>346.20000000000005</ele><time>2026-04-06T11:45:25.001Z</time></trkpt><trkpt lat="45.723920538881835" lon="8.49259377121829"><ele>345.8</ele><time>2026-04-06T11:45:27.001Z</time></trkpt><trkpt lat="45.723858624518606" lon="8.492459081480574"><ele>345.4</ele><time>2026-04-06T11:45:29.001Z</time></trkpt><trkpt lat="45.72373272755384" lon="8.492418798142529"><ele>345.0</ele><time>2026-04-06T11:45:31.001Z</time></trkpt><trkpt lat="45.723653958605446" lon="8.492406948592254"><ele>344.8</ele><time>2026-04-06T11:45:32Z</time></trkpt><trkpt lat="45.7235629891669" lon="8.49238320009007"><ele>344.6</ele><time>2026-04-06T11:45:33Z</time></trkpt><trkpt lat="45.72347485247164" lon="8.492330426173254"><ele>344.4</ele><time>2026-04-06T11:45:34Z</time></trkpt><trkpt lat="45.72338980439949" lon="8.49226313330618"><ele>344.2</ele><time>2026-04-06T11:45:35Z</time></trkpt><trkpt lat="45.72330389371812" lon="8.49218107711246"><ele>344.0</ele><time>2026-04-06T11:45:36Z</time></trkpt><trkpt lat="45.72321821807696" lon="8.492097974474767"><ele>344.2</ele><time>2026-04-06T11:45:37Z</time></trkpt><trkpt lat="45.7231328866298" lon="8.492012805375651"><ele>344.4</ele><time>2026-04-06T11:45:38Z</time></trkpt><trkpt lat="45.72304626174092" lon="8.491927603645204"><ele>344.6</ele><time>2026-04-06T11:45:39Z</time></trkpt><trkpt lat="45.72296212437811" lon="8.491842777049305"><ele>344.8</ele><time>2026-04-06T11:45:40Z</time></trkpt><trkpt lat="45.722881969301525" lon="8.49176397299478"><ele>345.0</ele><time>2026-04-06T11:45:41Z</time></trkpt><trkpt lat="45.722803051640824" lon="8.491687346009174"><ele>344.4</ele><time>2026-04-06T11:45:42Z</time></trkpt><trkpt lat="45.72272286015407" lon="8.491610039540513"><ele>343.8</ele><time>2026-04-06T11:45:43Z</time></trkpt><trkpt lat="45.7226439042111" lon="8.491530593829395"><ele>343.20000000000005</ele><time>2026-04-06T11:45:44Z</time></trkpt><trkpt lat="45.72256651173698" lon="8.491452059799613"><ele>342.6</ele><time>2026-04-06T11:45:45Z</time></trkpt><trkpt lat="45.722490229428665" lon="8.491373183900064"><ele>342.0</ele><time>2026-04-06T11:45:46Z</time></trkpt><trkpt lat="45.7224134359225" lon="8.491294105960938"><ele>341.8</ele><time>2026-04-06T11:45:47Z</time></trkpt><trkpt lat="45.722334356600854" lon="8.491215176417462"><ele>341.6</ele><time>2026-04-06T11:45:48Z</time></trkpt><trkpt lat="45.72225043498956" lon="8.491132747846256"><ele>341.40000000000003</ele><time>2026-04-06T11:45:49Z</time></trkpt><trkpt lat="45.72215786022483" lon="8.491042478305804"><ele>341.20000000000005</ele><time>2026-04-06T11:45:50Z</time></trkpt><trkpt lat="45.722067730562244" lon="8.4909536772476"><ele>341.0</ele><time>2026-04-06T11:45:51Z</time></trkpt><trkpt lat="45.72198012618077" lon="8.490866084875275"><ele>340.6</ele><time>2026-04-06T11:45:52Z</time></trkpt><trkpt lat="45.721893927528676" lon="8.49078132373263"><ele>340.20000000000005</ele><time>2026-04-06T11:45:53Z</time></trkpt><trkpt lat="45.72180825685133" lon="8.490696432181995"><ele>339.79999999999995</ele><time>2026-04-06T11:45:54Z</time></trkpt><trkpt lat="45.72172469156274" lon="8.490614453766376"><ele>339.4</ele><time>2026-04-06T11:45:55Z</time></trkpt><trkpt lat="45.72164244650677" lon="8.490534529743632"><ele>339.0</ele><time>2026-04-06T11:45:56Z</time></trkpt><trkpt lat="45.721560632699216" lon="8.490454507496608"><ele>338.79999999999995</ele><time>2026-04-06T11:45:57Z</time></trkpt><trkpt lat="45.72147858201489" lon="8.490373267611538"><ele>338.59999999999997</ele><time>2026-04-06T11:45:58Z</time></trkpt><trkpt lat="45.721397598566206" lon="8.490293891587791"><ele>338.4</ele><time>2026-04-06T11:45:59Z</time></trkpt><trkpt lat="45.721317899720965" lon="8.490215936014641"><ele>338.2</ele><time>2026-04-06T11:46:00Z</time></trkpt><trkpt lat="45.721239112552" lon="8.490140182120959"><ele>338.0</ele><time>2026-04-06T11:46:01Z</time></trkpt><trkpt lat="45.72116221549881" lon="8.490063901181355"><ele>338.0</ele><time>2026-04-06T11:46:02Z</time></trkpt><trkpt lat="45.721087554727355" lon="8.489988002349698"><ele>338.0</ele><time>2026-04-06T11:46:03Z</time></trkpt><trkpt lat="45.72101444181025" lon="8.489916796302586"><ele>338.0</ele><time>2026-04-06T11:46:04Z</time></trkpt><trkpt lat="45.72094181010028" lon="8.489844374867697"><ele>338.0</ele><time>2026-04-06T11:46:05Z</time></trkpt><trkpt lat="45.72087018497379" lon="8.489771780021243"><ele>338.0</ele><time>2026-04-06T11:46:06Z</time></trkpt><trkpt lat="45.72079944965159" lon="8.489701166634315"><ele>338.0</ele><time>2026-04-06T11:46:07Z</time></trkpt><trkpt lat="45.72072861597638" lon="8.489630968602055"><ele>337.83333333333337</ele><time>2026-04-06T11:46:08Z</time></trkpt><trkpt lat="45.72065881204262" lon="8.489558840141198"><ele>337.6666666666667</ele><time>2026-04-06T11:46:09Z</time></trkpt><trkpt lat="45.72059398319609" lon="8.489486573459097"><ele>337.5</ele><time>2026-04-06T11:46:10Z</time></trkpt><trkpt lat="45.72053522250077" lon="8.489410775693548"><ele>337.3333333333333</ele><time>2026-04-06T11:46:11Z</time></trkpt><trkpt lat="45.72047900464698" lon="8.48933327433311"><ele>337.16666666666663</ele><time>2026-04-06T11:46:12Z</time></trkpt><trkpt lat="45.720427616146" lon="8.489253636057477"><ele>337.0</ele><time>2026-04-06T11:46:13Z</time></trkpt><trkpt lat="45.720380562754386" lon="8.48917025421389"><ele>337.0</ele><time>2026-04-06T11:46:14Z</time></trkpt><trkpt lat="45.72033155947321" lon="8.489091146287569"><ele>337.0</ele><time>2026-04-06T11:46:15Z</time></trkpt><trkpt lat="45.720274865642345" lon="8.489030000036431"><ele>337.0</ele><time>2026-04-06T11:46:16Z</time></trkpt><trkpt lat="45.720209393045316" lon="8.488984877948546"><ele>337.0</ele><time>2026-04-06T11:46:17Z</time></trkpt><trkpt lat="45.72013711891518" lon="8.488951480190085"><ele>337.0</ele><time>2026-04-06T11:46:18Z</time></trkpt><trkpt lat="45.72006113414704" lon="8.48891304027019"><ele>337.0</ele><time>2026-04-06T11:46:19Z</time></trkpt><trkpt lat="45.719984745200726" lon="8.488866761788431"><ele>337.0</ele><time>2026-04-06T11:46:20Z</time></trkpt><trkpt lat="45.7199086721763" lon="8.488813181519504"><ele>337.0</ele><time>2026-04-06T11:46:21Z</time></trkpt><trkpt lat="45.719832575546825" lon="8.488752116882774"><ele>337.0</ele><time>2026-04-06T11:46:22Z</time></trkpt><trkpt lat="45.71975922583883" lon="8.488679690051054"><ele>337.0</ele><time>2026-04-06T11:46:23Z</time></trkpt><trkpt lat="45.71968564284848" lon="8.488603115771362"><ele>337.0</ele><time>2026-04-06T11:46:24Z</time></trkpt><trkpt lat="45.719610348869836" lon="8.48852490501557"><ele>337.0</ele><time>2026-04-06T11:46:25Z</time></trkpt><trkpt lat="45.71953127236665" lon="8.488446300064865"><ele>336.75</ele><time>2026-04-06T11:46:26Z</time></trkpt><trkpt lat="45.719445946365994" lon="8.48836028363733"><ele>336.5</ele><time>2026-04-06T11:46:27Z</time></trkpt><trkpt lat="45.71935511686748" lon="8.488269293901803"><ele>336.25</ele><time>2026-04-06T11:46:28Z</time></trkpt><trkpt lat="45.71925717021637" lon="8.48817273293731"><ele>336.0</ele><time>2026-04-06T11:46:29Z</time></trkpt><trkpt lat="45.719160736900314" lon="8.48807753008768"><ele>336.25</ele><time>2026-04-06T11:46:30Z</time></trkpt><trkpt lat="45.71906448571176" lon="8.487980775356455"><ele>336.5</ele><time>2026-04-06T11:46:31Z</time></trkpt><trkpt lat="45.718968538875224" lon="8.487884929166043"><ele>336.75</ele><time>2026-04-06T11:46:32Z</time></trkpt><trkpt lat="45.718873310596244" lon="8.487789992213976"><ele>337.0</ele><time>2026-04-06T11:46:33Z</time></trkpt><trkpt lat="45.71877703516217" lon="8.487694890766894"><ele>337.0</ele><time>2026-04-06T11:46:34Z</time></trkpt><trkpt lat="45.71868439427864" lon="8.487605750343858"><ele>337.0</ele><time>2026-04-06T11:46:35Z</time></trkpt><trkpt lat="45.71859523857052" lon="8.487519362301317"><ele>337.0</ele><time>2026-04-06T11:46:36Z</time></trkpt><trkpt lat="45.71850879808374" lon="8.487436068463964"><ele>337.0</ele><time>2026-04-06T11:46:37Z</time></trkpt><trkpt lat="45.71842622709455" lon="8.487355881750984"><ele>337.0</ele><time>2026-04-06T11:46:38Z</time></trkpt><trkpt lat="45.71833690705835" lon="8.487268680106755"><ele>337.25</ele><time>2026-04-06T11:46:39Z</time></trkpt><trkpt lat="45.71823593791162" lon="8.487169515063464"><ele>337.5</ele><time>2026-04-06T11:46:40Z</time></trkpt><trkpt lat="45.718121269213796" lon="8.487058850889385"><ele>337.75</ele><time>2026-04-06T11:46:41Z</time></trkpt><trkpt lat="45.71799356728961" lon="8.48693377796651"><ele>338.0</ele><time>2026-04-06T11:46:42Z</time></trkpt><trkpt lat="45.717856480713685" lon="8.486798639599954"><ele>337.0</ele><time>2026-04-06T11:46:43Z</time></trkpt><trkpt lat="45.7177152794524" lon="8.486659824362484"><ele>336.0</ele><time>2026-04-06T11:46:44Z</time></trkpt><trkpt lat="45.717569212296645" lon="8.48651735785961"><ele>335.0</ele><time>2026-04-06T11:46:45Z</time></trkpt><trkpt lat="45.7174221735253" lon="8.486373654727592"><ele>335.0</ele><time>2026-04-06T11:46:46Z</time></trkpt><trkpt lat="45.71727707828342" lon="8.486231489545489"><ele>335.0</ele><time>2026-04-06T11:46:47Z</time></trkpt><trkpt lat="45.71713435943936" lon="8.486089583121654"><ele>335.0</ele><time>2026-04-06T11:46:48Z</time></trkpt><trkpt lat="45.716995708240695" lon="8.485948920315655"><ele>334.0</ele><time>2026-04-06T11:46:49Z</time></trkpt><trkpt lat="45.71685882261911" lon="8.48581371327487"><ele>333.0</ele><time>2026-04-06T11:46:50Z</time></trkpt><trkpt lat="45.716726918879615" lon="8.485684335925342"><ele>332.0</ele><time>2026-04-06T11:46:51Z</time></trkpt><trkpt lat="45.7166017409093" lon="8.485562725774146"><ele>332.0</ele><time>2026-04-06T11:46:52Z</time></trkpt><trkpt lat="45.71647793496089" lon="8.485442996802398"><ele>332.0</ele><time>2026-04-06T11:46:53Z</time></trkpt><trkpt lat="45.716353165560555" lon="8.4853240280125"><ele>332.0</ele><time>2026-04-06T11:46:54Z</time></trkpt><trkpt lat="45.71622731985953" lon="8.485201153725482"><ele>332.5</ele><time>2026-04-06T11:46:55Z</time></trkpt><trkpt lat="45.71610705060789" lon="8.485087158090138"><ele>333.0</ele><time>2026-04-06T11:46:56Z</time></trkpt><trkpt lat="45.715990444088774" lon="8.484978974624546"><ele>333.5</ele><time>2026-04-06T11:46:57Z</time></trkpt><trkpt lat="45.715871227051046" lon="8.484867630229596"><ele>334.0</ele><time>2026-04-06T11:46:58Z</time></trkpt><trkpt lat="45.715745358504996" lon="8.484748275036761"><ele>334.0</ele><time>2026-04-06T11:46:59Z</time></trkpt><trkpt lat="45.71561532464962" lon="8.484624812647487"><ele>334.0</ele><time>2026-04-06T11:47:00Z</time></trkpt><trkpt lat="45.715486821462015" lon="8.484499743160173"><ele>334.0</ele><time>2026-04-06T11:47:01Z</time></trkpt><trkpt lat="45.715357664187465" lon="8.484371436117465"><ele>333.3333333333333</ele><time>2026-04-06T11:47:02Z</time></trkpt><trkpt lat="45.71523207535072" lon="8.484242672675384"><ele>332.6666666666667</ele><time>2026-04-06T11:47:03Z</time></trkpt><trkpt lat="45.71510867164065" lon="8.484112466624177"><ele>332.0</ele><time>2026-04-06T11:47:04Z</time></trkpt><trkpt lat="45.71498433543811" lon="8.483985705195137"><ele>332.0</ele><time>2026-04-06T11:47:05Z</time></trkpt><trkpt lat="45.71485920628525" lon="8.483855804174363"><ele>332.0</ele><time>2026-04-06T11:47:06Z</time></trkpt><trkpt lat="45.71473981209335" lon="8.483716168795155"><ele>332.0</ele><time>2026-04-06T11:47:07Z</time></trkpt><trkpt lat="45.71463495992775" lon="8.483574740434742"><ele>332.0</ele><time>2026-04-06T11:47:08Z</time></trkpt><trkpt lat="45.71454148472766" lon="8.483427838336233"><ele>332.0</ele><time>2026-04-06T11:47:09Z</time></trkpt><trkpt lat="45.71445722914554" lon="8.483286120401493"><ele>332.0</ele><time>2026-04-06T11:47:10Z</time></trkpt><trkpt lat="45.71438223529818" lon="8.483148855096108"><ele>332.0</ele><time>2026-04-06T11:47:11Z</time></trkpt><trkpt lat="45.714318128791646" lon="8.483019541207067"><ele>331.40000000000003</ele><time>2026-04-06T11:47:12Z</time></trkpt><trkpt lat="45.71426266244216" lon="8.482894996641217"><ele>330.8</ele><time>2026-04-06T11:47:13Z</time></trkpt><trkpt lat="45.71421429839747" lon="8.482776503149159"><ele>330.2</ele><time>2026-04-06T11:47:14Z</time></trkpt><trkpt lat="45.71417230773099" lon="8.48266236305689"><ele>329.6</ele><time>2026-04-06T11:47:15Z</time></trkpt><trkpt lat="45.714139156656245" lon="8.48255339992644"><ele>329.0</ele><time>2026-04-06T11:47:16.001Z</time></trkpt><trkpt lat="45.71411678719406" lon="8.482446395223239"><ele>329.0</ele><time>2026-04-06T11:47:17.001Z</time></trkpt><trkpt lat="45.714101210888415" lon="8.482344370643746"><ele>329.0</ele><time>2026-04-06T11:47:18.001Z</time></trkpt><trkpt lat="45.71408923609791" lon="8.482246845916881"><ele>329.0</ele><time>2026-04-06T11:47:19.001Z</time></trkpt><trkpt lat="45.71408995932718" lon="8.482153228892669"><ele>329.0</ele><time>2026-04-06T11:47:20.001Z</time></trkpt><trkpt lat="45.71410913623458" lon="8.482057577338065"><ele>329.0</ele><time>2026-04-06T11:47:21.001Z</time></trkpt><trkpt lat="45.71413940679796" lon="8.481964017683428"><ele>329.0</ele><time>2026-04-06T11:47:22.001Z</time></trkpt><trkpt lat="45.71418363157719" lon="8.481867006113024"><ele>329.0</ele><time>2026-04-06T11:47:23.001Z</time></trkpt><trkpt lat="45.714239058231335" lon="8.481754706568404"><ele>329.75</ele><time>2026-04-06T11:47:24.001Z</time></trkpt><trkpt lat="45.714292657840076" lon="8.481627573419518"><ele>330.5</ele><time>2026-04-06T11:47:25Z</time></trkpt><trkpt lat="45.7143364348141" lon="8.481484546882761"><ele>331.25</ele><time>2026-04-06T11:47:26Z</time></trkpt><trkpt lat="45.71437685928385" lon="8.481315694090839"><ele>332.0</ele><time>2026-04-06T11:47:27Z</time></trkpt><trkpt lat="45.71442136153961" lon="8.481143857431885"><ele>333.0</ele><time>2026-04-06T11:47:28Z</time></trkpt><trkpt lat="45.71448391626417" lon="8.480987478782223"><ele>334.0</ele><time>2026-04-06T11:47:29Z</time></trkpt><trkpt lat="45.71457515895242" lon="8.480847984786827"><ele>335.0</ele><time>2026-04-06T11:47:30Z</time></trkpt><trkpt lat="45.71468705931875" lon="8.48072312892257"><ele>336.0</ele><time>2026-04-06T11:47:31Z</time></trkpt><trkpt lat="45.71481055243051" lon="8.480611525586776"><ele>336.0</ele><time>2026-04-06T11:47:32Z</time></trkpt><trkpt lat="45.714948743827954" lon="8.480500443500313"><ele>336.0</ele><time>2026-04-06T11:47:33Z</time></trkpt><trkpt lat="45.71509618365259" lon="8.48038269124028"><ele>336.0</ele><time>2026-04-06T11:47:34Z</time></trkpt><trkpt lat="45.7152395006431" lon="8.480255158827877"><ele>338.25</ele><time>2026-04-06T11:47:35Z</time></trkpt><trkpt lat="45.715366347915634" lon="8.480126848770498"><ele>340.5</ele><time>2026-04-06T11:47:36Z</time></trkpt><trkpt lat="45.71548256821455" lon="8.47999510645518"><ele>342.75</ele><time>2026-04-06T11:47:37Z</time></trkpt><trkpt lat="45.7156019766043" lon="8.479881169447891"><ele>345.0</ele><time>2026-04-06T11:47:38Z</time></trkpt><trkpt lat="45.715697720795326" lon="8.479726191012013"><ele>345.0</ele><time>2026-04-06T11:47:39Z</time></trkpt><trkpt lat="45.71580034056871" lon="8.479582417602012"><ele>345.0</ele><time>2026-04-06T11:47:40Z</time></trkpt><trkpt lat="45.71591333341699" lon="8.479449134916406"><ele>345.0</ele><time>2026-04-06T11:47:41Z</time></trkpt><trkpt lat="45.716010861935665" lon="8.479291689706242"><ele>345.0</ele><time>2026-04-06T11:47:42Z</time></trkpt><trkpt lat="45.7161025955582" lon="8.479125172181668"><ele>345.0</ele><time>2026-04-06T11:47:43Z</time></trkpt><trkpt lat="45.71617699566271" lon="8.478939598290713"><ele>345.0</ele><time>2026-04-06T11:47:44Z</time></trkpt><trkpt lat="45.71626039444904" lon="8.478768897888415"><ele>345.0</ele><time>2026-04-06T11:47:45Z</time></trkpt><trkpt lat="45.7163410944294" lon="8.478589714848933"><ele>345.0</ele><time>2026-04-06T11:47:46Z</time></trkpt><trkpt lat="45.716415193418804" lon="8.478408174319371"><ele>344.25</ele><time>2026-04-06T11:47:47Z</time></trkpt><trkpt lat="45.716480153228616" lon="8.47822666117841"><ele>343.5</ele><time>2026-04-06T11:47:48Z</time></trkpt><trkpt lat="45.7165415856075" lon="8.47804123499805"><ele>342.75</ele><time>2026-04-06T11:47:49Z</time></trkpt><trkpt lat="45.716602081027595" lon="8.477851677423917"><ele>342.0</ele><time>2026-04-06T11:47:50Z</time></trkpt><trkpt lat="45.71666549767669" lon="8.477648984202075"><ele>341.6666666666667</ele><time>2026-04-06T11:47:51Z</time></trkpt><trkpt lat="45.71673084045895" lon="8.477441302790425"><ele>341.33333333333337</ele><time>2026-04-06T11:47:52Z</time></trkpt><trkpt lat="45.716797780892875" lon="8.477240948613984"><ele>341.0</ele><time>2026-04-06T11:47:53Z</time></trkpt><trkpt lat="45.71687092439271" lon="8.477047139698833"><ele>340.6666666666667</ele><time>2026-04-06T11:47:54Z</time></trkpt><trkpt lat="45.716953468565215" lon="8.476850456213057"><ele>340.3333333333333</ele><time>2026-04-06T11:47:55Z</time></trkpt><trkpt lat="45.717043097553365" lon="8.476648456717266"><ele>340.0</ele><time>2026-04-06T11:47:56Z</time></trkpt><trkpt lat="45.717139346039126" lon="8.476449170442345"><ele>339.3333333333333</ele><time>2026-04-06T11:47:57Z</time></trkpt><trkpt lat="45.717242234359155" lon="8.47625925916482"><ele>338.6666666666667</ele><time>2026-04-06T11:47:58Z</time></trkpt><trkpt lat="45.717349727040194" lon="8.476077665480148"><ele>338.0</ele><time>2026-04-06T11:47:59Z</time></trkpt><trkpt lat="45.71747043013961" lon="8.475892352455347"><ele>338.0</ele><time>2026-04-06T11:48:00Z</time></trkpt><trkpt lat="45.717597475830736" lon="8.475710970440845"><ele>338.0</ele><time>2026-04-06T11:48:01Z</time></trkpt><trkpt lat="45.717732342297765" lon="8.475531816321606"><ele>338.0</ele><time>2026-04-06T11:48:02Z</time></trkpt><trkpt lat="45.71787414446283" lon="8.475380587859634"><ele>337.33333333333337</ele><time>2026-04-06T11:48:03Z</time></trkpt><trkpt lat="45.7180007594202" lon="8.475221408365224"><ele>336.6666666666667</ele><time>2026-04-06T11:48:04Z</time></trkpt><trkpt lat="45.718126212124815" lon="8.475063710140724"><ele>336.0</ele><time>2026-04-06T11:48:05Z</time></trkpt><trkpt lat="45.71825212047508" lon="8.474905464425062"><ele>336.0</ele><time>2026-04-06T11:48:06Z</time></trkpt><trkpt lat="45.71837861032313" lon="8.474746487856025"><ele>336.0</ele><time>2026-04-06T11:48:07Z</time></trkpt><trkpt lat="45.71849740436759" lon="8.474568010363006"><ele>336.0</ele><time>2026-04-06T11:48:08Z</time></trkpt><trkpt lat="45.71863418695012" lon="8.47439993533051"><ele>337.0</ele><time>2026-04-06T11:48:09Z</time></trkpt><trkpt lat="45.718769819159846" lon="8.474231442689186"><ele>338.0</ele><time>2026-04-06T11:48:10Z</time></trkpt><trkpt lat="45.71889992310914" lon="8.474067707043638"><ele>339.0</ele><time>2026-04-06T11:48:11Z</time></trkpt><trkpt lat="45.719028527213105" lon="8.473906160735938"><ele>340.0</ele><time>2026-04-06T11:48:12Z</time></trkpt><trkpt lat="45.71915549924191" lon="8.473745516894454"><ele>341.0</ele><time>2026-04-06T11:48:13Z</time></trkpt><trkpt lat="45.719293947300024" lon="8.473603579574057"><ele>342.0</ele><time>2026-04-06T11:48:14Z</time></trkpt><trkpt lat="45.71941076549312" lon="8.473430174742383"><ele>343.6666666666667</ele><time>2026-04-06T11:48:15Z</time></trkpt><trkpt lat="45.71954021211014" lon="8.473272624311818"><ele>345.33333333333337</ele><time>2026-04-06T11:48:16Z</time></trkpt><trkpt lat="45.719669434047695" lon="8.473111111561689"><ele>347.0</ele><time>2026-04-06T11:48:17Z</time></trkpt><trkpt lat="45.7197968266422" lon="8.472950778732871"><ele>346.0</ele><time>2026-04-06T11:48:18Z</time></trkpt><trkpt lat="45.71993405982952" lon="8.472778225571915"><ele>345.0</ele><time>2026-04-06T11:48:19Z</time></trkpt><trkpt lat="45.7200771848903" lon="8.47260000732712"><ele>344.0</ele><time>2026-04-06T11:48:20Z</time></trkpt><trkpt lat="45.72020862038135" lon="8.472435029978465"><ele>344.6666666666667</ele><time>2026-04-06T11:48:21Z</time></trkpt><trkpt lat="45.720333820219906" lon="8.472277062628908"><ele>345.3333333333333</ele><time>2026-04-06T11:48:22Z</time></trkpt><trkpt lat="45.72045934867394" lon="8.47212095592089"><ele>346.0</ele><time>2026-04-06T11:48:23Z</time></trkpt><trkpt lat="45.72058884399822" lon="8.471959087027859"><ele>343.3333333333333</ele><time>2026-04-06T11:48:24Z</time></trkpt><trkpt lat="45.72071485891105" lon="8.471799764342423"><ele>340.6666666666667</ele><time>2026-04-06T11:48:25Z</time></trkpt><trkpt lat="45.7208397679798" lon="8.47163523165199"><ele>338.0</ele><time>2026-04-06T11:48:26Z</time></trkpt><trkpt lat="45.72096714352816" lon="8.471459074284168"><ele>339.0</ele><time>2026-04-06T11:48:27Z</time></trkpt><trkpt lat="45.72108209052255" lon="8.471286160217234"><ele>340.0</ele><time>2026-04-06T11:48:28Z</time></trkpt><trkpt lat="45.72118588077394" lon="8.471116515240974"><ele>341.0</ele><time>2026-04-06T11:48:29Z</time></trkpt><trkpt lat="45.721303135928196" lon="8.470944582448968"><ele>338.6666666666667</ele><time>2026-04-06T11:48:30Z</time></trkpt><trkpt lat="45.721405137793816" lon="8.470749744562319"><ele>336.3333333333333</ele><time>2026-04-06T11:48:31Z</time></trkpt><trkpt lat="45.72150037338974" lon="8.470556959453287"><ele>334.0</ele><time>2026-04-06T11:48:32Z</time></trkpt><trkpt lat="45.72159125178354" lon="8.470357721570362"><ele>332.0</ele><time>2026-04-06T11:48:33Z</time></trkpt><trkpt lat="45.72166239649487" lon="8.470139143225119"><ele>330.0</ele><time>2026-04-06T11:48:34Z</time></trkpt><trkpt lat="45.72174152450514" lon="8.469930626595547"><ele>328.0</ele><time>2026-04-06T11:48:35Z</time></trkpt><trkpt lat="45.72181322259998" lon="8.469719708336797"><ele>328.0</ele><time>2026-04-06T11:48:36Z</time></trkpt><trkpt lat="45.72187908450131" lon="8.469507216858515"><ele>328.0</ele><time>2026-04-06T11:48:37Z</time></trkpt><trkpt lat="45.72193813073458" lon="8.469293761009416"><ele>328.0</ele><time>2026-04-06T11:48:38Z</time></trkpt><trkpt lat="45.72199147726198" lon="8.469080732915726"><ele>328.25</ele><time>2026-04-06T11:48:39Z</time></trkpt><trkpt lat="45.72204222537428" lon="8.468871504551846"><ele>328.5</ele><time>2026-04-06T11:48:40Z</time></trkpt><trkpt lat="45.72209024673934" lon="8.468672308544367"><ele>328.75</ele><time>2026-04-06T11:48:41Z</time></trkpt><trkpt lat="45.722135899725636" lon="8.468478895859768"><ele>329.0</ele><time>2026-04-06T11:48:42Z</time></trkpt><trkpt lat="45.722179822608524" lon="8.468287894241225"><ele>329.0</ele><time>2026-04-06T11:48:43Z</time></trkpt><trkpt lat="45.72222058557356" lon="8.468103101657189"><ele>329.0</ele><time>2026-04-06T11:48:44Z</time></trkpt><trkpt lat="45.722258594178776" lon="8.467926689610893"><ele>329.0</ele><time>2026-04-06T11:48:45Z</time></trkpt><trkpt lat="45.72229667889755" lon="8.46775770418277"><ele>329.0</ele><time>2026-04-06T11:48:46Z</time></trkpt><trkpt lat="45.72233722066079" lon="8.467584334307517"><ele>328.25</ele><time>2026-04-06T11:48:47Z</time></trkpt><trkpt lat="45.72239517197848" lon="8.467408950341985"><ele>327.5</ele><time>2026-04-06T11:48:48Z</time></trkpt><trkpt lat="45.7224633512311" lon="8.467255856579644"><ele>326.75</ele><time>2026-04-06T11:48:49Z</time></trkpt><trkpt lat="45.72254546638485" lon="8.46712879916747"><ele>326.0</ele><time>2026-04-06T11:48:50Z</time></trkpt><trkpt lat="45.72263990110037" lon="8.4670215146624"><ele>326.75</ele><time>2026-04-06T11:48:51Z</time></trkpt><trkpt lat="45.72274684731118" lon="8.466948798601605"><ele>327.5</ele><time>2026-04-06T11:48:52Z</time></trkpt><trkpt lat="45.722839995772176" lon="8.466846087336306"><ele>328.25</ele><time>2026-04-06T11:48:53Z</time></trkpt><trkpt lat="45.72290399109782" lon="8.466710615110811"><ele>329.0</ele><time>2026-04-06T11:48:54Z</time></trkpt><trkpt lat="45.72293734105494" lon="8.466564993911588"><ele>329.0</ele><time>2026-04-06T11:48:55Z</time></trkpt><trkpt lat="45.722940278028055" lon="8.46642944267971"><ele>329.0</ele><time>2026-04-06T11:48:56Z</time></trkpt><trkpt lat="45.72290748594591" lon="8.46631762176123"><ele>329.0</ele><time>2026-04-06T11:48:57Z</time></trkpt><trkpt lat="45.72288722375878" lon="8.466214913647901"><ele>329.0</ele><time>2026-04-06T11:48:58Z</time></trkpt><trkpt lat="45.72286159818632" lon="8.466113277574271"><ele>329.0</ele><time>2026-04-06T11:48:59Z</time></trkpt><trkpt lat="45.722837697066254" lon="8.466004692892717"><ele>329.0</ele><time>2026-04-06T11:49:00Z</time></trkpt><trkpt lat="45.72281795551183" lon="8.465873386589884"><ele>328.75</ele><time>2026-04-06T11:49:01Z</time></trkpt><trkpt lat="45.72281212791202" lon="8.465728743642641"><ele>328.5</ele><time>2026-04-06T11:49:02Z</time></trkpt><trkpt lat="45.72282078232189" lon="8.4655753717453"><ele>328.25</ele><time>2026-04-06T11:49:03Z</time></trkpt><trkpt lat="45.7228359859968" lon="8.465410710813899"><ele>328.0</ele><time>2026-04-06T11:49:04Z</time></trkpt><trkpt lat="45.72288398194022" lon="8.465242742151444"><ele>327.75</ele><time>2026-04-06T11:49:05Z</time></trkpt><trkpt lat="45.72292207622947" lon="8.465074348090457"><ele>327.5</ele><time>2026-04-06T11:49:06Z</time></trkpt><trkpt lat="45.72295632374626" lon="8.464923163776607"><ele>327.25</ele><time>2026-04-06T11:49:07Z</time></trkpt><trkpt lat="45.72299073089342" lon="8.464771421928369"><ele>327.0</ele><time>2026-04-06T11:49:08Z</time></trkpt><trkpt lat="45.72303071597405" lon="8.464595080366836"><ele>326.6666666666667</ele><time>2026-04-06T11:49:09Z</time></trkpt><trkpt lat="45.72308148869803" lon="8.464371428446071"><ele>326.33333333333337</ele><time>2026-04-06T11:49:10Z</time></trkpt><trkpt lat="45.723141289011025" lon="8.46411190756737"><ele>326.0</ele><time>2026-04-06T11:49:11Z</time></trkpt><trkpt lat="45.72320495944294" lon="8.463835591210614"><ele>326.0</ele><time>2026-04-06T11:49:12Z</time></trkpt><trkpt lat="45.72327208823413" lon="8.463544001367309"><ele>326.0</ele><time>2026-04-06T11:49:13Z</time></trkpt><trkpt lat="45.72334101504144" lon="8.46323944469385"><ele>326.0</ele><time>2026-04-06T11:49:14Z</time></trkpt><trkpt lat="45.72339704192222" lon="8.462919218012484"><ele>326.0</ele><time>2026-04-06T11:49:15Z</time></trkpt><trkpt lat="45.72347354021333" lon="8.462584658846303"><ele>326.0</ele><time>2026-04-06T11:49:16Z</time></trkpt><trkpt lat="45.72355437910683" lon="8.462236807929946"><ele>327.0</ele><time>2026-04-06T11:49:17Z</time></trkpt><trkpt lat="45.723633118078425" lon="8.461895574818213"><ele>328.0</ele><time>2026-04-06T11:49:18Z</time></trkpt><trkpt lat="45.72370240608463" lon="8.461587852922946"><ele>328.0</ele><time>2026-04-06T11:49:19Z</time></trkpt><trkpt lat="45.723762278765605" lon="8.461285401862202"><ele>328.0</ele><time>2026-04-06T11:49:20Z</time></trkpt><trkpt lat="45.72380718675258" lon="8.460983089752244"><ele>328.0</ele><time>2026-04-06T11:49:21Z</time></trkpt><trkpt lat="45.723841915186206" lon="8.460678367989102"><ele>331.3333333333333</ele><time>2026-04-06T11:49:22Z</time></trkpt><trkpt lat="45.72386389811929" lon="8.460373921634549"><ele>334.6666666666667</ele><time>2026-04-06T11:49:23Z</time></trkpt><trkpt lat="45.72387971578737" lon="8.460055662841368"><ele>338.0</ele><time>2026-04-06T11:49:24Z</time></trkpt><trkpt lat="45.723888116448876" lon="8.459729749408405"><ele>337.5</ele><time>2026-04-06T11:49:25Z</time></trkpt><trkpt lat="45.72388332884457" lon="8.459395674225215"><ele>337.0</ele><time>2026-04-06T11:49:26Z</time></trkpt><trkpt lat="45.72386662813032" lon="8.45905390259852"><ele>335.0</ele><time>2026-04-06T11:49:27Z</time></trkpt><trkpt lat="45.7238425172528" lon="8.458709880866493"><ele>333.0</ele><time>2026-04-06T11:49:28Z</time></trkpt><trkpt lat="45.72381584686417" lon="8.458364800972701"><ele>333.0</ele><time>2026-04-06T11:49:29Z</time></trkpt><trkpt lat="45.723788626031606" lon="8.458024457946802"><ele>333.0</ele><time>2026-04-06T11:49:30Z</time></trkpt><trkpt lat="45.72376197071933" lon="8.457692649128312"><ele>334.0</ele><time>2026-04-06T11:49:31Z</time></trkpt><trkpt lat="45.72373583294671" lon="8.457358441913751"><ele>335.0</ele><time>2026-04-06T11:49:32Z</time></trkpt><trkpt lat="45.72370906823941" lon="8.45702586070672"><ele>335.5</ele><time>2026-04-06T11:49:33Z</time></trkpt><trkpt lat="45.72368177224898" lon="8.45669316906433"><ele>336.0</ele><time>2026-04-06T11:49:34Z</time></trkpt><trkpt lat="45.723653360684246" lon="8.456362523738717"><ele>337.0</ele><time>2026-04-06T11:49:35Z</time></trkpt><trkpt lat="45.723624246647574" lon="8.45603165418759"><ele>338.0</ele><time>2026-04-06T11:49:36Z</time></trkpt><trkpt lat="45.72359528984664" lon="8.455697411405408"><ele>339.0</ele><time>2026-04-06T11:49:37Z</time></trkpt><trkpt lat="45.72356709579841" lon="8.455364132793735"><ele>340.0</ele><time>2026-04-06T11:49:38Z</time></trkpt><trkpt lat="45.723539668648044" lon="8.455025279740576"><ele>338.0</ele><time>2026-04-06T11:49:39Z</time></trkpt><trkpt lat="45.7235122615784" lon="8.454688603076262"><ele>336.0</ele><time>2026-04-06T11:49:40Z</time></trkpt><trkpt lat="45.7234844594476" lon="8.454348715991369"><ele>335.0</ele><time>2026-04-06T11:49:41Z</time></trkpt><trkpt lat="45.72345662481341" lon="8.454010663405981"><ele>334.0</ele><time>2026-04-06T11:49:42Z</time></trkpt><trkpt lat="45.72342721180592" lon="8.45367474498459"><ele>334.0</ele><time>2026-04-06T11:49:43Z</time></trkpt><trkpt lat="45.72339746829312" lon="8.453346677227502"><ele>334.0</ele><time>2026-04-06T11:49:44Z</time></trkpt><trkpt lat="45.72336832273314" lon="8.453017899966067"><ele>333.0</ele><time>2026-04-06T11:49:45Z</time></trkpt><trkpt lat="45.72334059334923" lon="8.45268601649562"><ele>332.0</ele><time>2026-04-06T11:49:46Z</time></trkpt><trkpt lat="45.72331299188073" lon="8.452346215081661"><ele>332.0</ele><time>2026-04-06T11:49:47Z</time></trkpt><trkpt lat="45.7232838353955" lon="8.452005688480751"><ele>332.0</ele><time>2026-04-06T11:49:48Z</time></trkpt><trkpt lat="45.7232564656156" lon="8.451669471171334"><ele>332.0</ele><time>2026-04-06T11:49:49Z</time></trkpt><trkpt lat="45.72322881707348" lon="8.451336345724686"><ele>332.0</ele><time>2026-04-06T11:49:50Z</time></trkpt><trkpt lat="45.72320234603624" lon="8.451002702458847"><ele>332.0</ele><time>2026-04-06T11:49:51Z</time></trkpt><trkpt lat="45.723174465184606" lon="8.45066824537665"><ele>332.0</ele><time>2026-04-06T11:49:52Z</time></trkpt><trkpt lat="45.72314611550214" lon="8.450328245482652"><ele>333.5</ele><time>2026-04-06T11:49:53Z</time></trkpt><trkpt lat="45.72311906115877" lon="8.449993098600665"><ele>335.0</ele><time>2026-04-06T11:49:54Z</time></trkpt><trkpt lat="45.723090701384386" lon="8.449668702410808"><ele>335.0</ele><time>2026-04-06T11:49:55Z</time></trkpt><trkpt lat="45.723059775350734" lon="8.449343797308398"><ele>335.0</ele><time>2026-04-06T11:49:56Z</time></trkpt><trkpt lat="45.72303149805317" lon="8.449007653150451"><ele>334.33333333333337</ele><time>2026-04-06T11:49:57Z</time></trkpt><trkpt lat="45.723009135163394" lon="8.448692894979128"><ele>333.6666666666667</ele><time>2026-04-06T11:49:58Z</time></trkpt><trkpt lat="45.722993808616124" lon="8.448430710771262"><ele>333.0</ele><time>2026-04-06T11:49:59Z</time></trkpt><trkpt lat="45.722987619348494" lon="8.448215562069363"><ele>333.0</ele><time>2026-04-06T11:50:00Z</time></trkpt><trkpt lat="45.72299008251214" lon="8.448041840963816"><ele>333.0</ele><time>2026-04-06T11:50:01Z</time></trkpt><trkpt lat="45.723009011900416" lon="8.44790643462018"><ele>333.0</ele><time>2026-04-06T11:50:02Z</time></trkpt><trkpt lat="45.72304681001896" lon="8.447795448415555"><ele>333.0</ele><time>2026-04-06T11:50:03Z</time></trkpt><trkpt lat="45.72310161484285" lon="8.447694480884838"><ele>333.0</ele><time>2026-04-06T11:50:04Z</time></trkpt><trkpt lat="45.723180633384" lon="8.44758067495889"><ele>333.0</ele><time>2026-04-06T11:50:05Z</time></trkpt><trkpt lat="45.72324615934555" lon="8.447431426326986"><ele>333.0</ele><time>2026-04-06T11:50:06Z</time></trkpt><trkpt lat="45.723311607253706" lon="8.447264002345191"><ele>333.0</ele><time>2026-04-06T11:50:07Z</time></trkpt><trkpt lat="45.72339181358257" lon="8.447108965979378"><ele>333.0</ele><time>2026-04-06T11:50:08Z</time></trkpt><trkpt lat="45.723492922855144" lon="8.446980566638608"><ele>333.25</ele><time>2026-04-06T11:50:09Z</time></trkpt><trkpt lat="45.72360520596597" lon="8.44687917360999"><ele>333.5</ele><time>2026-04-06T11:50:10Z</time></trkpt><trkpt lat="45.72372813968995" lon="8.446794891975479"><ele>333.75</ele><time>2026-04-06T11:50:11Z</time></trkpt><trkpt lat="45.723851944368626" lon="8.446715200054305"><ele>334.0</ele><time>2026-04-06T11:50:12Z</time></trkpt><trkpt lat="45.72397168256872" lon="8.446634623011276"><ele>334.0</ele><time>2026-04-06T11:50:13Z</time></trkpt><trkpt lat="45.72408860836713" lon="8.4465556157737"><ele>334.0</ele><time>2026-04-06T11:50:14Z</time></trkpt><trkpt lat="45.72420379837213" lon="8.446475372475684"><ele>334.0</ele><time>2026-04-06T11:50:15Z</time></trkpt><trkpt lat="45.72431788319428" lon="8.446395688353611"><ele>334.0</ele><time>2026-04-06T11:50:16Z</time></trkpt><trkpt lat="45.72443476287064" lon="8.446314242948443"><ele>334.5</ele><time>2026-04-06T11:50:17Z</time></trkpt><trkpt lat="45.724560170106976" lon="8.446228039742138"><ele>335.0</ele><time>2026-04-06T11:50:18Z</time></trkpt><trkpt lat="45.72469253967937" lon="8.446134632570582"><ele>335.5</ele><time>2026-04-06T11:50:19Z</time></trkpt><trkpt lat="45.724826124900865" lon="8.446035882848932"><ele>336.0</ele><time>2026-04-06T11:50:20Z</time></trkpt><trkpt lat="45.72496874871202" lon="8.445928365024447"><ele>336.0</ele><time>2026-04-06T11:50:21Z</time></trkpt><trkpt lat="45.72512206703558" lon="8.445818353840934"><ele>336.0</ele><time>2026-04-06T11:50:22Z</time></trkpt><trkpt lat="45.72527896946342" lon="8.445713943462492"><ele>336.0</ele><time>2026-04-06T11:50:23Z</time></trkpt><trkpt lat="45.72542897688037" lon="8.445623056967143"><ele>336.3333333333333</ele><time>2026-04-06T11:50:24Z</time></trkpt><trkpt lat="45.72557686996447" lon="8.445545470882369"><ele>336.66666666666663</ele><time>2026-04-06T11:50:25Z</time></trkpt><trkpt lat="45.725724998111325" lon="8.445476137440773"><ele>337.0</ele><time>2026-04-06T11:50:26Z</time></trkpt><trkpt lat="45.72587875318555" lon="8.445408401088145"><ele>337.66666666666663</ele><time>2026-04-06T11:50:27Z</time></trkpt><trkpt lat="45.72604138730694" lon="8.445336340894894"><ele>338.3333333333333</ele><time>2026-04-06T11:50:28Z</time></trkpt><trkpt lat="45.726205107464324" lon="8.445260547078124"><ele>339.0</ele><time>2026-04-06T11:50:29Z</time></trkpt><trkpt lat="45.72636760590258" lon="8.445187544689329"><ele>340.0</ele><time>2026-04-06T11:50:30Z</time></trkpt><trkpt lat="45.72653396238285" lon="8.445113160500458"><ele>341.0</ele><time>2026-04-06T11:50:31Z</time></trkpt><trkpt lat="45.72670214902883" lon="8.445038741791999"><ele>342.0</ele><time>2026-04-06T11:50:32Z</time></trkpt><trkpt lat="45.72687272939217" lon="8.444961393709525"><ele>341.6666666666667</ele><time>2026-04-06T11:50:33Z</time></trkpt><trkpt lat="45.727043919151356" lon="8.444881998032432"><ele>341.33333333333337</ele><time>2026-04-06T11:50:34Z</time></trkpt><trkpt lat="45.72721045252926" lon="8.444801316198838"><ele>341.0</ele><time>2026-04-06T11:50:35Z</time></trkpt><trkpt lat="45.727367132140316" lon="8.444726871041595"><ele>341.0</ele><time>2026-04-06T11:50:36Z</time></trkpt><trkpt lat="45.72751407885161" lon="8.444661770178941"><ele>341.0</ele><time>2026-04-06T11:50:37Z</time></trkpt><trkpt lat="45.727655357388514" lon="8.444601462900017"><ele>341.0</ele><time>2026-04-06T11:50:38Z</time></trkpt><trkpt lat="45.72779487914106" lon="8.444541684760683"><ele>341.0</ele><time>2026-04-06T11:50:39Z</time></trkpt><trkpt lat="45.7279374100693" lon="8.444483636360397"><ele>340.75</ele><time>2026-04-06T11:50:40Z</time></trkpt><trkpt lat="45.7280769630243" lon="8.444429922013384"><ele>340.5</ele><time>2026-04-06T11:50:41Z</time></trkpt><trkpt lat="45.728218255086496" lon="8.444374677787566"><ele>340.25</ele><time>2026-04-06T11:50:42Z</time></trkpt><trkpt lat="45.72836475092848" lon="8.444319922038941"><ele>340.0</ele><time>2026-04-06T11:50:43Z</time></trkpt><trkpt lat="45.7285127835904" lon="8.444267813003679"><ele>340.66666666666663</ele><time>2026-04-06T11:50:44Z</time></trkpt><trkpt lat="45.72866014040097" lon="8.444217609910229"><ele>341.3333333333333</ele><time>2026-04-06T11:50:45Z</time></trkpt><trkpt lat="45.728810288683064" lon="8.444164320719425"><ele>342.0</ele><time>2026-04-06T11:50:46Z</time></trkpt><trkpt lat="45.72896447443095" lon="8.444108369289696"><ele>342.0</ele><time>2026-04-06T11:50:47Z</time></trkpt><trkpt lat="45.729117371708966" lon="8.444053576545846"><ele>342.0</ele><time>2026-04-06T11:50:48Z</time></trkpt><trkpt lat="45.729260124752095" lon="8.44400188427815"><ele>342.0</ele><time>2026-04-06T11:50:49Z</time></trkpt><trkpt lat="45.72939397905462" lon="8.443952151844108"><ele>342.0</ele><time>2026-04-06T11:50:50Z</time></trkpt><trkpt lat="45.72951981349867" lon="8.443904879385112"><ele>342.0</ele><time>2026-04-06T11:50:51Z</time></trkpt><trkpt lat="45.729639567357154" lon="8.443861805042815"><ele>342.0</ele><time>2026-04-06T11:50:52Z</time></trkpt><trkpt lat="45.729759099947344" lon="8.44381772787026"><ele>342.0</ele><time>2026-04-06T11:50:53Z</time></trkpt><trkpt lat="45.72987645194402" lon="8.443773576715897"><ele>342.0</ele><time>2026-04-06T11:50:54Z</time></trkpt><trkpt lat="45.729985828939675" lon="8.443731250403259"><ele>342.0</ele><time>2026-04-06T11:50:55Z</time></trkpt><trkpt lat="45.73008407131849" lon="8.443691052711632"><ele>342.0</ele><time>2026-04-06T11:50:56Z</time></trkpt><trkpt lat="45.73016876292248" lon="8.443658794262692"><ele>342.0</ele><time>2026-04-06T11:50:57Z</time></trkpt><trkpt lat="45.73025842194922" lon="8.44362424740654"><ele>342.0</ele><time>2026-04-06T11:50:58Z</time></trkpt><trkpt lat="45.73035551349236" lon="8.443591512458923"><ele>342.0</ele><time>2026-04-06T11:50:59Z</time></trkpt><trkpt lat="45.730444426453566" lon="8.443565722621877"><ele>342.0</ele><time>2026-04-06T11:51:00Z</time></trkpt><trkpt lat="45.73053226150985" lon="8.443570733416669"><ele>342.0</ele><time>2026-04-06T11:51:01Z</time></trkpt><trkpt lat="45.730606160248925" lon="8.443525041893572"><ele>342.0</ele><time>2026-04-06T11:51:02Z</time></trkpt><trkpt lat="45.73068533914619" lon="8.443495770523592"><ele>342.0</ele><time>2026-04-06T11:51:03Z</time></trkpt><trkpt lat="45.730770076975425" lon="8.443476092340564"><ele>342.0</ele><time>2026-04-06T11:51:04Z</time></trkpt><trkpt lat="45.73084215713302" lon="8.443403459210126"><ele>342.0</ele><time>2026-04-06T11:51:05Z</time></trkpt><trkpt lat="45.7309261257284" lon="8.443344036712828"><ele>342.0</ele><time>2026-04-06T11:51:06Z</time></trkpt><trkpt lat="45.73101690068181" lon="8.443278511164511"><ele>342.0</ele><time>2026-04-06T11:51:07Z</time></trkpt><trkpt lat="45.731110434853484" lon="8.443213961941332"><ele>342.0</ele><time>2026-04-06T11:51:07.999Z</time></trkpt><trkpt lat="45.73120660393972" lon="8.443149362735392"><ele>342.0</ele><time>2026-04-06T11:51:08.999Z</time></trkpt><trkpt lat="45.73131496016798" lon="8.443074292456625"><ele>342.0</ele><time>2026-04-06T11:51:09.999Z</time></trkpt><trkpt lat="45.73142419421686" lon="8.442995822636224"><ele>342.0</ele><time>2026-04-06T11:51:10.999Z</time></trkpt><trkpt lat="45.731538281737045" lon="8.442917669998469"><ele>342.0</ele><time>2026-04-06T11:51:11.999Z</time></trkpt><trkpt lat="45.731655628739766" lon="8.442835712286143"><ele>342.0</ele><time>2026-04-06T11:51:12.999Z</time></trkpt><trkpt lat="45.731762525943644" lon="8.442758517392495"><ele>342.0</ele><time>2026-04-06T11:51:13.999Z</time></trkpt><trkpt lat="45.73186658622442" lon="8.4426849786437"><ele>342.5</ele><time>2026-04-06T11:51:14.999Z</time></trkpt><trkpt lat="45.73197379958727" lon="8.442609785902082"><ele>343.0</ele><time>2026-04-06T11:51:15.999Z</time></trkpt><trkpt lat="45.73208515347903" lon="8.442533440897943"><ele>343.5</ele><time>2026-04-06T11:51:16.999Z</time></trkpt><trkpt lat="45.73220312089609" lon="8.442449244905026"><ele>344.0</ele><time>2026-04-06T11:51:17.999Z</time></trkpt><trkpt lat="45.73232690513333" lon="8.442363162521161"><ele>344.0</ele><time>2026-04-06T11:51:18.999Z</time></trkpt><trkpt lat="45.732448410804786" lon="8.442279720090148"><ele>344.0</ele><time>2026-04-06T11:51:19.999Z</time></trkpt><trkpt lat="45.73257079969048" lon="8.442194859938596"><ele>344.0</ele><time>2026-04-06T11:51:20.999Z</time></trkpt><trkpt lat="45.73269894339901" lon="8.442107485391034"><ele>344.0</ele><time>2026-04-06T11:51:21.999Z</time></trkpt><trkpt lat="45.732830270119514" lon="8.442017448581137"><ele>343.75</ele><time>2026-04-06T11:51:22.999Z</time></trkpt><trkpt lat="45.73295603451881" lon="8.441929116792656"><ele>343.5</ele><time>2026-04-06T11:51:23.999Z</time></trkpt><trkpt lat="45.7330811301853" lon="8.441841293414193"><ele>343.25</ele><time>2026-04-06T11:51:24.999Z</time></trkpt><trkpt lat="45.733207070777596" lon="8.441753638727976"><ele>343.0</ele><time>2026-04-06T11:51:25.999Z</time></trkpt><trkpt lat="45.73333311029021" lon="8.441666035429574"><ele>343.0</ele><time>2026-04-06T11:51:26.999Z</time></trkpt><trkpt lat="45.73345917503625" lon="8.441578617432056"><ele>343.0</ele><time>2026-04-06T11:51:28Z</time></trkpt><trkpt lat="45.733582764806414" lon="8.441492024009612"><ele>343.0</ele><time>2026-04-06T11:51:29Z</time></trkpt><trkpt lat="45.733700041280386" lon="8.441409824445824"><ele>343.0</ele><time>2026-04-06T11:51:30Z</time></trkpt><trkpt lat="45.73381566919006" lon="8.441329547374254"><ele>343.75</ele><time>2026-04-06T11:51:31Z</time></trkpt><trkpt lat="45.73393063273108" lon="8.44124913643136"><ele>344.5</ele><time>2026-04-06T11:51:32Z</time></trkpt><trkpt lat="45.734046169227994" lon="8.441168173898616"><ele>345.25</ele><time>2026-04-06T11:51:33Z</time></trkpt><trkpt lat="45.734163067347595" lon="8.44108701949681"><ele>346.0</ele><time>2026-04-06T11:51:34Z</time></trkpt><trkpt lat="45.734295052222244" lon="8.440998266900904"><ele>345.75</ele><time>2026-04-06T11:51:35Z</time></trkpt><trkpt lat="45.73442531104109" lon="8.440915694433631"><ele>345.5</ele><time>2026-04-06T11:51:36Z</time></trkpt><trkpt lat="45.73454666451339" lon="8.44084106393941"><ele>345.25</ele><time>2026-04-06T11:51:37Z</time></trkpt><trkpt lat="45.734667772612646" lon="8.44076764865345"><ele>345.0</ele><time>2026-04-06T11:51:38Z</time></trkpt><trkpt lat="45.73478782706722" lon="8.440699284269968"><ele>345.0</ele><time>2026-04-06T11:51:39Z</time></trkpt><trkpt lat="45.734912214929246" lon="8.44065961907175"><ele>345.0</ele><time>2026-04-06T11:51:40Z</time></trkpt><trkpt lat="45.73501951731718" lon="8.440580644470414"><ele>345.0</ele><time>2026-04-06T11:51:41Z</time></trkpt><trkpt lat="45.73512669271007" lon="8.440528969835901"><ele>345.0</ele><time>2026-04-06T11:51:42Z</time></trkpt><trkpt lat="45.735225463611755" lon="8.440483979421664"><ele>345.0</ele><time>2026-04-06T11:51:43Z</time></trkpt><trkpt lat="45.73531756437662" lon="8.440453152384439"><ele>345.0</ele><time>2026-04-06T11:51:44Z</time></trkpt><trkpt lat="45.73540404603034" lon="8.440447622696796"><ele>345.0</ele><time>2026-04-06T11:51:45Z</time></trkpt><trkpt lat="45.73548697913801" lon="8.440457444949233"><ele>345.0</ele><time>2026-04-06T11:51:46Z</time></trkpt><trkpt lat="45.73556660379226" lon="8.440471471724726"><ele>345.0</ele><time>2026-04-06T11:51:47Z</time></trkpt><trkpt lat="45.735644934414985" lon="8.440459505018701"><ele>345.0</ele><time>2026-04-06T11:51:48Z</time></trkpt><trkpt lat="45.73571521333096" lon="8.440422797873518"><ele>345.0</ele><time>2026-04-06T11:51:49Z</time></trkpt><trkpt lat="45.735773465927856" lon="8.440353662716122"><ele>345.0</ele><time>2026-04-06T11:51:50Z</time></trkpt><trkpt lat="45.73583210290982" lon="8.440260124027073"><ele>345.0</ele><time>2026-04-06T11:51:51Z</time></trkpt><trkpt lat="45.73591038888475" lon="8.440169865193143"><ele>345.0</ele><time>2026-04-06T11:51:52Z</time></trkpt><trkpt lat="45.73601632391143" lon="8.440109992180103"><ele>345.0</ele><time>2026-04-06T11:51:53Z</time></trkpt><trkpt lat="45.73612376239039" lon="8.440062289647445"><ele>345.0</ele><time>2026-04-06T11:51:54Z</time></trkpt><trkpt lat="45.736234813586336" lon="8.440019580326206"><ele>345.0</ele><time>2026-04-06T11:51:55Z</time></trkpt><trkpt lat="45.73635962528089" lon="8.4399705997134"><ele>345.0</ele><time>2026-04-06T11:51:56Z</time></trkpt><trkpt lat="45.736495178416256" lon="8.439920933088155"><ele>345.0</ele><time>2026-04-06T11:51:57Z</time></trkpt><trkpt lat="45.73663802172144" lon="8.439869518777043"><ele>345.0</ele><time>2026-04-06T11:51:58Z</time></trkpt><trkpt lat="45.736784806192205" lon="8.439814094612991"><ele>345.0</ele><time>2026-04-06T11:51:59Z</time></trkpt><trkpt lat="45.736930334249024" lon="8.439760289926918"><ele>345.0</ele><time>2026-04-06T11:52:00Z</time></trkpt><trkpt lat="45.73707161660496" lon="8.439709925824735"><ele>345.0</ele><time>2026-04-06T11:52:01Z</time></trkpt><trkpt lat="45.737208371487405" lon="8.439657667162567"><ele>345.25</ele><time>2026-04-06T11:52:02Z</time></trkpt><trkpt lat="45.73734189069198" lon="8.439607864768869"><ele>345.5</ele><time>2026-04-06T11:52:03Z</time></trkpt><trkpt lat="45.73747124224509" lon="8.439557375013495"><ele>345.75</ele><time>2026-04-06T11:52:04Z</time></trkpt><trkpt lat="45.737598990937805" lon="8.439505329721138"><ele>346.0</ele><time>2026-04-06T11:52:05Z</time></trkpt><trkpt lat="45.73772503315774" lon="8.439451712879094"><ele>346.5</ele><time>2026-04-06T11:52:06Z</time></trkpt><trkpt lat="45.73785450438579" lon="8.439396196192357"><ele>347.0</ele><time>2026-04-06T11:52:07Z</time></trkpt><trkpt lat="45.73799159311677" lon="8.439336911810036"><ele>347.5</ele><time>2026-04-06T11:52:08Z</time></trkpt><trkpt lat="45.738134488204544" lon="8.43927690697693"><ele>348.0</ele><time>2026-04-06T11:52:09Z</time></trkpt><trkpt lat="45.73827622455756" lon="8.439218596000018"><ele>348.0</ele><time>2026-04-06T11:52:10Z</time></trkpt><trkpt lat="45.738422782500685" lon="8.439159104833939"><ele>348.0</ele><time>2026-04-06T11:52:11Z</time></trkpt><trkpt lat="45.73857483870788" lon="8.439099613549827"><ele>348.0</ele><time>2026-04-06T11:52:12Z</time></trkpt><trkpt lat="45.738729420510396" lon="8.439043671005985"><ele>348.25</ele><time>2026-04-06T11:52:13Z</time></trkpt><trkpt lat="45.73888024133613" lon="8.438989726392132"><ele>348.5</ele><time>2026-04-06T11:52:14Z</time></trkpt><trkpt lat="45.739023900498445" lon="8.438941455546901"><ele>348.75</ele><time>2026-04-06T11:52:15Z</time></trkpt><trkpt lat="45.73915646787238" lon="8.438894384422222"><ele>349.0</ele><time>2026-04-06T11:52:16Z</time></trkpt><trkpt lat="45.73928598789755" lon="8.438851650273175"><ele>348.75</ele><time>2026-04-06T11:52:17Z</time></trkpt><trkpt lat="45.73941218670953" lon="8.438812924690685"><ele>348.5</ele><time>2026-04-06T11:52:18Z</time></trkpt><trkpt lat="45.73953464988535" lon="8.4387758415979"><ele>348.25</ele><time>2026-04-06T11:52:19Z</time></trkpt><trkpt lat="45.73965293616206" lon="8.438738156114848"><ele>348.0</ele><time>2026-04-06T11:52:20Z</time></trkpt><trkpt lat="45.73976843351064" lon="8.438700186455103"><ele>348.0</ele><time>2026-04-06T11:52:21Z</time></trkpt><trkpt lat="45.73988314471635" lon="8.438662094594877"><ele>348.0</ele><time>2026-04-06T11:52:22Z</time></trkpt><trkpt lat="45.739996870614156" lon="8.438621801567933"><ele>348.0</ele><time>2026-04-06T11:52:23Z</time></trkpt><trkpt lat="45.74011307613484" lon="8.438579436990073"><ele>348.0</ele><time>2026-04-06T11:52:24Z</time></trkpt><trkpt lat="45.74023214190837" lon="8.438533133700783"><ele>348.0</ele><time>2026-04-06T11:52:25Z</time></trkpt><trkpt lat="45.740349667382205" lon="8.438484396130322"><ele>348.0</ele><time>2026-04-06T11:52:26Z</time></trkpt><trkpt lat="45.74046874083897" lon="8.438432421525642"><ele>348.0</ele><time>2026-04-06T11:52:27Z</time></trkpt><trkpt lat="45.740585341537006" lon="8.438379017845104"><ele>348.0</ele><time>2026-04-06T11:52:28Z</time></trkpt><trkpt lat="45.740694671433204" lon="8.43832366541616"><ele>348.0</ele><time>2026-04-06T11:52:29Z</time></trkpt><trkpt lat="45.740798255810304" lon="8.438272045435305"><ele>348.0</ele><time>2026-04-06T11:52:30Z</time></trkpt><trkpt lat="45.740893450879305" lon="8.438234059865565"><ele>348.0</ele><time>2026-04-06T11:52:31Z</time></trkpt><trkpt lat="45.740992613156756" lon="8.43822111951385"><ele>348.0</ele><time>2026-04-06T11:52:32Z</time></trkpt><trkpt lat="45.74108870001427" lon="8.43821747030795"><ele>348.0</ele><time>2026-04-06T11:52:33Z</time></trkpt><trkpt lat="45.741170393382" lon="8.438213516601085"><ele>348.0</ele><time>2026-04-06T11:52:34Z</time></trkpt><trkpt lat="45.74124389253104" lon="8.438205869348613"><ele>348.0</ele><time>2026-04-06T11:52:35Z</time></trkpt><trkpt lat="45.74131968413841" lon="8.43820156938995"><ele>348.0</ele><time>2026-04-06T11:52:36Z</time></trkpt><trkpt lat="45.74139504484252" lon="8.43819585876411"><ele>348.0</ele><time>2026-04-06T11:52:37Z</time></trkpt><trkpt lat="45.74146653289934" lon="8.438165732960464"><ele>348.0</ele><time>2026-04-06T11:52:38Z</time></trkpt><trkpt lat="45.74152103187135" lon="8.438098228866725"><ele>348.0</ele><time>2026-04-06T11:52:39Z</time></trkpt><trkpt lat="45.741553673761075" lon="8.438006584353325"><ele>348.0</ele><time>2026-04-06T11:52:40Z</time></trkpt><trkpt lat="45.74155982049013" lon="8.437894073497501"><ele>348.0</ele><time>2026-04-06T11:52:41Z</time></trkpt><trkpt lat="45.74156301730106" lon="8.437776428257498"><ele>348.0</ele><time>2026-04-06T11:52:42Z</time></trkpt><trkpt lat="45.741574883477256" lon="8.437649613208652"><ele>348.0</ele><time>2026-04-06T11:52:43Z</time></trkpt><trkpt lat="45.74160628017071" lon="8.437514102917854"><ele>348.0</ele><time>2026-04-06T11:52:44Z</time></trkpt><trkpt lat="45.74165983174146" lon="8.437378115242671"><ele>348.0</ele><time>2026-04-06T11:52:45Z</time></trkpt><trkpt lat="45.74173422464727" lon="8.437242964989249"><ele>348.0</ele><time>2026-04-06T11:52:46Z</time></trkpt><trkpt lat="45.7418195688439" lon="8.437101039188038"><ele>348.0</ele><time>2026-04-06T11:52:47Z</time></trkpt><trkpt lat="45.74190300889408" lon="8.436942104127814"><ele>348.0</ele><time>2026-04-06T11:52:48Z</time></trkpt><trkpt lat="45.74198868708237" lon="8.436772612595071"><ele>348.0</ele><time>2026-04-06T11:52:49Z</time></trkpt><trkpt lat="45.74207536351654" lon="8.436603112839345"><ele>348.0</ele><time>2026-04-06T11:52:49.999Z</time></trkpt><trkpt lat="45.74215753069366" lon="8.436434955586428"><ele>348.0</ele><time>2026-04-06T11:52:50.999Z</time></trkpt><trkpt lat="45.742241753179336" lon="8.436269564242723"><ele>348.0</ele><time>2026-04-06T11:52:51.999Z</time></trkpt><trkpt lat="45.74232988664951" lon="8.436093044887208"><ele>348.0</ele><time>2026-04-06T11:52:52.999Z</time></trkpt><trkpt lat="45.74241525845738" lon="8.43591918479952"><ele>348.0</ele><time>2026-04-06T11:52:53.999Z</time></trkpt><trkpt lat="45.74249763323429" lon="8.435749274994468"><ele>348.0</ele><time>2026-04-06T11:52:54.999Z</time></trkpt><trkpt lat="45.74258277743912" lon="8.435573414969747"><ele>348.0</ele><time>2026-04-06T11:52:55.999Z</time></trkpt><trkpt lat="45.742669874842974" lon="8.435401436795027"><ele>348.0</ele><time>2026-04-06T11:52:56.999Z</time></trkpt><trkpt lat="45.742752446509286" lon="8.43523362983331"><ele>348.0</ele><time>2026-04-06T11:52:57.999Z</time></trkpt><trkpt lat="45.742834524710595" lon="8.435066778901355"><ele>348.0</ele><time>2026-04-06T11:52:58.999Z</time></trkpt><trkpt lat="45.74292405446896" lon="8.434890616965514"><ele>348.0</ele><time>2026-04-06T11:52:59.999Z</time></trkpt><trkpt lat="45.74301906422939" lon="8.43471493769888"><ele>348.25</ele><time>2026-04-06T11:53:00.999Z</time></trkpt><trkpt lat="45.743119427609095" lon="8.434540951239926"><ele>348.5</ele><time>2026-04-06T11:53:01.999Z</time></trkpt><trkpt lat="45.74321271834648" lon="8.434376239236192"><ele>348.75</ele><time>2026-04-06T11:53:02.999Z</time></trkpt><trkpt lat="45.74330439841471" lon="8.434218708210983"><ele>349.0</ele><time>2026-04-06T11:53:03.999Z</time></trkpt><trkpt lat="45.74339019506137" lon="8.434064632374684"><ele>349.0</ele><time>2026-04-06T11:53:04.999Z</time></trkpt><trkpt lat="45.74347221841784" lon="8.433917676233468"><ele>349.0</ele><time>2026-04-06T11:53:05.999Z</time></trkpt><trkpt lat="45.74355556123166" lon="8.433769571133162"><ele>349.0</ele><time>2026-04-06T11:53:06.999Z</time></trkpt><trkpt lat="45.74364259767234" lon="8.433614567290585"><ele>349.0</ele><time>2026-04-06T11:53:07.999Z</time></trkpt><trkpt lat="45.743727707116065" lon="8.433467699201985"><ele>349.25</ele><time>2026-04-06T11:53:08.999Z</time></trkpt><trkpt lat="45.74381412978068" lon="8.433321962832807"><ele>349.5</ele><time>2026-04-06T11:53:09.999Z</time></trkpt><trkpt lat="45.74389542424625" lon="8.433179096947118"><ele>349.75</ele><time>2026-04-06T11:53:10.999Z</time></trkpt><trkpt lat="45.74397645013468" lon="8.433036498692472"><ele>350.0</ele><time>2026-04-06T11:53:11.999Z</time></trkpt><trkpt lat="45.74406256645142" lon="8.432885831602798"><ele>350.25</ele><time>2026-04-06T11:53:12.999Z</time></trkpt><trkpt lat="45.744145844553216" lon="8.432735459455856"><ele>350.5</ele><time>2026-04-06T11:53:13.999Z</time></trkpt><trkpt lat="45.74422788472736" lon="8.432586405392463"><ele>350.75</ele><time>2026-04-06T11:53:14.999Z</time></trkpt><trkpt lat="45.744316033963436" lon="8.432429366307424"><ele>351.0</ele><time>2026-04-06T11:53:15.999Z</time></trkpt><trkpt lat="45.744409273140974" lon="8.432264946220995"><ele>351.0</ele><time>2026-04-06T11:53:16.999Z</time></trkpt><trkpt lat="45.74450327543339" lon="8.432100401537221"><ele>351.0</ele><time>2026-04-06T11:53:17.999Z</time></trkpt><trkpt lat="45.74459521487808" lon="8.431937606274811"><ele>351.0</ele><time>2026-04-06T11:53:18.999Z</time></trkpt><trkpt lat="45.74468851363311" lon="8.43177538186947"><ele>351.0</ele><time>2026-04-06T11:53:19.999Z</time></trkpt><trkpt lat="45.74477738796728" lon="8.431623627718505"><ele>351.0</ele><time>2026-04-06T11:53:20.999Z</time></trkpt><trkpt lat="45.74485739508248" lon="8.431477294770295"><ele>351.0</ele><time>2026-04-06T11:53:21.999Z</time></trkpt><trkpt lat="45.744930029993334" lon="8.431336384122584"><ele>351.0</ele><time>2026-04-06T11:53:22.999Z</time></trkpt><trkpt lat="45.74500090762724" lon="8.431199455361766"><ele>351.0</ele><time>2026-04-06T11:53:23.999Z</time></trkpt><trkpt lat="45.7450689377244" lon="8.431067143999075"><ele>351.0</ele><time>2026-04-06T11:53:24.999Z</time></trkpt><trkpt lat="45.74513616631402" lon="8.430946436690428"><ele>351.0</ele><time>2026-04-06T11:53:25.999Z</time></trkpt><trkpt lat="45.74520838254524" lon="8.430841906974816"><ele>351.0</ele><time>2026-04-06T11:53:26.999Z</time></trkpt><trkpt lat="45.745271164470566" lon="8.430757857016243"><ele>351.0</ele><time>2026-04-06T11:53:27.999Z</time></trkpt><trkpt lat="45.745295578977576" lon="8.430669862715263"><ele>351.0</ele><time>2026-04-06T11:53:28.999Z</time></trkpt><trkpt lat="45.745312675462465" lon="8.430573352808064"><ele>351.0</ele><time>2026-04-06T11:53:29.999Z</time></trkpt><trkpt lat="45.74525696751686" lon="8.430445961603917"><ele>352.0</ele><time>2026-04-06T11:53:30.999Z</time></trkpt><trkpt lat="45.74524543741605" lon="8.430305361551437"><ele>353.0</ele><time>2026-04-06T11:53:31.999Z</time></trkpt><trkpt lat="45.74524226532776" lon="8.430139529740837"><ele>354.0</ele><time>2026-04-06T11:53:32.999Z</time></trkpt><trkpt lat="45.74524107488199" lon="8.429949517352751"><ele>355.0</ele><time>2026-04-06T11:53:34Z</time></trkpt><trkpt lat="45.74523625555474" lon="8.429745834884821"><ele>354.66666666666663</ele><time>2026-04-06T11:53:35Z</time></trkpt><trkpt lat="45.74522554961553" lon="8.429528781425581"><ele>354.3333333333333</ele><time>2026-04-06T11:53:36Z</time></trkpt><trkpt lat="45.745212515653286" lon="8.429294519459315"><ele>354.0</ele><time>2026-04-06T11:53:37Z</time></trkpt><trkpt lat="45.74520044954159" lon="8.429056761325198"><ele>353.6666666666667</ele><time>2026-04-06T11:53:38Z</time></trkpt><trkpt lat="45.74518997618347" lon="8.428815554619945"><ele>353.33333333333337</ele><time>2026-04-06T11:53:39Z</time></trkpt><trkpt lat="45.745190645614954" lon="8.428564438088173"><ele>353.0</ele><time>2026-04-06T11:53:40Z</time></trkpt><trkpt lat="45.74519881515822" lon="8.428302906086312"><ele>353.0</ele><time>2026-04-06T11:53:41Z</time></trkpt><trkpt lat="45.74520953174584" lon="8.428035155406041"><ele>353.0</ele><time>2026-04-06T11:53:42Z</time></trkpt><trkpt lat="45.745218892234355" lon="8.427775783920453"><ele>353.0</ele><time>2026-04-06T11:53:43Z</time></trkpt><trkpt lat="45.745223011840004" lon="8.427568446613554"><ele>353.2</ele><time>2026-04-06T11:53:44Z</time></trkpt><trkpt lat="45.7452274930637" lon="8.427405078841478"><ele>353.4</ele><time>2026-04-06T11:53:45Z</time></trkpt><trkpt lat="45.7452369719899" lon="8.427283031766354"><ele>353.59999999999997</ele><time>2026-04-06T11:53:46Z</time></trkpt><trkpt lat="45.745308806553425" lon="8.427133372818346"><ele>353.79999999999995</ele><time>2026-04-06T11:53:48Z</time></trkpt><trkpt lat="45.745380083390366" lon="8.427064784036403"><ele>354.0</ele><time>2026-04-06T11:53:49Z</time></trkpt><trkpt lat="45.74546724359937" lon="8.426996481723494"><ele>354.0</ele><time>2026-04-06T11:53:50Z</time></trkpt><trkpt lat="45.74557171759553" lon="8.426930520184547"><ele>354.0</ele><time>2026-04-06T11:53:51Z</time></trkpt><trkpt lat="45.745690218637584" lon="8.426856497508536"><ele>354.0</ele><time>2026-04-06T11:53:52Z</time></trkpt><trkpt lat="45.745814230159574" lon="8.426774992148761"><ele>354.0</ele><time>2026-04-06T11:53:53Z</time></trkpt><trkpt lat="45.74594753472905" lon="8.426680032497465"><ele>354.3333333333333</ele><time>2026-04-06T11:53:54Z</time></trkpt><trkpt lat="45.74608891634043" lon="8.426580272339832"><ele>354.66666666666663</ele><time>2026-04-06T11:53:55Z</time></trkpt><trkpt lat="45.74623922384117" lon="8.42648105107801"><ele>355.0</ele><time>2026-04-06T11:53:56Z</time></trkpt><trkpt lat="45.74639380670489" lon="8.426380775728889"><ele>354.66666666666663</ele><time>2026-04-06T11:53:57Z</time></trkpt><trkpt lat="45.74655444582949" lon="8.42627630761676"><ele>354.3333333333333</ele><time>2026-04-06T11:53:58Z</time></trkpt><trkpt lat="45.74671975319266" lon="8.426167250826188"><ele>354.0</ele><time>2026-04-06T11:53:59Z</time></trkpt><trkpt lat="45.74688785380636" lon="8.426053780975511"><ele>354.6666666666667</ele><time>2026-04-06T11:54:00Z</time></trkpt><trkpt lat="45.74705911381197" lon="8.425937786044907"><ele>355.33333333333337</ele><time>2026-04-06T11:54:01Z</time></trkpt><trkpt lat="45.74722809269064" lon="8.425826096868478"><ele>356.0</ele><time>2026-04-06T11:54:02Z</time></trkpt><trkpt lat="45.747399164914455" lon="8.42571656428145"><ele>356.0</ele><time>2026-04-06T11:54:03Z</time></trkpt><trkpt lat="45.7475791053882" lon="8.42561087403821"><ele>356.0</ele><time>2026-04-06T11:54:04Z</time></trkpt><trkpt lat="45.74776360986894" lon="8.425507508815667"><ele>356.0</ele><time>2026-04-06T11:54:05Z</time></trkpt><trkpt lat="45.74795170647006" lon="8.425408579743896"><ele>355.6666666666667</ele><time>2026-04-06T11:54:06Z</time></trkpt><trkpt lat="45.748139498138194" lon="8.425317849658791"><ele>355.3333333333333</ele><time>2026-04-06T11:54:07Z</time></trkpt><trkpt lat="45.748321981553474" lon="8.42524586882248"><ele>355.0</ele><time>2026-04-06T11:54:08Z</time></trkpt><trkpt lat="45.748512156098016" lon="8.425180243673273"><ele>356.3333333333333</ele><time>2026-04-06T11:54:09Z</time></trkpt><trkpt lat="45.74869873032015" lon="8.4251284698321"><ele>357.6666666666667</ele><time>2026-04-06T11:54:10Z</time></trkpt><trkpt lat="45.74889002701983" lon="8.425082896814335"><ele>359.0</ele><time>2026-04-06T11:54:11Z</time></trkpt><trkpt lat="45.749086676023545" lon="8.425048464954402"><ele>359.0</ele><time>2026-04-06T11:54:12Z</time></trkpt><trkpt lat="45.749288030794084" lon="8.425025605066155"><ele>359.0</ele><time>2026-04-06T11:54:13Z</time></trkpt><trkpt lat="45.74948629727374" lon="8.425013172009676"><ele>359.0</ele><time>2026-04-06T11:54:14Z</time></trkpt><trkpt lat="45.74968001414565" lon="8.425011664779834"><ele>359.6666666666667</ele><time>2026-04-06T11:54:15Z</time></trkpt><trkpt lat="45.74987564420148" lon="8.425020043903363"><ele>360.3333333333333</ele><time>2026-04-06T11:54:16Z</time></trkpt><trkpt lat="45.750065211856544" lon="8.425032428766766"><ele>361.0</ele><time>2026-04-06T11:54:17Z</time></trkpt><trkpt lat="45.75025255040946" lon="8.425043554089466"><ele>361.0</ele><time>2026-04-06T11:54:18Z</time></trkpt><trkpt lat="45.75044035365182" lon="8.425053764955997"><ele>361.0</ele><time>2026-04-06T11:54:19Z</time></trkpt><trkpt lat="45.75062644023947" lon="8.42506329605089"><ele>361.0</ele><time>2026-04-06T11:54:20Z</time></trkpt><trkpt lat="45.75081207867299" lon="8.425073356251028"><ele>361.0</ele><time>2026-04-06T11:54:21Z</time></trkpt><trkpt lat="45.75099648610849" lon="8.425087219734037"><ele>361.0</ele><time>2026-04-06T11:54:22Z</time></trkpt><trkpt lat="45.75118235340718" lon="8.425095376382144"><ele>361.0</ele><time>2026-04-06T11:54:23Z</time></trkpt><trkpt lat="45.751366135995475" lon="8.425098761016798"><ele>361.3333333333333</ele><time>2026-04-06T11:54:24Z</time></trkpt><trkpt lat="45.75154961599967" lon="8.425101629912811"><ele>361.6666666666667</ele><time>2026-04-06T11:54:25Z</time></trkpt><trkpt lat="45.75173071997995" lon="8.425102339994469"><ele>362.0</ele><time>2026-04-06T11:54:26Z</time></trkpt><trkpt lat="45.751910901907735" lon="8.42510188587606"><ele>362.33333333333337</ele><time>2026-04-06T11:54:27Z</time></trkpt><trkpt lat="45.752088634101995" lon="8.425096977566886"><ele>362.6666666666667</ele><time>2026-04-06T11:54:28Z</time></trkpt><trkpt lat="45.75226062212433" lon="8.425082159643951"><ele>363.0</ele><time>2026-04-06T11:54:29Z</time></trkpt><trkpt lat="45.7524266745241" lon="8.425057025531089"><ele>363.0</ele><time>2026-04-06T11:54:30Z</time></trkpt><trkpt lat="45.752586239302886" lon="8.425034169920515"><ele>363.0</ele><time>2026-04-06T11:54:31Z</time></trkpt><trkpt lat="45.75273005212141" lon="8.425017505738337"><ele>363.0</ele><time>2026-04-06T11:54:32Z</time></trkpt><trkpt lat="45.752850530793566" lon="8.425006755812204"><ele>363.0</ele><time>2026-04-06T11:54:33Z</time></trkpt><trkpt lat="45.752950700075765" lon="8.424998891807459"><ele>363.0</ele><time>2026-04-06T11:54:34Z</time></trkpt><trkpt lat="45.75302917360102" lon="8.424994583984722"><ele>363.0</ele><time>2026-04-06T11:54:35Z</time></trkpt><trkpt lat="45.75310132369659" lon="8.424990539503003"><ele>363.0</ele><time>2026-04-06T11:54:36Z</time></trkpt><trkpt lat="45.75317228781979" lon="8.424963657017576"><ele>363.0</ele><time>2026-04-06T11:54:37Z</time></trkpt><trkpt lat="45.75323110874733" lon="8.424905347136317"><ele>363.0</ele><time>2026-04-06T11:54:38Z</time></trkpt><trkpt lat="45.753280956581634" lon="8.424801294655948"><ele>363.0</ele><time>2026-04-06T11:54:39Z</time></trkpt><trkpt lat="45.75333839225582" lon="8.424673939699074"><ele>363.0</ele><time>2026-04-06T11:54:40Z</time></trkpt><trkpt lat="45.75341044306285" lon="8.424539388326261"><ele>363.0</ele><time>2026-04-06T11:54:41Z</time></trkpt><trkpt lat="45.753495144546434" lon="8.424404227092424"><ele>363.0</ele><time>2026-04-06T11:54:42Z</time></trkpt><trkpt lat="45.7535915772438" lon="8.42426104210715"><ele>363.0</ele><time>2026-04-06T11:54:43Z</time></trkpt><trkpt lat="45.75368987695473" lon="8.424115055982947"><ele>363.3333333333333</ele><time>2026-04-06T11:54:44Z</time></trkpt><trkpt lat="45.75378855127651" lon="8.423955743413329"><ele>363.66666666666663</ele><time>2026-04-06T11:54:45Z</time></trkpt><trkpt lat="45.75388011567386" lon="8.423774196154538"><ele>364.0</ele><time>2026-04-06T11:54:46Z</time></trkpt><trkpt lat="45.75396430287837" lon="8.423577849761429"><ele>364.0</ele><time>2026-04-06T11:54:47Z</time></trkpt><trkpt lat="45.75404217752856" lon="8.423371701140589"><ele>364.0</ele><time>2026-04-06T11:54:48Z</time></trkpt><trkpt lat="45.75411863202124" lon="8.42316046123948"><ele>364.0</ele><time>2026-04-06T11:54:49Z</time></trkpt><trkpt lat="45.754196368542495" lon="8.422953756878231"><ele>364.0</ele><time>2026-04-06T11:54:50Z</time></trkpt><trkpt lat="45.7542780358246" lon="8.42274588895896"><ele>364.0</ele><time>2026-04-06T11:54:51Z</time></trkpt><trkpt lat="45.754361260426236" lon="8.422533682771954"><ele>364.0</ele><time>2026-04-06T11:54:51.999Z</time></trkpt><trkpt lat="45.75444828419832" lon="8.422314198034835"><ele>363.66666666666663</ele><time>2026-04-06T11:54:52.999Z</time></trkpt><trkpt lat="45.75453517543474" lon="8.422087344029473"><ele>363.3333333333333</ele><time>2026-04-06T11:54:53.999Z</time></trkpt><trkpt lat="45.75462381983701" lon="8.421857331870296"><ele>363.0</ele><time>2026-04-06T11:54:54.999Z</time></trkpt><trkpt lat="45.75471270041717" lon="8.421626389046333"><ele>363.0</ele><time>2026-04-06T11:54:55.999Z</time></trkpt><trkpt lat="45.754801573839" lon="8.421395712002134"><ele>363.0</ele><time>2026-04-06T11:54:56.999Z</time></trkpt><trkpt lat="45.754888081266934" lon="8.421170831739731"><ele>363.0</ele><time>2026-04-06T11:54:57.999Z</time></trkpt><trkpt lat="45.75497422999609" lon="8.420951558120604"><ele>363.3333333333333</ele><time>2026-04-06T11:54:58.999Z</time></trkpt><trkpt lat="45.75505637139762" lon="8.420743179120478"><ele>363.66666666666663</ele><time>2026-04-06T11:54:59.999Z</time></trkpt><trkpt lat="45.75513648011953" lon="8.420547095420263"><ele>364.0</ele><time>2026-04-06T11:55:00.999Z</time></trkpt><trkpt lat="45.755220617027184" lon="8.420369356726411"><ele>364.5</ele><time>2026-04-06T11:55:01.999Z</time></trkpt><trkpt lat="45.755315225551506" lon="8.420215046958784"><ele>365.0</ele><time>2026-04-06T11:55:02.999Z</time></trkpt><trkpt lat="45.755408143252225" lon="8.42009858863907"><ele>365.5</ele><time>2026-04-06T11:55:03.999Z</time></trkpt><trkpt lat="45.755498522332964" lon="8.420018365982582"><ele>366.0</ele><time>2026-04-06T11:55:04.999Z</time></trkpt><trkpt lat="45.755590621548635" lon="8.419957626362509"><ele>366.0</ele><time>2026-04-06T11:55:05.999Z</time></trkpt><trkpt lat="45.75566712082024" lon="8.41991073273381"><ele>366.0</ele><time>2026-04-06T11:55:06.999Z</time></trkpt><trkpt lat="45.7557187361489" lon="8.41983731851713"><ele>366.0</ele><time>2026-04-06T11:55:07.999Z</time></trkpt><trkpt lat="45.75573829815536" lon="8.419733618457197"><ele>366.0</ele><time>2026-04-06T11:55:08.999Z</time></trkpt><trkpt lat="45.755721269953874" lon="8.419622933353171"><ele>366.0</ele><time>2026-04-06T11:55:09.999Z</time></trkpt><trkpt lat="45.75568453671632" lon="8.419525027896844"><ele>366.0</ele><time>2026-04-06T11:55:10.999Z</time></trkpt><trkpt lat="45.755657056814925" lon="8.41942280091582"><ele>365.8</ele><time>2026-04-06T11:55:11.999Z</time></trkpt><trkpt lat="45.755650699140254" lon="8.419293262762334"><ele>365.6</ele><time>2026-04-06T11:55:12.999Z</time></trkpt><trkpt lat="45.75566939140131" lon="8.419152818289584"><ele>365.4</ele><time>2026-04-06T11:55:13.999Z</time></trkpt><trkpt lat="45.75571723305679" lon="8.419008581176973"><ele>365.2</ele><time>2026-04-06T11:55:14.999Z</time></trkpt><trkpt lat="45.75578103581683" lon="8.418845999908342"><ele>365.0</ele><time>2026-04-06T11:55:15.999Z</time></trkpt><trkpt lat="45.75585020924151" lon="8.418661949417467"><ele>365.0</ele><time>2026-04-06T11:55:16.999Z</time></trkpt><trkpt lat="45.755924574798286" lon="8.418462503472094"><ele>365.0</ele><time>2026-04-06T11:55:17.999Z</time></trkpt><trkpt lat="45.75600044970292" lon="8.41826298889685"><ele>365.0</ele><time>2026-04-06T11:55:18.999Z</time></trkpt><trkpt lat="45.75608021966468" lon="8.418052915198734"><ele>366.0</ele><time>2026-04-06T11:55:19.999Z</time></trkpt><trkpt lat="45.75616098808819" lon="8.417841437472582"><ele>367.0</ele><time>2026-04-06T11:55:20.999Z</time></trkpt><trkpt lat="45.75624390004479" lon="8.417628273541892"><ele>368.0</ele><time>2026-04-06T11:55:21.999Z</time></trkpt><trkpt lat="45.75632670498349" lon="8.417410339386782"><ele>368.0</ele><time>2026-04-06T11:55:22.999Z</time></trkpt><trkpt lat="45.75640981409605" lon="8.417189473485001"><ele>368.0</ele><time>2026-04-06T11:55:23.999Z</time></trkpt><trkpt lat="45.756493622829396" lon="8.416969377229853"><ele>368.0</ele><time>2026-04-06T11:55:24.999Z</time></trkpt><trkpt lat="45.75657880210509" lon="8.4167438741028"><ele>368.0</ele><time>2026-04-06T11:55:25.999Z</time></trkpt><trkpt lat="45.75666611672998" lon="8.416513112684653"><ele>368.0</ele><time>2026-04-06T11:55:26.999Z</time></trkpt><trkpt lat="45.75675179159835" lon="8.416284125895167"><ele>368.0</ele><time>2026-04-06T11:55:27.999Z</time></trkpt><trkpt lat="45.75683477085653" lon="8.416052690290547"><ele>368.0</ele><time>2026-04-06T11:55:28.999Z</time></trkpt><trkpt lat="45.75691064842836" lon="8.415821032174913"><ele>368.0</ele><time>2026-04-06T11:55:29.999Z</time></trkpt><trkpt lat="45.75697907449262" lon="8.415587006912212"><ele>368.0</ele><time>2026-04-06T11:55:30.999Z</time></trkpt><trkpt lat="45.75703662835581" lon="8.415349081493986"><ele>368.0</ele><time>2026-04-06T11:55:31.999Z</time></trkpt><trkpt lat="45.7570906965237" lon="8.415107457598552"><ele>368.0</ele><time>2026-04-06T11:55:32.999Z</time></trkpt><trkpt lat="45.757146445284654" lon="8.414860755713162"><ele>368.0</ele><time>2026-04-06T11:55:33.999Z</time></trkpt><trkpt lat="45.757209757597465" lon="8.414607189679883"><ele>369.0</ele><time>2026-04-06T11:55:34.999Z</time></trkpt><trkpt lat="45.757274730142356" lon="8.414348322233371"><ele>370.0</ele><time>2026-04-06T11:55:35.999Z</time></trkpt><trkpt lat="45.75733879130036" lon="8.414086856407089"><ele>371.0</ele><time>2026-04-06T11:55:36.999Z</time></trkpt><trkpt lat="45.75740252360115" lon="8.413815797880593"><ele>371.6666666666667</ele><time>2026-04-06T11:55:37.999Z</time></trkpt><trkpt lat="45.757466209634245" lon="8.41353577167082"><ele>372.3333333333333</ele><time>2026-04-06T11:55:38.999Z</time></trkpt><trkpt lat="45.75752925863102" lon="8.413249584555645"><ele>373.0</ele><time>2026-04-06T11:55:40Z</time></trkpt><trkpt lat="45.75759285765509" lon="8.412957987022981"><ele>373.66666666666663</ele><time>2026-04-06T11:55:41Z</time></trkpt><trkpt lat="45.75765268379865" lon="8.412667037029232"><ele>374.3333333333333</ele><time>2026-04-06T11:55:42Z</time></trkpt><trkpt lat="45.757705042758815" lon="8.412373889730077"><ele>375.0</ele><time>2026-04-06T11:55:43Z</time></trkpt><trkpt lat="45.75774495021094" lon="8.412075301633116"><ele>375.0</ele><time>2026-04-06T11:55:44Z</time></trkpt><trkpt lat="45.75777280887549" lon="8.411776130845404"><ele>375.0</ele><time>2026-04-06T11:55:45Z</time></trkpt><trkpt lat="45.75779680099213" lon="8.411479430009598"><ele>375.0</ele><time>2026-04-06T11:55:46Z</time></trkpt><trkpt lat="45.757827648090675" lon="8.411177289396285"><ele>375.0</ele><time>2026-04-06T11:55:47Z</time></trkpt><trkpt lat="45.75785910157066" lon="8.410870296572021"><ele>375.0</ele><time>2026-04-06T11:55:48Z</time></trkpt><trkpt lat="45.75788879527215" lon="8.410572061745343"><ele>375.0</ele><time>2026-04-06T11:55:49Z</time></trkpt><trkpt lat="45.757918597170146" lon="8.410277103679157"><ele>374.3333333333333</ele><time>2026-04-06T11:55:50Z</time></trkpt><trkpt lat="45.757945690414616" lon="8.409989851903159"><ele>373.66666666666663</ele><time>2026-04-06T11:55:51Z</time></trkpt><trkpt lat="45.75797130897354" lon="8.4097030324112"><ele>373.0</ele><time>2026-04-06T11:55:52Z</time></trkpt><trkpt lat="45.75799653470841" lon="8.409415627297449"><ele>374.66666666666663</ele><time>2026-04-06T11:55:53Z</time></trkpt><trkpt lat="45.7580214367367" lon="8.409133638067471"><ele>376.3333333333333</ele><time>2026-04-06T11:55:54Z</time></trkpt><trkpt lat="45.758048402604054" lon="8.408855327864224"><ele>378.0</ele><time>2026-04-06T11:55:55Z</time></trkpt><trkpt lat="45.75807639002934" lon="8.408573800146701"><ele>379.0</ele><time>2026-04-06T11:55:56Z</time></trkpt><trkpt lat="45.75810401157357" lon="8.408285933116304"><ele>380.0</ele><time>2026-04-06T11:55:57Z</time></trkpt><trkpt lat="45.75813323703307" lon="8.40799218950157"><ele>381.0</ele><time>2026-04-06T11:55:58Z</time></trkpt><trkpt lat="45.758161592550124" lon="8.407695363801285"><ele>381.6666666666667</ele><time>2026-04-06T11:55:59Z</time></trkpt><trkpt lat="45.758189693241164" lon="8.407399277106618"><ele>382.33333333333337</ele><time>2026-04-06T11:56:00Z</time></trkpt><trkpt lat="45.75822014986833" lon="8.407102272673196"><ele>383.0</ele><time>2026-04-06T11:56:01Z</time></trkpt><trkpt lat="45.758250586777656" lon="8.406807513835911"><ele>383.33333333333337</ele><time>2026-04-06T11:56:02Z</time></trkpt><trkpt lat="45.75827863091864" lon="8.406523364866832"><ele>383.6666666666667</ele><time>2026-04-06T11:56:03Z</time></trkpt><trkpt lat="45.75830722580291" lon="8.406241139869788"><ele>384.0</ele><time>2026-04-06T11:56:04Z</time></trkpt><trkpt lat="45.75833364935659" lon="8.40595659107238"><ele>384.33333333333337</ele><time>2026-04-06T11:56:05Z</time></trkpt><trkpt lat="45.758360045321055" lon="8.405669101616134"><ele>384.6666666666667</ele><time>2026-04-06T11:56:06Z</time></trkpt><trkpt lat="45.75838677465397" lon="8.405384738989403"><ele>385.0</ele><time>2026-04-06T11:56:07Z</time></trkpt><trkpt lat="45.758413140828964" lon="8.405105817776917"><ele>385.33333333333337</ele><time>2026-04-06T11:56:08Z</time></trkpt><trkpt lat="45.758440327966696" lon="8.404818979541286"><ele>385.66666666666663</ele><time>2026-04-06T11:56:09Z</time></trkpt><trkpt lat="45.75846664764139" lon="8.404531485407611"><ele>386.0</ele><time>2026-04-06T11:56:10Z</time></trkpt><trkpt lat="45.758484015511954" lon="8.40426220846851"><ele>386.0</ele><time>2026-04-06T11:56:11Z</time></trkpt><trkpt lat="45.75848424919972" lon="8.403986674640999"><ele>386.0</ele><time>2026-04-06T11:56:12Z</time></trkpt><trkpt lat="45.75845197915884" lon="8.403705283242228"><ele>386.0</ele><time>2026-04-06T11:56:13Z</time></trkpt><trkpt lat="45.758397457151204" lon="8.40342536133252"><ele>385.66666666666663</ele><time>2026-04-06T11:56:14Z</time></trkpt><trkpt lat="45.75833182007235" lon="8.403143093446344"><ele>385.33333333333337</ele><time>2026-04-06T11:56:15Z</time></trkpt><trkpt lat="45.75825906590393" lon="8.402860844204977"><ele>385.0</ele><time>2026-04-06T11:56:16Z</time></trkpt><trkpt lat="45.75816658997299" lon="8.40258905704324"><ele>384.33333333333337</ele><time>2026-04-06T11:56:17Z</time></trkpt><trkpt lat="45.75805821290199" lon="8.402333331831787"><ele>383.6666666666667</ele><time>2026-04-06T11:56:18Z</time></trkpt><trkpt lat="45.75794733906533" lon="8.402072883960349"><ele>383.0</ele><time>2026-04-06T11:56:19Z</time></trkpt><trkpt lat="45.757846919914705" lon="8.401800599217708"><ele>382.33333333333337</ele><time>2026-04-06T11:56:20Z</time></trkpt><trkpt lat="45.75776106701864" lon="8.401509574624805"><ele>381.6666666666667</ele><time>2026-04-06T11:56:21Z</time></trkpt><trkpt lat="45.75768963898189" lon="8.401204286491275"><ele>381.0</ele><time>2026-04-06T11:56:22Z</time></trkpt><trkpt lat="45.75762794604161" lon="8.400891338487765"><ele>388.5</ele><time>2026-04-06T11:56:23Z</time></trkpt><trkpt lat="45.75756402759542" lon="8.400575129197128"><ele>396.0</ele><time>2026-04-06T11:56:24Z</time></trkpt><trkpt lat="45.75749708934655" lon="8.400250846083985"><ele>396.0</ele><time>2026-04-06T11:56:25Z</time></trkpt><trkpt lat="45.75743490371997" lon="8.39993125843041"><ele>396.0</ele><time>2026-04-06T11:56:26Z</time></trkpt><trkpt lat="45.75738677659296" lon="8.399620936421348"><ele>394.66666666666663</ele><time>2026-04-06T11:56:27Z</time></trkpt><trkpt lat="45.75737857028891" lon="8.399310106900206"><ele>393.3333333333333</ele><time>2026-04-06T11:56:28Z</time></trkpt><trkpt lat="45.757377940630256" lon="8.399015604631812"><ele>392.0</ele><time>2026-04-06T11:56:29Z</time></trkpt><trkpt lat="45.757343776397626" lon="8.398722408376438"><ele>390.66666666666663</ele><time>2026-04-06T11:56:30Z</time></trkpt><trkpt lat="45.7572691975274" lon="8.398434156862521"><ele>389.33333333333337</ele><time>2026-04-06T11:56:31Z</time></trkpt><trkpt lat="45.75718804193386" lon="8.39814084433634"><ele>388.0</ele><time>2026-04-06T11:56:32Z</time></trkpt><trkpt lat="45.75712684954203" lon="8.397856541341588"><ele>388.0</ele><time>2026-04-06T11:56:33Z</time></trkpt><trkpt lat="45.75708742430389" lon="8.397584950942129"><ele>388.0</ele><time>2026-04-06T11:56:34Z</time></trkpt><trkpt lat="45.75706287745566" lon="8.397336141028083"><ele>388.0</ele><time>2026-04-06T11:56:35Z</time></trkpt><trkpt lat="45.75704113711174" lon="8.397102081899378"><ele>388.0</ele><time>2026-04-06T11:56:36Z</time></trkpt><trkpt lat="45.75701815475191" lon="8.396883351183398"><ele>388.0</ele><time>2026-04-06T11:56:37Z</time></trkpt><trkpt lat="45.75698990251652" lon="8.39668760730017"><ele>388.0</ele><time>2026-04-06T11:56:38Z</time></trkpt><trkpt lat="45.75696037631621" lon="8.396501786469633"><ele>388.0</ele><time>2026-04-06T11:56:39Z</time></trkpt><trkpt lat="45.756937220885874" lon="8.396337856392243"><ele>388.25</ele><time>2026-04-06T11:56:40Z</time></trkpt><trkpt lat="45.756932729844806" lon="8.3961920488848"><ele>388.5</ele><time>2026-04-06T11:56:41Z</time></trkpt><trkpt lat="45.75690000609022" lon="8.396083042809407"><ele>388.75</ele><time>2026-04-06T11:56:42Z</time></trkpt><trkpt lat="45.75701406757287" lon="8.395890819347338"><ele>389.0</ele><time>2026-04-06T11:56:43Z</time></trkpt><trkpt lat="45.75708368122235" lon="8.395731568112026"><ele>389.0</ele><time>2026-04-06T11:56:44Z</time></trkpt><trkpt lat="45.75718359855169" lon="8.395582238469283"><ele>389.0</ele><time>2026-04-06T11:56:45Z</time></trkpt><trkpt lat="45.75729365232291" lon="8.395427295482612"><ele>389.0</ele><time>2026-04-06T11:56:46Z</time></trkpt><trkpt lat="45.75741303892813" lon="8.395264471531059"><ele>390.0</ele><time>2026-04-06T11:56:47Z</time></trkpt><trkpt lat="45.75752810307991" lon="8.395077981604883"><ele>391.0</ele><time>2026-04-06T11:56:48Z</time></trkpt><trkpt lat="45.75766056075373" lon="8.394902990392168"><ele>392.0</ele><time>2026-04-06T11:56:49Z</time></trkpt><trkpt lat="45.75779324632107" lon="8.394722868347849"><ele>391.0</ele><time>2026-04-06T11:56:50Z</time></trkpt><trkpt lat="45.75792482971739" lon="8.394534218450199"><ele>390.0</ele><time>2026-04-06T11:56:50.999Z</time></trkpt><trkpt lat="45.75805442144601" lon="8.394342918710063"><ele>389.0</ele><time>2026-04-06T11:56:51.999Z</time></trkpt><trkpt lat="45.75817223874421" lon="8.394155553491665"><ele>389.0</ele><time>2026-04-06T11:56:52.999Z</time></trkpt><trkpt lat="45.75828141702905" lon="8.393960294983865"><ele>389.0</ele><time>2026-04-06T11:56:53.999Z</time></trkpt><trkpt lat="45.758393654317246" lon="8.393750232031978"><ele>389.0</ele><time>2026-04-06T11:56:54.999Z</time></trkpt><trkpt lat="45.75851136512279" lon="8.393534932261403"><ele>388.3333333333333</ele><time>2026-04-06T11:56:55.999Z</time></trkpt><trkpt lat="45.75862783233254" lon="8.393324274249228"><ele>387.66666666666663</ele><time>2026-04-06T11:56:56.999Z</time></trkpt><trkpt lat="45.758736521225025" lon="8.393128929383433"><ele>387.0</ele><time>2026-04-06T11:56:57.999Z</time></trkpt><trkpt lat="45.75883953234479" lon="8.392944931588335"><ele>389.0</ele><time>2026-04-06T11:56:58.999Z</time></trkpt><trkpt lat="45.75893978298411" lon="8.392766760049518"><ele>391.0</ele><time>2026-04-06T11:56:59.999Z</time></trkpt><trkpt lat="45.75903650174627" lon="8.392597066934135"><ele>393.0</ele><time>2026-04-06T11:57:00.999Z</time></trkpt><trkpt lat="45.75913445595983" lon="8.392419959646203"><ele>393.0</ele><time>2026-04-06T11:57:01.999Z</time></trkpt><trkpt lat="45.759237275022244" lon="8.392230705899957"><ele>393.0</ele><time>2026-04-06T11:57:02.999Z</time></trkpt><trkpt lat="45.75933979779537" lon="8.392044732329802"><ele>393.0</ele><time>2026-04-06T11:57:03.999Z</time></trkpt><trkpt lat="45.75943980218428" lon="8.391868778272702"><ele>392.33333333333337</ele><time>2026-04-06T11:57:04.999Z</time></trkpt><trkpt lat="45.75955325008209" lon="8.391693292095972"><ele>391.6666666666667</ele><time>2026-04-06T11:57:05.999Z</time></trkpt><trkpt lat="45.75968110116887" lon="8.391520047968333"><ele>391.0</ele><time>2026-04-06T11:57:06.999Z</time></trkpt><trkpt lat="45.759810806242875" lon="8.391344806212375"><ele>393.33333333333337</ele><time>2026-04-06T11:57:07.999Z</time></trkpt><trkpt lat="45.7599391910491" lon="8.391171800501947"><ele>395.66666666666663</ele><time>2026-04-06T11:57:08.999Z</time></trkpt><trkpt lat="45.76006868173954" lon="8.39099528605537"><ele>398.0</ele><time>2026-04-06T11:57:09.999Z</time></trkpt><trkpt lat="45.76018598715838" lon="8.390831646596876"><ele>397.3333333333333</ele><time>2026-04-06T11:57:10.999Z</time></trkpt><trkpt lat="45.76029572550759" lon="8.39067316880948"><ele>396.66666666666663</ele><time>2026-04-06T11:57:11.999Z</time></trkpt><trkpt lat="45.760405105682594" lon="8.39051303834217"><ele>396.0</ele><time>2026-04-06T11:57:12.999Z</time></trkpt><trkpt lat="45.76051659555381" lon="8.39035298023298"><ele>396.0</ele><time>2026-04-06T11:57:13.999Z</time></trkpt><trkpt lat="45.76062743016247" lon="8.390198945461465"><ele>396.0</ele><time>2026-04-06T11:57:14.999Z</time></trkpt><trkpt lat="45.76073388851254" lon="8.39004967697419"><ele>396.0</ele><time>2026-04-06T11:57:15.999Z</time></trkpt><trkpt lat="45.76082745008927" lon="8.389911512677475"><ele>396.0</ele><time>2026-04-06T11:57:16.999Z</time></trkpt><trkpt lat="45.76091290123826" lon="8.389779503844387"><ele>396.8</ele><time>2026-04-06T11:57:17.999Z</time></trkpt><trkpt lat="45.760985013873224" lon="8.389631697061949"><ele>397.6</ele><time>2026-04-06T11:57:18.999Z</time></trkpt><trkpt lat="45.76104108712648" lon="8.389476788207402"><ele>398.4</ele><time>2026-04-06T11:57:19.999Z</time></trkpt><trkpt lat="45.76108929672435" lon="8.389344195478204"><ele>399.2</ele><time>2026-04-06T11:57:20.999Z</time></trkpt><trkpt lat="45.761135241004254" lon="8.389235207948841"><ele>400.0</ele><time>2026-04-06T11:57:21.999Z</time></trkpt><trkpt lat="45.761177626536615" lon="8.389150687594077"><ele>400.00000000000006</ele><time>2026-04-06T11:57:22.999Z</time></trkpt><trkpt lat="45.7612242151531" lon="8.389075651417155"><ele>400.0</ele><time>2026-04-06T11:57:23.999Z</time></trkpt><trkpt lat="45.761272933969146" lon="8.389005266563013"><ele>400.0</ele><time>2026-04-06T11:57:24.999Z</time></trkpt><trkpt lat="45.76133477533525" lon="8.388954120089416"><ele>400.0</ele><time>2026-04-06T11:57:25.999Z</time></trkpt><trkpt lat="45.7613960323025" lon="8.388894806713028"><ele>400.0</ele><time>2026-04-06T11:57:26.999Z</time></trkpt><trkpt lat="45.76144921615805" lon="8.388822105239775"><ele>400.00000000000006</ele><time>2026-04-06T11:57:27.999Z</time></trkpt><trkpt lat="45.76148960695992" lon="8.38875068736395"><ele>400.0</ele><time>2026-04-06T11:57:28.999Z</time></trkpt><trkpt lat="45.761551411637896" lon="8.388623197462714"><ele>400.83333333333337</ele><time>2026-04-06T11:57:30.999Z</time></trkpt><trkpt lat="45.761548111667445" lon="8.388486706158188"><ele>401.6666666666667</ele><time>2026-04-06T11:57:32.999Z</time></trkpt><trkpt lat="45.76150480616455" lon="8.388380753471324"><ele>402.5</ele><time>2026-04-06T11:57:34.999Z</time></trkpt><trkpt lat="45.76145471358273" lon="8.388325413903098"><ele>403.33333333333337</ele><time>2026-04-06T11:57:37.999Z</time></trkpt><trkpt lat="45.761561030035416" lon="8.388285699152492"><ele>404.1666666666667</ele><time>2026-04-06T11:58:29Z</time></trkpt><trkpt lat="45.761650095478295" lon="8.388237169883629"><ele>405.0</ele><time>2026-04-06T11:58:31Z</time></trkpt><trkpt lat="45.76173514505425" lon="8.3881575844507"><ele>405.0</ele><time>2026-04-06T11:58:33Z</time></trkpt><trkpt lat="45.76180599613583" lon="8.388037599845871"><ele>405.0</ele><time>2026-04-06T11:58:35Z</time></trkpt><trkpt lat="45.76185041079493" lon="8.387860373388275"><ele>405.0</ele><time>2026-04-06T11:58:37Z</time></trkpt><trkpt lat="45.76186625254429" lon="8.387735267261295"><ele>405.0</ele><time>2026-04-06T11:58:38Z</time></trkpt><trkpt lat="45.761908286196366" lon="8.38759627062961"><ele>405.0</ele><time>2026-04-06T11:58:39Z</time></trkpt><trkpt lat="45.76194541469149" lon="8.387438564377549"><ele>404.75</ele><time>2026-04-06T11:58:40Z</time></trkpt><trkpt lat="45.76199175735568" lon="8.387267187955986"><ele>404.5</ele><time>2026-04-06T11:58:41Z</time></trkpt><trkpt lat="45.76204764424776" lon="8.387081941068214"><ele>404.25</ele><time>2026-04-06T11:58:42Z</time></trkpt><trkpt lat="45.762099132299824" lon="8.38688545668186"><ele>404.0</ele><time>2026-04-06T11:58:43Z</time></trkpt><trkpt lat="45.762157534507544" lon="8.38667030412148"><ele>404.0</ele><time>2026-04-06T11:58:44Z</time></trkpt><trkpt lat="45.762212701785536" lon="8.386465605408988"><ele>404.0</ele><time>2026-04-06T11:58:45Z</time></trkpt><trkpt lat="45.76226478767366" lon="8.386273058865555"><ele>404.0</ele><time>2026-04-06T11:58:45.999Z</time></trkpt><trkpt lat="45.762316271111345" lon="8.386079450159581"><ele>404.0</ele><time>2026-04-06T11:58:46.999Z</time></trkpt><trkpt lat="45.76236500876154" lon="8.38589570737645"><ele>404.75</ele><time>2026-04-06T11:58:47.999Z</time></trkpt><trkpt lat="45.76241897199539" lon="8.385722422314194"><ele>405.5</ele><time>2026-04-06T11:58:48.999Z</time></trkpt><trkpt lat="45.7624816007921" lon="8.385557955069453"><ele>406.25</ele><time>2026-04-06T11:58:49.999Z</time></trkpt><trkpt lat="45.762560282592055" lon="8.385422324305871"><ele>407.0</ele><time>2026-04-06T11:58:50.999Z</time></trkpt><trkpt lat="45.762647579052775" lon="8.385322859618032"><ele>412.0</ele><time>2026-04-06T11:58:51.999Z</time></trkpt><trkpt lat="45.76273663452427" lon="8.385250516919381"><ele>417.0</ele><time>2026-04-06T11:58:52.999Z</time></trkpt><trkpt lat="45.76282137204826" lon="8.385209546460734"><ele>422.00000000000006</ele><time>2026-04-06T11:58:53.999Z</time></trkpt><trkpt lat="45.76288763405965" lon="8.385199430597053"><ele>427.0</ele><time>2026-04-06T11:58:54.999Z</time></trkpt><trkpt lat="45.76296319554257" lon="8.385165078918561"><ele>432.0</ele><time>2026-04-06T11:58:56.999Z</time></trkpt><trkpt lat="45.762887494385616" lon="8.385013503698563"><ele>432.0</ele><time>2026-04-06T11:59:00.999Z</time></trkpt><trkpt lat="45.76280163718641" lon="8.38502866227757"><ele>432.00000000000006</ele><time>2026-04-06T11:59:01.999Z</time></trkpt><trkpt lat="45.762713551014734" lon="8.385029579181028"><ele>432.00000000000006</ele><time>2026-04-06T11:59:02.999Z</time></trkpt><trkpt lat="45.76260338786623" lon="8.384998324378012"><ele>432.0</ele><time>2026-04-06T11:59:03.999Z</time></trkpt><trkpt lat="45.762484879421166" lon="8.384991406052606"><ele>432.0</ele><time>2026-04-06T11:59:04.999Z</time></trkpt><trkpt lat="45.76234595094573" lon="8.384985899220167"><ele>430.66666666666663</ele><time>2026-04-06T11:59:05.999Z</time></trkpt><trkpt lat="45.762204032369" lon="8.385018280585076"><ele>429.3333333333333</ele><time>2026-04-06T11:59:06.999Z</time></trkpt><trkpt lat="45.76205217921185" lon="8.385026747023534"><ele>428.0</ele><time>2026-04-06T11:59:07.999Z</time></trkpt><trkpt lat="45.76189353485588" lon="8.385041409520323"><ele>430.0</ele><time>2026-04-06T11:59:08.999Z</time></trkpt><trkpt lat="45.76173467652022" lon="8.38507483383669"><ele>432.0</ele><time>2026-04-06T11:59:09.999Z</time></trkpt><trkpt lat="45.76157604138143" lon="8.385144800079427"><ele>434.0</ele><time>2026-04-06T11:59:10.999Z</time></trkpt><trkpt lat="45.76141613699928" lon="8.385248288115106"><ele>434.0</ele><time>2026-04-06T11:59:11.999Z</time></trkpt><trkpt lat="45.76125153233729" lon="8.385318621380206"><ele>434.0</ele><time>2026-04-06T11:59:12.999Z</time></trkpt><trkpt lat="45.761090611786436" lon="8.385387867701619"><ele>434.0</ele><time>2026-04-06T11:59:13.999Z</time></trkpt><trkpt lat="45.76092423028325" lon="8.385439537403718"><ele>438.3333333333333</ele><time>2026-04-06T11:59:14.999Z</time></trkpt><trkpt lat="45.7607456888105" lon="8.38548268359188"><ele>442.66666666666663</ele><time>2026-04-06T11:59:15.999Z</time></trkpt><trkpt lat="45.76056596083631" lon="8.385491182484222"><ele>447.0</ele><time>2026-04-06T11:59:16.999Z</time></trkpt><trkpt lat="45.760369211224074" lon="8.385476746981942"><ele>449.0</ele><time>2026-04-06T11:59:17.999Z</time></trkpt><trkpt lat="45.76017132321066" lon="8.385463615689183"><ele>451.0</ele><time>2026-04-06T11:59:18.999Z</time></trkpt><trkpt lat="45.75998981690275" lon="8.385476028365298"><ele>453.0</ele><time>2026-04-06T11:59:19.999Z</time></trkpt><trkpt lat="45.75979888427934" lon="8.385554891117216"><ele>449.66666666666663</ele><time>2026-04-06T11:59:20.999Z</time></trkpt><trkpt lat="45.759594995760764" lon="8.38563390842597"><ele>446.3333333333333</ele><time>2026-04-06T11:59:21.999Z</time></trkpt><trkpt lat="45.759372751872604" lon="8.385702069690158"><ele>443.0</ele><time>2026-04-06T11:59:22.999Z</time></trkpt><trkpt lat="45.759158767492295" lon="8.385828690216199"><ele>443.0</ele><time>2026-04-06T11:59:23.999Z</time></trkpt><trkpt lat="45.75896451529536" lon="8.385978119938228"><ele>443.0</ele><time>2026-04-06T11:59:24.999Z</time></trkpt><trkpt lat="45.75877132368402" lon="8.386126854559713"><ele>443.0</ele><time>2026-04-06T11:59:25.999Z</time></trkpt><trkpt lat="45.75856688373242" lon="8.386239227180326"><ele>442.3333333333333</ele><time>2026-04-06T11:59:26.999Z</time></trkpt><trkpt lat="45.758367156841835" lon="8.386327535423733"><ele>441.66666666666663</ele><time>2026-04-06T11:59:27.999Z</time></trkpt><trkpt lat="45.75821209022913" lon="8.38648282455105"><ele>441.0</ele><time>2026-04-06T11:59:28.999Z</time></trkpt><trkpt lat="45.75803434316119" lon="8.38664664117997"><ele>441.0</ele><time>2026-04-06T11:59:29.999Z</time></trkpt><trkpt lat="45.75787585283565" lon="8.386780224616304"><ele>441.0</ele><time>2026-04-06T11:59:30.999Z</time></trkpt><trkpt lat="45.75773381598422" lon="8.386844878251601"><ele>441.0</ele><time>2026-04-06T11:59:31.999Z</time></trkpt><trkpt lat="45.757608554935544" lon="8.386925037957468"><ele>441.75</ele><time>2026-04-06T11:59:32.999Z</time></trkpt><trkpt lat="45.757526481437345" lon="8.387098771731809"><ele>442.5</ele><time>2026-04-06T11:59:33.999Z</time></trkpt><trkpt lat="45.757446205889636" lon="8.387268249804984"><ele>443.25</ele><time>2026-04-06T11:59:34.999Z</time></trkpt><trkpt lat="45.75738002272153" lon="8.387433231990356"><ele>444.0</ele><time>2026-04-06T11:59:35.999Z</time></trkpt><trkpt lat="45.757310882154734" lon="8.387573334982607"><ele>444.0</ele><time>2026-04-06T11:59:36.999Z</time></trkpt><trkpt lat="45.75724647541491" lon="8.387701967710015"><ele>444.0</ele><time>2026-04-06T11:59:37.999Z</time></trkpt><trkpt lat="45.757174120429674" lon="8.387843398543263"><ele>444.0</ele><time>2026-04-06T11:59:38.999Z</time></trkpt><trkpt lat="45.75710250581101" lon="8.387970694847084"><ele>444.0</ele><time>2026-04-06T11:59:39.999Z</time></trkpt><trkpt lat="45.75703398086388" lon="8.38806207509967"><ele>444.0</ele><time>2026-04-06T11:59:40.999Z</time></trkpt><trkpt lat="45.756942225904105" lon="8.388086935739294"><ele>444.4</ele><time>2026-04-06T11:59:41.999Z</time></trkpt><trkpt lat="45.756850180217896" lon="8.388067032984367"><ele>444.79999999999995</ele><time>2026-04-06T11:59:42.999Z</time></trkpt><trkpt lat="45.756750398784966" lon="8.38800233298028"><ele>445.20000000000005</ele><time>2026-04-06T11:59:43.999Z</time></trkpt><trkpt lat="45.756647107434695" lon="8.387896214643925"><ele>445.6</ele><time>2026-04-06T11:59:44.999Z</time></trkpt><trkpt lat="45.75656018214997" lon="8.38782548681495"><ele>446.0</ele><time>2026-04-06T11:59:45.999Z</time></trkpt><trkpt lat="45.756510843636974" lon="8.38774671163894"><ele>446.0</ele><time>2026-04-06T11:59:46.999Z</time></trkpt><trkpt lat="45.75646301880401" lon="8.387676141085604"><ele>446.0</ele><time>2026-04-06T11:59:48.999Z</time></trkpt><trkpt lat="45.75631331389084" lon="8.387826420143346"><ele>446.0</ele><time>2026-04-06T11:59:54Z</time></trkpt><trkpt lat="45.75626004042764" lon="8.387938113949362"><ele>446.0</ele><time>2026-04-06T11:59:55Z</time></trkpt><trkpt lat="45.75619766662594" lon="8.388062517094241"><ele>446.0</ele><time>2026-04-06T11:59:56Z</time></trkpt><trkpt lat="45.756131162274364" lon="8.388197978353137"><ele>446.0</ele><time>2026-04-06T11:59:57Z</time></trkpt><trkpt lat="45.756065070336646" lon="8.388332943729898"><ele>446.0</ele><time>2026-04-06T11:59:58Z</time></trkpt><trkpt lat="45.75600249140162" lon="8.388458958183978"><ele>446.0</ele><time>2026-04-06T11:59:59Z</time></trkpt><trkpt lat="45.75594314401518" lon="8.388575455528356"><ele>446.0</ele><time>2026-04-06T12:00:00Z</time></trkpt><trkpt lat="45.75588950409667" lon="8.38868623387187"><ele>445.99999999999994</ele><time>2026-04-06T12:00:01Z</time></trkpt><trkpt lat="45.755839928091206" lon="8.388793253009714"><ele>446.0</ele><time>2026-04-06T12:00:02Z</time></trkpt><trkpt lat="45.755795673846755" lon="8.388891704655714"><ele>446.0</ele><time>2026-04-06T12:00:03Z</time></trkpt><trkpt lat="45.755755221772596" lon="8.388982212215753"><ele>446.0</ele><time>2026-04-06T12:00:04Z</time></trkpt><trkpt lat="45.75571084059911" lon="8.389084027935843"><ele>445.99999999999994</ele><time>2026-04-06T12:00:06Z</time></trkpt><trkpt lat="45.75578950158939" lon="8.389070193059258"><ele>446.0</ele><time>2026-04-06T12:01:05.999Z</time></trkpt><trkpt lat="45.755811220606745" lon="8.388973571504868"><ele>446.0</ele><time>2026-04-06T12:01:06.999Z</time></trkpt><trkpt lat="45.75585804291449" lon="8.38881981111697"><ele>446.0</ele><time>2026-04-06T12:01:08.999Z</time></trkpt><trkpt lat="45.75590052495404" lon="8.38872180452134"><ele>446.0</ele><time>2026-04-06T12:01:09.999Z</time></trkpt><trkpt lat="45.755956814675095" lon="8.38860642815046"><ele>446.0</ele><time>2026-04-06T12:01:10.999Z</time></trkpt><trkpt lat="45.75601465235185" lon="8.388484502078347"><ele>446.0</ele><time>2026-04-06T12:01:11.999Z</time></trkpt><trkpt lat="45.7560851128832" lon="8.388341045735814"><ele>446.0</ele><time>2026-04-06T12:01:12.999Z</time></trkpt><trkpt lat="45.7561608500564" lon="8.388190503493188"><ele>446.0</ele><time>2026-04-06T12:01:13.999Z</time></trkpt><trkpt lat="45.7562393559624" lon="8.388028821048504"><ele>446.0</ele><time>2026-04-06T12:01:14.999Z</time></trkpt><trkpt lat="45.756318327915565" lon="8.387857478158375"><ele>446.0</ele><time>2026-04-06T12:01:15.999Z</time></trkpt><trkpt lat="45.75640028700074" lon="8.387674153175114"><ele>447.3333333333333</ele><time>2026-04-06T12:01:16.999Z</time></trkpt><trkpt lat="45.75648052101704" lon="8.387474023792516"><ele>448.66666666666663</ele><time>2026-04-06T12:01:17.999Z</time></trkpt><trkpt lat="45.7565633388711" lon="8.387268687923871"><ele>450.0</ele><time>2026-04-06T12:01:18.999Z</time></trkpt><trkpt lat="45.75665732815717" lon="8.38706745213302"><ele>451.33333333333337</ele><time>2026-04-06T12:01:19.999Z</time></trkpt><trkpt lat="45.7567681720897" lon="8.386882018519824"><ele>452.6666666666667</ele><time>2026-04-06T12:01:20.999Z</time></trkpt><trkpt lat="45.7568724150335" lon="8.386681467010112"><ele>454.0</ele><time>2026-04-06T12:01:21.999Z</time></trkpt><trkpt lat="45.75697188217374" lon="8.38648978937142"><ele>455.5</ele><time>2026-04-06T12:01:22.999Z</time></trkpt><trkpt lat="45.757063801185474" lon="8.38631272964809"><ele>457.0</ele><time>2026-04-06T12:01:23.999Z</time></trkpt><trkpt lat="45.75714819170663" lon="8.386150171711892"><ele>458.5</ele><time>2026-04-06T12:01:24.999Z</time></trkpt><trkpt lat="45.75721814943952" lon="8.385976708940396"><ele>460.0</ele><time>2026-04-06T12:01:25.999Z</time></trkpt><trkpt lat="45.75730234906861" lon="8.38581766418446"><ele>460.0</ele><time>2026-04-06T12:01:26.999Z</time></trkpt><trkpt lat="45.75738672137724" lon="8.385657120539168"><ele>460.0</ele><time>2026-04-06T12:01:27.999Z</time></trkpt><trkpt lat="45.757472982416054" lon="8.3854885502039"><ele>460.0</ele><time>2026-04-06T12:01:28.999Z</time></trkpt><trkpt lat="45.75756006243687" lon="8.385313233382382"><ele>460.0</ele><time>2026-04-06T12:01:29.999Z</time></trkpt><trkpt lat="45.75764892112721" lon="8.38513630986832"><ele>460.25</ele><time>2026-04-06T12:01:30.999Z</time></trkpt><trkpt lat="45.75773728296573" lon="8.384969456994925"><ele>460.5</ele><time>2026-04-06T12:01:31.999Z</time></trkpt><trkpt lat="45.75782043084236" lon="8.384801981842818"><ele>460.75</ele><time>2026-04-06T12:01:32.999Z</time></trkpt><trkpt lat="45.75790467513921" lon="8.384637360356473"><ele>461.0</ele><time>2026-04-06T12:01:33.999Z</time></trkpt><trkpt lat="45.75798814715928" lon="8.384476455730228"><ele>460.5</ele><time>2026-04-06T12:01:34.999Z</time></trkpt><trkpt lat="45.758070265258944" lon="8.38432073151359"><ele>460.0</ele><time>2026-04-06T12:01:35.999Z</time></trkpt><trkpt lat="45.758146627862786" lon="8.384170872963582"><ele>459.5</ele><time>2026-04-06T12:01:36.999Z</time></trkpt><trkpt lat="45.758211654136375" lon="8.384037562983925"><ele>459.0</ele><time>2026-04-06T12:01:37.999Z</time></trkpt><trkpt lat="45.758265763187" lon="8.383922305233808"><ele>459.6</ele><time>2026-04-06T12:01:38.999Z</time></trkpt><trkpt lat="45.75831976859104" lon="8.38383140096935"><ele>460.2</ele><time>2026-04-06T12:01:39.999Z</time></trkpt><trkpt lat="45.75826334083537" lon="8.383608366358956"><ele>460.80000000000007</ele><time>2026-04-06T12:01:41.999Z</time></trkpt><trkpt lat="45.75819808422739" lon="8.383516546640001"><ele>461.40000000000003</ele><time>2026-04-06T12:01:42.999Z</time></trkpt><trkpt lat="45.75811717982303" lon="8.383431822022606"><ele>462.0</ele><time>2026-04-06T12:01:43.999Z</time></trkpt><trkpt lat="45.758030801873595" lon="8.38333909292386"><ele>462.0</ele><time>2026-04-06T12:01:44.999Z</time></trkpt><trkpt lat="45.7579342744767" lon="8.383236202624401"><ele>462.0</ele><time>2026-04-06T12:01:45.999Z</time></trkpt><trkpt lat="45.75783248889935" lon="8.383128374327551"><ele>462.0</ele><time>2026-04-06T12:01:46.999Z</time></trkpt><trkpt lat="45.75772655234476" lon="8.383016023972433"><ele>462.0</ele><time>2026-04-06T12:01:47.999Z</time></trkpt><trkpt lat="45.75761228508974" lon="8.382902499405752"><ele>462.5</ele><time>2026-04-06T12:01:48.999Z</time></trkpt><trkpt lat="45.757501573195825" lon="8.382785909833219"><ele>463.0</ele><time>2026-04-06T12:01:49.999Z</time></trkpt><trkpt lat="45.75739719106813" lon="8.382667253155462"><ele>463.5</ele><time>2026-04-06T12:01:50.999Z</time></trkpt><trkpt lat="45.75729355088581" lon="8.382544356201075"><ele>464.0</ele><time>2026-04-06T12:01:51.999Z</time></trkpt><trkpt lat="45.757191223420264" lon="8.382427797026605"><ele>464.0</ele><time>2026-04-06T12:01:52.999Z</time></trkpt><trkpt lat="45.75708897944962" lon="8.382310664414874"><ele>464.0</ele><time>2026-04-06T12:01:53.999Z</time></trkpt><trkpt lat="45.75697852988096" lon="8.382185567887134"><ele>464.0</ele><time>2026-04-06T12:01:54.999Z</time></trkpt><trkpt lat="45.75686062984192" lon="8.38205509848168"><ele>464.0</ele><time>2026-04-06T12:01:55.999Z</time></trkpt><trkpt lat="45.75673516293229" lon="8.381919949840407"><ele>465.0</ele><time>2026-04-06T12:01:56.999Z</time></trkpt><trkpt lat="45.756606967309324" lon="8.381779713487541"><ele>466.0</ele><time>2026-04-06T12:01:58Z</time></trkpt><trkpt lat="45.75648224956423" lon="8.38164601684456"><ele>467.0</ele><time>2026-04-06T12:01:59Z</time></trkpt><trkpt lat="45.75636549404662" lon="8.381513388133616"><ele>467.0</ele><time>2026-04-06T12:02:00Z</time></trkpt><trkpt lat="45.75624894991573" lon="8.381381203336433"><ele>467.0</ele><time>2026-04-06T12:02:01Z</time></trkpt><trkpt lat="45.75612430965778" lon="8.381246204161332"><ele>467.0</ele><time>2026-04-06T12:02:02Z</time></trkpt><trkpt lat="45.75600213201506" lon="8.381114181385614"><ele>467.66666666666663</ele><time>2026-04-06T12:02:03Z</time></trkpt><trkpt lat="45.755877059941916" lon="8.380976969828579"><ele>468.33333333333337</ele><time>2026-04-06T12:02:04Z</time></trkpt><trkpt lat="45.75575194484606" lon="8.380839275479639"><ele>469.0</ele><time>2026-04-06T12:02:05Z</time></trkpt><trkpt lat="45.75561839294221" lon="8.380709535471032"><ele>469.0</ele><time>2026-04-06T12:02:06Z</time></trkpt><trkpt lat="45.755475104811275" lon="8.380597313334073"><ele>469.0</ele><time>2026-04-06T12:02:07Z</time></trkpt><trkpt lat="45.75532341270468" lon="8.38049788346488"><ele>469.0</ele><time>2026-04-06T12:02:08Z</time></trkpt><trkpt lat="45.755165680658834" lon="8.380416107353808"><ele>470.33333333333337</ele><time>2026-04-06T12:02:09Z</time></trkpt><trkpt lat="45.755004311604424" lon="8.38035578355675"><ele>471.66666666666663</ele><time>2026-04-06T12:02:10Z</time></trkpt><trkpt lat="45.75484550982153" lon="8.380318605053544"><ele>473.0</ele><time>2026-04-06T12:02:11Z</time></trkpt><trkpt lat="45.75468935837165" lon="8.38030265065354"><ele>473.0</ele><time>2026-04-06T12:02:12Z</time></trkpt><trkpt lat="45.75453467805196" lon="8.380310227278235"><ele>473.0</ele><time>2026-04-06T12:02:13Z</time></trkpt><trkpt lat="45.75437482459426" lon="8.380335293785402"><ele>473.0</ele><time>2026-04-06T12:02:14Z</time></trkpt><trkpt lat="45.75421220289414" lon="8.380374699590188"><ele>473.0</ele><time>2026-04-06T12:02:15Z</time></trkpt><trkpt lat="45.754043136205524" lon="8.380420755763433"><ele>473.0</ele><time>2026-04-06T12:02:16Z</time></trkpt><trkpt lat="45.753868599418176" lon="8.380461120658765"><ele>473.0</ele><time>2026-04-06T12:02:17Z</time></trkpt><trkpt lat="45.753689340663676" lon="8.380506117464858"><ele>470.3333333333333</ele><time>2026-04-06T12:02:18Z</time></trkpt><trkpt lat="45.753507512550584" lon="8.380552519281437"><ele>467.66666666666663</ele><time>2026-04-06T12:02:19Z</time></trkpt><trkpt lat="45.753322289184915" lon="8.380599398665627"><ele>465.0</ele><time>2026-04-06T12:02:20Z</time></trkpt><trkpt lat="45.75313866496741" lon="8.38064342977382"><ele>465.0</ele><time>2026-04-06T12:02:21Z</time></trkpt><trkpt lat="45.7529561865022" lon="8.380687553655253"><ele>465.0</ele><time>2026-04-06T12:02:22Z</time></trkpt><trkpt lat="45.752779690015366" lon="8.380733032537456"><ele>465.0</ele><time>2026-04-06T12:02:23Z</time></trkpt><trkpt lat="45.752611053696164" lon="8.380780327910864"><ele>468.0</ele><time>2026-04-06T12:02:24Z</time></trkpt><trkpt lat="45.7524445753439" lon="8.380824312613385"><ele>471.0</ele><time>2026-04-06T12:02:25Z</time></trkpt><trkpt lat="45.75228091620664" lon="8.380868745073787"><ele>474.0</ele><time>2026-04-06T12:02:26Z</time></trkpt><trkpt lat="45.75211425219941" lon="8.380908444327373"><ele>474.0</ele><time>2026-04-06T12:02:27Z</time></trkpt><trkpt lat="45.75194399774598" lon="8.380949990046915"><ele>474.0</ele><time>2026-04-06T12:02:28Z</time></trkpt><trkpt lat="45.75177748835644" lon="8.3809963544621"><ele>474.0</ele><time>2026-04-06T12:02:29Z</time></trkpt><trkpt lat="45.751605794080874" lon="8.381040573497392"><ele>475.66666666666663</ele><time>2026-04-06T12:02:30Z</time></trkpt><trkpt lat="45.75143587262636" lon="8.381083299744459"><ele>477.3333333333333</ele><time>2026-04-06T12:02:31Z</time></trkpt><trkpt lat="45.75126530708618" lon="8.381127304671145"><ele>479.0</ele><time>2026-04-06T12:02:32Z</time></trkpt><trkpt lat="45.75109770616159" lon="8.381170879234439"><ele>480.66666666666663</ele><time>2026-04-06T12:02:33Z</time></trkpt><trkpt lat="45.75093202728146" lon="8.381212711801147"><ele>482.33333333333337</ele><time>2026-04-06T12:02:34Z</time></trkpt><trkpt lat="45.75076869970215" lon="8.381250911567271"><ele>484.0</ele><time>2026-04-06T12:02:35Z</time></trkpt><trkpt lat="45.75060732796917" lon="8.381292304857721"><ele>484.0</ele><time>2026-04-06T12:02:36Z</time></trkpt><trkpt lat="45.750447610216504" lon="8.381334907128977"><ele>484.0</ele><time>2026-04-06T12:02:37Z</time></trkpt><trkpt lat="45.75028389504635" lon="8.381374676585018"><ele>484.0</ele><time>2026-04-06T12:02:38Z</time></trkpt><trkpt lat="45.75012855515963" lon="8.381410976443219"><ele>482.33333333333337</ele><time>2026-04-06T12:02:39Z</time></trkpt><trkpt lat="45.749971855609814" lon="8.381449562347425"><ele>480.66666666666663</ele><time>2026-04-06T12:02:40Z</time></trkpt><trkpt lat="45.74981007320543" lon="8.381489276723348"><ele>479.0</ele><time>2026-04-06T12:02:41Z</time></trkpt><trkpt lat="45.74964097217714" lon="8.381532406029129"><ele>479.0</ele><time>2026-04-06T12:02:42Z</time></trkpt><trkpt lat="45.74946599252091" lon="8.381579525771611"><ele>479.0</ele><time>2026-04-06T12:02:43Z</time></trkpt><trkpt lat="45.74929557746985" lon="8.381628037231973"><ele>479.0</ele><time>2026-04-06T12:02:44Z</time></trkpt><trkpt lat="45.74913846315935" lon="8.381682254057273"><ele>480.0</ele><time>2026-04-06T12:02:45Z</time></trkpt><trkpt lat="45.748982732288745" lon="8.38174659962624"><ele>481.0</ele><time>2026-04-06T12:02:46Z</time></trkpt><trkpt lat="45.74882543162574" lon="8.381822951842967"><ele>482.0</ele><time>2026-04-06T12:02:47Z</time></trkpt><trkpt lat="45.7486750432078" lon="8.381903236463355"><ele>482.0</ele><time>2026-04-06T12:02:48Z</time></trkpt><trkpt lat="45.74852808069408" lon="8.381983807545703"><ele>482.0</ele><time>2026-04-06T12:02:49Z</time></trkpt><trkpt lat="45.74838501842093" lon="8.382052899974324"><ele>482.0</ele><time>2026-04-06T12:02:50Z</time></trkpt><trkpt lat="45.74824268423216" lon="8.382103631383215"><ele>482.0</ele><time>2026-04-06T12:02:51Z</time></trkpt><trkpt lat="45.74809964339163" lon="8.382125792423425"><ele>482.0</ele><time>2026-04-06T12:02:52Z</time></trkpt><trkpt lat="45.747952893921855" lon="8.382115799272693"><ele>482.0</ele><time>2026-04-06T12:02:53Z</time></trkpt><trkpt lat="45.747812263231765" lon="8.382083682118864"><ele>482.0</ele><time>2026-04-06T12:02:54Z</time></trkpt><trkpt lat="45.74767476233762" lon="8.38204845165077"><ele>481.0</ele><time>2026-04-06T12:02:55Z</time></trkpt><trkpt lat="45.747542932524176" lon="8.382018876298483"><ele>480.0</ele><time>2026-04-06T12:02:56Z</time></trkpt><trkpt lat="45.747422627086266" lon="8.381992017781096"><ele>479.0</ele><time>2026-04-06T12:02:57Z</time></trkpt><trkpt lat="45.74730878111312" lon="8.381971523956928"><ele>478.0</ele><time>2026-04-06T12:02:58Z</time></trkpt><trkpt lat="45.747202553417324" lon="8.381980205332054"><ele>478.0</ele><time>2026-04-06T12:02:59Z</time></trkpt><trkpt lat="45.74710775868145" lon="8.382046474308936"><ele>478.0</ele><time>2026-04-06T12:03:00Z</time></trkpt><trkpt lat="45.74703557906903" lon="8.38216333427858"><ele>478.0</ele><time>2026-04-06T12:03:01Z</time></trkpt><trkpt lat="45.74697920299335" lon="8.38231840509789"><ele>478.0</ele><time>2026-04-06T12:03:02Z</time></trkpt><trkpt lat="45.74692718784584" lon="8.382499999363068"><ele>480.0</ele><time>2026-04-06T12:03:03Z</time></trkpt><trkpt lat="45.74687561812862" lon="8.382703823661219"><ele>482.0</ele><time>2026-04-06T12:03:04Z</time></trkpt><trkpt lat="45.746823364650425" lon="8.382902079936107"><ele>484.0</ele><time>2026-04-06T12:03:05Z</time></trkpt><trkpt lat="45.74676645627282" lon="8.38307790732983"><ele>486.0</ele><time>2026-04-06T12:03:06Z</time></trkpt><trkpt lat="45.746701185239544" lon="8.383238991399114"><ele>486.0</ele><time>2026-04-06T12:03:07Z</time></trkpt><trkpt lat="45.746622766848716" lon="8.38338833346622"><ele>486.0</ele><time>2026-04-06T12:03:07.999Z</time></trkpt><trkpt lat="45.7465258511856" lon="8.38353518007443"><ele>486.0</ele><time>2026-04-06T12:03:08.999Z</time></trkpt><trkpt lat="45.74643445553973" lon="8.383660209019132"><ele>486.0</ele><time>2026-04-06T12:03:09.999Z</time></trkpt><trkpt lat="45.74634399388586" lon="8.383767635721338"><ele>486.0</ele><time>2026-04-06T12:03:10.999Z</time></trkpt><trkpt lat="45.74624798701707" lon="8.383842972205416"><ele>486.0</ele><time>2026-04-06T12:03:11.999Z</time></trkpt><trkpt lat="45.746139885404894" lon="8.383880185734144"><ele>486.0</ele><time>2026-04-06T12:03:12.999Z</time></trkpt><trkpt lat="45.74602203136563" lon="8.383881015616312"><ele>486.0</ele><time>2026-04-06T12:03:13.999Z</time></trkpt><trkpt lat="45.74589989612928" lon="8.383852110912805"><ele>487.6</ele><time>2026-04-06T12:03:14.999Z</time></trkpt><trkpt lat="45.74579024043003" lon="8.383796453581539"><ele>489.20000000000005</ele><time>2026-04-06T12:03:15.999Z</time></trkpt><trkpt lat="45.74569299280262" lon="8.383718331024308"><ele>490.79999999999995</ele><time>2026-04-06T12:03:16.999Z</time></trkpt><trkpt lat="45.74560706213873" lon="8.383619530801871"><ele>492.4</ele><time>2026-04-06T12:03:17.999Z</time></trkpt><trkpt lat="45.74551152793655" lon="8.383568115073405"><ele>494.0</ele><time>2026-04-06T12:03:18.999Z</time></trkpt><trkpt lat="45.74542165453707" lon="8.38353078228366"><ele>494.0</ele><time>2026-04-06T12:03:19.999Z</time></trkpt><trkpt lat="45.74535033262809" lon="8.383449886738092"><ele>494.0</ele><time>2026-04-06T12:03:20.999Z</time></trkpt><trkpt lat="45.745291266091826" lon="8.383348393422207"><ele>494.0</ele><time>2026-04-06T12:03:21.999Z</time></trkpt><trkpt lat="45.74525689947453" lon="8.383224911404689"><ele>494.0</ele><time>2026-04-06T12:03:22.999Z</time></trkpt><trkpt lat="45.74524958937375" lon="8.383077220465898"><ele>494.0</ele><time>2026-04-06T12:03:23.999Z</time></trkpt><trkpt lat="45.74525734713426" lon="8.382907066327336"><ele>492.25</ele><time>2026-04-06T12:03:24.999Z</time></trkpt><trkpt lat="45.74526315729183" lon="8.382731107422353"><ele>490.5</ele><time>2026-04-06T12:03:25.999Z</time></trkpt><trkpt lat="45.745257515404674" lon="8.382569422281685"><ele>488.75</ele><time>2026-04-06T12:03:26.999Z</time></trkpt><trkpt lat="45.74523902050769" lon="8.382404637307555"><ele>487.0</ele><time>2026-04-06T12:03:27.999Z</time></trkpt><trkpt lat="45.74518833626701" lon="8.382236940587788"><ele>488.5</ele><time>2026-04-06T12:03:28.999Z</time></trkpt><trkpt lat="45.74511102672013" lon="8.382080763051697"><ele>490.0</ele><time>2026-04-06T12:03:29.999Z</time></trkpt><trkpt lat="45.7450273310343" lon="8.38194241577836"><ele>491.5</ele><time>2026-04-06T12:03:30.999Z</time></trkpt><trkpt lat="45.744956156933235" lon="8.381801870507436"><ele>493.0</ele><time>2026-04-06T12:03:31.999Z</time></trkpt><trkpt lat="45.744916233541495" lon="8.381647673449802"><ele>493.0</ele><time>2026-04-06T12:03:32.999Z</time></trkpt><trkpt lat="45.744898603807364" lon="8.381480259518082"><ele>493.0</ele><time>2026-04-06T12:03:33.999Z</time></trkpt><trkpt lat="45.744896672207695" lon="8.381285973917839"><ele>493.0</ele><time>2026-04-06T12:03:34.999Z</time></trkpt><trkpt lat="45.74491715208585" lon="8.38107619925502"><ele>493.0</ele><time>2026-04-06T12:03:35.999Z</time></trkpt><trkpt lat="45.744926153437795" lon="8.380839152557266"><ele>494.0</ele><time>2026-04-06T12:03:36.999Z</time></trkpt><trkpt lat="45.74493416703734" lon="8.38056957383342"><ele>495.0</ele><time>2026-04-06T12:03:37.999Z</time></trkpt><trkpt lat="45.74492661684089" lon="8.380296078695368"><ele>496.0</ele><time>2026-04-06T12:03:38.999Z</time></trkpt><trkpt lat="45.74491871142707" lon="8.379997009047969"><ele>500.5</ele><time>2026-04-06T12:03:39.999Z</time></trkpt><trkpt lat="45.74488319199979" lon="8.379682098230784"><ele>505.0</ele><time>2026-04-06T12:03:40.999Z</time></trkpt><trkpt lat="45.74482648276938" lon="8.379360020429898"><ele>505.0</ele><time>2026-04-06T12:03:41.999Z</time></trkpt><trkpt lat="45.744752305808554" lon="8.379046609958152"><ele>505.0</ele><time>2026-04-06T12:03:42.999Z</time></trkpt><trkpt lat="45.74465882051195" lon="8.378736855497937"><ele>511.0</ele><time>2026-04-06T12:03:43.999Z</time></trkpt><trkpt lat="45.7445452644059" lon="8.378440983753414"><ele>517.0</ele><time>2026-04-06T12:03:44.999Z</time></trkpt><trkpt lat="45.74440862488274" lon="8.378152713742244"><ele>509.5</ele><time>2026-04-06T12:03:45.999Z</time></trkpt><trkpt lat="45.7442751613517" lon="8.377869402751584"><ele>502.0</ele><time>2026-04-06T12:03:46.999Z</time></trkpt><trkpt lat="45.744162119501496" lon="8.377590506792318"><ele>502.0</ele><time>2026-04-06T12:03:47.999Z</time></trkpt><trkpt lat="45.74410376499695" lon="8.37728442198949"><ele>502.0</ele><time>2026-04-06T12:03:48.999Z</time></trkpt><trkpt lat="45.74405493185522" lon="8.376958438492442"><ele>503.5</ele><time>2026-04-06T12:03:49.999Z</time></trkpt><trkpt lat="45.74399104998364" lon="8.376624830310872"><ele>505.0</ele><time>2026-04-06T12:03:50.999Z</time></trkpt><trkpt lat="45.743948969444816" lon="8.376276067953915"><ele>509.0</ele><time>2026-04-06T12:03:51.999Z</time></trkpt><trkpt lat="45.74391082361172" lon="8.375916766898047"><ele>513.0</ele><time>2026-04-06T12:03:52.999Z</time></trkpt><trkpt lat="45.74387694482259" lon="8.375587138921922"><ele>512.3333333333334</ele><time>2026-04-06T12:03:53.999Z</time></trkpt><trkpt lat="45.74386572326684" lon="8.37535036105143"><ele>511.6666666666667</ele><time>2026-04-06T12:03:54.999Z</time></trkpt><trkpt lat="45.743897007020074" lon="8.375144482935738"><ele>511.0</ele><time>2026-04-06T12:03:55.999Z</time></trkpt><trkpt lat="45.74398942630282" lon="8.374953918550107"><ele>511.0</ele><time>2026-04-06T12:03:56.999Z</time></trkpt><trkpt lat="45.744044988480994" lon="8.3747104426593"><ele>511.0</ele><time>2026-04-06T12:03:57.999Z</time></trkpt><trkpt lat="45.744133131189486" lon="8.374457781927594"><ele>511.0</ele><time>2026-04-06T12:03:58.999Z</time></trkpt><trkpt lat="45.744239177358054" lon="8.374210487293709"><ele>509.5</ele><time>2026-04-06T12:03:59.999Z</time></trkpt><trkpt lat="45.74435802066345" lon="8.373944261399808"><ele>508.0</ele><time>2026-04-06T12:04:00.999Z</time></trkpt><trkpt lat="45.74445046670878" lon="8.373634735652926"><ele>512.5</ele><time>2026-04-06T12:04:01.999Z</time></trkpt><trkpt lat="45.74452595765303" lon="8.373311417676803"><ele>517.0</ele><time>2026-04-06T12:04:02.999Z</time></trkpt><trkpt lat="45.74459494834768" lon="8.373008353594319"><ele>517.0</ele><time>2026-04-06T12:04:04Z</time></trkpt><trkpt lat="45.744643480578134" lon="8.37276719146993"><ele>517.0</ele><time>2026-04-06T12:04:05Z</time></trkpt><trkpt lat="45.74468509453656" lon="8.372584379401312"><ele>517.0</ele><time>2026-04-06T12:04:06Z</time></trkpt><trkpt lat="45.74475836741919" lon="8.372448331688084"><ele>517.0</ele><time>2026-04-06T12:04:07Z</time></trkpt><trkpt lat="45.7448966158852" lon="8.372385059405161"><ele>517.0</ele><time>2026-04-06T12:04:08Z</time></trkpt><trkpt lat="45.74502492735758" lon="8.372289340042002"><ele>517.0</ele><time>2026-04-06T12:04:09Z</time></trkpt><trkpt lat="45.745109314974776" lon="8.372184323144648"><ele>517.0</ele><time>2026-04-06T12:04:10Z</time></trkpt><trkpt lat="45.74513529154438" lon="8.372046245999972"><ele>517.0</ele><time>2026-04-06T12:04:11Z</time></trkpt><trkpt lat="45.74510349335077" lon="8.37191036790625"><ele>517.75</ele><time>2026-04-06T12:04:12Z</time></trkpt><trkpt lat="45.74504235471413" lon="8.371753077284481"><ele>518.5</ele><time>2026-04-06T12:04:13Z</time></trkpt><trkpt lat="45.744941927029345" lon="8.371655272905977"><ele>519.25</ele><time>2026-04-06T12:04:14Z</time></trkpt><trkpt lat="45.74482103799435" lon="8.371681066114723"><ele>520.0</ele><time>2026-04-06T12:04:15Z</time></trkpt><trkpt lat="45.74470227328171" lon="8.371733812697267"><ele>520.0</ele><time>2026-04-06T12:04:16Z</time></trkpt><trkpt lat="45.74457602783512" lon="8.371829882292046"><ele>520.0</ele><time>2026-04-06T12:04:17Z</time></trkpt><trkpt lat="45.744443932783035" lon="8.371929308018036"><ele>520.0</ele><time>2026-04-06T12:04:18Z</time></trkpt><trkpt lat="45.74433890631603" lon="8.371960729570446"><ele>520.0</ele><time>2026-04-06T12:04:19Z</time></trkpt><trkpt lat="45.74425767312881" lon="8.371886360589139"><ele>519.25</ele><time>2026-04-06T12:04:20Z</time></trkpt><trkpt lat="45.74422301711659" lon="8.371740127616446"><ele>518.5</ele><time>2026-04-06T12:04:21Z</time></trkpt><trkpt lat="45.744193645374416" lon="8.371557245665207"><ele>517.75</ele><time>2026-04-06T12:04:22Z</time></trkpt><trkpt lat="45.744172153688474" lon="8.37133379167728"><ele>517.0</ele><time>2026-04-06T12:04:23Z</time></trkpt><trkpt lat="45.74413728678202" lon="8.371099344185556"><ele>521.0</ele><time>2026-04-06T12:04:24Z</time></trkpt><trkpt lat="45.74406350095718" lon="8.370859056115604"><ele>525.0</ele><time>2026-04-06T12:04:25Z</time></trkpt><trkpt lat="45.743974634600534" lon="8.370601959878764"><ele>529.0</ele><time>2026-04-06T12:04:26Z</time></trkpt><trkpt lat="45.743924096789" lon="8.370360884168628"><ele>531.0</ele><time>2026-04-06T12:04:27Z</time></trkpt><trkpt lat="45.74390358343889" lon="8.370077134410476"><ele>533.0</ele><time>2026-04-06T12:04:28Z</time></trkpt><trkpt lat="45.74392056687038" lon="8.36976256557713"><ele>535.0</ele><time>2026-04-06T12:04:29Z</time></trkpt><trkpt lat="45.74394158389408" lon="8.369481476625076"><ele>537.0</ele><time>2026-04-06T12:04:30Z</time></trkpt><trkpt lat="45.743929726919745" lon="8.369231143188024"><ele>539.0</ele><time>2026-04-06T12:04:31Z</time></trkpt><trkpt lat="45.7438648074249" lon="8.368974238809061"><ele>541.0</ele><time>2026-04-06T12:04:32Z</time></trkpt><trkpt lat="45.74377698454383" lon="8.368703631137956"><ele>544.0</ele><time>2026-04-06T12:04:33Z</time></trkpt><trkpt lat="45.74371057614898" lon="8.368402755026423"><ele>547.0</ele><time>2026-04-06T12:04:34Z</time></trkpt><trkpt lat="45.743679113173165" lon="8.368072602283128"><ele>549.5</ele><time>2026-04-06T12:04:35Z</time></trkpt><trkpt lat="45.74366436079787" lon="8.367730192989777"><ele>552.0</ele><time>2026-04-06T12:04:36Z</time></trkpt><trkpt lat="45.743665511805396" lon="8.367390256044471"><ele>552.0</ele><time>2026-04-06T12:04:37Z</time></trkpt><trkpt lat="45.74369032098535" lon="8.367054447113413"><ele>552.0</ele><time>2026-04-06T12:04:38Z</time></trkpt><trkpt lat="45.74374010934315" lon="8.36671550272392"><ele>552.0</ele><time>2026-04-06T12:04:39Z</time></trkpt><trkpt lat="45.74380742435439" lon="8.366368908450736"><ele>552.0</ele><time>2026-04-06T12:04:40Z</time></trkpt><trkpt lat="45.74389669779224" lon="8.366035027149303"><ele>550.3333333333334</ele><time>2026-04-06T12:04:41Z</time></trkpt><trkpt lat="45.74400139731999" lon="8.365730801659675"><ele>548.6666666666667</ele><time>2026-04-06T12:04:42Z</time></trkpt><trkpt lat="45.74412420060818" lon="8.365490447624753"><ele>547.0</ele><time>2026-04-06T12:04:43Z</time></trkpt><trkpt lat="45.74421378105749" lon="8.365287411446067"><ele>546.5</ele><time>2026-04-06T12:04:44Z</time></trkpt><trkpt lat="45.74429389589162" lon="8.365121750408008"><ele>546.0</ele><time>2026-04-06T12:04:45Z</time></trkpt><trkpt lat="45.74432666829427" lon="8.364967393837007"><ele>545.5</ele><time>2026-04-06T12:04:46Z</time></trkpt><trkpt lat="45.7442898504471" lon="8.364808568497041"><ele>545.0</ele><time>2026-04-06T12:04:47Z</time></trkpt><trkpt lat="45.74420470579246" lon="8.36466045168504"><ele>548.5</ele><time>2026-04-06T12:04:48Z</time></trkpt><trkpt lat="45.744073745660216" lon="8.364546855482013"><ele>552.0</ele><time>2026-04-06T12:04:49Z</time></trkpt><trkpt lat="45.74392905688185" lon="8.364455408174386"><ele>555.5</ele><time>2026-04-06T12:04:50Z</time></trkpt><trkpt lat="45.74386263488116" lon="8.364285411989577"><ele>559.0</ele><time>2026-04-06T12:04:51Z</time></trkpt><trkpt lat="45.74385750362165" lon="8.364105392423866"><ele>559.0</ele><time>2026-04-06T12:04:52Z</time></trkpt><trkpt lat="45.74389360652662" lon="8.363888090701856"><ele>559.0</ele><time>2026-04-06T12:04:53Z</time></trkpt><trkpt lat="45.7439730319006" lon="8.363668357573546"><ele>559.0</ele><time>2026-04-06T12:04:54Z</time></trkpt><trkpt lat="45.74407701690951" lon="8.363443605864918"><ele>560.0</ele><time>2026-04-06T12:04:55Z</time></trkpt><trkpt lat="45.744162136464645" lon="8.363234222449266"><ele>561.0</ele><time>2026-04-06T12:04:56Z</time></trkpt><trkpt lat="45.744202389945464" lon="8.363038061358615"><ele>562.0</ele><time>2026-04-06T12:04:57Z</time></trkpt><trkpt lat="45.74419337446316" lon="8.362812159793744"><ele>564.25</ele><time>2026-04-06T12:04:58Z</time></trkpt><trkpt lat="45.744148962838025" lon="8.362611629862537"><ele>566.5</ele><time>2026-04-06T12:04:59Z</time></trkpt><trkpt lat="45.7440736388398" lon="8.362420410465342"><ele>568.75</ele><time>2026-04-06T12:05:00Z</time></trkpt><trkpt lat="45.74397161899983" lon="8.362287297946146"><ele>571.0</ele><time>2026-04-06T12:05:01Z</time></trkpt><trkpt lat="45.74383609501918" lon="8.362210520898316"><ele>575.3333333333334</ele><time>2026-04-06T12:05:02Z</time></trkpt><trkpt lat="45.743679498684195" lon="8.362158892353554"><ele>579.6666666666666</ele><time>2026-04-06T12:05:03Z</time></trkpt><trkpt lat="45.74351443436274" lon="8.362109580698496"><ele>584.0</ele><time>2026-04-06T12:05:04Z</time></trkpt><trkpt lat="45.74333030072342" lon="8.362048647749466"><ele>584.0</ele><time>2026-04-06T12:05:05Z</time></trkpt><trkpt lat="45.74313110561576" lon="8.361976365822052"><ele>584.0</ele><time>2026-04-06T12:05:06Z</time></trkpt><trkpt lat="45.742928172665934" lon="8.36189596619854"><ele>584.0</ele><time>2026-04-06T12:05:07Z</time></trkpt><trkpt lat="45.742738378243594" lon="8.361804715984977"><ele>579.6666666666666</ele><time>2026-04-06T12:05:07.999Z</time></trkpt><trkpt lat="45.742580033278315" lon="8.361714945343488"><ele>575.3333333333334</ele><time>2026-04-06T12:05:08.999Z</time></trkpt><trkpt lat="45.74244314360905" lon="8.361594160980902"><ele>571.0</ele><time>2026-04-06T12:05:09.999Z</time></trkpt><trkpt lat="45.74231898289538" lon="8.361426760827753"><ele>575.3333333333334</ele><time>2026-04-06T12:05:10.999Z</time></trkpt><trkpt lat="45.74217109439173" lon="8.361284071906491"><ele>579.6666666666666</ele><time>2026-04-06T12:05:11.999Z</time></trkpt><trkpt lat="45.74202227731945" lon="8.361140176255994"><ele>584.0</ele><time>2026-04-06T12:05:12.999Z</time></trkpt><trkpt lat="45.741893635543185" lon="8.361012859487568"><ele>584.5</ele><time>2026-04-06T12:05:13.999Z</time></trkpt><trkpt lat="45.74178121777987" lon="8.360879316039059"><ele>585.0</ele><time>2026-04-06T12:05:14.999Z</time></trkpt><trkpt lat="45.74169349543862" lon="8.360722966345659"><ele>585.5</ele><time>2026-04-06T12:05:15.999Z</time></trkpt><trkpt lat="45.7416234012108" lon="8.360537916705008"><ele>586.0</ele><time>2026-04-06T12:05:16.999Z</time></trkpt><trkpt lat="45.74157506867871" lon="8.3603239566753"><ele>586.0</ele><time>2026-04-06T12:05:17.999Z</time></trkpt><trkpt lat="45.741536185414134" lon="8.360089651832046"><ele>586.0</ele><time>2026-04-06T12:05:18.999Z</time></trkpt><trkpt lat="45.74147846868089" lon="8.359850012606586"><ele>586.0</ele><time>2026-04-06T12:05:19.999Z</time></trkpt><trkpt lat="45.741413465010304" lon="8.359597847690026"><ele>590.3333333333334</ele><time>2026-04-06T12:05:20.999Z</time></trkpt><trkpt lat="45.74134842942313" lon="8.35934522347747"><ele>594.6666666666666</ele><time>2026-04-06T12:05:21.999Z</time></trkpt><trkpt lat="45.74128254324084" lon="8.359076592409869"><ele>599.0</ele><time>2026-04-06T12:05:22.999Z</time></trkpt><trkpt lat="45.74121505469476" lon="8.358800858430085"><ele>599.0</ele><time>2026-04-06T12:05:23.999Z</time></trkpt><trkpt lat="45.74115009156479" lon="8.35852866648046"><ele>599.0</ele><time>2026-04-06T12:05:24.999Z</time></trkpt><trkpt lat="45.741085238823395" lon="8.358244228414634"><ele>599.0</ele><time>2026-04-06T12:05:26.067Z</time></trkpt><trkpt lat="45.7410247772976" lon="8.357975365672315"><ele>581.0</ele><time>2026-04-06T12:05:27.057Z</time></trkpt><trkpt lat="45.74090905414215" lon="8.357466019844122"><ele>563.0</ele><time>2026-04-06T12:05:28.999Z</time></trkpt><trkpt lat="45.74079857455229" lon="8.357273529808918"><ele>564.6666666666666</ele><time>2026-04-06T12:05:29.999Z</time></trkpt><trkpt lat="45.740728957872534" lon="8.357043224930235"><ele>566.3333333333334</ele><time>2026-04-06T12:05:30.999Z</time></trkpt><trkpt lat="45.740642698069294" lon="8.356812162698237"><ele>568.0</ele><time>2026-04-06T12:05:31.999Z</time></trkpt><trkpt lat="45.740553705404665" lon="8.356576253984382"><ele>570.6666666666667</ele><time>2026-04-06T12:05:32.999Z</time></trkpt><trkpt lat="45.74045953133854" lon="8.356341439771755"><ele>573.3333333333334</ele><time>2026-04-06T12:05:33.999Z</time></trkpt><trkpt lat="45.74035620652605" lon="8.356084628542629"><ele>576.0</ele><time>2026-04-06T12:05:34.999Z</time></trkpt><trkpt lat="45.74024522475573" lon="8.355798551997642"><ele>566.6666666666666</ele><time>2026-04-06T12:05:35.999Z</time></trkpt><trkpt lat="45.740141875208025" lon="8.355525755835494"><ele>557.3333333333333</ele><time>2026-04-06T12:05:36.999Z</time></trkpt><trkpt lat="45.7400579604663" lon="8.355280421752774"><ele>548.0</ele><time>2026-04-06T12:05:37.999Z</time></trkpt><trkpt lat="45.74000872111692" lon="8.355042254905417"><ele>548.0</ele><time>2026-04-06T12:05:38.999Z</time></trkpt><trkpt lat="45.739995992460926" lon="8.354790346488702"><ele>548.0</ele><time>2026-04-06T12:05:39.999Z</time></trkpt><trkpt lat="45.73997566044431" lon="8.354560769663529"><ele>548.0</ele><time>2026-04-06T12:05:40.999Z</time></trkpt><trkpt lat="45.73991548738546" lon="8.354352670266607"><ele>548.0</ele><time>2026-04-06T12:05:41.999Z</time></trkpt><trkpt lat="45.73983492753749" lon="8.354176760752582"><ele>548.0</ele><time>2026-04-06T12:05:42.999Z</time></trkpt><trkpt lat="45.73977378208398" lon="8.354027653117186"><ele>548.0</ele><time>2026-04-06T12:05:43.999Z</time></trkpt><trkpt lat="45.73974612910947" lon="8.353878423635875"><ele>548.0</ele><time>2026-04-06T12:05:44.999Z</time></trkpt><trkpt lat="45.73977263339464" lon="8.353732172976217"><ele>543.6666666666666</ele><time>2026-04-06T12:05:45.999Z</time></trkpt><trkpt lat="45.73985279698061" lon="8.353574017125801"><ele>539.3333333333334</ele><time>2026-04-06T12:05:46.999Z</time></trkpt><trkpt lat="45.739973401519244" lon="8.353424961699348"><ele>535.0</ele><time>2026-04-06T12:05:47.999Z</time></trkpt><trkpt lat="45.74012477394097" lon="8.353306807481003"><ele>538.3333333333334</ele><time>2026-04-06T12:05:48.999Z</time></trkpt><trkpt lat="45.74030726306062" lon="8.353229855977107"><ele>541.6666666666666</ele><time>2026-04-06T12:05:49.999Z</time></trkpt><trkpt lat="45.74048058502928" lon="8.353204322502867"><ele>545.0</ele><time>2026-04-06T12:05:50.999Z</time></trkpt><trkpt lat="45.740675762387035" lon="8.353231808708584"><ele>545.0</ele><time>2026-04-06T12:05:51.999Z</time></trkpt><trkpt lat="45.74083732394707" lon="8.353280467307215"><ele>545.0</ele><time>2026-04-06T12:05:52.999Z</time></trkpt><trkpt lat="45.74096755359862" lon="8.353304351479466"><ele>545.0</ele><time>2026-04-06T12:05:53.999Z</time></trkpt><trkpt lat="45.741085657360586" lon="8.353262887396982"><ele>545.0</ele><time>2026-04-06T12:05:54.999Z</time></trkpt><trkpt lat="45.74118593485675" lon="8.353146917634277"><ele>548.75</ele><time>2026-04-06T12:05:55.999Z</time></trkpt><trkpt lat="45.741238764634616" lon="8.352987322728035"><ele>552.5</ele><time>2026-04-06T12:05:56.999Z</time></trkpt><trkpt lat="45.74123531008223" lon="8.352808075120588"><ele>556.25</ele><time>2026-04-06T12:05:57.999Z</time></trkpt><trkpt lat="45.741188818203426" lon="8.352657495860928"><ele>560.0</ele><time>2026-04-06T12:05:58.999Z</time></trkpt><trkpt lat="45.74109342391176" lon="8.352534450866044"><ele>553.0</ele><time>2026-04-06T12:05:59.999Z</time></trkpt><trkpt lat="45.74096356522208" lon="8.3524416491301"><ele>546.0</ele><time>2026-04-06T12:06:00.999Z</time></trkpt><trkpt lat="45.74080620408677" lon="8.352389730114194"><ele>539.0</ele><time>2026-04-06T12:06:01.999Z</time></trkpt><trkpt lat="45.74062813592829" lon="8.352344628113967"><ele>539.0</ele><time>2026-04-06T12:06:02.999Z</time></trkpt><trkpt lat="45.74043906282037" lon="8.352297764864824"><ele>539.0</ele><time>2026-04-06T12:06:03.999Z</time></trkpt><trkpt lat="45.7402275392299" lon="8.352278585006786"><ele>539.0</ele><time>2026-04-06T12:06:04.999Z</time></trkpt><trkpt lat="45.740010758750834" lon="8.35229144546927"><ele>535.5</ele><time>2026-04-06T12:06:05.999Z</time></trkpt><trkpt lat="45.73978600652021" lon="8.352326677142184"><ele>532.0</ele><time>2026-04-06T12:06:06.999Z</time></trkpt><trkpt lat="45.739552249821905" lon="8.352371861189727"><ele>528.6666666666667</ele><time>2026-04-06T12:06:07.999Z</time></trkpt><trkpt lat="45.73933633935972" lon="8.35240632792971"><ele>525.3333333333334</ele><time>2026-04-06T12:06:09Z</time></trkpt><trkpt lat="45.73916146676899" lon="8.352421233455917"><ele>522.0</ele><time>2026-04-06T12:06:10Z</time></trkpt><trkpt lat="45.73900017393841" lon="8.352396612778934"><ele>522.0</ele><time>2026-04-06T12:06:11Z</time></trkpt><trkpt lat="45.73884944856814" lon="8.352289135627437"><ele>522.0</ele><time>2026-04-06T12:06:12Z</time></trkpt><trkpt lat="45.73870915118782" lon="8.352129887593337"><ele>522.0</ele><time>2026-04-06T12:06:13Z</time></trkpt><trkpt lat="45.738591273082484" lon="8.351912626811128"><ele>519.3333333333334</ele><time>2026-04-06T12:06:14Z</time></trkpt><trkpt lat="45.73846378846691" lon="8.351663721710121"><ele>516.6666666666667</ele><time>2026-04-06T12:06:15Z</time></trkpt><trkpt lat="45.7383278555643" lon="8.351406325926547"><ele>514.0</ele><time>2026-04-06T12:06:16Z</time></trkpt><trkpt lat="45.738181810154494" lon="8.35114882895687"><ele>523.0</ele><time>2026-04-06T12:06:17Z</time></trkpt><trkpt lat="45.73802704835871" lon="8.35088330700579"><ele>532.0</ele><time>2026-04-06T12:06:18Z</time></trkpt><trkpt lat="45.73786110943613" lon="8.350624356711986"><ele>526.5</ele><time>2026-04-06T12:06:19Z</time></trkpt><trkpt lat="45.73766974386784" lon="8.350399492171835"><ele>521.0</ele><time>2026-04-06T12:06:20Z</time></trkpt><trkpt lat="45.7374805107152" lon="8.350216938528662"><ele>521.0</ele><time>2026-04-06T12:06:21Z</time></trkpt><trkpt lat="45.73729934411018" lon="8.350070565522977"><ele>521.0</ele><time>2026-04-06T12:06:22Z</time></trkpt><trkpt lat="45.73715345910735" lon="8.349942046313334"><ele>521.0</ele><time>2026-04-06T12:06:23Z</time></trkpt><trkpt lat="45.737066394385046" lon="8.349775961294007"><ele>524.0</ele><time>2026-04-06T12:06:24Z</time></trkpt><trkpt lat="45.737018213851535" lon="8.34957103629498"><ele>527.0</ele><time>2026-04-06T12:06:25Z</time></trkpt><trkpt lat="45.73699837559413" lon="8.349320066748245"><ele>530.0</ele><time>2026-04-06T12:06:26Z</time></trkpt><trkpt lat="45.73694911497223" lon="8.34904557989385"><ele>518.0</ele><time>2026-04-06T12:06:27Z</time></trkpt><trkpt lat="45.73688236517039" lon="8.348765654246503"><ele>506.0</ele><time>2026-04-06T12:06:28Z</time></trkpt><trkpt lat="45.736776155252265" lon="8.348494492156666"><ele>494.0</ele><time>2026-04-06T12:06:29Z</time></trkpt><trkpt lat="45.73670523181812" lon="8.348274716895522"><ele>494.0</ele><time>2026-04-06T12:06:30Z</time></trkpt><trkpt lat="45.7366952134397" lon="8.34807405197146"><ele>494.0</ele><time>2026-04-06T12:06:31Z</time></trkpt><trkpt lat="45.73673258654362" lon="8.347876399184244"><ele>494.0</ele><time>2026-04-06T12:06:32Z</time></trkpt><trkpt lat="45.73681665404891" lon="8.34769424382473"><ele>494.0</ele><time>2026-04-06T12:06:33Z</time></trkpt><trkpt lat="45.736952297690266" lon="8.347589357043276"><ele>495.0</ele><time>2026-04-06T12:06:34Z</time></trkpt><trkpt lat="45.73710848567534" lon="8.34749120370379"><ele>496.0</ele><time>2026-04-06T12:06:35Z</time></trkpt><trkpt lat="45.73727979117963" lon="8.347391290947131"><ele>497.0</ele><time>2026-04-06T12:06:36Z</time></trkpt><trkpt lat="45.737437944629455" lon="8.347342954096018"><ele>497.0</ele><time>2026-04-06T12:06:37Z</time></trkpt><trkpt lat="45.73759954566707" lon="8.34735356866824"><ele>497.0</ele><time>2026-04-06T12:06:38Z</time></trkpt><trkpt lat="45.73775978991862" lon="8.347421873439485"><ele>497.0</ele><time>2026-04-06T12:06:39Z</time></trkpt><trkpt lat="45.73792282112966" lon="8.347539149391359"><ele>496.5</ele><time>2026-04-06T12:06:40Z</time></trkpt><trkpt lat="45.738054689340046" lon="8.34761059258243"><ele>496.0</ele><time>2026-04-06T12:06:41Z</time></trkpt><trkpt lat="45.73819323789162" lon="8.347623257845015"><ele>495.5</ele><time>2026-04-06T12:06:42Z</time></trkpt><trkpt lat="45.73832059929982" lon="8.347564539791781"><ele>495.0</ele><time>2026-04-06T12:06:43Z</time></trkpt><trkpt lat="45.73843064609043" lon="8.347427099594936"><ele>495.0</ele><time>2026-04-06T12:06:44Z</time></trkpt><trkpt lat="45.73850897315374" lon="8.347246799950616"><ele>495.0</ele><time>2026-04-06T12:06:45Z</time></trkpt><trkpt lat="45.738542146103164" lon="8.347043836854008"><ele>495.0</ele><time>2026-04-06T12:06:46Z</time></trkpt><trkpt lat="45.73851840332242" lon="8.346854932523184"><ele>495.0</ele><time>2026-04-06T12:06:47Z</time></trkpt><trkpt lat="45.738463588045626" lon="8.346637822019458"><ele>493.0</ele><time>2026-04-06T12:06:48Z</time></trkpt><trkpt lat="45.73836450264913" lon="8.346491598549552"><ele>491.0</ele><time>2026-04-06T12:06:49Z</time></trkpt><trkpt lat="45.73826095194823" lon="8.346386770430655"><ele>489.0</ele><time>2026-04-06T12:06:50Z</time></trkpt><trkpt lat="45.73813061681802" lon="8.346329222298612"><ele>487.0</ele><time>2026-04-06T12:06:51Z</time></trkpt><trkpt lat="45.73796654425601" lon="8.346313029504671"><ele>492.0</ele><time>2026-04-06T12:06:52Z</time></trkpt><trkpt lat="45.73778731540136" lon="8.346293320565858"><ele>497.0</ele><time>2026-04-06T12:06:53Z</time></trkpt><trkpt lat="45.7375798122873" lon="8.34627059829173"><ele>502.0</ele><time>2026-04-06T12:06:54Z</time></trkpt><trkpt lat="45.73736486841205" lon="8.34623466847057"><ele>502.0</ele><time>2026-04-06T12:06:54.999Z</time></trkpt><trkpt lat="45.73714307998886" lon="8.346201026803467"><ele>502.0</ele><time>2026-04-06T12:06:55.999Z</time></trkpt><trkpt lat="45.73694320427648" lon="8.346170952672923"><ele>502.0</ele><time>2026-04-06T12:06:56.999Z</time></trkpt><trkpt lat="45.73677033278788" lon="8.346130810046333"><ele>496.6666666666667</ele><time>2026-04-06T12:06:57.999Z</time></trkpt><trkpt lat="45.7365993561897" lon="8.346050693324086"><ele>491.33333333333337</ele><time>2026-04-06T12:06:58.999Z</time></trkpt><trkpt lat="45.736431638240276" lon="8.345903255737658"><ele>486.0</ele><time>2026-04-06T12:06:59.999Z</time></trkpt><trkpt lat="45.73628062330482" lon="8.3456983939407"><ele>482.66666666666663</ele><time>2026-04-06T12:07:00.999Z</time></trkpt><trkpt lat="45.73614284532909" lon="8.345490010733913"><ele>479.3333333333333</ele><time>2026-04-06T12:07:01.999Z</time></trkpt><trkpt lat="45.73599128784864" lon="8.345314842758254"><ele>476.0</ele><time>2026-04-06T12:07:02.999Z</time></trkpt><trkpt lat="45.735802981375116" lon="8.345194859422596"><ele>476.0</ele><time>2026-04-06T12:07:03.999Z</time></trkpt><trkpt lat="45.73559160894234" lon="8.345102766024693"><ele>476.0</ele><time>2026-04-06T12:07:04.999Z</time></trkpt><trkpt lat="45.73537438118538" lon="8.345008275342874"><ele>476.0</ele><time>2026-04-06T12:07:05.999Z</time></trkpt><trkpt lat="45.73515712289459" lon="8.34490187301189"><ele>472.3333333333333</ele><time>2026-04-06T12:07:06.999Z</time></trkpt><trkpt lat="45.73496699333718" lon="8.344779065183099"><ele>468.66666666666663</ele><time>2026-04-06T12:07:07.999Z</time></trkpt><trkpt lat="45.73480352423538" lon="8.344619781959587"><ele>465.0</ele><time>2026-04-06T12:07:08.999Z</time></trkpt><trkpt lat="45.734652356634186" lon="8.344428813958322"><ele>465.0</ele><time>2026-04-06T12:07:09.999Z</time></trkpt><trkpt lat="45.73451161163662" lon="8.34419872190089"><ele>465.0</ele><time>2026-04-06T12:07:10.999Z</time></trkpt><trkpt lat="45.73437542539653" lon="8.343950820611257"><ele>465.0</ele><time>2026-04-06T12:07:11.999Z</time></trkpt><trkpt lat="45.73425788086749" lon="8.34373783602968"><ele>463.33333333333337</ele><time>2026-04-06T12:07:12.999Z</time></trkpt><trkpt lat="45.73417424173164" lon="8.343526343273048"><ele>461.6666666666667</ele><time>2026-04-06T12:07:13.999Z</time></trkpt><trkpt lat="45.734151386178304" lon="8.343286644573256"><ele>460.0</ele><time>2026-04-06T12:07:14.999Z</time></trkpt><trkpt lat="45.73419392761843" lon="8.343031077222655"><ele>459.33333333333337</ele><time>2026-04-06T12:07:15.999Z</time></trkpt><trkpt lat="45.734208176372285" lon="8.342766035442999"><ele>458.66666666666663</ele><time>2026-04-06T12:07:16.999Z</time></trkpt><trkpt lat="45.73418835902773" lon="8.342510136629695"><ele>458.0</ele><time>2026-04-06T12:07:17.999Z</time></trkpt><trkpt lat="45.734137507234855" lon="8.342233653691606"><ele>456.66666666666663</ele><time>2026-04-06T12:07:18.999Z</time></trkpt><trkpt lat="45.73410033349832" lon="8.342006662840634"><ele>455.33333333333337</ele><time>2026-04-06T12:07:19.999Z</time></trkpt><trkpt lat="45.73410884861211" lon="8.341808048376855"><ele>454.0</ele><time>2026-04-06T12:07:20.999Z</time></trkpt><trkpt lat="45.73417387722745" lon="8.341615121097245"><ele>454.0</ele><time>2026-04-06T12:07:21.999Z</time></trkpt><trkpt lat="45.7342774197624" lon="8.341427663139072"><ele>454.0</ele><time>2026-04-06T12:07:22.999Z</time></trkpt><trkpt lat="45.73435169528445" lon="8.341263336716164"><ele>454.0</ele><time>2026-04-06T12:07:23.999Z</time></trkpt><trkpt lat="45.73436543571491" lon="8.341072796415025"><ele>454.0</ele><time>2026-04-06T12:07:24.999Z</time></trkpt><trkpt lat="45.73432529912629" lon="8.340877586171949"><ele>452.25</ele><time>2026-04-06T12:07:25.999Z</time></trkpt><trkpt lat="45.734250517656776" lon="8.340673285650663"><ele>450.5</ele><time>2026-04-06T12:07:26.999Z</time></trkpt><trkpt lat="45.734199741291015" lon="8.34048163606027"><ele>448.75</ele><time>2026-04-06T12:07:27.999Z</time></trkpt><trkpt lat="45.73418532614811" lon="8.340294754487708"><ele>447.0</ele><time>2026-04-06T12:07:28.999Z</time></trkpt><trkpt lat="45.734184776061205" lon="8.340116834647949"><ele>446.0</ele><time>2026-04-06T12:07:29.999Z</time></trkpt><trkpt lat="45.73419360346547" lon="8.33994583388898"><ele>445.0</ele><time>2026-04-06T12:07:30.999Z</time></trkpt><trkpt lat="45.734201389575254" lon="8.339742174455681"><ele>444.0</ele><time>2026-04-06T12:07:31.999Z</time></trkpt><trkpt lat="45.73420014696971" lon="8.339513669796641"><ele>443.0</ele><time>2026-04-06T12:07:32.999Z</time></trkpt><trkpt lat="45.734174344844135" lon="8.339256777373011"><ele>443.0</ele><time>2026-04-06T12:07:33.999Z</time></trkpt><trkpt lat="45.73411664921491" lon="8.338994127687583"><ele>443.0</ele><time>2026-04-06T12:07:34.999Z</time></trkpt><trkpt lat="45.73402499870529" lon="8.338721198680474"><ele>443.0</ele><time>2026-04-06T12:07:35.999Z</time></trkpt><trkpt lat="45.73389859899999" lon="8.338456541985261"><ele>443.0</ele><time>2026-04-06T12:07:36.999Z</time></trkpt><trkpt lat="45.733755114872494" lon="8.338215298664325"><ele>443.0</ele><time>2026-04-06T12:07:37.999Z</time></trkpt><trkpt lat="45.73359447573519" lon="8.33798320264848"><ele>443.0</ele><time>2026-04-06T12:07:38.999Z</time></trkpt><trkpt lat="45.73342851710738" lon="8.337745777354863"><ele>438.0</ele><time>2026-04-06T12:07:39.999Z</time></trkpt><trkpt lat="45.73326031550811" lon="8.337501850487136"><ele>433.0</ele><time>2026-04-06T12:07:40.999Z</time></trkpt><trkpt lat="45.73308975596395" lon="8.33725522029225"><ele>436.0</ele><time>2026-04-06T12:07:41.999Z</time></trkpt><trkpt lat="45.732925594717926" lon="8.337011368677306"><ele>439.0</ele><time>2026-04-06T12:07:42.999Z</time></trkpt><trkpt lat="45.73276677104946" lon="8.336768786065237"><ele>432.5</ele><time>2026-04-06T12:07:43.999Z</time></trkpt><trkpt lat="45.73260351284087" lon="8.33652824506072"><ele>426.0</ele><time>2026-04-06T12:07:44.999Z</time></trkpt><trkpt lat="45.73245106715901" lon="8.336306134023259"><ele>426.0</ele><time>2026-04-06T12:07:45.999Z</time></trkpt><trkpt lat="45.73231594919416" lon="8.336093902340492"><ele>426.0</ele><time>2026-04-06T12:07:46.999Z</time></trkpt><trkpt lat="45.73219687665596" lon="8.335891083714259"><ele>426.0</ele><time>2026-04-06T12:07:47.999Z</time></trkpt><trkpt lat="45.73209480311238" lon="8.335680329966511"><ele>425.66666666666663</ele><time>2026-04-06T12:07:48.999Z</time></trkpt><trkpt lat="45.73201729277271" lon="8.335457556984736"><ele>425.3333333333333</ele><time>2026-04-06T12:07:49.999Z</time></trkpt><trkpt lat="45.73195618816706" lon="8.335238527921252"><ele>425.0</ele><time>2026-04-06T12:07:50.999Z</time></trkpt><trkpt lat="45.73189790236857" lon="8.335041665325015"><ele>421.75</ele><time>2026-04-06T12:07:51.999Z</time></trkpt><trkpt lat="45.73183340183411" lon="8.334859383099129"><ele>418.5</ele><time>2026-04-06T12:07:52.999Z</time></trkpt><trkpt lat="45.73174414198006" lon="8.334708967583891"><ele>415.25</ele><time>2026-04-06T12:07:53.999Z</time></trkpt><trkpt lat="45.73161457696192" lon="8.33459448247312"><ele>412.0</ele><time>2026-04-06T12:07:54.999Z</time></trkpt><trkpt lat="45.73145319909623" lon="8.334524722636472"><ele>412.0</ele><time>2026-04-06T12:07:55.999Z</time></trkpt><trkpt lat="45.73127606870089" lon="8.334475268514536"><ele>412.0</ele><time>2026-04-06T12:07:56.999Z</time></trkpt><trkpt lat="45.73109746259654" lon="8.33440449525791"><ele>412.0</ele><time>2026-04-06T12:07:57.999Z</time></trkpt><trkpt lat="45.730964158809364" lon="8.334238204293246"><ele>412.0</ele><time>2026-04-06T12:07:58.999Z</time></trkpt><trkpt lat="45.73081394159852" lon="8.3340574469007"><ele>412.0</ele><time>2026-04-06T12:07:59.999Z</time></trkpt><trkpt lat="45.73066060835444" lon="8.333835864520214"><ele>412.0</ele><time>2026-04-06T12:08:00.999Z</time></trkpt><trkpt lat="45.730487197311945" lon="8.333614166565347"><ele>412.0</ele><time>2026-04-06T12:08:01.999Z</time></trkpt><trkpt lat="45.7303101785329" lon="8.333409754812232"><ele>412.0</ele><time>2026-04-06T12:08:02.999Z</time></trkpt><trkpt lat="45.73015204180654" lon="8.333228354431533"><ele>412.0</ele><time>2026-04-06T12:08:03.999Z</time></trkpt><trkpt lat="45.730014567279824" lon="8.333038063122084"><ele>409.33333333333337</ele><time>2026-04-06T12:08:04.999Z</time></trkpt><trkpt lat="45.729896149649264" lon="8.332795104065108"><ele>406.66666666666663</ele><time>2026-04-06T12:08:05.999Z</time></trkpt><trkpt lat="45.72978026768886" lon="8.332520564247913"><ele>404.0</ele><time>2026-04-06T12:08:06.999Z</time></trkpt><trkpt lat="45.72964123516138" lon="8.332258954855789"><ele>403.0</ele><time>2026-04-06T12:08:07.999Z</time></trkpt><trkpt lat="45.72947082984524" lon="8.332014251015508"><ele>402.0</ele><time>2026-04-06T12:08:08.999Z</time></trkpt><trkpt lat="45.729277675996755" lon="8.331794575989521"><ele>401.5</ele><time>2026-04-06T12:08:09.999Z</time></trkpt><trkpt lat="45.729080673056295" lon="8.331590215919183"><ele>401.0</ele><time>2026-04-06T12:08:10.999Z</time></trkpt><trkpt lat="45.72889448590776" lon="8.331418224578286"><ele>401.0</ele><time>2026-04-06T12:08:11.999Z</time></trkpt><trkpt lat="45.728701831464434" lon="8.331260982556637"><ele>401.0</ele><time>2026-04-06T12:08:12.999Z</time></trkpt><trkpt lat="45.72849531994725" lon="8.33112837565178"><ele>401.0</ele><time>2026-04-06T12:08:13.999Z</time></trkpt><trkpt lat="45.728275621114946" lon="8.33102809558933"><ele>401.0</ele><time>2026-04-06T12:08:15Z</time></trkpt><trkpt lat="45.72805331409267" lon="8.330942487698445"><ele>401.0</ele><time>2026-04-06T12:08:16Z</time></trkpt><trkpt lat="45.72783049544003" lon="8.330863035994827"><ele>401.0</ele><time>2026-04-06T12:08:17Z</time></trkpt><trkpt lat="45.72760261980797" lon="8.330790091113283"><ele>401.0</ele><time>2026-04-06T12:08:18Z</time></trkpt><trkpt lat="45.72737217056252" lon="8.330727216311056"><ele>401.0</ele><time>2026-04-06T12:08:19Z</time></trkpt><trkpt lat="45.72714244094392" lon="8.330660515411047"><ele>401.0</ele><time>2026-04-06T12:08:20Z</time></trkpt><trkpt lat="45.72692198041019" lon="8.33058609834645"><ele>397.5</ele><time>2026-04-06T12:08:21Z</time></trkpt><trkpt lat="45.72670030172244" lon="8.330472660367993"><ele>394.0</ele><time>2026-04-06T12:08:22Z</time></trkpt><trkpt lat="45.72649749995539" lon="8.33030621235038"><ele>394.0</ele><time>2026-04-06T12:08:23Z</time></trkpt><trkpt lat="45.72631911182582" lon="8.330079699349598"><ele>394.0</ele><time>2026-04-06T12:08:24Z</time></trkpt><trkpt lat="45.72615572161498" lon="8.3298194784879"><ele>396.0</ele><time>2026-04-06T12:08:25Z</time></trkpt><trkpt lat="45.726002467373085" lon="8.32955773491024"><ele>398.0</ele><time>2026-04-06T12:08:26Z</time></trkpt><trkpt lat="45.72585445114173" lon="8.329309920735962"><ele>398.0</ele><time>2026-04-06T12:08:27Z</time></trkpt><trkpt lat="45.725705870515014" lon="8.329064967849618"><ele>398.0</ele><time>2026-04-06T12:08:28Z</time></trkpt><trkpt lat="45.725556286114816" lon="8.328821069914522"><ele>395.0</ele><time>2026-04-06T12:08:29Z</time></trkpt><trkpt lat="45.72540300623978" lon="8.328576198393192"><ele>392.0</ele><time>2026-04-06T12:08:30Z</time></trkpt><trkpt lat="45.725246366555915" lon="8.328342521083325"><ele>394.0</ele><time>2026-04-06T12:08:31Z</time></trkpt><trkpt lat="45.72507650370114" lon="8.328122255214424"><ele>396.0</ele><time>2026-04-06T12:08:32Z</time></trkpt><trkpt lat="45.724894692948965" lon="8.327912377694744"><ele>396.0</ele><time>2026-04-06T12:08:33Z</time></trkpt><trkpt lat="45.724707295718964" lon="8.327708382072457"><ele>396.0</ele><time>2026-04-06T12:08:34Z</time></trkpt><trkpt lat="45.724523214352985" lon="8.327506544307795"><ele>397.66666666666663</ele><time>2026-04-06T12:08:35Z</time></trkpt><trkpt lat="45.72435183811819" lon="8.327307163044601"><ele>399.3333333333333</ele><time>2026-04-06T12:08:36Z</time></trkpt><trkpt lat="45.72418900010521" lon="8.327097484225549"><ele>401.0</ele><time>2026-04-06T12:08:37Z</time></trkpt><trkpt lat="45.72402929633806" lon="8.326858862573067"><ele>395.0</ele><time>2026-04-06T12:08:38Z</time></trkpt><trkpt lat="45.723871584978006" lon="8.32659416476624"><ele>389.0</ele><time>2026-04-06T12:08:39Z</time></trkpt><trkpt lat="45.7237299304051" lon="8.326342222386128"><ele>389.0</ele><time>2026-04-06T12:08:40Z</time></trkpt><trkpt lat="45.72361779075256" lon="8.326088684658965"><ele>389.0</ele><time>2026-04-06T12:08:41Z</time></trkpt><trkpt lat="45.72353981369445" lon="8.325813120692992"><ele>389.0</ele><time>2026-04-06T12:08:42Z</time></trkpt><trkpt lat="45.72348592116532" lon="8.325513256466786"><ele>389.0</ele><time>2026-04-06T12:08:43Z</time></trkpt><trkpt lat="45.72344098271486" lon="8.32519119847698"><ele>389.0</ele><time>2026-04-06T12:08:44Z</time></trkpt><trkpt lat="45.7234091656019" lon="8.324861719174665"><ele>388.3333333333333</ele><time>2026-04-06T12:08:45Z</time></trkpt><trkpt lat="45.72339522355235" lon="8.324552591539511"><ele>387.66666666666663</ele><time>2026-04-06T12:08:46Z</time></trkpt><trkpt lat="45.723373353350304" lon="8.324263575075365"><ele>387.0</ele><time>2026-04-06T12:08:47Z</time></trkpt><trkpt lat="45.72332607881879" lon="8.32399895350182"><ele>385.6666666666667</ele><time>2026-04-06T12:08:48Z</time></trkpt><trkpt lat="45.72330019399268" lon="8.323756012849444"><ele>384.33333333333337</ele><time>2026-04-06T12:08:49Z</time></trkpt><trkpt lat="45.72314210766702" lon="8.323585026235852"><ele>383.0</ele><time>2026-04-06T12:08:50Z</time></trkpt><trkpt lat="45.72302369457658" lon="8.323454590919097"><ele>383.0</ele><time>2026-04-06T12:08:51Z</time></trkpt><trkpt lat="45.72289633533414" lon="8.323345263927013"><ele>383.0</ele><time>2026-04-06T12:08:52Z</time></trkpt><trkpt lat="45.72275913047092" lon="8.323252398483936"><ele>383.0</ele><time>2026-04-06T12:08:53Z</time></trkpt><trkpt lat="45.72262142846051" lon="8.323155800178002"><ele>381.6666666666667</ele><time>2026-04-06T12:08:54Z</time></trkpt><trkpt lat="45.72249690794438" lon="8.32306059991837"><ele>380.3333333333333</ele><time>2026-04-06T12:08:55Z</time></trkpt><trkpt lat="45.72237076576663" lon="8.322942573675334"><ele>379.0</ele><time>2026-04-06T12:08:56Z</time></trkpt><trkpt lat="45.72224058087035" lon="8.322806391851717"><ele>379.0</ele><time>2026-04-06T12:08:57Z</time></trkpt><trkpt lat="45.72211304987265" lon="8.32263642472954"><ele>379.0</ele><time>2026-04-06T12:08:58Z</time></trkpt><trkpt lat="45.721988690418755" lon="8.322441428439125"><ele>379.0</ele><time>2026-04-06T12:08:59Z</time></trkpt><trkpt lat="45.72187757517165" lon="8.322215648476595"><ele>379.0</ele><time>2026-04-06T12:09:00Z</time></trkpt><trkpt lat="45.7217777173621" lon="8.321944775630861"><ele>379.0</ele><time>2026-04-06T12:09:01Z</time></trkpt><trkpt lat="45.72170488785206" lon="8.321643660455623"><ele>379.0</ele><time>2026-04-06T12:09:02Z</time></trkpt><trkpt lat="45.72165776983553" lon="8.321333695853886"><ele>377.5</ele><time>2026-04-06T12:09:03Z</time></trkpt><trkpt lat="45.72163108930208" lon="8.321002058557882"><ele>376.0</ele><time>2026-04-06T12:09:03.999Z</time></trkpt><trkpt lat="45.721597643523666" lon="8.320659260616528"><ele>379.0</ele><time>2026-04-06T12:09:04.999Z</time></trkpt><trkpt lat="45.72156217731504" lon="8.320302377651318"><ele>382.0</ele><time>2026-04-06T12:09:05.999Z</time></trkpt><trkpt lat="45.72152749196803" lon="8.3199362269433"><ele>380.5</ele><time>2026-04-06T12:09:06.999Z</time></trkpt><trkpt lat="45.72149482419226" lon="8.319577405768785"><ele>379.0</ele><time>2026-04-06T12:09:07.999Z</time></trkpt><trkpt lat="45.72146191928959" lon="8.319237758509429"><ele>379.0</ele><time>2026-04-06T12:09:08.999Z</time></trkpt><trkpt lat="45.7214307828132" lon="8.318920389008985"><ele>379.0</ele><time>2026-04-06T12:09:09.999Z</time></trkpt><trkpt lat="45.72140027994155" lon="8.318609459975615"><ele>379.0</ele><time>2026-04-06T12:09:10.999Z</time></trkpt><trkpt lat="45.721367993223694" lon="8.318306154611548"><ele>379.3333333333333</ele><time>2026-04-06T12:09:11.999Z</time></trkpt><trkpt lat="45.721340822080144" lon="8.318017862513436"><ele>379.6666666666667</ele><time>2026-04-06T12:09:12.999Z</time></trkpt><trkpt lat="45.721313790394284" lon="8.31774243603702"><ele>380.0</ele><time>2026-04-06T12:09:13.999Z</time></trkpt><trkpt lat="45.72129118000462" lon="8.317480563595751"><ele>380.33333333333337</ele><time>2026-04-06T12:09:14.999Z</time></trkpt><trkpt lat="45.7212677911474" lon="8.317233149082973"><ele>380.6666666666667</ele><time>2026-04-06T12:09:15.999Z</time></trkpt><trkpt lat="45.721246408886316" lon="8.316995082615618"><ele>381.0</ele><time>2026-04-06T12:09:16.999Z</time></trkpt><trkpt lat="45.721226621207634" lon="8.31676563698434"><ele>381.0</ele><time>2026-04-06T12:09:17.999Z</time></trkpt><trkpt lat="45.7212063565643" lon="8.31653881520038"><ele>381.0</ele><time>2026-04-06T12:09:18.999Z</time></trkpt><trkpt lat="45.72118691238295" lon="8.316306551957442"><ele>381.0</ele><time>2026-04-06T12:09:19.999Z</time></trkpt><trkpt lat="45.721170031478806" lon="8.316059726101445"><ele>381.6666666666667</ele><time>2026-04-06T12:09:20.999Z</time></trkpt><trkpt lat="45.721158574679244" lon="8.315800771410274"><ele>382.33333333333337</ele><time>2026-04-06T12:09:21.999Z</time></trkpt><trkpt lat="45.721149736898475" lon="8.315532784715609"><ele>383.0</ele><time>2026-04-06T12:09:22.999Z</time></trkpt><trkpt lat="45.72114653519039" lon="8.315264440272246"><ele>383.0</ele><time>2026-04-06T12:09:23.999Z</time></trkpt><trkpt lat="45.72114590128509" lon="8.315002393965031"><ele>383.0</ele><time>2026-04-06T12:09:24.999Z</time></trkpt><trkpt lat="45.72114943446218" lon="8.314732795362104"><ele>383.0</ele><time>2026-04-06T12:09:25.999Z</time></trkpt><trkpt lat="45.72115595083208" lon="8.314464561000204"><ele>381.0</ele><time>2026-04-06T12:09:26.999Z</time></trkpt><trkpt lat="45.721164734576895" lon="8.314191587308343"><ele>379.0</ele><time>2026-04-06T12:09:27.999Z</time></trkpt><trkpt lat="45.721176339799" lon="8.313910104841655"><ele>377.0</ele><time>2026-04-06T12:09:28.999Z</time></trkpt><trkpt lat="45.72118663306318" lon="8.313622919341789"><ele>375.33333333333337</ele><time>2026-04-06T12:09:29.999Z</time></trkpt><trkpt lat="45.721195896029016" lon="8.313328020899931"><ele>373.6666666666667</ele><time>2026-04-06T12:09:30.999Z</time></trkpt><trkpt lat="45.721202832838436" lon="8.313030778475307"><ele>372.0</ele><time>2026-04-06T12:09:31.999Z</time></trkpt><trkpt lat="45.72119530171588" lon="8.312761289232997"><ele>372.25</ele><time>2026-04-06T12:09:32.999Z</time></trkpt><trkpt lat="45.7211847041983" lon="8.312534169397713"><ele>372.5</ele><time>2026-04-06T12:09:33.999Z</time></trkpt><trkpt lat="45.72118089477032" lon="8.31234488541474"><ele>372.75</ele><time>2026-04-06T12:09:34.999Z</time></trkpt><trkpt lat="45.721197452496035" lon="8.312185859837982"><ele>373.0</ele><time>2026-04-06T12:09:35.999Z</time></trkpt><trkpt lat="45.72122984689379" lon="8.312051057318842"><ele>373.0</ele><time>2026-04-06T12:09:36.999Z</time></trkpt><trkpt lat="45.72127063247137" lon="8.311928647588948"><ele>373.0</ele><time>2026-04-06T12:09:37.999Z</time></trkpt><trkpt lat="45.721342608794565" lon="8.311825308017319"><ele>373.0</ele><time>2026-04-06T12:09:38.999Z</time></trkpt><trkpt lat="45.72139360845495" lon="8.311721077084565"><ele>373.0</ele><time>2026-04-06T12:09:39.999Z</time></trkpt><trkpt lat="45.721390096564114" lon="8.31161238555759"><ele>373.0</ele><time>2026-04-06T12:09:40.999Z</time></trkpt><trkpt lat="45.721340959789" lon="8.311517535224864"><ele>373.0</ele><time>2026-04-06T12:09:41.999Z</time></trkpt><trkpt lat="45.72125209721979" lon="8.31143280506131"><ele>371.75</ele><time>2026-04-06T12:09:42.999Z</time></trkpt><trkpt lat="45.72114842397482" lon="8.311350262053518"><ele>370.5</ele><time>2026-04-06T12:09:43.999Z</time></trkpt><trkpt lat="45.721058267516" lon="8.311224451088558"><ele>369.25</ele><time>2026-04-06T12:09:44.999Z</time></trkpt><trkpt lat="45.720983792020846" lon="8.311042556412266"><ele>368.0</ele><time>2026-04-06T12:09:45.999Z</time></trkpt><trkpt lat="45.72091384369871" lon="8.310836676672873"><ele>368.0</ele><time>2026-04-06T12:09:46.999Z</time></trkpt><trkpt lat="45.72084155760368" lon="8.310614613960356"><ele>368.0</ele><time>2026-04-06T12:09:47.999Z</time></trkpt><trkpt lat="45.720770224250955" lon="8.310381093506107"><ele>368.0</ele><time>2026-04-06T12:09:48.999Z</time></trkpt><trkpt lat="45.72069930280611" lon="8.310127988534308"><ele>369.6666666666667</ele><time>2026-04-06T12:09:49.999Z</time></trkpt><trkpt lat="45.72062386346915" lon="8.309858975801836"><ele>371.3333333333333</ele><time>2026-04-06T12:09:50.999Z</time></trkpt><trkpt lat="45.72054215784364" lon="8.30957290899088"><ele>373.0</ele><time>2026-04-06T12:09:51.999Z</time></trkpt><trkpt lat="45.72045898559334" lon="8.309284262515868"><ele>377.5</ele><time>2026-04-06T12:09:52.999Z</time></trkpt><trkpt lat="45.72037280777335" lon="8.308989630244733"><ele>382.0</ele><time>2026-04-06T12:09:53.999Z</time></trkpt><trkpt lat="45.72028226757107" lon="8.308687380939363"><ele>375.0</ele><time>2026-04-06T12:09:54.999Z</time></trkpt><trkpt lat="45.72018962429978" lon="8.308381588316053"><ele>368.0</ele><time>2026-04-06T12:09:55.999Z</time></trkpt><trkpt lat="45.720095592977785" lon="8.308068105432062"><ele>368.0</ele><time>2026-04-06T12:09:56.999Z</time></trkpt><trkpt lat="45.720001334307995" lon="8.307744489460873"><ele>368.0</ele><time>2026-04-06T12:09:57.999Z</time></trkpt><trkpt lat="45.71990882797131" lon="8.307415589483941"><ele>372.0</ele><time>2026-04-06T12:09:58.999Z</time></trkpt><trkpt lat="45.7198265430034" lon="8.307089662926812"><ele>376.0</ele><time>2026-04-06T12:09:59.999Z</time></trkpt><trkpt lat="45.71976597454906" lon="8.30676167218242"><ele>376.0</ele><time>2026-04-06T12:10:00.999Z</time></trkpt><trkpt lat="45.71974447853796" lon="8.306426087875744"><ele>376.0</ele><time>2026-04-06T12:10:01.999Z</time></trkpt><trkpt lat="45.7197651604059" lon="8.306081277265946"><ele>376.0</ele><time>2026-04-06T12:10:02.999Z</time></trkpt><trkpt lat="45.71980365208816" lon="8.305744684326854"><ele>376.0</ele><time>2026-04-06T12:10:03.999Z</time></trkpt><trkpt lat="45.7198344302479" lon="8.30541188039351"><ele>372.0</ele><time>2026-04-06T12:10:04.999Z</time></trkpt><trkpt lat="45.719836914623976" lon="8.305070698665443"><ele>368.0</ele><time>2026-04-06T12:10:05.999Z</time></trkpt><trkpt lat="45.71981410150004" lon="8.304764586054032"><ele>366.0</ele><time>2026-04-06T12:10:06.999Z</time></trkpt><trkpt lat="45.71979145003307" lon="8.304526460320181"><ele>364.0</ele><time>2026-04-06T12:10:07.999Z</time></trkpt><trkpt lat="45.71977851037112" lon="8.304328775090326"><ele>362.0</ele><time>2026-04-06T12:10:08.999Z</time></trkpt><trkpt lat="45.71979280375162" lon="8.304170811193847"><ele>360.0</ele><time>2026-04-06T12:10:09.999Z</time></trkpt><trkpt lat="45.71982315226014" lon="8.304011562038308"><ele>359.5</ele><time>2026-04-06T12:10:10.999Z</time></trkpt><trkpt lat="45.71980724465158" lon="8.303873920268769"><ele>359.0</ele><time>2026-04-06T12:10:11.999Z</time></trkpt><trkpt lat="45.719743725749645" lon="8.303739858045494"><ele>358.5</ele><time>2026-04-06T12:10:12.999Z</time></trkpt><trkpt lat="45.71968183136321" lon="8.303570895477876"><ele>358.0</ele><time>2026-04-06T12:10:13.999Z</time></trkpt><trkpt lat="45.71964272281361" lon="8.30337380206088"><ele>358.0</ele><time>2026-04-06T12:10:14.999Z</time></trkpt><trkpt lat="45.719618785055964" lon="8.303145445922484"><ele>358.0</ele><time>2026-04-06T12:10:15.999Z</time></trkpt><trkpt lat="45.719584487483594" lon="8.302893222077511"><ele>358.0</ele><time>2026-04-06T12:10:16.999Z</time></trkpt><trkpt lat="45.71952866554721" lon="8.302636986168112"><ele>357.66666666666663</ele><time>2026-04-06T12:10:17.999Z</time></trkpt><trkpt lat="45.7194390748124" lon="8.302383790124772"><ele>357.3333333333333</ele><time>2026-04-06T12:10:18.999Z</time></trkpt><trkpt lat="45.71930733091092" lon="8.302137098483072"><ele>357.0</ele><time>2026-04-06T12:10:20Z</time></trkpt><trkpt lat="45.719151413237036" lon="8.301915947828002"><ele>359.0</ele><time>2026-04-06T12:10:21Z</time></trkpt><trkpt lat="45.71897584657483" lon="8.301727929083254"><ele>361.0</ele><time>2026-04-06T12:10:22Z</time></trkpt><trkpt lat="45.71878082219606" lon="8.301569132461358"><ele>363.0</ele><time>2026-04-06T12:10:23Z</time></trkpt><trkpt lat="45.71857552545866" lon="8.301425134615107"><ele>373.0</ele><time>2026-04-06T12:10:24Z</time></trkpt><trkpt lat="45.71836286862819" lon="8.301282499241049"><ele>383.0</ele><time>2026-04-06T12:10:25Z</time></trkpt><trkpt lat="45.718147718665996" lon="8.301136568062622"><ele>383.0</ele><time>2026-04-06T12:10:26Z</time></trkpt><trkpt lat="45.71794552510485" lon="8.300988364226113"><ele>383.0</ele><time>2026-04-06T12:10:27Z</time></trkpt><trkpt lat="45.71775125094212" lon="8.300826227316675"><ele>373.5</ele><time>2026-04-06T12:10:28Z</time></trkpt><trkpt lat="45.717564646282604" lon="8.30063137676388"><ele>364.0</ele><time>2026-04-06T12:10:29Z</time></trkpt><trkpt lat="45.7173879236071" lon="8.300404998766453"><ele>363.0</ele><time>2026-04-06T12:10:30Z</time></trkpt><trkpt lat="45.717215489706234" lon="8.300157996966771"><ele>362.0</ele><time>2026-04-06T12:10:31Z</time></trkpt><trkpt lat="45.717042420056785" lon="8.299899252797493"><ele>354.5</ele><time>2026-04-06T12:10:32Z</time></trkpt><trkpt lat="45.71688074007357" lon="8.299646581588357"><ele>347.0</ele><time>2026-04-06T12:10:33Z</time></trkpt><trkpt lat="45.716734206064466" lon="8.299392679176247"><ele>347.0</ele><time>2026-04-06T12:10:34Z</time></trkpt><trkpt lat="45.71660509615975" lon="8.29911578402864"><ele>347.0</ele><time>2026-04-06T12:10:35Z</time></trkpt><trkpt lat="45.71649333872666" lon="8.298814665898218"><ele>350.33333333333337</ele><time>2026-04-06T12:10:36Z</time></trkpt><trkpt lat="45.71639959507959" lon="8.298509634483679"><ele>353.6666666666667</ele><time>2026-04-06T12:10:37Z</time></trkpt><trkpt lat="45.716316258608956" lon="8.298244401525501"><ele>357.0</ele><time>2026-04-06T12:10:38Z</time></trkpt><trkpt lat="45.7162084906195" lon="8.298009633346524"><ele>359.6666666666667</ele><time>2026-04-06T12:10:39Z</time></trkpt><trkpt lat="45.716072236647015" lon="8.297810742708254"><ele>362.33333333333337</ele><time>2026-04-06T12:10:40Z</time></trkpt><trkpt lat="45.715928185603374" lon="8.297666488102937"><ele>365.0</ele><time>2026-04-06T12:10:41Z</time></trkpt><trkpt lat="45.71575449337346" lon="8.297577129454274"><ele>365.0</ele><time>2026-04-06T12:10:42Z</time></trkpt><trkpt lat="45.71556529090564" lon="8.297521528110561"><ele>365.0</ele><time>2026-04-06T12:10:43Z</time></trkpt><trkpt lat="45.71536195110561" lon="8.297510798061495"><ele>365.0</ele><time>2026-04-06T12:10:44Z</time></trkpt><trkpt lat="45.71514419314498" lon="8.29752477105968"><ele>360.0</ele><time>2026-04-06T12:10:45Z</time></trkpt><trkpt lat="45.7149110582902" lon="8.297544507619286"><ele>355.0</ele><time>2026-04-06T12:10:46Z</time></trkpt><trkpt lat="45.71466658100345" lon="8.297562743675384"><ele>355.0</ele><time>2026-04-06T12:10:47Z</time></trkpt><trkpt lat="45.71441998827953" lon="8.297568078765021"><ele>355.0</ele><time>2026-04-06T12:10:48Z</time></trkpt><trkpt lat="45.71417142293161" lon="8.297579247044112"><ele>352.5</ele><time>2026-04-06T12:10:49Z</time></trkpt><trkpt lat="45.713930953453364" lon="8.297594555291164"><ele>350.0</ele><time>2026-04-06T12:10:50Z</time></trkpt><trkpt lat="45.713696063906674" lon="8.2976115965276"><ele>347.0</ele><time>2026-04-06T12:10:51Z</time></trkpt><trkpt lat="45.713457945384505" lon="8.297627299800558"><ele>344.0</ele><time>2026-04-06T12:10:52Z</time></trkpt><trkpt lat="45.71322099771158" lon="8.297640938141432"><ele>344.0</ele><time>2026-04-06T12:10:53Z</time></trkpt><trkpt lat="45.71298276425307" lon="8.297656597409253"><ele>344.0</ele><time>2026-04-06T12:10:54Z</time></trkpt><trkpt lat="45.7127466388385" lon="8.297671764425875"><ele>345.0</ele><time>2026-04-06T12:10:55Z</time></trkpt><trkpt lat="45.712513312300004" lon="8.297688452137388"><ele>346.0</ele><time>2026-04-06T12:10:56Z</time></trkpt><trkpt lat="45.712326217024625" lon="8.297691595290061"><ele>347.0</ele><time>2026-04-06T12:10:57Z</time></trkpt><trkpt lat="45.71215778894296" lon="8.297665107884987"><ele>347.0</ele><time>2026-04-06T12:10:58Z</time></trkpt><trkpt lat="45.71199961747944" lon="8.297584601348373"><ele>347.0</ele><time>2026-04-06T12:10:59Z</time></trkpt><trkpt lat="45.71185200557623" lon="8.297435796783217"><ele>347.0</ele><time>2026-04-06T12:11:00Z</time></trkpt><trkpt lat="45.71171852762279" lon="8.297254504328786"><ele>347.33333333333337</ele><time>2026-04-06T12:11:01Z</time></trkpt><trkpt lat="45.71162109044711" lon="8.297015162097054"><ele>347.6666666666667</ele><time>2026-04-06T12:11:02Z</time></trkpt><trkpt lat="45.711541996457115" lon="8.296736323868261"><ele>348.0</ele><time>2026-04-06T12:11:03Z</time></trkpt><trkpt lat="45.711462919121836" lon="8.296445060661586"><ele>348.3333333333333</ele><time>2026-04-06T12:11:04Z</time></trkpt><trkpt lat="45.711387721410944" lon="8.296184895774754"><ele>348.66666666666663</ele><time>2026-04-06T12:11:05Z</time></trkpt><trkpt lat="45.711315436634294" lon="8.295945343225547"><ele>349.0</ele><time>2026-04-06T12:11:06Z</time></trkpt><trkpt lat="45.71124983521791" lon="8.295714660933129"><ele>349.0</ele><time>2026-04-06T12:11:07Z</time></trkpt><trkpt lat="45.71118250646707" lon="8.295485732222657"><ele>349.0</ele><time>2026-04-06T12:11:08Z</time></trkpt><trkpt lat="45.71111549287849" lon="8.295263566015208"><ele>349.0</ele><time>2026-04-06T12:11:09Z</time></trkpt><trkpt lat="45.71105059578297" lon="8.295052302888589"><ele>348.25</ele><time>2026-04-06T12:11:10Z</time></trkpt><trkpt lat="45.7109910103296" lon="8.29485149114337"><ele>347.5</ele><time>2026-04-06T12:11:11Z</time></trkpt><trkpt lat="45.71093546012324" lon="8.294660109417551"><ele>346.75</ele><time>2026-04-06T12:11:12Z</time></trkpt><trkpt lat="45.710880041263906" lon="8.294472730824113"><ele>346.0</ele><time>2026-04-06T12:11:13Z</time></trkpt><trkpt lat="45.71082228895816" lon="8.29428471595453"><ele>346.0</ele><time>2026-04-06T12:11:14Z</time></trkpt><trkpt lat="45.71076713917231" lon="8.294100540092145"><ele>346.0</ele><time>2026-04-06T12:11:15Z</time></trkpt><trkpt lat="45.710719424468934" lon="8.293935942227336"><ele>346.0</ele><time>2026-04-06T12:11:16Z</time></trkpt><trkpt lat="45.710677366456395" lon="8.293792602409086"><ele>346.0</ele><time>2026-04-06T12:11:17Z</time></trkpt><trkpt lat="45.71063772640874" lon="8.293661565451522"><ele>346.0</ele><time>2026-04-06T12:11:18Z</time></trkpt><trkpt lat="45.710604939166416" lon="8.293519752845262"><ele>346.0</ele><time>2026-04-06T12:11:19Z</time></trkpt><trkpt lat="45.71058625641446" lon="8.29336645161284"><ele>346.0</ele><time>2026-04-06T12:11:20Z</time></trkpt><trkpt lat="45.710584303102685" lon="8.293200612272235"><ele>346.0</ele><time>2026-04-06T12:11:21Z</time></trkpt><trkpt lat="45.710602350588864" lon="8.293027053127162"><ele>345.75</ele><time>2026-04-06T12:11:22Z</time></trkpt><trkpt lat="45.71063343502518" lon="8.292858695436431"><ele>345.5</ele><time>2026-04-06T12:11:23Z</time></trkpt><trkpt lat="45.71066832639169" lon="8.292708062580765"><ele>345.25</ele><time>2026-04-06T12:11:24Z</time></trkpt><trkpt lat="45.71070444266709" lon="8.292554347114745"><ele>345.0</ele><time>2026-04-06T12:11:25Z</time></trkpt><trkpt lat="45.710740098622765" lon="8.292396131657464"><ele>344.75</ele><time>2026-04-06T12:11:26Z</time></trkpt><trkpt lat="45.710778468484705" lon="8.292225501505905"><ele>344.5</ele><time>2026-04-06T12:11:27Z</time></trkpt><trkpt lat="45.71081811955721" lon="8.292046382008646"><ele>344.25</ele><time>2026-04-06T12:11:28Z</time></trkpt><trkpt lat="45.71086053835507" lon="8.291861484364139"><ele>344.0</ele><time>2026-04-06T12:11:29Z</time></trkpt><trkpt lat="45.71090069235527" lon="8.291679254619073"><ele>344.0</ele><time>2026-04-06T12:11:30Z</time></trkpt><trkpt lat="45.710942856665945" lon="8.291483989499037"><ele>344.0</ele><time>2026-04-06T12:11:31Z</time></trkpt><trkpt lat="45.7109834902341" lon="8.291288729646618"><ele>344.0</ele><time>2026-04-06T12:11:32Z</time></trkpt><trkpt lat="45.711021200136095" lon="8.291087088177207"><ele>344.0</ele><time>2026-04-06T12:11:33Z</time></trkpt><trkpt lat="45.71105447761149" lon="8.290879552294522"><ele>346.0</ele><time>2026-04-06T12:11:33.999Z</time></trkpt><trkpt lat="45.7110851560438" lon="8.290669786641335"><ele>348.0</ele><time>2026-04-06T12:11:34.999Z</time></trkpt><trkpt lat="45.71110252952423" lon="8.2904634559572"><ele>350.0</ele><time>2026-04-06T12:11:35.999Z</time></trkpt><trkpt lat="45.71110733151168" lon="8.290267017902162"><ele>352.0</ele><time>2026-04-06T12:11:36.999Z</time></trkpt><trkpt lat="45.71110209059009" lon="8.290071426403962"><ele>353.25</ele><time>2026-04-06T12:11:37.999Z</time></trkpt><trkpt lat="45.71109152151185" lon="8.289875623034659"><ele>354.5</ele><time>2026-04-06T12:11:38.999Z</time></trkpt><trkpt lat="45.711080889318076" lon="8.28968489062687"><ele>355.75</ele><time>2026-04-06T12:11:39.999Z</time></trkpt><trkpt lat="45.71107089804894" lon="8.289497281799637"><ele>357.0</ele><time>2026-04-06T12:11:40.999Z</time></trkpt><trkpt lat="45.711063019668075" lon="8.289315025794101"><ele>354.0</ele><time>2026-04-06T12:11:41.999Z</time></trkpt><trkpt lat="45.71105561031075" lon="8.289133195480012"><ele>351.0</ele><time>2026-04-06T12:11:42.999Z</time></trkpt><trkpt lat="45.711052244861065" lon="8.288951125052385"><ele>348.0</ele><time>2026-04-06T12:11:43.999Z</time></trkpt><trkpt lat="45.71105179957276" lon="8.288766268120312"><ele>345.0</ele><time>2026-04-06T12:11:44.999Z</time></trkpt><trkpt lat="45.71105871027527" lon="8.288576968958427"><ele>345.0</ele><time>2026-04-06T12:11:45.999Z</time></trkpt><trkpt lat="45.71107233331251" lon="8.288395386212022"><ele>345.0</ele><time>2026-04-06T12:11:46.999Z</time></trkpt><trkpt lat="45.71110124716866" lon="8.28821615803301"><ele>345.0</ele><time>2026-04-06T12:11:47.999Z</time></trkpt><trkpt lat="45.71114322401988" lon="8.288039449312134"><ele>345.0</ele><time>2026-04-06T12:11:48.999Z</time></trkpt><trkpt lat="45.71118722772352" lon="8.287862354931596"><ele>345.25</ele><time>2026-04-06T12:11:49.999Z</time></trkpt><trkpt lat="45.711229607983945" lon="8.287687529324092"><ele>345.5</ele><time>2026-04-06T12:11:50.999Z</time></trkpt><trkpt lat="45.711287187920526" lon="8.287525409473856"><ele>345.75</ele><time>2026-04-06T12:11:51.999Z</time></trkpt><trkpt lat="45.7113320846744" lon="8.287361754460596"><ele>346.0</ele><time>2026-04-06T12:11:52.999Z</time></trkpt><trkpt lat="45.71137737149886" lon="8.2872106080508"><ele>346.0</ele><time>2026-04-06T12:11:53.999Z</time></trkpt><trkpt lat="45.71141698455881" lon="8.287065797693446"><ele>346.0</ele><time>2026-04-06T12:11:54.999Z</time></trkpt><trkpt lat="45.71147695619744" lon="8.286947889137673"><ele>346.0</ele><time>2026-04-06T12:11:55.999Z</time></trkpt><trkpt lat="45.71154481062234" lon="8.286848214921411"><ele>346.0</ele><time>2026-04-06T12:11:56.999Z</time></trkpt><trkpt lat="45.71161762487164" lon="8.286770248772592"><ele>346.0</ele><time>2026-04-06T12:11:57.999Z</time></trkpt><trkpt lat="45.711668322266725" lon="8.286690098276766"><ele>346.0</ele><time>2026-04-06T12:11:58.999Z</time></trkpt><trkpt lat="45.71167959250007" lon="8.286584483046903"><ele>346.0</ele><time>2026-04-06T12:11:59.999Z</time></trkpt><trkpt lat="45.71167947629723" lon="8.286463273288046"><ele>346.0</ele><time>2026-04-06T12:12:00.999Z</time></trkpt><trkpt lat="45.711713458937815" lon="8.286334949397505"><ele>346.0</ele><time>2026-04-06T12:12:01.999Z</time></trkpt><trkpt lat="45.71176990559381" lon="8.286207164117391"><ele>346.0</ele><time>2026-04-06T12:12:02.999Z</time></trkpt><trkpt lat="45.71183247261769" lon="8.286068610493052"><ele>345.5</ele><time>2026-04-06T12:12:03.999Z</time></trkpt><trkpt lat="45.71189594203257" lon="8.285920714980945"><ele>345.0</ele><time>2026-04-06T12:12:04.999Z</time></trkpt><trkpt lat="45.71195987886789" lon="8.285767375434752"><ele>344.5</ele><time>2026-04-06T12:12:05.999Z</time></trkpt><trkpt lat="45.71202172233236" lon="8.285613259057195"><ele>344.0</ele><time>2026-04-06T12:12:06.999Z</time></trkpt><trkpt lat="45.71208172494213" lon="8.285470745342153"><ele>343.79999999999995</ele><time>2026-04-06T12:12:07.999Z</time></trkpt><trkpt lat="45.71214008807282" lon="8.285332045201724"><ele>343.59999999999997</ele><time>2026-04-06T12:12:08.999Z</time></trkpt><trkpt lat="45.71219635603271" lon="8.28519420267253"><ele>343.4</ele><time>2026-04-06T12:12:09.999Z</time></trkpt><trkpt lat="45.712248575924974" lon="8.285058328193907"><ele>343.2</ele><time>2026-04-06T12:12:10.999Z</time></trkpt><trkpt lat="45.712303648663394" lon="8.284923994562837"><ele>343.0</ele><time>2026-04-06T12:12:11.999Z</time></trkpt><trkpt lat="45.712358968823935" lon="8.284794311930185"><ele>343.25</ele><time>2026-04-06T12:12:12.999Z</time></trkpt><trkpt lat="45.712411867576044" lon="8.284662783403142"><ele>343.5</ele><time>2026-04-06T12:12:13.999Z</time></trkpt><trkpt lat="45.71246410015029" lon="8.284525390046538"><ele>343.75</ele><time>2026-04-06T12:12:14.999Z</time></trkpt><trkpt lat="45.71252226232305" lon="8.284374459109008"><ele>344.0</ele><time>2026-04-06T12:12:15.999Z</time></trkpt><trkpt lat="45.71258478637576" lon="8.284212386272324"><ele>344.0</ele><time>2026-04-06T12:12:16.999Z</time></trkpt><trkpt lat="45.71266324585008" lon="8.284066534041871"><ele>344.0</ele><time>2026-04-06T12:12:17.999Z</time></trkpt><trkpt lat="45.71272595733261" lon="8.283915256075257"><ele>344.0</ele><time>2026-04-06T12:12:18.999Z</time></trkpt><trkpt lat="45.71278067558603" lon="8.283750325779872"><ele>344.0</ele><time>2026-04-06T12:12:19.999Z</time></trkpt><trkpt lat="45.71284940766202" lon="8.283589547847567"><ele>344.25</ele><time>2026-04-06T12:12:20.999Z</time></trkpt><trkpt lat="45.71292080484226" lon="8.283423220693107"><ele>344.5</ele><time>2026-04-06T12:12:21.999Z</time></trkpt><trkpt lat="45.71298664661594" lon="8.283267637020385"><ele>344.75</ele><time>2026-04-06T12:12:22.999Z</time></trkpt><trkpt lat="45.713048701614376" lon="8.283107841719435"><ele>345.0</ele><time>2026-04-06T12:12:23.999Z</time></trkpt><trkpt lat="45.71311185393006" lon="8.282963845137653"><ele>345.5</ele><time>2026-04-06T12:12:24.999Z</time></trkpt><trkpt lat="45.71317099569774" lon="8.282822383941204"><ele>346.0</ele><time>2026-04-06T12:12:26Z</time></trkpt><trkpt lat="45.71322890936249" lon="8.282689063758438"><ele>346.5</ele><time>2026-04-06T12:12:27Z</time></trkpt><trkpt lat="45.71328500825411" lon="8.282558348806086"><ele>347.0</ele><time>2026-04-06T12:12:28Z</time></trkpt><trkpt lat="45.71334444302904" lon="8.282411910535629"><ele>347.5</ele><time>2026-04-06T12:12:29Z</time></trkpt><trkpt lat="45.71340422927259" lon="8.282253888052209"><ele>348.0</ele><time>2026-04-06T12:12:30Z</time></trkpt><trkpt lat="45.713458438793204" lon="8.282101883194368"><ele>348.5</ele><time>2026-04-06T12:12:31Z</time></trkpt><trkpt lat="45.71351092606028" lon="8.281954758424604"><ele>349.0</ele><time>2026-04-06T12:12:32Z</time></trkpt><trkpt lat="45.71356796848466" lon="8.281809023686579"><ele>348.75</ele><time>2026-04-06T12:12:33Z</time></trkpt><trkpt lat="45.71363238135478" lon="8.281656791550114"><ele>348.5</ele><time>2026-04-06T12:12:34Z</time></trkpt><trkpt lat="45.71369644008484" lon="8.281497351462013"><ele>348.25</ele><time>2026-04-06T12:12:35Z</time></trkpt><trkpt lat="45.71375812922425" lon="8.281338224066445"><ele>348.0</ele><time>2026-04-06T12:12:36Z</time></trkpt><trkpt lat="45.7138215705912" lon="8.281186141634631"><ele>348.5</ele><time>2026-04-06T12:12:37Z</time></trkpt><trkpt lat="45.71388620190958" lon="8.281040329597825"><ele>349.0</ele><time>2026-04-06T12:12:38Z</time></trkpt><trkpt lat="45.71395168654083" lon="8.28089869324764"><ele>349.5</ele><time>2026-04-06T12:12:39Z</time></trkpt><trkpt lat="45.71401319576811" lon="8.280765109661957"><ele>350.0</ele><time>2026-04-06T12:12:40Z</time></trkpt><trkpt lat="45.71407128273169" lon="8.280635102386041"><ele>350.5</ele><time>2026-04-06T12:12:41Z</time></trkpt><trkpt lat="45.714126570042836" lon="8.280505296743224"><ele>351.0</ele><time>2026-04-06T12:12:42Z</time></trkpt><trkpt lat="45.71417983006562" lon="8.280367097541063"><ele>351.5</ele><time>2026-04-06T12:12:43Z</time></trkpt><trkpt lat="45.71423736459244" lon="8.280214941716231"><ele>352.0</ele><time>2026-04-06T12:12:44Z</time></trkpt><trkpt lat="45.71429859965835" lon="8.280058164521218"><ele>352.0</ele><time>2026-04-06T12:12:45Z</time></trkpt><trkpt lat="45.71436866539346" lon="8.279905919166618"><ele>352.0</ele><time>2026-04-06T12:12:46Z</time></trkpt><trkpt lat="45.71443316876559" lon="8.279758658079432"><ele>352.0</ele><time>2026-04-06T12:12:47Z</time></trkpt><trkpt lat="45.71449751589834" lon="8.279610651269936"><ele>352.0</ele><time>2026-04-06T12:12:48Z</time></trkpt><trkpt lat="45.714565594271896" lon="8.279444934867842"><ele>353.25</ele><time>2026-04-06T12:12:49Z</time></trkpt><trkpt lat="45.71463446272605" lon="8.279271006064315"><ele>354.5</ele><time>2026-04-06T12:12:50Z</time></trkpt><trkpt lat="45.71470268662177" lon="8.279102487317878"><ele>355.75</ele><time>2026-04-06T12:12:51Z</time></trkpt><trkpt lat="45.71476266105362" lon="8.278958458165864"><ele>357.0</ele><time>2026-04-06T12:12:52Z</time></trkpt><trkpt lat="45.71481003044619" lon="8.278840349142536"><ele>357.20000000000005</ele><time>2026-04-06T12:12:53Z</time></trkpt><trkpt lat="45.71484880276506" lon="8.2787403118352"><ele>357.4</ele><time>2026-04-06T12:12:54Z</time></trkpt><trkpt lat="45.71488360251204" lon="8.278615015256216"><ele>357.6</ele><time>2026-04-06T12:12:56Z</time></trkpt><trkpt lat="45.714894603719586" lon="8.278448856242989"><ele>357.79999999999995</ele><time>2026-04-06T12:13:02Z</time></trkpt><trkpt lat="45.71480457556677" lon="8.27831681832911"><ele>358.0</ele><time>2026-04-06T12:13:05Z</time></trkpt><trkpt lat="45.7147387934661" lon="8.278378420431967"><ele>358.0</ele><time>2026-04-06T12:13:06Z</time></trkpt><trkpt lat="45.71461391693715" lon="8.278362880034877"><ele>358.0</ele><time>2026-04-06T12:13:08Z</time></trkpt><trkpt lat="45.71453911660969" lon="8.278320419512175"><ele>358.0</ele><time>2026-04-06T12:13:09Z</time></trkpt><trkpt lat="45.71446223651397" lon="8.278269648791282"><ele>358.0</ele><time>2026-04-06T12:13:10Z</time></trkpt><trkpt lat="45.714380450161535" lon="8.27820956141499"><ele>358.0</ele><time>2026-04-06T12:13:11Z</time></trkpt><trkpt lat="45.71429693961184" lon="8.278153396808754"><ele>357.0</ele><time>2026-04-06T12:13:12Z</time></trkpt><trkpt lat="45.714210062715146" lon="8.2780941016501"><ele>356.0</ele><time>2026-04-06T12:13:13Z</time></trkpt><trkpt lat="45.714122601528" lon="8.27803196877618"><ele>355.0</ele><time>2026-04-06T12:13:14Z</time></trkpt><trkpt lat="45.71403116724107" lon="8.27796991623211"><ele>354.0</ele><time>2026-04-06T12:13:15Z</time></trkpt><trkpt lat="45.713945530467285" lon="8.277912367173021"><ele>353.0</ele><time>2026-04-06T12:13:16Z</time></trkpt><trkpt lat="45.71387579396357" lon="8.27785444798471"><ele>353.0</ele><time>2026-04-06T12:13:17Z</time></trkpt><trkpt lat="45.713825579765896" lon="8.27775515193977"><ele>353.0</ele><time>2026-04-06T12:13:19Z</time></trkpt><trkpt lat="45.71380720909732" lon="8.277596051557284"><ele>353.0</ele><time>2026-04-06T12:13:21Z</time></trkpt><trkpt lat="45.71371656568828" lon="8.277606624775245"><ele>353.0</ele><time>2026-04-06T12:13:22Z</time></trkpt><trkpt lat="45.71363506811804" lon="8.277641328163543"><ele>353.0</ele><time>2026-04-06T12:13:23Z</time></trkpt><trkpt lat="45.71355565728655" lon="8.277662131327089"><ele>352.59999999999997</ele><time>2026-04-06T12:13:24Z</time></trkpt><trkpt lat="45.7134732005724" lon="8.277678807382873"><ele>352.2</ele><time>2026-04-06T12:13:25Z</time></trkpt><trkpt lat="45.713389517107075" lon="8.277690350217396"><ele>351.8</ele><time>2026-04-06T12:13:26Z</time></trkpt><trkpt lat="45.713301709358205" lon="8.277708627714688"><ele>351.4</ele><time>2026-04-06T12:13:27Z</time></trkpt><trkpt lat="45.713201857213406" lon="8.277735655026927"><ele>351.0</ele><time>2026-04-06T12:13:28Z</time></trkpt><trkpt lat="45.71309400547653" lon="8.277762947743389"><ele>351.0</ele><time>2026-04-06T12:13:29Z</time></trkpt><trkpt lat="45.71299153750812" lon="8.277789866692762"><ele>351.0</ele><time>2026-04-06T12:13:30Z</time></trkpt><trkpt lat="45.71289773558434" lon="8.277810753928245"><ele>351.0</ele><time>2026-04-06T12:13:31Z</time></trkpt><trkpt lat="45.712810948736994" lon="8.277831564235456"><ele>351.0</ele><time>2026-04-06T12:13:32Z</time></trkpt><trkpt lat="45.71271433835554" lon="8.277853044025267"><ele>351.0</ele><time>2026-04-06T12:13:33Z</time></trkpt><trkpt lat="45.7126155750732" lon="8.2778735806413"><ele>349.0</ele><time>2026-04-06T12:13:34Z</time></trkpt><trkpt lat="45.7125184903953" lon="8.277895015366092"><ele>347.0</ele><time>2026-04-06T12:13:35Z</time></trkpt><trkpt lat="45.71242216506415" lon="8.277916447298216"><ele>345.0</ele><time>2026-04-06T12:13:36Z</time></trkpt><trkpt lat="45.712327143439936" lon="8.277935352060513"><ele>343.0</ele><time>2026-04-06T12:13:37Z</time></trkpt><trkpt lat="45.71223646690838" lon="8.277957360504304"><ele>341.0</ele><time>2026-04-06T12:13:38Z</time></trkpt><trkpt lat="45.71214869186648" lon="8.277979360838348"><ele>341.0</ele><time>2026-04-06T12:13:39Z</time></trkpt><trkpt lat="45.712065889405416" lon="8.278012341698277"><ele>341.0</ele><time>2026-04-06T12:13:40Z</time></trkpt><trkpt lat="45.71199304105152" lon="8.278029668702397"><ele>341.0</ele><time>2026-04-06T12:13:41Z</time></trkpt><trkpt lat="45.71193177534449" lon="8.278078981796337"><ele>341.0</ele><time>2026-04-06T12:13:42Z</time></trkpt><trkpt lat="45.71189096658891" lon="8.278164715569739"><ele>341.0</ele><time>2026-04-06T12:13:43Z</time></trkpt><trkpt lat="45.71185620151158" lon="8.278274924308269"><ele>341.0</ele><time>2026-04-06T12:13:44Z</time></trkpt><trkpt lat="45.711817551352546" lon="8.27840104687343"><ele>343.25</ele><time>2026-04-06T12:13:45Z</time></trkpt><trkpt lat="45.71176078172273" lon="8.27853695905318"><ele>345.5</ele><time>2026-04-06T12:13:46Z</time></trkpt><trkpt lat="45.711688086358954" lon="8.278674617228576"><ele>347.75</ele><time>2026-04-06T12:13:47Z</time></trkpt><trkpt lat="45.71160566400786" lon="8.27881568553371"><ele>350.0</ele><time>2026-04-06T12:13:48Z</time></trkpt><trkpt lat="45.71151041848538" lon="8.2789684536991"><ele>350.0</ele><time>2026-04-06T12:13:49Z</time></trkpt><trkpt lat="45.711410573807846" lon="8.27912342156608"><ele>350.0</ele><time>2026-04-06T12:13:50Z</time></trkpt><trkpt lat="45.711303070847144" lon="8.279274336086726"><ele>350.0</ele><time>2026-04-06T12:13:51Z</time></trkpt><trkpt lat="45.71120205184017" lon="8.27944843329262"><ele>350.0</ele><time>2026-04-06T12:13:52Z</time></trkpt><trkpt lat="45.71110609112253" lon="8.27961553548441"><ele>350.0</ele><time>2026-04-06T12:13:52.999Z</time></trkpt><trkpt lat="45.71102047290347" lon="8.279778067668799"><ele>350.0</ele><time>2026-04-06T12:13:53.999Z</time></trkpt><trkpt lat="45.71092498138276" lon="8.279923205822257"><ele>350.0</ele><time>2026-04-06T12:13:54.999Z</time></trkpt><trkpt lat="45.71083204544311" lon="8.280061328912813"><ele>350.0</ele><time>2026-04-06T12:13:55.999Z</time></trkpt><trkpt lat="45.710749185322186" lon="8.280207842416711"><ele>350.0</ele><time>2026-04-06T12:13:56.999Z</time></trkpt><trkpt lat="45.71066849050946" lon="8.280345182114333"><ele>350.0</ele><time>2026-04-06T12:13:57.999Z</time></trkpt><trkpt lat="45.71058758699925" lon="8.280482098938716"><ele>350.0</ele><time>2026-04-06T12:13:58.999Z</time></trkpt><trkpt lat="45.71049823430823" lon="8.280626966401472"><ele>350.25</ele><time>2026-04-06T12:13:59.999Z</time></trkpt><trkpt lat="45.71040628055365" lon="8.280777266009517"><ele>350.5</ele><time>2026-04-06T12:14:00.999Z</time></trkpt><trkpt lat="45.71031695371964" lon="8.280926471499614"><ele>350.75</ele><time>2026-04-06T12:14:01.999Z</time></trkpt><trkpt lat="45.71022387208417" lon="8.281072163501777"><ele>351.0</ele><time>2026-04-06T12:14:02.999Z</time></trkpt><trkpt lat="45.71013247962442" lon="8.281221587861772"><ele>351.0</ele><time>2026-04-06T12:14:03.999Z</time></trkpt><trkpt lat="45.710046917762234" lon="8.281367948137678"><ele>351.0</ele><time>2026-04-06T12:14:04.999Z</time></trkpt><trkpt lat="45.70996427611903" lon="8.281502355299802"><ele>351.0</ele><time>2026-04-06T12:14:05.999Z</time></trkpt><trkpt lat="45.70988480020418" lon="8.281627432287122"><ele>351.0</ele><time>2026-04-06T12:14:06.999Z</time></trkpt><trkpt lat="45.709808876347154" lon="8.281755911249133"><ele>350.75</ele><time>2026-04-06T12:14:07.999Z</time></trkpt><trkpt lat="45.70972423429777" lon="8.28189928834874"><ele>350.5</ele><time>2026-04-06T12:14:08.999Z</time></trkpt><trkpt lat="45.70963016684362" lon="8.282050734767111"><ele>350.25</ele><time>2026-04-06T12:14:09.999Z</time></trkpt><trkpt lat="45.70953488703892" lon="8.282208603160164"><ele>350.0</ele><time>2026-04-06T12:14:10.999Z</time></trkpt><trkpt lat="45.709441898530045" lon="8.282360017752117"><ele>349.25</ele><time>2026-04-06T12:14:11.999Z</time></trkpt><trkpt lat="45.709351455164565" lon="8.282507718714417"><ele>348.5</ele><time>2026-04-06T12:14:12.999Z</time></trkpt><trkpt lat="45.70926434731288" lon="8.282650422527087"><ele>347.75</ele><time>2026-04-06T12:14:13.999Z</time></trkpt><trkpt lat="45.70917998682842" lon="8.282786952489225"><ele>347.0</ele><time>2026-04-06T12:14:14.999Z</time></trkpt><trkpt lat="45.70909766790587" lon="8.282917892299883"><ele>347.0</ele><time>2026-04-06T12:14:15.999Z</time></trkpt><trkpt lat="45.70902280700881" lon="8.283033761749916"><ele>347.0</ele><time>2026-04-06T12:14:16.999Z</time></trkpt><trkpt lat="45.70895270786076" lon="8.283131819375892"><ele>347.0</ele><time>2026-04-06T12:14:17.999Z</time></trkpt><trkpt lat="45.708873375672596" lon="8.283206244762637"><ele>347.0</ele><time>2026-04-06T12:14:18.999Z</time></trkpt><trkpt lat="45.70879279245278" lon="8.283287821813785"><ele>347.0</ele><time>2026-04-06T12:14:19.999Z</time></trkpt><trkpt lat="45.70875524456969" lon="8.283415960498557"><ele>347.0</ele><time>2026-04-06T12:14:20.999Z</time></trkpt><trkpt lat="45.7087076115466" lon="8.283543718355618"><ele>347.0</ele><time>2026-04-06T12:14:21.999Z</time></trkpt><trkpt lat="45.708635328620836" lon="8.283661727302125"><ele>347.0</ele><time>2026-04-06T12:14:22.999Z</time></trkpt><trkpt lat="45.70855529177116" lon="8.28378682978572"><ele>347.0</ele><time>2026-04-06T12:14:23.999Z</time></trkpt><trkpt lat="45.708467512437544" lon="8.283926793974397"><ele>347.0</ele><time>2026-04-06T12:14:24.999Z</time></trkpt><trkpt lat="45.70837626029234" lon="8.284075565164358"><ele>347.0</ele><time>2026-04-06T12:14:25.999Z</time></trkpt><trkpt lat="45.708280432956286" lon="8.284231306804669"><ele>347.0</ele><time>2026-04-06T12:14:26.999Z</time></trkpt><trkpt lat="45.70818294794969" lon="8.28438928097977"><ele>347.0</ele><time>2026-04-06T12:14:27.999Z</time></trkpt><trkpt lat="45.70808039685307" lon="8.284555526536536"><ele>347.0</ele><time>2026-04-06T12:14:28.999Z</time></trkpt><trkpt lat="45.70797875385224" lon="8.284726534615451"><ele>347.0</ele><time>2026-04-06T12:14:29.999Z</time></trkpt><trkpt lat="45.70788040050799" lon="8.284892052290227"><ele>347.0</ele><time>2026-04-06T12:14:30.999Z</time></trkpt><trkpt lat="45.70778284961224" lon="8.285058886055486"><ele>347.33333333333337</ele><time>2026-04-06T12:14:32Z</time></trkpt><trkpt lat="45.70768139392976" lon="8.285224065640953"><ele>347.6666666666667</ele><time>2026-04-06T12:14:33Z</time></trkpt><trkpt lat="45.70757937698151" lon="8.285396949537336"><ele>348.0</ele><time>2026-04-06T12:14:34Z</time></trkpt><trkpt lat="45.70747958464318" lon="8.285564275715043"><ele>347.0</ele><time>2026-04-06T12:14:35Z</time></trkpt><trkpt lat="45.70737910995641" lon="8.285729740363992"><ele>346.0</ele><time>2026-04-06T12:14:36Z</time></trkpt><trkpt lat="45.70727290702441" lon="8.285898418374847"><ele>345.0</ele><time>2026-04-06T12:14:37Z</time></trkpt><trkpt lat="45.7071620570174" lon="8.28606926445717"><ele>345.0</ele><time>2026-04-06T12:14:38Z</time></trkpt><trkpt lat="45.70705168518195" lon="8.286244968599112"><ele>345.0</ele><time>2026-04-06T12:14:39Z</time></trkpt><trkpt lat="45.70694063722378" lon="8.286424579566773"><ele>345.0</ele><time>2026-04-06T12:14:40Z</time></trkpt><trkpt lat="45.70682938878674" lon="8.286602072690489"><ele>345.0</ele><time>2026-04-06T12:14:41Z</time></trkpt><trkpt lat="45.70672340286948" lon="8.286777835573988"><ele>345.0</ele><time>2026-04-06T12:14:42Z</time></trkpt><trkpt lat="45.70662011838514" lon="8.286946181369968"><ele>345.0</ele><time>2026-04-06T12:14:43Z</time></trkpt><trkpt lat="45.706514611149885" lon="8.287120371700494"><ele>343.6666666666667</ele><time>2026-04-06T12:14:44Z</time></trkpt><trkpt lat="45.70641506598975" lon="8.287289175107473"><ele>342.33333333333337</ele><time>2026-04-06T12:14:45Z</time></trkpt><trkpt lat="45.70631772847095" lon="8.287448913820798"><ele>341.0</ele><time>2026-04-06T12:14:46Z</time></trkpt><trkpt lat="45.70620609499488" lon="8.287590229624064"><ele>342.33333333333337</ele><time>2026-04-06T12:14:47Z</time></trkpt><trkpt lat="45.70607743380125" lon="8.287705767559771"><ele>343.6666666666667</ele><time>2026-04-06T12:14:48Z</time></trkpt><trkpt lat="45.705933291278654" lon="8.287797473341307"><ele>345.0</ele><time>2026-04-06T12:14:49Z</time></trkpt><trkpt lat="45.70578230100664" lon="8.287861412858458"><ele>345.0</ele><time>2026-04-06T12:14:50Z</time></trkpt><trkpt lat="45.70562611605687" lon="8.287904617223154"><ele>345.0</ele><time>2026-04-06T12:14:51Z</time></trkpt><trkpt lat="45.705466243386965" lon="8.287937887118574"><ele>345.0</ele><time>2026-04-06T12:14:52Z</time></trkpt><trkpt lat="45.70530621909103" lon="8.287973338087339"><ele>348.5</ele><time>2026-04-06T12:14:53Z</time></trkpt><trkpt lat="45.70515273360213" lon="8.28800864795529"><ele>352.0</ele><time>2026-04-06T12:14:54Z</time></trkpt><trkpt lat="45.70501607361414" lon="8.288036954501376"><ele>355.5</ele><time>2026-04-06T12:14:55Z</time></trkpt><trkpt lat="45.70489418348384" lon="8.288058176622707"><ele>359.0</ele><time>2026-04-06T12:14:56Z</time></trkpt><trkpt lat="45.70479496827749" lon="8.288062040093813"><ele>359.0</ele><time>2026-04-06T12:14:57Z</time></trkpt><trkpt lat="45.70472191703268" lon="8.288031195168065"><ele>359.0</ele><time>2026-04-06T12:14:58Z</time></trkpt><trkpt lat="45.704668168127654" lon="8.287948535410932"><ele>359.0</ele><time>2026-04-06T12:14:59Z</time></trkpt><trkpt lat="45.70463175234719" lon="8.287841570439953"><ele>359.0</ele><time>2026-04-06T12:15:00Z</time></trkpt><trkpt lat="45.704590686171684" lon="8.287738080809138"><ele>359.0</ele><time>2026-04-06T12:15:01Z</time></trkpt><trkpt lat="45.70452630995871" lon="8.287670021726132"><ele>359.0</ele><time>2026-04-06T12:15:02Z</time></trkpt><trkpt lat="45.70445283690231" lon="8.287643767018631"><ele>360.83333333333337</ele><time>2026-04-06T12:15:03Z</time></trkpt><trkpt lat="45.70438282359527" lon="8.287659648376033"><ele>362.6666666666667</ele><time>2026-04-06T12:15:04Z</time></trkpt><trkpt lat="45.70431805008787" lon="8.28772111795053"><ele>364.5</ele><time>2026-04-06T12:15:05Z</time></trkpt><trkpt lat="45.704263314119736" lon="8.2878034604121"><ele>366.3333333333333</ele><time>2026-04-06T12:15:06Z</time></trkpt><trkpt lat="45.7042127541305" lon="8.287898801976718"><ele>368.16666666666663</ele><time>2026-04-06T12:15:07Z</time></trkpt><trkpt lat="45.70418594701706" lon="8.288009430388273"><ele>370.0</ele><time>2026-04-06T12:15:08Z</time></trkpt><trkpt lat="45.704079474132456" lon="8.28806825414364"><ele>365.6</ele><time>2026-04-06T12:15:09Z</time></trkpt><trkpt lat="45.703998640777904" lon="8.288131034690826"><ele>361.2</ele><time>2026-04-06T12:15:10Z</time></trkpt><trkpt lat="45.70389919034037" lon="8.28818680270907"><ele>356.79999999999995</ele><time>2026-04-06T12:15:11Z</time></trkpt><trkpt lat="45.70378942811935" lon="8.28824515440841"><ele>352.4</ele><time>2026-04-06T12:15:12Z</time></trkpt><trkpt lat="45.70367371503622" lon="8.288301974671826"><ele>348.0</ele><time>2026-04-06T12:15:13Z</time></trkpt><trkpt lat="45.70355946065303" lon="8.28834709416656"><ele>348.0</ele><time>2026-04-06T12:15:14Z</time></trkpt><trkpt lat="45.703436499471174" lon="8.288388490337729"><ele>348.0</ele><time>2026-04-06T12:15:15Z</time></trkpt><trkpt lat="45.703319525917905" lon="8.288417198651677"><ele>348.0</ele><time>2026-04-06T12:15:16Z</time></trkpt><trkpt lat="45.7031906738144" lon="8.288449619799183"><ele>348.0</ele><time>2026-04-06T12:15:17Z</time></trkpt><trkpt lat="45.70305920469636" lon="8.288486783036184"><ele>348.0</ele><time>2026-04-06T12:15:18Z</time></trkpt><trkpt lat="45.70292614309811" lon="8.288524953040524"><ele>348.0</ele><time>2026-04-06T12:15:19Z</time></trkpt><trkpt lat="45.70279424072501" lon="8.288555411494118"><ele>348.0</ele><time>2026-04-06T12:15:20Z</time></trkpt><trkpt lat="45.70266549968431" lon="8.288585985311679"><ele>348.0</ele><time>2026-04-06T12:15:21Z</time></trkpt><trkpt lat="45.70253875593941" lon="8.28861691259205"><ele>349.0</ele><time>2026-04-06T12:15:22Z</time></trkpt><trkpt lat="45.70241266141612" lon="8.28864623257443"><ele>350.0</ele><time>2026-04-06T12:15:23Z</time></trkpt><trkpt lat="45.70228707050509" lon="8.288674923409388"><ele>351.0</ele><time>2026-04-06T12:15:24Z</time></trkpt><trkpt lat="45.70216143988385" lon="8.288703663160799"><ele>352.0</ele><time>2026-04-06T12:15:25Z</time></trkpt><trkpt lat="45.702038842038135" lon="8.288732361764179"><ele>352.0</ele><time>2026-04-06T12:15:26Z</time></trkpt><trkpt lat="45.70192119803674" lon="8.288751713416218"><ele>352.0</ele><time>2026-04-06T12:15:27Z</time></trkpt><trkpt lat="45.70181037908738" lon="8.288761761920805"><ele>352.0</ele><time>2026-04-06T12:15:28Z</time></trkpt><trkpt lat="45.70170401284695" lon="8.28875711805598"><ele>352.0</ele><time>2026-04-06T12:15:29Z</time></trkpt><trkpt lat="45.70159732095485" lon="8.288735985919002"><ele>352.0</ele><time>2026-04-06T12:15:30Z</time></trkpt><trkpt lat="45.70149795279306" lon="8.288685639425125"><ele>351.6</ele><time>2026-04-06T12:15:31Z</time></trkpt><trkpt lat="45.70141370602623" lon="8.288597102675416"><ele>351.20000000000005</ele><time>2026-04-06T12:15:32Z</time></trkpt><trkpt lat="45.70135358554663" lon="8.288475531860982"><ele>350.8</ele><time>2026-04-06T12:15:33Z</time></trkpt><trkpt lat="45.70131541349844" lon="8.288339526804078"><ele>350.4</ele><time>2026-04-06T12:15:34Z</time></trkpt><trkpt lat="45.70129464645927" lon="8.288198352600714"><ele>350.0</ele><time>2026-04-06T12:15:35Z</time></trkpt><trkpt lat="45.70127871302054" lon="8.288063634831843"><ele>353.6666666666667</ele><time>2026-04-06T12:15:36Z</time></trkpt><trkpt lat="45.701261786712664" lon="8.287933444402006"><ele>357.33333333333337</ele><time>2026-04-06T12:15:37Z</time></trkpt><trkpt lat="45.70124447902171" lon="8.287801571965783"><ele>361.0</ele><time>2026-04-06T12:15:38Z</time></trkpt><trkpt lat="45.70122871343157" lon="8.287672591923656"><ele>364.6666666666667</ele><time>2026-04-06T12:15:39Z</time></trkpt><trkpt lat="45.701213198571395" lon="8.287553714558824"><ele>368.3333333333333</ele><time>2026-04-06T12:15:40Z</time></trkpt><trkpt lat="45.701199679653286" lon="8.287442305864957"><ele>372.0</ele><time>2026-04-06T12:15:41Z</time></trkpt><trkpt lat="45.701189894487726" lon="8.287329213347904"><ele>373.20000000000005</ele><time>2026-04-06T12:15:42Z</time></trkpt><trkpt lat="45.701175575959894" lon="8.287232857186208"><ele>374.4</ele><time>2026-04-06T12:15:43Z</time></trkpt><trkpt lat="45.701105354606085" lon="8.287118513620559"><ele>375.6</ele><time>2026-04-06T12:15:45Z</time></trkpt><trkpt lat="45.7010105356067" lon="8.287185716286158"><ele>376.79999999999995</ele><time>2026-04-06T12:15:46Z</time></trkpt><trkpt lat="45.7009325794147" lon="8.287226410425902"><ele>378.0</ele><time>2026-04-06T12:15:47Z</time></trkpt><trkpt lat="45.70083888266357" lon="8.287219271454324"><ele>368.5</ele><time>2026-04-06T12:15:48Z</time></trkpt><trkpt lat="45.70073308843622" lon="8.287202823235045"><ele>359.0</ele><time>2026-04-06T12:15:49Z</time></trkpt><trkpt lat="45.700614765056216" lon="8.287188260032131"><ele>349.5</ele><time>2026-04-06T12:15:50Z</time></trkpt><trkpt lat="45.700496041258546" lon="8.287179078387465"><ele>340.0</ele><time>2026-04-06T12:15:51Z</time></trkpt><trkpt lat="45.700363098029285" lon="8.287165242633506"><ele>339.5</ele><time>2026-04-06T12:15:52Z</time></trkpt><trkpt lat="45.70022490506592" lon="8.287144973474975"><ele>339.0</ele><time>2026-04-06T12:15:53Z</time></trkpt><trkpt lat="45.700082044995476" lon="8.287126810055774"><ele>338.5</ele><time>2026-04-06T12:15:54Z</time></trkpt><trkpt lat="45.699934279150504" lon="8.287111340957853"><ele>338.0</ele><time>2026-04-06T12:15:55Z</time></trkpt><trkpt lat="45.699777407177756" lon="8.287092151678447"><ele>338.0</ele><time>2026-04-06T12:15:55.999Z</time></trkpt><trkpt lat="45.699616349497504" lon="8.28707474812246"><ele>338.0</ele><time>2026-04-06T12:15:56.999Z</time></trkpt><trkpt lat="45.699452590406985" lon="8.2870572666369"><ele>338.0</ele><time>2026-04-06T12:15:57.999Z</time></trkpt><trkpt lat="45.699286977433175" lon="8.287043188583503"><ele>337.33333333333337</ele><time>2026-04-06T12:15:58.999Z</time></trkpt><trkpt lat="45.699120385156526" lon="8.28702409559437"><ele>336.6666666666667</ele><time>2026-04-06T12:15:59.999Z</time></trkpt><trkpt lat="45.69895663512096" lon="8.287008751811506"><ele>336.0</ele><time>2026-04-06T12:16:00.999Z</time></trkpt><trkpt lat="45.69879798427132" lon="8.2869917406601"><ele>336.0</ele><time>2026-04-06T12:16:01.999Z</time></trkpt><trkpt lat="45.6986394144401" lon="8.286974941424017"><ele>336.0</ele><time>2026-04-06T12:16:02.999Z</time></trkpt><trkpt lat="45.69848713743174" lon="8.28695833748491"><ele>336.0</ele><time>2026-04-06T12:16:03.999Z</time></trkpt><trkpt lat="45.69833299524832" lon="8.286945523188356"><ele>335.6666666666667</ele><time>2026-04-06T12:16:04.999Z</time></trkpt><trkpt lat="45.69817204367758" lon="8.286937852212874"><ele>335.33333333333337</ele><time>2026-04-06T12:16:05.999Z</time></trkpt><trkpt lat="45.69801170831143" lon="8.286923383634143"><ele>335.0</ele><time>2026-04-06T12:16:06.999Z</time></trkpt><trkpt lat="45.697858410750555" lon="8.286904192647638"><ele>336.0</ele><time>2026-04-06T12:16:07.999Z</time></trkpt><trkpt lat="45.69773709099543" lon="8.286889691958738"><ele>337.0</ele><time>2026-04-06T12:16:08.999Z</time></trkpt><trkpt lat="45.69764595017026" lon="8.286878202530872"><ele>338.0</ele><time>2026-04-06T12:16:09.999Z</time></trkpt><trkpt lat="45.69757563091548" lon="8.286868380040064"><ele>339.0</ele><time>2026-04-06T12:16:10.999Z</time></trkpt><trkpt lat="45.69748425326795" lon="8.286788307906786"><ele>340.0</ele><time>2026-04-06T12:16:12.999Z</time></trkpt><trkpt lat="45.697465655187216" lon="8.286622858169356"><ele>340.0</ele><time>2026-04-06T12:16:13.999Z</time></trkpt><trkpt lat="45.697450266091366" lon="8.2864846010995"><ele>340.0</ele><time>2026-04-06T12:16:14.999Z</time></trkpt><trkpt lat="45.69743267952574" lon="8.286320076371965"><ele>340.0</ele><time>2026-04-06T12:16:15.999Z</time></trkpt><trkpt lat="45.69741104878802" lon="8.28613617428795"><ele>340.0</ele><time>2026-04-06T12:16:16.999Z</time></trkpt><trkpt lat="45.6973859340499" lon="8.285934061924953"><ele>340.0</ele><time>2026-04-06T12:16:17.999Z</time></trkpt><trkpt lat="45.69735829466831" lon="8.285713658869698"><ele>340.0</ele><time>2026-04-06T12:16:18.999Z</time></trkpt><trkpt lat="45.69733009006827" lon="8.285486056054538"><ele>340.0</ele><time>2026-04-06T12:16:19.999Z</time></trkpt><trkpt lat="45.69730007134089" lon="8.28524305179277"><ele>340.3333333333333</ele><time>2026-04-06T12:16:20.999Z</time></trkpt><trkpt lat="45.69726833847299" lon="8.284998762534563"><ele>340.6666666666667</ele><time>2026-04-06T12:16:21.999Z</time></trkpt><trkpt lat="45.69723860586394" lon="8.284767060032964"><ele>341.0</ele><time>2026-04-06T12:16:22.999Z</time></trkpt><trkpt lat="45.697205573344924" lon="8.284514635360143"><ele>341.0</ele><time>2026-04-06T12:16:23.999Z</time></trkpt><trkpt lat="45.697170646308514" lon="8.284251621755319"><ele>341.0</ele><time>2026-04-06T12:16:24.999Z</time></trkpt><trkpt lat="45.69713351181622" lon="8.283977249797392"><ele>341.0</ele><time>2026-04-06T12:16:25.999Z</time></trkpt><trkpt lat="45.69709676285031" lon="8.28369530694671"><ele>341.0</ele><time>2026-04-06T12:16:26.999Z</time></trkpt><trkpt lat="45.69705708483237" lon="8.283399009524624"><ele>341.0</ele><time>2026-04-06T12:16:27.999Z</time></trkpt><trkpt lat="45.69701751527714" lon="8.283104004529445"><ele>341.0</ele><time>2026-04-06T12:16:28.999Z</time></trkpt><trkpt lat="45.696977684849834" lon="8.282797854356449"><ele>341.0</ele><time>2026-04-06T12:16:29.999Z</time></trkpt><trkpt lat="45.6969399601203" lon="8.28248427506101"><ele>341.0</ele><time>2026-04-06T12:16:30.999Z</time></trkpt><trkpt lat="45.69690266810248" lon="8.282166257370765"><ele>341.0</ele><time>2026-04-06T12:16:31.999Z</time></trkpt><trkpt lat="45.69686292503217" lon="8.281846622179893"><ele>342.0</ele><time>2026-04-06T12:16:32.999Z</time></trkpt><trkpt lat="45.69682289257804" lon="8.281529452480857"><ele>343.0</ele><time>2026-04-06T12:16:33.999Z</time></trkpt><trkpt lat="45.69678282379071" lon="8.28121918957649"><ele>344.0</ele><time>2026-04-06T12:16:34.999Z</time></trkpt><trkpt lat="45.69674333776771" lon="8.280916762866553"><ele>344.0</ele><time>2026-04-06T12:16:35.999Z</time></trkpt><trkpt lat="45.696705848340734" lon="8.280614800603432"><ele>344.0</ele><time>2026-04-06T12:16:37Z</time></trkpt><trkpt lat="45.69666813237059" lon="8.280311166320502"><ele>344.0</ele><time>2026-04-06T12:16:38Z</time></trkpt><trkpt lat="45.69662837741332" lon="8.28000370172916"><ele>344.6666666666667</ele><time>2026-04-06T12:16:39Z</time></trkpt><trkpt lat="45.696587895270895" lon="8.27969337419736"><ele>345.3333333333333</ele><time>2026-04-06T12:16:40Z</time></trkpt><trkpt lat="45.696547206418984" lon="8.279382450628649"><ele>346.0</ele><time>2026-04-06T12:16:41Z</time></trkpt><trkpt lat="45.69650870110944" lon="8.279070185745795"><ele>347.66666666666663</ele><time>2026-04-06T12:16:42Z</time></trkpt><trkpt lat="45.696470778467045" lon="8.27875729577352"><ele>349.3333333333333</ele><time>2026-04-06T12:16:43Z</time></trkpt><trkpt lat="45.696431150551845" lon="8.278446188375472"><ele>351.0</ele><time>2026-04-06T12:16:44Z</time></trkpt><trkpt lat="45.696391079392406" lon="8.278137039025278"><ele>350.6666666666667</ele><time>2026-04-06T12:16:45Z</time></trkpt><trkpt lat="45.696350428855936" lon="8.277823051823264"><ele>350.33333333333337</ele><time>2026-04-06T12:16:46Z</time></trkpt><trkpt lat="45.696310641228095" lon="8.27750776137858"><ele>350.0</ele><time>2026-04-06T12:16:47Z</time></trkpt><trkpt lat="45.696271137277556" lon="8.277194082329522"><ele>349.0</ele><time>2026-04-06T12:16:48Z</time></trkpt><trkpt lat="45.69623086795233" lon="8.276885058495639"><ele>348.0</ele><time>2026-04-06T12:16:49Z</time></trkpt><trkpt lat="45.69619245348264" lon="8.276579445887215"><ele>347.0</ele><time>2026-04-06T12:16:50Z</time></trkpt><trkpt lat="45.69615414266304" lon="8.276275461601188"><ele>347.0</ele><time>2026-04-06T12:16:51Z</time></trkpt><trkpt lat="45.69611474343801" lon="8.275973527278666"><ele>347.0</ele><time>2026-04-06T12:16:52Z</time></trkpt><trkpt lat="45.69607802062021" lon="8.27566974582673"><ele>347.0</ele><time>2026-04-06T12:16:53Z</time></trkpt><trkpt lat="45.69604008418401" lon="8.27536668165566"><ele>349.6666666666667</ele><time>2026-04-06T12:16:54Z</time></trkpt><trkpt lat="45.696000781954176" lon="8.275063233000058"><ele>352.3333333333333</ele><time>2026-04-06T12:16:55Z</time></trkpt><trkpt lat="45.69595926222203" lon="8.274760379641215"><ele>355.0</ele><time>2026-04-06T12:16:56Z</time></trkpt><trkpt lat="45.69591281645822" lon="8.27445750506888"><ele>355.0</ele><time>2026-04-06T12:16:57Z</time></trkpt><trkpt lat="45.695857901967116" lon="8.274156666596562"><ele>355.0</ele><time>2026-04-06T12:16:58Z</time></trkpt><trkpt lat="45.69579561802022" lon="8.273856279582128"><ele>355.0</ele><time>2026-04-06T12:16:59Z</time></trkpt><trkpt lat="45.69572946417968" lon="8.273555400521872"><ele>355.0</ele><time>2026-04-06T12:17:00Z</time></trkpt><trkpt lat="45.6956560580452" lon="8.273254255410434"><ele>355.0</ele><time>2026-04-06T12:17:01Z</time></trkpt><trkpt lat="45.69557906104089" lon="8.27295315013989"><ele>355.0</ele><time>2026-04-06T12:17:02Z</time></trkpt><trkpt lat="45.69549742836239" lon="8.272651784582623"><ele>355.0</ele><time>2026-04-06T12:17:03Z</time></trkpt><trkpt lat="45.695415937763485" lon="8.272353782539177"><ele>355.0</ele><time>2026-04-06T12:17:04Z</time></trkpt><trkpt lat="45.695330659467686" lon="8.272058504211207"><ele>355.0</ele><time>2026-04-06T12:17:05Z</time></trkpt><trkpt lat="45.69524626897195" lon="8.271761973692746"><ele>355.5</ele><time>2026-04-06T12:17:06Z</time></trkpt><trkpt lat="45.69515979139712" lon="8.271464417840368"><ele>356.0</ele><time>2026-04-06T12:17:07Z</time></trkpt><trkpt lat="45.69507244311406" lon="8.271164578334494"><ele>355.6666666666667</ele><time>2026-04-06T12:17:08Z</time></trkpt><trkpt lat="45.69498585373819" lon="8.27086601185011"><ele>355.3333333333333</ele><time>2026-04-06T12:17:09Z</time></trkpt><trkpt lat="45.69489946422947" lon="8.270570638291513"><ele>355.0</ele><time>2026-04-06T12:17:10Z</time></trkpt><trkpt lat="45.69481273068395" lon="8.270273883450432"><ele>355.0</ele><time>2026-04-06T12:17:11Z</time></trkpt><trkpt lat="45.694725297526354" lon="8.269977751436475"><ele>355.0</ele><time>2026-04-06T12:17:12Z</time></trkpt><trkpt lat="45.694634864176905" lon="8.26968688011441"><ele>355.0</ele><time>2026-04-06T12:17:13Z</time></trkpt><trkpt lat="45.69453032569834" lon="8.269406781253686"><ele>355.3333333333333</ele><time>2026-04-06T12:17:14Z</time></trkpt><trkpt lat="45.69442412752501" lon="8.269141862447835"><ele>355.6666666666667</ele><time>2026-04-06T12:17:15Z</time></trkpt><trkpt lat="45.69429525693043" lon="8.26888608439427"><ele>356.0</ele><time>2026-04-06T12:17:16Z</time></trkpt><trkpt lat="45.69415015380361" lon="8.268645341643769"><ele>356.0</ele><time>2026-04-06T12:17:17Z</time></trkpt><trkpt lat="45.69399293191891" lon="8.26841622895513"><ele>356.0</ele><time>2026-04-06T12:17:18Z</time></trkpt><trkpt lat="45.693825181676914" lon="8.268201201353333"><ele>356.0</ele><time>2026-04-06T12:17:19Z</time></trkpt><trkpt lat="45.693664073026234" lon="8.268012062540755"><ele>357.0</ele><time>2026-04-06T12:17:20Z</time></trkpt><trkpt lat="45.693512300161025" lon="8.267852725987431"><ele>358.0</ele><time>2026-04-06T12:17:21Z</time></trkpt><trkpt lat="45.69336398994816" lon="8.267718902386243"><ele>359.0</ele><time>2026-04-06T12:17:22Z</time></trkpt><trkpt lat="45.693214923576924" lon="8.267620790147967"><ele>359.0</ele><time>2026-04-06T12:17:23Z</time></trkpt><trkpt lat="45.69305818637132" lon="8.267552065528584"><ele>359.0</ele><time>2026-04-06T12:17:24Z</time></trkpt><trkpt lat="45.69288812973925" lon="8.267508536379815"><ele>359.0</ele><time>2026-04-06T12:17:25Z</time></trkpt><trkpt lat="45.69271194556175" lon="8.267498035250243"><ele>360.33333333333337</ele><time>2026-04-06T12:17:26Z</time></trkpt><trkpt lat="45.69253199515625" lon="8.267516221247472"><ele>361.6666666666667</ele><time>2026-04-06T12:17:27Z</time></trkpt><trkpt lat="45.69234756831464" lon="8.267553105982984"><ele>363.0</ele><time>2026-04-06T12:17:28Z</time></trkpt><trkpt lat="45.69216012181833" lon="8.267600323821846"><ele>363.0</ele><time>2026-04-06T12:17:29Z</time></trkpt><trkpt lat="45.69197069580569" lon="8.26764119328208"><ele>363.0</ele><time>2026-04-06T12:17:30Z</time></trkpt><trkpt lat="45.691773259723455" lon="8.267660245577748"><ele>363.0</ele><time>2026-04-06T12:17:31Z</time></trkpt><trkpt lat="45.69156958452061" lon="8.267654828007808"><ele>364.0</ele><time>2026-04-06T12:17:32Z</time></trkpt><trkpt lat="45.69135815168668" lon="8.26761742496313"><ele>365.0</ele><time>2026-04-06T12:17:33Z</time></trkpt><trkpt lat="45.69114206353618" lon="8.267561362025535"><ele>366.0</ele><time>2026-04-06T12:17:34Z</time></trkpt><trkpt lat="45.690923318606615" lon="8.267473263841945"><ele>369.0</ele><time>2026-04-06T12:17:35Z</time></trkpt><trkpt lat="45.6907078915355" lon="8.26732997467058"><ele>372.0</ele><time>2026-04-06T12:17:36Z</time></trkpt><trkpt lat="45.690498416456315" lon="8.267136669776674"><ele>369.5</ele><time>2026-04-06T12:17:37Z</time></trkpt><trkpt lat="45.690293083670724" lon="8.266920094185737"><ele>367.0</ele><time>2026-04-06T12:17:38Z</time></trkpt><trkpt lat="45.69008845231461" lon="8.266702895520625"><ele>367.0</ele><time>2026-04-06T12:17:39Z</time></trkpt><trkpt lat="45.68988416937561" lon="8.26649349456846"><ele>367.0</ele><time>2026-04-06T12:17:40Z</time></trkpt><trkpt lat="45.68968106769661" lon="8.266286970364188"><ele>366.5</ele><time>2026-04-06T12:17:41Z</time></trkpt><trkpt lat="45.689483566470074" lon="8.266081491356964"><ele>366.0</ele><time>2026-04-06T12:17:42Z</time></trkpt><trkpt lat="45.689298397511045" lon="8.265852365476661"><ele>363.0</ele><time>2026-04-06T12:17:43Z</time></trkpt><trkpt lat="45.68912521444706" lon="8.265589435582507"><ele>360.0</ele><time>2026-04-06T12:17:44Z</time></trkpt><trkpt lat="45.68896684247127" lon="8.26531148458332"><ele>360.0</ele><time>2026-04-06T12:17:45Z</time></trkpt><trkpt lat="45.68883270378783" lon="8.265019254701743"><ele>360.0</ele><time>2026-04-06T12:17:46Z</time></trkpt><trkpt lat="45.6887193697791" lon="8.26471863257586"><ele>359.0</ele><time>2026-04-06T12:17:47Z</time></trkpt><trkpt lat="45.688618147838575" lon="8.264409929669695"><ele>358.0</ele><time>2026-04-06T12:17:48Z</time></trkpt><trkpt lat="45.68852872053044" lon="8.264090108029183"><ele>366.0</ele><time>2026-04-06T12:17:49Z</time></trkpt><trkpt lat="45.68845115248766" lon="8.263756759998829"><ele>374.0</ele><time>2026-04-06T12:17:50Z</time></trkpt><trkpt lat="45.688396624333805" lon="8.263410574775916"><ele>373.5</ele><time>2026-04-06T12:17:51Z</time></trkpt><trkpt lat="45.688356438010075" lon="8.263067122077915"><ele>373.0</ele><time>2026-04-06T12:17:52Z</time></trkpt><trkpt lat="45.688332568292836" lon="8.26272701683486"><ele>373.0</ele><time>2026-04-06T12:17:53Z</time></trkpt><trkpt lat="45.68831260700346" lon="8.262385364048216"><ele>373.0</ele><time>2026-04-06T12:17:54Z</time></trkpt><trkpt lat="45.68828882873736" lon="8.262043948994807"><ele>372.5</ele><time>2026-04-06T12:17:55Z</time></trkpt><trkpt lat="45.68825008431373" lon="8.261711465280285"><ele>372.0</ele><time>2026-04-06T12:17:56Z</time></trkpt><trkpt lat="45.68819791741388" lon="8.26138875693967"><ele>368.0</ele><time>2026-04-06T12:17:57Z</time></trkpt><trkpt lat="45.68813964285921" lon="8.261072510256822"><ele>364.0</ele><time>2026-04-06T12:17:58Z</time></trkpt><trkpt lat="45.68807986545945" lon="8.260762270311176"><ele>362.66666666666663</ele><time>2026-04-06T12:17:59Z</time></trkpt><trkpt lat="45.68802138500512" lon="8.260454448431855"><ele>361.3333333333333</ele><time>2026-04-06T12:18:00Z</time></trkpt><trkpt lat="45.687960497955196" lon="8.260146492404239"><ele>360.0</ele><time>2026-04-06T12:18:01Z</time></trkpt><trkpt lat="45.68789747182535" lon="8.259843316352564"><ele>360.3333333333333</ele><time>2026-04-06T12:18:02Z</time></trkpt><trkpt lat="45.68783507460921" lon="8.259553572557794"><ele>360.66666666666663</ele><time>2026-04-06T12:18:03Z</time></trkpt><trkpt lat="45.68776153440498" lon="8.25926320446831"><ele>361.0</ele><time>2026-04-06T12:18:04Z</time></trkpt><trkpt lat="45.687665332659215" lon="8.25896737634882"><ele>367.5</ele><time>2026-04-06T12:18:05Z</time></trkpt><trkpt lat="45.68754902884885" lon="8.258677744987937"><ele>374.0</ele><time>2026-04-06T12:18:06Z</time></trkpt><trkpt lat="45.68740946683916" lon="8.258392135096711"><ele>371.5</ele><time>2026-04-06T12:18:07Z</time></trkpt><trkpt lat="45.687256766547215" lon="8.25811419792883"><ele>369.0</ele><time>2026-04-06T12:18:08Z</time></trkpt><trkpt lat="45.68710471945133" lon="8.257845857289475"><ele>369.0</ele><time>2026-04-06T12:18:09Z</time></trkpt><trkpt lat="45.68695998738364" lon="8.257585755192332"><ele>369.0</ele><time>2026-04-06T12:18:09.999Z</time></trkpt><trkpt lat="45.68681906237495" lon="8.257324880809595"><ele>372.5</ele><time>2026-04-06T12:18:10.999Z</time></trkpt><trkpt lat="45.686683246716775" lon="8.257063360559426"><ele>376.0</ele><time>2026-04-06T12:18:11.999Z</time></trkpt><trkpt lat="45.686552881322264" lon="8.256796636728037"><ele>376.0</ele><time>2026-04-06T12:18:12.999Z</time></trkpt><trkpt lat="45.68642450662207" lon="8.256523955778567"><ele>376.0</ele><time>2026-04-06T12:18:13.999Z</time></trkpt><trkpt lat="45.686287050761685" lon="8.256259732700766"><ele>372.0</ele><time>2026-04-06T12:18:14.999Z</time></trkpt><trkpt lat="45.686133915907995" lon="8.256019500119887"><ele>368.0</ele><time>2026-04-06T12:18:15.999Z</time></trkpt><trkpt lat="45.685964801434984" lon="8.255786396846478"><ele>368.5</ele><time>2026-04-06T12:18:16.999Z</time></trkpt><trkpt lat="45.68579407770979" lon="8.255544967312545"><ele>369.0</ele><time>2026-04-06T12:18:17.999Z</time></trkpt><trkpt lat="45.68563572305272" lon="8.255280525095658"><ele>369.0</ele><time>2026-04-06T12:18:18.999Z</time></trkpt><trkpt lat="45.68550633354619" lon="8.254991733105642"><ele>369.0</ele><time>2026-04-06T12:18:19.999Z</time></trkpt><trkpt lat="45.68539415811466" lon="8.254688247539997"><ele>366.5</ele><time>2026-04-06T12:18:20.999Z</time></trkpt><trkpt lat="45.68528360055047" lon="8.254392781922709"><ele>364.0</ele><time>2026-04-06T12:18:21.999Z</time></trkpt><trkpt lat="45.68516018665219" lon="8.254129561040834"><ele>366.3333333333333</ele><time>2026-04-06T12:18:22.999Z</time></trkpt><trkpt lat="45.68502803792689" lon="8.253871917019111"><ele>368.6666666666667</ele><time>2026-04-06T12:18:23.999Z</time></trkpt><trkpt lat="45.68488096308381" lon="8.253626185284727"><ele>371.0</ele><time>2026-04-06T12:18:24.999Z</time></trkpt><trkpt lat="45.68470944733577" lon="8.253409986850492"><ele>371.0</ele><time>2026-04-06T12:18:25.999Z</time></trkpt><trkpt lat="45.68452792042319" lon="8.25321313300663"><ele>371.0</ele><time>2026-04-06T12:18:26.999Z</time></trkpt><trkpt lat="45.6843311323055" lon="8.253054936193578"><ele>373.0</ele><time>2026-04-06T12:18:27.999Z</time></trkpt><trkpt lat="45.68412570839851" lon="8.252919806081024"><ele>375.0</ele><time>2026-04-06T12:18:28.999Z</time></trkpt><trkpt lat="45.6839175366794" lon="8.252788483937312"><ele>375.0</ele><time>2026-04-06T12:18:29.999Z</time></trkpt><trkpt lat="45.68371121549427" lon="8.252646863705294"><ele>375.0</ele><time>2026-04-06T12:18:30.999Z</time></trkpt><trkpt lat="45.68350936411041" lon="8.252504880216955"><ele>375.6666666666667</ele><time>2026-04-06T12:18:31.999Z</time></trkpt><trkpt lat="45.68330997699336" lon="8.252372118111756"><ele>376.33333333333337</ele><time>2026-04-06T12:18:32.999Z</time></trkpt><trkpt lat="45.68311251239835" lon="8.252238365708513"><ele>377.0</ele><time>2026-04-06T12:18:33.999Z</time></trkpt><trkpt lat="45.682915110005" lon="8.252095628628492"><ele>377.6666666666667</ele><time>2026-04-06T12:18:34.999Z</time></trkpt><trkpt lat="45.682750290698415" lon="8.251930318578868"><ele>378.3333333333333</ele><time>2026-04-06T12:18:35.999Z</time></trkpt><trkpt lat="45.68257734694075" lon="8.25171857288636"><ele>379.0</ele><time>2026-04-06T12:18:36.999Z</time></trkpt><trkpt lat="45.68242404228894" lon="8.251479117679601"><ele>377.5</ele><time>2026-04-06T12:18:37.999Z</time></trkpt><trkpt lat="45.68229058537652" lon="8.251216545969754"><ele>376.0</ele><time>2026-04-06T12:18:38.999Z</time></trkpt><trkpt lat="45.682166453220646" lon="8.250939061926614"><ele>376.0</ele><time>2026-04-06T12:18:39.999Z</time></trkpt><trkpt lat="45.68205322884046" lon="8.250653482310952"><ele>376.0</ele><time>2026-04-06T12:18:40.999Z</time></trkpt><trkpt lat="45.68194851117432" lon="8.250385988275493"><ele>376.0</ele><time>2026-04-06T12:18:41.999Z</time></trkpt><trkpt lat="45.68184646740463" lon="8.25012549769699"><ele>376.66666666666663</ele><time>2026-04-06T12:18:43Z</time></trkpt><trkpt lat="45.68175053424059" lon="8.24987936514111"><ele>377.3333333333333</ele><time>2026-04-06T12:18:44Z</time></trkpt><trkpt lat="45.68166838693002" lon="8.249656624566185"><ele>378.0</ele><time>2026-04-06T12:18:45Z</time></trkpt><trkpt lat="45.68159758749025" lon="8.249467679738078"><ele>378.0</ele><time>2026-04-06T12:18:46Z</time></trkpt><trkpt lat="45.68153466063486" lon="8.249306751026447"><ele>378.0</ele><time>2026-04-06T12:18:47Z</time></trkpt><trkpt lat="45.68147892474923" lon="8.24918389930033"><ele>378.0</ele><time>2026-04-06T12:18:48Z</time></trkpt><trkpt lat="45.68142552359186" lon="8.249078848113028"><ele>378.0</ele><time>2026-04-06T12:18:49Z</time></trkpt><trkpt lat="45.68138443955327" lon="8.248997214254736"><ele>378.0</ele><time>2026-04-06T12:18:50Z</time></trkpt><trkpt lat="45.68132078584105" lon="8.248822153913132"><ele>377.79999999999995</ele><time>2026-04-06T12:18:52Z</time></trkpt><trkpt lat="45.681278532513346" lon="8.248691137020266"><ele>377.6</ele><time>2026-04-06T12:18:53Z</time></trkpt><trkpt lat="45.68126561448337" lon="8.248559910971546"><ele>377.4</ele><time>2026-04-06T12:18:54Z</time></trkpt><trkpt lat="45.6812845342486" lon="8.248425646566158"><ele>377.20000000000005</ele><time>2026-04-06T12:18:55Z</time></trkpt><trkpt lat="45.68130432001883" lon="8.248289205221512"><ele>377.0</ele><time>2026-04-06T12:18:56Z</time></trkpt><trkpt lat="45.681310767726394" lon="8.248181379147109"><ele>376.8</ele><time>2026-04-06T12:18:57Z</time></trkpt><trkpt lat="45.681213739809714" lon="8.248122642479874"><ele>376.6</ele><time>2026-04-06T12:18:58Z</time></trkpt><trkpt lat="45.681116955905544" lon="8.248109314811915"><ele>376.40000000000003</ele><time>2026-04-06T12:18:59Z</time></trkpt><trkpt lat="45.6810333668777" lon="8.247983398734672"><ele>376.20000000000005</ele><time>2026-04-06T12:19:00Z</time></trkpt><trkpt lat="45.68096875683188" lon="8.247854098471445"><ele>376.0</ele><time>2026-04-06T12:19:01Z</time></trkpt><trkpt lat="45.68090517658275" lon="8.24769398238273"><ele>376.0</ele><time>2026-04-06T12:19:02Z</time></trkpt><trkpt lat="45.680837504140385" lon="8.247519255659292"><ele>376.0</ele><time>2026-04-06T12:19:03Z</time></trkpt><trkpt lat="45.68076567117667" lon="8.247328787176569"><ele>376.0</ele><time>2026-04-06T12:19:04Z</time></trkpt><trkpt lat="45.68068811430299" lon="8.247121059695646"><ele>376.0</ele><time>2026-04-06T12:19:05Z</time></trkpt><trkpt lat="45.680601942545586" lon="8.246893368947784"><ele>376.0</ele><time>2026-04-06T12:19:06Z</time></trkpt><trkpt lat="45.680511887936305" lon="8.246660025076796"><ele>376.0</ele><time>2026-04-06T12:19:07Z</time></trkpt><trkpt lat="45.680413879429366" lon="8.246424389423423"><ele>376.0</ele><time>2026-04-06T12:19:08Z</time></trkpt><trkpt lat="45.680303752624454" lon="8.24618427550513"><ele>376.0</ele><time>2026-04-06T12:19:09Z</time></trkpt><trkpt lat="45.68017902230084" lon="8.245940897755311"><ele>376.0</ele><time>2026-04-06T12:19:10Z</time></trkpt><trkpt lat="45.68003902152668" lon="8.245695585770427"><ele>377.66666666666663</ele><time>2026-04-06T12:19:11Z</time></trkpt><trkpt lat="45.679895713877805" lon="8.245464138321301"><ele>379.3333333333333</ele><time>2026-04-06T12:19:12Z</time></trkpt><trkpt lat="45.67974580425899" lon="8.245234329194764"><ele>381.0</ele><time>2026-04-06T12:19:13Z</time></trkpt><trkpt lat="45.679590741247445" lon="8.245003828978335"><ele>383.5</ele><time>2026-04-06T12:19:14Z</time></trkpt><trkpt lat="45.67943091333809" lon="8.24477251136489"><ele>386.0</ele><time>2026-04-06T12:19:15Z</time></trkpt><trkpt lat="45.679267623017" lon="8.244543679989658"><ele>386.0</ele><time>2026-04-06T12:19:16Z</time></trkpt><trkpt lat="45.67910792030441" lon="8.24432242890896"><ele>386.0</ele><time>2026-04-06T12:19:17Z</time></trkpt><trkpt lat="45.6789456523446" lon="8.244097849585007"><ele>386.0</ele><time>2026-04-06T12:19:18Z</time></trkpt><trkpt lat="45.67878369863392" lon="8.243873952876447"><ele>385.5</ele><time>2026-04-06T12:19:19Z</time></trkpt><trkpt lat="45.67862104068424" lon="8.24365185428395"><ele>385.0</ele><time>2026-04-06T12:19:20Z</time></trkpt><trkpt lat="45.678457665893255" lon="8.243429921521395"><ele>385.0</ele><time>2026-04-06T12:19:21Z</time></trkpt><trkpt lat="45.67829515399146" lon="8.243209047527763"><ele>385.0</ele><time>2026-04-06T12:19:22Z</time></trkpt><trkpt lat="45.67813006202397" lon="8.242992406311645"><ele>385.0</ele><time>2026-04-06T12:19:23Z</time></trkpt><trkpt lat="45.677964537269915" lon="8.242772055660781"><ele>384.6666666666667</ele><time>2026-04-06T12:19:24Z</time></trkpt><trkpt lat="45.677803668324785" lon="8.242551186591976"><ele>384.33333333333337</ele><time>2026-04-06T12:19:25Z</time></trkpt><trkpt lat="45.6776465087108" lon="8.2423313150778"><ele>384.0</ele><time>2026-04-06T12:19:26Z</time></trkpt><trkpt lat="45.67748960543191" lon="8.242116451439395"><ele>385.0</ele><time>2026-04-06T12:19:27Z</time></trkpt><trkpt lat="45.67732876715368" lon="8.241900776668155"><ele>386.0</ele><time>2026-04-06T12:19:28Z</time></trkpt><trkpt lat="45.67716562831067" lon="8.241684777764862"><ele>387.0</ele><time>2026-04-06T12:19:29Z</time></trkpt><trkpt lat="45.677003649846846" lon="8.241456345829278"><ele>391.0</ele><time>2026-04-06T12:19:30Z</time></trkpt><trkpt lat="45.67685026037311" lon="8.241214136185688"><ele>395.0</ele><time>2026-04-06T12:19:31Z</time></trkpt><trkpt lat="45.67671362391772" lon="8.24095040992339"><ele>395.0</ele><time>2026-04-06T12:19:32Z</time></trkpt><trkpt lat="45.676590649115404" lon="8.240669934515562"><ele>395.0</ele><time>2026-04-06T12:19:33Z</time></trkpt><trkpt lat="45.67648503935548" lon="8.240385526291984"><ele>394.0</ele><time>2026-04-06T12:19:34Z</time></trkpt><trkpt lat="45.67639304594814" lon="8.240089704024216"><ele>393.0</ele><time>2026-04-06T12:19:35Z</time></trkpt><trkpt lat="45.67631977390949" lon="8.239781025334544"><ele>392.5</ele><time>2026-04-06T12:19:36Z</time></trkpt><trkpt lat="45.676263011212924" lon="8.239466422533305"><ele>392.0</ele><time>2026-04-06T12:19:37Z</time></trkpt><trkpt lat="45.676225930846336" lon="8.239143420125483"><ele>392.5</ele><time>2026-04-06T12:19:38Z</time></trkpt><trkpt lat="45.676204183586485" lon="8.238818779650147"><ele>393.0</ele><time>2026-04-06T12:19:39Z</time></trkpt><trkpt lat="45.67620281737075" lon="8.238489314769806"><ele>393.0</ele><time>2026-04-06T12:19:40Z</time></trkpt><trkpt lat="45.67621570239669" lon="8.238163808804082"><ele>393.0</ele><time>2026-04-06T12:19:41Z</time></trkpt><trkpt lat="45.67623037627811" lon="8.237841205486614"><ele>393.0</ele><time>2026-04-06T12:19:42Z</time></trkpt><trkpt lat="45.676247825505854" lon="8.237516922650961"><ele>393.0</ele><time>2026-04-06T12:19:43Z</time></trkpt><trkpt lat="45.67626953515909" lon="8.237195497184139"><ele>393.0</ele><time>2026-04-06T12:19:44Z</time></trkpt><trkpt lat="45.67629860792652" lon="8.236876051515086"><ele>393.0</ele><time>2026-04-06T12:19:45Z</time></trkpt><trkpt lat="45.676332941516904" lon="8.236555363633471"><ele>393.0</ele><time>2026-04-06T12:19:46Z</time></trkpt><trkpt lat="45.67636334619205" lon="8.236232970968683"><ele>393.0</ele><time>2026-04-06T12:19:47Z</time></trkpt><trkpt lat="45.676382534689864" lon="8.235924566826215"><ele>393.0</ele><time>2026-04-06T12:19:48Z</time></trkpt><trkpt lat="45.67637892081791" lon="8.235625167791895"><ele>392.0</ele><time>2026-04-06T12:19:49Z</time></trkpt><trkpt lat="45.676351406323704" lon="8.235333535374146"><ele>391.0</ele><time>2026-04-06T12:19:50Z</time></trkpt><trkpt lat="45.67629640597429" lon="8.235040016935937"><ele>390.0</ele><time>2026-04-06T12:19:51Z</time></trkpt><trkpt lat="45.67621333863271" lon="8.234753235445677"><ele>389.66666666666663</ele><time>2026-04-06T12:19:52Z</time></trkpt><trkpt lat="45.676107832788226" lon="8.234473110669631"><ele>389.3333333333333</ele><time>2026-04-06T12:19:53Z</time></trkpt><trkpt lat="45.675983132843484" lon="8.23420625783039"><ele>389.0</ele><time>2026-04-06T12:19:54Z</time></trkpt><trkpt lat="45.67583014566054" lon="8.23396329903695"><ele>391.0</ele><time>2026-04-06T12:19:55Z</time></trkpt><trkpt lat="45.67566477838184" lon="8.233736660169342"><ele>393.0</ele><time>2026-04-06T12:19:56Z</time></trkpt><trkpt lat="45.675494900565916" lon="8.23351241120595"><ele>393.0</ele><time>2026-04-06T12:19:57Z</time></trkpt><trkpt lat="45.675324392317975" lon="8.233290889898129"><ele>393.0</ele><time>2026-04-06T12:19:58Z</time></trkpt><trkpt lat="45.675161989288725" lon="8.233068685696573"><ele>394.5</ele><time>2026-04-06T12:19:59Z</time></trkpt><trkpt lat="45.674999488388835" lon="8.232842536336571"><ele>396.0</ele><time>2026-04-06T12:20:00Z</time></trkpt><trkpt lat="45.67483411458283" lon="8.232614357011567"><ele>396.0</ele><time>2026-04-06T12:20:01Z</time></trkpt><trkpt lat="45.67467014362651" lon="8.23237876703986"><ele>396.0</ele><time>2026-04-06T12:20:02Z</time></trkpt><trkpt lat="45.674517604055595" lon="8.232130561819169"><ele>399.0</ele><time>2026-04-06T12:20:03Z</time></trkpt><trkpt lat="45.674378101236265" lon="8.231866126264174"><ele>402.0</ele><time>2026-04-06T12:20:04Z</time></trkpt><trkpt lat="45.67425575081779" lon="8.231589375977379"><ele>401.66666666666663</ele><time>2026-04-06T12:20:05Z</time></trkpt><trkpt lat="45.67414832301841" lon="8.231303411345845"><ele>401.3333333333333</ele><time>2026-04-06T12:20:05.999Z</time></trkpt><trkpt lat="45.67406091693095" lon="8.231018192375206"><ele>401.0</ele><time>2026-04-06T12:20:06.999Z</time></trkpt><trkpt lat="45.673990324611275" lon="8.230720883901501"><ele>401.0</ele><time>2026-04-06T12:20:07.999Z</time></trkpt><trkpt lat="45.67393369371996" lon="8.230408856440468"><ele>401.0</ele><time>2026-04-06T12:20:08.999Z</time></trkpt><trkpt lat="45.673842540970504" lon="8.230118870089637"><ele>401.0</ele><time>2026-04-06T12:20:09.999Z</time></trkpt><trkpt lat="45.67386791010368" lon="8.229762361315315"><ele>401.0</ele><time>2026-04-06T12:20:10.999Z</time></trkpt><trkpt lat="45.67386890628007" lon="8.229435767311994"><ele>401.0</ele><time>2026-04-06T12:20:11.999Z</time></trkpt><trkpt lat="45.67388967124111" lon="8.22911397501841"><ele>401.66666666666663</ele><time>2026-04-06T12:20:12.999Z</time></trkpt><trkpt lat="45.67392180497775" lon="8.228807942640854"><ele>402.33333333333337</ele><time>2026-04-06T12:20:13.999Z</time></trkpt><trkpt lat="45.673958930878605" lon="8.228522858832086"><ele>403.0</ele><time>2026-04-06T12:20:14.999Z</time></trkpt><trkpt lat="45.674000051343775" lon="8.228242150780092"><ele>405.0</ele><time>2026-04-06T12:20:15.999Z</time></trkpt><trkpt lat="45.67404603338052" lon="8.227973316089829"><ele>407.0</ele><time>2026-04-06T12:20:16.999Z</time></trkpt><trkpt lat="45.674095764805564" lon="8.227703627614831"><ele>409.0</ele><time>2026-04-06T12:20:17.999Z</time></trkpt><trkpt lat="45.67414520799575" lon="8.227426657523027"><ele>411.33333333333337</ele><time>2026-04-06T12:20:18.999Z</time></trkpt><trkpt lat="45.67419191296784" lon="8.227143415215332"><ele>413.66666666666663</ele><time>2026-04-06T12:20:19.999Z</time></trkpt><trkpt lat="45.67423784576495" lon="8.226853844268364"><ele>416.0</ele><time>2026-04-06T12:20:20.999Z</time></trkpt><trkpt lat="45.67428450463318" lon="8.226556040069195"><ele>417.3333333333333</ele><time>2026-04-06T12:20:21.999Z</time></trkpt><trkpt lat="45.67432381803742" lon="8.226247550935739"><ele>418.66666666666663</ele><time>2026-04-06T12:20:22.999Z</time></trkpt><trkpt lat="45.6743463135727" lon="8.225930299572559"><ele>420.0</ele><time>2026-04-06T12:20:23.999Z</time></trkpt><trkpt lat="45.67434691542514" lon="8.22562129146496"><ele>420.0</ele><time>2026-04-06T12:20:24.999Z</time></trkpt><trkpt lat="45.67432121913655" lon="8.225319020543814"><ele>420.0</ele><time>2026-04-06T12:20:25.999Z</time></trkpt><trkpt lat="45.67427793563983" lon="8.225012837570107"><ele>420.0</ele><time>2026-04-06T12:20:26.999Z</time></trkpt><trkpt lat="45.67421547258745" lon="8.22471133810721"><ele>413.0</ele><time>2026-04-06T12:20:27.999Z</time></trkpt><trkpt lat="45.674130572196766" lon="8.224414400341276"><ele>406.0</ele><time>2026-04-06T12:20:28.999Z</time></trkpt><trkpt lat="45.67402428425752" lon="8.224125253080798"><ele>404.0</ele><time>2026-04-06T12:20:29.999Z</time></trkpt><trkpt lat="45.67390119132838" lon="8.22384498991236"><ele>402.0</ele><time>2026-04-06T12:20:30.999Z</time></trkpt><trkpt lat="45.67376936962707" lon="8.223578229335832"><ele>402.0</ele><time>2026-04-06T12:20:31.999Z</time></trkpt><trkpt lat="45.67363951785431" lon="8.22332840687665"><ele>402.0</ele><time>2026-04-06T12:20:32.999Z</time></trkpt><trkpt lat="45.673516464543724" lon="8.223089637765957"><ele>402.0</ele><time>2026-04-06T12:20:33.999Z</time></trkpt><trkpt lat="45.67340028531112" lon="8.22286324639508"><ele>404.66666666666663</ele><time>2026-04-06T12:20:34.999Z</time></trkpt><trkpt lat="45.673293371752386" lon="8.222651078065336"><ele>407.3333333333333</ele><time>2026-04-06T12:20:35.999Z</time></trkpt><trkpt lat="45.6731903828409" lon="8.222452865020253"><ele>410.0</ele><time>2026-04-06T12:20:36.999Z</time></trkpt><trkpt lat="45.67309890768649" lon="8.222279206739254"><ele>410.0</ele><time>2026-04-06T12:20:37.999Z</time></trkpt><trkpt lat="45.67302085783472" lon="8.222127529962012"><ele>410.0</ele><time>2026-04-06T12:20:38.999Z</time></trkpt><trkpt lat="45.67295900295745" lon="8.221992943310127"><ele>410.0</ele><time>2026-04-06T12:20:39.999Z</time></trkpt><trkpt lat="45.67291960360712" lon="8.221867006146107"><ele>410.0</ele><time>2026-04-06T12:20:40.999Z</time></trkpt><trkpt lat="45.672902701588214" lon="8.221742535644358"><ele>410.0</ele><time>2026-04-06T12:20:41.999Z</time></trkpt><trkpt lat="45.67290166224165" lon="8.22163965586401"><ele>410.0</ele><time>2026-04-06T12:20:42.999Z</time></trkpt><trkpt lat="45.67289856149282" lon="8.22151755579712"><ele>410.0</ele><time>2026-04-06T12:20:44.999Z</time></trkpt><trkpt lat="45.67283759412914" lon="8.22137433698042"><ele>410.0</ele><time>2026-04-06T12:20:46.999Z</time></trkpt><trkpt lat="45.672771378686676" lon="8.221302090209033"><ele>410.0</ele><time>2026-04-06T12:20:47.999Z</time></trkpt><trkpt lat="45.672684764580296" lon="8.22121993142963"><ele>410.0</ele><time>2026-04-06T12:20:49Z</time></trkpt><trkpt lat="45.672593911237044" lon="8.221130236751575"><ele>410.5</ele><time>2026-04-06T12:20:50Z</time></trkpt><trkpt lat="45.67249276762494" lon="8.221021971334094"><ele>411.0</ele><time>2026-04-06T12:20:51Z</time></trkpt><trkpt lat="45.67240320589239" lon="8.220888846480713"><ele>411.5</ele><time>2026-04-06T12:20:52Z</time></trkpt><trkpt lat="45.672349613384576" lon="8.220734474411467"><ele>412.0</ele><time>2026-04-06T12:20:53Z</time></trkpt><trkpt lat="45.67232537412763" lon="8.220549670057878"><ele>412.0</ele><time>2026-04-06T12:20:54Z</time></trkpt><trkpt lat="45.672327441736066" lon="8.220339616162587"><ele>412.0</ele><time>2026-04-06T12:20:55Z</time></trkpt><trkpt lat="45.67233296672497" lon="8.220115608914043"><ele>412.0</ele><time>2026-04-06T12:20:56Z</time></trkpt><trkpt lat="45.6723364833716" lon="8.219894268489105"><ele>412.0</ele><time>2026-04-06T12:20:57Z</time></trkpt><trkpt lat="45.672341594621805" lon="8.219662812337727"><ele>412.0</ele><time>2026-04-06T12:20:58Z</time></trkpt><trkpt lat="45.67234894688217" lon="8.219425182678483"><ele>412.0</ele><time>2026-04-06T12:20:59Z</time></trkpt><trkpt lat="45.67234954746724" lon="8.219190125963602"><ele>414.0</ele><time>2026-04-06T12:21:00Z</time></trkpt><trkpt lat="45.67235624667956" lon="8.218949332854006"><ele>416.0</ele><time>2026-04-06T12:21:01Z</time></trkpt><trkpt lat="45.67237296147312" lon="8.218695899278545"><ele>418.0</ele><time>2026-04-06T12:21:02Z</time></trkpt><trkpt lat="45.67240198514368" lon="8.21842805565391"><ele>418.6666666666667</ele><time>2026-04-06T12:21:03Z</time></trkpt><trkpt lat="45.672441081521235" lon="8.218147475459801"><ele>419.33333333333337</ele><time>2026-04-06T12:21:04Z</time></trkpt><trkpt lat="45.67248741857361" lon="8.217862340151806"><ele>420.0</ele><time>2026-04-06T12:21:05Z</time></trkpt><trkpt lat="45.67253514798141" lon="8.217567877449095"><ele>421.66666666666663</ele><time>2026-04-06T12:21:06Z</time></trkpt><trkpt lat="45.6725822337288" lon="8.217262099682872"><ele>423.3333333333333</ele><time>2026-04-06T12:21:07Z</time></trkpt><trkpt lat="45.672633524240105" lon="8.216953590312308"><ele>425.0</ele><time>2026-04-06T12:21:08Z</time></trkpt><trkpt lat="45.672673688520476" lon="8.216671772141678"><ele>422.66666666666663</ele><time>2026-04-06T12:21:09Z</time></trkpt><trkpt lat="45.672696901095065" lon="8.21641474049803"><ele>420.33333333333337</ele><time>2026-04-06T12:21:10Z</time></trkpt><trkpt lat="45.67270084483095" lon="8.21617568968371"><ele>418.0</ele><time>2026-04-06T12:21:11Z</time></trkpt><trkpt lat="45.67266939742311" lon="8.215955633092095"><ele>418.0</ele><time>2026-04-06T12:21:12Z</time></trkpt><trkpt lat="45.67261831544123" lon="8.21573108045149"><ele>418.0</ele><time>2026-04-06T12:21:13Z</time></trkpt><trkpt lat="45.67255546885946" lon="8.215508814296184"><ele>418.0</ele><time>2026-04-06T12:21:14Z</time></trkpt><trkpt lat="45.67248198822681" lon="8.215295021330084"><ele>417.0</ele><time>2026-04-06T12:21:15Z</time></trkpt><trkpt lat="45.67239702297067" lon="8.215104213058456"><ele>416.0</ele><time>2026-04-06T12:21:16Z</time></trkpt><trkpt lat="45.67230686862622" lon="8.21492941103387"><ele>415.0</ele><time>2026-04-06T12:21:17Z</time></trkpt><trkpt lat="45.672219669557066" lon="8.2147721923245"><ele>415.4</ele><time>2026-04-06T12:21:18Z</time></trkpt><trkpt lat="45.672152577393646" lon="8.214633711705439"><ele>415.8</ele><time>2026-04-06T12:21:19Z</time></trkpt><trkpt lat="45.67211333307962" lon="8.214495348067322"><ele>416.20000000000005</ele><time>2026-04-06T12:21:20Z</time></trkpt><trkpt lat="45.67211145964154" lon="8.214359413480699"><ele>416.6</ele><time>2026-04-06T12:21:21Z</time></trkpt><trkpt lat="45.672069580728845" lon="8.21427161245601"><ele>417.0</ele><time>2026-04-06T12:21:22Z</time></trkpt><trkpt lat="45.671923611894165" lon="8.214281903478156"><ele>417.0</ele><time>2026-04-06T12:21:24Z</time></trkpt><trkpt lat="45.67183647254452" lon="8.214344606419182"><ele>417.0</ele><time>2026-04-06T12:21:25Z</time></trkpt><trkpt lat="45.67173202289584" lon="8.214399364992413"><ele>417.0</ele><time>2026-04-06T12:21:26Z</time></trkpt><trkpt lat="45.67162295574888" lon="8.214394911210613"><ele>417.0</ele><time>2026-04-06T12:21:27Z</time></trkpt><trkpt lat="45.67151519050454" lon="8.21433505320215"><ele>417.0</ele><time>2026-04-06T12:21:28Z</time></trkpt><trkpt lat="45.671407676329736" lon="8.214228684850385"><ele>417.0</ele><time>2026-04-06T12:21:29Z</time></trkpt><trkpt lat="45.67129930781443" lon="8.214084680216892"><ele>417.0</ele><time>2026-04-06T12:21:30Z</time></trkpt><trkpt lat="45.67118873727257" lon="8.213921255946524"><ele>417.0</ele><time>2026-04-06T12:21:31Z</time></trkpt><trkpt lat="45.671081720439126" lon="8.213746134426781"><ele>416.66666666666663</ele><time>2026-04-06T12:21:32Z</time></trkpt><trkpt lat="45.67097115929376" lon="8.213555906431148"><ele>416.3333333333333</ele><time>2026-04-06T12:21:33Z</time></trkpt><trkpt lat="45.67085334128471" lon="8.213356666842753"><ele>416.0</ele><time>2026-04-06T12:21:34Z</time></trkpt><trkpt lat="45.670731700707655" lon="8.213153227004781"><ele>416.0</ele><time>2026-04-06T12:21:35Z</time></trkpt><trkpt lat="45.6706000658648" lon="8.212968136505372"><ele>416.0</ele><time>2026-04-06T12:21:36Z</time></trkpt><trkpt lat="45.67045851184525" lon="8.212817687856282"><ele>416.0</ele><time>2026-04-06T12:21:37Z</time></trkpt><trkpt lat="45.670296058459506" lon="8.212698148297477"><ele>418.66666666666663</ele><time>2026-04-06T12:21:38Z</time></trkpt><trkpt lat="45.67011339453457" lon="8.212604023516933"><ele>421.33333333333337</ele><time>2026-04-06T12:21:39Z</time></trkpt><trkpt lat="45.669914897504086" lon="8.212534854643865"><ele>424.0</ele><time>2026-04-06T12:21:40Z</time></trkpt><trkpt lat="45.66971405905148" lon="8.212495832132523"><ele>424.0</ele><time>2026-04-06T12:21:41Z</time></trkpt><trkpt lat="45.66950597014686" lon="8.212492025156731"><ele>424.0</ele><time>2026-04-06T12:21:42Z</time></trkpt><trkpt lat="45.66929428434811" lon="8.212529615957715"><ele>424.0</ele><time>2026-04-06T12:21:43Z</time></trkpt><trkpt lat="45.669081446701085" lon="8.21258643729932"><ele>424.0</ele><time>2026-04-06T12:21:44Z</time></trkpt><trkpt lat="45.66886806754561" lon="8.212648779700029"><ele>424.0</ele><time>2026-04-06T12:21:45Z</time></trkpt><trkpt lat="45.668651292801975" lon="8.212712404691265"><ele>424.0</ele><time>2026-04-06T12:21:46Z</time></trkpt><trkpt lat="45.668429963692326" lon="8.212764968818284"><ele>423.0</ele><time>2026-04-06T12:21:47Z</time></trkpt><trkpt lat="45.66821884583773" lon="8.212783801659276"><ele>422.0</ele><time>2026-04-06T12:21:48Z</time></trkpt><trkpt lat="45.66803962274942" lon="8.212700140339045"><ele>421.0</ele><time>2026-04-06T12:21:49Z</time></trkpt><trkpt lat="45.667863952632835" lon="8.212578638682027"><ele>422.0</ele><time>2026-04-06T12:21:50Z</time></trkpt><trkpt lat="45.66768721179566" lon="8.212433209590355"><ele>423.0</ele><time>2026-04-06T12:21:51Z</time></trkpt><trkpt lat="45.667498692485985" lon="8.212301984817124"><ele>424.0</ele><time>2026-04-06T12:21:52Z</time></trkpt><trkpt lat="45.66731695144152" lon="8.212145579311791"><ele>426.6666666666667</ele><time>2026-04-06T12:21:53Z</time></trkpt><trkpt lat="45.667130549803225" lon="8.21199416257743"><ele>429.33333333333337</ele><time>2026-04-06T12:21:54Z</time></trkpt><trkpt lat="45.66694462660757" lon="8.211842897524535"><ele>432.0</ele><time>2026-04-06T12:21:55Z</time></trkpt><trkpt lat="45.666785433962524" lon="8.211709406042056"><ele>432.0</ele><time>2026-04-06T12:21:56Z</time></trkpt><trkpt lat="45.66666001404442" lon="8.211581039146184"><ele>432.0</ele><time>2026-04-06T12:21:57Z</time></trkpt><trkpt lat="45.6665494014599" lon="8.211400717372232"><ele>432.0</ele><time>2026-04-06T12:21:58Z</time></trkpt><trkpt lat="45.66648194132539" lon="8.211165138040494"><ele>436.33333333333337</ele><time>2026-04-06T12:21:59Z</time></trkpt><trkpt lat="45.66641730642411" lon="8.210913331568467"><ele>440.6666666666667</ele><time>2026-04-06T12:22:00Z</time></trkpt><trkpt lat="45.66640733701272" lon="8.21066906819576"><ele>445.0</ele><time>2026-04-06T12:22:01Z</time></trkpt><trkpt lat="45.66644653179069" lon="8.210436968991534"><ele>448.0</ele><time>2026-04-06T12:22:02Z</time></trkpt><trkpt lat="45.6665204521544" lon="8.210203013312256"><ele>451.0</ele><time>2026-04-06T12:22:03Z</time></trkpt><trkpt lat="45.66657214160777" lon="8.209974513974101"><ele>454.0</ele><time>2026-04-06T12:22:04Z</time></trkpt><trkpt lat="45.666578993408805" lon="8.209736535193008"><ele>457.33333333333337</ele><time>2026-04-06T12:22:05Z</time></trkpt><trkpt lat="45.66654296718221" lon="8.20950747723374"><ele>460.66666666666663</ele><time>2026-04-06T12:22:06Z</time></trkpt><trkpt lat="45.66646859455388" lon="8.209302306351994"><ele>464.0</ele><time>2026-04-06T12:22:07Z</time></trkpt><trkpt lat="45.66635144667559" lon="8.209123038581774"><ele>467.66666666666663</ele><time>2026-04-06T12:22:08Z</time></trkpt><trkpt lat="45.6662125060059" lon="8.208950892423756"><ele>471.33333333333337</ele><time>2026-04-06T12:22:09Z</time></trkpt><trkpt lat="45.666060062640064" lon="8.208781045927047"><ele>475.0</ele><time>2026-04-06T12:22:10Z</time></trkpt><trkpt lat="45.665892195481256" lon="8.20860223834011"><ele>473.6666666666667</ele><time>2026-04-06T12:22:11Z</time></trkpt><trkpt lat="45.66571540609969" lon="8.20842150810725"><ele>472.33333333333337</ele><time>2026-04-06T12:22:12Z</time></trkpt><trkpt lat="45.66553859140773" lon="8.208241594322063"><ele>471.0</ele><time>2026-04-06T12:22:13Z</time></trkpt><trkpt lat="45.665356038072765" lon="8.208062471450159"><ele>462.0</ele><time>2026-04-06T12:22:14Z</time></trkpt><trkpt lat="45.66517583133097" lon="8.207889329399327"><ele>453.0</ele><time>2026-04-06T12:22:15Z</time></trkpt><trkpt lat="45.66503484165748" lon="8.20774044545821"><ele>444.0</ele><time>2026-04-06T12:22:16Z</time></trkpt><trkpt lat="45.66492832707844" lon="8.207580626519384"><ele>444.0</ele><time>2026-04-06T12:22:17Z</time></trkpt><trkpt lat="45.664869524223775" lon="8.20737413410511"><ele>444.0</ele><time>2026-04-06T12:22:18Z</time></trkpt><trkpt lat="45.66483904404044" lon="8.207135033457998"><ele>444.0</ele><time>2026-04-06T12:22:19Z</time></trkpt><trkpt lat="45.664824263090814" lon="8.20688363412366"><ele>448.33333333333337</ele><time>2026-04-06T12:22:20Z</time></trkpt><trkpt lat="45.664825779723316" lon="8.206616250037873"><ele>452.6666666666667</ele><time>2026-04-06T12:22:21Z</time></trkpt><trkpt lat="45.664824735424844" lon="8.206354956668779"><ele>457.0</ele><time>2026-04-06T12:22:22Z</time></trkpt><trkpt lat="45.66479440336243" lon="8.206112117494335"><ele>463.33333333333337</ele><time>2026-04-06T12:22:23Z</time></trkpt><trkpt lat="45.664735767167905" lon="8.205889224202712"><ele>469.66666666666663</ele><time>2026-04-06T12:22:24Z</time></trkpt><trkpt lat="45.66465290850317" lon="8.205700110307804"><ele>476.0</ele><time>2026-04-06T12:22:24.999Z</time></trkpt><trkpt lat="45.664533369398264" lon="8.205565560297234"><ele>473.0</ele><time>2026-04-06T12:22:25.999Z</time></trkpt><trkpt lat="45.66438123532769" lon="8.20546083477195"><ele>470.0</ele><time>2026-04-06T12:22:26.999Z</time></trkpt><trkpt lat="45.6642193022496" lon="8.205364838240817"><ele>467.0</ele><time>2026-04-06T12:22:27.999Z</time></trkpt><trkpt lat="45.66404938132991" lon="8.205265008366514"><ele>467.0</ele><time>2026-04-06T12:22:28.999Z</time></trkpt><trkpt lat="45.66387092958982" lon="8.205158161139966"><ele>467.0</ele><time>2026-04-06T12:22:29.999Z</time></trkpt><trkpt lat="45.663686058878206" lon="8.20501962070459"><ele>467.0</ele><time>2026-04-06T12:22:30.999Z</time></trkpt><trkpt lat="45.66350094750282" lon="8.20483473171937"><ele>467.0</ele><time>2026-04-06T12:22:31.999Z</time></trkpt><trkpt lat="45.66331932923962" lon="8.204641913434063"><ele>467.0</ele><time>2026-04-06T12:22:32.999Z</time></trkpt><trkpt lat="45.66315979452069" lon="8.204478051479676"><ele>467.0</ele><time>2026-04-06T12:22:33.999Z</time></trkpt><trkpt lat="45.66302176995952" lon="8.204310219177362"><ele>467.0</ele><time>2026-04-06T12:22:34.999Z</time></trkpt><trkpt lat="45.6629127227785" lon="8.204111358757936"><ele>467.0</ele><time>2026-04-06T12:22:35.999Z</time></trkpt><trkpt lat="45.66283595197463" lon="8.203857153878216"><ele>467.0</ele><time>2026-04-06T12:22:36.999Z</time></trkpt><trkpt lat="45.66276375753353" lon="8.203585059194904"><ele>463.3333333333333</ele><time>2026-04-06T12:22:37.999Z</time></trkpt><trkpt lat="45.66267533440433" lon="8.203304412685709"><ele>459.66666666666663</ele><time>2026-04-06T12:22:38.999Z</time></trkpt><trkpt lat="45.66256977575231" lon="8.203020719027455"><ele>456.0</ele><time>2026-04-06T12:22:39.999Z</time></trkpt><trkpt lat="45.662445770069716" lon="8.202819266127765"><ele>455.75</ele><time>2026-04-06T12:22:40.999Z</time></trkpt><trkpt lat="45.66238324060623" lon="8.202646918155926"><ele>455.5</ele><time>2026-04-06T12:22:41.999Z</time></trkpt><trkpt lat="45.662372274008234" lon="8.202440585055022"><ele>455.25</ele><time>2026-04-06T12:22:42.999Z</time></trkpt><trkpt lat="45.66244041209329" lon="8.202300270750088"><ele>455.0</ele><time>2026-04-06T12:22:43.999Z</time></trkpt><trkpt lat="45.6625511959398" lon="8.202227354853095"><ele>454.25</ele><time>2026-04-06T12:22:44.999Z</time></trkpt><trkpt lat="45.6626816463577" lon="8.202203577513762"><ele>453.5</ele><time>2026-04-06T12:22:45.999Z</time></trkpt><trkpt lat="45.66282337105801" lon="8.202163557821692"><ele>452.75</ele><time>2026-04-06T12:22:46.999Z</time></trkpt><trkpt lat="45.66297460953544" lon="8.20212702860684"><ele>452.0</ele><time>2026-04-06T12:22:47.999Z</time></trkpt><trkpt lat="45.663138651969085" lon="8.202089014748399"><ele>452.0</ele><time>2026-04-06T12:22:48.999Z</time></trkpt><trkpt lat="45.66332028691979" lon="8.202026817034437"><ele>452.0</ele><time>2026-04-06T12:22:49.999Z</time></trkpt><trkpt lat="45.66350389755569" lon="8.201931170280286"><ele>452.0</ele><time>2026-04-06T12:22:50.999Z</time></trkpt><trkpt lat="45.663681439556626" lon="8.201819766554554"><ele>456.25</ele><time>2026-04-06T12:22:51.999Z</time></trkpt><trkpt lat="45.663809522308576" lon="8.20172484986441"><ele>460.5</ele><time>2026-04-06T12:22:52.999Z</time></trkpt><trkpt lat="45.663903553410755" lon="8.201635129980362"><ele>464.75</ele><time>2026-04-06T12:22:53.999Z</time></trkpt><trkpt lat="45.66394264121586" lon="8.201515877152548"><ele>469.0</ele><time>2026-04-06T12:22:55Z</time></trkpt><trkpt lat="45.66393799756881" lon="8.20135227951856"><ele>470.75</ele><time>2026-04-06T12:22:56Z</time></trkpt><trkpt lat="45.6639030135612" lon="8.201179869730737"><ele>472.5</ele><time>2026-04-06T12:22:57Z</time></trkpt><trkpt lat="45.66383659150979" lon="8.201021373607178"><ele>474.25</ele><time>2026-04-06T12:22:58Z</time></trkpt><trkpt lat="45.66375570898359" lon="8.20086136527477"><ele>476.0</ele><time>2026-04-06T12:22:59Z</time></trkpt><trkpt lat="45.66365999152951" lon="8.200693587323766"><ele>471.0</ele><time>2026-04-06T12:23:00Z</time></trkpt><trkpt lat="45.663551224741674" lon="8.200512444992178"><ele>466.0</ele><time>2026-04-06T12:23:01Z</time></trkpt><trkpt lat="45.66342535277574" lon="8.200313404946764"><ele>461.0</ele><time>2026-04-06T12:23:02Z</time></trkpt><trkpt lat="45.66329770339154" lon="8.200114713217582"><ele>461.0</ele><time>2026-04-06T12:23:03Z</time></trkpt><trkpt lat="45.663159844751654" lon="8.19990747457055"><ele>461.0</ele><time>2026-04-06T12:23:04Z</time></trkpt><trkpt lat="45.663025433783254" lon="8.199731771222062"><ele>461.0</ele><time>2026-04-06T12:23:05Z</time></trkpt><trkpt lat="45.66287482802575" lon="8.19957673057559"><ele>461.3333333333333</ele><time>2026-04-06T12:23:06Z</time></trkpt><trkpt lat="45.66269374788698" lon="8.19944348495534"><ele>461.66666666666663</ele><time>2026-04-06T12:23:07Z</time></trkpt><trkpt lat="45.662526477878316" lon="8.19933781513969"><ele>462.0</ele><time>2026-04-06T12:23:08Z</time></trkpt><trkpt lat="45.662389710622286" lon="8.199272720343716"><ele>462.0</ele><time>2026-04-06T12:23:09Z</time></trkpt><trkpt lat="45.66225677689698" lon="8.199258009582145"><ele>462.0</ele><time>2026-04-06T12:23:10Z</time></trkpt><trkpt lat="45.66213078993661" lon="8.199320499284834"><ele>462.0</ele><time>2026-04-06T12:23:11Z</time></trkpt><trkpt lat="45.66200974240883" lon="8.199397420979945"><ele>462.0</ele><time>2026-04-06T12:23:12Z</time></trkpt><trkpt lat="45.66190327195815" lon="8.199416916912025"><ele>462.5</ele><time>2026-04-06T12:23:13Z</time></trkpt><trkpt lat="45.66179001036886" lon="8.199356735374884"><ele>463.0</ele><time>2026-04-06T12:23:14Z</time></trkpt><trkpt lat="45.66167005870044" lon="8.199233554919735"><ele>463.5</ele><time>2026-04-06T12:23:15Z</time></trkpt><trkpt lat="45.66154426961247" lon="8.199105276610123"><ele>464.0</ele><time>2026-04-06T12:23:16Z</time></trkpt><trkpt lat="45.661425466190806" lon="8.199013426495657"><ele>464.0</ele><time>2026-04-06T12:23:17Z</time></trkpt><trkpt lat="45.661307687685955" lon="8.198968459543668"><ele>464.0</ele><time>2026-04-06T12:23:18Z</time></trkpt><trkpt lat="45.66119178475166" lon="8.199020150968487"><ele>464.0</ele><time>2026-04-06T12:23:19Z</time></trkpt><trkpt lat="45.661082953547314" lon="8.199132145292376"><ele>464.0</ele><time>2026-04-06T12:23:20Z</time></trkpt><trkpt lat="45.660985390636256" lon="8.199295837691109"><ele>466.0</ele><time>2026-04-06T12:23:21Z</time></trkpt><trkpt lat="45.6608638679585" lon="8.199441441485332"><ele>468.0</ele><time>2026-04-06T12:23:22Z</time></trkpt><trkpt lat="45.66075429022885" lon="8.199602871065176"><ele>470.0</ele><time>2026-04-06T12:23:23Z</time></trkpt><trkpt lat="45.66061126237392" lon="8.199773996957292"><ele>470.66666666666663</ele><time>2026-04-06T12:23:24Z</time></trkpt><trkpt lat="45.660449275661094" lon="8.199962669769779"><ele>471.33333333333337</ele><time>2026-04-06T12:23:25Z</time></trkpt><trkpt lat="45.66027986082101" lon="8.200148101305313"><ele>472.0</ele><time>2026-04-06T12:23:26Z</time></trkpt><trkpt lat="45.66011141585499" lon="8.200311199977111"><ele>472.0</ele><time>2026-04-06T12:23:27Z</time></trkpt><trkpt lat="45.65993895505829" lon="8.200433884871428"><ele>472.0</ele><time>2026-04-06T12:23:28Z</time></trkpt><trkpt lat="45.659761717413225" lon="8.200517523812747"><ele>472.0</ele><time>2026-04-06T12:23:29Z</time></trkpt><trkpt lat="45.65961627962476" lon="8.200587334288743"><ele>472.0</ele><time>2026-04-06T12:23:30Z</time></trkpt><trkpt lat="45.65949009226616" lon="8.200627598332286"><ele>472.0</ele><time>2026-04-06T12:23:31Z</time></trkpt><trkpt lat="45.65937522641287" lon="8.200603940815068"><ele>472.0</ele><time>2026-04-06T12:23:32Z</time></trkpt><trkpt lat="45.65927019288923" lon="8.200493169864295"><ele>472.0</ele><time>2026-04-06T12:23:33Z</time></trkpt><trkpt lat="45.65918991178622" lon="8.200315588790426"><ele>473.0</ele><time>2026-04-06T12:23:34Z</time></trkpt><trkpt lat="45.659128393360554" lon="8.200111508490798"><ele>474.0</ele><time>2026-04-06T12:23:35Z</time></trkpt><trkpt lat="45.65906304975368" lon="8.19989636428654"><ele>475.0</ele><time>2026-04-06T12:23:36Z</time></trkpt><trkpt lat="45.65898538103151" lon="8.199689882874903"><ele>475.0</ele><time>2026-04-06T12:23:37Z</time></trkpt><trkpt lat="45.65891533156701" lon="8.19951128425606"><ele>475.0</ele><time>2026-04-06T12:23:38Z</time></trkpt><trkpt lat="45.65879095757413" lon="8.199402105189387"><ele>475.0</ele><time>2026-04-06T12:23:39Z</time></trkpt><trkpt lat="45.658648996009234" lon="8.19933308150002"><ele>475.0</ele><time>2026-04-06T12:23:40Z</time></trkpt><trkpt lat="45.65850615445108" lon="8.199270625015409"><ele>474.75</ele><time>2026-04-06T12:23:41Z</time></trkpt><trkpt lat="45.65836712078602" lon="8.19921121825416"><ele>474.5</ele><time>2026-04-06T12:23:42Z</time></trkpt><trkpt lat="45.65823902434162" lon="8.199155607459415"><ele>474.25</ele><time>2026-04-06T12:23:43Z</time></trkpt><trkpt lat="45.65811614951524" lon="8.199123126269656"><ele>474.0</ele><time>2026-04-06T12:23:44Z</time></trkpt><trkpt lat="45.657999512543846" lon="8.199063959924471"><ele>474.0</ele><time>2026-04-06T12:23:45Z</time></trkpt><trkpt lat="45.65788480954735" lon="8.199007693898217"><ele>474.0</ele><time>2026-04-06T12:23:46Z</time></trkpt><trkpt lat="45.65776496752131" lon="8.198952289973265"><ele>474.0</ele><time>2026-04-06T12:23:47Z</time></trkpt><trkpt lat="45.65764635526692" lon="8.198891626900922"><ele>474.0</ele><time>2026-04-06T12:23:48Z</time></trkpt><trkpt lat="45.65754440947618" lon="8.198805788216994"><ele>475.5</ele><time>2026-04-06T12:23:49Z</time></trkpt><trkpt lat="45.657466071730475" lon="8.198667068013377"><ele>477.0</ele><time>2026-04-06T12:23:50Z</time></trkpt><trkpt lat="45.65740655029329" lon="8.198485496944063"><ele>478.5</ele><time>2026-04-06T12:23:51Z</time></trkpt><trkpt lat="45.657361898537836" lon="8.198289631276676"><ele>480.0</ele><time>2026-04-06T12:23:52Z</time></trkpt><trkpt lat="45.6573124150519" lon="8.198114900893987"><ele>480.25</ele><time>2026-04-06T12:23:53Z</time></trkpt><trkpt lat="45.65725072609872" lon="8.1979653466274"><ele>480.5</ele><time>2026-04-06T12:23:54Z</time></trkpt><trkpt lat="45.65716146897948" lon="8.197844036601335"><ele>480.75</ele><time>2026-04-06T12:23:55Z</time></trkpt><trkpt lat="45.657054225703206" lon="8.197745814101115"><ele>481.0</ele><time>2026-04-06T12:23:56Z</time></trkpt><trkpt lat="45.65692002061694" lon="8.197671737675432"><ele>481.0</ele><time>2026-04-06T12:23:57Z</time></trkpt><trkpt lat="45.656776388697025" lon="8.197607081267599"><ele>481.0</ele><time>2026-04-06T12:23:58Z</time></trkpt><trkpt lat="45.65662414688889" lon="8.197540483831734"><ele>481.0</ele><time>2026-04-06T12:23:59Z</time></trkpt><trkpt lat="45.65646638350235" lon="8.197457280013081"><ele>481.0</ele><time>2026-04-06T12:24:00Z</time></trkpt><trkpt lat="45.65631047612291" lon="8.197341813152642"><ele>481.0</ele><time>2026-04-06T12:24:01Z</time></trkpt><trkpt lat="45.6561639291151" lon="8.197203835072875"><ele>481.0</ele><time>2026-04-06T12:24:02Z</time></trkpt><trkpt lat="45.65603587653042" lon="8.197071373678368"><ele>481.0</ele><time>2026-04-06T12:24:03Z</time></trkpt><trkpt lat="45.655918154868935" lon="8.196944337837229"><ele>481.0</ele><time>2026-04-06T12:24:04Z</time></trkpt><trkpt lat="45.65581174986814" lon="8.196818061672252"><ele>481.0</ele><time>2026-04-06T12:24:05Z</time></trkpt><trkpt lat="45.655717633374344" lon="8.19669151096337"><ele>481.0</ele><time>2026-04-06T12:24:06Z</time></trkpt><trkpt lat="45.6556434791609" lon="8.196562254551962"><ele>483.25</ele><time>2026-04-06T12:24:07Z</time></trkpt><trkpt lat="45.655575226087024" lon="8.19642070543127"><ele>485.5</ele><time>2026-04-06T12:24:08Z</time></trkpt><trkpt lat="45.655498340757994" lon="8.196264293722011"><ele>487.75</ele><time>2026-04-06T12:24:09Z</time></trkpt><trkpt lat="45.65542200769142" lon="8.196092286869934"><ele>490.0</ele><time>2026-04-06T12:24:10Z</time></trkpt><trkpt lat="45.65535345530865" lon="8.195902488297593"><ele>489.6666666666667</ele><time>2026-04-06T12:24:11Z</time></trkpt><trkpt lat="45.65528257604618" lon="8.19570308706305"><ele>489.33333333333337</ele><time>2026-04-06T12:24:12Z</time></trkpt><trkpt lat="45.65518783800863" lon="8.195510688242678"><ele>489.0</ele><time>2026-04-06T12:24:13Z</time></trkpt><trkpt lat="45.65505967664727" lon="8.195336249708502"><ele>489.0</ele><time>2026-04-06T12:24:14Z</time></trkpt><trkpt lat="45.65490800615407" lon="8.195188046325903"><ele>489.0</ele><time>2026-04-06T12:24:15Z</time></trkpt><trkpt lat="45.65476951986737" lon="8.195054639357645"><ele>489.0</ele><time>2026-04-06T12:24:16Z</time></trkpt><trkpt lat="45.65467121959377" lon="8.19489934610552"><ele>491.33333333333337</ele><time>2026-04-06T12:24:17Z</time></trkpt><trkpt lat="45.65461276555746" lon="8.194711306093021"><ele>493.6666666666667</ele><time>2026-04-06T12:24:18Z</time></trkpt><trkpt lat="45.65458573796465" lon="8.194500567383404"><ele>496.0</ele><time>2026-04-06T12:24:19Z</time></trkpt><trkpt lat="45.65460007437577" lon="8.194275260136552"><ele>496.0</ele><time>2026-04-06T12:24:20Z</time></trkpt><trkpt lat="45.654588199081516" lon="8.194031987976551"><ele>496.0</ele><time>2026-04-06T12:24:21Z</time></trkpt><trkpt lat="45.65459447698631" lon="8.193782603261404"><ele>496.0</ele><time>2026-04-06T12:24:22Z</time></trkpt><trkpt lat="45.65461124355373" lon="8.193588614413256"><ele>496.0</ele><time>2026-04-06T12:24:23Z</time></trkpt><trkpt lat="45.65466617003701" lon="8.193419663820709"><ele>496.0</ele><time>2026-04-06T12:24:24Z</time></trkpt><trkpt lat="45.65477305753029" lon="8.19326461002699"><ele>496.0</ele><time>2026-04-06T12:24:25Z</time></trkpt><trkpt lat="45.65491960442229" lon="8.193143593842711"><ele>494.5</ele><time>2026-04-06T12:24:26Z</time></trkpt><trkpt lat="45.655081399895316" lon="8.193069908314593"><ele>493.0</ele><time>2026-04-06T12:24:27Z</time></trkpt><trkpt lat="45.65521191452677" lon="8.192999613206325"><ele>491.5</ele><time>2026-04-06T12:24:27.999Z</time></trkpt><trkpt lat="45.65530156935654" lon="8.192864217474993"><ele>490.0</ele><time>2026-04-06T12:24:28.999Z</time></trkpt><trkpt lat="45.6553503636471" lon="8.19266408073232"><ele>494.33333333333337</ele><time>2026-04-06T12:24:29.999Z</time></trkpt><trkpt lat="45.65538705385448" lon="8.192436134795024"><ele>498.66666666666663</ele><time>2026-04-06T12:24:30.999Z</time></trkpt><trkpt lat="45.65542320355935" lon="8.192191635223736"><ele>503.0</ele><time>2026-04-06T12:24:31.999Z</time></trkpt><trkpt lat="45.655460632590405" lon="8.191934779338764"><ele>503.0</ele><time>2026-04-06T12:24:32.999Z</time></trkpt><trkpt lat="45.65549659284425" lon="8.191669965092235"><ele>503.0</ele><time>2026-04-06T12:24:33.999Z</time></trkpt><trkpt lat="45.655527225449774" lon="8.191400008364768"><ele>503.0</ele><time>2026-04-06T12:24:34.999Z</time></trkpt><trkpt lat="45.655538724821135" lon="8.19113980016975"><ele>501.66666666666663</ele><time>2026-04-06T12:24:35.999Z</time></trkpt><trkpt lat="45.655530473983546" lon="8.19087909654018"><ele>500.33333333333337</ele><time>2026-04-06T12:24:36.999Z</time></trkpt><trkpt lat="45.655504227419215" lon="8.190627676229614"><ele>499.0</ele><time>2026-04-06T12:24:37.999Z</time></trkpt><trkpt lat="45.655465350823725" lon="8.190384072767745"><ele>499.0</ele><time>2026-04-06T12:24:38.999Z</time></trkpt><trkpt lat="45.65542117690578" lon="8.190141302479967"><ele>499.0</ele><time>2026-04-06T12:24:39.999Z</time></trkpt><trkpt lat="45.65537793395722" lon="8.189902337382664"><ele>499.0</ele><time>2026-04-06T12:24:40.999Z</time></trkpt><trkpt lat="45.65534029628162" lon="8.189678477274457"><ele>498.0</ele><time>2026-04-06T12:24:41.999Z</time></trkpt><trkpt lat="45.65530313733096" lon="8.189467475644259"><ele>497.0</ele><time>2026-04-06T12:24:42.999Z</time></trkpt><trkpt lat="45.65526438575978" lon="8.189262520995761"><ele>496.0</ele><time>2026-04-06T12:24:43.999Z</time></trkpt><trkpt lat="45.655230776358856" lon="8.189087994870146"><ele>495.0</ele><time>2026-04-06T12:24:44.999Z</time></trkpt><trkpt lat="45.65520892251331" lon="8.188948810635724"><ele>494.8333333333333</ele><time>2026-04-06T12:24:45.999Z</time></trkpt><trkpt lat="45.65520293341647" lon="8.188830681966282"><ele>494.66666666666663</ele><time>2026-04-06T12:24:46.999Z</time></trkpt><trkpt lat="45.65523077780575" lon="8.188725502062729"><ele>494.5</ele><time>2026-04-06T12:24:47.999Z</time></trkpt><trkpt lat="45.655271088787735" lon="8.188631979739288"><ele>494.3333333333333</ele><time>2026-04-06T12:24:48.999Z</time></trkpt><trkpt lat="45.65526825338744" lon="8.188469234129535"><ele>494.16666666666663</ele><time>2026-04-06T12:24:50.999Z</time></trkpt><trkpt lat="45.65524691672756" lon="8.188382686268488"><ele>494.0</ele><time>2026-04-06T12:24:51.999Z</time></trkpt><trkpt lat="45.65510694947209" lon="8.188355724156928"><ele>494.0</ele><time>2026-04-06T12:24:52.999Z</time></trkpt><trkpt lat="45.65502652423505" lon="8.188255424767814"><ele>494.0</ele><time>2026-04-06T12:24:53.999Z</time></trkpt><trkpt lat="45.654951606909755" lon="8.188126908942392"><ele>494.0</ele><time>2026-04-06T12:24:54.999Z</time></trkpt><trkpt lat="45.65487754360359" lon="8.188000892098513"><ele>494.0</ele><time>2026-04-06T12:24:55.999Z</time></trkpt><trkpt lat="45.65480260465141" lon="8.187881517837251"><ele>494.5</ele><time>2026-04-06T12:24:56.999Z</time></trkpt><trkpt lat="45.65472688096969" lon="8.187756317047645"><ele>495.0</ele><time>2026-04-06T12:24:57.999Z</time></trkpt><trkpt lat="45.65465087498295" lon="8.187626833104114"><ele>495.5</ele><time>2026-04-06T12:24:58.999Z</time></trkpt><trkpt lat="45.654573613780904" lon="8.187488926246797"><ele>496.0</ele><time>2026-04-06T12:24:59.999Z</time></trkpt><trkpt lat="45.65449575231386" lon="8.187356895255006"><ele>496.25</ele><time>2026-04-06T12:25:01Z</time></trkpt><trkpt lat="45.65442249780602" lon="8.187227825770973"><ele>496.5</ele><time>2026-04-06T12:25:02Z</time></trkpt><trkpt lat="45.65434869108958" lon="8.187094528254978"><ele>496.75</ele><time>2026-04-06T12:25:03Z</time></trkpt><trkpt lat="45.65427783170652" lon="8.186954136017713"><ele>497.0</ele><time>2026-04-06T12:25:04Z</time></trkpt><trkpt lat="45.65421040660563" lon="8.186811857503331"><ele>497.0</ele><time>2026-04-06T12:25:05Z</time></trkpt><trkpt lat="45.654144864470645" lon="8.186656830575581"><ele>497.0</ele><time>2026-04-06T12:25:06Z</time></trkpt><trkpt lat="45.65408019466725" lon="8.186495505756962"><ele>497.0</ele><time>2026-04-06T12:25:07Z</time></trkpt><trkpt lat="45.65402049644921" lon="8.186323092865768"><ele>497.0</ele><time>2026-04-06T12:25:08Z</time></trkpt><trkpt lat="45.65395908064685" lon="8.186149727258574"><ele>498.75</ele><time>2026-04-06T12:25:09Z</time></trkpt><trkpt lat="45.65389767315843" lon="8.185981338231917"><ele>500.5</ele><time>2026-04-06T12:25:10Z</time></trkpt><trkpt lat="45.653836102102005" lon="8.185815508675432"><ele>502.25</ele><time>2026-04-06T12:25:11Z</time></trkpt><trkpt lat="45.65377693808983" lon="8.185651644881752"><ele>504.0</ele><time>2026-04-06T12:25:12Z</time></trkpt><trkpt lat="45.653715250933445" lon="8.185492610434151"><ele>504.75</ele><time>2026-04-06T12:25:13Z</time></trkpt><trkpt lat="45.653653293707066" lon="8.185334919230515"><ele>505.5</ele><time>2026-04-06T12:25:14Z</time></trkpt><trkpt lat="45.65359235297979" lon="8.185174591492038"><ele>506.25</ele><time>2026-04-06T12:25:15Z</time></trkpt><trkpt lat="45.6535358466206" lon="8.185012787382325"><ele>507.0</ele><time>2026-04-06T12:25:16Z</time></trkpt><trkpt lat="45.65347911338726" lon="8.18485197484722"><ele>505.0</ele><time>2026-04-06T12:25:17Z</time></trkpt><trkpt lat="45.65341887096523" lon="8.184698383876412"><ele>503.0</ele><time>2026-04-06T12:25:18Z</time></trkpt><trkpt lat="45.65336126237776" lon="8.184548097750861"><ele>501.0</ele><time>2026-04-06T12:25:19Z</time></trkpt><trkpt lat="45.653296759748216" lon="8.184406271273158"><ele>499.0</ele><time>2026-04-06T12:25:20Z</time></trkpt><trkpt lat="45.653226143135356" lon="8.184272994719317"><ele>499.0</ele><time>2026-04-06T12:25:21Z</time></trkpt><trkpt lat="45.65314785585223" lon="8.184151314940266"><ele>499.0</ele><time>2026-04-06T12:25:22Z</time></trkpt><trkpt lat="45.65306243555869" lon="8.18404233407091"><ele>499.0</ele><time>2026-04-06T12:25:23Z</time></trkpt><trkpt lat="45.65297793554713" lon="8.183943057130874"><ele>499.0</ele><time>2026-04-06T12:25:24Z</time></trkpt><trkpt lat="45.65289640002113" lon="8.183856827886792"><ele>499.0</ele><time>2026-04-06T12:25:25Z</time></trkpt><trkpt lat="45.652816271157846" lon="8.183778219838185"><ele>499.2</ele><time>2026-04-06T12:25:26Z</time></trkpt><trkpt lat="45.65273066800176" lon="8.183709547174654"><ele>499.4</ele><time>2026-04-06T12:25:27Z</time></trkpt><trkpt lat="45.65264368955476" lon="8.183642654645375"><ele>499.6</ele><time>2026-04-06T12:25:28Z</time></trkpt><trkpt lat="45.65255903964469" lon="8.183572903868145"><ele>499.8</ele><time>2026-04-06T12:25:29Z</time></trkpt><trkpt lat="45.65247693816052" lon="8.18349578931152"><ele>500.0</ele><time>2026-04-06T12:25:30Z</time></trkpt><trkpt lat="45.65240971097167" lon="8.18339835066561"><ele>499.99999999999994</ele><time>2026-04-06T12:25:31Z</time></trkpt><trkpt lat="45.65235984882243" lon="8.183283441884576"><ele>500.0</ele><time>2026-04-06T12:25:32Z</time></trkpt><trkpt lat="45.65231338984071" lon="8.183168726668368"><ele>500.0</ele><time>2026-04-06T12:25:33Z</time></trkpt><trkpt lat="45.65227158480419" lon="8.183056856131044"><ele>500.0</ele><time>2026-04-06T12:25:34Z</time></trkpt><trkpt lat="45.65223478455989" lon="8.182954030367354"><ele>499.99999999999994</ele><time>2026-04-06T12:25:35Z</time></trkpt><trkpt lat="45.65220297674285" lon="8.182862827927568"><ele>500.0</ele><time>2026-04-06T12:25:36Z</time></trkpt><trkpt lat="45.6521733528361" lon="8.18278026543019"><ele>501.0</ele><time>2026-04-06T12:25:37Z</time></trkpt><trkpt lat="45.652118552514374" lon="8.182629189537813"><ele>502.0</ele><time>2026-04-06T12:25:39Z</time></trkpt><trkpt lat="45.65206399606133" lon="8.182487479030861"><ele>503.0</ele><time>2026-04-06T12:25:41Z</time></trkpt><trkpt lat="45.65200567832306" lon="8.182342532250363"><ele>504.0</ele><time>2026-04-06T12:25:43Z</time></trkpt><trkpt lat="45.651959556881515" lon="8.182213394835216"><ele>503.5</ele><time>2026-04-06T12:25:45Z</time></trkpt><trkpt lat="45.651904836382734" lon="8.182072305422338"><ele>503.0</ele><time>2026-04-06T12:25:47Z</time></trkpt><trkpt lat="45.65187193090064" lon="8.1819870469096"><ele>502.5</ele><time>2026-04-06T12:25:48Z</time></trkpt><trkpt lat="45.651837516627296" lon="8.181894114984377"><ele>502.0</ele><time>2026-04-06T12:25:49Z</time></trkpt><trkpt lat="45.65179636346328" lon="8.18179421974986"><ele>501.5</ele><time>2026-04-06T12:25:50Z</time></trkpt><trkpt lat="45.65175829934722" lon="8.18169177690842"><ele>501.0</ele><time>2026-04-06T12:25:51Z</time></trkpt><trkpt lat="45.65171620519604" lon="8.181589493137805"><ele>501.0</ele><time>2026-04-06T12:25:52Z</time></trkpt><trkpt lat="45.65167243718286" lon="8.181464589604447"><ele>501.0</ele><time>2026-04-06T12:25:53Z</time></trkpt><trkpt lat="45.65162134296912" lon="8.181315658473421"><ele>501.0</ele><time>2026-04-06T12:25:54Z</time></trkpt><trkpt lat="45.65157221055637" lon="8.181175591194386"><ele>501.0</ele><time>2026-04-06T12:25:55Z</time></trkpt><trkpt lat="45.6515221413765" lon="8.181033125883387"><ele>501.0</ele><time>2026-04-06T12:25:56Z</time></trkpt><trkpt lat="45.651467701460575" lon="8.180878798511666"><ele>501.0</ele><time>2026-04-06T12:25:57Z</time></trkpt><trkpt lat="45.65140720976163" lon="8.18072097971122"><ele>501.0</ele><time>2026-04-06T12:25:58Z</time></trkpt><trkpt lat="45.65134917465927" lon="8.180558846235053"><ele>501.0</ele><time>2026-04-06T12:25:59Z</time></trkpt><trkpt lat="45.651289139250295" lon="8.180391041754795"><ele>501.0</ele><time>2026-04-06T12:26:00Z</time></trkpt><trkpt lat="45.651227867920845" lon="8.180218777287283"><ele>501.5</ele><time>2026-04-06T12:26:01Z</time></trkpt><trkpt lat="45.65116546802164" lon="8.1800432895727"><ele>502.0</ele><time>2026-04-06T12:26:02Z</time></trkpt><trkpt lat="45.651101115383334" lon="8.179866229910832"><ele>502.5</ele><time>2026-04-06T12:26:03Z</time></trkpt><trkpt lat="45.651035538067006" lon="8.17967867367896"><ele>503.0</ele><time>2026-04-06T12:26:04Z</time></trkpt><trkpt lat="45.65096126288307" lon="8.179478379624754"><ele>503.0</ele><time>2026-04-06T12:26:05Z</time></trkpt><trkpt lat="45.65088728323559" lon="8.17928174654242"><ele>503.0</ele><time>2026-04-06T12:26:06Z</time></trkpt><trkpt lat="45.65081815450614" lon="8.179109094495148"><ele>503.0</ele><time>2026-04-06T12:26:07Z</time></trkpt><trkpt lat="45.650740913131706" lon="8.178952149837245"><ele>503.0</ele><time>2026-04-06T12:26:08Z</time></trkpt><trkpt lat="45.650644350720356" lon="8.178819114396486"><ele>503.75</ele><time>2026-04-06T12:26:09Z</time></trkpt><trkpt lat="45.65053227066677" lon="8.1787203842218"><ele>504.5</ele><time>2026-04-06T12:26:10Z</time></trkpt><trkpt lat="45.65039831199977" lon="8.178643908227901"><ele>505.25</ele><time>2026-04-06T12:26:11Z</time></trkpt><trkpt lat="45.65026401800874" lon="8.178554499811641"><ele>506.0</ele><time>2026-04-06T12:26:12Z</time></trkpt><trkpt lat="45.65012743644608" lon="8.178452315781191"><ele>506.75</ele><time>2026-04-06T12:26:13Z</time></trkpt><trkpt lat="45.649995892986354" lon="8.178338958871413"><ele>507.5</ele><time>2026-04-06T12:26:14Z</time></trkpt><trkpt lat="45.649847742932806" lon="8.178302460748895"><ele>508.25</ele><time>2026-04-06T12:26:15Z</time></trkpt><trkpt lat="45.64970739832353" lon="8.178259989486548"><ele>509.0</ele><time>2026-04-06T12:26:16Z</time></trkpt><trkpt lat="45.64956758268964" lon="8.178216234572712"><ele>510.25</ele><time>2026-04-06T12:26:17Z</time></trkpt><trkpt lat="45.649436927728836" lon="8.178153075297239"><ele>511.5</ele><time>2026-04-06T12:26:18Z</time></trkpt><trkpt lat="45.64931716896529" lon="8.178052628278559"><ele>512.75</ele><time>2026-04-06T12:26:19Z</time></trkpt><trkpt lat="45.649205871083005" lon="8.177911235742675"><ele>514.0</ele><time>2026-04-06T12:26:20Z</time></trkpt><trkpt lat="45.649093382624265" lon="8.177758448680754"><ele>514.0</ele><time>2026-04-06T12:26:21Z</time></trkpt><trkpt lat="45.64898232049023" lon="8.177602086745962"><ele>514.0</ele><time>2026-04-06T12:26:22Z</time></trkpt><trkpt lat="45.648874485303004" lon="8.177452145064358"><ele>514.0</ele><time>2026-04-06T12:26:22.999Z</time></trkpt><trkpt lat="45.64876834618804" lon="8.177292147588151"><ele>513.0</ele><time>2026-04-06T12:26:23.999Z</time></trkpt><trkpt lat="45.6486644526267" lon="8.177123356752936"><ele>512.0</ele><time>2026-04-06T12:26:24.999Z</time></trkpt><trkpt lat="45.64857472925343" lon="8.17694543941913"><ele>511.0</ele><time>2026-04-06T12:26:25.999Z</time></trkpt><trkpt lat="45.64849832591834" lon="8.176766815733783"><ele>511.0</ele><time>2026-04-06T12:26:26.999Z</time></trkpt><trkpt lat="45.648427013504445" lon="8.176590715815594"><ele>511.0</ele><time>2026-04-06T12:26:27.999Z</time></trkpt><trkpt lat="45.64835454752624" lon="8.176401340178158"><ele>511.0</ele><time>2026-04-06T12:26:28.999Z</time></trkpt><trkpt lat="45.64828648410089" lon="8.176207139203843"><ele>511.0</ele><time>2026-04-06T12:26:29.999Z</time></trkpt><trkpt lat="45.64821324095955" lon="8.176016394743444"><ele>512.6666666666667</ele><time>2026-04-06T12:26:30.999Z</time></trkpt><trkpt lat="45.648137169070075" lon="8.175821857619509"><ele>514.3333333333334</ele><time>2026-04-06T12:26:31.999Z</time></trkpt><trkpt lat="45.648061160899914" lon="8.17562272294077"><ele>516.0</ele><time>2026-04-06T12:26:32.999Z</time></trkpt><trkpt lat="45.64799106224652" lon="8.17542576223592"><ele>516.6666666666666</ele><time>2026-04-06T12:26:33.999Z</time></trkpt><trkpt lat="45.6479235745047" lon="8.1752342184869"><ele>517.3333333333333</ele><time>2026-04-06T12:26:34.999Z</time></trkpt><trkpt lat="45.647854165266814" lon="8.175042177446533"><ele>518.0</ele><time>2026-04-06T12:26:35.999Z</time></trkpt><trkpt lat="45.64778572059948" lon="8.174850094610786"><ele>516.6666666666666</ele><time>2026-04-06T12:26:36.999Z</time></trkpt><trkpt lat="45.64771932238433" lon="8.1746579834014"><ele>515.3333333333334</ele><time>2026-04-06T12:26:37.999Z</time></trkpt><trkpt lat="45.64764898434038" lon="8.174468451879578"><ele>514.0</ele><time>2026-04-06T12:26:38.999Z</time></trkpt><trkpt lat="45.647581139477786" lon="8.174269998494443"><ele>514.0</ele><time>2026-04-06T12:26:39.999Z</time></trkpt><trkpt lat="45.64751020634171" lon="8.174068910165795"><ele>514.0</ele><time>2026-04-06T12:26:40.999Z</time></trkpt><trkpt lat="45.64743586055044" lon="8.173868859869943"><ele>514.0</ele><time>2026-04-06T12:26:41.999Z</time></trkpt><trkpt lat="45.64736220729378" lon="8.17367138281216"><ele>515.0</ele><time>2026-04-06T12:26:42.999Z</time></trkpt><trkpt lat="45.6472949769573" lon="8.173474275306797"><ele>516.0</ele><time>2026-04-06T12:26:43.999Z</time></trkpt><trkpt lat="45.64722323341142" lon="8.173285428712225"><ele>517.0</ele><time>2026-04-06T12:26:44.999Z</time></trkpt><trkpt lat="45.647145610238844" lon="8.17309216917651"><ele>517.0</ele><time>2026-04-06T12:26:45.999Z</time></trkpt><trkpt lat="45.64706343586316" lon="8.172899831612474"><ele>517.0</ele><time>2026-04-06T12:26:46.999Z</time></trkpt><trkpt lat="45.64696024140302" lon="8.17271995481309"><ele>517.0</ele><time>2026-04-06T12:26:47.999Z</time></trkpt><trkpt lat="45.64684022373085" lon="8.17255732271377"><ele>517.0</ele><time>2026-04-06T12:26:48.999Z</time></trkpt><trkpt lat="45.64671522949481" lon="8.172406710698834"><ele>517.0</ele><time>2026-04-06T12:26:49.999Z</time></trkpt><trkpt lat="45.64658304210027" lon="8.172259917410996"><ele>517.0</ele><time>2026-04-06T12:26:50.999Z</time></trkpt><trkpt lat="45.64644501795003" lon="8.17211820808866"><ele>519.0</ele><time>2026-04-06T12:26:51.999Z</time></trkpt><trkpt lat="45.64632120589876" lon="8.171976687718919"><ele>521.0</ele><time>2026-04-06T12:26:52.999Z</time></trkpt><trkpt lat="45.64618168433493" lon="8.171875952676423"><ele>523.0</ele><time>2026-04-06T12:26:53.999Z</time></trkpt><trkpt lat="45.64602653008639" lon="8.171816408177184"><ele>523.0</ele><time>2026-04-06T12:26:54.999Z</time></trkpt><trkpt lat="45.64588290871506" lon="8.171737868062793"><ele>523.0</ele><time>2026-04-06T12:26:55.999Z</time></trkpt><trkpt lat="45.64575684321032" lon="8.171630928174258"><ele>523.0</ele><time>2026-04-06T12:26:56.999Z</time></trkpt><trkpt lat="45.645638677510576" lon="8.171488589659965"><ele>527.0</ele><time>2026-04-06T12:26:57.999Z</time></trkpt><trkpt lat="45.645488835427834" lon="8.17144102713171"><ele>531.0</ele><time>2026-04-06T12:26:58.999Z</time></trkpt><trkpt lat="45.645340349479696" lon="8.17142286562394"><ele>535.0</ele><time>2026-04-06T12:26:59.999Z</time></trkpt><trkpt lat="45.645198632794425" lon="8.171415404383472"><ele>539.0</ele><time>2026-04-06T12:27:00.999Z</time></trkpt><trkpt lat="45.64505753498331" lon="8.171409773932082"><ele>539.0</ele><time>2026-04-06T12:27:01.999Z</time></trkpt><trkpt lat="45.644927472128614" lon="8.171392152471139"><ele>539.0</ele><time>2026-04-06T12:27:02.999Z</time></trkpt><trkpt lat="45.64480154527186" lon="8.17134568393488"><ele>539.0</ele><time>2026-04-06T12:27:03.999Z</time></trkpt><trkpt lat="45.64468257947109" lon="8.171253625715059"><ele>539.0</ele><time>2026-04-06T12:27:04.999Z</time></trkpt><trkpt lat="45.64457268871592" lon="8.171136529278593"><ele>539.0</ele><time>2026-04-06T12:27:05.999Z</time></trkpt><trkpt lat="45.64447806340698" lon="8.171015792571547"><ele>539.0</ele><time>2026-04-06T12:27:07Z</time></trkpt><trkpt lat="45.64439394575267" lon="8.170901078620084"><ele>539.0</ele><time>2026-04-06T12:27:08Z</time></trkpt><trkpt lat="45.64431464543976" lon="8.170770359647404"><ele>539.0</ele><time>2026-04-06T12:27:09Z</time></trkpt><trkpt lat="45.64426127276385" lon="8.170628777091279"><ele>538.25</ele><time>2026-04-06T12:27:10Z</time></trkpt><trkpt lat="45.64424721690888" lon="8.170479852066812"><ele>537.5</ele><time>2026-04-06T12:27:11Z</time></trkpt><trkpt lat="45.644265579495695" lon="8.170316170631843"><ele>536.75</ele><time>2026-04-06T12:27:12Z</time></trkpt><trkpt lat="45.64430390929689" lon="8.170149323419116"><ele>536.0</ele><time>2026-04-06T12:27:13Z</time></trkpt><trkpt lat="45.64434063987421" lon="8.169973584103586"><ele>537.0</ele><time>2026-04-06T12:27:14Z</time></trkpt><trkpt lat="45.64434542701275" lon="8.169798911228758"><ele>538.0</ele><time>2026-04-06T12:27:15Z</time></trkpt><trkpt lat="45.644305656061725" lon="8.16964330493042"><ele>539.0</ele><time>2026-04-06T12:27:16Z</time></trkpt><trkpt lat="45.64423360094257" lon="8.169499391167149"><ele>540.0</ele><time>2026-04-06T12:27:17Z</time></trkpt><trkpt lat="45.644145622784805" lon="8.16935465505673"><ele>540.0</ele><time>2026-04-06T12:27:18Z</time></trkpt><trkpt lat="45.644048108359385" lon="8.169206820557726"><ele>540.0</ele><time>2026-04-06T12:27:19Z</time></trkpt><trkpt lat="45.64395468384077" lon="8.169057306724037"><ele>540.0</ele><time>2026-04-06T12:27:20Z</time></trkpt><trkpt lat="45.643866504405295" lon="8.16891163913435"><ele>540.0</ele><time>2026-04-06T12:27:21Z</time></trkpt><trkpt lat="45.64378171336221" lon="8.16876896920152"><ele>539.5</ele><time>2026-04-06T12:27:22Z</time></trkpt><trkpt lat="45.64368907163023" lon="8.168615211864996"><ele>539.0</ele><time>2026-04-06T12:27:23Z</time></trkpt><trkpt lat="45.643593097107725" lon="8.168458014325644"><ele>538.5</ele><time>2026-04-06T12:27:24Z</time></trkpt><trkpt lat="45.64349118229864" lon="8.168293373790718"><ele>538.0</ele><time>2026-04-06T12:27:25Z</time></trkpt><trkpt lat="45.64338814169614" lon="8.168125580057925"><ele>541.0</ele><time>2026-04-06T12:27:26Z</time></trkpt><trkpt lat="45.643281978561454" lon="8.167954994441564"><ele>544.0</ele><time>2026-04-06T12:27:27Z</time></trkpt><trkpt lat="45.64317098448964" lon="8.167773296477382"><ele>547.0</ele><time>2026-04-06T12:27:28Z</time></trkpt><trkpt lat="45.643077881000096" lon="8.167604878979049"><ele>547.0</ele><time>2026-04-06T12:27:29Z</time></trkpt><trkpt lat="45.64301091191235" lon="8.167436729214888"><ele>547.0</ele><time>2026-04-06T12:27:30Z</time></trkpt><trkpt lat="45.642975554182236" lon="8.167265086447914"><ele>547.0</ele><time>2026-04-06T12:27:31Z</time></trkpt><trkpt lat="45.64296763004424" lon="8.16708861319772"><ele>547.0</ele><time>2026-04-06T12:27:32Z</time></trkpt><trkpt lat="45.642987570040376" lon="8.166902486561721"><ele>547.25</ele><time>2026-04-06T12:27:33Z</time></trkpt><trkpt lat="45.64302499032771" lon="8.166724030508922"><ele>547.5</ele><time>2026-04-06T12:27:34Z</time></trkpt><trkpt lat="45.64307669730139" lon="8.166552200037152"><ele>547.75</ele><time>2026-04-06T12:27:35Z</time></trkpt><trkpt lat="45.64313416624358" lon="8.16638061983099"><ele>548.0</ele><time>2026-04-06T12:27:36Z</time></trkpt><trkpt lat="45.64319135971918" lon="8.166212056673192"><ele>548.0</ele><time>2026-04-06T12:27:37Z</time></trkpt><trkpt lat="45.64323373609881" lon="8.166035482865965"><ele>548.0</ele><time>2026-04-06T12:27:38Z</time></trkpt><trkpt lat="45.64325405555214" lon="8.16584845287018"><ele>548.0</ele><time>2026-04-06T12:27:39Z</time></trkpt><trkpt lat="45.64325565770843" lon="8.165657137122462"><ele>548.0</ele><time>2026-04-06T12:27:40Z</time></trkpt><trkpt lat="45.64324955233773" lon="8.16546131941059"><ele>548.5</ele><time>2026-04-06T12:27:41Z</time></trkpt><trkpt lat="45.64324217655787" lon="8.165262161149506"><ele>549.0</ele><time>2026-04-06T12:27:42Z</time></trkpt><trkpt lat="45.64323652616949" lon="8.16506057588318"><ele>549.5</ele><time>2026-04-06T12:27:43Z</time></trkpt><trkpt lat="45.64323440202722" lon="8.164856110528055"><ele>550.0</ele><time>2026-04-06T12:27:44Z</time></trkpt><trkpt lat="45.64323475733738" lon="8.164643829840443"><ele>550.0</ele><time>2026-04-06T12:27:45Z</time></trkpt><trkpt lat="45.64322813247439" lon="8.164427427526213"><ele>550.0</ele><time>2026-04-06T12:27:46Z</time></trkpt><trkpt lat="45.64322202855775" lon="8.164200744318505"><ele>550.0</ele><time>2026-04-06T12:27:47Z</time></trkpt><trkpt lat="45.64321672344622" lon="8.163965156469413"><ele>550.6666666666667</ele><time>2026-04-06T12:27:48Z</time></trkpt><trkpt lat="45.64321315896331" lon="8.163740149347781"><ele>551.3333333333334</ele><time>2026-04-06T12:27:49Z</time></trkpt><trkpt lat="45.64321115642711" lon="8.163508568756175"><ele>552.0</ele><time>2026-04-06T12:27:50Z</time></trkpt><trkpt lat="45.64320540203979" lon="8.163273505457168"><ele>553.3333333333334</ele><time>2026-04-06T12:27:51Z</time></trkpt><trkpt lat="45.643188935741925" lon="8.163039579241131"><ele>554.6666666666667</ele><time>2026-04-06T12:27:52Z</time></trkpt><trkpt lat="45.6431613257555" lon="8.162806652609657"><ele>556.0</ele><time>2026-04-06T12:27:53Z</time></trkpt><trkpt lat="45.64312765794182" lon="8.162576096882205"><ele>556.6666666666667</ele><time>2026-04-06T12:27:54Z</time></trkpt><trkpt lat="45.64309080453392" lon="8.162354879399064"><ele>557.3333333333334</ele><time>2026-04-06T12:27:55Z</time></trkpt><trkpt lat="45.64304735916216" lon="8.162136895432782"><ele>558.0</ele><time>2026-04-06T12:27:56Z</time></trkpt><trkpt lat="45.64299005902342" lon="8.161934126720078"><ele>558.0</ele><time>2026-04-06T12:27:57Z</time></trkpt><trkpt lat="45.64291846499206" lon="8.161729851767513"><ele>558.0</ele><time>2026-04-06T12:27:58Z</time></trkpt><trkpt lat="45.64282990716919" lon="8.16153475705512"><ele>558.0</ele><time>2026-04-06T12:27:59Z</time></trkpt><trkpt lat="45.64272794304036" lon="8.161346942990969"><ele>559.3333333333334</ele><time>2026-04-06T12:28:00Z</time></trkpt><trkpt lat="45.64261171687988" lon="8.16116583394677"><ele>560.6666666666667</ele><time>2026-04-06T12:28:01Z</time></trkpt><trkpt lat="45.64248379687154" lon="8.16098776310021"><ele>562.0</ele><time>2026-04-06T12:28:02Z</time></trkpt><trkpt lat="45.642346226269915" lon="8.160814054278259"><ele>563.0</ele><time>2026-04-06T12:28:03Z</time></trkpt><trkpt lat="45.642208526416994" lon="8.160628805552447"><ele>564.0</ele><time>2026-04-06T12:28:04Z</time></trkpt><trkpt lat="45.64206768032482" lon="8.160441631364145"><ele>565.0</ele><time>2026-04-06T12:28:05Z</time></trkpt><trkpt lat="45.64192405173876" lon="8.160251847688121"><ele>565.0</ele><time>2026-04-06T12:28:06Z</time></trkpt><trkpt lat="45.64178968449411" lon="8.160040809446409"><ele>565.0</ele><time>2026-04-06T12:28:07Z</time></trkpt><trkpt lat="45.64164455783028" lon="8.159837821469267"><ele>565.0</ele><time>2026-04-06T12:28:08Z</time></trkpt><trkpt lat="45.641499707745226" lon="8.159627662116696"><ele>565.6666666666667</ele><time>2026-04-06T12:28:09Z</time></trkpt><trkpt lat="45.64135533123049" lon="8.159406497659965"><ele>566.3333333333334</ele><time>2026-04-06T12:28:10Z</time></trkpt><trkpt lat="45.64121595455648" lon="8.159174477960102"><ele>567.0</ele><time>2026-04-06T12:28:11Z</time></trkpt><trkpt lat="45.64108146536739" lon="8.158931309539087"><ele>567.0</ele><time>2026-04-06T12:28:12Z</time></trkpt><trkpt lat="45.64093694993482" lon="8.158700412797016"><ele>567.0</ele><time>2026-04-06T12:28:13Z</time></trkpt><trkpt lat="45.64080289861916" lon="8.158454272042007"><ele>567.0</ele><time>2026-04-06T12:28:14Z</time></trkpt><trkpt lat="45.640675438680816" lon="8.158201815687077"><ele>569.3333333333334</ele><time>2026-04-06T12:28:15Z</time></trkpt><trkpt lat="45.64054869750771" lon="8.157956281645944"><ele>571.6666666666667</ele><time>2026-04-06T12:28:16Z</time></trkpt><trkpt lat="45.64041620646255" lon="8.1577122538923"><ele>574.0</ele><time>2026-04-06T12:28:17Z</time></trkpt><trkpt lat="45.640283396597425" lon="8.157469004516361"><ele>579.3333333333334</ele><time>2026-04-06T12:28:18Z</time></trkpt><trkpt lat="45.640150642425084" lon="8.157234437447668"><ele>584.6666666666666</ele><time>2026-04-06T12:28:19Z</time></trkpt><trkpt lat="45.640017190883036" lon="8.156999449969277"><ele>590.0</ele><time>2026-04-06T12:28:20Z</time></trkpt><trkpt lat="45.63988320404521" lon="8.156764237493045"><ele>593.0</ele><time>2026-04-06T12:28:21Z</time></trkpt><trkpt lat="45.63974934439486" lon="8.156534728070989"><ele>596.0</ele><time>2026-04-06T12:28:22Z</time></trkpt><trkpt lat="45.639621836264716" lon="8.15630866571263"><ele>599.0</ele><time>2026-04-06T12:28:23Z</time></trkpt><trkpt lat="45.6394953466907" lon="8.156080437539616"><ele>599.6666666666666</ele><time>2026-04-06T12:28:24Z</time></trkpt><trkpt lat="45.63936525099935" lon="8.155853411604136"><ele>600.3333333333334</ele><time>2026-04-06T12:28:25Z</time></trkpt><trkpt lat="45.639233296870415" lon="8.155628831625702"><ele>601.0</ele><time>2026-04-06T12:28:26Z</time></trkpt><trkpt lat="45.63910784194299" lon="8.155397874853223"><ele>597.6666666666667</ele><time>2026-04-06T12:28:27Z</time></trkpt><trkpt lat="45.639000269432316" lon="8.1551295548957"><ele>594.3333333333334</ele><time>2026-04-06T12:28:28.063Z</time></trkpt><trkpt lat="45.63888858340919" lon="8.154900623298003"><ele>591.0</ele><time>2026-04-06T12:28:29.069Z</time></trkpt><trkpt lat="45.6387651311931" lon="8.15470079065337"><ele>557.0</ele><time>2026-04-06T12:28:30.064Z</time></trkpt><trkpt lat="45.63843485236044" lon="8.15419039438015"><ele>555.0</ele><time>2026-04-06T12:28:31.999Z</time></trkpt><trkpt lat="45.638351159111764" lon="8.154010660049009"><ele>553.0</ele><time>2026-04-06T12:28:32.999Z</time></trkpt><trkpt lat="45.63826734634644" lon="8.153795014422151"><ele>551.0</ele><time>2026-04-06T12:28:33.999Z</time></trkpt><trkpt lat="45.63818898850596" lon="8.15358115871656"><ele>551.0</ele><time>2026-04-06T12:28:34.999Z</time></trkpt><trkpt lat="45.63811305128357" lon="8.153362442757953"><ele>551.0</ele><time>2026-04-06T12:28:35.999Z</time></trkpt><trkpt lat="45.63804514632089" lon="8.153144719653357"><ele>551.0</ele><time>2026-04-06T12:28:36.999Z</time></trkpt><trkpt lat="45.63798217123695" lon="8.15292959538365"><ele>552.25</ele><time>2026-04-06T12:28:37.999Z</time></trkpt><trkpt lat="45.63792626202263" lon="8.152720859641398"><ele>553.5</ele><time>2026-04-06T12:28:38.999Z</time></trkpt><trkpt lat="45.63788429114427" lon="8.152537109925992"><ele>554.75</ele><time>2026-04-06T12:28:39.999Z</time></trkpt><trkpt lat="45.637862809843874" lon="8.152389965866739"><ele>556.0</ele><time>2026-04-06T12:28:40.999Z</time></trkpt><trkpt lat="45.637863063551926" lon="8.152273116617048"><ele>554.0</ele><time>2026-04-06T12:28:41.999Z</time></trkpt><trkpt lat="45.63788325176438" lon="8.152163216993031"><ele>552.0</ele><time>2026-04-06T12:28:43.999Z</time></trkpt><trkpt lat="45.637895868087554" lon="8.152024607233907"><ele>550.0</ele><time>2026-04-06T12:28:46.999Z</time></trkpt><trkpt lat="45.6378642861631" lon="8.151809465716772"><ele>548.0</ele><time>2026-04-06T12:28:48.999Z</time></trkpt><trkpt lat="45.63780583817892" lon="8.151707189197436"><ele>546.0</ele><time>2026-04-06T12:28:49.999Z</time></trkpt><trkpt lat="45.63775894148788" lon="8.151564307532198"><ele>547.25</ele><time>2026-04-06T12:28:50.999Z</time></trkpt><trkpt lat="45.63771957653572" lon="8.151409394084734"><ele>548.5</ele><time>2026-04-06T12:28:51.999Z</time></trkpt><trkpt lat="45.63768916446799" lon="8.151251972570073"><ele>549.75</ele><time>2026-04-06T12:28:52.999Z</time></trkpt><trkpt lat="45.63768084435046" lon="8.151086915010687"><ele>551.0</ele><time>2026-04-06T12:28:53.999Z</time></trkpt><trkpt lat="45.63763933984891" lon="8.150933048116286"><ele>551.0</ele><time>2026-04-06T12:28:54.999Z</time></trkpt><trkpt lat="45.63761394721125" lon="8.15076999878591"><ele>551.0</ele><time>2026-04-06T12:28:55.999Z</time></trkpt><trkpt lat="45.63758632245007" lon="8.150607717067508"><ele>551.0</ele><time>2026-04-06T12:28:56.999Z</time></trkpt><trkpt lat="45.637555122166624" lon="8.150452411626453"><ele>551.0</ele><time>2026-04-06T12:28:57.999Z</time></trkpt><trkpt lat="45.63753838626143" lon="8.150300796981226"><ele>552.2</ele><time>2026-04-06T12:28:58.999Z</time></trkpt><trkpt lat="45.637503356617344" lon="8.150169337390293"><ele>553.4000000000001</ele><time>2026-04-06T12:28:59.999Z</time></trkpt><trkpt lat="45.637434972167284" lon="8.150058224959183"><ele>554.6</ele><time>2026-04-06T12:29:00.999Z</time></trkpt><trkpt lat="45.637334005786485" lon="8.150002439163043"><ele>555.8000000000001</ele><time>2026-04-06T12:29:01.999Z</time></trkpt><trkpt lat="45.6372436811178" lon="8.149925430492775"><ele>557.0</ele><time>2026-04-06T12:29:02.999Z</time></trkpt><trkpt lat="45.637165333669955" lon="8.149813611296265"><ele>558.25</ele><time>2026-04-06T12:29:03.999Z</time></trkpt><trkpt lat="45.637100455283374" lon="8.149667655553094"><ele>559.5</ele><time>2026-04-06T12:29:04.999Z</time></trkpt><trkpt lat="45.63703815142675" lon="8.149503612552325"><ele>560.75</ele><time>2026-04-06T12:29:05.999Z</time></trkpt><trkpt lat="45.636966542112404" lon="8.149335259224623"><ele>562.0</ele><time>2026-04-06T12:29:06.999Z</time></trkpt><trkpt lat="45.636897698758624" lon="8.149165893601099"><ele>554.25</ele><time>2026-04-06T12:29:07.999Z</time></trkpt><trkpt lat="45.63683763480398" lon="8.14900264696168"><ele>546.5</ele><time>2026-04-06T12:29:08.999Z</time></trkpt><trkpt lat="45.6367977386673" lon="8.148860337644786"><ele>538.75</ele><time>2026-04-06T12:29:09.999Z</time></trkpt><trkpt lat="45.63678979660767" lon="8.148703191942744"><ele>531.0</ele><time>2026-04-06T12:29:10.999Z</time></trkpt><trkpt lat="45.63681801101396" lon="8.14851113326858"><ele>531.0</ele><time>2026-04-06T12:29:11.999Z</time></trkpt><trkpt lat="45.6368533256974" lon="8.148327522765376"><ele>531.0</ele><time>2026-04-06T12:29:13Z</time></trkpt><trkpt lat="45.63691578633109" lon="8.148172085694222"><ele>531.0</ele><time>2026-04-06T12:29:14Z</time></trkpt><trkpt lat="45.637004509752245" lon="8.148028769796134"><ele>531.0</ele><time>2026-04-06T12:29:15Z</time></trkpt><trkpt lat="45.63709243891834" lon="8.14788739706541"><ele>533.5</ele><time>2026-04-06T12:29:16Z</time></trkpt><trkpt lat="45.63716362251662" lon="8.147736865887511"><ele>536.0</ele><time>2026-04-06T12:29:17Z</time></trkpt><trkpt lat="45.63722360728312" lon="8.147577444643725"><ele>538.5</ele><time>2026-04-06T12:29:18Z</time></trkpt><trkpt lat="45.63729411628489" lon="8.147419514939562"><ele>541.0</ele><time>2026-04-06T12:29:19Z</time></trkpt><trkpt lat="45.63737688907389" lon="8.147265179328564"><ele>536.0</ele><time>2026-04-06T12:29:20Z</time></trkpt><trkpt lat="45.63745719450177" lon="8.147125863142405"><ele>531.0</ele><time>2026-04-06T12:29:21Z</time></trkpt><trkpt lat="45.637526085725405" lon="8.147018023236052"><ele>526.0</ele><time>2026-04-06T12:29:22Z</time></trkpt><trkpt lat="45.63760052752026" lon="8.146940377559591"><ele>521.0</ele><time>2026-04-06T12:29:23Z</time></trkpt><trkpt lat="45.63769619960677" lon="8.14689790658635"><ele>516.0</ele><time>2026-04-06T12:29:24Z</time></trkpt><trkpt lat="45.63780123888358" lon="8.146898143930203"><ele>517.5</ele><time>2026-04-06T12:29:25Z</time></trkpt><trkpt lat="45.637911196225495" lon="8.146941282757831"><ele>519.0</ele><time>2026-04-06T12:29:26Z</time></trkpt><trkpt lat="45.63802266963941" lon="8.146985806595067"><ele>520.5</ele><time>2026-04-06T12:29:27Z</time></trkpt><trkpt lat="45.63813491678127" lon="8.146999258711283"><ele>522.0</ele><time>2026-04-06T12:29:28Z</time></trkpt><trkpt lat="45.638245779228406" lon="8.146975795594942"><ele>522.0</ele><time>2026-04-06T12:29:29Z</time></trkpt><trkpt lat="45.638340711263496" lon="8.146894189055955"><ele>522.0</ele><time>2026-04-06T12:29:30Z</time></trkpt><trkpt lat="45.63842227114762" lon="8.146782714242086"><ele>522.0</ele><time>2026-04-06T12:29:31Z</time></trkpt><trkpt lat="45.6385053054176" lon="8.14665108925809"><ele>522.0</ele><time>2026-04-06T12:29:32Z</time></trkpt><trkpt lat="45.63860687309656" lon="8.146534981620885"><ele>524.25</ele><time>2026-04-06T12:29:33Z</time></trkpt><trkpt lat="45.638720198611594" lon="8.146448834099479"><ele>526.5</ele><time>2026-04-06T12:29:34Z</time></trkpt><trkpt lat="45.638819127128414" lon="8.146352602076323"><ele>528.75</ele><time>2026-04-06T12:29:35Z</time></trkpt><trkpt lat="45.63888998722025" lon="8.146214999766668"><ele>531.0</ele><time>2026-04-06T12:29:36Z</time></trkpt><trkpt lat="45.63894037123705" lon="8.146053691240848"><ele>531.0</ele><time>2026-04-06T12:29:37Z</time></trkpt><trkpt lat="45.63897595976547" lon="8.145889790577478"><ele>531.0</ele><time>2026-04-06T12:29:38Z</time></trkpt><trkpt lat="45.638995675150454" lon="8.14572991718228"><ele>531.0</ele><time>2026-04-06T12:29:39Z</time></trkpt><trkpt lat="45.63900148537595" lon="8.145578967574044"><ele>531.0</ele><time>2026-04-06T12:29:40Z</time></trkpt><trkpt lat="45.63899050323024" lon="8.145459462905862"><ele>531.0</ele><time>2026-04-06T12:29:41Z</time></trkpt><trkpt lat="45.63895717480619" lon="8.145365857949187"><ele>528.4</ele><time>2026-04-06T12:29:42Z</time></trkpt><trkpt lat="45.63890322017079" lon="8.145308884616957"><ele>525.8</ele><time>2026-04-06T12:29:43Z</time></trkpt><trkpt lat="45.638834780454985" lon="8.145302418248393"><ele>523.1999999999999</ele><time>2026-04-06T12:29:44Z</time></trkpt><trkpt lat="45.63875843852869" lon="8.145371803880035"><ele>520.6</ele><time>2026-04-06T12:29:45Z</time></trkpt><trkpt lat="45.63869359876736" lon="8.145511359576487"><ele>518.0</ele><time>2026-04-06T12:29:46Z</time></trkpt><trkpt lat="45.638631724787" lon="8.145693941786575"><ele>514.6666666666666</ele><time>2026-04-06T12:29:47Z</time></trkpt><trkpt lat="45.638507069511014" lon="8.14587605794622"><ele>511.33333333333337</ele><time>2026-04-06T12:29:48Z</time></trkpt><trkpt lat="45.638363880757204" lon="8.1460321051699"><ele>508.0</ele><time>2026-04-06T12:29:49Z</time></trkpt><trkpt lat="45.638230230397454" lon="8.146174777819525"><ele>508.0</ele><time>2026-04-06T12:29:50Z</time></trkpt><trkpt lat="45.638087956713605" lon="8.14628947724347"><ele>508.0</ele><time>2026-04-06T12:29:51Z</time></trkpt><trkpt lat="45.63792899504514" lon="8.146324766780525"><ele>508.0</ele><time>2026-04-06T12:29:52Z</time></trkpt><trkpt lat="45.63777043850753" lon="8.146314628138528"><ele>505.33333333333337</ele><time>2026-04-06T12:29:53Z</time></trkpt><trkpt lat="45.63762214502385" lon="8.1462622196688"><ele>502.66666666666663</ele><time>2026-04-06T12:29:54Z</time></trkpt><trkpt lat="45.63747902940932" lon="8.146179912042609"><ele>500.0</ele><time>2026-04-06T12:29:55Z</time></trkpt><trkpt lat="45.637329002729864" lon="8.146081598638705"><ele>500.0</ele><time>2026-04-06T12:29:56Z</time></trkpt><trkpt lat="45.63716514789263" lon="8.145974660907463"><ele>500.0</ele><time>2026-04-06T12:29:57Z</time></trkpt><trkpt lat="45.63701324946682" lon="8.145881659038096"><ele>500.0</ele><time>2026-04-06T12:29:58Z</time></trkpt><trkpt lat="45.63688089057355" lon="8.145817806703416"><ele>499.0</ele><time>2026-04-06T12:29:59Z</time></trkpt><trkpt lat="45.636759200496435" lon="8.145805546931092"><ele>498.0</ele><time>2026-04-06T12:30:00Z</time></trkpt><trkpt lat="45.63663824554135" lon="8.145859504241114"><ele>497.0</ele><time>2026-04-06T12:30:01Z</time></trkpt><trkpt lat="45.63652764083806" lon="8.1459764385749"><ele>496.0</ele><time>2026-04-06T12:30:02Z</time></trkpt><trkpt lat="45.63644921009657" lon="8.146132647323924"><ele>496.0</ele><time>2026-04-06T12:30:03Z</time></trkpt><trkpt lat="45.636417275819674" lon="8.146297168935343"><ele>496.0</ele><time>2026-04-06T12:30:04Z</time></trkpt><trkpt lat="45.63643876091907" lon="8.146491820330334"><ele>496.0</ele><time>2026-04-06T12:30:05Z</time></trkpt><trkpt lat="45.63645817289732" lon="8.146697966214319"><ele>496.0</ele><time>2026-04-06T12:30:06Z</time></trkpt><trkpt lat="45.636427795994074" lon="8.146885759395111"><ele>497.75</ele><time>2026-04-06T12:30:07Z</time></trkpt><trkpt lat="45.63633287018651" lon="8.147030747638656"><ele>499.5</ele><time>2026-04-06T12:30:08Z</time></trkpt><trkpt lat="45.63622915443738" lon="8.147179147313448"><ele>501.25</ele><time>2026-04-06T12:30:09Z</time></trkpt><trkpt lat="45.63611077489367" lon="8.147272372093994"><ele>503.0</ele><time>2026-04-06T12:30:10Z</time></trkpt><trkpt lat="45.63599703081978" lon="8.147300090134165"><ele>498.75</ele><time>2026-04-06T12:30:11Z</time></trkpt><trkpt lat="45.635891983607294" lon="8.147225648991574"><ele>494.5</ele><time>2026-04-06T12:30:12Z</time></trkpt><trkpt lat="45.63577816312344" lon="8.147131208198298"><ele>490.25</ele><time>2026-04-06T12:30:13Z</time></trkpt><trkpt lat="45.63564862260165" lon="8.147080219998827"><ele>486.0</ele><time>2026-04-06T12:30:14Z</time></trkpt><trkpt lat="45.635520850072545" lon="8.147085963989076"><ele>486.0</ele><time>2026-04-06T12:30:15Z</time></trkpt><trkpt lat="45.63539821554031" lon="8.147147316243993"><ele>486.0</ele><time>2026-04-06T12:30:16Z</time></trkpt><trkpt lat="45.63530533816939" lon="8.147244938195819"><ele>486.0</ele><time>2026-04-06T12:30:17Z</time></trkpt><trkpt lat="45.63524019801686" lon="8.147385778932964"><ele>486.0</ele><time>2026-04-06T12:30:18Z</time></trkpt><trkpt lat="45.635208263853364" lon="8.147554033209865"><ele>485.75</ele><time>2026-04-06T12:30:19Z</time></trkpt><trkpt lat="45.635195499667894" lon="8.147734284246459"><ele>485.5</ele><time>2026-04-06T12:30:20Z</time></trkpt><trkpt lat="45.63518842112741" lon="8.147916564550075"><ele>485.25</ele><time>2026-04-06T12:30:21Z</time></trkpt><trkpt lat="45.63518064023548" lon="8.148087455335634"><ele>485.0</ele><time>2026-04-06T12:30:22Z</time></trkpt><trkpt lat="45.63516054222164" lon="8.14826109975425"><ele>485.0</ele><time>2026-04-06T12:30:23Z</time></trkpt><trkpt lat="45.63512547826267" lon="8.14846138474074"><ele>485.0</ele><time>2026-04-06T12:30:24Z</time></trkpt><trkpt lat="45.63507709915044" lon="8.148654848217701"><ele>485.0</ele><time>2026-04-06T12:30:25Z</time></trkpt><trkpt lat="45.635020564765156" lon="8.148798691723945"><ele>485.0</ele><time>2026-04-06T12:30:26Z</time></trkpt><trkpt lat="45.634939492111116" lon="8.148899668122125"><ele>485.0</ele><time>2026-04-06T12:30:27Z</time></trkpt><trkpt lat="45.63483086030501" lon="8.148947960518031"><ele>485.0</ele><time>2026-04-06T12:30:27.999Z</time></trkpt><trkpt lat="45.634721177784805" lon="8.14892395569522"><ele>485.0</ele><time>2026-04-06T12:30:28.999Z</time></trkpt><trkpt lat="45.63461095884455" lon="8.148902633304033"><ele>485.0</ele><time>2026-04-06T12:30:29.999Z</time></trkpt><trkpt lat="45.634498679313594" lon="8.148901580316785"><ele>485.0</ele><time>2026-04-06T12:30:30.999Z</time></trkpt><trkpt lat="45.63439627713948" lon="8.148877518206225"><ele>482.0</ele><time>2026-04-06T12:30:31.999Z</time></trkpt><trkpt lat="45.634295043420785" lon="8.14885443899838"><ele>479.0</ele><time>2026-04-06T12:30:32.999Z</time></trkpt><trkpt lat="45.63419744950608" lon="8.148832870414351"><ele>476.0</ele><time>2026-04-06T12:30:33.999Z</time></trkpt><trkpt lat="45.63410593637986" lon="8.148811569924659"><ele>473.0</ele><time>2026-04-06T12:30:34.999Z</time></trkpt><trkpt lat="45.63401749055933" lon="8.148792889192919"><ele>470.0</ele><time>2026-04-06T12:30:35.999Z</time></trkpt><trkpt lat="45.6339272296723" lon="8.148769982927183"><ele>469.99999999999994</ele><time>2026-04-06T12:30:36.999Z</time></trkpt><trkpt lat="45.633838595125695" lon="8.148748293430014"><ele>470.0</ele><time>2026-04-06T12:30:37.999Z</time></trkpt><trkpt lat="45.63375105354223" lon="8.148729289504827"><ele>470.0</ele><time>2026-04-06T12:30:38.999Z</time></trkpt><trkpt lat="45.63366882011012" lon="8.14871502644134"><ele>470.0</ele><time>2026-04-06T12:30:39.999Z</time></trkpt><trkpt lat="45.633585900928246" lon="8.148710082695365"><ele>469.99999999999994</ele><time>2026-04-06T12:30:40.999Z</time></trkpt><trkpt lat="45.63350860134637" lon="8.148702422735356"><ele>470.0</ele><time>2026-04-06T12:30:41.999Z</time></trkpt><trkpt lat="45.63344372067534" lon="8.14876361865652"><ele>469.8333333333333</ele><time>2026-04-06T12:30:42.999Z</time></trkpt><trkpt lat="45.633376138147064" lon="8.148817435471319"><ele>469.66666666666663</ele><time>2026-04-06T12:30:43.999Z</time></trkpt><trkpt lat="45.633328384712875" lon="8.148896991441893"><ele>469.5</ele><time>2026-04-06T12:30:44.999Z</time></trkpt><trkpt lat="45.63328835722337" lon="8.148977977242039"><ele>469.33333333333337</ele><time>2026-04-06T12:30:45.999Z</time></trkpt><trkpt lat="45.63326074804464" lon="8.149073973465999"><ele>469.1666666666667</ele><time>2026-04-06T12:30:46.999Z</time></trkpt><trkpt lat="45.63324795216535" lon="8.149185169040646"><ele>469.0</ele><time>2026-04-06T12:30:47.999Z</time></trkpt><trkpt lat="45.63325422772708" lon="8.149306446796245"><ele>470.79999999999995</ele><time>2026-04-06T12:30:48.999Z</time></trkpt><trkpt lat="45.63328316317014" lon="8.14942197033096"><ele>472.59999999999997</ele><time>2026-04-06T12:30:49.999Z</time></trkpt><trkpt lat="45.633343964413136" lon="8.14951397633979"><ele>474.4</ele><time>2026-04-06T12:30:50.999Z</time></trkpt><trkpt lat="45.63342354306498" lon="8.149589283411432"><ele>476.2</ele><time>2026-04-06T12:30:51.999Z</time></trkpt><trkpt lat="45.63350758036133" lon="8.149662318355155"><ele>478.0</ele><time>2026-04-06T12:30:52.999Z</time></trkpt><trkpt lat="45.63359792983012" lon="8.1497514702102"><ele>479.5</ele><time>2026-04-06T12:30:53.999Z</time></trkpt><trkpt lat="45.63368845036551" lon="8.14984982028379"><ele>481.0</ele><time>2026-04-06T12:30:54.999Z</time></trkpt><trkpt lat="45.63377439965831" lon="8.149955195106447"><ele>482.5</ele><time>2026-04-06T12:30:55.999Z</time></trkpt><trkpt lat="45.63385378545637" lon="8.150074867568389"><ele>484.0</ele><time>2026-04-06T12:30:56.999Z</time></trkpt><trkpt lat="45.633928380729074" lon="8.150199468766099"><ele>484.0</ele><time>2026-04-06T12:30:57.999Z</time></trkpt><trkpt lat="45.6340034681273" lon="8.150319780737403"><ele>484.0</ele><time>2026-04-06T12:30:58.999Z</time></trkpt><trkpt lat="45.634083735549936" lon="8.150437815513412"><ele>484.0</ele><time>2026-04-06T12:30:59.999Z</time></trkpt><trkpt lat="45.6341644884448" lon="8.15055486107479"><ele>484.0</ele><time>2026-04-06T12:31:00.999Z</time></trkpt><trkpt lat="45.63423556412352" lon="8.150655693079237"><ele>484.0</ele><time>2026-04-06T12:31:01.999Z</time></trkpt><trkpt lat="45.63429309995439" lon="8.150738957276634"><ele>481.83333333333337</ele><time>2026-04-06T12:31:02.999Z</time></trkpt><trkpt lat="45.63434272474018" lon="8.150811455107082"><ele>479.6666666666667</ele><time>2026-04-06T12:31:03.999Z</time></trkpt><trkpt lat="45.6343816064492" lon="8.150883202204895"><ele>477.5</ele><time>2026-04-06T12:31:04.999Z</time></trkpt><trkpt lat="45.634399453216375" lon="8.151040808238905"><ele>475.33333333333337</ele><time>2026-04-06T12:31:06.999Z</time></trkpt><trkpt lat="45.63431867573039" lon="8.151149662460881"><ele>473.1666666666667</ele><time>2026-04-06T12:31:08.999Z</time></trkpt><trkpt lat="45.634251028691025" lon="8.151146272782912"><ele>471.0</ele><time>2026-04-06T12:31:09.999Z</time></trkpt><trkpt lat="45.63418495899049" lon="8.151104544887795"><ele>471.0</ele><time>2026-04-06T12:31:10.999Z</time></trkpt><trkpt lat="45.63411839335114" lon="8.151038780028351"><ele>471.0</ele><time>2026-04-06T12:31:11.999Z</time></trkpt><trkpt lat="45.634052476438384" lon="8.150961632978266"><ele>471.0</ele><time>2026-04-06T12:31:12.999Z</time></trkpt><trkpt lat="45.633986802791625" lon="8.150888808367704"><ele>471.0</ele><time>2026-04-06T12:31:13.999Z</time></trkpt><trkpt lat="45.633913470479115" lon="8.150818994812367"><ele>471.0</ele><time>2026-04-06T12:31:14.999Z</time></trkpt><trkpt lat="45.6338360946482" lon="8.150747644882088"><ele>471.0</ele><time>2026-04-06T12:31:15.999Z</time></trkpt><trkpt lat="45.63375081884619" lon="8.15067243012324"><ele>471.0</ele><time>2026-04-06T12:31:16.999Z</time></trkpt><trkpt lat="45.63366671876339" lon="8.150594184367261"><ele>471.0</ele><time>2026-04-06T12:31:18Z</time></trkpt><trkpt lat="45.63357822591104" lon="8.150515312088594"><ele>471.0</ele><time>2026-04-06T12:31:19Z</time></trkpt><trkpt lat="45.633486815754154" lon="8.150432238938293"><ele>471.0</ele><time>2026-04-06T12:31:20Z</time></trkpt><trkpt lat="45.63338831463179" lon="8.150353386680544"><ele>471.0</ele><time>2026-04-06T12:31:21Z</time></trkpt><trkpt lat="45.63328540510324" lon="8.150285918076628"><ele>471.0</ele><time>2026-04-06T12:31:22Z</time></trkpt><trkpt lat="45.633174691476725" lon="8.150239665798582"><ele>471.0</ele><time>2026-04-06T12:31:23Z</time></trkpt><trkpt lat="45.63305940696803" lon="8.150206813607838"><ele>471.0</ele><time>2026-04-06T12:31:24Z</time></trkpt><trkpt lat="45.63294486454801" lon="8.150174005068065"><ele>471.0</ele><time>2026-04-06T12:31:25Z</time></trkpt><trkpt lat="45.632831694128875" lon="8.150140667094574"><ele>468.25</ele><time>2026-04-06T12:31:26Z</time></trkpt><trkpt lat="45.63272077887012" lon="8.150099644366872"><ele>465.5</ele><time>2026-04-06T12:31:27Z</time></trkpt><trkpt lat="45.632610529626255" lon="8.150052084232456"><ele>462.75</ele><time>2026-04-06T12:31:28Z</time></trkpt><trkpt lat="45.632506879888076" lon="8.149987144856075"><ele>460.0</ele><time>2026-04-06T12:31:29Z</time></trkpt><trkpt lat="45.6324131283517" lon="8.149912902121818"><ele>459.00000000000006</ele><time>2026-04-06T12:31:30Z</time></trkpt><trkpt lat="45.632329885042665" lon="8.149846405804157"><ele>458.0</ele><time>2026-04-06T12:31:31Z</time></trkpt><trkpt lat="45.632252190878" lon="8.149787901702798"><ele>457.0</ele><time>2026-04-06T12:31:32Z</time></trkpt><trkpt lat="45.63217497342812" lon="8.149741201742298"><ele>456.0</ele><time>2026-04-06T12:31:33Z</time></trkpt><trkpt lat="45.63209699452893" lon="8.14971635761393"><ele>455.00000000000006</ele><time>2026-04-06T12:31:34Z</time></trkpt><trkpt lat="45.63201094158254" lon="8.149729366552526"><ele>454.0</ele><time>2026-04-06T12:31:35Z</time></trkpt><trkpt lat="45.63192087074965" lon="8.14978313756704"><ele>454.0</ele><time>2026-04-06T12:31:36Z</time></trkpt><trkpt lat="45.63182982557938" lon="8.14986073044424"><ele>454.0</ele><time>2026-04-06T12:31:37Z</time></trkpt><trkpt lat="45.63173704036803" lon="8.149959870894763"><ele>454.0</ele><time>2026-04-06T12:31:38Z</time></trkpt><trkpt lat="45.63164133344911" lon="8.150065739893046"><ele>454.0</ele><time>2026-04-06T12:31:39Z</time></trkpt><trkpt lat="45.631539476561834" lon="8.150177525205432"><ele>453.75</ele><time>2026-04-06T12:31:40Z</time></trkpt><trkpt lat="45.631430240626386" lon="8.150297599643261"><ele>453.5</ele><time>2026-04-06T12:31:41Z</time></trkpt><trkpt lat="45.631321992212484" lon="8.150408728941777"><ele>453.25</ele><time>2026-04-06T12:31:42Z</time></trkpt><trkpt lat="45.6312138421464" lon="8.150488714489406"><ele>453.0</ele><time>2026-04-06T12:31:43Z</time></trkpt><trkpt lat="45.63110113158286" lon="8.150519463467683"><ele>452.75</ele><time>2026-04-06T12:31:44Z</time></trkpt><trkpt lat="45.630981665076064" lon="8.150474133837692"><ele>452.5</ele><time>2026-04-06T12:31:45Z</time></trkpt><trkpt lat="45.63086205725418" lon="8.150390525163825"><ele>452.25</ele><time>2026-04-06T12:31:46Z</time></trkpt><trkpt lat="45.63074625716017" lon="8.150298388840865"><ele>452.0</ele><time>2026-04-06T12:31:47Z</time></trkpt><trkpt lat="45.63063577665811" lon="8.150212553961374"><ele>452.0</ele><time>2026-04-06T12:31:48Z</time></trkpt><trkpt lat="45.63052382237306" lon="8.150127291584631"><ele>452.0</ele><time>2026-04-06T12:31:49Z</time></trkpt><trkpt lat="45.63041375114454" lon="8.150040540939303"><ele>452.0</ele><time>2026-04-06T12:31:50Z</time></trkpt><trkpt lat="45.63030423579009" lon="8.149950253939455"><ele>452.0</ele><time>2026-04-06T12:31:51Z</time></trkpt><trkpt lat="45.63019567238043" lon="8.149852809013888"><ele>447.5</ele><time>2026-04-06T12:31:52Z</time></trkpt><trkpt lat="45.630090694833996" lon="8.149749528271709"><ele>443.0</ele><time>2026-04-06T12:31:53Z</time></trkpt><trkpt lat="45.62999353526428" lon="8.149643939511419"><ele>438.5</ele><time>2026-04-06T12:31:54Z</time></trkpt><trkpt lat="45.629898794177684" lon="8.149536166013581"><ele>434.0</ele><time>2026-04-06T12:31:55Z</time></trkpt><trkpt lat="45.629810310264745" lon="8.149434860109867"><ele>434.0</ele><time>2026-04-06T12:31:56Z</time></trkpt><trkpt lat="45.62972309131054" lon="8.149339548476695"><ele>434.0</ele><time>2026-04-06T12:31:57Z</time></trkpt><trkpt lat="45.62963166144688" lon="8.149260191729919"><ele>434.0</ele><time>2026-04-06T12:31:58Z</time></trkpt><trkpt lat="45.62952871533504" lon="8.149211680757576"><ele>434.0</ele><time>2026-04-06T12:31:59Z</time></trkpt><trkpt lat="45.62942210677799" lon="8.149209637460379"><ele>434.0</ele><time>2026-04-06T12:32:00Z</time></trkpt><trkpt lat="45.62931471356397" lon="8.14923538599158"><ele>430.0</ele><time>2026-04-06T12:32:01Z</time></trkpt><trkpt lat="45.629205409185595" lon="8.14927018120162"><ele>426.0</ele><time>2026-04-06T12:32:02Z</time></trkpt><trkpt lat="45.62908908734516" lon="8.149298693040514"><ele>422.0</ele><time>2026-04-06T12:32:03Z</time></trkpt><trkpt lat="45.62897156906319" lon="8.149331287298683"><ele>418.0</ele><time>2026-04-06T12:32:04Z</time></trkpt><trkpt lat="45.62885238632377" lon="8.149365158572976"><ele>418.0</ele><time>2026-04-06T12:32:05Z</time></trkpt><trkpt lat="45.62873537045644" lon="8.149405917793409"><ele>418.0</ele><time>2026-04-06T12:32:06Z</time></trkpt><trkpt lat="45.62862029641294" lon="8.149450496460316"><ele>418.0</ele><time>2026-04-06T12:32:07Z</time></trkpt><trkpt lat="45.62850712739369" lon="8.149501327517802"><ele>418.0</ele><time>2026-04-06T12:32:08Z</time></trkpt><trkpt lat="45.628396188035495" lon="8.149552903931093"><ele>415.75</ele><time>2026-04-06T12:32:09Z</time></trkpt><trkpt lat="45.62827724825619" lon="8.1496045811231"><ele>413.5</ele><time>2026-04-06T12:32:10Z</time></trkpt><trkpt lat="45.6281561292665" lon="8.149655800482309"><ele>411.25</ele><time>2026-04-06T12:32:11Z</time></trkpt><trkpt lat="45.62803577442558" lon="8.149714806231403"><ele>409.0</ele><time>2026-04-06T12:32:12Z</time></trkpt><trkpt lat="45.62791881260206" lon="8.149787399224378"><ele>409.25</ele><time>2026-04-06T12:32:13Z</time></trkpt><trkpt lat="45.627804979742315" lon="8.149876874052522"><ele>409.5</ele><time>2026-04-06T12:32:14Z</time></trkpt><trkpt lat="45.62769639395455" lon="8.149982022755763"><ele>409.75</ele><time>2026-04-06T12:32:15Z</time></trkpt><trkpt lat="45.627589391573544" lon="8.15008915495076"><ele>410.0</ele><time>2026-04-06T12:32:16Z</time></trkpt><trkpt lat="45.62748007888476" lon="8.150194747101494"><ele>410.0</ele><time>2026-04-06T12:32:17Z</time></trkpt><trkpt lat="45.627371357994505" lon="8.150304809133061"><ele>410.0</ele><time>2026-04-06T12:32:18Z</time></trkpt><trkpt lat="45.62726394475272" lon="8.150416049630106"><ele>410.0</ele><time>2026-04-06T12:32:19Z</time></trkpt><trkpt lat="45.62715947764127" lon="8.150531729320278"><ele>410.0</ele><time>2026-04-06T12:32:20Z</time></trkpt><trkpt lat="45.627061365847275" lon="8.150659871804546"><ele>408.75</ele><time>2026-04-06T12:32:21Z</time></trkpt><trkpt lat="45.62696925385694" lon="8.15079819339343"><ele>407.5</ele><time>2026-04-06T12:32:22Z</time></trkpt><trkpt lat="45.626877997100436" lon="8.150941667891734"><ele>406.25</ele><time>2026-04-06T12:32:23Z</time></trkpt><trkpt lat="45.62678699289681" lon="8.151088369831887"><ele>405.0</ele><time>2026-04-06T12:32:24Z</time></trkpt><trkpt lat="45.626692526895845" lon="8.151229530551031"><ele>405.0</ele><time>2026-04-06T12:32:25Z</time></trkpt><trkpt lat="45.62659298896902" lon="8.151354727111178"><ele>405.0</ele><time>2026-04-06T12:32:26Z</time></trkpt><trkpt lat="45.62648607248053" lon="8.151448168732157"><ele>405.0</ele><time>2026-04-06T12:32:27Z</time></trkpt><trkpt lat="45.62637236197182" lon="8.151511223410747"><ele>405.0</ele><time>2026-04-06T12:32:28Z</time></trkpt><trkpt lat="45.62625942380669" lon="8.151561153507817"><ele>404.8</ele><time>2026-04-06T12:32:29Z</time></trkpt><trkpt lat="45.62614967304553" lon="8.151594686060498"><ele>404.6</ele><time>2026-04-06T12:32:30Z</time></trkpt><trkpt lat="45.62603935516548" lon="8.151620202335161"><ele>404.4</ele><time>2026-04-06T12:32:31Z</time></trkpt><trkpt lat="45.62592963829632" lon="8.151634619893025"><ele>404.2</ele><time>2026-04-06T12:32:32Z</time></trkpt><trkpt lat="45.6258233302709" lon="8.151648115438768"><ele>404.0</ele><time>2026-04-06T12:32:33Z</time></trkpt><trkpt lat="45.62572005626676" lon="8.151660589938606"><ele>404.0</ele><time>2026-04-06T12:32:34Z</time></trkpt><trkpt lat="45.62562083715956" lon="8.151674796036483"><ele>404.0</ele><time>2026-04-06T12:32:34.999Z</time></trkpt><trkpt lat="45.62552953011945" lon="8.151706958507923"><ele>404.0</ele><time>2026-04-06T12:32:35.999Z</time></trkpt><trkpt lat="45.625440124750035" lon="8.151743022351035"><ele>404.0</ele><time>2026-04-06T12:32:36.999Z</time></trkpt><trkpt lat="45.625382785483886" lon="8.151855788748325"><ele>404.0</ele><time>2026-04-06T12:32:37.999Z</time></trkpt><trkpt lat="45.62534037958314" lon="8.151963596128416"><ele>404.2</ele><time>2026-04-06T12:32:38.999Z</time></trkpt><trkpt lat="45.62530869492596" lon="8.152079206211189"><ele>404.4</ele><time>2026-04-06T12:32:39.999Z</time></trkpt><trkpt lat="45.625276442285134" lon="8.152203891118909"><ele>404.6</ele><time>2026-04-06T12:32:40.999Z</time></trkpt><trkpt lat="45.62524648467346" lon="8.15233632172046"><ele>404.8</ele><time>2026-04-06T12:32:41.999Z</time></trkpt><trkpt lat="45.62521998825202" lon="8.152474484664507"><ele>405.0</ele><time>2026-04-06T12:32:42.999Z</time></trkpt><trkpt lat="45.625194938813415" lon="8.152607216471585"><ele>405.0</ele><time>2026-04-06T12:32:43.999Z</time></trkpt><trkpt lat="45.62514917926142" lon="8.152715198586368"><ele>405.0</ele><time>2026-04-06T12:32:44.999Z</time></trkpt><trkpt lat="45.6250858617285" lon="8.152796040909742"><ele>405.0</ele><time>2026-04-06T12:32:45.999Z</time></trkpt><trkpt lat="45.62501752465796" lon="8.152900965238805"><ele>405.0</ele><time>2026-04-06T12:32:46.999Z</time></trkpt><trkpt lat="45.62493591785282" lon="8.152982372840826"><ele>405.0</ele><time>2026-04-06T12:32:47.999Z</time></trkpt><trkpt lat="45.6248557414562" lon="8.153070369061526"><ele>405.0</ele><time>2026-04-06T12:32:48.999Z</time></trkpt><trkpt lat="45.62477656125677" lon="8.153160243148275"><ele>405.0</ele><time>2026-04-06T12:32:49.999Z</time></trkpt><trkpt lat="45.624699216229516" lon="8.153253390889589"><ele>405.0</ele><time>2026-04-06T12:32:50.999Z</time></trkpt><trkpt lat="45.624620936519484" lon="8.153344445911204"><ele>405.0</ele><time>2026-04-06T12:32:51.999Z</time></trkpt><trkpt lat="45.624540582201966" lon="8.15342905055009"><ele>405.0</ele><time>2026-04-06T12:32:52.999Z</time></trkpt><trkpt lat="45.62444719300699" lon="8.153480368991694"><ele>404.4</ele><time>2026-04-06T12:32:53.999Z</time></trkpt><trkpt lat="45.624358859307726" lon="8.153545938047701"><ele>403.8</ele><time>2026-04-06T12:32:54.999Z</time></trkpt><trkpt lat="45.624275518186224" lon="8.15361890512359"><ele>403.20000000000005</ele><time>2026-04-06T12:32:55.999Z</time></trkpt><trkpt lat="45.6242128425475" lon="8.153738975882556"><ele>402.6</ele><time>2026-04-06T12:32:56.999Z</time></trkpt><trkpt lat="45.62413570734612" lon="8.153816571307068"><ele>402.0</ele><time>2026-04-06T12:32:57.999Z</time></trkpt><trkpt lat="45.62405250399399" lon="8.153859426964953"><ele>402.0</ele><time>2026-04-06T12:32:58.999Z</time></trkpt><trkpt lat="45.62398432629495" lon="8.153856989913832"><ele>402.0</ele><time>2026-04-06T12:32:59.999Z</time></trkpt><trkpt lat="45.623903465519064" lon="8.153822077866373"><ele>402.0</ele><time>2026-04-06T12:33:01.999Z</time></trkpt><trkpt lat="45.623827913548986" lon="8.153764855598086"><ele>402.0</ele><time>2026-04-06T12:33:03.999Z</time></trkpt><trkpt lat="45.62372585849649" lon="8.153628702043264"><ele>402.0</ele><time>2026-04-06T12:33:05.999Z</time></trkpt><trkpt lat="45.623677409543795" lon="8.153542220695215"><ele>400.6666666666667</ele><time>2026-04-06T12:33:06.999Z</time></trkpt><trkpt lat="45.623617544430324" lon="8.153476453564396"><ele>399.33333333333337</ele><time>2026-04-06T12:33:07.999Z</time></trkpt><trkpt lat="45.62354699195707" lon="8.153448177359934"><ele>398.0</ele><time>2026-04-06T12:33:08.999Z</time></trkpt><trkpt lat="45.623476464201055" lon="8.153470340836416"><ele>396.6666666666667</ele><time>2026-04-06T12:33:09.999Z</time></trkpt><trkpt lat="45.62342087785044" lon="8.153539276333587"><ele>395.33333333333337</ele><time>2026-04-06T12:33:10.999Z</time></trkpt><trkpt lat="45.623369012876424" lon="8.153626877594998"><ele>394.0</ele><time>2026-04-06T12:33:11.999Z</time></trkpt><trkpt lat="45.623307386869826" lon="8.153713812043017"><ele>394.0</ele><time>2026-04-06T12:33:12.999Z</time></trkpt><trkpt lat="45.62322615744787" lon="8.153755340366843"><ele>394.0</ele><time>2026-04-06T12:33:13.999Z</time></trkpt><trkpt lat="45.623117181996754" lon="8.153764050395656"><ele>394.0</ele><time>2026-04-06T12:33:14.999Z</time></trkpt><trkpt lat="45.622987681498394" lon="8.15375603697941"><ele>394.0</ele><time>2026-04-06T12:33:15.999Z</time></trkpt><trkpt lat="45.622852581956934" lon="8.153757467087495"><ele>393.33333333333337</ele><time>2026-04-06T12:33:16.999Z</time></trkpt><trkpt lat="45.62271286247927" lon="8.153775503868223"><ele>392.66666666666663</ele><time>2026-04-06T12:33:17.999Z</time></trkpt><trkpt lat="45.62256416732992" lon="8.153815308107838"><ele>392.0</ele><time>2026-04-06T12:33:18.999Z</time></trkpt><trkpt lat="45.62241386715763" lon="8.153890290942568"><ele>392.0</ele><time>2026-04-06T12:33:19.999Z</time></trkpt><trkpt lat="45.62226355474587" lon="8.153999216704383"><ele>392.0</ele><time>2026-04-06T12:33:20.999Z</time></trkpt><trkpt lat="45.622117947881115" lon="8.154134372054267"><ele>392.0</ele><time>2026-04-06T12:33:21.999Z</time></trkpt><trkpt lat="45.62198040356695" lon="8.154304223529927"><ele>391.66666666666663</ele><time>2026-04-06T12:33:22.999Z</time></trkpt><trkpt lat="45.62184905708096" lon="8.154473849411326"><ele>391.33333333333337</ele><time>2026-04-06T12:33:24Z</time></trkpt><trkpt lat="45.62173572750904" lon="8.154627890983893"><ele>391.0</ele><time>2026-04-06T12:33:25Z</time></trkpt><trkpt lat="45.6216299972043" lon="8.15477452840811"><ele>394.0</ele><time>2026-04-06T12:33:26Z</time></trkpt><trkpt lat="45.62154217847372" lon="8.154944107183237"><ele>397.0</ele><time>2026-04-06T12:33:27Z</time></trkpt><trkpt lat="45.62149725670035" lon="8.155152322491722"><ele>400.0</ele><time>2026-04-06T12:33:28Z</time></trkpt><trkpt lat="45.621461309269506" lon="8.1553914718366"><ele>400.0</ele><time>2026-04-06T12:33:29Z</time></trkpt><trkpt lat="45.621422558579155" lon="8.155628219567205"><ele>400.0</ele><time>2026-04-06T12:33:30Z</time></trkpt><trkpt lat="45.621377191991776" lon="8.155855730803308"><ele>400.0</ele><time>2026-04-06T12:33:31Z</time></trkpt><trkpt lat="45.621341157221934" lon="8.156045187986102"><ele>403.25</ele><time>2026-04-06T12:33:32Z</time></trkpt><trkpt lat="45.62127571812873" lon="8.156201514434295"><ele>406.5</ele><time>2026-04-06T12:33:33Z</time></trkpt><trkpt lat="45.62121045079248" lon="8.156378112790128"><ele>409.75</ele><time>2026-04-06T12:33:34Z</time></trkpt><trkpt lat="45.62109369989094" lon="8.156537840142239"><ele>413.0</ele><time>2026-04-06T12:33:35Z</time></trkpt><trkpt lat="45.62097941753166" lon="8.156687156403445"><ele>403.66666666666663</ele><time>2026-04-06T12:33:36Z</time></trkpt><trkpt lat="45.62087043867786" lon="8.156895001110778"><ele>394.33333333333337</ele><time>2026-04-06T12:33:37Z</time></trkpt><trkpt lat="45.6207790458949" lon="8.157111671704246"><ele>385.0</ele><time>2026-04-06T12:33:38Z</time></trkpt><trkpt lat="45.620701540792574" lon="8.157347046311855"><ele>387.0</ele><time>2026-04-06T12:33:39Z</time></trkpt><trkpt lat="45.62064697049053" lon="8.157560250394495"><ele>389.0</ele><time>2026-04-06T12:33:40Z</time></trkpt><trkpt lat="45.620565703620855" lon="8.157740723547535"><ele>391.0</ele><time>2026-04-06T12:33:41Z</time></trkpt><trkpt lat="45.62051403296332" lon="8.15793092259818"><ele>391.0</ele><time>2026-04-06T12:33:42Z</time></trkpt><trkpt lat="45.62044736277347" lon="8.158087656937258"><ele>391.0</ele><time>2026-04-06T12:33:43Z</time></trkpt><trkpt lat="45.62036964035988" lon="8.1582333543795"><ele>391.0</ele><time>2026-04-06T12:33:44Z</time></trkpt><trkpt lat="45.62027364174197" lon="8.158343494981008"><ele>391.0</ele><time>2026-04-06T12:33:45Z</time></trkpt><trkpt lat="45.62021550454041" lon="8.158453766408343"><ele>389.0</ele><time>2026-04-06T12:33:46Z</time></trkpt><trkpt lat="45.62016234417116" lon="8.158519408472701"><ele>387.0</ele><time>2026-04-06T12:33:47Z</time></trkpt><trkpt lat="45.620051706135996" lon="8.158640996161111"><ele>385.0</ele><time>2026-04-06T12:33:49Z</time></trkpt><trkpt lat="45.619981045433704" lon="8.158724830931366"><ele>383.0</ele><time>2026-04-06T12:33:50Z</time></trkpt><trkpt lat="45.61988094604397" lon="8.158771237760948"><ele>381.0</ele><time>2026-04-06T12:33:51Z</time></trkpt><trkpt lat="45.619761586093105" lon="8.158828004796696"><ele>381.0</ele><time>2026-04-06T12:33:52Z</time></trkpt><trkpt lat="45.61962203251873" lon="8.158880591885978"><ele>381.0</ele><time>2026-04-06T12:33:53Z</time></trkpt><trkpt lat="45.619473702290165" lon="8.158936524911162"><ele>381.0</ele><time>2026-04-06T12:33:54Z</time></trkpt><trkpt lat="45.61931551351951" lon="8.15901710293525"><ele>381.6666666666667</ele><time>2026-04-06T12:33:55Z</time></trkpt><trkpt lat="45.61914032633767" lon="8.159057445383386"><ele>382.33333333333337</ele><time>2026-04-06T12:33:56Z</time></trkpt><trkpt lat="45.61896380181871" lon="8.159112733647676"><ele>383.0</ele><time>2026-04-06T12:33:57Z</time></trkpt><trkpt lat="45.61878064266443" lon="8.159164104078364"><ele>381.0</ele><time>2026-04-06T12:33:58Z</time></trkpt><trkpt lat="45.61860873940168" lon="8.159240211476819"><ele>379.0</ele><time>2026-04-06T12:33:59Z</time></trkpt><trkpt lat="45.61845910409317" lon="8.159285321186003"><ele>377.0</ele><time>2026-04-06T12:34:00Z</time></trkpt><trkpt lat="45.61832116138902" lon="8.159348560748636"><ele>377.0</ele><time>2026-04-06T12:34:01Z</time></trkpt><trkpt lat="45.6181919310656" lon="8.159453728613201"><ele>377.0</ele><time>2026-04-06T12:34:02Z</time></trkpt><trkpt lat="45.6180663946302" lon="8.159599032493364"><ele>377.0</ele><time>2026-04-06T12:34:03Z</time></trkpt><trkpt lat="45.61793788683471" lon="8.159771711026993"><ele>377.33333333333337</ele><time>2026-04-06T12:34:04Z</time></trkpt><trkpt lat="45.61779202214241" lon="8.159930768286474"><ele>377.6666666666667</ele><time>2026-04-06T12:34:05Z</time></trkpt><trkpt lat="45.61765315186081" lon="8.160107057493702"><ele>378.0</ele><time>2026-04-06T12:34:06Z</time></trkpt><trkpt lat="45.61751207899394" lon="8.16028614269727"><ele>378.0</ele><time>2026-04-06T12:34:07Z</time></trkpt><trkpt lat="45.617366273679764" lon="8.160473991513822"><ele>378.0</ele><time>2026-04-06T12:34:08Z</time></trkpt><trkpt lat="45.61722260417492" lon="8.160666079357467"><ele>378.0</ele><time>2026-04-06T12:34:09Z</time></trkpt><trkpt lat="45.617086745180565" lon="8.16086186021613"><ele>378.3333333333333</ele><time>2026-04-06T12:34:10Z</time></trkpt><trkpt lat="45.61698110388985" lon="8.161112751871023"><ele>378.66666666666663</ele><time>2026-04-06T12:34:11Z</time></trkpt><trkpt lat="45.61686347285682" lon="8.16135886627445"><ele>379.0</ele><time>2026-04-06T12:34:12Z</time></trkpt><trkpt lat="45.61675139229402" lon="8.161616368022674"><ele>379.0</ele><time>2026-04-06T12:34:13Z</time></trkpt><trkpt lat="45.61663976507941" lon="8.161878496539998"><ele>379.0</ele><time>2026-04-06T12:34:14Z</time></trkpt><trkpt lat="45.61652433907205" lon="8.162134670532717"><ele>379.0</ele><time>2026-04-06T12:34:15Z</time></trkpt><trkpt lat="45.61640776420356" lon="8.162377136209091"><ele>377.0</ele><time>2026-04-06T12:34:16Z</time></trkpt><trkpt lat="45.61628989970409" lon="8.162606354448151"><ele>375.0</ele><time>2026-04-06T12:34:17Z</time></trkpt><trkpt lat="45.6161709808305" lon="8.16281234368893"><ele>373.0</ele><time>2026-04-06T12:34:18Z</time></trkpt><trkpt lat="45.6160308847164" lon="8.16298702364568"><ele>373.0</ele><time>2026-04-06T12:34:19Z</time></trkpt><trkpt lat="45.6158576186348" lon="8.163114975651569"><ele>373.0</ele><time>2026-04-06T12:34:20Z</time></trkpt><trkpt lat="45.615674499782095" lon="8.163241886747231"><ele>373.0</ele><time>2026-04-06T12:34:21Z</time></trkpt><trkpt lat="45.61548184232463" lon="8.163359519101595"><ele>372.3333333333333</ele><time>2026-04-06T12:34:22Z</time></trkpt><trkpt lat="45.61529091930502" lon="8.163501850647854"><ele>371.6666666666667</ele><time>2026-04-06T12:34:23Z</time></trkpt><trkpt lat="45.61510263491109" lon="8.163628073436508"><ele>371.0</ele><time>2026-04-06T12:34:24Z</time></trkpt><trkpt lat="45.61492821503168" lon="8.163765894399674"><ele>371.0</ele><time>2026-04-06T12:34:25Z</time></trkpt><trkpt lat="45.61475495237852" lon="8.163922705866044"><ele>371.0</ele><time>2026-04-06T12:34:26Z</time></trkpt><trkpt lat="45.61458831323625" lon="8.164104596965277"><ele>371.0</ele><time>2026-04-06T12:34:27Z</time></trkpt><trkpt lat="45.614426574068816" lon="8.164307322876855"><ele>369.6666666666667</ele><time>2026-04-06T12:34:28Z</time></trkpt><trkpt lat="45.61426794569812" lon="8.164517858778705"><ele>368.3333333333333</ele><time>2026-04-06T12:34:29Z</time></trkpt><trkpt lat="45.614102385574576" lon="8.164705674192179"><ele>367.0</ele><time>2026-04-06T12:34:30Z</time></trkpt><trkpt lat="45.61397012053034" lon="8.16492876722634"><ele>366.0</ele><time>2026-04-06T12:34:31Z</time></trkpt><trkpt lat="45.61382238435919" lon="8.165133382779775"><ele>365.0</ele><time>2026-04-06T12:34:32Z</time></trkpt><trkpt lat="45.613664445523376" lon="8.165348052501283"><ele>364.0</ele><time>2026-04-06T12:34:33Z</time></trkpt><trkpt lat="45.61351629752865" lon="8.165570937522997"><ele>366.3333333333333</ele><time>2026-04-06T12:34:34Z</time></trkpt><trkpt lat="45.613348902906175" lon="8.165757858771343"><ele>368.6666666666667</ele><time>2026-04-06T12:34:35Z</time></trkpt><trkpt lat="45.61317675987628" lon="8.165951980555405"><ele>371.0</ele><time>2026-04-06T12:34:36Z</time></trkpt><trkpt lat="45.61300309206411" lon="8.166146170261383"><ele>371.0</ele><time>2026-04-06T12:34:37Z</time></trkpt><trkpt lat="45.612838121443254" lon="8.166330635046917"><ele>371.0</ele><time>2026-04-06T12:34:38Z</time></trkpt><trkpt lat="45.61267488846491" lon="8.166518377990128"><ele>371.0</ele><time>2026-04-06T12:34:38.999Z</time></trkpt><trkpt lat="45.61251311825401" lon="8.166719802294065"><ele>370.0</ele><time>2026-04-06T12:34:39.999Z</time></trkpt><trkpt lat="45.612350626597106" lon="8.166924617720449"><ele>369.0</ele><time>2026-04-06T12:34:40.999Z</time></trkpt><trkpt lat="45.612185251699515" lon="8.167125415204868"><ele>368.0</ele><time>2026-04-06T12:34:41.999Z</time></trkpt><trkpt lat="45.612018198943424" lon="8.167329509589994"><ele>366.6666666666667</ele><time>2026-04-06T12:34:42.999Z</time></trkpt><trkpt lat="45.61185302619647" lon="8.167536646341992"><ele>365.3333333333333</ele><time>2026-04-06T12:34:43.999Z</time></trkpt><trkpt lat="45.61169391935471" lon="8.167731731824112"><ele>364.0</ele><time>2026-04-06T12:34:44.999Z</time></trkpt><trkpt lat="45.611531123085726" lon="8.167931341062829"><ele>364.0</ele><time>2026-04-06T12:34:45.999Z</time></trkpt><trkpt lat="45.61140821239511" lon="8.168200936263041"><ele>364.0</ele><time>2026-04-06T12:34:46.999Z</time></trkpt><trkpt lat="45.611277052173904" lon="8.168459607341145"><ele>364.0</ele><time>2026-04-06T12:34:47.999Z</time></trkpt><trkpt lat="45.61114807352301" lon="8.168711975651638"><ele>364.0</ele><time>2026-04-06T12:34:48.999Z</time></trkpt><trkpt lat="45.61102150285668" lon="8.168960029161962"><ele>364.0</ele><time>2026-04-06T12:34:49.999Z</time></trkpt><trkpt lat="45.61089319294206" lon="8.169210752021906"><ele>364.0</ele><time>2026-04-06T12:34:50.999Z</time></trkpt><trkpt lat="45.61076189326865" lon="8.169465791621091"><ele>364.0</ele><time>2026-04-06T12:34:51.999Z</time></trkpt><trkpt lat="45.61063081737917" lon="8.169710747603283"><ele>364.0</ele><time>2026-04-06T12:34:52.999Z</time></trkpt><trkpt lat="45.61049660159105" lon="8.169956202894916"><ele>364.0</ele><time>2026-04-06T12:34:53.999Z</time></trkpt><trkpt lat="45.61036470029183" lon="8.170207243780316"><ele>365.0</ele><time>2026-04-06T12:34:54.999Z</time></trkpt><trkpt lat="45.61024179613044" lon="8.170436052164243"><ele>366.0</ele><time>2026-04-06T12:34:55.999Z</time></trkpt><trkpt lat="45.610095757306254" lon="8.170631283998821"><ele>367.0</ele><time>2026-04-06T12:34:56.999Z</time></trkpt><trkpt lat="45.609912403572785" lon="8.170783811961787"><ele>367.0</ele><time>2026-04-06T12:34:57.999Z</time></trkpt><trkpt lat="45.60972548569409" lon="8.170954802272522"><ele>367.0</ele><time>2026-04-06T12:34:58.999Z</time></trkpt><trkpt lat="45.609539403894296" lon="8.171146024051527"><ele>375.5</ele><time>2026-04-06T12:34:59.999Z</time></trkpt><trkpt lat="45.60934472380202" lon="8.171322884897831"><ele>384.0</ele><time>2026-04-06T12:35:00.999Z</time></trkpt><trkpt lat="45.60914857800061" lon="8.17147823310459"><ele>374.6666666666667</ele><time>2026-04-06T12:35:01.999Z</time></trkpt><trkpt lat="45.60896829277409" lon="8.171647956173132"><ele>365.33333333333337</ele><time>2026-04-06T12:35:02.999Z</time></trkpt><trkpt lat="45.60881051644785" lon="8.171841300215554"><ele>356.0</ele><time>2026-04-06T12:35:03.999Z</time></trkpt><trkpt lat="45.60868439473245" lon="8.17208411589049"><ele>358.6666666666667</ele><time>2026-04-06T12:35:04.999Z</time></trkpt><trkpt lat="45.60856156080526" lon="8.172312975618382"><ele>361.3333333333333</ele><time>2026-04-06T12:35:05.999Z</time></trkpt><trkpt lat="45.60844805010137" lon="8.172523340637479"><ele>364.0</ele><time>2026-04-06T12:35:06.999Z</time></trkpt><trkpt lat="45.60842698581997" lon="8.172783966207431"><ele>364.0</ele><time>2026-04-06T12:35:07.999Z</time></trkpt><trkpt lat="45.60841914912381" lon="8.17304321238613"><ele>364.0</ele><time>2026-04-06T12:35:08.999Z</time></trkpt><trkpt lat="45.60842796930601" lon="8.173319412635802"><ele>364.0</ele><time>2026-04-06T12:35:09.999Z</time></trkpt><trkpt lat="45.60843970070251" lon="8.173606969066558"><ele>363.0</ele><time>2026-04-06T12:35:10.999Z</time></trkpt><trkpt lat="45.6084334557769" lon="8.173900425737516"><ele>362.0</ele><time>2026-04-06T12:35:11.999Z</time></trkpt><trkpt lat="45.60843345577607" lon="8.17420097513504"><ele>361.0</ele><time>2026-04-06T12:35:12.999Z</time></trkpt><trkpt lat="45.60843345577526" lon="8.174492474625008"><ele>364.5</ele><time>2026-04-06T12:35:13.999Z</time></trkpt><trkpt lat="45.60844256516433" lon="8.17477972352555"><ele>368.0</ele><time>2026-04-06T12:35:14.999Z</time></trkpt><trkpt lat="45.608715078223604" lon="8.175066288380581"><ele>360.0</ele><time>2026-04-06T12:35:15.999Z</time></trkpt><trkpt lat="45.60882044738442" lon="8.175357769006556"><ele>352.0</ele><time>2026-04-06T12:35:16.999Z</time></trkpt><trkpt lat="45.60892347445118" lon="8.17565342330413"><ele>351.3333333333333</ele><time>2026-04-06T12:35:17.999Z</time></trkpt><trkpt lat="45.60902636634779" lon="8.175944382211805"><ele>350.6666666666667</ele><time>2026-04-06T12:35:18.999Z</time></trkpt><trkpt lat="45.60912511471201" lon="8.176225239754785"><ele>350.0</ele><time>2026-04-06T12:35:19.999Z</time></trkpt><trkpt lat="45.609219793040054" lon="8.176495559274702"><ele>352.33333333333337</ele><time>2026-04-06T12:35:20.999Z</time></trkpt><trkpt lat="45.60929486764308" lon="8.176727405492437"><ele>354.6666666666667</ele><time>2026-04-06T12:35:21.999Z</time></trkpt><trkpt lat="45.609332788084416" lon="8.176919346117485"><ele>357.0</ele><time>2026-04-06T12:35:22.999Z</time></trkpt><trkpt lat="45.609335935158995" lon="8.177131427347089"><ele>357.0</ele><time>2026-04-06T12:35:23.999Z</time></trkpt><trkpt lat="45.60928596361227" lon="8.177331708693368"><ele>357.0</ele><time>2026-04-06T12:35:24.999Z</time></trkpt><trkpt lat="45.60920879227202" lon="8.177524632692966"><ele>357.0</ele><time>2026-04-06T12:35:25.999Z</time></trkpt><trkpt lat="45.60908305569504" lon="8.177677609974795"><ele>354.6666666666667</ele><time>2026-04-06T12:35:26.999Z</time></trkpt><trkpt lat="45.60891715439774" lon="8.17778576135486"><ele>352.33333333333337</ele><time>2026-04-06T12:35:27.999Z</time></trkpt><trkpt lat="45.60874171782567" lon="8.177889518141022"><ele>350.0</ele><time>2026-04-06T12:35:28.999Z</time></trkpt><trkpt lat="45.608561259703485" lon="8.178023608898695"><ele>352.0</ele><time>2026-04-06T12:35:30Z</time></trkpt><trkpt lat="45.60839782071981" lon="8.178215572709622"><ele>354.0</ele><time>2026-04-06T12:35:31Z</time></trkpt><trkpt lat="45.60825167093918" lon="8.178425429252878"><ele>356.0</ele><time>2026-04-06T12:35:32Z</time></trkpt><trkpt lat="45.6081117651345" lon="8.178667118083522"><ele>356.0</ele><time>2026-04-06T12:35:33Z</time></trkpt><trkpt lat="45.60797772850593" lon="8.178925072765859"><ele>356.0</ele><time>2026-04-06T12:35:34Z</time></trkpt><trkpt lat="45.60785047896971" lon="8.179196278316805"><ele>356.5</ele><time>2026-04-06T12:35:35Z</time></trkpt><trkpt lat="45.60771806716044" lon="8.179477016683407"><ele>357.0</ele><time>2026-04-06T12:35:36Z</time></trkpt><trkpt lat="45.60758250372745" lon="8.179757645911772"><ele>350.0</ele><time>2026-04-06T12:35:37Z</time></trkpt><trkpt lat="45.6074600540506" lon="8.180028953593826"><ele>343.0</ele><time>2026-04-06T12:35:38Z</time></trkpt><trkpt lat="45.6073451010082" lon="8.180315260054332"><ele>343.0</ele><time>2026-04-06T12:35:39Z</time></trkpt><trkpt lat="45.607251760519326" lon="8.180567029666983"><ele>343.0</ele><time>2026-04-06T12:35:40Z</time></trkpt><trkpt lat="45.6071772906048" lon="8.180765394380032"><ele>343.0</ele><time>2026-04-06T12:35:41Z</time></trkpt><trkpt lat="45.60709815650575" lon="8.180924788638425"><ele>343.75</ele><time>2026-04-06T12:35:42Z</time></trkpt><trkpt lat="45.6069970299069" lon="8.181039353213228"><ele>344.5</ele><time>2026-04-06T12:35:43Z</time></trkpt><trkpt lat="45.60686827778892" lon="8.18110247128148"><ele>345.25</ele><time>2026-04-06T12:35:44Z</time></trkpt><trkpt lat="45.60671331067732" lon="8.181110514659396"><ele>346.0</ele><time>2026-04-06T12:35:45Z</time></trkpt><trkpt lat="45.60653692530838" lon="8.181087784811055"><ele>346.0</ele><time>2026-04-06T12:35:46Z</time></trkpt><trkpt lat="45.60635557322852" lon="8.181074466831936"><ele>346.0</ele><time>2026-04-06T12:35:47Z</time></trkpt><trkpt lat="45.606207161726545" lon="8.181072705839956"><ele>346.0</ele><time>2026-04-06T12:35:48Z</time></trkpt><trkpt lat="45.60606942532934" lon="8.181129561153686"><ele>350.0</ele><time>2026-04-06T12:35:49Z</time></trkpt><trkpt lat="45.60591867245131" lon="8.181232303421792"><ele>354.0</ele><time>2026-04-06T12:35:50Z</time></trkpt><trkpt lat="45.6057598205118" lon="8.181364368001564"><ele>358.0</ele><time>2026-04-06T12:35:51Z</time></trkpt><trkpt lat="45.60558269421523" lon="8.18149778591108"><ele>354.0</ele><time>2026-04-06T12:35:52Z</time></trkpt><trkpt lat="45.605400064780774" lon="8.181623263823282"><ele>350.0</ele><time>2026-04-06T12:35:53Z</time></trkpt><trkpt lat="45.60521125766487" lon="8.181749568811657"><ele>346.0</ele><time>2026-04-06T12:35:54Z</time></trkpt><trkpt lat="45.60501764585539" lon="8.181877344961368"><ele>346.0</ele><time>2026-04-06T12:35:55Z</time></trkpt><trkpt lat="45.60481739909587" lon="8.182011826647843"><ele>346.0</ele><time>2026-04-06T12:35:56Z</time></trkpt><trkpt lat="45.604623570382856" lon="8.182133735969554"><ele>346.0</ele><time>2026-04-06T12:35:57Z</time></trkpt><trkpt lat="45.6044399135665" lon="8.182220465824622"><ele>347.3333333333333</ele><time>2026-04-06T12:35:58Z</time></trkpt><trkpt lat="45.60423846964523" lon="8.182255361582357"><ele>348.6666666666667</ele><time>2026-04-06T12:35:59Z</time></trkpt><trkpt lat="45.60402340081018" lon="8.182271875039028"><ele>350.0</ele><time>2026-04-06T12:36:00Z</time></trkpt><trkpt lat="45.60380500602405" lon="8.182292493831483"><ele>343.0</ele><time>2026-04-06T12:36:01Z</time></trkpt><trkpt lat="45.60357764884486" lon="8.182317948854163"><ele>336.0</ele><time>2026-04-06T12:36:02Z</time></trkpt><trkpt lat="45.6033467160395" lon="8.182356698512804"><ele>329.0</ele><time>2026-04-06T12:36:03Z</time></trkpt><trkpt lat="45.60312399830932" lon="8.182417024813812"><ele>322.0</ele><time>2026-04-06T12:36:04Z</time></trkpt><trkpt lat="45.60290170641635" lon="8.18249359996889"><ele>325.0</ele><time>2026-04-06T12:36:05Z</time></trkpt><trkpt lat="45.602672404198785" lon="8.182580699358695"><ele>328.0</ele><time>2026-04-06T12:36:06Z</time></trkpt><trkpt lat="45.60245651029956" lon="8.182656757335112"><ele>328.0</ele><time>2026-04-06T12:36:07Z</time></trkpt><trkpt lat="45.602260302249135" lon="8.182710755565962"><ele>328.0</ele><time>2026-04-06T12:36:08Z</time></trkpt><trkpt lat="45.60206182515186" lon="8.182727303668841"><ele>328.0</ele><time>2026-04-06T12:36:09Z</time></trkpt><trkpt lat="45.60185185310726" lon="8.182695776181182"><ele>327.66666666666663</ele><time>2026-04-06T12:36:10Z</time></trkpt><trkpt lat="45.601636750424284" lon="8.182627745048968"><ele>327.3333333333333</ele><time>2026-04-06T12:36:11Z</time></trkpt><trkpt lat="45.60141590988295" lon="8.182553584941447"><ele>327.0</ele><time>2026-04-06T12:36:12Z</time></trkpt><trkpt lat="45.60118923203271" lon="8.182485273908425"><ele>323.0</ele><time>2026-04-06T12:36:13Z</time></trkpt><trkpt lat="45.600959550949185" lon="8.18242270027382"><ele>319.0</ele><time>2026-04-06T12:36:14Z</time></trkpt><trkpt lat="45.600726312919875" lon="8.182362470296718"><ele>321.0</ele><time>2026-04-06T12:36:15Z</time></trkpt><trkpt lat="45.60049849578474" lon="8.182302368919695"><ele>323.0</ele><time>2026-04-06T12:36:16Z</time></trkpt><trkpt lat="45.600276539009" lon="8.182240522511075"><ele>323.0</ele><time>2026-04-06T12:36:17Z</time></trkpt><trkpt lat="45.60007157286192" lon="8.18218027136092"><ele>323.0</ele><time>2026-04-06T12:36:18Z</time></trkpt><trkpt lat="45.599895900419185" lon="8.18212771693947"><ele>323.0</ele><time>2026-04-06T12:36:19Z</time></trkpt><trkpt lat="45.599738597414984" lon="8.182077340332057"><ele>323.0</ele><time>2026-04-06T12:36:20Z</time></trkpt><trkpt lat="45.599606398586175" lon="8.182019214551584"><ele>323.0</ele><time>2026-04-06T12:36:21Z</time></trkpt><trkpt lat="45.59950267559786" lon="8.18194811942375"><ele>323.0</ele><time>2026-04-06T12:36:22Z</time></trkpt><trkpt lat="45.599415090414645" lon="8.181860291871008"><ele>323.0</ele><time>2026-04-06T12:36:23Z</time></trkpt><trkpt lat="45.59933937994273" lon="8.181763472668921"><ele>321.2</ele><time>2026-04-06T12:36:24Z</time></trkpt><trkpt lat="45.599266779233886" lon="8.18169840189974"><ele>319.4</ele><time>2026-04-06T12:36:25Z</time></trkpt><trkpt lat="45.59919409456798" lon="8.181697392414161"><ele>317.59999999999997</ele><time>2026-04-06T12:36:26Z</time></trkpt><trkpt lat="45.5991233294661" lon="8.181754567611645"><ele>315.79999999999995</ele><time>2026-04-06T12:36:27Z</time></trkpt><trkpt lat="45.599049134259054" lon="8.181861364352649"><ele>314.0</ele><time>2026-04-06T12:36:28Z</time></trkpt><trkpt lat="45.598969349225335" lon="8.181976548002437"><ele>314.0</ele><time>2026-04-06T12:36:29Z</time></trkpt><trkpt lat="45.59887371637231" lon="8.18204172624285"><ele>314.0</ele><time>2026-04-06T12:36:30Z</time></trkpt><trkpt lat="45.59876073294558" lon="8.182031158689012"><ele>314.0</ele><time>2026-04-06T12:36:31Z</time></trkpt><trkpt lat="45.59863265592257" lon="8.182042955593904"><ele>314.0</ele><time>2026-04-06T12:36:32Z</time></trkpt><trkpt lat="45.598491835688435" lon="8.182014843558878"><ele>315.0</ele><time>2026-04-06T12:36:33Z</time></trkpt><trkpt lat="45.59833829658244" lon="8.181999775531194"><ele>316.0</ele><time>2026-04-06T12:36:34Z</time></trkpt><trkpt lat="45.59820223270628" lon="8.181990333968638"><ele>317.0</ele><time>2026-04-06T12:36:35Z</time></trkpt><trkpt lat="45.59807847332677" lon="8.181961074271562"><ele>318.0</ele><time>2026-04-06T12:36:36Z</time></trkpt><trkpt lat="45.59795585902669" lon="8.18194862378676"><ele>318.5</ele><time>2026-04-06T12:36:37Z</time></trkpt><trkpt lat="45.597830667256524" lon="8.181949911486727"><ele>319.0</ele><time>2026-04-06T12:36:38Z</time></trkpt><trkpt lat="45.59769721910965" lon="8.181987675207008"><ele>319.5</ele><time>2026-04-06T12:36:39Z</time></trkpt><trkpt lat="45.59757188684707" lon="8.182129344592592"><ele>320.0</ele><time>2026-04-06T12:36:40Z</time></trkpt><trkpt lat="45.597433564725144" lon="8.182265100487488"><ele>316.0</ele><time>2026-04-06T12:36:41Z</time></trkpt><trkpt lat="45.597295429858185" lon="8.182391446773956"><ele>312.0</ele><time>2026-04-06T12:36:42Z</time></trkpt><trkpt lat="45.59716294391362" lon="8.182485928680425"><ele>308.0</ele><time>2026-04-06T12:36:43Z</time></trkpt><trkpt lat="45.59702500932342" lon="8.18255913661408"><ele>309.6666666666667</ele><time>2026-04-06T12:36:44Z</time></trkpt><trkpt lat="45.59688428699367" lon="8.182610288382843"><ele>311.3333333333333</ele><time>2026-04-06T12:36:45Z</time></trkpt><trkpt lat="45.596740155209794" lon="8.182651722514699"><ele>313.0</ele><time>2026-04-06T12:36:46Z</time></trkpt><trkpt lat="45.59658056959348" lon="8.182679600312781"><ele>313.0</ele><time>2026-04-06T12:36:46.999Z</time></trkpt><trkpt lat="45.596420258202386" lon="8.18269415485573"><ele>313.0</ele><time>2026-04-06T12:36:47.999Z</time></trkpt><trkpt lat="45.59626857726711" lon="8.18269674590292"><ele>313.0</ele><time>2026-04-06T12:36:48.999Z</time></trkpt><trkpt lat="45.59611956892262" lon="8.182695673480099"><ele>313.0</ele><time>2026-04-06T12:36:49.999Z</time></trkpt><trkpt lat="45.595971281288925" lon="8.182674049467026"><ele>313.0</ele><time>2026-04-06T12:36:50.999Z</time></trkpt><trkpt lat="45.59582545402747" lon="8.182706509747069"><ele>313.0</ele><time>2026-04-06T12:36:51.999Z</time></trkpt><trkpt lat="45.59569183340912" lon="8.18277552613737"><ele>313.0</ele><time>2026-04-06T12:36:52.999Z</time></trkpt><trkpt lat="45.595585798772944" lon="8.182887509150822"><ele>313.0</ele><time>2026-04-06T12:36:53.999Z</time></trkpt><trkpt lat="45.595481262581" lon="8.182991597629076"><ele>313.0</ele><time>2026-04-06T12:36:54.999Z</time></trkpt><trkpt lat="45.59538051312012" lon="8.183109977911093"><ele>313.0</ele><time>2026-04-06T12:36:55.999Z</time></trkpt><trkpt lat="45.59528456650968" lon="8.183232951440209"><ele>313.0</ele><time>2026-04-06T12:36:56.999Z</time></trkpt><trkpt lat="45.59519550606716" lon="8.183345775497012"><ele>312.75</ele><time>2026-04-06T12:36:57.999Z</time></trkpt><trkpt lat="45.59510531267356" lon="8.183447203324729"><ele>312.5</ele><time>2026-04-06T12:36:58.999Z</time></trkpt><trkpt lat="45.59500557220917" lon="8.183530046801046"><ele>312.25</ele><time>2026-04-06T12:36:59.999Z</time></trkpt><trkpt lat="45.59489542153072" lon="8.183569403923155"><ele>312.0</ele><time>2026-04-06T12:37:00.999Z</time></trkpt><trkpt lat="45.594785635216226" lon="8.183550299161825"><ele>312.0</ele><time>2026-04-06T12:37:01.999Z</time></trkpt><trkpt lat="45.594682342800695" lon="8.183481260787165"><ele>312.0</ele><time>2026-04-06T12:37:02.999Z</time></trkpt><trkpt lat="45.59457336340347" lon="8.183386087338882"><ele>312.0</ele><time>2026-04-06T12:37:03.999Z</time></trkpt><trkpt lat="45.594457031529984" lon="8.183287170938607"><ele>312.0</ele><time>2026-04-06T12:37:04.999Z</time></trkpt><trkpt lat="45.594349638364356" lon="8.183183777545858"><ele>315.75</ele><time>2026-04-06T12:37:05.999Z</time></trkpt><trkpt lat="45.59423071276968" lon="8.18308455235868"><ele>319.5</ele><time>2026-04-06T12:37:06.999Z</time></trkpt><trkpt lat="45.59409552709692" lon="8.182998704142252"><ele>323.25</ele><time>2026-04-06T12:37:07.999Z</time></trkpt><trkpt lat="45.59395509178412" lon="8.182943572082126"><ele>327.0</ele><time>2026-04-06T12:37:08.999Z</time></trkpt><trkpt lat="45.59380997030134" lon="8.1829013035717"><ele>325.3333333333333</ele><time>2026-04-06T12:37:09.999Z</time></trkpt><trkpt lat="45.59365811895923" lon="8.18287015660415"><ele>323.66666666666663</ele><time>2026-04-06T12:37:10.999Z</time></trkpt><trkpt lat="45.59349118473469" lon="8.182857273947441"><ele>322.0</ele><time>2026-04-06T12:37:11.999Z</time></trkpt><trkpt lat="45.59332971288671" lon="8.18285408238491"><ele>322.0</ele><time>2026-04-06T12:37:12.999Z</time></trkpt><trkpt lat="45.59318068428798" lon="8.18285704965876"><ele>322.0</ele><time>2026-04-06T12:37:13.999Z</time></trkpt><trkpt lat="45.59303774557942" lon="8.182867176831557"><ele>322.0</ele><time>2026-04-06T12:37:14.999Z</time></trkpt><trkpt lat="45.59289692360383" lon="8.182889798027137"><ele>322.0</ele><time>2026-04-06T12:37:15.999Z</time></trkpt><trkpt lat="45.59274239442361" lon="8.182905541436627"><ele>322.66666666666663</ele><time>2026-04-06T12:37:16.999Z</time></trkpt><trkpt lat="45.592583112213" lon="8.182965738184512"><ele>323.3333333333333</ele><time>2026-04-06T12:37:17.999Z</time></trkpt><trkpt lat="45.592422635073525" lon="8.183068135676512"><ele>324.0</ele><time>2026-04-06T12:37:18.999Z</time></trkpt><trkpt lat="45.59226111249148" lon="8.183173971162102"><ele>319.6666666666667</ele><time>2026-04-06T12:37:19.999Z</time></trkpt><trkpt lat="45.59208560183598" lon="8.183290959127973"><ele>315.33333333333337</ele><time>2026-04-06T12:37:20.999Z</time></trkpt><trkpt lat="45.5918949582796" lon="8.183419530601359"><ele>311.0</ele><time>2026-04-06T12:37:21.999Z</time></trkpt><trkpt lat="45.591693111815076" lon="8.183556026175834"><ele>311.0</ele><time>2026-04-06T12:37:22.999Z</time></trkpt><trkpt lat="45.5914900815218" lon="8.183688930317633"><ele>311.0</ele><time>2026-04-06T12:37:23.999Z</time></trkpt><trkpt lat="45.591288179765925" lon="8.183821233519186"><ele>311.0</ele><time>2026-04-06T12:37:24.999Z</time></trkpt><trkpt lat="45.5911100771582" lon="8.183961643717899"><ele>309.33333333333337</ele><time>2026-04-06T12:37:25.999Z</time></trkpt><trkpt lat="45.590919392318725" lon="8.184075870923047"><ele>307.6666666666667</ele><time>2026-04-06T12:37:26.999Z</time></trkpt><trkpt lat="45.590726123511196" lon="8.184193870984123"><ele>306.0</ele><time>2026-04-06T12:37:27.999Z</time></trkpt><trkpt lat="45.59052861737591" lon="8.184311852489824"><ele>306.0</ele><time>2026-04-06T12:37:28.999Z</time></trkpt><trkpt lat="45.59032873501348" lon="8.18442324260631"><ele>306.0</ele><time>2026-04-06T12:37:29.999Z</time></trkpt><trkpt lat="45.590140633541594" lon="8.184520211177391"><ele>306.0</ele><time>2026-04-06T12:37:30.999Z</time></trkpt><trkpt lat="45.58996493682087" lon="8.184613485326993"><ele>306.0</ele><time>2026-04-06T12:37:31.999Z</time></trkpt><trkpt lat="45.58979290223231" lon="8.184701894196484"><ele>306.0</ele><time>2026-04-06T12:37:32.999Z</time></trkpt><trkpt lat="45.58962430388353" lon="8.184790847238402"><ele>306.0</ele><time>2026-04-06T12:37:33.999Z</time></trkpt><trkpt lat="45.589459867410234" lon="8.184882023360785"><ele>304.3333333333333</ele><time>2026-04-06T12:37:34.999Z</time></trkpt><trkpt lat="45.58930007301833" lon="8.184968919050847"><ele>302.66666666666663</ele><time>2026-04-06T12:37:36Z</time></trkpt><trkpt lat="45.58913804366172" lon="8.185060727641295"><ele>301.0</ele><time>2026-04-06T12:37:37Z</time></trkpt><trkpt lat="45.5889542825845" lon="8.185115045687171"><ele>301.0</ele><time>2026-04-06T12:37:38Z</time></trkpt><trkpt lat="45.58877469894254" lon="8.185209083104475"><ele>301.0</ele><time>2026-04-06T12:37:39Z</time></trkpt><trkpt lat="45.588590456783635" lon="8.185305498206025"><ele>301.0</ele><time>2026-04-06T12:37:40Z</time></trkpt><trkpt lat="45.58840239491463" lon="8.185403827694284"><ele>301.0</ele><time>2026-04-06T12:37:41Z</time></trkpt><trkpt lat="45.58821623156033" lon="8.185501164522009"><ele>301.0</ele><time>2026-04-06T12:37:42Z</time></trkpt><trkpt lat="45.58803078844494" lon="8.18559813958167"><ele>301.0</ele><time>2026-04-06T12:37:43Z</time></trkpt><trkpt lat="45.5878449906744" lon="8.185695303808325"><ele>300.0</ele><time>2026-04-06T12:37:44Z</time></trkpt><trkpt lat="45.5876664870824" lon="8.18581075455456"><ele>299.0</ele><time>2026-04-06T12:37:45Z</time></trkpt><trkpt lat="45.5874860007731" lon="8.185907247726933"><ele>298.0</ele><time>2026-04-06T12:37:46Z</time></trkpt><trkpt lat="45.587299058285645" lon="8.18600774226683"><ele>298.0</ele><time>2026-04-06T12:37:47Z</time></trkpt><trkpt lat="45.587108005185264" lon="8.18611201661894"><ele>298.0</ele><time>2026-04-06T12:37:48Z</time></trkpt><trkpt lat="45.58691688247849" lon="8.186216052596771"><ele>298.0</ele><time>2026-04-06T12:37:49Z</time></trkpt><trkpt lat="45.58672932931656" lon="8.186329823548736"><ele>298.0</ele><time>2026-04-06T12:37:50Z</time></trkpt><trkpt lat="45.58653784624624" lon="8.186463761890325"><ele>298.0</ele><time>2026-04-06T12:37:51Z</time></trkpt><trkpt lat="45.58634406069206" lon="8.186602638846958"><ele>298.0</ele><time>2026-04-06T12:37:52Z</time></trkpt><trkpt lat="45.58615512105509" lon="8.186755111182203"><ele>298.0</ele><time>2026-04-06T12:37:53Z</time></trkpt><trkpt lat="45.58597524111736" lon="8.186898417666836"><ele>298.0</ele><time>2026-04-06T12:37:54Z</time></trkpt><trkpt lat="45.58582157994868" lon="8.187012865066423"><ele>298.0</ele><time>2026-04-06T12:37:55Z</time></trkpt><trkpt lat="45.585674702613886" lon="8.187091537622237"><ele>298.0</ele><time>2026-04-06T12:37:56Z</time></trkpt><trkpt lat="45.58551794612541" lon="8.187130531358862"><ele>298.0</ele><time>2026-04-06T12:37:57Z</time></trkpt><trkpt lat="45.585353353160635" lon="8.187124421670143"><ele>298.0</ele><time>2026-04-06T12:37:58Z</time></trkpt><trkpt lat="45.58517194330564" lon="8.187068241519238"><ele>298.66666666666663</ele><time>2026-04-06T12:37:59Z</time></trkpt><trkpt lat="45.58498402228402" lon="8.186990770677884"><ele>299.3333333333333</ele><time>2026-04-06T12:38:00Z</time></trkpt><trkpt lat="45.5847839231917" lon="8.186909291841179"><ele>300.0</ele><time>2026-04-06T12:38:01Z</time></trkpt><trkpt lat="45.584582128635205" lon="8.186832415155882"><ele>302.0</ele><time>2026-04-06T12:38:02Z</time></trkpt><trkpt lat="45.58438935716541" lon="8.186728420242872"><ele>304.0</ele><time>2026-04-06T12:38:03Z</time></trkpt><trkpt lat="45.584203106163876" lon="8.186643850643659"><ele>306.0</ele><time>2026-04-06T12:38:04Z</time></trkpt><trkpt lat="45.58402323639655" lon="8.186489254473573"><ele>306.0</ele><time>2026-04-06T12:38:05Z</time></trkpt><trkpt lat="45.58384889402948" lon="8.186303667854482"><ele>306.0</ele><time>2026-04-06T12:38:06Z</time></trkpt><trkpt lat="45.58367496301808" lon="8.186113334345913"><ele>306.0</ele><time>2026-04-06T12:38:07Z</time></trkpt><trkpt lat="45.583496224151666" lon="8.18594675627792"><ele>305.3333333333333</ele><time>2026-04-06T12:38:08Z</time></trkpt><trkpt lat="45.5833098514932" lon="8.185787828382729"><ele>304.66666666666663</ele><time>2026-04-06T12:38:09Z</time></trkpt><trkpt lat="45.58309118076183" lon="8.18569715284773"><ele>304.0</ele><time>2026-04-06T12:38:10Z</time></trkpt><trkpt lat="45.5828609841059" lon="8.185672281983516"><ele>302.5</ele><time>2026-04-06T12:38:11Z</time></trkpt><trkpt lat="45.582630755846544" lon="8.185645596151923"><ele>301.0</ele><time>2026-04-06T12:38:12Z</time></trkpt><trkpt lat="45.582401716613525" lon="8.185611981326705"><ele>301.0</ele><time>2026-04-06T12:38:13Z</time></trkpt><trkpt lat="45.58219401487302" lon="8.185543447254394"><ele>301.0</ele><time>2026-04-06T12:38:14Z</time></trkpt><trkpt lat="45.58198259851592" lon="8.185433865796114"><ele>301.0</ele><time>2026-04-06T12:38:15Z</time></trkpt><trkpt lat="45.58176914791503" lon="8.185297437933949"><ele>294.0</ele><time>2026-04-06T12:38:16Z</time></trkpt><trkpt lat="45.581556662903715" lon="8.185149393950317"><ele>287.0</ele><time>2026-04-06T12:38:17Z</time></trkpt><trkpt lat="45.58135203967295" lon="8.185015311058347"><ele>285.6666666666667</ele><time>2026-04-06T12:38:18Z</time></trkpt><trkpt lat="45.58115289671623" lon="8.184883338248639"><ele>284.3333333333333</ele><time>2026-04-06T12:38:19Z</time></trkpt><trkpt lat="45.580948292688376" lon="8.184746268565348"><ele>283.0</ele><time>2026-04-06T12:38:20Z</time></trkpt><trkpt lat="45.58074759877255" lon="8.18461739201908"><ele>283.0</ele><time>2026-04-06T12:38:21Z</time></trkpt><trkpt lat="45.58054658634883" lon="8.184483861870856"><ele>283.0</ele><time>2026-04-06T12:38:22Z</time></trkpt><trkpt lat="45.58034091853094" lon="8.184342310499888"><ele>279.0</ele><time>2026-04-06T12:38:23Z</time></trkpt><trkpt lat="45.58013209470598" lon="8.184197620876354"><ele>275.0</ele><time>2026-04-06T12:38:24Z</time></trkpt><trkpt lat="45.57992918470194" lon="8.184051948173996"><ele>274.0</ele><time>2026-04-06T12:38:25Z</time></trkpt><trkpt lat="45.579740603782014" lon="8.183903260634205"><ele>273.0</ele><time>2026-04-06T12:38:26Z</time></trkpt><trkpt lat="45.57955465895863" lon="8.183749819869625"><ele>272.0</ele><time>2026-04-06T12:38:27Z</time></trkpt><trkpt lat="45.57937393802045" lon="8.183598602338526"><ele>272.0</ele><time>2026-04-06T12:38:28Z</time></trkpt><trkpt lat="45.579210490658646" lon="8.183462656746512"><ele>272.0</ele><time>2026-04-06T12:38:29Z</time></trkpt><trkpt lat="45.579063935140205" lon="8.183338715119445"><ele>272.0</ele><time>2026-04-06T12:38:30Z</time></trkpt><trkpt lat="45.57893354607754" lon="8.183226673645025"><ele>271.8</ele><time>2026-04-06T12:38:31Z</time></trkpt><trkpt lat="45.578817356385024" lon="8.183124679931405"><ele>271.6</ele><time>2026-04-06T12:38:32Z</time></trkpt><trkpt lat="45.57871751865289" lon="8.18303575650493"><ele>271.40000000000003</ele><time>2026-04-06T12:38:33Z</time></trkpt><trkpt lat="45.578638939826796" lon="8.182960209087536"><ele>271.2</ele><time>2026-04-06T12:38:34Z</time></trkpt><trkpt lat="45.57857795284128" lon="8.182890789562792"><ele>271.0</ele><time>2026-04-06T12:38:35Z</time></trkpt><trkpt lat="45.57853505849419" lon="8.182784267602287"><ele>271.0</ele><time>2026-04-06T12:38:36Z</time></trkpt><trkpt lat="45.57844791808928" lon="8.182720334196567"><ele>271.0</ele><time>2026-04-06T12:38:37Z</time></trkpt><trkpt lat="45.57833923297975" lon="8.182703152386592"><ele>271.0</ele><time>2026-04-06T12:38:38Z</time></trkpt><trkpt lat="45.57823955492794" lon="8.182629326094148"><ele>271.0</ele><time>2026-04-06T12:38:39Z</time></trkpt><trkpt lat="45.57813733993083" lon="8.182541907489146"><ele>271.0</ele><time>2026-04-06T12:38:40Z</time></trkpt><trkpt lat="45.57804125420253" lon="8.182457511665179"><ele>271.0</ele><time>2026-04-06T12:38:41Z</time></trkpt><trkpt lat="45.5779448443821" lon="8.18237436430621"><ele>271.0</ele><time>2026-04-06T12:38:42Z</time></trkpt><trkpt lat="45.577846682117624" lon="8.182289579149213"><ele>271.0</ele><time>2026-04-06T12:38:43Z</time></trkpt><trkpt lat="45.57774015638562" lon="8.182201272193232"><ele>271.0</ele><time>2026-04-06T12:38:44Z</time></trkpt><trkpt lat="45.577633972922015" lon="8.182110678100491"><ele>270.75</ele><time>2026-04-06T12:38:45Z</time></trkpt><trkpt lat="45.577526525750656" lon="8.18202072856238"><ele>270.5</ele><time>2026-04-06T12:38:46Z</time></trkpt><trkpt lat="45.57741756189964" lon="8.181929520219176"><ele>270.25</ele><time>2026-04-06T12:38:47Z</time></trkpt><trkpt lat="45.577307057732085" lon="8.18183121122576"><ele>270.0</ele><time>2026-04-06T12:38:48Z</time></trkpt><trkpt lat="45.5771908806369" lon="8.181722980138124"><ele>270.0</ele><time>2026-04-06T12:38:49Z</time></trkpt><trkpt lat="45.57706903106247" lon="8.181607742088307"><ele>270.0</ele><time>2026-04-06T12:38:50Z</time></trkpt><trkpt lat="45.57695241807499" lon="8.18149355848957"><ele>270.0</ele><time>2026-04-06T12:38:51Z</time></trkpt><trkpt lat="45.576845618397954" lon="8.181390918651278"><ele>270.0</ele><time>2026-04-06T12:38:51.999Z</time></trkpt><trkpt lat="45.576747479276634" lon="8.18129907564304"><ele>269.4</ele><time>2026-04-06T12:38:52.999Z</time></trkpt><trkpt lat="45.57666469022576" lon="8.181224880372001"><ele>268.8</ele><time>2026-04-06T12:38:53.999Z</time></trkpt><trkpt lat="45.57659104183223" lon="8.18116574702387"><ele>268.2</ele><time>2026-04-06T12:38:54.999Z</time></trkpt><trkpt lat="45.57652709605768" lon="8.181152991505487"><ele>267.6</ele><time>2026-04-06T12:38:55.999Z</time></trkpt><trkpt lat="45.57644929056341" lon="8.181316666534912"><ele>267.0</ele><time>2026-04-06T12:38:57.999Z</time></trkpt><trkpt lat="45.57644325148935" lon="8.181460592421134"><ele>267.0</ele><time>2026-04-06T12:38:58.999Z</time></trkpt><trkpt lat="45.576423159078836" lon="8.181632241727778"><ele>267.0</ele><time>2026-04-06T12:38:59.999Z</time></trkpt><trkpt lat="45.5763936709951" lon="8.181813136553332"><ele>267.0</ele><time>2026-04-06T12:39:00.999Z</time></trkpt><trkpt lat="45.57636467254753" lon="8.18201709719995"><ele>267.0</ele><time>2026-04-06T12:39:01.999Z</time></trkpt><trkpt lat="45.57634708549066" lon="8.18223176603498"><ele>266.6666666666667</ele><time>2026-04-06T12:39:02.999Z</time></trkpt><trkpt lat="45.576332666807225" lon="8.18246729115841"><ele>266.33333333333337</ele><time>2026-04-06T12:39:03.999Z</time></trkpt><trkpt lat="45.57631692775141" lon="8.182717356419124"><ele>266.0</ele><time>2026-04-06T12:39:04.999Z</time></trkpt><trkpt lat="45.5763016951368" lon="8.182963751210394"><ele>265.6666666666667</ele><time>2026-04-06T12:39:05.999Z</time></trkpt><trkpt lat="45.576288221758766" lon="8.183206794416622"><ele>265.3333333333333</ele><time>2026-04-06T12:39:06.999Z</time></trkpt><trkpt lat="45.57627726991722" lon="8.183440869349457"><ele>265.0</ele><time>2026-04-06T12:39:07.999Z</time></trkpt><trkpt lat="45.576265258239474" lon="8.183677308323052"><ele>265.0</ele><time>2026-04-06T12:39:08.999Z</time></trkpt><trkpt lat="45.576252655977925" lon="8.183914787248117"><ele>265.0</ele><time>2026-04-06T12:39:09.999Z</time></trkpt><trkpt lat="45.57623871497457" lon="8.184148790633927"><ele>265.0</ele><time>2026-04-06T12:39:10.999Z</time></trkpt><trkpt lat="45.57622038469589" lon="8.184364641006924"><ele>265.0</ele><time>2026-04-06T12:39:11.999Z</time></trkpt><trkpt lat="45.57619417269514" lon="8.184589201521907"><ele>265.0</ele><time>2026-04-06T12:39:12.999Z</time></trkpt><trkpt lat="45.57615733696227" lon="8.184818176967497"><ele>265.0</ele><time>2026-04-06T12:39:13.999Z</time></trkpt><trkpt lat="45.576114204671136" lon="8.185047600682863"><ele>265.0</ele><time>2026-04-06T12:39:14.999Z</time></trkpt><trkpt lat="45.5760622890153" lon="8.185274819416422"><ele>265.0</ele><time>2026-04-06T12:39:15.999Z</time></trkpt><trkpt lat="45.57601107609878" lon="8.185495618535674"><ele>265.0</ele><time>2026-04-06T12:39:16.999Z</time></trkpt><trkpt lat="45.57595665551803" lon="8.1856964171166"><ele>265.25</ele><time>2026-04-06T12:39:17.999Z</time></trkpt><trkpt lat="45.57590432170204" lon="8.185872461760649"><ele>265.5</ele><time>2026-04-06T12:39:18.999Z</time></trkpt><trkpt lat="45.57585618305747" lon="8.18603718951759"><ele>265.75</ele><time>2026-04-06T12:39:19.999Z</time></trkpt><trkpt lat="45.57581336948224" lon="8.186193376601803"><ele>266.0</ele><time>2026-04-06T12:39:20.999Z</time></trkpt><trkpt lat="45.57577211096258" lon="8.186339176509549"><ele>266.0</ele><time>2026-04-06T12:39:21.999Z</time></trkpt><trkpt lat="45.57573327169832" lon="8.186475431859531"><ele>266.0</ele><time>2026-04-06T12:39:22.999Z</time></trkpt><trkpt lat="45.575692935088405" lon="8.186602275007195"><ele>266.0</ele><time>2026-04-06T12:39:23.999Z</time></trkpt><trkpt lat="45.575654111436094" lon="8.186715866340858"><ele>266.0</ele><time>2026-04-06T12:39:24.999Z</time></trkpt><trkpt lat="45.57561769443146" lon="8.186795135188284"><ele>266.0</ele><time>2026-04-06T12:39:25.999Z</time></trkpt><trkpt lat="45.5755260545619" lon="8.186878685442949"><ele>266.1666666666667</ele><time>2026-04-06T12:39:27.999Z</time></trkpt><trkpt lat="45.57548437652158" lon="8.18698120016729"><ele>266.33333333333337</ele><time>2026-04-06T12:39:29.999Z</time></trkpt><trkpt lat="45.57558313460755" lon="8.18707139077718"><ele>266.5</ele><time>2026-04-06T12:39:31.999Z</time></trkpt><trkpt lat="45.575647505681125" lon="8.187098928775848"><ele>266.6666666666667</ele><time>2026-04-06T12:39:32.999Z</time></trkpt><trkpt lat="45.575715867859216" lon="8.187135194638431"><ele>266.8333333333333</ele><time>2026-04-06T12:39:33.999Z</time></trkpt><trkpt lat="45.57578494198657" lon="8.187174426189406"><ele>267.0</ele><time>2026-04-06T12:39:34.999Z</time></trkpt><trkpt lat="45.57586626096211" lon="8.187232290652622"><ele>267.0</ele><time>2026-04-06T12:39:36.999Z</time></trkpt><trkpt lat="45.57582872115935" lon="8.187339279567093"><ele>267.0</ele><time>2026-04-06T12:39:38.999Z</time></trkpt><trkpt lat="45.575772746664235" lon="8.18741266184633"><ele>267.0</ele><time>2026-04-06T12:39:39.999Z</time></trkpt><trkpt lat="45.57573096228018" lon="8.187490873241696"><ele>267.0</ele><time>2026-04-06T12:39:40.999Z</time></trkpt><trkpt lat="45.57568711916738" lon="8.187578302411458"><ele>267.0</ele><time>2026-04-06T12:39:42Z</time></trkpt><trkpt lat="45.575633576003476" lon="8.187674028316367"><ele>267.0</ele><time>2026-04-06T12:39:43Z</time></trkpt><trkpt lat="45.575563567611184" lon="8.187786424788081"><ele>268.25</ele><time>2026-04-06T12:39:44Z</time></trkpt><trkpt lat="45.575473787433545" lon="8.18790964867522"><ele>269.5</ele><time>2026-04-06T12:39:45Z</time></trkpt><trkpt lat="45.57538820959044" lon="8.188029069800505"><ele>270.75</ele><time>2026-04-06T12:39:46Z</time></trkpt><trkpt lat="45.57531325511065" lon="8.188147429073801"><ele>272.0</ele><time>2026-04-06T12:39:47Z</time></trkpt><trkpt lat="45.575225188794676" lon="8.188254400263418"><ele>274.0</ele><time>2026-04-06T12:39:48Z</time></trkpt><trkpt lat="45.57513656637463" lon="8.188375066139475"><ele>276.0</ele><time>2026-04-06T12:39:49Z</time></trkpt><trkpt lat="45.57504615084933" lon="8.188491002012146"><ele>278.0</ele><time>2026-04-06T12:39:50Z</time></trkpt><trkpt lat="45.57496949649496" lon="8.18861064187123"><ele>280.0</ele><time>2026-04-06T12:39:51Z</time></trkpt><trkpt lat="45.57488808071442" lon="8.188703995619091"><ele>280.0</ele><time>2026-04-06T12:39:52Z</time></trkpt><trkpt lat="45.5747902177679" lon="8.188772921014777"><ele>280.0</ele><time>2026-04-06T12:39:53Z</time></trkpt><trkpt lat="45.574700027530795" lon="8.188880118473994"><ele>280.0</ele><time>2026-04-06T12:39:54Z</time></trkpt><trkpt lat="45.57459522703154" lon="8.188949892673058"><ele>280.0</ele><time>2026-04-06T12:39:55Z</time></trkpt><trkpt lat="45.57450597585394" lon="8.18908386054224"><ele>280.25</ele><time>2026-04-06T12:39:56Z</time></trkpt><trkpt lat="45.57443115508643" lon="8.189251648485524"><ele>280.5</ele><time>2026-04-06T12:39:57Z</time></trkpt><trkpt lat="45.57431783055854" lon="8.18938876815884"><ele>280.75</ele><time>2026-04-06T12:39:58Z</time></trkpt><trkpt lat="45.574220519717244" lon="8.189534537942421"><ele>281.0</ele><time>2026-04-06T12:39:59Z</time></trkpt><trkpt lat="45.57413437389237" lon="8.18969020357449"><ele>281.0</ele><time>2026-04-06T12:40:00Z</time></trkpt><trkpt lat="45.57405895801313" lon="8.18984912635117"><ele>281.0</ele><time>2026-04-06T12:40:01Z</time></trkpt><trkpt lat="45.57397490303031" lon="8.189984454155553"><ele>281.0</ele><time>2026-04-06T12:40:02Z</time></trkpt><trkpt lat="45.57392108150146" lon="8.190135608405155"><ele>281.0</ele><time>2026-04-06T12:40:03Z</time></trkpt><trkpt lat="45.573846592202564" lon="8.190227180045596"><ele>281.0</ele><time>2026-04-06T12:40:04Z</time></trkpt><trkpt lat="45.573783319709776" lon="8.19029468738825"><ele>281.0</ele><time>2026-04-06T12:40:05Z</time></trkpt><trkpt lat="45.57370669330571" lon="8.190313475603668"><ele>281.0</ele><time>2026-04-06T12:40:06Z</time></trkpt><trkpt lat="45.57363239498431" lon="8.190325522438748"><ele>281.0</ele><time>2026-04-06T12:40:07Z</time></trkpt><trkpt lat="45.573554043844894" lon="8.190329487252031"><ele>281.0</ele><time>2026-04-06T12:40:08Z</time></trkpt><trkpt lat="45.57346678624581" lon="8.19031327600747"><ele>281.0</ele><time>2026-04-06T12:40:09Z</time></trkpt><trkpt lat="45.57338203380302" lon="8.19035763478423"><ele>280.25</ele><time>2026-04-06T12:40:10Z</time></trkpt><trkpt lat="45.573306912534285" lon="8.190470453172324"><ele>279.5</ele><time>2026-04-06T12:40:11Z</time></trkpt><trkpt lat="45.573237049697184" lon="8.190619611730044"><ele>278.75</ele><time>2026-04-06T12:40:12Z</time></trkpt><trkpt lat="45.57316189829491" lon="8.190781588597536"><ele>278.0</ele><time>2026-04-06T12:40:13Z</time></trkpt><trkpt lat="45.573096833246986" lon="8.190973770863495"><ele>278.0</ele><time>2026-04-06T12:40:14Z</time></trkpt><trkpt lat="45.57306403057635" lon="8.191178627374004"><ele>278.0</ele><time>2026-04-06T12:40:15Z</time></trkpt><trkpt lat="45.5730684347594" lon="8.191384630292967"><ele>278.0</ele><time>2026-04-06T12:40:16Z</time></trkpt><trkpt lat="45.573102624900926" lon="8.191590619914543"><ele>278.0</ele><time>2026-04-06T12:40:17Z</time></trkpt><trkpt lat="45.57316950880247" lon="8.19181361076857"><ele>279.33333333333337</ele><time>2026-04-06T12:40:18Z</time></trkpt><trkpt lat="45.57321094160303" lon="8.192053766097613"><ele>280.6666666666667</ele><time>2026-04-06T12:40:19Z</time></trkpt><trkpt lat="45.57323202648668" lon="8.192292727800565"><ele>282.0</ele><time>2026-04-06T12:40:20Z</time></trkpt><trkpt lat="45.57321821741279" lon="8.192500888202536"><ele>282.75</ele><time>2026-04-06T12:40:21Z</time></trkpt><trkpt lat="45.57317759481191" lon="8.192691018400996"><ele>283.5</ele><time>2026-04-06T12:40:22Z</time></trkpt><trkpt lat="45.57312730396888" lon="8.192889250864468"><ele>284.25</ele><time>2026-04-06T12:40:23Z</time></trkpt><trkpt lat="45.573065909641834" lon="8.193049451954519"><ele>285.0</ele><time>2026-04-06T12:40:24Z</time></trkpt><trkpt lat="45.57302096921146" lon="8.193152256171155"><ele>285.0</ele><time>2026-04-06T12:40:25Z</time></trkpt><trkpt lat="45.572934454320425" lon="8.193256502168722"><ele>285.0</ele><time>2026-04-06T12:40:27Z</time></trkpt><trkpt lat="45.57289567893107" lon="8.193396250828375"><ele>285.0</ele><time>2026-04-06T12:40:29Z</time></trkpt><trkpt lat="45.5729244590106" lon="8.193514372707785"><ele>285.0</ele><time>2026-04-06T12:40:30Z</time></trkpt><trkpt lat="45.57295977997224" lon="8.193630441232667"><ele>285.0</ele><time>2026-04-06T12:40:31Z</time></trkpt><trkpt lat="45.57300333740689" lon="8.193755139257417"><ele>285.0</ele><time>2026-04-06T12:40:32Z</time></trkpt><trkpt lat="45.57305858438397" lon="8.193910944865308"><ele>285.0</ele><time>2026-04-06T12:40:33Z</time></trkpt><trkpt lat="45.57311813529149" lon="8.19409802287392"><ele>285.0</ele><time>2026-04-06T12:40:34Z</time></trkpt><trkpt lat="45.573175722548946" lon="8.194301927266748"><ele>285.0</ele><time>2026-04-06T12:40:35Z</time></trkpt><trkpt lat="45.57323946394255" lon="8.194520574666594"><ele>285.0</ele><time>2026-04-06T12:40:36Z</time></trkpt><trkpt lat="45.57330828783327" lon="8.194768620650672"><ele>285.0</ele><time>2026-04-06T12:40:37Z</time></trkpt><trkpt lat="45.57338715070939" lon="8.195041342202037"><ele>285.0</ele><time>2026-04-06T12:40:38Z</time></trkpt><trkpt lat="45.573469649868834" lon="8.195312446096727"><ele>285.0</ele><time>2026-04-06T12:40:39Z</time></trkpt><trkpt lat="45.573551003185365" lon="8.195583518939301"><ele>285.0</ele><time>2026-04-06T12:40:40Z</time></trkpt><trkpt lat="45.57363510754984" lon="8.195847277684097"><ele>285.0</ele><time>2026-04-06T12:40:41Z</time></trkpt><trkpt lat="45.573708191451686" lon="8.196112810641418"><ele>287.25</ele><time>2026-04-06T12:40:42Z</time></trkpt><trkpt lat="45.57377574614086" lon="8.196354036241159"><ele>289.5</ele><time>2026-04-06T12:40:43Z</time></trkpt><trkpt lat="45.57383321011374" lon="8.196550338907"><ele>291.75</ele><time>2026-04-06T12:40:44Z</time></trkpt><trkpt lat="45.573877295600134" lon="8.196679262996183"><ele>294.0</ele><time>2026-04-06T12:40:45Z</time></trkpt><trkpt lat="45.57391820635552" lon="8.19676705553518"><ele>295.2</ele><time>2026-04-06T12:40:46Z</time></trkpt><trkpt lat="45.57399264857911" lon="8.19680537970696"><ele>296.4</ele><time>2026-04-06T12:40:47Z</time></trkpt><trkpt lat="45.574067286918336" lon="8.196820453680541"><ele>297.6</ele><time>2026-04-06T12:40:48Z</time></trkpt><trkpt lat="45.57417359086655" lon="8.196828945436826"><ele>298.8</ele><time>2026-04-06T12:40:49Z</time></trkpt><trkpt lat="45.57424723024302" lon="8.196838095738983"><ele>300.0</ele><time>2026-04-06T12:40:50Z</time></trkpt><trkpt lat="45.57433406950296" lon="8.196955440048978"><ele>300.0</ele><time>2026-04-06T12:40:51.999Z</time></trkpt><trkpt lat="45.57440103080166" lon="8.197093069472446"><ele>300.0</ele><time>2026-04-06T12:40:52.999Z</time></trkpt><trkpt lat="45.574445397463805" lon="8.197267096192677"><ele>300.0</ele><time>2026-04-06T12:40:53.999Z</time></trkpt><trkpt lat="45.57448767414627" lon="8.1974670720174"><ele>300.0</ele><time>2026-04-06T12:40:54.999Z</time></trkpt><trkpt lat="45.574549615469685" lon="8.197670762246789"><ele>299.6666666666667</ele><time>2026-04-06T12:40:55.999Z</time></trkpt><trkpt lat="45.57463424192658" lon="8.19787190912774"><ele>299.33333333333337</ele><time>2026-04-06T12:40:56.999Z</time></trkpt><trkpt lat="45.5747255915632" lon="8.198050324640842"><ele>299.0</ele><time>2026-04-06T12:40:57.999Z</time></trkpt><trkpt lat="45.57481529846883" lon="8.198222200035907"><ele>298.75</ele><time>2026-04-06T12:40:58.999Z</time></trkpt><trkpt lat="45.57488331299044" lon="8.198397135045154"><ele>298.5</ele><time>2026-04-06T12:40:59.999Z</time></trkpt><trkpt lat="45.57497461499399" lon="8.198551706924171"><ele>298.25</ele><time>2026-04-06T12:41:00.999Z</time></trkpt><trkpt lat="45.57505232357444" lon="8.198721927413478"><ele>298.0</ele><time>2026-04-06T12:41:01.999Z</time></trkpt><trkpt lat="45.57513935463325" lon="8.198903130893719"><ele>298.0</ele><time>2026-04-06T12:41:02.999Z</time></trkpt><trkpt lat="45.57523083686575" lon="8.199089927489268"><ele>298.0</ele><time>2026-04-06T12:41:03.999Z</time></trkpt><trkpt lat="45.575323299875265" lon="8.199282974645886"><ele>298.0</ele><time>2026-04-06T12:41:04.999Z</time></trkpt><trkpt lat="45.5754131720958" lon="8.199476517310845"><ele>299.3333333333333</ele><time>2026-04-06T12:41:05.999Z</time></trkpt><trkpt lat="45.57549988798325" lon="8.199663154501327"><ele>300.6666666666667</ele><time>2026-04-06T12:41:06.999Z</time></trkpt><trkpt lat="45.57558165731996" lon="8.199841793116335"><ele>302.0</ele><time>2026-04-06T12:41:07.999Z</time></trkpt><trkpt lat="45.57566218258655" lon="8.200012653524455"><ele>302.5</ele><time>2026-04-06T12:41:08.999Z</time></trkpt><trkpt lat="45.575740523979235" lon="8.200172705597181"><ele>303.0</ele><time>2026-04-06T12:41:09.999Z</time></trkpt><trkpt lat="45.575813687104514" lon="8.200326786542272"><ele>303.5</ele><time>2026-04-06T12:41:10.999Z</time></trkpt><trkpt lat="45.57588339325251" lon="8.20047438261858"><ele>304.0</ele><time>2026-04-06T12:41:11.999Z</time></trkpt><trkpt lat="45.57594738708847" lon="8.200614280986171"><ele>303.59999999999997</ele><time>2026-04-06T12:41:12.999Z</time></trkpt><trkpt lat="45.57600751208057" lon="8.200748261849068"><ele>303.2</ele><time>2026-04-06T12:41:13.999Z</time></trkpt><trkpt lat="45.5760661048844" lon="8.20087631392711"><ele>302.79999999999995</ele><time>2026-04-06T12:41:14.999Z</time></trkpt><trkpt lat="45.57612106632049" lon="8.200991175472566"><ele>302.4</ele><time>2026-04-06T12:41:15.999Z</time></trkpt><trkpt lat="45.576171675009824" lon="8.201100844770268"><ele>302.0</ele><time>2026-04-06T12:41:16.999Z</time></trkpt><trkpt lat="45.57621820648717" lon="8.201206326241447"><ele>302.83333333333337</ele><time>2026-04-06T12:41:17.999Z</time></trkpt><trkpt lat="45.576262452007626" lon="8.201301564469718"><ele>303.6666666666667</ele><time>2026-04-06T12:41:18.999Z</time></trkpt><trkpt lat="45.57630907179131" lon="8.201395479138327"><ele>304.5</ele><time>2026-04-06T12:41:19.999Z</time></trkpt><trkpt lat="45.576358908972864" lon="8.201502023867604"><ele>305.3333333333333</ele><time>2026-04-06T12:41:20.999Z</time></trkpt><trkpt lat="45.576411437140685" lon="8.201617770009728"><ele>306.16666666666663</ele><time>2026-04-06T12:41:21.999Z</time></trkpt><trkpt lat="45.57646404993546" lon="8.201731473584866"><ele>307.0</ele><time>2026-04-06T12:41:22.999Z</time></trkpt><trkpt lat="45.57651752994293" lon="8.201839643172894"><ele>307.16666666666663</ele><time>2026-04-06T12:41:23.999Z</time></trkpt><trkpt lat="45.576566586225766" lon="8.201941536406725"><ele>307.3333333333333</ele><time>2026-04-06T12:41:24.999Z</time></trkpt><trkpt lat="45.576612227315934" lon="8.202035208609718"><ele>307.5</ele><time>2026-04-06T12:41:25.999Z</time></trkpt><trkpt lat="45.57665574391807" lon="8.202126343538476"><ele>307.6666666666667</ele><time>2026-04-06T12:41:26.999Z</time></trkpt><trkpt lat="45.5766968015657" lon="8.20222140080894"><ele>307.83333333333337</ele><time>2026-04-06T12:41:27.999Z</time></trkpt><trkpt lat="45.576733768673265" lon="8.202311424421143"><ele>308.0</ele><time>2026-04-06T12:41:28.999Z</time></trkpt><trkpt lat="45.57676301907692" lon="8.202396920026676"><ele>308.0</ele><time>2026-04-06T12:41:29.999Z</time></trkpt><trkpt lat="45.5767837351066" lon="8.202509478724583"><ele>308.0</ele><time>2026-04-06T12:41:31.999Z</time></trkpt><trkpt lat="45.57665432852572" lon="8.20265545556732"><ele>308.0</ele><time>2026-04-06T12:41:33.999Z</time></trkpt><trkpt lat="45.57658183774292" lon="8.202761439595788"><ele>308.0</ele><time>2026-04-06T12:41:34.999Z</time></trkpt><trkpt lat="45.576495239987736" lon="8.202859771692657"><ele>308.0</ele><time>2026-04-06T12:41:35.999Z</time></trkpt><trkpt lat="45.57640056759335" lon="8.20299638701137"><ele>308.0</ele><time>2026-04-06T12:41:36.999Z</time></trkpt><trkpt lat="45.57630000426696" lon="8.203133658848266"><ele>308.0</ele><time>2026-04-06T12:41:37.999Z</time></trkpt><trkpt lat="45.57619761133351" lon="8.203272624255003"><ele>308.0</ele><time>2026-04-06T12:41:38.999Z</time></trkpt><trkpt lat="45.57609655206025" lon="8.20341869274034"><ele>306.6666666666667</ele><time>2026-04-06T12:41:39.999Z</time></trkpt><trkpt lat="45.575987431456056" lon="8.203579932615261"><ele>305.3333333333333</ele><time>2026-04-06T12:41:40.999Z</time></trkpt><trkpt lat="45.5758758587819" lon="8.203748119081402"><ele>304.0</ele><time>2026-04-06T12:41:41.999Z</time></trkpt><trkpt lat="45.57575094045133" lon="8.203905013232792"><ele>303.66666666666663</ele><time>2026-04-06T12:41:42.999Z</time></trkpt><trkpt lat="45.575638119256055" lon="8.204085592964473"><ele>303.3333333333333</ele><time>2026-04-06T12:41:43.999Z</time></trkpt><trkpt lat="45.57553549858262" lon="8.204255049454796"><ele>303.0</ele><time>2026-04-06T12:41:44.999Z</time></trkpt><trkpt lat="45.575442517637576" lon="8.204442354762062"><ele>303.3333333333333</ele><time>2026-04-06T12:41:45.999Z</time></trkpt><trkpt lat="45.575327132609665" lon="8.20461287879316"><ele>303.66666666666663</ele><time>2026-04-06T12:41:47Z</time></trkpt><trkpt lat="45.57520349789993" lon="8.204776103193169"><ele>304.0</ele><time>2026-04-06T12:41:48Z</time></trkpt><trkpt lat="45.57506973582458" lon="8.20492568692636"><ele>304.0</ele><time>2026-04-06T12:41:49Z</time></trkpt><trkpt lat="45.574926895358175" lon="8.205062946636268"><ele>304.0</ele><time>2026-04-06T12:41:50Z</time></trkpt><trkpt lat="45.574777831557114" lon="8.205192777944497"><ele>304.0</ele><time>2026-04-06T12:41:51Z</time></trkpt><trkpt lat="45.574627421026484" lon="8.205322178434132"><ele>304.3333333333333</ele><time>2026-04-06T12:41:52Z</time></trkpt><trkpt lat="45.57446710185461" lon="8.205430265519983"><ele>304.6666666666667</ele><time>2026-04-06T12:41:53Z</time></trkpt><trkpt lat="45.574314451866684" lon="8.205566715667372"><ele>305.0</ele><time>2026-04-06T12:41:54Z</time></trkpt><trkpt lat="45.5741638812088" lon="8.205711509423589"><ele>305.0</ele><time>2026-04-06T12:41:55Z</time></trkpt><trkpt lat="45.574013149285534" lon="8.205857612209865"><ele>305.0</ele><time>2026-04-06T12:41:56Z</time></trkpt><trkpt lat="45.57386926186579" lon="8.206020809714998"><ele>305.0</ele><time>2026-04-06T12:41:57Z</time></trkpt><trkpt lat="45.57371539871758" lon="8.206162084271947"><ele>305.33333333333337</ele><time>2026-04-06T12:41:58Z</time></trkpt><trkpt lat="45.573565587943214" lon="8.206307653741337"><ele>305.6666666666667</ele><time>2026-04-06T12:41:59Z</time></trkpt><trkpt lat="45.57340773681762" lon="8.20643343068878"><ele>306.0</ele><time>2026-04-06T12:42:00Z</time></trkpt><trkpt lat="45.573269014666565" lon="8.206599106472897"><ele>305.3333333333333</ele><time>2026-04-06T12:42:01Z</time></trkpt><trkpt lat="45.573119969968886" lon="8.20674126600959"><ele>304.66666666666663</ele><time>2026-04-06T12:42:02Z</time></trkpt><trkpt lat="45.572972571518825" lon="8.206881972030834"><ele>304.0</ele><time>2026-04-06T12:42:03Z</time></trkpt><trkpt lat="45.572820227884684" lon="8.207028571569092"><ele>303.66666666666663</ele><time>2026-04-06T12:42:04Z</time></trkpt><trkpt lat="45.57267136131759" lon="8.20717650625463"><ele>303.3333333333333</ele><time>2026-04-06T12:42:05Z</time></trkpt><trkpt lat="45.57252426232149" lon="8.207317949449504"><ele>303.0</ele><time>2026-04-06T12:42:06Z</time></trkpt><trkpt lat="45.572377588763324" lon="8.207459862331294"><ele>303.0</ele><time>2026-04-06T12:42:07Z</time></trkpt><trkpt lat="45.57223378305713" lon="8.207596658452701"><ele>303.0</ele><time>2026-04-06T12:42:08Z</time></trkpt><trkpt lat="45.572095045260404" lon="8.207731257491044"><ele>303.0</ele><time>2026-04-06T12:42:09Z</time></trkpt><trkpt lat="45.57195857683828" lon="8.207864573880865"><ele>303.0</ele><time>2026-04-06T12:42:10Z</time></trkpt><trkpt lat="45.571821402831475" lon="8.207996399983168"><ele>303.0</ele><time>2026-04-06T12:42:11Z</time></trkpt><trkpt lat="45.57168276098513" lon="8.20812743826183"><ele>303.0</ele><time>2026-04-06T12:42:12Z</time></trkpt><trkpt lat="45.57154715724364" lon="8.208257783088513"><ele>302.6666666666667</ele><time>2026-04-06T12:42:13Z</time></trkpt><trkpt lat="45.57141662737631" lon="8.208385631321002"><ele>302.33333333333337</ele><time>2026-04-06T12:42:14Z</time></trkpt><trkpt lat="45.5712863361916" lon="8.208509308211566"><ele>302.0</ele><time>2026-04-06T12:42:15Z</time></trkpt><trkpt lat="45.571160795201756" lon="8.208631933024085"><ele>301.5</ele><time>2026-04-06T12:42:16Z</time></trkpt><trkpt lat="45.57103727057593" lon="8.208751648396523"><ele>301.0</ele><time>2026-04-06T12:42:17Z</time></trkpt><trkpt lat="45.57091477973659" lon="8.208871843105056"><ele>300.5</ele><time>2026-04-06T12:42:18Z</time></trkpt><trkpt lat="45.57079501445211" lon="8.208991874686129"><ele>300.0</ele><time>2026-04-06T12:42:19Z</time></trkpt><trkpt lat="45.570660592798205" lon="8.209098170182253"><ele>300.0</ele><time>2026-04-06T12:42:20Z</time></trkpt><trkpt lat="45.570529756183866" lon="8.209225242367705"><ele>300.0</ele><time>2026-04-06T12:42:21Z</time></trkpt><trkpt lat="45.570399648938285" lon="8.209351350871664"><ele>300.0</ele><time>2026-04-06T12:42:22Z</time></trkpt><trkpt lat="45.57027050950139" lon="8.209476393147234"><ele>300.0</ele><time>2026-04-06T12:42:23Z</time></trkpt><trkpt lat="45.570143890538986" lon="8.209598993067571"><ele>300.0</ele><time>2026-04-06T12:42:24Z</time></trkpt><trkpt lat="45.57002335891004" lon="8.209716297088718"><ele>300.0</ele><time>2026-04-06T12:42:25Z</time></trkpt><trkpt lat="45.56990992053288" lon="8.209826262720297"><ele>300.0</ele><time>2026-04-06T12:42:26Z</time></trkpt><trkpt lat="45.56980051633403" lon="8.209932296178117"><ele>300.0</ele><time>2026-04-06T12:42:27Z</time></trkpt><trkpt lat="45.56969573121389" lon="8.210033007145723"><ele>300.0</ele><time>2026-04-06T12:42:28Z</time></trkpt><trkpt lat="45.5695949815654" lon="8.210129161443678"><ele>300.0</ele><time>2026-04-06T12:42:29Z</time></trkpt><trkpt lat="45.56949794182156" lon="8.210221775349241"><ele>300.0</ele><time>2026-04-06T12:42:30Z</time></trkpt><trkpt lat="45.569405292332654" lon="8.210310199000975"><ele>299.8</ele><time>2026-04-06T12:42:31Z</time></trkpt><trkpt lat="45.56931641018147" lon="8.210395027301058"><ele>299.6</ele><time>2026-04-06T12:42:32Z</time></trkpt><trkpt lat="45.56923310919489" lon="8.210474528932858"><ele>299.4</ele><time>2026-04-06T12:42:33Z</time></trkpt><trkpt lat="45.56915344443082" lon="8.2105505600443"><ele>299.2</ele><time>2026-04-06T12:42:34Z</time></trkpt><trkpt lat="45.56907664195951" lon="8.210623859608075"><ele>299.0</ele><time>2026-04-06T12:42:35Z</time></trkpt><trkpt lat="45.56900821430159" lon="8.210689166278659"><ele>298.8</ele><time>2026-04-06T12:42:36Z</time></trkpt><trkpt lat="45.56894811503664" lon="8.210768336817837"><ele>298.59999999999997</ele><time>2026-04-06T12:42:38Z</time></trkpt><trkpt lat="45.56888334130681" lon="8.210861185137796"><ele>298.4</ele><time>2026-04-06T12:42:57Z</time></trkpt><trkpt lat="45.56881073801688" lon="8.211000296594625"><ele>298.2</ele><time>2026-04-06T12:42:59Z</time></trkpt><trkpt lat="45.56877919524294" lon="8.211105789224254"><ele>298.0</ele><time>2026-04-06T12:42:59.999Z</time></trkpt><trkpt lat="45.56875749786249" lon="8.211219819454428"><ele>298.0</ele><time>2026-04-06T12:43:00.999Z</time></trkpt><trkpt lat="45.5687413232195" lon="8.211337447725361"><ele>298.0</ele><time>2026-04-06T12:43:01.999Z</time></trkpt><trkpt lat="45.56872019619545" lon="8.211458419600639"><ele>298.0</ele><time>2026-04-06T12:43:02.999Z</time></trkpt><trkpt lat="45.56869157674905" lon="8.211598271031454"><ele>298.0</ele><time>2026-04-06T12:43:03.999Z</time></trkpt><trkpt lat="45.568662247930945" lon="8.211745392505561"><ele>298.0</ele><time>2026-04-06T12:43:04.999Z</time></trkpt><trkpt lat="45.56863227275263" lon="8.211897798139935"><ele>297.0</ele><time>2026-04-06T12:43:05.999Z</time></trkpt><trkpt lat="45.568599451808254" lon="8.212040899898286"><ele>296.0</ele><time>2026-04-06T12:43:06.999Z</time></trkpt><trkpt lat="45.56856743475441" lon="8.212205389801511"><ele>295.0</ele><time>2026-04-06T12:43:07.999Z</time></trkpt><trkpt lat="45.568534198521434" lon="8.212366810418505"><ele>294.0</ele><time>2026-04-06T12:43:08.999Z</time></trkpt><trkpt lat="45.568500658889036" lon="8.212538885431597"><ele>294.0</ele><time>2026-04-06T12:43:09.999Z</time></trkpt><trkpt lat="45.568464171347046" lon="8.212726551466483"><ele>294.0</ele><time>2026-04-06T12:43:10.999Z</time></trkpt><trkpt lat="45.56842130951251" lon="8.212923616423797"><ele>294.0</ele><time>2026-04-06T12:43:11.999Z</time></trkpt><trkpt lat="45.56837731409962" lon="8.213134318911898"><ele>294.0</ele><time>2026-04-06T12:43:12.999Z</time></trkpt><trkpt lat="45.56833224075637" lon="8.213354126438881"><ele>295.0</ele><time>2026-04-06T12:43:13.999Z</time></trkpt><trkpt lat="45.56828374058381" lon="8.213581154280455"><ele>296.0</ele><time>2026-04-06T12:43:14.999Z</time></trkpt><trkpt lat="45.56823840758059" lon="8.213798881057215"><ele>297.0</ele><time>2026-04-06T12:43:15.999Z</time></trkpt><trkpt lat="45.56819515228316" lon="8.21401358726278"><ele>297.0</ele><time>2026-04-06T12:43:16.999Z</time></trkpt><trkpt lat="45.56815111287221" lon="8.214228941179714"><ele>297.0</ele><time>2026-04-06T12:43:17.999Z</time></trkpt><trkpt lat="45.56810558409927" lon="8.214450358673"><ele>297.0</ele><time>2026-04-06T12:43:18.999Z</time></trkpt><trkpt lat="45.56806338813353" lon="8.214670568533377"><ele>296.3333333333333</ele><time>2026-04-06T12:43:19.999Z</time></trkpt><trkpt lat="45.568021652306186" lon="8.214893348128243"><ele>295.66666666666663</ele><time>2026-04-06T12:43:20.999Z</time></trkpt><trkpt lat="45.567979937636366" lon="8.21512120725611"><ele>295.0</ele><time>2026-04-06T12:43:21.999Z</time></trkpt><trkpt lat="45.567931622482874" lon="8.215360917567553"><ele>295.0</ele><time>2026-04-06T12:43:22.999Z</time></trkpt><trkpt lat="45.56786686417064" lon="8.21558211576744"><ele>295.0</ele><time>2026-04-06T12:43:23.999Z</time></trkpt><trkpt lat="45.56782015372773" lon="8.21580967261355"><ele>295.0</ele><time>2026-04-06T12:43:24.999Z</time></trkpt><trkpt lat="45.56777471061199" lon="8.216031055352769"><ele>294.0</ele><time>2026-04-06T12:43:25.999Z</time></trkpt><trkpt lat="45.56772872630899" lon="8.216255074902367"><ele>293.0</ele><time>2026-04-06T12:43:26.999Z</time></trkpt><trkpt lat="45.56769741456818" lon="8.216489791916873"><ele>292.0</ele><time>2026-04-06T12:43:27.999Z</time></trkpt><trkpt lat="45.56764572570745" lon="8.216733265385392"><ele>292.0</ele><time>2026-04-06T12:43:28.999Z</time></trkpt><trkpt lat="45.56759259426359" lon="8.216989116109367"><ele>292.0</ele><time>2026-04-06T12:43:29.999Z</time></trkpt><trkpt lat="45.567540472216514" lon="8.21724670152563"><ele>292.0</ele><time>2026-04-06T12:43:30.999Z</time></trkpt><trkpt lat="45.56748899265777" lon="8.217504450343082"><ele>291.3333333333333</ele><time>2026-04-06T12:43:31.999Z</time></trkpt><trkpt lat="45.56743231141477" lon="8.217776213863257"><ele>290.6666666666667</ele><time>2026-04-06T12:43:32.999Z</time></trkpt><trkpt lat="45.56737715105729" lon="8.21805721359669"><ele>290.0</ele><time>2026-04-06T12:43:33.999Z</time></trkpt><trkpt lat="45.56729686898644" lon="8.21834811265609"><ele>289.5</ele><time>2026-04-06T12:43:34.999Z</time></trkpt><trkpt lat="45.56723145548531" lon="8.218665668500654"><ele>289.0</ele><time>2026-04-06T12:43:35.999Z</time></trkpt><trkpt lat="45.56716276603925" lon="8.218999128068312"><ele>289.0</ele><time>2026-04-06T12:43:36.999Z</time></trkpt><trkpt lat="45.56709001513391" lon="8.219352765078906"><ele>289.0</ele><time>2026-04-06T12:43:37.999Z</time></trkpt><trkpt lat="45.56701622418663" lon="8.219713608041694"><ele>286.0</ele><time>2026-04-06T12:43:38.999Z</time></trkpt><trkpt lat="45.56694411440037" lon="8.22006622976658"><ele>283.0</ele><time>2026-04-06T12:43:39.999Z</time></trkpt><trkpt lat="45.566889264899004" lon="8.220417011967124"><ele>279.5</ele><time>2026-04-06T12:43:40.999Z</time></trkpt><trkpt lat="45.56681524221008" lon="8.22075886941677"><ele>276.0</ele><time>2026-04-06T12:43:41.999Z</time></trkpt><trkpt lat="45.56674290062218" lon="8.221094194516091"><ele>276.0</ele><time>2026-04-06T12:43:42.999Z</time></trkpt><trkpt lat="45.5666749025214" lon="8.221426010415332"><ele>276.0</ele><time>2026-04-06T12:43:43.999Z</time></trkpt><trkpt lat="45.56660590610855" lon="8.221761555969106"><ele>275.0</ele><time>2026-04-06T12:43:44.999Z</time></trkpt><trkpt lat="45.566539350609844" lon="8.222091380179764"><ele>274.0</ele><time>2026-04-06T12:43:45.999Z</time></trkpt><trkpt lat="45.56647081898661" lon="8.222417708921187"><ele>271.0</ele><time>2026-04-06T12:43:46.999Z</time></trkpt><trkpt lat="45.566405381678834" lon="8.222737929504095"><ele>268.0</ele><time>2026-04-06T12:43:47.999Z</time></trkpt><trkpt lat="45.5663440452058" lon="8.2230508794557"><ele>264.0</ele><time>2026-04-06T12:43:48.999Z</time></trkpt><trkpt lat="45.56627791728119" lon="8.22336493047461"><ele>260.0</ele><time>2026-04-06T12:43:49.999Z</time></trkpt><trkpt lat="45.56621543550817" lon="8.223681884798264"><ele>265.0</ele><time>2026-04-06T12:43:50.999Z</time></trkpt><trkpt lat="45.566152275049774" lon="8.224000204563874"><ele>270.0</ele><time>2026-04-06T12:43:51.999Z</time></trkpt><trkpt lat="45.566089455222006" lon="8.224320587006892"><ele>270.0</ele><time>2026-04-06T12:43:53Z</time></trkpt><trkpt lat="45.56602921906041" lon="8.224631536585788"><ele>270.0</ele><time>2026-04-06T12:43:54Z</time></trkpt><trkpt lat="45.56596652363559" lon="8.224940273110743"><ele>266.0</ele><time>2026-04-06T12:43:55Z</time></trkpt><trkpt lat="45.565901549959634" lon="8.22525431233245"><ele>262.0</ele><time>2026-04-06T12:43:56Z</time></trkpt><trkpt lat="45.56583727111366" lon="8.225571177880695"><ele>260.0</ele><time>2026-04-06T12:43:57Z</time></trkpt><trkpt lat="45.56577412393639" lon="8.225882837469856"><ele>258.0</ele><time>2026-04-06T12:43:58Z</time></trkpt><trkpt lat="45.56571465272124" lon="8.226176468576476"><ele>256.0</ele><time>2026-04-06T12:43:59Z</time></trkpt><trkpt lat="45.56565089769966" lon="8.22646177479025"><ele>256.3333333333333</ele><time>2026-04-06T12:44:00Z</time></trkpt><trkpt lat="45.565579166726245" lon="8.22674371076136"><ele>256.6666666666667</ele><time>2026-04-06T12:44:01Z</time></trkpt><trkpt lat="45.565485878467015" lon="8.227036876496385"><ele>257.0</ele><time>2026-04-06T12:44:02Z</time></trkpt><trkpt lat="45.56535754428602" lon="8.227309316100804"><ele>255.33333333333334</ele><time>2026-04-06T12:44:03Z</time></trkpt><trkpt lat="45.5652327354136" lon="8.227579694020095"><ele>253.66666666666669</ele><time>2026-04-06T12:44:04Z</time></trkpt><trkpt lat="45.56510859009346" lon="8.227841203622972"><ele>252.0</ele><time>2026-04-06T12:44:05Z</time></trkpt><trkpt lat="45.56498151079373" lon="8.228108893597163"><ele>250.33333333333331</ele><time>2026-04-06T12:44:06Z</time></trkpt><trkpt lat="45.56486705753013" lon="8.228385679066875"><ele>248.66666666666666</ele><time>2026-04-06T12:44:07Z</time></trkpt><trkpt lat="45.56474202214806" lon="8.22864674459543"><ele>247.0</ele><time>2026-04-06T12:44:08Z</time></trkpt><trkpt lat="45.56461868412068" lon="8.228901895102231"><ele>248.0</ele><time>2026-04-06T12:44:09Z</time></trkpt><trkpt lat="45.564488022358105" lon="8.2291649430218"><ele>249.0</ele><time>2026-04-06T12:44:10Z</time></trkpt><trkpt lat="45.56435848272966" lon="8.229434764148749"><ele>249.0</ele><time>2026-04-06T12:44:11Z</time></trkpt><trkpt lat="45.56422847724781" lon="8.229704141003984"><ele>249.0</ele><time>2026-04-06T12:44:12Z</time></trkpt><trkpt lat="45.56410520669632" lon="8.229962836325534"><ele>249.0</ele><time>2026-04-06T12:44:13Z</time></trkpt><trkpt lat="45.56398999522505" lon="8.230218449237498"><ele>246.66666666666669</ele><time>2026-04-06T12:44:14Z</time></trkpt><trkpt lat="45.56388281778302" lon="8.230482976936779"><ele>244.33333333333334</ele><time>2026-04-06T12:44:15Z</time></trkpt><trkpt lat="45.56379552712268" lon="8.230755447250973"><ele>242.0</ele><time>2026-04-06T12:44:16Z</time></trkpt><trkpt lat="45.56373595065593" lon="8.23105011277991"><ele>240.66666666666669</ele><time>2026-04-06T12:44:17Z</time></trkpt><trkpt lat="45.56370027856389" lon="8.231356422924648"><ele>239.33333333333331</ele><time>2026-04-06T12:44:18Z</time></trkpt><trkpt lat="45.563697155902325" lon="8.231667990496774"><ele>238.0</ele><time>2026-04-06T12:44:19Z</time></trkpt><trkpt lat="45.56372641605023" lon="8.231978829119212"><ele>236.0</ele><time>2026-04-06T12:44:20Z</time></trkpt><trkpt lat="45.563784988356595" lon="8.232293936798639"><ele>234.0</ele><time>2026-04-06T12:44:21Z</time></trkpt><trkpt lat="45.56387287552617" lon="8.23259775786404"><ele>232.5</ele><time>2026-04-06T12:44:22Z</time></trkpt><trkpt lat="45.56399632559741" lon="8.232888944603017"><ele>231.0</ele><time>2026-04-06T12:44:23Z</time></trkpt><trkpt lat="45.56414223202293" lon="8.233155848414743"><ele>230.0</ele><time>2026-04-06T12:44:24Z</time></trkpt><trkpt lat="45.56431198134743" lon="8.233392906732613"><ele>229.0</ele><time>2026-04-06T12:44:25Z</time></trkpt><trkpt lat="45.5644870160772" lon="8.233623115424704"><ele>229.0</ele><time>2026-04-06T12:44:26Z</time></trkpt><trkpt lat="45.56464039490692" lon="8.23382990737793"><ele>229.0</ele><time>2026-04-06T12:44:27Z</time></trkpt><trkpt lat="45.56475998512799" lon="8.234024314741129"><ele>229.0</ele><time>2026-04-06T12:44:28Z</time></trkpt><trkpt lat="45.56484221442898" lon="8.2342320149108"><ele>229.33333333333331</ele><time>2026-04-06T12:44:29Z</time></trkpt><trkpt lat="45.56487989291863" lon="8.234480320220383"><ele>229.66666666666669</ele><time>2026-04-06T12:44:30Z</time></trkpt><trkpt lat="45.564867696674746" lon="8.234749992748855"><ele>230.0</ele><time>2026-04-06T12:44:31Z</time></trkpt><trkpt lat="45.56481504063338" lon="8.235019946008427"><ele>230.66666666666669</ele><time>2026-04-06T12:44:32Z</time></trkpt><trkpt lat="45.56473739164405" lon="8.235295877034973"><ele>231.33333333333331</ele><time>2026-04-06T12:44:33Z</time></trkpt><trkpt lat="45.56466898866452" lon="8.235572738783306"><ele>232.0</ele><time>2026-04-06T12:44:34Z</time></trkpt><trkpt lat="45.564606218887974" lon="8.23586348032047"><ele>232.0</ele><time>2026-04-06T12:44:35Z</time></trkpt><trkpt lat="45.56454561616819" lon="8.236160514392232"><ele>232.0</ele><time>2026-04-06T12:44:36Z</time></trkpt><trkpt lat="45.56448418036048" lon="8.236459743593283"><ele>232.0</ele><time>2026-04-06T12:44:37Z</time></trkpt><trkpt lat="45.56442449064735" lon="8.236761066772477"><ele>232.33333333333331</ele><time>2026-04-06T12:44:38Z</time></trkpt><trkpt lat="45.56436706149419" lon="8.237065182327829"><ele>232.66666666666669</ele><time>2026-04-06T12:44:38.999Z</time></trkpt><trkpt lat="45.564308425321116" lon="8.237370232767447"><ele>233.0</ele><time>2026-04-06T12:44:39.999Z</time></trkpt><trkpt lat="45.56424785409671" lon="8.23767594305959"><ele>234.0</ele><time>2026-04-06T12:44:40.999Z</time></trkpt><trkpt lat="45.564187923729925" lon="8.237983443223124"><ele>235.0</ele><time>2026-04-06T12:44:41.999Z</time></trkpt><trkpt lat="45.56412683272808" lon="8.23829215582825"><ele>236.0</ele><time>2026-04-06T12:44:42.999Z</time></trkpt><trkpt lat="45.56406492256115" lon="8.238601347462566"><ele>239.0</ele><time>2026-04-06T12:44:43.999Z</time></trkpt><trkpt lat="45.56400481127493" lon="8.238910600523445"><ele>242.0</ele><time>2026-04-06T12:44:44.999Z</time></trkpt><trkpt lat="45.56394598992636" lon="8.239221538102068"><ele>242.5</ele><time>2026-04-06T12:44:45.999Z</time></trkpt><trkpt lat="45.563885115893946" lon="8.239531577406842"><ele>243.0</ele><time>2026-04-06T12:44:46.999Z</time></trkpt><trkpt lat="45.56382389554419" lon="8.23984018436424"><ele>243.0</ele><time>2026-04-06T12:44:47.999Z</time></trkpt><trkpt lat="45.563763998789504" lon="8.240143422776104"><ele>243.0</ele><time>2026-04-06T12:44:48.999Z</time></trkpt><trkpt lat="45.56370777533824" lon="8.240442801211419"><ele>243.0</ele><time>2026-04-06T12:44:49.999Z</time></trkpt><trkpt lat="45.563645779905805" lon="8.240745772967472"><ele>243.33333333333331</ele><time>2026-04-06T12:44:50.999Z</time></trkpt><trkpt lat="45.563583283174644" lon="8.241050550250666"><ele>243.66666666666666</ele><time>2026-04-06T12:44:51.999Z</time></trkpt><trkpt lat="45.56352200042983" lon="8.241355041316481"><ele>244.0</ele><time>2026-04-06T12:44:52.999Z</time></trkpt><trkpt lat="45.56346542508242" lon="8.24164754487079"><ele>244.0</ele><time>2026-04-06T12:44:53.999Z</time></trkpt><trkpt lat="45.56340713741175" lon="8.241946660534147"><ele>244.0</ele><time>2026-04-06T12:44:54.999Z</time></trkpt><trkpt lat="45.56335703483267" lon="8.242236135532064"><ele>244.0</ele><time>2026-04-06T12:44:55.999Z</time></trkpt><trkpt lat="45.56332323171657" lon="8.242483337423344"><ele>244.0</ele><time>2026-04-06T12:44:56.999Z</time></trkpt><trkpt lat="45.56330046732922" lon="8.242692972514535"><ele>244.0</ele><time>2026-04-06T12:44:57.999Z</time></trkpt><trkpt lat="45.56328878387167" lon="8.242865562516094"><ele>244.0</ele><time>2026-04-06T12:44:58.999Z</time></trkpt><trkpt lat="45.563276041452774" lon="8.243013364090903"><ele>244.0</ele><time>2026-04-06T12:44:59.999Z</time></trkpt><trkpt lat="45.563247754685115" lon="8.2431568174173"><ele>244.0</ele><time>2026-04-06T12:45:00.999Z</time></trkpt><trkpt lat="45.563222446407536" lon="8.243283444675"><ele>243.99999999999997</ele><time>2026-04-06T12:45:01.999Z</time></trkpt><trkpt lat="45.56322762342489" lon="8.243396851338566"><ele>243.99999999999997</ele><time>2026-04-06T12:45:02.999Z</time></trkpt><trkpt lat="45.56327964639827" lon="8.243484288867414"><ele>244.0</ele><time>2026-04-06T12:45:03.999Z</time></trkpt><trkpt lat="45.56337012405706" lon="8.243539898830964"><ele>244.0</ele><time>2026-04-06T12:45:04.999Z</time></trkpt><trkpt lat="45.56348390946876" lon="8.243593801759976"><ele>244.0</ele><time>2026-04-06T12:45:05.999Z</time></trkpt><trkpt lat="45.56360648711409" lon="8.243684449498557"><ele>244.0</ele><time>2026-04-06T12:45:06.999Z</time></trkpt><trkpt lat="45.56372725448334" lon="8.24380330365135"><ele>244.0</ele><time>2026-04-06T12:45:07.999Z</time></trkpt><trkpt lat="45.56386246211332" lon="8.243933193608616"><ele>244.0</ele><time>2026-04-06T12:45:08.999Z</time></trkpt><trkpt lat="45.5640210618447" lon="8.244068753885976"><ele>244.66666666666666</ele><time>2026-04-06T12:45:09.999Z</time></trkpt><trkpt lat="45.56418637083058" lon="8.244204780874957"><ele>245.33333333333331</ele><time>2026-04-06T12:45:10.999Z</time></trkpt><trkpt lat="45.56436690026966" lon="8.24434825109696"><ele>246.0</ele><time>2026-04-06T12:45:11.999Z</time></trkpt><trkpt lat="45.56455153117655" lon="8.244493380350889"><ele>246.66666666666669</ele><time>2026-04-06T12:45:12.999Z</time></trkpt><trkpt lat="45.56473912692734" lon="8.244640417486504"><ele>247.33333333333334</ele><time>2026-04-06T12:45:13.999Z</time></trkpt><trkpt lat="45.5649322033589" lon="8.244789354695008"><ele>248.0</ele><time>2026-04-06T12:45:14.999Z</time></trkpt><trkpt lat="45.56513090803153" lon="8.24494082776373"><ele>248.5</ele><time>2026-04-06T12:45:15.999Z</time></trkpt><trkpt lat="45.56533233165128" lon="8.245097857412459"><ele>249.0</ele><time>2026-04-06T12:45:16.999Z</time></trkpt><trkpt lat="45.565533798550895" lon="8.245254882279308"><ele>249.0</ele><time>2026-04-06T12:45:17.999Z</time></trkpt><trkpt lat="45.56572815617097" lon="8.24540661505615"><ele>249.0</ele><time>2026-04-06T12:45:18.999Z</time></trkpt><trkpt lat="45.56590984836308" lon="8.245555093941023"><ele>249.0</ele><time>2026-04-06T12:45:19.999Z</time></trkpt><trkpt lat="45.5660836623672" lon="8.245694497570828"><ele>250.0</ele><time>2026-04-06T12:45:20.999Z</time></trkpt><trkpt lat="45.56624938221888" lon="8.245827591216626"><ele>251.0</ele><time>2026-04-06T12:45:21.999Z</time></trkpt><trkpt lat="45.56640759342515" lon="8.245954812634215"><ele>252.0</ele><time>2026-04-06T12:45:22.999Z</time></trkpt><trkpt lat="45.56656030350276" lon="8.246072714648582"><ele>252.0</ele><time>2026-04-06T12:45:23.999Z</time></trkpt><trkpt lat="45.56670655721366" lon="8.246184101520438"><ele>252.0</ele><time>2026-04-06T12:45:24.999Z</time></trkpt><trkpt lat="45.566845568153035" lon="8.246294685777267"><ele>252.0</ele><time>2026-04-06T12:45:25.999Z</time></trkpt><trkpt lat="45.56698148325705" lon="8.24640387771544"><ele>252.0</ele><time>2026-04-06T12:45:26.999Z</time></trkpt><trkpt lat="45.56711824810565" lon="8.246517652071361"><ele>252.0</ele><time>2026-04-06T12:45:27.999Z</time></trkpt><trkpt lat="45.56725244597336" lon="8.246623997091238"><ele>252.0</ele><time>2026-04-06T12:45:28.999Z</time></trkpt><trkpt lat="45.56738645099561" lon="8.246729835620261"><ele>252.0</ele><time>2026-04-06T12:45:29.999Z</time></trkpt><trkpt lat="45.56751714187903" lon="8.246834168077337"><ele>252.0</ele><time>2026-04-06T12:45:30.999Z</time></trkpt><trkpt lat="45.567647747363154" lon="8.246937269620567"><ele>252.0</ele><time>2026-04-06T12:45:31.999Z</time></trkpt><trkpt lat="45.56777691456921" lon="8.247041924326"><ele>252.0</ele><time>2026-04-06T12:45:32.999Z</time></trkpt><trkpt lat="45.56790847480799" lon="8.247148120909868"><ele>252.0</ele><time>2026-04-06T12:45:33.999Z</time></trkpt><trkpt lat="45.568038478609836" lon="8.247250111807666"><ele>252.0</ele><time>2026-04-06T12:45:34.999Z</time></trkpt><trkpt lat="45.56816618017972" lon="8.247349777709955"><ele>252.0</ele><time>2026-04-06T12:45:35.999Z</time></trkpt><trkpt lat="45.56829414626785" lon="8.247451963196516"><ele>252.0</ele><time>2026-04-06T12:45:36.999Z</time></trkpt><trkpt lat="45.568433278912856" lon="8.247560210319465"><ele>252.0</ele><time>2026-04-06T12:45:37.999Z</time></trkpt><trkpt lat="45.5685776822973" lon="8.247671653741667"><ele>252.0</ele><time>2026-04-06T12:45:38.999Z</time></trkpt><trkpt lat="45.568724663310384" lon="8.24778454511809"><ele>252.0</ele><time>2026-04-06T12:45:39.999Z</time></trkpt><trkpt lat="45.568872780579326" lon="8.24789865462544"><ele>252.0</ele><time>2026-04-06T12:45:40.999Z</time></trkpt><trkpt lat="45.569017065470746" lon="8.248010904906415"><ele>252.0</ele><time>2026-04-06T12:45:41.999Z</time></trkpt><trkpt lat="45.569158595478406" lon="8.248127399597328"><ele>252.0</ele><time>2026-04-06T12:45:42.999Z</time></trkpt><trkpt lat="45.56929526893986" lon="8.248243527723188"><ele>252.0</ele><time>2026-04-06T12:45:43.999Z</time></trkpt><trkpt lat="45.569430375981575" lon="8.248352193890312"><ele>252.0</ele><time>2026-04-06T12:45:44.999Z</time></trkpt><trkpt lat="45.56956411422105" lon="8.248458057512345"><ele>252.0</ele><time>2026-04-06T12:45:45.999Z</time></trkpt><trkpt lat="45.56969554649107" lon="8.248562401552599"><ele>252.33333333333331</ele><time>2026-04-06T12:45:46.999Z</time></trkpt><trkpt lat="45.569825157546994" lon="8.248666771185505"><ele>252.66666666666666</ele><time>2026-04-06T12:45:47.999Z</time></trkpt><trkpt lat="45.56996112487099" lon="8.248774083304616"><ele>253.0</ele><time>2026-04-06T12:45:48.999Z</time></trkpt><trkpt lat="45.570098348161785" lon="8.248880421439644"><ele>253.0</ele><time>2026-04-06T12:45:49.999Z</time></trkpt><trkpt lat="45.570232955329686" lon="8.248981718024467"><ele>253.0</ele><time>2026-04-06T12:45:50.999Z</time></trkpt><trkpt lat="45.57037059116102" lon="8.249090290432852"><ele>253.0</ele><time>2026-04-06T12:45:51.999Z</time></trkpt><trkpt lat="45.57050726486151" lon="8.249200812055454"><ele>253.0</ele><time>2026-04-06T12:45:52.999Z</time></trkpt><trkpt lat="45.570641635071" lon="8.249308426355336"><ele>253.0</ele><time>2026-04-06T12:45:53.999Z</time></trkpt><trkpt lat="45.570774571894894" lon="8.249412324328967"><ele>253.0</ele><time>2026-04-06T12:45:54.999Z</time></trkpt><trkpt lat="45.57090402439282" lon="8.249514087239037"><ele>253.0</ele><time>2026-04-06T12:45:55.999Z</time></trkpt><trkpt lat="45.57103058046588" lon="8.249613732567253"><ele>253.0</ele><time>2026-04-06T12:45:56.999Z</time></trkpt><trkpt lat="45.57115806042777" lon="8.249708217118462"><ele>253.0</ele><time>2026-04-06T12:45:58Z</time></trkpt><trkpt lat="45.57128820198661" lon="8.249810540068637"><ele>253.0</ele><time>2026-04-06T12:45:59Z</time></trkpt><trkpt lat="45.57142005028931" lon="8.249915823697991"><ele>253.66666666666666</ele><time>2026-04-06T12:46:00Z</time></trkpt><trkpt lat="45.57155080616006" lon="8.250023080349338"><ele>254.33333333333331</ele><time>2026-04-06T12:46:01Z</time></trkpt><trkpt lat="45.57168179359058" lon="8.250131221503368"><ele>255.0</ele><time>2026-04-06T12:46:02Z</time></trkpt><trkpt lat="45.57181031369397" lon="8.250240227272215"><ele>255.0</ele><time>2026-04-06T12:46:03Z</time></trkpt><trkpt lat="45.57194344439663" lon="8.250342870262012"><ele>255.0</ele><time>2026-04-06T12:46:04Z</time></trkpt><trkpt lat="45.57207745945661" lon="8.250447028758943"><ele>255.0</ele><time>2026-04-06T12:46:05Z</time></trkpt><trkpt lat="45.57221674370125" lon="8.250553785956328"><ele>255.0</ele><time>2026-04-06T12:46:06Z</time></trkpt><trkpt lat="45.57235626726368" lon="8.250664350585472"><ele>255.0</ele><time>2026-04-06T12:46:07Z</time></trkpt><trkpt lat="45.57250087828194" lon="8.250780240380905"><ele>255.0</ele><time>2026-04-06T12:46:08Z</time></trkpt><trkpt lat="45.57265065140527" lon="8.250901984693531"><ele>255.0</ele><time>2026-04-06T12:46:09Z</time></trkpt><trkpt lat="45.57280541320391" lon="8.25102842465351"><ele>255.0</ele><time>2026-04-06T12:46:10Z</time></trkpt><trkpt lat="45.57296521934902" lon="8.251160324539121"><ele>255.0</ele><time>2026-04-06T12:46:11Z</time></trkpt><trkpt lat="45.57313084649309" lon="8.25129438017907"><ele>255.33333333333331</ele><time>2026-04-06T12:46:12Z</time></trkpt><trkpt lat="45.573299870959836" lon="8.251426945555218"><ele>255.66666666666666</ele><time>2026-04-06T12:46:13Z</time></trkpt><trkpt lat="45.573473820427395" lon="8.251563869128077"><ele>256.0</ele><time>2026-04-06T12:46:14Z</time></trkpt><trkpt lat="45.57365245915048" lon="8.251705766441317"><ele>257.3333333333333</ele><time>2026-04-06T12:46:15Z</time></trkpt><trkpt lat="45.573833121852" lon="8.251850268887962"><ele>258.6666666666667</ele><time>2026-04-06T12:46:16Z</time></trkpt><trkpt lat="45.5740122106841" lon="8.251992022258317"><ele>260.0</ele><time>2026-04-06T12:46:17Z</time></trkpt><trkpt lat="45.574185636850345" lon="8.252130595844191"><ele>260.0</ele><time>2026-04-06T12:46:18Z</time></trkpt><trkpt lat="45.57436074785034" lon="8.252267701924414"><ele>260.0</ele><time>2026-04-06T12:46:19Z</time></trkpt><trkpt lat="45.574535655314456" lon="8.252403894447314"><ele>260.0</ele><time>2026-04-06T12:46:20Z</time></trkpt><trkpt lat="45.5747114196057" lon="8.252541593048798"><ele>259.6666666666667</ele><time>2026-04-06T12:46:21Z</time></trkpt><trkpt lat="45.57488194257707" lon="8.252675851249046"><ele>259.3333333333333</ele><time>2026-04-06T12:46:22Z</time></trkpt><trkpt lat="45.57504817394267" lon="8.252806078891789"><ele>259.0</ele><time>2026-04-06T12:46:23Z</time></trkpt><trkpt lat="45.57520943018056" lon="8.252934752338945"><ele>258.66666666666663</ele><time>2026-04-06T12:46:24Z</time></trkpt><trkpt lat="45.575369473173545" lon="8.253061764139764"><ele>258.3333333333333</ele><time>2026-04-06T12:46:25Z</time></trkpt><trkpt lat="45.57552615842212" lon="8.253185290326838"><ele>258.0</ele><time>2026-04-06T12:46:26Z</time></trkpt><trkpt lat="45.57567923345699" lon="8.25330567818578"><ele>258.0</ele><time>2026-04-06T12:46:27Z</time></trkpt><trkpt lat="45.57582714539441" lon="8.253423837973658"><ele>258.0</ele><time>2026-04-06T12:46:28Z</time></trkpt><trkpt lat="45.57597282936132" lon="8.253539890960724"><ele>258.0</ele><time>2026-04-06T12:46:29Z</time></trkpt><trkpt lat="45.57611636941116" lon="8.253660690541775"><ele>258.25</ele><time>2026-04-06T12:46:30Z</time></trkpt><trkpt lat="45.576247143923624" lon="8.253776996715384"><ele>258.5</ele><time>2026-04-06T12:46:31Z</time></trkpt><trkpt lat="45.57635906748981" lon="8.253889342118185"><ele>258.75</ele><time>2026-04-06T12:46:32Z</time></trkpt><trkpt lat="45.57644450979268" lon="8.253987602305834"><ele>259.0</ele><time>2026-04-06T12:46:33Z</time></trkpt><trkpt lat="45.57650172997473" lon="8.254060970866703"><ele>259.0</ele><time>2026-04-06T12:46:34Z</time></trkpt><trkpt lat="45.576534861866726" lon="8.254150302554113"><ele>259.0</ele><time>2026-04-06T12:46:36Z</time></trkpt><trkpt lat="45.57656780315633" lon="8.254063080346564"><ele>259.0</ele><time>2026-04-06T12:47:53.999Z</time></trkpt><trkpt lat="45.57651843606689" lon="8.253972602039338"><ele>259.0</ele><time>2026-04-06T12:47:54.999Z</time></trkpt><trkpt lat="45.57644392847914" lon="8.253899291037778"><ele>259.0</ele><time>2026-04-06T12:47:55.999Z</time></trkpt><trkpt lat="45.576385930816485" lon="8.253837425109557"><ele>259.0</ele><time>2026-04-06T12:47:56.999Z</time></trkpt><trkpt lat="45.57633150544203" lon="8.253779687958163"><ele>259.25</ele><time>2026-04-06T12:48:09Z</time></trkpt><trkpt lat="45.576213879814034" lon="8.253682712562712"><ele>259.5</ele><time>2026-04-06T12:48:11Z</time></trkpt><trkpt lat="45.5761294982757" lon="8.253611509297533"><ele>259.75</ele><time>2026-04-06T12:48:12Z</time></trkpt><trkpt lat="45.576032222756766" lon="8.25352898222297"><ele>260.0</ele><time>2026-04-06T12:48:13Z</time></trkpt><trkpt lat="45.5759170791407" lon="8.253436999861224"><ele>260.33333333333337</ele><time>2026-04-06T12:48:14Z</time></trkpt><trkpt lat="45.575791150538684" lon="8.253337791221982"><ele>260.6666666666667</ele><time>2026-04-06T12:48:15Z</time></trkpt><trkpt lat="45.575649743844636" lon="8.253225585826366"><ele>261.0</ele><time>2026-04-06T12:48:16Z</time></trkpt><trkpt lat="45.575501640458995" lon="8.253106244826009"><ele>260.3333333333333</ele><time>2026-04-06T12:48:17Z</time></trkpt><trkpt lat="45.57534367510813" lon="8.252982530223848"><ele>259.66666666666663</ele><time>2026-04-06T12:48:18Z</time></trkpt><trkpt lat="45.57517478626941" lon="8.252849304350642"><ele>259.0</ele><time>2026-04-06T12:48:19Z</time></trkpt><trkpt lat="45.57499554605143" lon="8.252706729312534"><ele>259.0</ele><time>2026-04-06T12:48:20Z</time></trkpt><trkpt lat="45.574818041623416" lon="8.252563653867485"><ele>259.0</ele><time>2026-04-06T12:48:21Z</time></trkpt><trkpt lat="45.574658749667826" lon="8.252438366732756"><ele>259.0</ele><time>2026-04-06T12:48:22Z</time></trkpt><trkpt lat="45.57449910326827" lon="8.252312755291408"><ele>259.3333333333333</ele><time>2026-04-06T12:48:23Z</time></trkpt><trkpt lat="45.57432902161045" lon="8.252176406117147"><ele>259.6666666666667</ele><time>2026-04-06T12:48:24Z</time></trkpt><trkpt lat="45.57415062014778" lon="8.252035379953533"><ele>260.0</ele><time>2026-04-06T12:48:25Z</time></trkpt><trkpt lat="45.57396691113056" lon="8.251889646965083"><ele>260.0</ele><time>2026-04-06T12:48:26Z</time></trkpt><trkpt lat="45.5737776182499" lon="8.251740865605516"><ele>260.0</ele><time>2026-04-06T12:48:27Z</time></trkpt><trkpt lat="45.57358194685959" lon="8.251585262574498"><ele>260.0</ele><time>2026-04-06T12:48:28Z</time></trkpt><trkpt lat="45.57337993641494" lon="8.251425091789498"><ele>259.0</ele><time>2026-04-06T12:48:29Z</time></trkpt><trkpt lat="45.57317377718726" lon="8.251263664696316"><ele>258.0</ele><time>2026-04-06T12:48:30Z</time></trkpt><trkpt lat="45.57297148634835" lon="8.251101636968409"><ele>256.5</ele><time>2026-04-06T12:48:31Z</time></trkpt><trkpt lat="45.57277243442495" lon="8.250945928693891"><ele>255.0</ele><time>2026-04-06T12:48:32Z</time></trkpt><trkpt lat="45.57257624927635" lon="8.250787439946786"><ele>255.0</ele><time>2026-04-06T12:48:33Z</time></trkpt><trkpt lat="45.572380504398005" lon="8.250632270614645"><ele>255.0</ele><time>2026-04-06T12:48:34Z</time></trkpt><trkpt lat="45.57218515976774" lon="8.250476512343596"><ele>255.0</ele><time>2026-04-06T12:48:35Z</time></trkpt><trkpt lat="45.57198833625424" lon="8.250320100879964"><ele>255.0</ele><time>2026-04-06T12:48:36Z</time></trkpt><trkpt lat="45.571789591783784" lon="8.250161354561868"><ele>255.0</ele><time>2026-04-06T12:48:37Z</time></trkpt><trkpt lat="45.57159002429867" lon="8.250003591549708"><ele>255.0</ele><time>2026-04-06T12:48:38Z</time></trkpt><trkpt lat="45.57138992346607" lon="8.249845089490604"><ele>255.0</ele><time>2026-04-06T12:48:39Z</time></trkpt><trkpt lat="45.57118988741355" lon="8.249685965266378"><ele>254.0</ele><time>2026-04-06T12:48:40Z</time></trkpt><trkpt lat="45.5709894547897" lon="8.249529202097516"><ele>253.0</ele><time>2026-04-06T12:48:41Z</time></trkpt><trkpt lat="45.57078937409065" lon="8.249371610255661"><ele>253.0</ele><time>2026-04-06T12:48:42Z</time></trkpt><trkpt lat="45.57058968285788" lon="8.249214718652546"><ele>253.0</ele><time>2026-04-06T12:48:43Z</time></trkpt><trkpt lat="45.57039049103076" lon="8.249057602696974"><ele>253.0</ele><time>2026-04-06T12:48:44Z</time></trkpt><trkpt lat="45.570189975722435" lon="8.248898727654849"><ele>253.0</ele><time>2026-04-06T12:48:45Z</time></trkpt><trkpt lat="45.569988588754605" lon="8.248739936636275"><ele>253.0</ele><time>2026-04-06T12:48:46Z</time></trkpt><trkpt lat="45.56978783997046" lon="8.248581615420155"><ele>253.0</ele><time>2026-04-06T12:48:47Z</time></trkpt><trkpt lat="45.5695887880004" lon="8.248422485805193"><ele>252.5</ele><time>2026-04-06T12:48:48Z</time></trkpt><trkpt lat="45.56938885688527" lon="8.248260060159883"><ele>252.0</ele><time>2026-04-06T12:48:49Z</time></trkpt><trkpt lat="45.56918778801919" lon="8.248099036407444"><ele>252.0</ele><time>2026-04-06T12:48:50Z</time></trkpt><trkpt lat="45.56898666364905" lon="8.247939331152113"><ele>252.0</ele><time>2026-04-06T12:48:51Z</time></trkpt><trkpt lat="45.56878525335132" lon="8.247779797674314"><ele>252.0</ele><time>2026-04-06T12:48:52Z</time></trkpt><trkpt lat="45.5685835391844" lon="8.247621330572459"><ele>252.0</ele><time>2026-04-06T12:48:53Z</time></trkpt><trkpt lat="45.568382319646275" lon="8.247464609064442"><ele>252.0</ele><time>2026-04-06T12:48:54Z</time></trkpt><trkpt lat="45.56818072939446" lon="8.247305445385882"><ele>252.0</ele><time>2026-04-06T12:48:55Z</time></trkpt><trkpt lat="45.56797671309034" lon="8.24714330374714"><ele>252.0</ele><time>2026-04-06T12:48:56Z</time></trkpt><trkpt lat="45.567775181398304" lon="8.246981080758628"><ele>252.0</ele><time>2026-04-06T12:48:57Z</time></trkpt><trkpt lat="45.56757638480969" lon="8.2468202260589"><ele>252.0</ele><time>2026-04-06T12:48:58Z</time></trkpt><trkpt lat="45.56738090532797" lon="8.246664429844353"><ele>252.0</ele><time>2026-04-06T12:48:59Z</time></trkpt><trkpt lat="45.56718623070849" lon="8.246510658552054"><ele>252.0</ele><time>2026-04-06T12:49:00Z</time></trkpt><trkpt lat="45.56699072574339" lon="8.246358156994196"><ele>252.0</ele><time>2026-04-06T12:49:01Z</time></trkpt><trkpt lat="45.56679538660569" lon="8.2462057748722"><ele>252.0</ele><time>2026-04-06T12:49:02Z</time></trkpt><trkpt lat="45.56659927364115" lon="8.246051816215195"><ele>252.0</ele><time>2026-04-06T12:49:03Z</time></trkpt><trkpt lat="45.56640194823365" lon="8.245896031846065"><ele>252.0</ele><time>2026-04-06T12:49:04Z</time></trkpt><trkpt lat="45.56620360721531" lon="8.245738719341832"><ele>252.0</ele><time>2026-04-06T12:49:05Z</time></trkpt><trkpt lat="45.56600453964945" lon="8.245577931897099"><ele>251.33333333333331</ele><time>2026-04-06T12:49:06Z</time></trkpt><trkpt lat="45.56580706584652" lon="8.245420262468892"><ele>250.66666666666666</ele><time>2026-04-06T12:49:07Z</time></trkpt><trkpt lat="45.56561299259944" lon="8.245266538731817"><ele>250.0</ele><time>2026-04-06T12:49:08Z</time></trkpt><trkpt lat="45.56541738771063" lon="8.245112060406425"><ele>249.5</ele><time>2026-04-06T12:49:09Z</time></trkpt><trkpt lat="45.56522052492092" lon="8.24495807651431"><ele>249.0</ele><time>2026-04-06T12:49:10Z</time></trkpt><trkpt lat="45.565021914576704" lon="8.244804214767893"><ele>248.66666666666669</ele><time>2026-04-06T12:49:11Z</time></trkpt><trkpt lat="45.56482449600043" lon="8.244649839168957"><ele>248.33333333333334</ele><time>2026-04-06T12:49:11.999Z</time></trkpt><trkpt lat="45.564631587417935" lon="8.24449968893924"><ele>248.0</ele><time>2026-04-06T12:49:12.999Z</time></trkpt><trkpt lat="45.56444594956049" lon="8.244355286319177"><ele>247.33333333333334</ele><time>2026-04-06T12:49:13.999Z</time></trkpt><trkpt lat="45.5642806968212" lon="8.244222817317276"><ele>246.66666666666669</ele><time>2026-04-06T12:49:14.999Z</time></trkpt><trkpt lat="45.56413236614163" lon="8.244101658422265"><ele>246.0</ele><time>2026-04-06T12:49:15.999Z</time></trkpt><trkpt lat="45.563999147267324" lon="8.243992437918715"><ele>245.66666666666669</ele><time>2026-04-06T12:49:16.999Z</time></trkpt><trkpt lat="45.56386520957956" lon="8.243880518542818"><ele>245.33333333333334</ele><time>2026-04-06T12:49:17.999Z</time></trkpt><trkpt lat="45.56372607700121" lon="8.243749893436142"><ele>245.0</ele><time>2026-04-06T12:49:18.999Z</time></trkpt><trkpt lat="45.56362422142247" lon="8.243628385668408"><ele>245.0</ele><time>2026-04-06T12:49:19.999Z</time></trkpt><trkpt lat="45.56354738209492" lon="8.243507017570117"><ele>245.0</ele><time>2026-04-06T12:49:20.999Z</time></trkpt><trkpt lat="45.56349382784882" lon="8.243372969542827"><ele>245.0</ele><time>2026-04-06T12:49:21.999Z</time></trkpt><trkpt lat="45.56345509655534" lon="8.243242561886253"><ele>245.0</ele><time>2026-04-06T12:49:22.999Z</time></trkpt><trkpt lat="45.56341391621493" lon="8.243153359918585"><ele>245.0</ele><time>2026-04-06T12:49:23.999Z</time></trkpt><trkpt lat="45.56334896403562" lon="8.243120537088718"><ele>244.8</ele><time>2026-04-06T12:49:24.999Z</time></trkpt><trkpt lat="45.56326505745606" lon="8.243139079528836"><ele>244.6</ele><time>2026-04-06T12:49:25.999Z</time></trkpt><trkpt lat="45.56316296784101" lon="8.24319146912207"><ele>244.39999999999998</ele><time>2026-04-06T12:49:26.999Z</time></trkpt><trkpt lat="45.56304973898588" lon="8.243216822550513"><ele>244.2</ele><time>2026-04-06T12:49:27.999Z</time></trkpt><trkpt lat="45.56293865330166" lon="8.24318729165833"><ele>244.0</ele><time>2026-04-06T12:49:28.999Z</time></trkpt><trkpt lat="45.56283096169773" lon="8.243104634233374"><ele>245.0</ele><time>2026-04-06T12:49:29.999Z</time></trkpt><trkpt lat="45.562712596730826" lon="8.243001792677397"><ele>246.0</ele><time>2026-04-06T12:49:30.999Z</time></trkpt><trkpt lat="45.56257926305839" lon="8.242894132769607"><ele>247.0</ele><time>2026-04-06T12:49:31.999Z</time></trkpt><trkpt lat="45.56243814169793" lon="8.242779032940085"><ele>247.0</ele><time>2026-04-06T12:49:32.999Z</time></trkpt><trkpt lat="45.56230721384057" lon="8.242671647331763"><ele>247.0</ele><time>2026-04-06T12:49:33.999Z</time></trkpt><trkpt lat="45.562188307818694" lon="8.24257831015993"><ele>247.0</ele><time>2026-04-06T12:49:34.999Z</time></trkpt><trkpt lat="45.56208160688469" lon="8.242494901969039"><ele>247.0</ele><time>2026-04-06T12:49:35.999Z</time></trkpt><trkpt lat="45.561968179216656" lon="8.242403391491909"><ele>246.5</ele><time>2026-04-06T12:49:36.999Z</time></trkpt><trkpt lat="45.561844431795414" lon="8.242305294828013"><ele>246.0</ele><time>2026-04-06T12:49:37.999Z</time></trkpt><trkpt lat="45.561713234870126" lon="8.242201010200448"><ele>245.5</ele><time>2026-04-06T12:49:38.999Z</time></trkpt><trkpt lat="45.561576409827865" lon="8.242091501578292"><ele>245.0</ele><time>2026-04-06T12:49:39.999Z</time></trkpt><trkpt lat="45.56143106485163" lon="8.241976217313788"><ele>244.33333333333334</ele><time>2026-04-06T12:49:40.999Z</time></trkpt><trkpt lat="45.561281625878" lon="8.24185793311637"><ele>243.66666666666669</ele><time>2026-04-06T12:49:41.999Z</time></trkpt><trkpt lat="45.56113939306862" lon="8.241745416634528"><ele>243.0</ele><time>2026-04-06T12:49:42.999Z</time></trkpt><trkpt lat="45.56099727968597" lon="8.241632830064683"><ele>242.75</ele><time>2026-04-06T12:49:43.999Z</time></trkpt><trkpt lat="45.560859285151984" lon="8.241525396741594"><ele>242.5</ele><time>2026-04-06T12:49:44.999Z</time></trkpt><trkpt lat="45.5607339741975" lon="8.241428952029533"><ele>242.25</ele><time>2026-04-06T12:49:45.999Z</time></trkpt><trkpt lat="45.560629063763635" lon="8.24134188699972"><ele>242.0</ele><time>2026-04-06T12:49:46.999Z</time></trkpt><trkpt lat="45.56055289242634" lon="8.241261822131676"><ele>242.00000000000003</ele><time>2026-04-06T12:49:47.999Z</time></trkpt><trkpt lat="45.56050009127779" lon="8.241170833917868"><ele>242.0</ele><time>2026-04-06T12:49:48.999Z</time></trkpt><trkpt lat="45.56044844488792" lon="8.241071014271308"><ele>242.0</ele><time>2026-04-06T12:49:49.999Z</time></trkpt><trkpt lat="45.5603896572721" lon="8.24100535758125"><ele>242.0</ele><time>2026-04-06T12:49:50.999Z</time></trkpt><trkpt lat="45.56032548575191" lon="8.241000885112424"><ele>242.00000000000003</ele><time>2026-04-06T12:49:51.999Z</time></trkpt><trkpt lat="45.5602557189744" lon="8.241047660113217"><ele>242.0</ele><time>2026-04-06T12:49:52.999Z</time></trkpt><trkpt lat="45.56017566586146" lon="8.241109128094038"><ele>242.0</ele><time>2026-04-06T12:49:53.999Z</time></trkpt><trkpt lat="45.56006775529581" lon="8.241152213854466"><ele>242.0</ele><time>2026-04-06T12:49:54.999Z</time></trkpt><trkpt lat="45.55993836450235" lon="8.241172637582252"><ele>242.0</ele><time>2026-04-06T12:49:55.999Z</time></trkpt><trkpt lat="45.559806228002174" lon="8.241193065180438"><ele>242.0</ele><time>2026-04-06T12:49:56.999Z</time></trkpt><trkpt lat="45.55967076171605" lon="8.241219362446495"><ele>241.5</ele><time>2026-04-06T12:49:57.999Z</time></trkpt><trkpt lat="45.55953107586841" lon="8.241220753337839"><ele>241.0</ele><time>2026-04-06T12:49:58.999Z</time></trkpt><trkpt lat="45.559400601046235" lon="8.241272465839348"><ele>240.5</ele><time>2026-04-06T12:49:59.999Z</time></trkpt><trkpt lat="45.559266697813605" lon="8.2412891147401"><ele>240.0</ele><time>2026-04-06T12:50:00.999Z</time></trkpt><trkpt lat="45.55912703591962" lon="8.241303978091738"><ele>240.0</ele><time>2026-04-06T12:50:01.999Z</time></trkpt><trkpt lat="45.55898643166724" lon="8.241321853467008"><ele>240.0</ele><time>2026-04-06T12:50:02.999Z</time></trkpt><trkpt lat="45.55884476285483" lon="8.241341400096427"><ele>240.0</ele><time>2026-04-06T12:50:03.999Z</time></trkpt><trkpt lat="45.558692406622825" lon="8.24136532219575"><ele>240.0</ele><time>2026-04-06T12:50:04.999Z</time></trkpt><trkpt lat="45.55853142958589" lon="8.241391674585797"><ele>239.66666666666669</ele><time>2026-04-06T12:50:05.999Z</time></trkpt><trkpt lat="45.55836354216743" lon="8.24142186339636"><ele>239.33333333333334</ele><time>2026-04-06T12:50:06.999Z</time></trkpt><trkpt lat="45.55818732969567" lon="8.24145081286176"><ele>239.0</ele><time>2026-04-06T12:50:07.999Z</time></trkpt><trkpt lat="45.558002109532495" lon="8.241481583646097"><ele>239.0</ele><time>2026-04-06T12:50:08.999Z</time></trkpt><trkpt lat="45.557811747617954" lon="8.24151122859332"><ele>239.0</ele><time>2026-04-06T12:50:10Z</time></trkpt><trkpt lat="45.55761598712596" lon="8.241540822029075"><ele>239.0</ele><time>2026-04-06T12:50:11Z</time></trkpt><trkpt lat="45.557427499701305" lon="8.24156925724567"><ele>239.0</ele><time>2026-04-06T12:50:12Z</time></trkpt><trkpt lat="45.557246013821015" lon="8.24159785655397"><ele>239.0</ele><time>2026-04-06T12:50:13Z</time></trkpt><trkpt lat="45.55706656797194" lon="8.241625144741986"><ele>239.0</ele><time>2026-04-06T12:50:14Z</time></trkpt><trkpt lat="45.55688661232697" lon="8.241654650065227"><ele>240.0</ele><time>2026-04-06T12:50:15Z</time></trkpt><trkpt lat="45.556709204886474" lon="8.241683007764868"><ele>241.0</ele><time>2026-04-06T12:50:16Z</time></trkpt><trkpt lat="45.55653815071832" lon="8.241709067105068"><ele>242.0</ele><time>2026-04-06T12:50:17Z</time></trkpt><trkpt lat="45.55636994486854" lon="8.241736028529637"><ele>242.0</ele><time>2026-04-06T12:50:18Z</time></trkpt><trkpt lat="45.55620194896848" lon="8.24176125706945"><ele>242.0</ele><time>2026-04-06T12:50:19Z</time></trkpt><trkpt lat="45.55603214124534" lon="8.241785782925062"><ele>242.0</ele><time>2026-04-06T12:50:20Z</time></trkpt><trkpt lat="45.55586699231828" lon="8.241813029723055"><ele>242.0</ele><time>2026-04-06T12:50:21Z</time></trkpt><trkpt lat="45.55569822823681" lon="8.241836815016448"><ele>242.0</ele><time>2026-04-06T12:50:22Z</time></trkpt><trkpt lat="45.555526105292024" lon="8.241867650127702"><ele>242.0</ele><time>2026-04-06T12:50:23Z</time></trkpt><trkpt lat="45.55535472644946" lon="8.241893950915832"><ele>241.33333333333334</ele><time>2026-04-06T12:50:24Z</time></trkpt><trkpt lat="45.55518533941713" lon="8.241920337120552"><ele>240.66666666666669</ele><time>2026-04-06T12:50:25Z</time></trkpt><trkpt lat="45.5550138841514" lon="8.241950136442545"><ele>240.0</ele><time>2026-04-06T12:50:26Z</time></trkpt><trkpt lat="45.55484445007447" lon="8.241978684856873"><ele>240.0</ele><time>2026-04-06T12:50:27Z</time></trkpt><trkpt lat="45.554675571785" lon="8.24200405128703"><ele>240.0</ele><time>2026-04-06T12:50:28Z</time></trkpt><trkpt lat="45.55450906693496" lon="8.242029581608852"><ele>240.0</ele><time>2026-04-06T12:50:29Z</time></trkpt><trkpt lat="45.55435536402433" lon="8.242053505565263"><ele>240.5</ele><time>2026-04-06T12:50:30Z</time></trkpt><trkpt lat="45.55420782720281" lon="8.242074083509337"><ele>241.0</ele><time>2026-04-06T12:50:31Z</time></trkpt><trkpt lat="45.55406317161703" lon="8.242091920387226"><ele>241.5</ele><time>2026-04-06T12:50:32Z</time></trkpt><trkpt lat="45.55391184828092" lon="8.242109777676847"><ele>242.0</ele><time>2026-04-06T12:50:33Z</time></trkpt><trkpt lat="45.55375642742175" lon="8.242126298106117"><ele>240.75</ele><time>2026-04-06T12:50:34Z</time></trkpt><trkpt lat="45.55360642774542" lon="8.242137410489514"><ele>239.5</ele><time>2026-04-06T12:50:35Z</time></trkpt><trkpt lat="45.55346413037686" lon="8.242139098055143"><ele>238.25</ele><time>2026-04-06T12:50:36Z</time></trkpt><trkpt lat="45.55333119553331" lon="8.24212014326232"><ele>237.0</ele><time>2026-04-06T12:50:37Z</time></trkpt><trkpt lat="45.55320429709403" lon="8.24208397772098"><ele>237.0</ele><time>2026-04-06T12:50:38Z</time></trkpt><trkpt lat="45.55309830850203" lon="8.242028502043398"><ele>237.0</ele><time>2026-04-06T12:50:39Z</time></trkpt><trkpt lat="45.55301744168825" lon="8.241950901610648"><ele>237.0</ele><time>2026-04-06T12:50:40Z</time></trkpt><trkpt lat="45.552971881050915" lon="8.241842346385816"><ele>237.0</ele><time>2026-04-06T12:50:41Z</time></trkpt><trkpt lat="45.552951382284114" lon="8.24169941725671"><ele>237.0</ele><time>2026-04-06T12:50:42Z</time></trkpt><trkpt lat="45.55293456440263" lon="8.241545467723054"><ele>237.0</ele><time>2026-04-06T12:50:43Z</time></trkpt><trkpt lat="45.55289462237319" lon="8.241416634270692"><ele>237.0</ele><time>2026-04-06T12:50:44Z</time></trkpt><trkpt lat="45.55282245632357" lon="8.241308261375465"><ele>237.0</ele><time>2026-04-06T12:50:45Z</time></trkpt><trkpt lat="45.552728901762194" lon="8.241240159757503"><ele>237.0</ele><time>2026-04-06T12:50:46Z</time></trkpt><trkpt lat="45.55262176917795" lon="8.241222214878865"><ele>237.0</ele><time>2026-04-06T12:50:47Z</time></trkpt><trkpt lat="45.55251070619913" lon="8.241252170985373"><ele>236.75</ele><time>2026-04-06T12:50:48Z</time></trkpt><trkpt lat="45.55241145532797" lon="8.24133164035685"><ele>236.5</ele><time>2026-04-06T12:50:49Z</time></trkpt><trkpt lat="45.552336780335104" lon="8.241451398321539"><ele>236.25</ele><time>2026-04-06T12:50:50Z</time></trkpt><trkpt lat="45.552291791198435" lon="8.241604085563631"><ele>236.0</ele><time>2026-04-06T12:50:51Z</time></trkpt><trkpt lat="45.55227378049881" lon="8.241787441286148"><ele>236.0</ele><time>2026-04-06T12:50:52Z</time></trkpt><trkpt lat="45.552260233855925" lon="8.24198652637715"><ele>236.0</ele><time>2026-04-06T12:50:53Z</time></trkpt><trkpt lat="45.55221903760778" lon="8.242154415383993"><ele>236.0</ele><time>2026-04-06T12:50:54Z</time></trkpt><trkpt lat="45.55214526814529" lon="8.242281983781686"><ele>236.0</ele><time>2026-04-06T12:50:55Z</time></trkpt><trkpt lat="45.552039669935375" lon="8.242360437184496"><ele>235.66666666666669</ele><time>2026-04-06T12:50:56Z</time></trkpt><trkpt lat="45.55190023197204" lon="8.242410880061808"><ele>235.33333333333331</ele><time>2026-04-06T12:50:57Z</time></trkpt><trkpt lat="45.55174569729369" lon="8.242456563322406"><ele>235.0</ele><time>2026-04-06T12:50:58Z</time></trkpt><trkpt lat="45.55157414113578" lon="8.242492180400282"><ele>235.0</ele><time>2026-04-06T12:50:59Z</time></trkpt><trkpt lat="45.551392316306796" lon="8.24250173427278"><ele>235.0</ele><time>2026-04-06T12:51:00Z</time></trkpt><trkpt lat="45.551196040147175" lon="8.242532364878397"><ele>235.0</ele><time>2026-04-06T12:51:01Z</time></trkpt><trkpt lat="45.55100324560111" lon="8.242562378780503"><ele>235.66666666666666</ele><time>2026-04-06T12:51:02Z</time></trkpt><trkpt lat="45.55081054249735" lon="8.242609761651032"><ele>236.33333333333331</ele><time>2026-04-06T12:51:03Z</time></trkpt><trkpt lat="45.55061540581387" lon="8.24263695214674"><ele>237.0</ele><time>2026-04-06T12:51:04Z</time></trkpt><trkpt lat="45.55042666809962" lon="8.24266723384999"><ele>236.0</ele><time>2026-04-06T12:51:05Z</time></trkpt><trkpt lat="45.550248246323534" lon="8.242694228225734"><ele>235.0</ele><time>2026-04-06T12:51:06Z</time></trkpt><trkpt lat="45.55007375763081" lon="8.24272894389321"><ele>234.0</ele><time>2026-04-06T12:51:07Z</time></trkpt><trkpt lat="45.54990017478349" lon="8.24275721911168"><ele>234.0</ele><time>2026-04-06T12:51:08Z</time></trkpt><trkpt lat="45.54972284126928" lon="8.24278326633701"><ele>234.0</ele><time>2026-04-06T12:51:09Z</time></trkpt><trkpt lat="45.54954533316051" lon="8.242808598937836"><ele>234.0</ele><time>2026-04-06T12:51:10Z</time></trkpt><trkpt lat="45.54936516369948" lon="8.242836630282486"><ele>234.33333333333331</ele><time>2026-04-06T12:51:11Z</time></trkpt><trkpt lat="45.54918079960847" lon="8.242863591369607"><ele>234.66666666666666</ele><time>2026-04-06T12:51:12Z</time></trkpt><trkpt lat="45.54899175921742" lon="8.242890828920936"><ele>235.0</ele><time>2026-04-06T12:51:13Z</time></trkpt><trkpt lat="45.54880344511704" lon="8.242916758359609"><ele>235.0</ele><time>2026-04-06T12:51:14Z</time></trkpt><trkpt lat="45.54861681696571" lon="8.242944548627479"><ele>235.0</ele><time>2026-04-06T12:51:15Z</time></trkpt><trkpt lat="45.548431501855816" lon="8.24296944871718"><ele>235.0</ele><time>2026-04-06T12:51:16Z</time></trkpt><trkpt lat="45.548244201129656" lon="8.242981256584365"><ele>235.0</ele><time>2026-04-06T12:51:16.999Z</time></trkpt><trkpt lat="45.548058125339686" lon="8.242977550850458"><ele>235.0</ele><time>2026-04-06T12:51:17.999Z</time></trkpt><trkpt lat="45.54787261081751" lon="8.242962655270343"><ele>235.0</ele><time>2026-04-06T12:51:18.999Z</time></trkpt><trkpt lat="45.547685787385376" lon="8.242944230166833"><ele>234.66666666666666</ele><time>2026-04-06T12:51:19.999Z</time></trkpt><trkpt lat="45.54749248835687" lon="8.242926854043269"><ele>234.33333333333331</ele><time>2026-04-06T12:51:20.999Z</time></trkpt><trkpt lat="45.5472946060173" lon="8.24290996132661"><ele>234.0</ele><time>2026-04-06T12:51:21.999Z</time></trkpt><trkpt lat="45.54708929434619" lon="8.242890319041388"><ele>233.66666666666669</ele><time>2026-04-06T12:51:22.999Z</time></trkpt><trkpt lat="45.546879217672135" lon="8.242869445624684"><ele>233.33333333333334</ele><time>2026-04-06T12:51:23.999Z</time></trkpt><trkpt lat="45.546663332719106" lon="8.242850300534347"><ele>233.0</ele><time>2026-04-06T12:51:24.999Z</time></trkpt><trkpt lat="45.54644340250704" lon="8.242831402498652"><ele>233.0</ele><time>2026-04-06T12:51:25.999Z</time></trkpt><trkpt lat="45.546220032734" lon="8.242813090483834"><ele>233.0</ele><time>2026-04-06T12:51:26.999Z</time></trkpt><trkpt lat="45.54599894860299" lon="8.242794140228815"><ele>233.0</ele><time>2026-04-06T12:51:27.999Z</time></trkpt><trkpt lat="45.54578000919509" lon="8.24277571054574"><ele>232.66666666666669</ele><time>2026-04-06T12:51:28.999Z</time></trkpt><trkpt lat="45.54555763481777" lon="8.242756365156698"><ele>232.33333333333331</ele><time>2026-04-06T12:51:29.999Z</time></trkpt><trkpt lat="45.54533513680554" lon="8.242736173373649"><ele>232.0</ele><time>2026-04-06T12:51:30.999Z</time></trkpt><trkpt lat="45.545115219807464" lon="8.242715913809548"><ele>232.0</ele><time>2026-04-06T12:51:31.999Z</time></trkpt><trkpt lat="45.54489668810177" lon="8.242696046121141"><ele>232.0</ele><time>2026-04-06T12:51:32.999Z</time></trkpt><trkpt lat="45.54467755322564" lon="8.242675905391355"><ele>232.0</ele><time>2026-04-06T12:51:33.999Z</time></trkpt><trkpt lat="45.54445945144492" lon="8.24265713628112"><ele>232.33333333333331</ele><time>2026-04-06T12:51:34.999Z</time></trkpt><trkpt lat="45.54424032079464" lon="8.242638210919324"><ele>232.66666666666669</ele><time>2026-04-06T12:51:35.999Z</time></trkpt><trkpt lat="45.54401863350503" lon="8.242619920508874"><ele>233.0</ele><time>2026-04-06T12:51:36.999Z</time></trkpt><trkpt lat="45.5437962089212" lon="8.2426007241958"><ele>232.33333333333334</ele><time>2026-04-06T12:51:37.999Z</time></trkpt><trkpt lat="45.543575135159976" lon="8.242582124182741"><ele>231.66666666666669</ele><time>2026-04-06T12:51:38.999Z</time></trkpt><trkpt lat="45.54335957006704" lon="8.242563741537802"><ele>231.0</ele><time>2026-04-06T12:51:39.999Z</time></trkpt><trkpt lat="45.54314178112364" lon="8.24254416306434"><ele>231.0</ele><time>2026-04-06T12:51:40.999Z</time></trkpt><trkpt lat="45.54292104806871" lon="8.242524971988308"><ele>231.0</ele><time>2026-04-06T12:51:41.999Z</time></trkpt><trkpt lat="45.54269792545114" lon="8.242506921554316"><ele>231.0</ele><time>2026-04-06T12:51:42.999Z</time></trkpt><trkpt lat="45.54247634497677" lon="8.24248693785462"><ele>231.0</ele><time>2026-04-06T12:51:43.999Z</time></trkpt><trkpt lat="45.542257390988034" lon="8.242469584388045"><ele>231.0</ele><time>2026-04-06T12:51:44.999Z</time></trkpt><trkpt lat="45.542037121895966" lon="8.242450303344073"><ele>231.0</ele><time>2026-04-06T12:51:45.999Z</time></trkpt><trkpt lat="45.54181670139153" lon="8.242430331271137"><ele>230.33333333333331</ele><time>2026-04-06T12:51:46.999Z</time></trkpt><trkpt lat="45.541596497148845" lon="8.242410097879402"><ele>229.66666666666666</ele><time>2026-04-06T12:51:47.999Z</time></trkpt><trkpt lat="45.541376985126156" lon="8.24239109857641"><ele>229.0</ele><time>2026-04-06T12:51:48.999Z</time></trkpt><trkpt lat="45.54115599716694" lon="8.242372363056141"><ele>229.0</ele><time>2026-04-06T12:51:49.999Z</time></trkpt><trkpt lat="45.540933387864975" lon="8.242351923704781"><ele>229.0</ele><time>2026-04-06T12:51:50.999Z</time></trkpt><trkpt lat="45.54071121942667" lon="8.242334747001015"><ele>229.0</ele><time>2026-04-06T12:51:51.999Z</time></trkpt><trkpt lat="45.540490659921154" lon="8.242315649078185"><ele>229.33333333333331</ele><time>2026-04-06T12:51:52.999Z</time></trkpt><trkpt lat="45.54026921106208" lon="8.242298449882387"><ele>229.66666666666669</ele><time>2026-04-06T12:51:53.999Z</time></trkpt><trkpt lat="45.54004709853739" lon="8.242279892190437"><ele>230.0</ele><time>2026-04-06T12:51:54.999Z</time></trkpt><trkpt lat="45.53982534482151" lon="8.24226073570358"><ele>230.0</ele><time>2026-04-06T12:51:55.999Z</time></trkpt><trkpt lat="45.539604705774046" lon="8.242239990292942"><ele>230.0</ele><time>2026-04-06T12:51:56.999Z</time></trkpt><trkpt lat="45.53938357075942" lon="8.242218962901672"><ele>230.0</ele><time>2026-04-06T12:51:57.999Z</time></trkpt><trkpt lat="45.53916365439375" lon="8.242197478981733"><ele>229.33333333333334</ele><time>2026-04-06T12:51:58.999Z</time></trkpt><trkpt lat="45.53894261305449" lon="8.242181131146443"><ele>228.66666666666669</ele><time>2026-04-06T12:51:59.999Z</time></trkpt><trkpt lat="45.53872293550792" lon="8.242162910662902"><ele>228.0</ele><time>2026-04-06T12:52:00.999Z</time></trkpt><trkpt lat="45.538503782053745" lon="8.2421429622118"><ele>227.66666666666669</ele><time>2026-04-06T12:52:01.999Z</time></trkpt><trkpt lat="45.538283512797896" lon="8.242123625430295"><ele>227.33333333333334</ele><time>2026-04-06T12:52:02.999Z</time></trkpt><trkpt lat="45.53806236068415" lon="8.242105906372533"><ele>227.0</ele><time>2026-04-06T12:52:03.999Z</time></trkpt><trkpt lat="45.53784147763546" lon="8.24208800235674"><ele>226.33333333333334</ele><time>2026-04-06T12:52:04.999Z</time></trkpt><trkpt lat="45.53761998975238" lon="8.242071088651667"><ele>225.66666666666669</ele><time>2026-04-06T12:52:05.999Z</time></trkpt><trkpt lat="45.53739804361208" lon="8.242052679728456"><ele>225.0</ele><time>2026-04-06T12:52:06.999Z</time></trkpt><trkpt lat="45.53717799734827" lon="8.242032369550756"><ele>225.0</ele><time>2026-04-06T12:52:07.999Z</time></trkpt><trkpt lat="45.53695809094904" lon="8.24201231141505"><ele>225.0</ele><time>2026-04-06T12:52:08.999Z</time></trkpt><trkpt lat="45.536737572840906" lon="8.24198977629883"><ele>225.0</ele><time>2026-04-06T12:52:09.999Z</time></trkpt><trkpt lat="45.53651715269191" lon="8.241969458842826"><ele>225.0</ele><time>2026-04-06T12:52:10.999Z</time></trkpt><trkpt lat="45.536296082350674" lon="8.241952707197404"><ele>225.0</ele><time>2026-04-06T12:52:11.999Z</time></trkpt><trkpt lat="45.53607443325641" lon="8.241934339912932"><ele>225.0</ele><time>2026-04-06T12:52:12.999Z</time></trkpt><trkpt lat="45.53585232473637" lon="8.24191673262882"><ele>225.33333333333331</ele><time>2026-04-06T12:52:13.999Z</time></trkpt><trkpt lat="45.53562879650999" lon="8.241900011258956"><ele>225.66666666666666</ele><time>2026-04-06T12:52:14.999Z</time></trkpt><trkpt lat="45.53540455694527" lon="8.241881763208463"><ele>226.0</ele><time>2026-04-06T12:52:16Z</time></trkpt><trkpt lat="45.53517997069611" lon="8.24186260187836"><ele>226.0</ele><time>2026-04-06T12:52:17Z</time></trkpt><trkpt lat="45.53495509522092" lon="8.241839310539543"><ele>226.0</ele><time>2026-04-06T12:52:18Z</time></trkpt><trkpt lat="45.53472897606888" lon="8.2418180797067"><ele>226.0</ele><time>2026-04-06T12:52:19Z</time></trkpt><trkpt lat="45.53450155339468" lon="8.241798643290476"><ele>226.0</ele><time>2026-04-06T12:52:20Z</time></trkpt><trkpt lat="45.53427267035368" lon="8.24178228830237"><ele>226.0</ele><time>2026-04-06T12:52:21Z</time></trkpt><trkpt lat="45.53404299223398" lon="8.241762314383589"><ele>226.0</ele><time>2026-04-06T12:52:22Z</time></trkpt><trkpt lat="45.53381335237764" lon="8.241743377461793"><ele>224.5</ele><time>2026-04-06T12:52:23Z</time></trkpt><trkpt lat="45.53358548329312" lon="8.241722337232492"><ele>223.0</ele><time>2026-04-06T12:52:24Z</time></trkpt><trkpt lat="45.53335920504862" lon="8.241702612479875"><ele>223.0</ele><time>2026-04-06T12:52:25Z</time></trkpt><trkpt lat="45.533133269732076" lon="8.241679763765154"><ele>223.0</ele><time>2026-04-06T12:52:26Z</time></trkpt><trkpt lat="45.532907045022675" lon="8.24166367909775"><ele>223.33333333333331</ele><time>2026-04-06T12:52:27Z</time></trkpt><trkpt lat="45.5326825473846" lon="8.24164486646984"><ele>223.66666666666669</ele><time>2026-04-06T12:52:28Z</time></trkpt><trkpt lat="45.532459314517936" lon="8.24162742647576"><ele>224.0</ele><time>2026-04-06T12:52:29Z</time></trkpt><trkpt lat="45.532236495232254" lon="8.241607756424656"><ele>223.33333333333334</ele><time>2026-04-06T12:52:30Z</time></trkpt><trkpt lat="45.532015774970056" lon="8.241587812095412"><ele>222.66666666666669</ele><time>2026-04-06T12:52:31Z</time></trkpt><trkpt lat="45.53179608963304" lon="8.241567504234029"><ele>222.0</ele><time>2026-04-06T12:52:32Z</time></trkpt><trkpt lat="45.531576964917626" lon="8.241546253585026"><ele>222.0</ele><time>2026-04-06T12:52:33Z</time></trkpt><trkpt lat="45.531356086650426" lon="8.241520531521545"><ele>222.0</ele><time>2026-04-06T12:52:34Z</time></trkpt><trkpt lat="45.531135235380084" lon="8.241482809243278"><ele>222.0</ele><time>2026-04-06T12:52:35Z</time></trkpt><trkpt lat="45.53091449037486" lon="8.241432705453505"><ele>222.0</ele><time>2026-04-06T12:52:36Z</time></trkpt><trkpt lat="45.53069249582658" lon="8.24138062273903"><ele>222.0</ele><time>2026-04-06T12:52:37Z</time></trkpt><trkpt lat="45.53046920608626" lon="8.241345290404704"><ele>222.66666666666669</ele><time>2026-04-06T12:52:38Z</time></trkpt><trkpt lat="45.53024611622736" lon="8.241323904242918"><ele>223.33333333333334</ele><time>2026-04-06T12:52:39Z</time></trkpt><trkpt lat="45.530022207043785" lon="8.241306006785322"><ele>224.0</ele><time>2026-04-06T12:52:40Z</time></trkpt><trkpt lat="45.529797105515094" lon="8.241290896297434"><ele>224.0</ele><time>2026-04-06T12:52:41Z</time></trkpt><trkpt lat="45.52957406272155" lon="8.241278923369967"><ele>224.0</ele><time>2026-04-06T12:52:42Z</time></trkpt><trkpt lat="45.5293513242879" lon="8.24127434205298"><ele>224.0</ele><time>2026-04-06T12:52:43Z</time></trkpt><trkpt lat="45.529128014883405" lon="8.241275525369387"><ele>223.66666666666669</ele><time>2026-04-06T12:52:44Z</time></trkpt><trkpt lat="45.52890534146966" lon="8.241281632266336"><ele>223.33333333333331</ele><time>2026-04-06T12:52:45Z</time></trkpt><trkpt lat="45.52868090618297" lon="8.241280964326087"><ele>223.0</ele><time>2026-04-06T12:52:46Z</time></trkpt><trkpt lat="45.52845816645288" lon="8.241263068163814"><ele>223.0</ele><time>2026-04-06T12:52:47Z</time></trkpt><trkpt lat="45.52823745449781" lon="8.241242479389566"><ele>223.0</ele><time>2026-04-06T12:52:48Z</time></trkpt><trkpt lat="45.528015845840514" lon="8.241222027067439"><ele>223.0</ele><time>2026-04-06T12:52:49Z</time></trkpt><trkpt lat="45.52779252317488" lon="8.241202688093528"><ele>222.33333333333331</ele><time>2026-04-06T12:52:50Z</time></trkpt><trkpt lat="45.527568597944914" lon="8.241182853450251"><ele>221.66666666666669</ele><time>2026-04-06T12:52:51Z</time></trkpt><trkpt lat="45.52734407163396" lon="8.241165164519243"><ele>221.0</ele><time>2026-04-06T12:52:52Z</time></trkpt><trkpt lat="45.527119695012736" lon="8.241147193788317"><ele>221.5</ele><time>2026-04-06T12:52:53Z</time></trkpt><trkpt lat="45.52689264106287" lon="8.241128316335853"><ele>222.0</ele><time>2026-04-06T12:52:54Z</time></trkpt><trkpt lat="45.526664074267444" lon="8.241108709090227"><ele>222.0</ele><time>2026-04-06T12:52:55Z</time></trkpt><trkpt lat="45.526434750101" lon="8.241085508452677"><ele>222.0</ele><time>2026-04-06T12:52:56Z</time></trkpt><trkpt lat="45.52620596177275" lon="8.241065358074295"><ele>221.0</ele><time>2026-04-06T12:52:57Z</time></trkpt><trkpt lat="45.52597852852549" lon="8.241047417372469"><ele>220.0</ele><time>2026-04-06T12:52:58Z</time></trkpt><trkpt lat="45.525752545985284" lon="8.241027335484763"><ele>220.0</ele><time>2026-04-06T12:52:59Z</time></trkpt><trkpt lat="45.525525547559546" lon="8.241005871030668"><ele>220.0</ele><time>2026-04-06T12:53:00Z</time></trkpt><trkpt lat="45.525297673191176" lon="8.24098441787716"><ele>220.5</ele><time>2026-04-06T12:53:01Z</time></trkpt><trkpt lat="45.52506822513881" lon="8.240965281839472"><ele>221.0</ele><time>2026-04-06T12:53:02Z</time></trkpt><trkpt lat="45.52483851913034" lon="8.240944460986357"><ele>221.0</ele><time>2026-04-06T12:53:03Z</time></trkpt><trkpt lat="45.524611386686715" lon="8.240922123307922"><ele>221.0</ele><time>2026-04-06T12:53:04Z</time></trkpt><trkpt lat="45.52438333271584" lon="8.240902066407143"><ele>219.0</ele><time>2026-04-06T12:53:05Z</time></trkpt><trkpt lat="45.52415371568709" lon="8.240881727767544"><ele>217.0</ele><time>2026-04-06T12:53:06Z</time></trkpt><trkpt lat="45.523927260781825" lon="8.24086151531772"><ele>217.5</ele><time>2026-04-06T12:53:07Z</time></trkpt><trkpt lat="45.52370147620496" lon="8.24084180117848"><ele>218.0</ele><time>2026-04-06T12:53:08Z</time></trkpt><trkpt lat="45.52347306632462" lon="8.240820838623167"><ele>218.0</ele><time>2026-04-06T12:53:09Z</time></trkpt><trkpt lat="45.523243632112106" lon="8.240800876822659"><ele>218.0</ele><time>2026-04-06T12:53:10Z</time></trkpt><trkpt lat="45.523013857484706" lon="8.240782040815066"><ele>218.0</ele><time>2026-04-06T12:53:11Z</time></trkpt><trkpt lat="45.52278514292021" lon="8.240762213840826"><ele>218.0</ele><time>2026-04-06T12:53:12Z</time></trkpt><trkpt lat="45.52255594177411" lon="8.240742419949402"><ele>218.0</ele><time>2026-04-06T12:53:12.999Z</time></trkpt><trkpt lat="45.52232670551994" lon="8.240723320118487"><ele>218.0</ele><time>2026-04-06T12:53:13.999Z</time></trkpt><trkpt lat="45.522099750326845" lon="8.24070282196034"><ele>218.5</ele><time>2026-04-06T12:53:14.999Z</time></trkpt><trkpt lat="45.52187178279152" lon="8.2406806687235"><ele>219.0</ele><time>2026-04-06T12:53:15.999Z</time></trkpt><trkpt lat="45.52164340259841" lon="8.240660648109934"><ele>219.0</ele><time>2026-04-06T12:53:16.999Z</time></trkpt><trkpt lat="45.521414986626525" lon="8.240641451306832"><ele>219.0</ele><time>2026-04-06T12:53:17.999Z</time></trkpt><trkpt lat="45.52118777750302" lon="8.240620833298589"><ele>220.0</ele><time>2026-04-06T12:53:18.999Z</time></trkpt><trkpt lat="45.520959884782684" lon="8.240601672719656"><ele>221.0</ele><time>2026-04-06T12:53:19.999Z</time></trkpt><trkpt lat="45.52073293450887" lon="8.240582040208569"><ele>221.0</ele><time>2026-04-06T12:53:20.999Z</time></trkpt><trkpt lat="45.52050768492129" lon="8.240564161332893"><ele>221.0</ele><time>2026-04-06T12:53:21.999Z</time></trkpt><trkpt lat="45.5202813083026" lon="8.24054402180152"><ele>219.0</ele><time>2026-04-06T12:53:22.999Z</time></trkpt><trkpt lat="45.520051910695436" lon="8.240521688501635"><ele>217.0</ele><time>2026-04-06T12:53:23.999Z</time></trkpt><trkpt lat="45.51982070495073" lon="8.240496599258"><ele>217.0</ele><time>2026-04-06T12:53:24.999Z</time></trkpt><trkpt lat="45.51959225973221" lon="8.240433691242337"><ele>217.0</ele><time>2026-04-06T12:53:25.999Z</time></trkpt><trkpt lat="45.51936273451993" lon="8.240377644576077"><ele>215.5</ele><time>2026-04-06T12:53:26.999Z</time></trkpt><trkpt lat="45.51913452392701" lon="8.24031733836927"><ele>214.0</ele><time>2026-04-06T12:53:27.999Z</time></trkpt><trkpt lat="45.51890529710406" lon="8.240273266068618"><ele>213.0</ele><time>2026-04-06T12:53:28.999Z</time></trkpt><trkpt lat="45.51867838608353" lon="8.240201640542839"><ele>212.0</ele><time>2026-04-06T12:53:29.999Z</time></trkpt><trkpt lat="45.51844972149558" lon="8.240132848978428"><ele>212.0</ele><time>2026-04-06T12:53:30.999Z</time></trkpt><trkpt lat="45.51822364772571" lon="8.240061331592344"><ele>212.0</ele><time>2026-04-06T12:53:31.999Z</time></trkpt><trkpt lat="45.5179992423652" lon="8.23998434006037"><ele>212.5</ele><time>2026-04-06T12:53:32.999Z</time></trkpt><trkpt lat="45.51777637843189" lon="8.239895982664173"><ele>213.0</ele><time>2026-04-06T12:53:33.999Z</time></trkpt><trkpt lat="45.51756256182379" lon="8.239770462974258"><ele>213.0</ele><time>2026-04-06T12:53:34.999Z</time></trkpt><trkpt lat="45.5173408078917" lon="8.239684981892314"><ele>213.0</ele><time>2026-04-06T12:53:35.999Z</time></trkpt><trkpt lat="45.51713999104743" lon="8.23958237843"><ele>213.0</ele><time>2026-04-06T12:53:36.999Z</time></trkpt><trkpt lat="45.516951539166" lon="8.239489150536185"><ele>213.0</ele><time>2026-04-06T12:53:37.999Z</time></trkpt><trkpt lat="45.516771778378995" lon="8.239400902912891"><ele>213.0</ele><time>2026-04-06T12:53:38.999Z</time></trkpt><trkpt lat="45.51659988146928" lon="8.239313694257133"><ele>213.0</ele><time>2026-04-06T12:53:39.999Z</time></trkpt><trkpt lat="45.516425313022246" lon="8.239223779368986"><ele>213.0</ele><time>2026-04-06T12:53:40.999Z</time></trkpt><trkpt lat="45.5162432137326" lon="8.239126063821853"><ele>213.0</ele><time>2026-04-06T12:53:41.999Z</time></trkpt><trkpt lat="45.51605965944587" lon="8.239033830237346"><ele>213.0</ele><time>2026-04-06T12:53:42.999Z</time></trkpt><trkpt lat="45.51588116927829" lon="8.238947033641523"><ele>213.0</ele><time>2026-04-06T12:53:43.999Z</time></trkpt><trkpt lat="45.51569849750361" lon="8.238859478227102"><ele>213.0</ele><time>2026-04-06T12:53:44.999Z</time></trkpt><trkpt lat="45.51551988437752" lon="8.238777498822047"><ele>213.0</ele><time>2026-04-06T12:53:45.999Z</time></trkpt><trkpt lat="45.51534588988678" lon="8.238699849325819"><ele>211.66666666666669</ele><time>2026-04-06T12:53:46.999Z</time></trkpt><trkpt lat="45.51517234099597" lon="8.238624708754948"><ele>210.33333333333334</ele><time>2026-04-06T12:53:47.999Z</time></trkpt><trkpt lat="45.51500062470633" lon="8.238552924721192"><ele>209.0</ele><time>2026-04-06T12:53:48.999Z</time></trkpt><trkpt lat="45.514832412691" lon="8.23848592596218"><ele>209.0</ele><time>2026-04-06T12:53:49.999Z</time></trkpt><trkpt lat="45.51466704557852" lon="8.238415651831161"><ele>209.0</ele><time>2026-04-06T12:53:50.999Z</time></trkpt><trkpt lat="45.51450336357004" lon="8.238346134591666"><ele>209.0</ele><time>2026-04-06T12:53:51.999Z</time></trkpt><trkpt lat="45.51434036741022" lon="8.23828011019858"><ele>207.66666666666669</ele><time>2026-04-06T12:53:52.999Z</time></trkpt><trkpt lat="45.51417626867531" lon="8.238211270872927"><ele>206.33333333333331</ele><time>2026-04-06T12:53:53.999Z</time></trkpt><trkpt lat="45.514013910281335" lon="8.238144447258765"><ele>205.0</ele><time>2026-04-06T12:53:54.999Z</time></trkpt><trkpt lat="45.51385276087615" lon="8.238083952037112"><ele>201.33333333333331</ele><time>2026-04-06T12:53:55.999Z</time></trkpt><trkpt lat="45.51368773899686" lon="8.238018137048831"><ele>197.66666666666669</ele><time>2026-04-06T12:53:56.999Z</time></trkpt><trkpt lat="45.513523730349725" lon="8.237951567419392"><ele>194.0</ele><time>2026-04-06T12:53:57.999Z</time></trkpt><trkpt lat="45.513361960414656" lon="8.237884250331339"><ele>194.0</ele><time>2026-04-06T12:53:58.999Z</time></trkpt><trkpt lat="45.513197355517576" lon="8.237816850560753"><ele>194.0</ele><time>2026-04-06T12:53:59.999Z</time></trkpt><trkpt lat="45.51303386850999" lon="8.237752730202573"><ele>194.0</ele><time>2026-04-06T12:54:00.999Z</time></trkpt><trkpt lat="45.51287177634295" lon="8.23769016975673"><ele>193.33333333333334</ele><time>2026-04-06T12:54:01.999Z</time></trkpt><trkpt lat="45.512705940337526" lon="8.237623770676713"><ele>192.66666666666669</ele><time>2026-04-06T12:54:02.999Z</time></trkpt><trkpt lat="45.51254053617794" lon="8.237558553390773"><ele>192.0</ele><time>2026-04-06T12:54:03.999Z</time></trkpt><trkpt lat="45.51237764297229" lon="8.23749277434686"><ele>192.0</ele><time>2026-04-06T12:54:04.999Z</time></trkpt><trkpt lat="45.512212398247925" lon="8.237424795329524"><ele>192.0</ele><time>2026-04-06T12:54:05.999Z</time></trkpt><trkpt lat="45.51204255821412" lon="8.23735725603807"><ele>192.0</ele><time>2026-04-06T12:54:06.999Z</time></trkpt><trkpt lat="45.511872657512875" lon="8.237289413297278"><ele>191.0</ele><time>2026-04-06T12:54:07.999Z</time></trkpt><trkpt lat="45.511701835393936" lon="8.237220543983792"><ele>190.0</ele><time>2026-04-06T12:54:08.999Z</time></trkpt><trkpt lat="45.51152938779676" lon="8.237152948317986"><ele>189.0</ele><time>2026-04-06T12:54:09.999Z</time></trkpt><trkpt lat="45.51136065375801" lon="8.237085265324852"><ele>188.33333333333334</ele><time>2026-04-06T12:54:10.999Z</time></trkpt><trkpt lat="45.51119916438827" lon="8.237018161421348"><ele>187.66666666666669</ele><time>2026-04-06T12:54:11.999Z</time></trkpt><trkpt lat="45.5110518446793" lon="8.236958718054433"><ele>187.0</ele><time>2026-04-06T12:54:12.999Z</time></trkpt><trkpt lat="45.510903480120994" lon="8.236906582814509"><ele>187.0</ele><time>2026-04-06T12:54:13.999Z</time></trkpt><trkpt lat="45.51076386956503" lon="8.23687018121633"><ele>187.0</ele><time>2026-04-06T12:54:14.999Z</time></trkpt><trkpt lat="45.510631437785214" lon="8.236837571774906"><ele>187.0</ele><time>2026-04-06T12:54:15.999Z</time></trkpt><trkpt lat="45.510515566318304" lon="8.236792079017372"><ele>187.0</ele><time>2026-04-06T12:54:16.999Z</time></trkpt><trkpt lat="45.51041554164626" lon="8.236753866902786"><ele>187.39999999999998</ele><time>2026-04-06T12:54:17.999Z</time></trkpt><trkpt lat="45.51032511205773" lon="8.236768491652947"><ele>187.79999999999998</ele><time>2026-04-06T12:54:18.999Z</time></trkpt><trkpt lat="45.51024782707212" lon="8.236850071756288"><ele>188.2</ele><time>2026-04-06T12:54:19.999Z</time></trkpt><trkpt lat="45.510175971987" lon="8.236978963981056"><ele>188.6</ele><time>2026-04-06T12:54:20.999Z</time></trkpt><trkpt lat="45.51007264637106" lon="8.237083205265526"><ele>189.0</ele><time>2026-04-06T12:54:22Z</time></trkpt><trkpt lat="45.509952507366876" lon="8.2371933439711"><ele>188.66666666666666</ele><time>2026-04-06T12:54:23Z</time></trkpt><trkpt lat="45.50983206302441" lon="8.237325199858452"><ele>188.33333333333331</ele><time>2026-04-06T12:54:24Z</time></trkpt><trkpt lat="45.509709188200375" lon="8.237475679059985"><ele>188.0</ele><time>2026-04-06T12:54:25Z</time></trkpt><trkpt lat="45.50958814026166" lon="8.237625383130803"><ele>187.66666666666666</ele><time>2026-04-06T12:54:26Z</time></trkpt><trkpt lat="45.509463389457956" lon="8.237783461250595"><ele>187.33333333333334</ele><time>2026-04-06T12:54:27Z</time></trkpt><trkpt lat="45.50933643815861" lon="8.2379479357152"><ele>187.0</ele><time>2026-04-06T12:54:28Z</time></trkpt><trkpt lat="45.50920372523215" lon="8.238114618348174"><ele>187.0</ele><time>2026-04-06T12:54:29Z</time></trkpt><trkpt lat="45.50906674948035" lon="8.238289228141221"><ele>187.0</ele><time>2026-04-06T12:54:30Z</time></trkpt><trkpt lat="45.508926896399046" lon="8.238469493840052"><ele>187.0</ele><time>2026-04-06T12:54:31Z</time></trkpt><trkpt lat="45.50878078565761" lon="8.23865259876333"><ele>187.0</ele><time>2026-04-06T12:54:32Z</time></trkpt><trkpt lat="45.50863062925715" lon="8.238841472129419"><ele>187.0</ele><time>2026-04-06T12:54:33Z</time></trkpt><trkpt lat="45.508478477956274" lon="8.239035233880298"><ele>187.0</ele><time>2026-04-06T12:54:34Z</time></trkpt><trkpt lat="45.50832077257505" lon="8.239233828442899"><ele>187.0</ele><time>2026-04-06T12:54:35Z</time></trkpt><trkpt lat="45.50815987514313" lon="8.239434485949594"><ele>187.0</ele><time>2026-04-06T12:54:36Z</time></trkpt><trkpt lat="45.50800020874304" lon="8.23963833385788"><ele>187.0</ele><time>2026-04-06T12:54:37Z</time></trkpt><trkpt lat="45.50783851800608" lon="8.239845311502657"><ele>186.66666666666669</ele><time>2026-04-06T12:54:38Z</time></trkpt><trkpt lat="45.50767821718128" lon="8.240051134037852"><ele>186.33333333333334</ele><time>2026-04-06T12:54:39Z</time></trkpt><trkpt lat="45.50751532018989" lon="8.240259645739345"><ele>186.0</ele><time>2026-04-06T12:54:40Z</time></trkpt><trkpt lat="45.50735132190396" lon="8.240468989537789"><ele>186.0</ele><time>2026-04-06T12:54:41Z</time></trkpt><trkpt lat="45.507187406637115" lon="8.240677960152139"><ele>186.0</ele><time>2026-04-06T12:54:42Z</time></trkpt><trkpt lat="45.507024348406716" lon="8.24088653503515"><ele>186.0</ele><time>2026-04-06T12:54:43Z</time></trkpt><trkpt lat="45.50686235873502" lon="8.241094201810558"><ele>186.0</ele><time>2026-04-06T12:54:44Z</time></trkpt><trkpt lat="45.506699707357946" lon="8.241301224387385"><ele>186.0</ele><time>2026-04-06T12:54:45Z</time></trkpt><trkpt lat="45.50653480484807" lon="8.241506949272006"><ele>186.0</ele><time>2026-04-06T12:54:46Z</time></trkpt><trkpt lat="45.506372350995974" lon="8.241713404419594"><ele>185.66666666666666</ele><time>2026-04-06T12:54:47Z</time></trkpt><trkpt lat="45.50621086074955" lon="8.241918966485434"><ele>185.33333333333331</ele><time>2026-04-06T12:54:48Z</time></trkpt><trkpt lat="45.50604921094134" lon="8.242124832727242"><ele>185.0</ele><time>2026-04-06T12:54:49Z</time></trkpt><trkpt lat="45.50588730360712" lon="8.242331171472296"><ele>185.0</ele><time>2026-04-06T12:54:50Z</time></trkpt><trkpt lat="45.50572469378884" lon="8.242537883465117"><ele>185.0</ele><time>2026-04-06T12:54:51Z</time></trkpt><trkpt lat="45.50556446201718" lon="8.24274262108109"><ele>185.0</ele><time>2026-04-06T12:54:52Z</time></trkpt><trkpt lat="45.505405458702704" lon="8.24294772426788"><ele>185.33333333333331</ele><time>2026-04-06T12:54:53Z</time></trkpt><trkpt lat="45.5052439396887" lon="8.243152363038996"><ele>185.66666666666666</ele><time>2026-04-06T12:54:54Z</time></trkpt><trkpt lat="45.505082812694226" lon="8.243357404817107"><ele>186.0</ele><time>2026-04-06T12:54:55Z</time></trkpt><trkpt lat="45.50491966461856" lon="8.243563379410144"><ele>186.0</ele><time>2026-04-06T12:54:56Z</time></trkpt><trkpt lat="45.50475679133474" lon="8.24376841631746"><ele>186.0</ele><time>2026-04-06T12:54:57Z</time></trkpt><trkpt lat="45.504594836544996" lon="8.243973769956247"><ele>186.0</ele><time>2026-04-06T12:54:58Z</time></trkpt><trkpt lat="45.50443457579562" lon="8.244180119680276"><ele>185.0</ele><time>2026-04-06T12:54:59Z</time></trkpt><trkpt lat="45.50427263443898" lon="8.244388226688875"><ele>184.0</ele><time>2026-04-06T12:55:00Z</time></trkpt><trkpt lat="45.50410985996069" lon="8.244594476013388"><ele>183.0</ele><time>2026-04-06T12:55:01Z</time></trkpt><trkpt lat="45.50394738130404" lon="8.244800547346333"><ele>183.0</ele><time>2026-04-06T12:55:02Z</time></trkpt><trkpt lat="45.50378592695161" lon="8.245005611589644"><ele>183.0</ele><time>2026-04-06T12:55:03Z</time></trkpt><trkpt lat="45.503626839079494" lon="8.245207967698793"><ele>183.0</ele><time>2026-04-06T12:55:04Z</time></trkpt><trkpt lat="45.50345422680391" lon="8.245396282724538"><ele>183.0</ele><time>2026-04-06T12:55:05Z</time></trkpt><trkpt lat="45.50329416839967" lon="8.245598546830115"><ele>183.0</ele><time>2026-04-06T12:55:06Z</time></trkpt><trkpt lat="45.50314751394081" lon="8.245817758662836"><ele>183.0</ele><time>2026-04-06T12:55:07Z</time></trkpt><trkpt lat="45.50299174940794" lon="8.246017000880057"><ele>183.0</ele><time>2026-04-06T12:55:08Z</time></trkpt><trkpt lat="45.502825190277036" lon="8.246198261313044"><ele>183.0</ele><time>2026-04-06T12:55:09Z</time></trkpt><trkpt lat="45.50266913921058" lon="8.246393316892807"><ele>183.0</ele><time>2026-04-06T12:55:10Z</time></trkpt><trkpt lat="45.502519061407874" lon="8.246589041828877"><ele>183.0</ele><time>2026-04-06T12:55:11Z</time></trkpt><trkpt lat="45.50236685154716" lon="8.246792299726293"><ele>183.0</ele><time>2026-04-06T12:55:12Z</time></trkpt><trkpt lat="45.50223270975997" lon="8.247011240243058"><ele>183.0</ele><time>2026-04-06T12:55:13Z</time></trkpt><trkpt lat="45.50207753390295" lon="8.247206409172898"><ele>182.66666666666666</ele><time>2026-04-06T12:55:14Z</time></trkpt><trkpt lat="45.50191523657072" lon="8.24739549305762"><ele>182.33333333333331</ele><time>2026-04-06T12:55:15Z</time></trkpt><trkpt lat="45.50175642600235" lon="8.24759438547612"><ele>182.0</ele><time>2026-04-06T12:55:16Z</time></trkpt><trkpt lat="45.5015999432786" lon="8.247795498408596"><ele>182.0</ele><time>2026-04-06T12:55:17Z</time></trkpt><trkpt lat="45.50143362626067" lon="8.247968209165263"><ele>182.0</ele><time>2026-04-06T12:55:18Z</time></trkpt><trkpt lat="45.50129436122954" lon="8.248175028033266"><ele>182.0</ele><time>2026-04-06T12:55:19Z</time></trkpt><trkpt lat="45.50113555684622" lon="8.248345770604857"><ele>181.66666666666666</ele><time>2026-04-06T12:55:20Z</time></trkpt><trkpt lat="45.500989673428016" lon="8.24853055867302"><ele>181.33333333333334</ele><time>2026-04-06T12:55:21Z</time></trkpt><trkpt lat="45.50086057634816" lon="8.24872776105586"><ele>181.0</ele><time>2026-04-06T12:55:22Z</time></trkpt><trkpt lat="45.50073067701198" lon="8.248891650775501"><ele>181.33333333333334</ele><time>2026-04-06T12:55:23Z</time></trkpt><trkpt lat="45.50060252626016" lon="8.249054674240167"><ele>181.66666666666666</ele><time>2026-04-06T12:55:24Z</time></trkpt><trkpt lat="45.50047599710243" lon="8.249217898375205"><ele>182.0</ele><time>2026-04-06T12:55:25Z</time></trkpt><trkpt lat="45.50035475642935" lon="8.24937221292674"><ele>181.33333333333331</ele><time>2026-04-06T12:55:26Z</time></trkpt><trkpt lat="45.500232608311386" lon="8.249518967206507"><ele>180.66666666666666</ele><time>2026-04-06T12:55:26.999Z</time></trkpt><trkpt lat="45.50010928397279" lon="8.249668314992606"><ele>180.0</ele><time>2026-04-06T12:55:27.999Z</time></trkpt><trkpt lat="45.49999183161059" lon="8.2498149072855"><ele>180.0</ele><time>2026-04-06T12:55:28.999Z</time></trkpt><trkpt lat="45.49987858117352" lon="8.249962842575064"><ele>180.0</ele><time>2026-04-06T12:55:29.999Z</time></trkpt><trkpt lat="45.499761128657354" lon="8.250111498190279"><ele>180.0</ele><time>2026-04-06T12:55:30.999Z</time></trkpt><trkpt lat="45.49964677676999" lon="8.250257061215082"><ele>180.33333333333334</ele><time>2026-04-06T12:55:31.999Z</time></trkpt><trkpt lat="45.49953751222123" lon="8.25040000526567"><ele>180.66666666666669</ele><time>2026-04-06T12:55:32.999Z</time></trkpt><trkpt lat="45.49942605437822" lon="8.250543197045046"><ele>181.0</ele><time>2026-04-06T12:55:33.999Z</time></trkpt><trkpt lat="45.499305355613444" lon="8.250696336291096"><ele>180.33333333333334</ele><time>2026-04-06T12:55:34.999Z</time></trkpt><trkpt lat="45.49917864580012" lon="8.250856050221277"><ele>179.66666666666666</ele><time>2026-04-06T12:55:35.999Z</time></trkpt><trkpt lat="45.49904251337501" lon="8.251022056594824"><ele>179.0</ele><time>2026-04-06T12:55:36.999Z</time></trkpt><trkpt lat="45.498902791278844" lon="8.251195101346754"><ele>179.0</ele><time>2026-04-06T12:55:37.999Z</time></trkpt><trkpt lat="45.49875796657272" lon="8.25137415172806"><ele>179.0</ele><time>2026-04-06T12:55:38.999Z</time></trkpt><trkpt lat="45.498612994734216" lon="8.251556936215444"><ele>179.0</ele><time>2026-04-06T12:55:39.999Z</time></trkpt><trkpt lat="45.498465564676785" lon="8.251742616385329"><ele>179.33333333333331</ele><time>2026-04-06T12:55:40.999Z</time></trkpt><trkpt lat="45.498317934516805" lon="8.251930540450417"><ele>179.66666666666666</ele><time>2026-04-06T12:55:41.999Z</time></trkpt><trkpt lat="45.498171916150724" lon="8.25211698660684"><ele>180.0</ele><time>2026-04-06T12:55:42.999Z</time></trkpt><trkpt lat="45.49802174302714" lon="8.252306528407528"><ele>180.33333333333334</ele><time>2026-04-06T12:55:43.999Z</time></trkpt><trkpt lat="45.49787428425515" lon="8.252493764361999"><ele>180.66666666666669</ele><time>2026-04-06T12:55:44.999Z</time></trkpt><trkpt lat="45.49772571138718" lon="8.252682083070223"><ele>181.0</ele><time>2026-04-06T12:55:45.999Z</time></trkpt><trkpt lat="45.497576212558634" lon="8.252870639657965"><ele>181.0</ele><time>2026-04-06T12:55:46.999Z</time></trkpt><trkpt lat="45.497423927925375" lon="8.253062117665845"><ele>181.0</ele><time>2026-04-06T12:55:47.999Z</time></trkpt><trkpt lat="45.49727278359535" lon="8.253254851563119"><ele>181.0</ele><time>2026-04-06T12:55:48.999Z</time></trkpt><trkpt lat="45.49711872182715" lon="8.253449724429064"><ele>180.66666666666669</ele><time>2026-04-06T12:55:49.999Z</time></trkpt><trkpt lat="45.49696242355107" lon="8.25364787984849"><ele>180.33333333333334</ele><time>2026-04-06T12:55:50.999Z</time></trkpt><trkpt lat="45.49680580730031" lon="8.25384700912686"><ele>180.0</ele><time>2026-04-06T12:55:51.999Z</time></trkpt><trkpt lat="45.496648876362165" lon="8.25404639842328"><ele>181.0</ele><time>2026-04-06T12:55:52.999Z</time></trkpt><trkpt lat="45.49649234647221" lon="8.254246019445633"><ele>182.0</ele><time>2026-04-06T12:55:53.999Z</time></trkpt><trkpt lat="45.496337026232226" lon="8.254450600045754"><ele>183.0</ele><time>2026-04-06T12:55:54.999Z</time></trkpt><trkpt lat="45.49618701803232" lon="8.254668745743727"><ele>183.66666666666666</ele><time>2026-04-06T12:55:55.999Z</time></trkpt><trkpt lat="45.49604234845461" lon="8.254896082518947"><ele>184.33333333333331</ele><time>2026-04-06T12:55:56.999Z</time></trkpt><trkpt lat="45.49590087879569" lon="8.255109051535113"><ele>185.0</ele><time>2026-04-06T12:55:57.999Z</time></trkpt><trkpt lat="45.49574460019357" lon="8.255293205815022"><ele>185.0</ele><time>2026-04-06T12:55:58.999Z</time></trkpt><trkpt lat="45.49556770670514" lon="8.255457187052253"><ele>185.0</ele><time>2026-04-06T12:55:59.999Z</time></trkpt><trkpt lat="45.49538153669347" lon="8.255607815774955"><ele>185.0</ele><time>2026-04-06T12:56:00.999Z</time></trkpt><trkpt lat="45.495193457929545" lon="8.255758923497925"><ele>183.66666666666666</ele><time>2026-04-06T12:56:01.999Z</time></trkpt><trkpt lat="45.49500727327027" lon="8.255908077044095"><ele>182.33333333333334</ele><time>2026-04-06T12:56:02.999Z</time></trkpt><trkpt lat="45.494823332267245" lon="8.256059300944111"><ele>181.0</ele><time>2026-04-06T12:56:03.999Z</time></trkpt><trkpt lat="45.494639854702726" lon="8.256211682898364"><ele>180.33333333333334</ele><time>2026-04-06T12:56:04.999Z</time></trkpt><trkpt lat="45.494457554464084" lon="8.256361843326152"><ele>179.66666666666666</ele><time>2026-04-06T12:56:05.999Z</time></trkpt><trkpt lat="45.4942750274451" lon="8.25651186409136"><ele>179.0</ele><time>2026-04-06T12:56:06.999Z</time></trkpt><trkpt lat="45.49409032319824" lon="8.2566617029938"><ele>179.0</ele><time>2026-04-06T12:56:07.999Z</time></trkpt><trkpt lat="45.49390827806071" lon="8.256809698198435"><ele>179.0</ele><time>2026-04-06T12:56:08.999Z</time></trkpt><trkpt lat="45.49372390012961" lon="8.256960429747526"><ele>179.0</ele><time>2026-04-06T12:56:09.999Z</time></trkpt><trkpt lat="45.493538740541375" lon="8.257114123494548"><ele>178.66666666666666</ele><time>2026-04-06T12:56:10.999Z</time></trkpt><trkpt lat="45.49335027289445" lon="8.257268324467452"><ele>178.33333333333334</ele><time>2026-04-06T12:56:11.999Z</time></trkpt><trkpt lat="45.49316186132734" lon="8.257422243440757"><ele>178.0</ele><time>2026-04-06T12:56:12.999Z</time></trkpt><trkpt lat="45.49297051680858" lon="8.257578269053313"><ele>178.33333333333334</ele><time>2026-04-06T12:56:13.999Z</time></trkpt><trkpt lat="45.49277823196391" lon="8.257735551473914"><ele>178.66666666666666</ele><time>2026-04-06T12:56:14.999Z</time></trkpt><trkpt lat="45.492588366847734" lon="8.257892174151134"><ele>179.0</ele><time>2026-04-06T12:56:15.999Z</time></trkpt><trkpt lat="45.49239740246251" lon="8.258048117609754"><ele>179.0</ele><time>2026-04-06T12:56:16.999Z</time></trkpt><trkpt lat="45.49220739071934" lon="8.258205511148951"><ele>179.0</ele><time>2026-04-06T12:56:17.999Z</time></trkpt><trkpt lat="45.49201603900102" lon="8.258363696423176"><ele>179.0</ele><time>2026-04-06T12:56:18.999Z</time></trkpt><trkpt lat="45.49182342617584" lon="8.258522107445232"><ele>178.66666666666666</ele><time>2026-04-06T12:56:19.999Z</time></trkpt><trkpt lat="45.49163040498933" lon="8.258681729825005"><ele>178.33333333333334</ele><time>2026-04-06T12:56:20.999Z</time></trkpt><trkpt lat="45.49143684048692" lon="8.258838894827983"><ele>178.0</ele><time>2026-04-06T12:56:21.999Z</time></trkpt><trkpt lat="45.49124232845705" lon="8.25899699711065"><ele>178.0</ele><time>2026-04-06T12:56:22.999Z</time></trkpt><trkpt lat="45.49105134705482" lon="8.25915098112225"><ele>178.0</ele><time>2026-04-06T12:56:23.999Z</time></trkpt><trkpt lat="45.49086149079858" lon="8.259305820044869"><ele>178.0</ele><time>2026-04-06T12:56:24.999Z</time></trkpt><trkpt lat="45.49067285628766" lon="8.259460446650683"><ele>178.0</ele><time>2026-04-06T12:56:25.999Z</time></trkpt><trkpt lat="45.490483585717804" lon="8.259614474779534"><ele>178.0</ele><time>2026-04-06T12:56:26.999Z</time></trkpt><trkpt lat="45.49029589056219" lon="8.259769325368502"><ele>178.0</ele><time>2026-04-06T12:56:28Z</time></trkpt><trkpt lat="45.490108059670746" lon="8.259924533524737"><ele>177.33333333333334</ele><time>2026-04-06T12:56:29Z</time></trkpt><trkpt lat="45.48992141093961" lon="8.260078480366975"><ele>176.66666666666666</ele><time>2026-04-06T12:56:30Z</time></trkpt><trkpt lat="45.48973473636974" lon="8.260233983556095"><ele>176.0</ele><time>2026-04-06T12:56:31Z</time></trkpt><trkpt lat="45.48955099858075" lon="8.260387562459416"><ele>176.0</ele><time>2026-04-06T12:56:32Z</time></trkpt><trkpt lat="45.48935871650458" lon="8.260519495404846"><ele>176.0</ele><time>2026-04-06T12:56:33Z</time></trkpt><trkpt lat="45.48918164897848" lon="8.260690154155975"><ele>176.0</ele><time>2026-04-06T12:56:34Z</time></trkpt><trkpt lat="45.48899470525664" lon="8.260840168980584"><ele>176.33333333333331</ele><time>2026-04-06T12:56:35Z</time></trkpt><trkpt lat="45.488809798568624" lon="8.260990498308825"><ele>176.66666666666666</ele><time>2026-04-06T12:56:36Z</time></trkpt><trkpt lat="45.48862570923427" lon="8.261140037946786"><ele>177.0</ele><time>2026-04-06T12:56:37Z</time></trkpt><trkpt lat="45.48844332039663" lon="8.261288705451554"><ele>176.66666666666666</ele><time>2026-04-06T12:56:38Z</time></trkpt><trkpt lat="45.48826209029798" lon="8.26143710320014"><ele>176.33333333333331</ele><time>2026-04-06T12:56:39Z</time></trkpt><trkpt lat="45.48808129722587" lon="8.261582318463848"><ele>176.0</ele><time>2026-04-06T12:56:40Z</time></trkpt><trkpt lat="45.487893467129524" lon="8.26171891661349"><ele>175.33333333333331</ele><time>2026-04-06T12:56:41Z</time></trkpt><trkpt lat="45.487704852264635" lon="8.261849858849931"><ele>174.66666666666666</ele><time>2026-04-06T12:56:42Z</time></trkpt><trkpt lat="45.487510275888525" lon="8.26196609221606"><ele>174.0</ele><time>2026-04-06T12:56:43Z</time></trkpt><trkpt lat="45.48730899317441" lon="8.262065513825926"><ele>174.0</ele><time>2026-04-06T12:56:44Z</time></trkpt><trkpt lat="45.48710583533885" lon="8.262154897959453"><ele>174.0</ele><time>2026-04-06T12:56:45Z</time></trkpt><trkpt lat="45.48690140940769" lon="8.262232643993636"><ele>174.0</ele><time>2026-04-06T12:56:46Z</time></trkpt><trkpt lat="45.48669003838844" lon="8.262298374939302"><ele>174.0</ele><time>2026-04-06T12:56:47Z</time></trkpt><trkpt lat="45.486477833915494" lon="8.262349466970543"><ele>174.0</ele><time>2026-04-06T12:56:48Z</time></trkpt><trkpt lat="45.48626218865019" lon="8.262386392871104"><ele>174.0</ele><time>2026-04-06T12:56:49Z</time></trkpt><trkpt lat="45.48604763527938" lon="8.262407531950917"><ele>174.0</ele><time>2026-04-06T12:56:50Z</time></trkpt><trkpt lat="45.485831690657776" lon="8.26241479091253"><ele>174.0</ele><time>2026-04-06T12:56:51Z</time></trkpt><trkpt lat="45.48561367276601" lon="8.262410611466334"><ele>174.0</ele><time>2026-04-06T12:56:52Z</time></trkpt><trkpt lat="45.485396444034436" lon="8.262394867574193"><ele>173.0</ele><time>2026-04-06T12:56:53Z</time></trkpt><trkpt lat="45.48518031011459" lon="8.2623622853097"><ele>172.0</ele><time>2026-04-06T12:56:54Z</time></trkpt><trkpt lat="45.48496690233089" lon="8.262313884385234"><ele>171.0</ele><time>2026-04-06T12:56:55Z</time></trkpt><trkpt lat="45.48475552931686" lon="8.262255075218645"><ele>172.0</ele><time>2026-04-06T12:56:56Z</time></trkpt><trkpt lat="45.484546840822446" lon="8.262192526796824"><ele>173.0</ele><time>2026-04-06T12:56:57Z</time></trkpt><trkpt lat="45.48433736428539" lon="8.262121723616321"><ele>174.0</ele><time>2026-04-06T12:56:58Z</time></trkpt><trkpt lat="45.48412490025458" lon="8.262059129670142"><ele>174.0</ele><time>2026-04-06T12:56:59Z</time></trkpt><trkpt lat="45.483910118104156" lon="8.261994212837608"><ele>174.0</ele><time>2026-04-06T12:57:00Z</time></trkpt><trkpt lat="45.4836937248653" lon="8.261933658885779"><ele>174.0</ele><time>2026-04-06T12:57:01Z</time></trkpt><trkpt lat="45.48347639803963" lon="8.26186949119958"><ele>174.0</ele><time>2026-04-06T12:57:02Z</time></trkpt><trkpt lat="45.48325730765734" lon="8.261804782324287"><ele>174.0</ele><time>2026-04-06T12:57:03Z</time></trkpt><trkpt lat="45.483039045871024" lon="8.261743883955294"><ele>174.0</ele><time>2026-04-06T12:57:04Z</time></trkpt><trkpt lat="45.48282672614548" lon="8.261679973981094"><ele>174.0</ele><time>2026-04-06T12:57:05Z</time></trkpt><trkpt lat="45.482613894188226" lon="8.261614578613537"><ele>174.0</ele><time>2026-04-06T12:57:06Z</time></trkpt><trkpt lat="45.4823984774857" lon="8.261552146468647"><ele>174.0</ele><time>2026-04-06T12:57:07Z</time></trkpt><trkpt lat="45.48218419127489" lon="8.261490296624322"><ele>173.33333333333334</ele><time>2026-04-06T12:57:08Z</time></trkpt><trkpt lat="45.48197393880072" lon="8.26142776330781"><ele>172.66666666666669</ele><time>2026-04-06T12:57:09Z</time></trkpt><trkpt lat="45.481764857119636" lon="8.261366428641868"><ele>172.0</ele><time>2026-04-06T12:57:10Z</time></trkpt><trkpt lat="45.48156268557391" lon="8.261309156929658"><ele>172.0</ele><time>2026-04-06T12:57:11Z</time></trkpt><trkpt lat="45.4813764966851" lon="8.261255741128267"><ele>172.0</ele><time>2026-04-06T12:57:12Z</time></trkpt><trkpt lat="45.4812141746118" lon="8.26121079975859"><ele>172.0</ele><time>2026-04-06T12:57:13Z</time></trkpt><trkpt lat="45.48107744497532" lon="8.261170441491304"><ele>172.2</ele><time>2026-04-06T12:57:14Z</time></trkpt><trkpt lat="45.48096445725409" lon="8.261134369546193"><ele>172.39999999999998</ele><time>2026-04-06T12:57:15Z</time></trkpt><trkpt lat="45.48087351238973" lon="8.26110447619579"><ele>172.60000000000002</ele><time>2026-04-06T12:57:16Z</time></trkpt><trkpt lat="45.4807737600447" lon="8.261075370378185"><ele>172.8</ele><time>2026-04-06T12:57:17Z</time></trkpt><trkpt lat="45.480654958772746" lon="8.261041409595764"><ele>173.0</ele><time>2026-04-06T12:57:18Z</time></trkpt><trkpt lat="45.48052348619224" lon="8.261003519823616"><ele>173.0</ele><time>2026-04-06T12:57:19Z</time></trkpt><trkpt lat="45.48037891390556" lon="8.26096032599487"><ele>173.0</ele><time>2026-04-06T12:57:20Z</time></trkpt><trkpt lat="45.48022097451548" lon="8.260915462084776"><ele>173.0</ele><time>2026-04-06T12:57:21Z</time></trkpt><trkpt lat="45.480057695793924" lon="8.260869368061293"><ele>173.0</ele><time>2026-04-06T12:57:22Z</time></trkpt><trkpt lat="45.4798868725485" lon="8.260817616450366"><ele>173.0</ele><time>2026-04-06T12:57:23Z</time></trkpt><trkpt lat="45.479709417567705" lon="8.260766242393576"><ele>173.0</ele><time>2026-04-06T12:57:24Z</time></trkpt><trkpt lat="45.479525837022365" lon="8.260712453066054"><ele>173.0</ele><time>2026-04-06T12:57:25Z</time></trkpt><trkpt lat="45.47933860770451" lon="8.260657817109195"><ele>173.0</ele><time>2026-04-06T12:57:26Z</time></trkpt><trkpt lat="45.4791466107793" lon="8.260603965995438"><ele>173.0</ele><time>2026-04-06T12:57:27Z</time></trkpt><trkpt lat="45.478955859963335" lon="8.260541881009713"><ele>172.33333333333331</ele><time>2026-04-06T12:57:28Z</time></trkpt><trkpt lat="45.47876224524823" lon="8.260485246836584"><ele>171.66666666666666</ele><time>2026-04-06T12:57:29Z</time></trkpt><trkpt lat="45.478567142888" lon="8.260426348478646"><ele>171.0</ele><time>2026-04-06T12:57:30Z</time></trkpt><trkpt lat="45.478370244911964" lon="8.26036993555507"><ele>171.0</ele><time>2026-04-06T12:57:31Z</time></trkpt><trkpt lat="45.478170203831986" lon="8.260312077707214"><ele>171.0</ele><time>2026-04-06T12:57:32Z</time></trkpt><trkpt lat="45.47796772238957" lon="8.260255126914732"><ele>171.0</ele><time>2026-04-06T12:57:33Z</time></trkpt><trkpt lat="45.477764540673185" lon="8.260194345642839"><ele>171.0</ele><time>2026-04-06T12:57:34Z</time></trkpt><trkpt lat="45.47756092359695" lon="8.260132862075515"><ele>171.0</ele><time>2026-04-06T12:57:34.999Z</time></trkpt><trkpt lat="45.47735544180024" lon="8.260072466440766"><ele>171.0</ele><time>2026-04-06T12:57:35.999Z</time></trkpt><trkpt lat="45.47714830086625" lon="8.26001152719005"><ele>170.66666666666666</ele><time>2026-04-06T12:57:36.999Z</time></trkpt><trkpt lat="45.47693944148703" lon="8.259950018026434"><ele>170.33333333333331</ele><time>2026-04-06T12:57:37.999Z</time></trkpt><trkpt lat="45.47673013089698" lon="8.259888194911415"><ele>170.0</ele><time>2026-04-06T12:57:38.999Z</time></trkpt><trkpt lat="45.47651995418114" lon="8.259826153744552"><ele>170.33333333333331</ele><time>2026-04-06T12:57:39.999Z</time></trkpt><trkpt lat="45.476308477559584" lon="8.259764888259497"><ele>170.66666666666666</ele><time>2026-04-06T12:57:40.999Z</time></trkpt><trkpt lat="45.476095579325445" lon="8.25971136711233"><ele>171.0</ele><time>2026-04-06T12:57:41.999Z</time></trkpt><trkpt lat="45.47588100021564" lon="8.259663866451257"><ele>171.0</ele><time>2026-04-06T12:57:42.999Z</time></trkpt><trkpt lat="45.475667183957974" lon="8.259625667890186"><ele>171.0</ele><time>2026-04-06T12:57:43.999Z</time></trkpt><trkpt lat="45.47545248788141" lon="8.25959590339519"><ele>171.0</ele><time>2026-04-06T12:57:44.999Z</time></trkpt><trkpt lat="45.475236262527915" lon="8.259574648706705"><ele>171.0</ele><time>2026-04-06T12:57:45.999Z</time></trkpt><trkpt lat="45.47502109027689" lon="8.259570557830656"><ele>171.0</ele><time>2026-04-06T12:57:46.999Z</time></trkpt><trkpt lat="45.4748055403069" lon="8.259575900481162"><ele>171.0</ele><time>2026-04-06T12:57:47.999Z</time></trkpt><trkpt lat="45.474590189213224" lon="8.25959125568211"><ele>171.33333333333334</ele><time>2026-04-06T12:57:48.999Z</time></trkpt><trkpt lat="45.47437471423395" lon="8.259619662033975"><ele>171.66666666666669</ele><time>2026-04-06T12:57:49.999Z</time></trkpt><trkpt lat="45.47415740155806" lon="8.259659150136994"><ele>172.0</ele><time>2026-04-06T12:57:50.999Z</time></trkpt><trkpt lat="45.47394057223879" lon="8.259712435219766"><ele>171.66666666666669</ele><time>2026-04-06T12:57:51.999Z</time></trkpt><trkpt lat="45.473724129569895" lon="8.259773943238434"><ele>171.33333333333334</ele><time>2026-04-06T12:57:52.999Z</time></trkpt><trkpt lat="45.4735084880906" lon="8.259842998740254"><ele>171.0</ele><time>2026-04-06T12:57:53.999Z</time></trkpt><trkpt lat="45.473294419561626" lon="8.259912584983152"><ele>170.66666666666666</ele><time>2026-04-06T12:57:54.999Z</time></trkpt><trkpt lat="45.47307987487023" lon="8.259987029910809"><ele>170.33333333333331</ele><time>2026-04-06T12:57:55.999Z</time></trkpt><trkpt lat="45.47286720596599" lon="8.260058845247963"><ele>170.0</ele><time>2026-04-06T12:57:56.999Z</time></trkpt><trkpt lat="45.47265581565592" lon="8.260128874995107"><ele>170.0</ele><time>2026-04-06T12:57:57.999Z</time></trkpt><trkpt lat="45.472445722685244" lon="8.260201475112241"><ele>170.0</ele><time>2026-04-06T12:57:58.999Z</time></trkpt><trkpt lat="45.47223381394357" lon="8.260272724759046"><ele>170.0</ele><time>2026-04-06T12:57:59.999Z</time></trkpt><trkpt lat="45.472025731888266" lon="8.26033798783349"><ele>170.0</ele><time>2026-04-06T12:58:00.999Z</time></trkpt><trkpt lat="45.47181612510318" lon="8.260400239673706"><ele>170.0</ele><time>2026-04-06T12:58:01.999Z</time></trkpt><trkpt lat="45.47162155510714" lon="8.260451376654222"><ele>170.0</ele><time>2026-04-06T12:58:02.999Z</time></trkpt><trkpt lat="45.47146895012418" lon="8.260497506394447"><ele>170.0</ele><time>2026-04-06T12:58:03.999Z</time></trkpt><trkpt lat="45.471326939294585" lon="8.260541430628795"><ele>170.0</ele><time>2026-04-06T12:58:04.999Z</time></trkpt><trkpt lat="45.47117686216582" lon="8.260578307771603"><ele>170.0</ele><time>2026-04-06T12:58:05.999Z</time></trkpt><trkpt lat="45.47103201755496" lon="8.260628154882308"><ele>170.0</ele><time>2026-04-06T12:58:06.999Z</time></trkpt><trkpt lat="45.470901210907726" lon="8.260706851028944"><ele>170.0</ele><time>2026-04-06T12:58:07.999Z</time></trkpt><trkpt lat="45.47078186817249" lon="8.260753870889207"><ele>170.0</ele><time>2026-04-06T12:58:08.999Z</time></trkpt><trkpt lat="45.47064739632741" lon="8.260704710563784"><ele>170.0</ele><time>2026-04-06T12:58:09.999Z</time></trkpt><trkpt lat="45.470491731238596" lon="8.260669445518907"><ele>170.0</ele><time>2026-04-06T12:58:10.999Z</time></trkpt><trkpt lat="45.47033576957598" lon="8.26058318695478"><ele>169.66666666666666</ele><time>2026-04-06T12:58:11.999Z</time></trkpt><trkpt lat="45.47017942793267" lon="8.260488644143338"><ele>169.33333333333334</ele><time>2026-04-06T12:58:12.999Z</time></trkpt><trkpt lat="45.470013443974075" lon="8.260393614242714"><ele>169.0</ele><time>2026-04-06T12:58:13.999Z</time></trkpt><trkpt lat="45.46983762627743" lon="8.260298541836566"><ele>169.0</ele><time>2026-04-06T12:58:14.999Z</time></trkpt><trkpt lat="45.469655304269324" lon="8.260201179927623"><ele>169.0</ele><time>2026-04-06T12:58:15.999Z</time></trkpt><trkpt lat="45.469474158767106" lon="8.260103197173507"><ele>169.0</ele><time>2026-04-06T12:58:16.999Z</time></trkpt><trkpt lat="45.469289098825364" lon="8.260003702365687"><ele>169.0</ele><time>2026-04-06T12:58:17.999Z</time></trkpt><trkpt lat="45.4691003087455" lon="8.259902263049426"><ele>169.0</ele><time>2026-04-06T12:58:18.999Z</time></trkpt><trkpt lat="45.46890801597432" lon="8.259800628391314"><ele>169.0</ele><time>2026-04-06T12:58:19.999Z</time></trkpt><trkpt lat="45.46871454725985" lon="8.259696968169228"><ele>169.33333333333334</ele><time>2026-04-06T12:58:20.999Z</time></trkpt><trkpt lat="45.46852011758139" lon="8.259593117294825"><ele>169.66666666666666</ele><time>2026-04-06T12:58:21.999Z</time></trkpt><trkpt lat="45.46832282520211" lon="8.259487193847644"><ele>170.0</ele><time>2026-04-06T12:58:22.999Z</time></trkpt><trkpt lat="45.468125735154004" lon="8.259381304461934"><ele>169.66666666666666</ele><time>2026-04-06T12:58:23.999Z</time></trkpt><trkpt lat="45.46792570768441" lon="8.259273350913961"><ele>169.33333333333334</ele><time>2026-04-06T12:58:24.999Z</time></trkpt><trkpt lat="45.467724472728264" lon="8.25916445447332"><ele>169.0</ele><time>2026-04-06T12:58:25.999Z</time></trkpt><trkpt lat="45.46752432554954" lon="8.259056831473549"><ele>169.0</ele><time>2026-04-06T12:58:26.999Z</time></trkpt><trkpt lat="45.467324960693" lon="8.25895640780569"><ele>169.0</ele><time>2026-04-06T12:58:27.999Z</time></trkpt><trkpt lat="45.46712121020352" lon="8.258864955291333"><ele>169.0</ele><time>2026-04-06T12:58:28.999Z</time></trkpt><trkpt lat="45.46692186658833" lon="8.258803860715712"><ele>169.33333333333334</ele><time>2026-04-06T12:58:29.999Z</time></trkpt><trkpt lat="45.46671253716506" lon="8.258785053251499"><ele>169.66666666666666</ele><time>2026-04-06T12:58:30.999Z</time></trkpt><trkpt lat="45.46649897881766" lon="8.25879491254895"><ele>170.0</ele><time>2026-04-06T12:58:31.999Z</time></trkpt><trkpt lat="45.466284340924105" lon="8.25883443523047"><ele>169.33333333333331</ele><time>2026-04-06T12:58:32.999Z</time></trkpt><trkpt lat="45.46607191736481" lon="8.258890235824147"><ele>168.66666666666666</ele><time>2026-04-06T12:58:34Z</time></trkpt><trkpt lat="45.46586084889104" lon="8.258959158206638"><ele>168.0</ele><time>2026-04-06T12:58:35Z</time></trkpt><trkpt lat="45.46564787625924" lon="8.259031171204175"><ele>167.66666666666666</ele><time>2026-04-06T12:58:36Z</time></trkpt><trkpt lat="45.465434170816266" lon="8.259103063504432"><ele>167.33333333333331</ele><time>2026-04-06T12:58:37Z</time></trkpt><trkpt lat="45.4652206153992" lon="8.259179074071712"><ele>167.0</ele><time>2026-04-06T12:58:38Z</time></trkpt><trkpt lat="45.46500642751131" lon="8.259256540031465"><ele>167.0</ele><time>2026-04-06T12:58:39Z</time></trkpt><trkpt lat="45.464791627623164" lon="8.259335182581689"><ele>167.0</ele><time>2026-04-06T12:58:40Z</time></trkpt><trkpt lat="45.46457826045608" lon="8.259409847744411"><ele>167.0</ele><time>2026-04-06T12:58:41Z</time></trkpt><trkpt lat="45.46436757626138" lon="8.259484156633564"><ele>167.0</ele><time>2026-04-06T12:58:42Z</time></trkpt><trkpt lat="45.4641546375337" lon="8.259556291277901"><ele>167.0</ele><time>2026-04-06T12:58:43Z</time></trkpt><trkpt lat="45.46395864415535" lon="8.259602509599894"><ele>167.0</ele><time>2026-04-06T12:58:44Z</time></trkpt><trkpt lat="45.463768426832466" lon="8.259594940563938"><ele>167.0</ele><time>2026-04-06T12:58:45Z</time></trkpt><trkpt lat="45.46358131846063" lon="8.259514857640434"><ele>167.0</ele><time>2026-04-06T12:58:46Z</time></trkpt><trkpt lat="45.4634121950047" lon="8.259352214222782"><ele>167.0</ele><time>2026-04-06T12:58:47Z</time></trkpt><trkpt lat="45.4632295416853" lon="8.259211326496342"><ele>167.0</ele><time>2026-04-06T12:58:48Z</time></trkpt><trkpt lat="45.46305206336937" lon="8.259047617316392"><ele>167.0</ele><time>2026-04-06T12:58:49Z</time></trkpt><trkpt lat="45.46287103093885" lon="8.258881779614104"><ele>167.0</ele><time>2026-04-06T12:58:50Z</time></trkpt><trkpt lat="45.46268795211592" lon="8.258713983617236"><ele>167.66666666666666</ele><time>2026-04-06T12:58:51Z</time></trkpt><trkpt lat="45.4625015589342" lon="8.258546659278315"><ele>168.33333333333334</ele><time>2026-04-06T12:58:52Z</time></trkpt><trkpt lat="45.46231327545052" lon="8.258378063369038"><ele>169.0</ele><time>2026-04-06T12:58:53Z</time></trkpt><trkpt lat="45.46213112407262" lon="8.258219675103511"><ele>169.0</ele><time>2026-04-06T12:58:54Z</time></trkpt><trkpt lat="45.46194933150771" lon="8.25805715881349"><ele>169.0</ele><time>2026-04-06T12:58:55Z</time></trkpt><trkpt lat="45.4617779927863" lon="8.257883905416195"><ele>169.0</ele><time>2026-04-06T12:58:56Z</time></trkpt><trkpt lat="45.461630305115094" lon="8.257678793048413"><ele>169.0</ele><time>2026-04-06T12:58:57Z</time></trkpt><trkpt lat="45.461513750531616" lon="8.257421485068814"><ele>169.0</ele><time>2026-04-06T12:58:58Z</time></trkpt><trkpt lat="45.461440496628825" lon="8.257122620865633"><ele>169.0</ele><time>2026-04-06T12:58:59Z</time></trkpt><trkpt lat="45.46134490516278" lon="8.256835316427788"><ele>169.33333333333334</ele><time>2026-04-06T12:59:00Z</time></trkpt><trkpt lat="45.46127100741329" lon="8.256538441913388"><ele>169.66666666666666</ele><time>2026-04-06T12:59:01Z</time></trkpt><trkpt lat="45.46119458227942" lon="8.256244190074128"><ele>170.0</ele><time>2026-04-06T12:59:02Z</time></trkpt><trkpt lat="45.46111532617506" lon="8.25595464592614"><ele>170.33333333333331</ele><time>2026-04-06T12:59:03Z</time></trkpt><trkpt lat="45.46103535771655" lon="8.255664144900637"><ele>170.66666666666666</ele><time>2026-04-06T12:59:04Z</time></trkpt><trkpt lat="45.46095407531879" lon="8.25537502473497"><ele>171.0</ele><time>2026-04-06T12:59:05Z</time></trkpt><trkpt lat="45.46087269997204" lon="8.255086094605076"><ele>171.0</ele><time>2026-04-06T12:59:06Z</time></trkpt><trkpt lat="45.46079185667586" lon="8.254795337891151"><ele>171.0</ele><time>2026-04-06T12:59:07Z</time></trkpt><trkpt lat="45.46070898380756" lon="8.254504872195335"><ele>171.0</ele><time>2026-04-06T12:59:08Z</time></trkpt><trkpt lat="45.460628490990594" lon="8.25421546912141"><ele>172.33333333333334</ele><time>2026-04-06T12:59:09Z</time></trkpt><trkpt lat="45.46054758090029" lon="8.25392733302628"><ele>173.66666666666669</ele><time>2026-04-06T12:59:10Z</time></trkpt><trkpt lat="45.460464870006255" lon="8.253640346123898"><ele>175.0</ele><time>2026-04-06T12:59:11Z</time></trkpt><trkpt lat="45.46038370652913" lon="8.25335094793191"><ele>175.33333333333334</ele><time>2026-04-06T12:59:12Z</time></trkpt><trkpt lat="45.46030431835071" lon="8.253060520211605"><ele>175.66666666666666</ele><time>2026-04-06T12:59:13Z</time></trkpt><trkpt lat="45.460226265726554" lon="8.252771789113796"><ele>176.0</ele><time>2026-04-06T12:59:14Z</time></trkpt><trkpt lat="45.46014543597949" lon="8.2524832813087"><ele>176.0</ele><time>2026-04-06T12:59:15Z</time></trkpt><trkpt lat="45.460064040757935" lon="8.252193140552835"><ele>176.0</ele><time>2026-04-06T12:59:16Z</time></trkpt><trkpt lat="45.45998324804001" lon="8.251902161918494"><ele>176.0</ele><time>2026-04-06T12:59:17Z</time></trkpt><trkpt lat="45.459902911620695" lon="8.251613197249926"><ele>176.0</ele><time>2026-04-06T12:59:18Z</time></trkpt><trkpt lat="45.459820475338006" lon="8.251324290369919"><ele>176.0</ele><time>2026-04-06T12:59:19Z</time></trkpt><trkpt lat="45.45973887108643" lon="8.251035430526876"><ele>176.0</ele><time>2026-04-06T12:59:20Z</time></trkpt><trkpt lat="45.459658445210145" lon="8.25074890677496"><ele>176.0</ele><time>2026-04-06T12:59:21Z</time></trkpt><trkpt lat="45.45957894351552" lon="8.250463593725062"><ele>176.0</ele><time>2026-04-06T12:59:22Z</time></trkpt><trkpt lat="45.45949948924032" lon="8.250175875591502"><ele>176.0</ele><time>2026-04-06T12:59:23Z</time></trkpt><trkpt lat="45.45942009227728" lon="8.249887541135633"><ele>176.66666666666666</ele><time>2026-04-06T12:59:24Z</time></trkpt><trkpt lat="45.45933836113873" lon="8.249597931017169"><ele>177.33333333333334</ele><time>2026-04-06T12:59:25Z</time></trkpt><trkpt lat="45.45925473736777" lon="8.249308897748033"><ele>178.0</ele><time>2026-04-06T12:59:26Z</time></trkpt><trkpt lat="45.45916841277897" lon="8.249034860732804"><ele>177.66666666666669</ele><time>2026-04-06T12:59:27Z</time></trkpt><trkpt lat="45.459061213746075" lon="8.24877503749355"><ele>177.33333333333334</ele><time>2026-04-06T12:59:28Z</time></trkpt><trkpt lat="45.45893215834683" lon="8.248525215872778"><ele>177.0</ele><time>2026-04-06T12:59:29Z</time></trkpt><trkpt lat="45.4587933283021" lon="8.248278353245405"><ele>176.5</ele><time>2026-04-06T12:59:30Z</time></trkpt><trkpt lat="45.458648942333504" lon="8.248031415461009"><ele>176.0</ele><time>2026-04-06T12:59:31Z</time></trkpt><trkpt lat="45.45850310268464" lon="8.247782727444468"><ele>176.0</ele><time>2026-04-06T12:59:32Z</time></trkpt><trkpt lat="45.45836211437166" lon="8.247535694854943"><ele>176.0</ele><time>2026-04-06T12:59:33Z</time></trkpt><trkpt lat="45.45822256901565" lon="8.247294381987576"><ele>176.0</ele><time>2026-04-06T12:59:34Z</time></trkpt><trkpt lat="45.45807611765839" lon="8.247058081351264"><ele>176.0</ele><time>2026-04-06T12:59:35Z</time></trkpt><trkpt lat="45.45791686135079" lon="8.246834776970859"><ele>176.0</ele><time>2026-04-06T12:59:36Z</time></trkpt><trkpt lat="45.457748500228696" lon="8.246626507637009"><ele>176.0</ele><time>2026-04-06T12:59:37Z</time></trkpt><trkpt lat="45.457582547338596" lon="8.246418009441458"><ele>176.0</ele><time>2026-04-06T12:59:38Z</time></trkpt><trkpt lat="45.457414156874094" lon="8.246210752563028"><ele>176.0</ele><time>2026-04-06T12:59:39Z</time></trkpt><trkpt lat="45.45724506624599" lon="8.246002473991533"><ele>176.0</ele><time>2026-04-06T12:59:40Z</time></trkpt><trkpt lat="45.45707737563194" lon="8.245793739134852"><ele>176.33333333333331</ele><time>2026-04-06T12:59:41Z</time></trkpt><trkpt lat="45.45690796039023" lon="8.245584973658612"><ele>176.66666666666666</ele><time>2026-04-06T12:59:42Z</time></trkpt><trkpt lat="45.45673897867025" lon="8.24537832624458"><ele>177.0</ele><time>2026-04-06T12:59:43Z</time></trkpt><trkpt lat="45.4565697731633" lon="8.245174484555308"><ele>177.0</ele><time>2026-04-06T12:59:44Z</time></trkpt><trkpt lat="45.45640244398687" lon="8.244969352932218"><ele>177.0</ele><time>2026-04-06T12:59:45Z</time></trkpt><trkpt lat="45.45623547576668" lon="8.244763819195715"><ele>177.0</ele><time>2026-04-06T12:59:46Z</time></trkpt><trkpt lat="45.45607041925623" lon="8.244560756699425"><ele>177.0</ele><time>2026-04-06T12:59:47Z</time></trkpt><trkpt lat="45.45590490796616" lon="8.2443579882846"><ele>177.0</ele><time>2026-04-06T12:59:48Z</time></trkpt><trkpt lat="45.455737732119694" lon="8.244151798991265"><ele>177.0</ele><time>2026-04-06T12:59:49Z</time></trkpt><trkpt lat="45.45556888718703" lon="8.243943721554848"><ele>177.0</ele><time>2026-04-06T12:59:50Z</time></trkpt><trkpt lat="45.45539898266742" lon="8.243735195409627"><ele>177.0</ele><time>2026-04-06T12:59:51Z</time></trkpt><trkpt lat="45.45522802823338" lon="8.24352699776919"><ele>177.0</ele><time>2026-04-06T12:59:52Z</time></trkpt><trkpt lat="45.4550566875406" lon="8.24331823863476"><ele>177.0</ele><time>2026-04-06T12:59:53Z</time></trkpt><trkpt lat="45.454887539906956" lon="8.243108874759741"><ele>177.0</ele><time>2026-04-06T12:59:54Z</time></trkpt><trkpt lat="45.4547206740403" lon="8.242903440528162"><ele>177.0</ele><time>2026-04-06T12:59:55Z</time></trkpt><trkpt lat="45.45455417382306" lon="8.242698845819946"><ele>177.0</ele><time>2026-04-06T12:59:55.999Z</time></trkpt><trkpt lat="45.45438975800874" lon="8.242496500112411"><ele>177.0</ele><time>2026-04-06T12:59:56.999Z</time></trkpt><trkpt lat="45.45422557084338" lon="8.242295899351932"><ele>177.0</ele><time>2026-04-06T12:59:57.999Z</time></trkpt><trkpt lat="45.45406125860076" lon="8.242094451180519"><ele>177.0</ele><time>2026-04-06T12:59:58.999Z</time></trkpt><trkpt lat="45.45389749375335" lon="8.241893425188024"><ele>177.0</ele><time>2026-04-06T12:59:59.999Z</time></trkpt><trkpt lat="45.45373418084818" lon="8.241693617766563"><ele>177.0</ele><time>2026-04-06T13:00:00.999Z</time></trkpt><trkpt lat="45.45357012594345" lon="8.241492662122063"><ele>177.33333333333334</ele><time>2026-04-06T13:00:01.999Z</time></trkpt><trkpt lat="45.453406087083955" lon="8.24129050643081"><ele>177.66666666666669</ele><time>2026-04-06T13:00:02.999Z</time></trkpt><trkpt lat="45.45324433580993" lon="8.241088461476165"><ele>178.0</ele><time>2026-04-06T13:00:03.999Z</time></trkpt><trkpt lat="45.45308094914471" lon="8.24088460054349"><ele>178.0</ele><time>2026-04-06T13:00:04.999Z</time></trkpt><trkpt lat="45.45291972348622" lon="8.24068055995211"><ele>178.0</ele><time>2026-04-06T13:00:05.999Z</time></trkpt><trkpt lat="45.452757866510105" lon="8.240478315493778"><ele>178.0</ele><time>2026-04-06T13:00:06.999Z</time></trkpt><trkpt lat="45.45259663770345" lon="8.240277609889006"><ele>178.0</ele><time>2026-04-06T13:00:07.999Z</time></trkpt><trkpt lat="45.452435151711065" lon="8.240076312587494"><ele>178.0</ele><time>2026-04-06T13:00:08.999Z</time></trkpt><trkpt lat="45.45227401970452" lon="8.239877273599271"><ele>178.0</ele><time>2026-04-06T13:00:09.999Z</time></trkpt><trkpt lat="45.45211431230786" lon="8.239674892039957"><ele>178.0</ele><time>2026-04-06T13:00:10.999Z</time></trkpt><trkpt lat="45.45195392066444" lon="8.2394716265875"><ele>178.0</ele><time>2026-04-06T13:00:11.999Z</time></trkpt><trkpt lat="45.45179124178505" lon="8.23926886841078"><ele>178.0</ele><time>2026-04-06T13:00:12.999Z</time></trkpt><trkpt lat="45.451627154622955" lon="8.239066977061377"><ele>178.0</ele><time>2026-04-06T13:00:13.999Z</time></trkpt><trkpt lat="45.4514627978445" lon="8.23886695019191"><ele>178.0</ele><time>2026-04-06T13:00:14.999Z</time></trkpt><trkpt lat="45.45130190002602" lon="8.23866338108309"><ele>178.0</ele><time>2026-04-06T13:00:15.999Z</time></trkpt><trkpt lat="45.45113979867404" lon="8.238461063858294"><ele>178.33333333333334</ele><time>2026-04-06T13:00:16.999Z</time></trkpt><trkpt lat="45.45097804432633" lon="8.238259545348184"><ele>178.66666666666666</ele><time>2026-04-06T13:00:17.999Z</time></trkpt><trkpt lat="45.45083247855375" lon="8.238030355574095"><ele>179.0</ele><time>2026-04-06T13:00:18.999Z</time></trkpt><trkpt lat="45.450670338568315" lon="8.237828550629299"><ele>179.0</ele><time>2026-04-06T13:00:19.999Z</time></trkpt><trkpt lat="45.450507197819356" lon="8.237625499993817"><ele>179.0</ele><time>2026-04-06T13:00:20.999Z</time></trkpt><trkpt lat="45.45034392178926" lon="8.237422281113648"><ele>179.0</ele><time>2026-04-06T13:00:21.999Z</time></trkpt><trkpt lat="45.45018193807392" lon="8.237220670568302"><ele>179.33333333333331</ele><time>2026-04-06T13:00:22.999Z</time></trkpt><trkpt lat="45.45002018346779" lon="8.23701934514657"><ele>179.66666666666666</ele><time>2026-04-06T13:00:23.999Z</time></trkpt><trkpt lat="45.44985851410411" lon="8.236818125921362"><ele>180.0</ele><time>2026-04-06T13:00:24.999Z</time></trkpt><trkpt lat="45.44969624477098" lon="8.23661615986068"><ele>180.66666666666666</ele><time>2026-04-06T13:00:25.999Z</time></trkpt><trkpt lat="45.44953367194933" lon="8.236413816227007"><ele>181.33333333333331</ele><time>2026-04-06T13:00:26.999Z</time></trkpt><trkpt lat="45.449370867988264" lon="8.236211945159498"><ele>182.0</ele><time>2026-04-06T13:00:27.999Z</time></trkpt><trkpt lat="45.44920785463488" lon="8.236010387722661"><ele>182.0</ele><time>2026-04-06T13:00:28.999Z</time></trkpt><trkpt lat="45.449045173346434" lon="8.235809344374868"><ele>182.0</ele><time>2026-04-06T13:00:29.999Z</time></trkpt><trkpt lat="45.4488828290573" lon="8.235608795107394"><ele>182.0</ele><time>2026-04-06T13:00:30.999Z</time></trkpt><trkpt lat="45.448721355802896" lon="8.23540921475359"><ele>181.66666666666666</ele><time>2026-04-06T13:00:31.999Z</time></trkpt><trkpt lat="45.448564137983816" lon="8.235214920604896"><ele>181.33333333333334</ele><time>2026-04-06T13:00:32.999Z</time></trkpt><trkpt lat="45.44840621505434" lon="8.235019754957014"><ele>181.0</ele><time>2026-04-06T13:00:33.999Z</time></trkpt><trkpt lat="45.44825516054518" lon="8.234833077562097"><ele>181.33333333333334</ele><time>2026-04-06T13:00:34.999Z</time></trkpt><trkpt lat="45.44811096543555" lon="8.234654877255082"><ele>181.66666666666666</ele><time>2026-04-06T13:00:35.999Z</time></trkpt><trkpt lat="45.44796967718081" lon="8.234480269224276"><ele>182.0</ele><time>2026-04-06T13:00:36.999Z</time></trkpt><trkpt lat="45.447829040892806" lon="8.234306466981963"><ele>182.0</ele><time>2026-04-06T13:00:37.999Z</time></trkpt><trkpt lat="45.44768229310597" lon="8.234128186133717"><ele>182.0</ele><time>2026-04-06T13:00:38.999Z</time></trkpt><trkpt lat="45.44753465861939" lon="8.233950723625334"><ele>182.0</ele><time>2026-04-06T13:00:40Z</time></trkpt><trkpt lat="45.44739391438695" lon="8.233778397013348"><ele>182.0</ele><time>2026-04-06T13:00:41Z</time></trkpt><trkpt lat="45.44725976878032" lon="8.233614149243085"><ele>182.0</ele><time>2026-04-06T13:00:42Z</time></trkpt><trkpt lat="45.44713416095551" lon="8.233461935083227"><ele>182.0</ele><time>2026-04-06T13:00:43Z</time></trkpt><trkpt lat="45.44701335300035" lon="8.23331534708792"><ele>182.0</ele><time>2026-04-06T13:00:44Z</time></trkpt><trkpt lat="45.446895000355816" lon="8.23317074366282"><ele>182.0</ele><time>2026-04-06T13:00:45Z</time></trkpt><trkpt lat="45.446786188147904" lon="8.233034979080537"><ele>182.0</ele><time>2026-04-06T13:00:46Z</time></trkpt><trkpt lat="45.4466840185684" lon="8.232907502643256"><ele>182.0</ele><time>2026-04-06T13:00:47Z</time></trkpt><trkpt lat="45.446587056217744" lon="8.232811314624575"><ele>181.8</ele><time>2026-04-06T13:00:48Z</time></trkpt><trkpt lat="45.44651467062862" lon="8.232699947659508"><ele>181.6</ele><time>2026-04-06T13:00:49Z</time></trkpt><trkpt lat="45.446466574466235" lon="8.232595939637928"><ele>181.4</ele><time>2026-04-06T13:00:50Z</time></trkpt><trkpt lat="45.446448700287995" lon="8.232475613769994"><ele>181.20000000000002</ele><time>2026-04-06T13:00:51Z</time></trkpt><trkpt lat="45.446455760987945" lon="8.232346077438567"><ele>181.0</ele><time>2026-04-06T13:00:52Z</time></trkpt><trkpt lat="45.44644181906858" lon="8.232235368680572"><ele>181.0</ele><time>2026-04-06T13:00:53Z</time></trkpt><trkpt lat="45.44638941674456" lon="8.23215104813921"><ele>181.0</ele><time>2026-04-06T13:00:54Z</time></trkpt><trkpt lat="45.44631426783356" lon="8.232112100817826"><ele>181.0</ele><time>2026-04-06T13:00:55Z</time></trkpt><trkpt lat="45.446221114420155" lon="8.232116273392156"><ele>181.0</ele><time>2026-04-06T13:00:56Z</time></trkpt><trkpt lat="45.44611451329684" lon="8.23212592447783"><ele>181.0</ele><time>2026-04-06T13:00:57Z</time></trkpt><trkpt lat="45.44603699501001" lon="8.232049262992208"><ele>181.25</ele><time>2026-04-06T13:00:58Z</time></trkpt><trkpt lat="45.44593350838157" lon="8.231946635975016"><ele>181.5</ele><time>2026-04-06T13:00:59Z</time></trkpt><trkpt lat="45.44582355298226" lon="8.231816356285044"><ele>181.75</ele><time>2026-04-06T13:01:00Z</time></trkpt><trkpt lat="45.44571076209712" lon="8.231676945875158"><ele>182.0</ele><time>2026-04-06T13:01:01Z</time></trkpt><trkpt lat="45.44559339708106" lon="8.231532460792902"><ele>182.0</ele><time>2026-04-06T13:01:02Z</time></trkpt><trkpt lat="45.445474349980145" lon="8.231382252909098"><ele>182.0</ele><time>2026-04-06T13:01:03Z</time></trkpt><trkpt lat="45.445348247997934" lon="8.231227306069067"><ele>182.0</ele><time>2026-04-06T13:01:04Z</time></trkpt><trkpt lat="45.44522586292658" lon="8.231075726515794"><ele>182.0</ele><time>2026-04-06T13:01:05Z</time></trkpt><trkpt lat="45.445101103088476" lon="8.230921205616465"><ele>182.0</ele><time>2026-04-06T13:01:06Z</time></trkpt><trkpt lat="45.44497036660029" lon="8.230759282383715"><ele>182.0</ele><time>2026-04-06T13:01:07Z</time></trkpt><trkpt lat="45.44484307905864" lon="8.230601630842486"><ele>182.0</ele><time>2026-04-06T13:01:08Z</time></trkpt><trkpt lat="45.44471530982446" lon="8.230443390304933"><ele>182.0</ele><time>2026-04-06T13:01:09Z</time></trkpt><trkpt lat="45.44459133133942" lon="8.230289913138977"><ele>182.0</ele><time>2026-04-06T13:01:10Z</time></trkpt><trkpt lat="45.44447692530523" lon="8.23014856077221"><ele>182.0</ele><time>2026-04-06T13:01:11Z</time></trkpt><trkpt lat="45.44437096037473" lon="8.230019382720709"><ele>182.0</ele><time>2026-04-06T13:01:12Z</time></trkpt><trkpt lat="45.44427211566114" lon="8.22989888465222"><ele>182.0</ele><time>2026-04-06T13:01:13Z</time></trkpt><trkpt lat="45.444179554064306" lon="8.229786046072844"><ele>182.0</ele><time>2026-04-06T13:01:14Z</time></trkpt><trkpt lat="45.444088549449845" lon="8.229673447418605"><ele>182.0</ele><time>2026-04-06T13:01:15Z</time></trkpt><trkpt lat="45.44399957860445" lon="8.229562721885337"><ele>182.0</ele><time>2026-04-06T13:01:16Z</time></trkpt><trkpt lat="45.44391363216228" lon="8.229455760181567"><ele>182.0</ele><time>2026-04-06T13:01:17Z</time></trkpt><trkpt lat="45.443827931325686" lon="8.229349104223731"><ele>182.0</ele><time>2026-04-06T13:01:18Z</time></trkpt><trkpt lat="45.44372361152141" lon="8.22928388033973"><ele>183.0</ele><time>2026-04-06T13:01:19Z</time></trkpt><trkpt lat="45.44363418738776" lon="8.229215648998693"><ele>183.0</ele><time>2026-04-06T13:01:20Z</time></trkpt><trkpt lat="45.44353070984743" lon="8.229216656035948"><ele>183.0</ele><time>2026-04-06T13:01:21Z</time></trkpt><trkpt lat="45.44344934853433" lon="8.229204049282412"><ele>183.0</ele><time>2026-04-06T13:01:22Z</time></trkpt></trkseg><trkseg><trkpt lat="45.443364772237445" lon="8.228998967476405"><ele>182.8</ele><time>2026-04-06T13:11:59.999Z</time></trkpt><trkpt lat="45.44331127952887" lon="8.228883299863655"><ele>182.60000000000002</ele><time>2026-04-06T13:12:02.999Z</time></trkpt><trkpt lat="45.443306760363406" lon="8.228726266918171"><ele>182.39999999999998</ele><time>2026-04-06T13:12:04.999Z</time></trkpt><trkpt lat="45.443252180290905" lon="8.228593979087332"><ele>182.2</ele><time>2026-04-06T13:12:05.999Z</time></trkpt><trkpt lat="45.44316267538296" lon="8.22847397579567"><ele>182.0</ele><time>2026-04-06T13:12:06.999Z</time></trkpt><trkpt lat="45.44304903372294" lon="8.228347998594952"><ele>182.0</ele><time>2026-04-06T13:12:07.999Z</time></trkpt><trkpt lat="45.44290961457063" lon="8.228190956967186"><ele>182.0</ele><time>2026-04-06T13:12:08.999Z</time></trkpt><trkpt lat="45.44275857042" lon="8.228021003725148"><ele>182.0</ele><time>2026-04-06T13:12:09.999Z</time></trkpt><trkpt lat="45.442609075665096" lon="8.227846310618773"><ele>181.66666666666666</ele><time>2026-04-06T13:12:10.999Z</time></trkpt><trkpt lat="45.442471398584146" lon="8.22769305751136"><ele>181.33333333333334</ele><time>2026-04-06T13:12:11.999Z</time></trkpt><trkpt lat="45.44233981125946" lon="8.227536236498645"><ele>181.0</ele><time>2026-04-06T13:12:12.999Z</time></trkpt><trkpt lat="45.44220703829174" lon="8.227381444644168"><ele>181.33333333333334</ele><time>2026-04-06T13:12:13.999Z</time></trkpt><trkpt lat="45.442070054115014" lon="8.227226639961698"><ele>181.66666666666666</ele><time>2026-04-06T13:12:14.999Z</time></trkpt><trkpt lat="45.44192719040946" lon="8.227071963107882"><ele>182.0</ele><time>2026-04-06T13:12:15.999Z</time></trkpt><trkpt lat="45.4417804134661" lon="8.226925390878822"><ele>182.0</ele><time>2026-04-06T13:12:16.999Z</time></trkpt><trkpt lat="45.441632245372745" lon="8.226785818484371"><ele>182.0</ele><time>2026-04-06T13:12:17.999Z</time></trkpt><trkpt lat="45.4414850622392" lon="8.226641334687969"><ele>182.0</ele><time>2026-04-06T13:12:18.999Z</time></trkpt><trkpt lat="45.441340453130664" lon="8.226493612949213"><ele>182.0</ele><time>2026-04-06T13:12:19.999Z</time></trkpt><trkpt lat="45.44119946755655" lon="8.22634956170718"><ele>182.0</ele><time>2026-04-06T13:12:20.999Z</time></trkpt><trkpt lat="45.44106048825744" lon="8.226204107141818"><ele>182.0</ele><time>2026-04-06T13:12:21.999Z</time></trkpt><trkpt lat="45.440919711265394" lon="8.226058626387221"><ele>182.0</ele><time>2026-04-06T13:12:22.999Z</time></trkpt><trkpt lat="45.44077058646593" lon="8.225909834569705"><ele>182.0</ele><time>2026-04-06T13:12:23.999Z</time></trkpt><trkpt lat="45.44060842953586" lon="8.225750246074972"><ele>182.0</ele><time>2026-04-06T13:12:24.999Z</time></trkpt><trkpt lat="45.440440261045026" lon="8.225582618923148"><ele>182.0</ele><time>2026-04-06T13:12:25.999Z</time></trkpt><trkpt lat="45.44026845863355" lon="8.225410243090554"><ele>182.0</ele><time>2026-04-06T13:12:26.999Z</time></trkpt><trkpt lat="45.440096881951476" lon="8.225237248179448"><ele>182.0</ele><time>2026-04-06T13:12:27.999Z</time></trkpt><trkpt lat="45.439922239843646" lon="8.22506314177501"><ele>182.0</ele><time>2026-04-06T13:12:28.999Z</time></trkpt><trkpt lat="45.43974360188039" lon="8.224888442009183"><ele>182.0</ele><time>2026-04-06T13:12:29.999Z</time></trkpt><trkpt lat="45.43956464092319" lon="8.224711193220617"><ele>182.0</ele><time>2026-04-06T13:12:31Z</time></trkpt><trkpt lat="45.4393839417837" lon="8.224530390659165"><ele>182.66666666666666</ele><time>2026-04-06T13:12:32Z</time></trkpt><trkpt lat="45.43920219900198" lon="8.224348774445852"><ele>183.33333333333334</ele><time>2026-04-06T13:12:33Z</time></trkpt><trkpt lat="45.43902608593549" lon="8.224169665381018"><ele>184.0</ele><time>2026-04-06T13:12:34Z</time></trkpt><trkpt lat="45.438847319453195" lon="8.223996894705117"><ele>184.0</ele><time>2026-04-06T13:12:35Z</time></trkpt><trkpt lat="45.43866589356889" lon="8.22382040020799"><ele>184.0</ele><time>2026-04-06T13:12:36Z</time></trkpt><trkpt lat="45.438485339510855" lon="8.22363858755434"><ele>184.0</ele><time>2026-04-06T13:12:37Z</time></trkpt><trkpt lat="45.43829995054617" lon="8.22346110295199"><ele>184.0</ele><time>2026-04-06T13:12:38Z</time></trkpt><trkpt lat="45.438111108874935" lon="8.223277419350877"><ele>184.0</ele><time>2026-04-06T13:12:39Z</time></trkpt><trkpt lat="45.4379242463265" lon="8.223088161051477"><ele>184.0</ele><time>2026-04-06T13:12:40Z</time></trkpt><trkpt lat="45.43773224325656" lon="8.22289633458089"><ele>184.0</ele><time>2026-04-06T13:12:41Z</time></trkpt><trkpt lat="45.43753893141936" lon="8.222700018755768"><ele>184.0</ele><time>2026-04-06T13:12:42Z</time></trkpt><trkpt lat="45.43734679095945" lon="8.222514268869999"><ele>184.0</ele><time>2026-04-06T13:12:43Z</time></trkpt><trkpt lat="45.43715670274867" lon="8.22233908542738"><ele>184.5</ele><time>2026-04-06T13:12:44Z</time></trkpt><trkpt lat="45.43696016520936" lon="8.222172007819065"><ele>185.0</ele><time>2026-04-06T13:12:45Z</time></trkpt><trkpt lat="45.43675867501582" lon="8.222011038370953"><ele>185.0</ele><time>2026-04-06T13:12:46Z</time></trkpt><trkpt lat="45.43655927664435" lon="8.221857282409152"><ele>185.0</ele><time>2026-04-06T13:12:47Z</time></trkpt><trkpt lat="45.43635684859029" lon="8.221700878540807"><ele>185.0</ele><time>2026-04-06T13:12:48Z</time></trkpt><trkpt lat="45.43615492735745" lon="8.221545707838857"><ele>185.0</ele><time>2026-04-06T13:12:49Z</time></trkpt><trkpt lat="45.43595448920383" lon="8.221394080614788"><ele>185.66666666666666</ele><time>2026-04-06T13:12:50Z</time></trkpt><trkpt lat="45.43576232354546" lon="8.221251023974297"><ele>186.33333333333334</ele><time>2026-04-06T13:12:51Z</time></trkpt><trkpt lat="45.435567205836286" lon="8.221107683005904"><ele>187.0</ele><time>2026-04-06T13:12:52Z</time></trkpt><trkpt lat="45.435371831237305" lon="8.22095533397072"><ele>187.0</ele><time>2026-04-06T13:12:53Z</time></trkpt><trkpt lat="45.43517279878214" lon="8.220795819157747"><ele>187.0</ele><time>2026-04-06T13:12:54Z</time></trkpt><trkpt lat="45.43497699558796" lon="8.220623228060601"><ele>186.0</ele><time>2026-04-06T13:12:55Z</time></trkpt><trkpt lat="45.434792572395374" lon="8.220434333794488"><ele>185.0</ele><time>2026-04-06T13:12:56Z</time></trkpt><trkpt lat="45.4346140847653" lon="8.220232811117809"><ele>185.0</ele><time>2026-04-06T13:12:57Z</time></trkpt><trkpt lat="45.434428912318964" lon="8.22002417641995"><ele>185.0</ele><time>2026-04-06T13:12:58Z</time></trkpt><trkpt lat="45.43424265878737" lon="8.21981441638658"><ele>185.0</ele><time>2026-04-06T13:12:59Z</time></trkpt><trkpt lat="45.434055674368715" lon="8.219608851410056"><ele>185.0</ele><time>2026-04-06T13:13:00Z</time></trkpt><trkpt lat="45.43386565188542" lon="8.219401754319467"><ele>185.0</ele><time>2026-04-06T13:13:01Z</time></trkpt><trkpt lat="45.43367577339257" lon="8.219191089427007"><ele>185.0</ele><time>2026-04-06T13:13:02Z</time></trkpt><trkpt lat="45.433490868766555" lon="8.218984772111996"><ele>186.0</ele><time>2026-04-06T13:13:03Z</time></trkpt><trkpt lat="45.43330359394526" lon="8.218781913055802"><ele>187.0</ele><time>2026-04-06T13:13:04Z</time></trkpt><trkpt lat="45.43311365204473" lon="8.218579806764344"><ele>186.0</ele><time>2026-04-06T13:13:05Z</time></trkpt><trkpt lat="45.432926854987954" lon="8.218376710167838"><ele>185.0</ele><time>2026-04-06T13:13:06Z</time></trkpt><trkpt lat="45.43274196321353" lon="8.218174457788349"><ele>186.5</ele><time>2026-04-06T13:13:07Z</time></trkpt><trkpt lat="45.4325591394489" lon="8.217967874054736"><ele>188.0</ele><time>2026-04-06T13:13:08Z</time></trkpt><trkpt lat="45.43237480863775" lon="8.217761814220054"><ele>188.0</ele><time>2026-04-06T13:13:09Z</time></trkpt><trkpt lat="45.43219465603475" lon="8.217563082739254"><ele>188.0</ele><time>2026-04-06T13:13:10Z</time></trkpt><trkpt lat="45.43200866324212" lon="8.217364215672847"><ele>187.0</ele><time>2026-04-06T13:13:11Z</time></trkpt><trkpt lat="45.43182228873204" lon="8.217167864757815"><ele>186.0</ele><time>2026-04-06T13:13:12Z</time></trkpt><trkpt lat="45.4316370877124" lon="8.216967898999144"><ele>186.0</ele><time>2026-04-06T13:13:13Z</time></trkpt><trkpt lat="45.43145264072879" lon="8.216765499937821"><ele>186.0</ele><time>2026-04-06T13:13:14Z</time></trkpt><trkpt lat="45.43126691379399" lon="8.216562549375096"><ele>186.0</ele><time>2026-04-06T13:13:15Z</time></trkpt><trkpt lat="45.43107657812355" lon="8.216357595522366"><ele>186.0</ele><time>2026-04-06T13:13:16Z</time></trkpt><trkpt lat="45.430890315717" lon="8.216164499727073"><ele>186.0</ele><time>2026-04-06T13:13:17Z</time></trkpt><trkpt lat="45.43070838875262" lon="8.215983282043304"><ele>186.0</ele><time>2026-04-06T13:13:18Z</time></trkpt><trkpt lat="45.4305272802797" lon="8.215802267026184"><ele>186.0</ele><time>2026-04-06T13:13:19Z</time></trkpt><trkpt lat="45.43034626401593" lon="8.21562427928142"><ele>186.0</ele><time>2026-04-06T13:13:20Z</time></trkpt><trkpt lat="45.43018877525317" lon="8.215464587841332"><ele>186.0</ele><time>2026-04-06T13:13:21Z</time></trkpt><trkpt lat="45.43005433942887" lon="8.215325740302083"><ele>186.0</ele><time>2026-04-06T13:13:22Z</time></trkpt><trkpt lat="45.42994006085388" lon="8.215207504016448"><ele>186.0</ele><time>2026-04-06T13:13:23Z</time></trkpt><trkpt lat="45.429843779770486" lon="8.21509921384456"><ele>186.0</ele><time>2026-04-06T13:13:24Z</time></trkpt><trkpt lat="45.42976659520228" lon="8.214991520879495"><ele>186.0</ele><time>2026-04-06T13:13:25Z</time></trkpt><trkpt lat="45.42971793072858" lon="8.214865614451362"><ele>186.0</ele><time>2026-04-06T13:13:26Z</time></trkpt><trkpt lat="45.42969557509751" lon="8.214713000599371"><ele>186.0</ele><time>2026-04-06T13:13:27Z</time></trkpt><trkpt lat="45.429680139096014" lon="8.214540166961992"><ele>186.25</ele><time>2026-04-06T13:13:28Z</time></trkpt><trkpt lat="45.429639517366184" lon="8.214375984442059"><ele>186.5</ele><time>2026-04-06T13:13:29Z</time></trkpt><trkpt lat="45.429558532939495" lon="8.214242750788046"><ele>186.75</ele><time>2026-04-06T13:13:30Z</time></trkpt><trkpt lat="45.42946533719041" lon="8.21415519201229"><ele>187.0</ele><time>2026-04-06T13:13:31Z</time></trkpt><trkpt lat="45.429381541867286" lon="8.214072732826054"><ele>187.0</ele><time>2026-04-06T13:13:32Z</time></trkpt><trkpt lat="45.42933124016016" lon="8.213953604411442"><ele>187.0</ele><time>2026-04-06T13:13:33Z</time></trkpt><trkpt lat="45.42930700259856" lon="8.213814699669168"><ele>187.0</ele><time>2026-04-06T13:13:34Z</time></trkpt><trkpt lat="45.42928913609932" lon="8.213646468779391"><ele>187.0</ele><time>2026-04-06T13:13:35Z</time></trkpt><trkpt lat="45.429250331050966" lon="8.213463326066314"><ele>187.0</ele><time>2026-04-06T13:13:36Z</time></trkpt><trkpt lat="45.429207768088006" lon="8.213262474921212"><ele>187.0</ele><time>2026-04-06T13:13:37Z</time></trkpt><trkpt lat="45.42915866202875" lon="8.213041256661596"><ele>187.0</ele><time>2026-04-06T13:13:38Z</time></trkpt><trkpt lat="45.42910388170614" lon="8.212789882616192"><ele>186.66666666666669</ele><time>2026-04-06T13:13:39Z</time></trkpt><trkpt lat="45.429053568731156" lon="8.212525085634553"><ele>186.33333333333334</ele><time>2026-04-06T13:13:40Z</time></trkpt><trkpt lat="45.42900251859394" lon="8.212239960634076"><ele>186.0</ele><time>2026-04-06T13:13:41Z</time></trkpt><trkpt lat="45.428953695822024" lon="8.211936894380582"><ele>186.0</ele><time>2026-04-06T13:13:42Z</time></trkpt><trkpt lat="45.42890375948864" lon="8.21162492878932"><ele>186.0</ele><time>2026-04-06T13:13:43Z</time></trkpt><trkpt lat="45.42885281195976" lon="8.211312746252862"><ele>186.0</ele><time>2026-04-06T13:13:44Z</time></trkpt><trkpt lat="45.42880223316679" lon="8.211000909919337"><ele>186.0</ele><time>2026-04-06T13:13:45Z</time></trkpt><trkpt lat="45.42875118481329" lon="8.210691981632896"><ele>186.0</ele><time>2026-04-06T13:13:46Z</time></trkpt><trkpt lat="45.428701660093765" lon="8.210384367367253"><ele>186.0</ele><time>2026-04-06T13:13:47Z</time></trkpt><trkpt lat="45.42865267183125" lon="8.21007146341735"><ele>186.0</ele><time>2026-04-06T13:13:48Z</time></trkpt><trkpt lat="45.42860141457104" lon="8.209755790370028"><ele>186.0</ele><time>2026-04-06T13:13:49Z</time></trkpt><trkpt lat="45.42855216078642" lon="8.209433100003915"><ele>186.0</ele><time>2026-04-06T13:13:50Z</time></trkpt><trkpt lat="45.428500582515" lon="8.209109776847306"><ele>186.0</ele><time>2026-04-06T13:13:51Z</time></trkpt><trkpt lat="45.42844551301888" lon="8.208783370600777"><ele>186.5</ele><time>2026-04-06T13:13:52Z</time></trkpt><trkpt lat="45.42839300903856" lon="8.208457652243762"><ele>187.0</ele><time>2026-04-06T13:13:53Z</time></trkpt><trkpt lat="45.42834648805598" lon="8.20813240275727"><ele>187.5</ele><time>2026-04-06T13:13:54Z</time></trkpt><trkpt lat="45.42829290381056" lon="8.207809706746913"><ele>188.0</ele><time>2026-04-06T13:13:55Z</time></trkpt><trkpt lat="45.428240774364994" lon="8.207484519478609"><ele>188.0</ele><time>2026-04-06T13:13:55.999Z</time></trkpt><trkpt lat="45.42818970633388" lon="8.207155843285378"><ele>188.0</ele><time>2026-04-06T13:13:56.999Z</time></trkpt><trkpt lat="45.42813530973519" lon="8.206826735185098"><ele>188.0</ele><time>2026-04-06T13:13:57.999Z</time></trkpt><trkpt lat="45.42808239126739" lon="8.206508557468048"><ele>188.0</ele><time>2026-04-06T13:13:58.999Z</time></trkpt><trkpt lat="45.42803293192561" lon="8.206194059660922"><ele>188.0</ele><time>2026-04-06T13:13:59.999Z</time></trkpt><trkpt lat="45.42798398030652" lon="8.205875880450586"><ele>188.0</ele><time>2026-04-06T13:14:00.999Z</time></trkpt><trkpt lat="45.427933476398" lon="8.205557260568629"><ele>187.66666666666666</ele><time>2026-04-06T13:14:01.999Z</time></trkpt><trkpt lat="45.42788103285873" lon="8.205241578562466"><ele>187.33333333333334</ele><time>2026-04-06T13:14:02.999Z</time></trkpt><trkpt lat="45.42783236703418" lon="8.204934579307704"><ele>187.0</ele><time>2026-04-06T13:14:03.999Z</time></trkpt><trkpt lat="45.42778569457392" lon="8.204628989906483"><ele>187.0</ele><time>2026-04-06T13:14:04.999Z</time></trkpt><trkpt lat="45.427735910375645" lon="8.204318143014065"><ele>187.0</ele><time>2026-04-06T13:14:05.999Z</time></trkpt><trkpt lat="45.42768489012583" lon="8.204001565976501"><ele>187.5</ele><time>2026-04-06T13:14:06.999Z</time></trkpt><trkpt lat="45.427638794181355" lon="8.203679696770582"><ele>188.0</ele><time>2026-04-06T13:14:07.999Z</time></trkpt><trkpt lat="45.42759285130135" lon="8.203357078713728"><ele>188.5</ele><time>2026-04-06T13:14:08.999Z</time></trkpt><trkpt lat="45.42753985450221" lon="8.203038832992668"><ele>189.0</ele><time>2026-04-06T13:14:09.999Z</time></trkpt><trkpt lat="45.42748930760708" lon="8.202725366650904"><ele>189.0</ele><time>2026-04-06T13:14:10.999Z</time></trkpt><trkpt lat="45.42744089349313" lon="8.202405039157219"><ele>189.0</ele><time>2026-04-06T13:14:11.999Z</time></trkpt><trkpt lat="45.427391692577885" lon="8.202087090769227"><ele>189.0</ele><time>2026-04-06T13:14:12.999Z</time></trkpt><trkpt lat="45.427346081043304" lon="8.201769366485932"><ele>189.0</ele><time>2026-04-06T13:14:13.999Z</time></trkpt><trkpt lat="45.42729763998417" lon="8.201450023192594"><ele>188.5</ele><time>2026-04-06T13:14:14.999Z</time></trkpt><trkpt lat="45.42724650390396" lon="8.201131150272387"><ele>188.0</ele><time>2026-04-06T13:14:15.999Z</time></trkpt><trkpt lat="45.42719546504289" lon="8.200814606651274"><ele>188.0</ele><time>2026-04-06T13:14:16.999Z</time></trkpt><trkpt lat="45.42714578139353" lon="8.200499575206894"><ele>188.0</ele><time>2026-04-06T13:14:17.999Z</time></trkpt><trkpt lat="45.42710940318587" lon="8.20020249546728"><ele>188.0</ele><time>2026-04-06T13:14:18.999Z</time></trkpt><trkpt lat="45.427098379303956" lon="8.199927329527878"><ele>188.0</ele><time>2026-04-06T13:14:19.999Z</time></trkpt><trkpt lat="45.42711533831025" lon="8.199644814870423"><ele>188.0</ele><time>2026-04-06T13:14:20.999Z</time></trkpt><trkpt lat="45.42716193374602" lon="8.199355994257223"><ele>188.0</ele><time>2026-04-06T13:14:21.999Z</time></trkpt><trkpt lat="45.427235314187456" lon="8.199072130055413"><ele>188.33333333333331</ele><time>2026-04-06T13:14:22.999Z</time></trkpt><trkpt lat="45.427338973614326" lon="8.198799872335528"><ele>188.66666666666666</ele><time>2026-04-06T13:14:23.999Z</time></trkpt><trkpt lat="45.42746651546303" lon="8.198538368114555"><ele>189.0</ele><time>2026-04-06T13:14:24.999Z</time></trkpt><trkpt lat="45.42760536960712" lon="8.198285696387895"><ele>189.0</ele><time>2026-04-06T13:14:25.999Z</time></trkpt><trkpt lat="45.427736538068466" lon="8.198043618118573"><ele>189.0</ele><time>2026-04-06T13:14:26.999Z</time></trkpt><trkpt lat="45.42785195055921" lon="8.197822713397462"><ele>189.0</ele><time>2026-04-06T13:14:27.999Z</time></trkpt><trkpt lat="45.427962788658334" lon="8.197600393119254"><ele>189.66666666666666</ele><time>2026-04-06T13:14:28.999Z</time></trkpt><trkpt lat="45.42807982482711" lon="8.197371367437942"><ele>190.33333333333331</ele><time>2026-04-06T13:14:29.999Z</time></trkpt><trkpt lat="45.42819351169618" lon="8.197138717382426"><ele>191.0</ele><time>2026-04-06T13:14:30.999Z</time></trkpt><trkpt lat="45.428314487523295" lon="8.196912034006118"><ele>191.0</ele><time>2026-04-06T13:14:31.999Z</time></trkpt><trkpt lat="45.42843113560815" lon="8.19668271669777"><ele>191.0</ele><time>2026-04-06T13:14:32.999Z</time></trkpt><trkpt lat="45.428545462662626" lon="8.1964478345529"><ele>191.0</ele><time>2026-04-06T13:14:33.999Z</time></trkpt><trkpt lat="45.42865670094262" lon="8.196198644943468"><ele>190.66666666666666</ele><time>2026-04-06T13:14:34.999Z</time></trkpt><trkpt lat="45.42875634236572" lon="8.195922343429725"><ele>190.33333333333334</ele><time>2026-04-06T13:14:35.999Z</time></trkpt><trkpt lat="45.42883496911058" lon="8.195622036109302"><ele>190.0</ele><time>2026-04-06T13:14:37Z</time></trkpt><trkpt lat="45.42890635558099" lon="8.19531166886399"><ele>190.0</ele><time>2026-04-06T13:14:38Z</time></trkpt><trkpt lat="45.42897279355139" lon="8.194992206443379"><ele>190.0</ele><time>2026-04-06T13:14:39Z</time></trkpt><trkpt lat="45.42903892764379" lon="8.194681340108415"><ele>190.33333333333334</ele><time>2026-04-06T13:14:40Z</time></trkpt><trkpt lat="45.429103173006155" lon="8.194381707912989"><ele>190.66666666666666</ele><time>2026-04-06T13:14:41Z</time></trkpt><trkpt lat="45.42916002846018" lon="8.194077745373795"><ele>191.0</ele><time>2026-04-06T13:14:42Z</time></trkpt><trkpt lat="45.429210418681976" lon="8.193768340972317"><ele>191.0</ele><time>2026-04-06T13:14:43Z</time></trkpt><trkpt lat="45.42925522520177" lon="8.193454817995322"><ele>191.0</ele><time>2026-04-06T13:14:44Z</time></trkpt><trkpt lat="45.42929870493126" lon="8.19313911286236"><ele>191.5</ele><time>2026-04-06T13:14:45Z</time></trkpt><trkpt lat="45.42934396224865" lon="8.19282123957019"><ele>192.0</ele><time>2026-04-06T13:14:46Z</time></trkpt><trkpt lat="45.42939146912902" lon="8.19250504188196"><ele>192.0</ele><time>2026-04-06T13:14:47Z</time></trkpt><trkpt lat="45.42943862793913" lon="8.19219366987463"><ele>192.0</ele><time>2026-04-06T13:14:48Z</time></trkpt><trkpt lat="45.429484640055655" lon="8.191879562982386"><ele>192.0</ele><time>2026-04-06T13:14:49Z</time></trkpt><trkpt lat="45.42952937634926" lon="8.191563334906322"><ele>192.0</ele><time>2026-04-06T13:14:50Z</time></trkpt><trkpt lat="45.42957454957215" lon="8.191247186879648"><ele>192.0</ele><time>2026-04-06T13:14:51Z</time></trkpt><trkpt lat="45.42961926847428" lon="8.190939424583174"><ele>192.0</ele><time>2026-04-06T13:14:52Z</time></trkpt><trkpt lat="45.42966354494095" lon="8.190630555534492"><ele>192.33333333333331</ele><time>2026-04-06T13:14:53Z</time></trkpt><trkpt lat="45.4297084062478" lon="8.19031984039003"><ele>192.66666666666666</ele><time>2026-04-06T13:14:54Z</time></trkpt><trkpt lat="45.42975191581208" lon="8.190013293960645"><ele>193.0</ele><time>2026-04-06T13:14:55Z</time></trkpt><trkpt lat="45.42979500849555" lon="8.18970378021963"><ele>193.0</ele><time>2026-04-06T13:14:56Z</time></trkpt><trkpt lat="45.42983991572094" lon="8.189392350362208"><ele>193.0</ele><time>2026-04-06T13:14:57Z</time></trkpt><trkpt lat="45.42988417312147" lon="8.18908289335654"><ele>193.0</ele><time>2026-04-06T13:14:58Z</time></trkpt><trkpt lat="45.42992629602249" lon="8.188780735949722"><ele>193.0</ele><time>2026-04-06T13:14:59Z</time></trkpt><trkpt lat="45.42996992938665" lon="8.188481874855864"><ele>193.0</ele><time>2026-04-06T13:15:00Z</time></trkpt><trkpt lat="45.43001279625568" lon="8.188183675171029"><ele>193.0</ele><time>2026-04-06T13:15:01Z</time></trkpt><trkpt lat="45.4300562713902" lon="8.187884196586733"><ele>193.33333333333331</ele><time>2026-04-06T13:15:02Z</time></trkpt><trkpt lat="45.4300985339625" lon="8.187578257955444"><ele>193.66666666666669</ele><time>2026-04-06T13:15:03Z</time></trkpt><trkpt lat="45.43014446195312" lon="8.187266430867139"><ele>194.0</ele><time>2026-04-06T13:15:04Z</time></trkpt><trkpt lat="45.43018791278587" lon="8.186949218891629"><ele>194.0</ele><time>2026-04-06T13:15:05Z</time></trkpt><trkpt lat="45.430231925530975" lon="8.186632174495303"><ele>194.0</ele><time>2026-04-06T13:15:06Z</time></trkpt><trkpt lat="45.43027737560354" lon="8.186320992723711"><ele>193.66666666666669</ele><time>2026-04-06T13:15:07Z</time></trkpt><trkpt lat="45.43031950135526" lon="8.186019228019568"><ele>193.33333333333331</ele><time>2026-04-06T13:15:08Z</time></trkpt><trkpt lat="45.43035921795111" lon="8.185729247791114"><ele>193.0</ele><time>2026-04-06T13:15:09Z</time></trkpt><trkpt lat="45.43039972370023" lon="8.185441651746356"><ele>193.0</ele><time>2026-04-06T13:15:10Z</time></trkpt><trkpt lat="45.43044170488965" lon="8.18515053597058"><ele>193.0</ele><time>2026-04-06T13:15:11Z</time></trkpt><trkpt lat="45.43048322385719" lon="8.184858734574282"><ele>193.0</ele><time>2026-04-06T13:15:12Z</time></trkpt><trkpt lat="45.430523390694475" lon="8.184568662556005"><ele>193.33333333333331</ele><time>2026-04-06T13:15:13Z</time></trkpt><trkpt lat="45.43056377998313" lon="8.184285706523603"><ele>193.66666666666669</ele><time>2026-04-06T13:15:14Z</time></trkpt><trkpt lat="45.43060450885594" lon="8.184004620817205"><ele>194.0</ele><time>2026-04-06T13:15:15Z</time></trkpt><trkpt lat="45.43064255957135" lon="8.183723393797557"><ele>194.0</ele><time>2026-04-06T13:15:16Z</time></trkpt><trkpt lat="45.430680759816966" lon="8.183440377932556"><ele>194.0</ele><time>2026-04-06T13:15:17Z</time></trkpt><trkpt lat="45.43072107487285" lon="8.183155179812747"><ele>194.0</ele><time>2026-04-06T13:15:18Z</time></trkpt><trkpt lat="45.43076048080982" lon="8.182874006757167"><ele>194.33333333333334</ele><time>2026-04-06T13:15:19Z</time></trkpt><trkpt lat="45.43080129092474" lon="8.182597462404571"><ele>194.66666666666669</ele><time>2026-04-06T13:15:20Z</time></trkpt><trkpt lat="45.430838140266424" lon="8.18232496995808"><ele>195.0</ele><time>2026-04-06T13:15:21Z</time></trkpt><trkpt lat="45.43087597578002" lon="8.182064223251734"><ele>195.33333333333331</ele><time>2026-04-06T13:15:22Z</time></trkpt><trkpt lat="45.4309121165836" lon="8.18180978705559"><ele>195.66666666666666</ele><time>2026-04-06T13:15:23Z</time></trkpt><trkpt lat="45.430946556971186" lon="8.181554342394248"><ele>196.0</ele><time>2026-04-06T13:15:24Z</time></trkpt><trkpt lat="45.43098387855999" lon="8.18129914426342"><ele>196.0</ele><time>2026-04-06T13:15:25Z</time></trkpt><trkpt lat="45.43102323068659" lon="8.181044530791697"><ele>196.0</ele><time>2026-04-06T13:15:26Z</time></trkpt><trkpt lat="45.43106350076933" lon="8.180790083625288"><ele>196.0</ele><time>2026-04-06T13:15:27Z</time></trkpt><trkpt lat="45.43110374659334" lon="8.18052568224916"><ele>196.33333333333331</ele><time>2026-04-06T13:15:28Z</time></trkpt><trkpt lat="45.43114450149965" lon="8.18025228211814"><ele>196.66666666666669</ele><time>2026-04-06T13:15:29Z</time></trkpt><trkpt lat="45.43118065472003" lon="8.179988763827408"><ele>197.0</ele><time>2026-04-06T13:15:30Z</time></trkpt><trkpt lat="45.43121494029783" lon="8.17974770737198"><ele>197.33333333333334</ele><time>2026-04-06T13:15:31Z</time></trkpt><trkpt lat="45.43124841461231" lon="8.179520488134353"><ele>197.66666666666669</ele><time>2026-04-06T13:15:32Z</time></trkpt><trkpt lat="45.431278720714026" lon="8.179306205898191"><ele>198.0</ele><time>2026-04-06T13:15:33Z</time></trkpt><trkpt lat="45.431308023901856" lon="8.179103783728348"><ele>199.0</ele><time>2026-04-06T13:15:34Z</time></trkpt><trkpt lat="45.431337861579806" lon="8.178905628883294"><ele>200.0</ele><time>2026-04-06T13:15:35Z</time></trkpt><trkpt lat="45.43136526172952" lon="8.178699008068246"><ele>201.0</ele><time>2026-04-06T13:15:36Z</time></trkpt><trkpt lat="45.431393087936655" lon="8.178475006690723"><ele>202.0</ele><time>2026-04-06T13:15:37Z</time></trkpt><trkpt lat="45.43141589613483" lon="8.17823777505796"><ele>201.0</ele><time>2026-04-06T13:15:38Z</time></trkpt><trkpt lat="45.43143262295531" lon="8.17798822661899"><ele>200.0</ele><time>2026-04-06T13:15:39Z</time></trkpt><trkpt lat="45.431447040309145" lon="8.177752747870853"><ele>199.0</ele><time>2026-04-06T13:15:40Z</time></trkpt><trkpt lat="45.43146218634779" lon="8.177513389130452"><ele>198.0</ele><time>2026-04-06T13:15:41Z</time></trkpt><trkpt lat="45.43146504638565" lon="8.177256556915012"><ele>197.0</ele><time>2026-04-06T13:15:42Z</time></trkpt><trkpt lat="45.431461129875586" lon="8.176985910361346"><ele>196.0</ele><time>2026-04-06T13:15:43Z</time></trkpt><trkpt lat="45.43145098323243" lon="8.176706815721737"><ele>195.33333333333331</ele><time>2026-04-06T13:15:44Z</time></trkpt><trkpt lat="45.43144142927801" lon="8.176426561894285"><ele>194.66666666666669</ele><time>2026-04-06T13:15:45Z</time></trkpt><trkpt lat="45.43143150587266" lon="8.176160726652888"><ele>194.0</ele><time>2026-04-06T13:15:46Z</time></trkpt><trkpt lat="45.43142493056157" lon="8.175911458405253"><ele>194.33333333333334</ele><time>2026-04-06T13:15:47Z</time></trkpt><trkpt lat="45.43142291480704" lon="8.175664091047024"><ele>194.66666666666669</ele><time>2026-04-06T13:15:48Z</time></trkpt><trkpt lat="45.431447067859324" lon="8.175427054434376"><ele>195.0</ele><time>2026-04-06T13:15:49Z</time></trkpt><trkpt lat="45.43150788478958" lon="8.175193743736127"><ele>195.0</ele><time>2026-04-06T13:15:50Z</time></trkpt><trkpt lat="45.43158797913234" lon="8.174958553301774"><ele>195.0</ele><time>2026-04-06T13:15:51Z</time></trkpt><trkpt lat="45.43167568029903" lon="8.174719338098624"><ele>195.0</ele><time>2026-04-06T13:15:52Z</time></trkpt><trkpt lat="45.43176869317691" lon="8.174471639724278"><ele>195.0</ele><time>2026-04-06T13:15:53Z</time></trkpt><trkpt lat="45.431859431803524" lon="8.174208242722486"><ele>195.0</ele><time>2026-04-06T13:15:54Z</time></trkpt><trkpt lat="45.431951787259635" lon="8.173933991120617"><ele>195.0</ele><time>2026-04-06T13:15:54.999Z</time></trkpt><trkpt lat="45.43204955577878" lon="8.17365169540497"><ele>195.5</ele><time>2026-04-06T13:15:55.999Z</time></trkpt><trkpt lat="45.4321501513381" lon="8.173361758111144"><ele>196.0</ele><time>2026-04-06T13:15:56.999Z</time></trkpt><trkpt lat="45.43225217135373" lon="8.173069286286594"><ele>196.0</ele><time>2026-04-06T13:15:57.999Z</time></trkpt><trkpt lat="45.43235211939874" lon="8.172781379969248"><ele>196.0</ele><time>2026-04-06T13:15:58.999Z</time></trkpt><trkpt lat="45.432447554482714" lon="8.172502967839332"><ele>196.0</ele><time>2026-04-06T13:15:59.999Z</time></trkpt><trkpt lat="45.43254531924758" lon="8.172223708930794"><ele>195.66666666666666</ele><time>2026-04-06T13:16:00.999Z</time></trkpt><trkpt lat="45.4326381635143" lon="8.171948995164229"><ele>195.33333333333331</ele><time>2026-04-06T13:16:01.999Z</time></trkpt><trkpt lat="45.43273357838099" lon="8.17166848052388"><ele>195.0</ele><time>2026-04-06T13:16:02.999Z</time></trkpt><trkpt lat="45.43282679471967" lon="8.171389227540667"><ele>194.66666666666669</ele><time>2026-04-06T13:16:03.999Z</time></trkpt><trkpt lat="45.43291841143658" lon="8.171120098943785"><ele>194.33333333333334</ele><time>2026-04-06T13:16:04.999Z</time></trkpt><trkpt lat="45.433010434929706" lon="8.170851085746444"><ele>194.0</ele><time>2026-04-06T13:16:05.999Z</time></trkpt><trkpt lat="45.433105234781266" lon="8.17057952882657"><ele>194.66666666666669</ele><time>2026-04-06T13:16:06.999Z</time></trkpt><trkpt lat="45.43319743990765" lon="8.170316736756652"><ele>195.33333333333331</ele><time>2026-04-06T13:16:07.999Z</time></trkpt><trkpt lat="45.43328849453093" lon="8.170049734788558"><ele>196.0</ele><time>2026-04-06T13:16:08.999Z</time></trkpt><trkpt lat="45.43338084054884" lon="8.169779410900647"><ele>196.0</ele><time>2026-04-06T13:16:09.999Z</time></trkpt><trkpt lat="45.43347224456167" lon="8.169504270800937"><ele>196.0</ele><time>2026-04-06T13:16:10.999Z</time></trkpt><trkpt lat="45.43356336688773" lon="8.169229209246263"><ele>196.0</ele><time>2026-04-06T13:16:11.999Z</time></trkpt><trkpt lat="45.43365194954686" lon="8.168960323915556"><ele>196.0</ele><time>2026-04-06T13:16:12.999Z</time></trkpt><trkpt lat="45.43373821689781" lon="8.168707947761584"><ele>196.0</ele><time>2026-04-06T13:16:13.999Z</time></trkpt><trkpt lat="45.4338234377209" lon="8.168461702142393"><ele>196.0</ele><time>2026-04-06T13:16:14.999Z</time></trkpt><trkpt lat="45.43390735398767" lon="8.168215998395294"><ele>197.66666666666666</ele><time>2026-04-06T13:16:15.999Z</time></trkpt><trkpt lat="45.43399209695339" lon="8.167964776140577"><ele>199.33333333333331</ele><time>2026-04-06T13:16:16.999Z</time></trkpt><trkpt lat="45.43406939846267" lon="8.167735724806276"><ele>201.0</ele><time>2026-04-06T13:16:17.999Z</time></trkpt><trkpt lat="45.434143499115486" lon="8.167530969577598"><ele>200.66666666666669</ele><time>2026-04-06T13:16:18.999Z</time></trkpt><trkpt lat="45.43422905456926" lon="8.167348743221918"><ele>200.33333333333334</ele><time>2026-04-06T13:16:19.999Z</time></trkpt><trkpt lat="45.434343006017485" lon="8.16717650930989"><ele>200.0</ele><time>2026-04-06T13:16:20.999Z</time></trkpt><trkpt lat="45.434482050800824" lon="8.16702287915288"><ele>200.0</ele><time>2026-04-06T13:16:21.999Z</time></trkpt><trkpt lat="45.434633878697674" lon="8.166862670180628"><ele>200.0</ele><time>2026-04-06T13:16:22.999Z</time></trkpt><trkpt lat="45.43479473293474" lon="8.166680411370448"><ele>200.0</ele><time>2026-04-06T13:16:23.999Z</time></trkpt><trkpt lat="45.43495412834068" lon="8.166497082474406"><ele>199.66666666666669</ele><time>2026-04-06T13:16:24.999Z</time></trkpt><trkpt lat="45.435119500025785" lon="8.166310962611691"><ele>199.33333333333331</ele><time>2026-04-06T13:16:25.999Z</time></trkpt><trkpt lat="45.43528957329577" lon="8.166116171257274"><ele>199.0</ele><time>2026-04-06T13:16:26.999Z</time></trkpt><trkpt lat="45.43545843473783" lon="8.165925763712707"><ele>199.66666666666666</ele><time>2026-04-06T13:16:27.999Z</time></trkpt><trkpt lat="45.435623933311014" lon="8.165736976873182"><ele>200.33333333333331</ele><time>2026-04-06T13:16:28.999Z</time></trkpt><trkpt lat="45.435794186394666" lon="8.165536799046716"><ele>201.0</ele><time>2026-04-06T13:16:29.999Z</time></trkpt><trkpt lat="45.43597970098539" lon="8.165347302356361"><ele>201.0</ele><time>2026-04-06T13:16:30.999Z</time></trkpt><trkpt lat="45.43616221745431" lon="8.165136432913917"><ele>201.0</ele><time>2026-04-06T13:16:31.999Z</time></trkpt><trkpt lat="45.43633229445486" lon="8.164918842841894"><ele>201.5</ele><time>2026-04-06T13:16:32.999Z</time></trkpt><trkpt lat="45.43651152275414" lon="8.164721855836104"><ele>202.0</ele><time>2026-04-06T13:16:33.999Z</time></trkpt><trkpt lat="45.43669019848361" lon="8.164521619241041"><ele>202.0</ele><time>2026-04-06T13:16:34.999Z</time></trkpt><trkpt lat="45.43686922995545" lon="8.164316791059651"><ele>202.0</ele><time>2026-04-06T13:16:35.999Z</time></trkpt><trkpt lat="45.437049706734484" lon="8.16410816227266"><ele>202.0</ele><time>2026-04-06T13:16:36.999Z</time></trkpt><trkpt lat="45.43722971156248" lon="8.163898834885632"><ele>202.0</ele><time>2026-04-06T13:16:37.999Z</time></trkpt><trkpt lat="45.43740125867739" lon="8.16368678234354"><ele>202.0</ele><time>2026-04-06T13:16:38.999Z</time></trkpt><trkpt lat="45.43756636537535" lon="8.163451518741606"><ele>202.0</ele><time>2026-04-06T13:16:39.999Z</time></trkpt><trkpt lat="45.437715932137316" lon="8.16319890291896"><ele>202.33333333333331</ele><time>2026-04-06T13:16:40.999Z</time></trkpt><trkpt lat="45.437856592782985" lon="8.162950374775397"><ele>202.66666666666669</ele><time>2026-04-06T13:16:41.999Z</time></trkpt><trkpt lat="45.4379985543539" lon="8.162708386663306"><ele>203.0</ele><time>2026-04-06T13:16:43Z</time></trkpt><trkpt lat="45.43814819252388" lon="8.162457854559692"><ele>203.5</ele><time>2026-04-06T13:16:44Z</time></trkpt><trkpt lat="45.43829926747669" lon="8.162204712320765"><ele>204.0</ele><time>2026-04-06T13:16:45Z</time></trkpt><trkpt lat="45.438451872253104" lon="8.161957031045947"><ele>204.0</ele><time>2026-04-06T13:16:46Z</time></trkpt><trkpt lat="45.43862046924798" lon="8.161723696899339"><ele>204.0</ele><time>2026-04-06T13:16:47Z</time></trkpt><trkpt lat="45.43881791779542" lon="8.161522774252816"><ele>203.5</ele><time>2026-04-06T13:16:48Z</time></trkpt><trkpt lat="45.43902664540283" lon="8.161365847894345"><ele>203.0</ele><time>2026-04-06T13:16:49Z</time></trkpt><trkpt lat="45.43920010584261" lon="8.161117426982708"><ele>203.0</ele><time>2026-04-06T13:16:50Z</time></trkpt><trkpt lat="45.43936175704384" lon="8.160852308840887"><ele>203.0</ele><time>2026-04-06T13:16:51Z</time></trkpt><trkpt lat="45.43951838452669" lon="8.160588532822006"><ele>203.33333333333334</ele><time>2026-04-06T13:16:52Z</time></trkpt><trkpt lat="45.439667752157504" lon="8.16033718886456"><ele>203.66666666666669</ele><time>2026-04-06T13:16:53Z</time></trkpt><trkpt lat="45.4398152058567" lon="8.160111638087445"><ele>204.0</ele><time>2026-04-06T13:16:54Z</time></trkpt><trkpt lat="45.43999008028836" lon="8.159968588281973"><ele>204.33333333333331</ele><time>2026-04-06T13:16:55Z</time></trkpt><trkpt lat="45.44018668635012" lon="8.159852680404498"><ele>204.66666666666666</ele><time>2026-04-06T13:16:56Z</time></trkpt><trkpt lat="45.44040340675303" lon="8.159733229599626"><ele>205.0</ele><time>2026-04-06T13:16:57Z</time></trkpt><trkpt lat="45.440600757485335" lon="8.159614730322732"><ele>205.0</ele><time>2026-04-06T13:16:58Z</time></trkpt><trkpt lat="45.44078483582274" lon="8.159489034364698"><ele>205.0</ele><time>2026-04-06T13:16:59Z</time></trkpt><trkpt lat="45.440964009153035" lon="8.159353594169932"><ele>205.0</ele><time>2026-04-06T13:17:00Z</time></trkpt><trkpt lat="45.441162918734264" lon="8.159249097961844"><ele>206.0</ele><time>2026-04-06T13:17:01Z</time></trkpt><trkpt lat="45.44137526563829" lon="8.159156392928667"><ele>207.0</ele><time>2026-04-06T13:17:02Z</time></trkpt><trkpt lat="45.44159756595614" lon="8.159074102057032"><ele>206.0</ele><time>2026-04-06T13:17:03Z</time></trkpt><trkpt lat="45.4418280044442" lon="8.158992116770362"><ele>205.0</ele><time>2026-04-06T13:17:04Z</time></trkpt><trkpt lat="45.442058742524985" lon="8.158903795998402"><ele>205.33333333333331</ele><time>2026-04-06T13:17:05Z</time></trkpt><trkpt lat="45.44227489924674" lon="8.158813107800274"><ele>205.66666666666669</ele><time>2026-04-06T13:17:06Z</time></trkpt><trkpt lat="45.44247484775325" lon="8.158712414807164"><ele>206.0</ele><time>2026-04-06T13:17:07Z</time></trkpt><trkpt lat="45.44265912111823" lon="8.15859951911577"><ele>206.0</ele><time>2026-04-06T13:17:08Z</time></trkpt><trkpt lat="45.44282262443054" lon="8.158478038142675"><ele>206.0</ele><time>2026-04-06T13:17:09Z</time></trkpt><trkpt lat="45.44297121861122" lon="8.158368750571546"><ele>206.0</ele><time>2026-04-06T13:17:10Z</time></trkpt><trkpt lat="45.44309894797714" lon="8.158264643294935"><ele>206.5</ele><time>2026-04-06T13:17:11Z</time></trkpt><trkpt lat="45.443205922179025" lon="8.158148823739328"><ele>207.0</ele><time>2026-04-06T13:17:12Z</time></trkpt><trkpt lat="45.44328685572826" lon="8.158021987242444"><ele>207.5</ele><time>2026-04-06T13:17:13Z</time></trkpt><trkpt lat="45.44334624956609" lon="8.157870962343624"><ele>208.0</ele><time>2026-04-06T13:17:14Z</time></trkpt><trkpt lat="45.44342771678199" lon="8.157691849093192"><ele>208.0</ele><time>2026-04-06T13:17:15Z</time></trkpt><trkpt lat="45.44351066199938" lon="8.157489090325907"><ele>208.0</ele><time>2026-04-06T13:17:16Z</time></trkpt><trkpt lat="45.44360261741223" lon="8.157264306225317"><ele>208.0</ele><time>2026-04-06T13:17:17Z</time></trkpt><trkpt lat="45.44369447563009" lon="8.157004838743507"><ele>207.5</ele><time>2026-04-06T13:17:18Z</time></trkpt><trkpt lat="45.443496179004626" lon="8.15650251371892"><ele>207.0</ele><time>2026-04-06T13:17:19Z</time></trkpt><trkpt lat="45.443497997903684" lon="8.156143488694028"><ele>207.0</ele><time>2026-04-06T13:17:20Z</time></trkpt><trkpt lat="45.443507384307544" lon="8.15583237338563"><ele>207.0</ele><time>2026-04-06T13:17:21Z</time></trkpt><trkpt lat="45.443524968045146" lon="8.155566244383383"><ele>207.0</ele><time>2026-04-06T13:17:22Z</time></trkpt><trkpt lat="45.44355973225002" lon="8.15531008684522"><ele>207.0</ele><time>2026-04-06T13:17:23Z</time></trkpt><trkpt lat="45.44362773724232" lon="8.155069816412693"><ele>207.0</ele><time>2026-04-06T13:17:24Z</time></trkpt><trkpt lat="45.443726959803406" lon="8.154837314065436"><ele>207.0</ele><time>2026-04-06T13:17:25Z</time></trkpt><trkpt lat="45.44382959649977" lon="8.154587582492878"><ele>207.66666666666669</ele><time>2026-04-06T13:17:26Z</time></trkpt><trkpt lat="45.4439270340718" lon="8.154325890080191"><ele>208.33333333333334</ele><time>2026-04-06T13:17:27Z</time></trkpt><trkpt lat="45.44400818058537" lon="8.154121862612463"><ele>209.0</ele><time>2026-04-06T13:17:28Z</time></trkpt><trkpt lat="45.444104494823975" lon="8.153957346290515"><ele>209.0</ele><time>2026-04-06T13:17:29Z</time></trkpt><trkpt lat="45.44420722236033" lon="8.153814462041746"><ele>209.0</ele><time>2026-04-06T13:17:30Z</time></trkpt><trkpt lat="45.44431088200242" lon="8.15369278637619"><ele>209.0</ele><time>2026-04-06T13:17:31Z</time></trkpt><trkpt lat="45.44440031154807" lon="8.153589176491915"><ele>209.0</ele><time>2026-04-06T13:17:32Z</time></trkpt><trkpt lat="45.44448465027959" lon="8.153511169158294"><ele>209.0</ele><time>2026-04-06T13:17:33Z</time></trkpt><trkpt lat="45.444563590745446" lon="8.153462541230551"><ele>209.0</ele><time>2026-04-06T13:17:34Z</time></trkpt><trkpt lat="45.444650219983046" lon="8.15345634529216"><ele>209.0</ele><time>2026-04-06T13:17:35Z</time></trkpt><trkpt lat="45.444741187972404" lon="8.153501107545305"><ele>209.0</ele><time>2026-04-06T13:17:36Z</time></trkpt><trkpt lat="45.444836692510435" lon="8.15355512186826"><ele>209.0</ele><time>2026-04-06T13:17:37Z</time></trkpt><trkpt lat="45.44492070612494" lon="8.153593533467543"><ele>209.66666666666669</ele><time>2026-04-06T13:17:38Z</time></trkpt><trkpt lat="45.44498199070012" lon="8.153615778528806"><ele>210.33333333333334</ele><time>2026-04-06T13:17:39Z</time></trkpt><trkpt lat="45.44508075472656" lon="8.153591161524066"><ele>211.0</ele><time>2026-04-06T13:17:41Z</time></trkpt><trkpt lat="45.44511962907591" lon="8.15351292036754"><ele>211.66666666666669</ele><time>2026-04-06T13:17:42Z</time></trkpt><trkpt lat="45.445156136585105" lon="8.153399646054506"><ele>212.33333333333334</ele><time>2026-04-06T13:17:43Z</time></trkpt><trkpt lat="45.44520047627811" lon="8.153285377196852"><ele>213.0</ele><time>2026-04-06T13:17:44Z</time></trkpt><trkpt lat="45.44525235935298" lon="8.153165083322673"><ele>213.0</ele><time>2026-04-06T13:17:45Z</time></trkpt><trkpt lat="45.44535058867159" lon="8.153008192139518"><ele>213.0</ele><time>2026-04-06T13:17:47Z</time></trkpt><trkpt lat="45.44540492274875" lon="8.152895340036974"><ele>213.0</ele><time>2026-04-06T13:17:48Z</time></trkpt><trkpt lat="45.4454479264557" lon="8.152763796559217"><ele>213.0</ele><time>2026-04-06T13:17:49Z</time></trkpt><trkpt lat="45.44549301481689" lon="8.152622999641997"><ele>213.25</ele><time>2026-04-06T13:17:50Z</time></trkpt><trkpt lat="45.44554685810862" lon="8.152487056786358"><ele>213.5</ele><time>2026-04-06T13:17:51Z</time></trkpt><trkpt lat="45.44559966972749" lon="8.152334647670354"><ele>213.75</ele><time>2026-04-06T13:17:52Z</time></trkpt><trkpt lat="45.4456547595073" lon="8.152195621602765"><ele>214.0</ele><time>2026-04-06T13:17:53Z</time></trkpt><trkpt lat="45.44573083080499" lon="8.1520455700445"><ele>214.25</ele><time>2026-04-06T13:17:54Z</time></trkpt><trkpt lat="45.44581485975584" lon="8.151919848056332"><ele>214.5</ele><time>2026-04-06T13:17:55Z</time></trkpt><trkpt lat="45.445894421812085" lon="8.151787166099338"><ele>214.75</ele><time>2026-04-06T13:17:55.999Z</time></trkpt><trkpt lat="45.44595582267535" lon="8.151644132975155"><ele>215.0</ele><time>2026-04-06T13:17:56.999Z</time></trkpt><trkpt lat="45.44600983888014" lon="8.151519173420214"><ele>215.16666666666669</ele><time>2026-04-06T13:17:57.999Z</time></trkpt><trkpt lat="45.446047006977956" lon="8.151408999062225"><ele>215.33333333333334</ele><time>2026-04-06T13:17:58.999Z</time></trkpt><trkpt lat="45.44606595632814" lon="8.151317570671758"><ele>215.5</ele><time>2026-04-06T13:17:59.999Z</time></trkpt><trkpt lat="45.446061493685235" lon="8.151227574123755"><ele>215.66666666666669</ele><time>2026-04-06T13:18:00.999Z</time></trkpt><trkpt lat="45.446030017831994" lon="8.15110433024697"><ele>215.83333333333334</ele><time>2026-04-06T13:18:01.999Z</time></trkpt><trkpt lat="45.4459800602866" lon="8.150937927149497"><ele>216.0</ele><time>2026-04-06T13:18:02.999Z</time></trkpt><trkpt lat="45.44592879187111" lon="8.150747562783412"><ele>216.0</ele><time>2026-04-06T13:18:03.999Z</time></trkpt><trkpt lat="45.44587174883257" lon="8.150549282400828"><ele>216.0</ele><time>2026-04-06T13:18:04.999Z</time></trkpt><trkpt lat="45.44580824339715" lon="8.150332821016669"><ele>216.0</ele><time>2026-04-06T13:18:05.999Z</time></trkpt><trkpt lat="45.445748179878215" lon="8.150098852172093"><ele>215.66666666666669</ele><time>2026-04-06T13:18:06.999Z</time></trkpt><trkpt lat="45.445682789369044" lon="8.149866212903627"><ele>215.33333333333334</ele><time>2026-04-06T13:18:07.999Z</time></trkpt><trkpt lat="45.4456190370673" lon="8.149654304384974"><ele>215.0</ele><time>2026-04-06T13:18:08.999Z</time></trkpt><trkpt lat="45.445564187558325" lon="8.149445754911524"><ele>215.0</ele><time>2026-04-06T13:18:09.999Z</time></trkpt><trkpt lat="45.44552699026584" lon="8.149252323707959"><ele>215.0</ele><time>2026-04-06T13:18:10.999Z</time></trkpt><trkpt lat="45.44551361859722" lon="8.149046996951391"><ele>215.0</ele><time>2026-04-06T13:18:11.999Z</time></trkpt><trkpt lat="45.44553361168918" lon="8.14880281617328"><ele>215.0</ele><time>2026-04-06T13:18:12.999Z</time></trkpt><trkpt lat="45.44556403654593" lon="8.148544418808216"><ele>215.0</ele><time>2026-04-06T13:18:13.999Z</time></trkpt><trkpt lat="45.44559033916521" lon="8.14826962340324"><ele>215.0</ele><time>2026-04-06T13:18:14.999Z</time></trkpt><trkpt lat="45.445614111867314" lon="8.147988424035027"><ele>214.66666666666669</ele><time>2026-04-06T13:18:15.999Z</time></trkpt><trkpt lat="45.44563054557827" lon="8.147721732561397"><ele>214.33333333333331</ele><time>2026-04-06T13:18:16.999Z</time></trkpt><trkpt lat="45.44565270955166" lon="8.147471873776379"><ele>214.0</ele><time>2026-04-06T13:18:17.999Z</time></trkpt><trkpt lat="45.44566955456961" lon="8.14722663426006"><ele>213.33333333333331</ele><time>2026-04-06T13:18:18.999Z</time></trkpt><trkpt lat="45.445688357965956" lon="8.146987299012672"><ele>212.66666666666669</ele><time>2026-04-06T13:18:19.999Z</time></trkpt><trkpt lat="45.445706308316545" lon="8.146745295422352"><ele>212.0</ele><time>2026-04-06T13:18:20.999Z</time></trkpt><trkpt lat="45.445730345377385" lon="8.14649206434474"><ele>211.66666666666669</ele><time>2026-04-06T13:18:21.999Z</time></trkpt><trkpt lat="45.44575557809626" lon="8.146224983867482"><ele>211.33333333333331</ele><time>2026-04-06T13:18:22.999Z</time></trkpt><trkpt lat="45.44578297849263" lon="8.145945164352876"><ele>211.0</ele><time>2026-04-06T13:18:23.999Z</time></trkpt><trkpt lat="45.445825878416784" lon="8.145643535606286"><ele>210.5</ele><time>2026-04-06T13:18:24.999Z</time></trkpt><trkpt lat="45.445874983423245" lon="8.145321843907437"><ele>210.0</ele><time>2026-04-06T13:18:25.999Z</time></trkpt><trkpt lat="45.44591968092158" lon="8.144995567738553"><ele>210.0</ele><time>2026-04-06T13:18:26.999Z</time></trkpt><trkpt lat="45.44596113004817" lon="8.144672962725208"><ele>210.0</ele><time>2026-04-06T13:18:27.999Z</time></trkpt><trkpt lat="45.44600216934758" lon="8.144371611379501"><ele>210.0</ele><time>2026-04-06T13:18:28.999Z</time></trkpt><trkpt lat="45.446042757179306" lon="8.14407689785948"><ele>210.0</ele><time>2026-04-06T13:18:29.999Z</time></trkpt><trkpt lat="45.44608276930143" lon="8.14376916367072"><ele>210.0</ele><time>2026-04-06T13:18:30.999Z</time></trkpt><trkpt lat="45.446121488304584" lon="8.143453865694285"><ele>210.0</ele><time>2026-04-06T13:18:31.999Z</time></trkpt><trkpt lat="45.44616087203304" lon="8.143138971013682"><ele>210.33333333333331</ele><time>2026-04-06T13:18:32.999Z</time></trkpt><trkpt lat="45.44620358518918" lon="8.142824985000594"><ele>210.66666666666666</ele><time>2026-04-06T13:18:33.999Z</time></trkpt><trkpt lat="45.44624492358799" lon="8.142511463866763"><ele>211.0</ele><time>2026-04-06T13:18:34.999Z</time></trkpt><trkpt lat="45.44628685776812" lon="8.142198983184661"><ele>211.66666666666666</ele><time>2026-04-06T13:18:35.999Z</time></trkpt><trkpt lat="45.44632980617358" lon="8.141886092595456"><ele>212.33333333333331</ele><time>2026-04-06T13:18:36.999Z</time></trkpt><trkpt lat="45.446372121263806" lon="8.141574924059448"><ele>213.0</ele><time>2026-04-06T13:18:37.999Z</time></trkpt><trkpt lat="45.44641309393885" lon="8.141264538816598"><ele>213.0</ele><time>2026-04-06T13:18:38.999Z</time></trkpt><trkpt lat="45.44645308901428" lon="8.140955693875654"><ele>213.0</ele><time>2026-04-06T13:18:39.999Z</time></trkpt><trkpt lat="45.44649541338908" lon="8.140644985821966"><ele>213.0</ele><time>2026-04-06T13:18:40.999Z</time></trkpt><trkpt lat="45.44653629544761" lon="8.1403403866328"><ele>213.0</ele><time>2026-04-06T13:18:41.999Z</time></trkpt><trkpt lat="45.44657815910622" lon="8.140032178898027"><ele>213.0</ele><time>2026-04-06T13:18:42.999Z</time></trkpt><trkpt lat="45.446619412542425" lon="8.139726588380027"><ele>213.0</ele><time>2026-04-06T13:18:43.999Z</time></trkpt><trkpt lat="45.446658866974495" lon="8.139423795817613"><ele>213.0</ele><time>2026-04-06T13:18:44.999Z</time></trkpt><trkpt lat="45.446699272139014" lon="8.139120453244924"><ele>213.0</ele><time>2026-04-06T13:18:45.999Z</time></trkpt><trkpt lat="45.44674197307195" lon="8.138814625459954"><ele>213.0</ele><time>2026-04-06T13:18:46.999Z</time></trkpt><trkpt lat="45.44678391206198" lon="8.138508202497645"><ele>213.33333333333331</ele><time>2026-04-06T13:18:47.999Z</time></trkpt><trkpt lat="45.44682407609978" lon="8.138200184816167"><ele>213.66666666666666</ele><time>2026-04-06T13:18:49Z</time></trkpt><trkpt lat="45.44686530825954" lon="8.137889818085766"><ele>214.0</ele><time>2026-04-06T13:18:50Z</time></trkpt><trkpt lat="45.446908104015904" lon="8.137575149137957"><ele>214.0</ele><time>2026-04-06T13:18:51Z</time></trkpt><trkpt lat="45.446950735931935" lon="8.13725897164517"><ele>214.0</ele><time>2026-04-06T13:18:52Z</time></trkpt><trkpt lat="45.44699362391918" lon="8.13694248268233"><ele>214.0</ele><time>2026-04-06T13:18:53Z</time></trkpt><trkpt lat="45.44703700405653" lon="8.136622528044631"><ele>214.0</ele><time>2026-04-06T13:18:54Z</time></trkpt><trkpt lat="45.447079812434794" lon="8.136303702667606"><ele>213.5</ele><time>2026-04-06T13:18:55Z</time></trkpt><trkpt lat="45.447122545199406" lon="8.135988722620601"><ele>213.0</ele><time>2026-04-06T13:18:56Z</time></trkpt><trkpt lat="45.44716517117055" lon="8.13566471022218"><ele>214.0</ele><time>2026-04-06T13:18:57Z</time></trkpt><trkpt lat="45.447206776144405" lon="8.135343429320491"><ele>215.0</ele><time>2026-04-06T13:18:58Z</time></trkpt><trkpt lat="45.44724878056663" lon="8.135024135616026"><ele>214.66666666666669</ele><time>2026-04-06T13:18:59Z</time></trkpt><trkpt lat="45.44728720772072" lon="8.13470879726755"><ele>214.33333333333331</ele><time>2026-04-06T13:19:00Z</time></trkpt><trkpt lat="45.44732999215082" lon="8.134399315984055"><ele>214.0</ele><time>2026-04-06T13:19:01Z</time></trkpt><trkpt lat="45.44737438635373" lon="8.134089168688568"><ele>214.0</ele><time>2026-04-06T13:19:02Z</time></trkpt><trkpt lat="45.44741467402098" lon="8.133779057565526"><ele>214.0</ele><time>2026-04-06T13:19:03Z</time></trkpt><trkpt lat="45.44747241144004" lon="8.133471893087073"><ele>214.0</ele><time>2026-04-06T13:19:04Z</time></trkpt><trkpt lat="45.447498972689324" lon="8.133161728003607"><ele>214.0</ele><time>2026-04-06T13:19:05Z</time></trkpt><trkpt lat="45.44753992377285" lon="8.132855755881334"><ele>214.0</ele><time>2026-04-06T13:19:06Z</time></trkpt><trkpt lat="45.447581120843985" lon="8.132549792373585"><ele>214.0</ele><time>2026-04-06T13:19:07Z</time></trkpt><trkpt lat="45.44762537186321" lon="8.132236995181936"><ele>214.66666666666666</ele><time>2026-04-06T13:19:08Z</time></trkpt><trkpt lat="45.44766962060061" lon="8.131925086345259"><ele>215.33333333333331</ele><time>2026-04-06T13:19:09Z</time></trkpt><trkpt lat="45.44771246607443" lon="8.131612015555135"><ele>216.0</ele><time>2026-04-06T13:19:10Z</time></trkpt><trkpt lat="45.447753812310594" lon="8.131294052145346"><ele>216.5</ele><time>2026-04-06T13:19:11Z</time></trkpt><trkpt lat="45.44779634508915" lon="8.130970626816875"><ele>217.0</ele><time>2026-04-06T13:19:12Z</time></trkpt><trkpt lat="45.4478389578259" lon="8.130650958874487"><ele>217.0</ele><time>2026-04-06T13:19:13Z</time></trkpt><trkpt lat="45.4478821711745" lon="8.13033923700388"><ele>217.0</ele><time>2026-04-06T13:19:14Z</time></trkpt><trkpt lat="45.44792610181858" lon="8.130027436166706"><ele>217.0</ele><time>2026-04-06T13:19:15Z</time></trkpt><trkpt lat="45.44796716836893" lon="8.129712427039955"><ele>216.66666666666666</ele><time>2026-04-06T13:19:16Z</time></trkpt><trkpt lat="45.448009281023694" lon="8.129397693698104"><ele>216.33333333333331</ele><time>2026-04-06T13:19:17Z</time></trkpt><trkpt lat="45.44805233504835" lon="8.12908782487318"><ele>216.0</ele><time>2026-04-06T13:19:18Z</time></trkpt><trkpt lat="45.44809480862918" lon="8.12877419828978"><ele>216.0</ele><time>2026-04-06T13:19:19Z</time></trkpt><trkpt lat="45.448138579398595" lon="8.128456364756351"><ele>216.0</ele><time>2026-04-06T13:19:20Z</time></trkpt><trkpt lat="45.44818189590439" lon="8.128140832620346"><ele>216.66666666666669</ele><time>2026-04-06T13:19:21Z</time></trkpt><trkpt lat="45.44822354502116" lon="8.127832764169453"><ele>217.33333333333334</ele><time>2026-04-06T13:19:22Z</time></trkpt><trkpt lat="45.44826481840445" lon="8.127517631816872"><ele>218.0</ele><time>2026-04-06T13:19:23Z</time></trkpt><trkpt lat="45.44831178253785" lon="8.12720267977997"><ele>218.0</ele><time>2026-04-06T13:19:24Z</time></trkpt><trkpt lat="45.448353377426514" lon="8.126892490148238"><ele>218.0</ele><time>2026-04-06T13:19:25Z</time></trkpt><trkpt lat="45.448397378635526" lon="8.126579765839619"><ele>218.0</ele><time>2026-04-06T13:19:26Z</time></trkpt><trkpt lat="45.44843866140371" lon="8.126272144450429"><ele>218.33333333333334</ele><time>2026-04-06T13:19:27Z</time></trkpt><trkpt lat="45.44847876895302" lon="8.125970516336968"><ele>218.66666666666669</ele><time>2026-04-06T13:19:28Z</time></trkpt><trkpt lat="45.448520452364924" lon="8.125661899669373"><ele>219.0</ele><time>2026-04-06T13:19:29Z</time></trkpt><trkpt lat="45.44856121897443" lon="8.125351189002291"><ele>219.33333333333331</ele><time>2026-04-06T13:19:30Z</time></trkpt><trkpt lat="45.44860257682688" lon="8.125044142745066"><ele>219.66666666666666</ele><time>2026-04-06T13:19:31Z</time></trkpt><trkpt lat="45.448641130181436" lon="8.124748492060714"><ele>220.0</ele><time>2026-04-06T13:19:32Z</time></trkpt><trkpt lat="45.44867691740222" lon="8.124469603001094"><ele>220.0</ele><time>2026-04-06T13:19:33Z</time></trkpt><trkpt lat="45.44871013496268" lon="8.124201281294084"><ele>220.0</ele><time>2026-04-06T13:19:34Z</time></trkpt><trkpt lat="45.448744305427844" lon="8.12394563307176"><ele>220.0</ele><time>2026-04-06T13:19:35Z</time></trkpt><trkpt lat="45.4487811392376" lon="8.123693820855182"><ele>220.33333333333331</ele><time>2026-04-06T13:19:36Z</time></trkpt><trkpt lat="45.44881939034143" lon="8.123433282102539"><ele>220.66666666666669</ele><time>2026-04-06T13:19:37Z</time></trkpt><trkpt lat="45.44885802081995" lon="8.123164977388255"><ele>221.0</ele><time>2026-04-06T13:19:38Z</time></trkpt><trkpt lat="45.448895462683964" lon="8.122893148882818"><ele>221.0</ele><time>2026-04-06T13:19:39Z</time></trkpt><trkpt lat="45.4489299786156" lon="8.122610416504974"><ele>221.0</ele><time>2026-04-06T13:19:40Z</time></trkpt><trkpt lat="45.44896737575213" lon="8.122318658376225"><ele>221.0</ele><time>2026-04-06T13:19:41Z</time></trkpt><trkpt lat="45.44900271373323" lon="8.122023446889939"><ele>220.33333333333334</ele><time>2026-04-06T13:19:42Z</time></trkpt><trkpt lat="45.44903929038892" lon="8.12173417977767"><ele>219.66666666666669</ele><time>2026-04-06T13:19:43Z</time></trkpt><trkpt lat="45.44907770177124" lon="8.121454155973655"><ele>219.0</ele><time>2026-04-06T13:19:44Z</time></trkpt><trkpt lat="45.44911188122432" lon="8.121179643785421"><ele>218.66666666666669</ele><time>2026-04-06T13:19:45Z</time></trkpt><trkpt lat="45.44914496490064" lon="8.120911075497338"><ele>218.33333333333334</ele><time>2026-04-06T13:19:46Z</time></trkpt><trkpt lat="45.44918580629332" lon="8.120634700935577"><ele>218.0</ele><time>2026-04-06T13:19:47Z</time></trkpt><trkpt lat="45.4492299545968" lon="8.120352562264104"><ele>218.0</ele><time>2026-04-06T13:19:48Z</time></trkpt><trkpt lat="45.44927438781012" lon="8.120069144565498"><ele>218.0</ele><time>2026-04-06T13:19:49Z</time></trkpt><trkpt lat="45.449320867102436" lon="8.119790017300774"><ele>218.0</ele><time>2026-04-06T13:19:50Z</time></trkpt><trkpt lat="45.44937750337362" lon="8.119512093980223"><ele>218.0</ele><time>2026-04-06T13:19:51Z</time></trkpt><trkpt lat="45.449436226172644" lon="8.119231893638178"><ele>218.0</ele><time>2026-04-06T13:19:52Z</time></trkpt><trkpt lat="45.44950673502989" lon="8.118942998088222"><ele>218.0</ele><time>2026-04-06T13:19:53Z</time></trkpt><trkpt lat="45.44958464380481" lon="8.118646755218686"><ele>219.5</ele><time>2026-04-06T13:19:54Z</time></trkpt><trkpt lat="45.449661726718446" lon="8.118341848469884"><ele>221.0</ele><time>2026-04-06T13:19:55Z</time></trkpt><trkpt lat="45.44974352262535" lon="8.118023571128353"><ele>221.0</ele><time>2026-04-06T13:19:56Z</time></trkpt><trkpt lat="45.44982557872767" lon="8.11769860008308"><ele>221.0</ele><time>2026-04-06T13:19:57Z</time></trkpt><trkpt lat="45.44990216811122" lon="8.1173987285174"><ele>221.33333333333334</ele><time>2026-04-06T13:19:58Z</time></trkpt><trkpt lat="45.44996907464643" lon="8.117139343570896"><ele>221.66666666666669</ele><time>2026-04-06T13:19:58.999Z</time></trkpt><trkpt lat="45.45002937736311" lon="8.116912195318706"><ele>222.0</ele><time>2026-04-06T13:19:59.999Z</time></trkpt><trkpt lat="45.45008451113276" lon="8.116700552347856"><ele>222.25</ele><time>2026-04-06T13:20:00.999Z</time></trkpt><trkpt lat="45.45014081051364" lon="8.116504338844553"><ele>222.5</ele><time>2026-04-06T13:20:01.999Z</time></trkpt><trkpt lat="45.450202551058375" lon="8.116321894555904"><ele>222.75</ele><time>2026-04-06T13:20:02.999Z</time></trkpt><trkpt lat="45.450280327119216" lon="8.11617421754654"><ele>223.0</ele><time>2026-04-06T13:20:03.999Z</time></trkpt><trkpt lat="45.450372764581225" lon="8.116070530321183"><ele>223.4</ele><time>2026-04-06T13:20:04.999Z</time></trkpt><trkpt lat="45.4504707859768" lon="8.116007045135152"><ele>223.8</ele><time>2026-04-06T13:20:05.999Z</time></trkpt><trkpt lat="45.45058396791218" lon="8.11599696889746"><ele>224.2</ele><time>2026-04-06T13:20:06.999Z</time></trkpt><trkpt lat="45.45068843806567" lon="8.116008071083437"><ele>224.6</ele><time>2026-04-06T13:20:07.999Z</time></trkpt><trkpt lat="45.45076998517057" lon="8.116018648573181"><ele>225.0</ele><time>2026-04-06T13:20:08.999Z</time></trkpt><trkpt lat="45.450840702472256" lon="8.116007102701612"><ele>225.0</ele><time>2026-04-06T13:20:09.999Z</time></trkpt><trkpt lat="45.45091815086654" lon="8.115880556928877"><ele>225.0</ele><time>2026-04-06T13:20:11.999Z</time></trkpt><trkpt lat="45.450921676935" lon="8.115790434809817"><ele>225.0</ele><time>2026-04-06T13:20:12.999Z</time></trkpt><trkpt lat="45.45091604054181" lon="8.11569253245951"><ele>225.0</ele><time>2026-04-06T13:20:13.999Z</time></trkpt><trkpt lat="45.4509166798621" lon="8.115576512023782"><ele>225.0</ele><time>2026-04-06T13:20:14.999Z</time></trkpt><trkpt lat="45.4509279061545" lon="8.115439227950832"><ele>225.0</ele><time>2026-04-06T13:20:15.999Z</time></trkpt><trkpt lat="45.450915876794966" lon="8.115263759799209"><ele>225.33333333333331</ele><time>2026-04-06T13:20:16.999Z</time></trkpt><trkpt lat="45.45090363766241" lon="8.115048440038603"><ele>225.66666666666666</ele><time>2026-04-06T13:20:17.999Z</time></trkpt><trkpt lat="45.45089808316552" lon="8.114831092953118"><ele>226.0</ele><time>2026-04-06T13:20:18.999Z</time></trkpt><trkpt lat="45.45089188059836" lon="8.114610322045651"><ele>225.66666666666666</ele><time>2026-04-06T13:20:19.999Z</time></trkpt><trkpt lat="45.45088763955111" lon="8.11438494420087"><ele>225.33333333333331</ele><time>2026-04-06T13:20:20.999Z</time></trkpt><trkpt lat="45.45088476344594" lon="8.114155349157295"><ele>225.0</ele><time>2026-04-06T13:20:21.999Z</time></trkpt><trkpt lat="45.450881437067956" lon="8.1139322823923"><ele>225.0</ele><time>2026-04-06T13:20:22.999Z</time></trkpt><trkpt lat="45.45088323296232" lon="8.113728552214669"><ele>225.0</ele><time>2026-04-06T13:20:23.999Z</time></trkpt><trkpt lat="45.45089846769461" lon="8.113538474249411"><ele>225.0</ele><time>2026-04-06T13:20:24.999Z</time></trkpt><trkpt lat="45.450925490268574" lon="8.113364776278965"><ele>225.0</ele><time>2026-04-06T13:20:25.999Z</time></trkpt><trkpt lat="45.450953166362105" lon="8.113206372909149"><ele>225.0</ele><time>2026-04-06T13:20:26.999Z</time></trkpt><trkpt lat="45.45098193726651" lon="8.113055766486635"><ele>225.0</ele><time>2026-04-06T13:20:27.999Z</time></trkpt><trkpt lat="45.45101077674489" lon="8.112928057953892"><ele>225.0</ele><time>2026-04-06T13:20:28.999Z</time></trkpt><trkpt lat="45.451032962853766" lon="8.112836604599762"><ele>225.0</ele><time>2026-04-06T13:20:29.999Z</time></trkpt><trkpt lat="45.451058352001255" lon="8.112743559850928"><ele>225.0</ele><time>2026-04-06T13:20:31.999Z</time></trkpt><trkpt lat="45.451113312363496" lon="8.112613718886733"><ele>225.0</ele><time>2026-04-06T13:20:34.999Z</time></trkpt><trkpt lat="45.45113944630902" lon="8.112466867966125"><ele>225.0</ele><time>2026-04-06T13:20:36.999Z</time></trkpt><trkpt lat="45.451038576143084" lon="8.11237913825928"><ele>225.0</ele><time>2026-04-06T13:20:38.999Z</time></trkpt><trkpt lat="45.45094953185425" lon="8.112391655101575"><ele>225.0</ele><time>2026-04-06T13:20:39.999Z</time></trkpt><trkpt lat="45.45084448530093" lon="8.112433958866884"><ele>225.0</ele><time>2026-04-06T13:20:40.999Z</time></trkpt><trkpt lat="45.45073141205011" lon="8.112478319229709"><ele>225.0</ele><time>2026-04-06T13:20:41.999Z</time></trkpt><trkpt lat="45.450599915210375" lon="8.112523416181093"><ele>225.0</ele><time>2026-04-06T13:20:42.999Z</time></trkpt><trkpt lat="45.450449162093676" lon="8.112568635590462"><ele>225.0</ele><time>2026-04-06T13:20:43.999Z</time></trkpt><trkpt lat="45.45028681087148" lon="8.112604266688603"><ele>225.0</ele><time>2026-04-06T13:20:44.999Z</time></trkpt><trkpt lat="45.45010850437726" lon="8.11263417872598"><ele>225.0</ele><time>2026-04-06T13:20:45.999Z</time></trkpt><trkpt lat="45.44992393881379" lon="8.112667679448384"><ele>225.0</ele><time>2026-04-06T13:20:46.999Z</time></trkpt><trkpt lat="45.44973671612163" lon="8.112708599592079"><ele>225.0</ele><time>2026-04-06T13:20:47.999Z</time></trkpt><trkpt lat="45.44955072264629" lon="8.112746616116413"><ele>228.66666666666669</ele><time>2026-04-06T13:20:48.999Z</time></trkpt><trkpt lat="45.4493730020418" lon="8.112780414226174"><ele>232.33333333333334</ele><time>2026-04-06T13:20:49.999Z</time></trkpt><trkpt lat="45.449195839318534" lon="8.112811687111442"><ele>236.0</ele><time>2026-04-06T13:20:50.999Z</time></trkpt><trkpt lat="45.44900846147171" lon="8.11284324338525"><ele>236.0</ele><time>2026-04-06T13:20:51.999Z</time></trkpt><trkpt lat="45.44882319204629" lon="8.112873822584987"><ele>236.0</ele><time>2026-04-06T13:20:52.999Z</time></trkpt><trkpt lat="45.448655008289855" lon="8.112902237301448"><ele>236.0</ele><time>2026-04-06T13:20:54Z</time></trkpt><trkpt lat="45.448483105578845" lon="8.112920223229153"><ele>240.33333333333334</ele><time>2026-04-06T13:20:55Z</time></trkpt><trkpt lat="45.44830357145871" lon="8.112926302463405"><ele>244.66666666666669</ele><time>2026-04-06T13:20:56Z</time></trkpt><trkpt lat="45.448117402782195" lon="8.11291801010813"><ele>249.0</ele><time>2026-04-06T13:20:57Z</time></trkpt><trkpt lat="45.44792580340711" lon="8.112886197133577"><ele>249.0</ele><time>2026-04-06T13:20:58Z</time></trkpt><trkpt lat="45.44773285060209" lon="8.112826248454"><ele>249.0</ele><time>2026-04-06T13:20:59Z</time></trkpt><trkpt lat="45.44755093413718" lon="8.112755377788252"><ele>249.0</ele><time>2026-04-06T13:21:00Z</time></trkpt><trkpt lat="45.447378924853524" lon="8.112673698230724"><ele>249.0</ele><time>2026-04-06T13:21:01Z</time></trkpt><trkpt lat="45.447206880821845" lon="8.11258744230618"><ele>249.0</ele><time>2026-04-06T13:21:02Z</time></trkpt><trkpt lat="45.44702772038715" lon="8.112505833665479"><ele>249.0</ele><time>2026-04-06T13:21:03Z</time></trkpt><trkpt lat="45.446850295325845" lon="8.112433752404572"><ele>250.33333333333331</ele><time>2026-04-06T13:21:04Z</time></trkpt><trkpt lat="45.446669724138836" lon="8.112414701343933"><ele>251.66666666666666</ele><time>2026-04-06T13:21:05Z</time></trkpt><trkpt lat="45.44649159426781" lon="8.112394584552531"><ele>253.0</ele><time>2026-04-06T13:21:06Z</time></trkpt><trkpt lat="45.446314502407205" lon="8.112383559619188"><ele>249.0</ele><time>2026-04-06T13:21:07Z</time></trkpt><trkpt lat="45.446135227103284" lon="8.112376686812748"><ele>245.0</ele><time>2026-04-06T13:21:08Z</time></trkpt><trkpt lat="45.44595636582258" lon="8.112372331570333"><ele>241.0</ele><time>2026-04-06T13:21:09Z</time></trkpt><trkpt lat="45.44577000606839" lon="8.112366092165944"><ele>241.0</ele><time>2026-04-06T13:21:10Z</time></trkpt><trkpt lat="45.445576599380225" lon="8.11235885983308"><ele>241.0</ele><time>2026-04-06T13:21:11Z</time></trkpt><trkpt lat="45.44538136150434" lon="8.112353224623634"><ele>241.0</ele><time>2026-04-06T13:21:12Z</time></trkpt><trkpt lat="45.445193467979706" lon="8.11234936339767"><ele>243.66666666666666</ele><time>2026-04-06T13:21:13Z</time></trkpt><trkpt lat="45.44502122368046" lon="8.112345538147792"><ele>246.33333333333331</ele><time>2026-04-06T13:21:14Z</time></trkpt><trkpt lat="45.44485936817883" lon="8.11234279858185"><ele>249.0</ele><time>2026-04-06T13:21:15Z</time></trkpt><trkpt lat="45.44468954411062" lon="8.112336682332307"><ele>251.0</ele><time>2026-04-06T13:21:16Z</time></trkpt><trkpt lat="45.44451356027303" lon="8.112332958259417"><ele>253.0</ele><time>2026-04-06T13:21:17Z</time></trkpt><trkpt lat="45.44433453488333" lon="8.112331016585047"><ele>255.0</ele><time>2026-04-06T13:21:18Z</time></trkpt><trkpt lat="45.44415199785249" lon="8.112329244872258"><ele>255.0</ele><time>2026-04-06T13:21:19Z</time></trkpt><trkpt lat="45.44396384457485" lon="8.112327105713835"><ele>255.0</ele><time>2026-04-06T13:21:20Z</time></trkpt><trkpt lat="45.443773131471126" lon="8.11232388609073"><ele>255.0</ele><time>2026-04-06T13:21:21Z</time></trkpt><trkpt lat="45.443577899871364" lon="8.112320730384617"><ele>253.33333333333331</ele><time>2026-04-06T13:21:22Z</time></trkpt><trkpt lat="45.443381618825974" lon="8.112314957363889"><ele>251.66666666666666</ele><time>2026-04-06T13:21:23Z</time></trkpt><trkpt lat="45.44320189595639" lon="8.112310313325498"><ele>250.0</ele><time>2026-04-06T13:21:24Z</time></trkpt><trkpt lat="45.44304840036893" lon="8.112306900053893"><ele>252.0</ele><time>2026-04-06T13:21:25Z</time></trkpt><trkpt lat="45.44289494822027" lon="8.112303067428916"><ele>254.0</ele><time>2026-04-06T13:21:26Z</time></trkpt><trkpt lat="45.44273925081271" lon="8.112299183299609"><ele>256.0</ele><time>2026-04-06T13:21:27Z</time></trkpt><trkpt lat="45.44257730008955" lon="8.112293678339721"><ele>256.0</ele><time>2026-04-06T13:21:28Z</time></trkpt><trkpt lat="45.442408182086304" lon="8.112287521465934"><ele>256.0</ele><time>2026-04-06T13:21:29Z</time></trkpt><trkpt lat="45.442234091265796" lon="8.112278242157675"><ele>256.0</ele><time>2026-04-06T13:21:30Z</time></trkpt><trkpt lat="45.44205389014206" lon="8.112270087136483"><ele>256.66666666666663</ele><time>2026-04-06T13:21:31Z</time></trkpt><trkpt lat="45.441868333536796" lon="8.112263360950461"><ele>257.3333333333333</ele><time>2026-04-06T13:21:32Z</time></trkpt><trkpt lat="45.44167939376136" lon="8.11225965038549"><ele>258.0</ele><time>2026-04-06T13:21:33Z</time></trkpt><trkpt lat="45.44148456813245" lon="8.11225711010564"><ele>259.0</ele><time>2026-04-06T13:21:34Z</time></trkpt><trkpt lat="45.441288089763425" lon="8.112253556805578"><ele>260.0</ele><time>2026-04-06T13:21:35Z</time></trkpt><trkpt lat="45.441091511199204" lon="8.112246869433879"><ele>261.0</ele><time>2026-04-06T13:21:36Z</time></trkpt><trkpt lat="45.440892702703785" lon="8.112240836861032"><ele>261.0</ele><time>2026-04-06T13:21:37Z</time></trkpt><trkpt lat="45.44069611019416" lon="8.11223697856363"><ele>261.0</ele><time>2026-04-06T13:21:38Z</time></trkpt><trkpt lat="45.440499453050016" lon="8.112226887113664"><ele>261.0</ele><time>2026-04-06T13:21:39Z</time></trkpt><trkpt lat="45.440301096414494" lon="8.112216959048796"><ele>260.6666666666667</ele><time>2026-04-06T13:21:40Z</time></trkpt><trkpt lat="45.44010589442889" lon="8.112209681492006"><ele>260.33333333333337</ele><time>2026-04-06T13:21:41Z</time></trkpt><trkpt lat="45.43991404051721" lon="8.112204819915366"><ele>260.0</ele><time>2026-04-06T13:21:42Z</time></trkpt><trkpt lat="45.43972738431478" lon="8.112199082351644"><ele>260.6666666666667</ele><time>2026-04-06T13:21:43Z</time></trkpt><trkpt lat="45.439547534753544" lon="8.112190273489823"><ele>261.3333333333333</ele><time>2026-04-06T13:21:44Z</time></trkpt><trkpt lat="45.439366150905336" lon="8.112183484050414"><ele>262.0</ele><time>2026-04-06T13:21:45Z</time></trkpt><trkpt lat="45.43917790540036" lon="8.112177496205168"><ele>262.0</ele><time>2026-04-06T13:21:46Z</time></trkpt><trkpt lat="45.43898852456423" lon="8.11217442523251"><ele>262.0</ele><time>2026-04-06T13:21:47Z</time></trkpt><trkpt lat="45.43879504367176" lon="8.112170675090594"><ele>262.0</ele><time>2026-04-06T13:21:48Z</time></trkpt><trkpt lat="45.43859776024059" lon="8.11216708360645"><ele>262.0</ele><time>2026-04-06T13:21:49Z</time></trkpt><trkpt lat="45.4384050009179" lon="8.112162664759666"><ele>262.0</ele><time>2026-04-06T13:21:50Z</time></trkpt><trkpt lat="45.438219939808185" lon="8.1121561727177"><ele>262.0</ele><time>2026-04-06T13:21:51Z</time></trkpt><trkpt lat="45.438035028645565" lon="8.112150893625852"><ele>261.3333333333333</ele><time>2026-04-06T13:21:52Z</time></trkpt><trkpt lat="45.43784628935119" lon="8.112143236387386"><ele>260.6666666666667</ele><time>2026-04-06T13:21:53Z</time></trkpt><trkpt lat="45.43765700340906" lon="8.11213449553905"><ele>260.0</ele><time>2026-04-06T13:21:54Z</time></trkpt><trkpt lat="45.43746558768075" lon="8.112130029295042"><ele>260.0</ele><time>2026-04-06T13:21:55Z</time></trkpt><trkpt lat="45.43726813997893" lon="8.11212625277235"><ele>260.0</ele><time>2026-04-06T13:21:56Z</time></trkpt><trkpt lat="45.43707109192421" lon="8.112118886453082"><ele>260.0</ele><time>2026-04-06T13:21:57Z</time></trkpt><trkpt lat="45.43687163506169" lon="8.112113368991535"><ele>258.6666666666667</ele><time>2026-04-06T13:21:58Z</time></trkpt><trkpt lat="45.43666788969266" lon="8.112105723107934"><ele>257.3333333333333</ele><time>2026-04-06T13:21:59Z</time></trkpt><trkpt lat="45.43646288590001" lon="8.112100150651054"><ele>256.0</ele><time>2026-04-06T13:22:00Z</time></trkpt><trkpt lat="45.436258576182155" lon="8.112095401481728"><ele>255.33333333333331</ele><time>2026-04-06T13:22:01Z</time></trkpt><trkpt lat="45.43605315553911" lon="8.11209020696341"><ele>254.66666666666669</ele><time>2026-04-06T13:22:01.999Z</time></trkpt><trkpt lat="45.435844594759956" lon="8.112083351870012"><ele>254.0</ele><time>2026-04-06T13:22:02.999Z</time></trkpt><trkpt lat="45.435634309739136" lon="8.11207923069325"><ele>254.0</ele><time>2026-04-06T13:22:03.999Z</time></trkpt><trkpt lat="45.43542055214017" lon="8.112075517538878"><ele>254.0</ele><time>2026-04-06T13:22:04.999Z</time></trkpt><trkpt lat="45.435209460805815" lon="8.112071368603715"><ele>254.0</ele><time>2026-04-06T13:22:05.999Z</time></trkpt><trkpt lat="45.434999367195076" lon="8.112066531111207"><ele>254.0</ele><time>2026-04-06T13:22:06.999Z</time></trkpt><trkpt lat="45.43479084496467" lon="8.112061697801911"><ele>254.0</ele><time>2026-04-06T13:22:07.999Z</time></trkpt><trkpt lat="45.43458517937362" lon="8.112056939607866"><ele>254.0</ele><time>2026-04-06T13:22:08.999Z</time></trkpt><trkpt lat="45.43438598995852" lon="8.112051136264638"><ele>255.0</ele><time>2026-04-06T13:22:09.999Z</time></trkpt><trkpt lat="45.4341946270566" lon="8.11204338774611"><ele>256.0</ele><time>2026-04-06T13:22:10.999Z</time></trkpt><trkpt lat="45.43401136436052" lon="8.112038531483648"><ele>257.0</ele><time>2026-04-06T13:22:11.999Z</time></trkpt><trkpt lat="45.433828875747295" lon="8.112032518836367"><ele>257.0</ele><time>2026-04-06T13:22:12.999Z</time></trkpt><trkpt lat="45.43364360151233" lon="8.112025019668263"><ele>257.0</ele><time>2026-04-06T13:22:13.999Z</time></trkpt><trkpt lat="45.43345202458872" lon="8.11201785473519"><ele>257.0</ele><time>2026-04-06T13:22:14.999Z</time></trkpt><trkpt lat="45.4332571945314" lon="8.11201173968179"><ele>257.0</ele><time>2026-04-06T13:22:15.999Z</time></trkpt><trkpt lat="45.43305753882134" lon="8.112005572476477"><ele>257.0</ele><time>2026-04-06T13:22:16.999Z</time></trkpt><trkpt lat="45.43285294426524" lon="8.112002176966161"><ele>257.0</ele><time>2026-04-06T13:22:17.999Z</time></trkpt><trkpt lat="45.43264591573722" lon="8.111998355229423"><ele>257.6666666666667</ele><time>2026-04-06T13:22:18.999Z</time></trkpt><trkpt lat="45.4324378540823" lon="8.111995102005624"><ele>258.3333333333333</ele><time>2026-04-06T13:22:19.999Z</time></trkpt><trkpt lat="45.43222796564534" lon="8.111991446527286"><ele>259.0</ele><time>2026-04-06T13:22:20.999Z</time></trkpt><trkpt lat="45.432019144218735" lon="8.111986597040067"><ele>259.66666666666663</ele><time>2026-04-06T13:22:21.999Z</time></trkpt><trkpt lat="45.43181329571403" lon="8.111979619602977"><ele>260.3333333333333</ele><time>2026-04-06T13:22:22.999Z</time></trkpt><trkpt lat="45.43161390121044" lon="8.111975529407928"><ele>261.0</ele><time>2026-04-06T13:22:23.999Z</time></trkpt><trkpt lat="45.431418950012386" lon="8.111969549698502"><ele>261.6666666666667</ele><time>2026-04-06T13:22:24.999Z</time></trkpt><trkpt lat="45.43122104552031" lon="8.11196381989097"><ele>262.33333333333337</ele><time>2026-04-06T13:22:25.999Z</time></trkpt><trkpt lat="45.43102484664391" lon="8.111959079312886"><ele>263.0</ele><time>2026-04-06T13:22:26.999Z</time></trkpt><trkpt lat="45.43083165347756" lon="8.111954486552326"><ele>263.0</ele><time>2026-04-06T13:22:27.999Z</time></trkpt><trkpt lat="45.43063485568968" lon="8.11194870430564"><ele>263.0</ele><time>2026-04-06T13:22:28.999Z</time></trkpt><trkpt lat="45.43043611677977" lon="8.11194201042704"><ele>263.0</ele><time>2026-04-06T13:22:29.999Z</time></trkpt><trkpt lat="45.4302375245888" lon="8.111930838019004"><ele>266.0</ele><time>2026-04-06T13:22:30.999Z</time></trkpt><trkpt lat="45.43003602381418" lon="8.111913222319718"><ele>269.0</ele><time>2026-04-06T13:22:31.999Z</time></trkpt><trkpt lat="45.42984431732354" lon="8.111886597031663"><ele>272.0</ele><time>2026-04-06T13:22:32.999Z</time></trkpt><trkpt lat="45.42966087365278" lon="8.111850555994536"><ele>273.0</ele><time>2026-04-06T13:22:33.999Z</time></trkpt><trkpt lat="45.42948362370462" lon="8.111810272731333"><ele>274.0</ele><time>2026-04-06T13:22:34.999Z</time></trkpt><trkpt lat="45.42930685118766" lon="8.111752739968642"><ele>275.0</ele><time>2026-04-06T13:22:35.999Z</time></trkpt><trkpt lat="45.42913792537745" lon="8.111687181556546"><ele>275.0</ele><time>2026-04-06T13:22:36.999Z</time></trkpt><trkpt lat="45.428977345982105" lon="8.111592228917283"><ele>275.0</ele><time>2026-04-06T13:22:37.999Z</time></trkpt><trkpt lat="45.42883114755" lon="8.111486484172945"><ele>275.0</ele><time>2026-04-06T13:22:38.999Z</time></trkpt><trkpt lat="45.42869429897959" lon="8.111366251935861"><ele>278.33333333333337</ele><time>2026-04-06T13:22:39.999Z</time></trkpt><trkpt lat="45.42855501686018" lon="8.111233056890503"><ele>281.6666666666667</ele><time>2026-04-06T13:22:40.999Z</time></trkpt><trkpt lat="45.428414328496146" lon="8.111083255965593"><ele>285.0</ele><time>2026-04-06T13:22:41.999Z</time></trkpt><trkpt lat="45.42827819283081" lon="8.110925709437241"><ele>285.0</ele><time>2026-04-06T13:22:42.999Z</time></trkpt><trkpt lat="45.42815092781248" lon="8.110754643842794"><ele>285.0</ele><time>2026-04-06T13:22:43.999Z</time></trkpt><trkpt lat="45.42802956616598" lon="8.11058871016268"><ele>285.0</ele><time>2026-04-06T13:22:44.999Z</time></trkpt><trkpt lat="45.42790991665723" lon="8.110423461515767"><ele>286.3333333333333</ele><time>2026-04-06T13:22:45.999Z</time></trkpt><trkpt lat="45.427783396220526" lon="8.110261673871584"><ele>287.66666666666663</ele><time>2026-04-06T13:22:46.999Z</time></trkpt><trkpt lat="45.427652510250546" lon="8.110095517776838"><ele>289.0</ele><time>2026-04-06T13:22:47.999Z</time></trkpt><trkpt lat="45.427518074645896" lon="8.109923363107916"><ele>289.0</ele><time>2026-04-06T13:22:48.999Z</time></trkpt><trkpt lat="45.427381615018284" lon="8.109746920050483"><ele>289.0</ele><time>2026-04-06T13:22:49.999Z</time></trkpt><trkpt lat="45.427241002735755" lon="8.109568774293637"><ele>289.0</ele><time>2026-04-06T13:22:50.999Z</time></trkpt><trkpt lat="45.42711027444725" lon="8.109366189816178"><ele>288.0</ele><time>2026-04-06T13:22:51.999Z</time></trkpt><trkpt lat="45.42696720995835" lon="8.109169240983034"><ele>287.0</ele><time>2026-04-06T13:22:52.999Z</time></trkpt><trkpt lat="45.426820858873505" lon="8.108963978119801"><ele>286.0</ele><time>2026-04-06T13:22:53.999Z</time></trkpt><trkpt lat="45.42666201880313" lon="8.10876161565963"><ele>286.0</ele><time>2026-04-06T13:22:54.999Z</time></trkpt><trkpt lat="45.42653466042126" lon="8.108521768159996"><ele>286.0</ele><time>2026-04-06T13:22:55.999Z</time></trkpt><trkpt lat="45.42641833732364" lon="8.108273655552502"><ele>286.0</ele><time>2026-04-06T13:22:56.999Z</time></trkpt><trkpt lat="45.42631285212036" lon="8.108010891736663"><ele>287.0</ele><time>2026-04-06T13:22:57.999Z</time></trkpt><trkpt lat="45.42622080749057" lon="8.10773540197995"><ele>288.0</ele><time>2026-04-06T13:22:58.999Z</time></trkpt><trkpt lat="45.426137527363174" lon="8.107462777284569"><ele>289.0</ele><time>2026-04-06T13:23:00Z</time></trkpt><trkpt lat="45.42605788455266" lon="8.10719799702733"><ele>289.3333333333333</ele><time>2026-04-06T13:23:01Z</time></trkpt><trkpt lat="45.42598109664385" lon="8.106940128241742"><ele>289.6666666666667</ele><time>2026-04-06T13:23:02Z</time></trkpt><trkpt lat="45.42590909290368" lon="8.10669954003158"><ele>290.0</ele><time>2026-04-06T13:23:03Z</time></trkpt><trkpt lat="45.42583555049982" lon="8.106460831692754"><ele>288.6666666666667</ele><time>2026-04-06T13:23:04Z</time></trkpt><trkpt lat="45.425757014627315" lon="8.106220844943419"><ele>287.3333333333333</ele><time>2026-04-06T13:23:05Z</time></trkpt><trkpt lat="45.42567183963998" lon="8.10598480401613"><ele>286.0</ele><time>2026-04-06T13:23:06Z</time></trkpt><trkpt lat="45.42557665909519" lon="8.10575226549405"><ele>286.3333333333333</ele><time>2026-04-06T13:23:07Z</time></trkpt><trkpt lat="45.425480309716455" lon="8.105522319281489"><ele>286.6666666666667</ele><time>2026-04-06T13:23:08Z</time></trkpt><trkpt lat="45.42538264865949" lon="8.105296485274673"><ele>287.0</ele><time>2026-04-06T13:23:09Z</time></trkpt><trkpt lat="45.42528013412642" lon="8.105068171499235"><ele>288.33333333333337</ele><time>2026-04-06T13:23:10Z</time></trkpt><trkpt lat="45.425176590569514" lon="8.104844966422739"><ele>289.6666666666667</ele><time>2026-04-06T13:23:11Z</time></trkpt><trkpt lat="45.425076182091985" lon="8.104625767851207"><ele>291.0</ele><time>2026-04-06T13:23:12Z</time></trkpt><trkpt lat="45.4249749492741" lon="8.104409938754065"><ele>291.0</ele><time>2026-04-06T13:23:13Z</time></trkpt><trkpt lat="45.42487841864529" lon="8.104204198458293"><ele>291.0</ele><time>2026-04-06T13:23:14Z</time></trkpt><trkpt lat="45.42478375593869" lon="8.10401060029406"><ele>291.0</ele><time>2026-04-06T13:23:15Z</time></trkpt><trkpt lat="45.42469161954875" lon="8.103818742061911"><ele>287.6666666666667</ele><time>2026-04-06T13:23:16Z</time></trkpt><trkpt lat="45.42460215490493" lon="8.103626573043094"><ele>284.33333333333337</ele><time>2026-04-06T13:23:17Z</time></trkpt><trkpt lat="45.424512986468905" lon="8.103427574368915"><ele>281.0</ele><time>2026-04-06T13:23:18Z</time></trkpt><trkpt lat="45.42442236804962" lon="8.103227422963466"><ele>280.33333333333337</ele><time>2026-04-06T13:23:19Z</time></trkpt><trkpt lat="45.424326334720575" lon="8.103022252475732"><ele>279.6666666666667</ele><time>2026-04-06T13:23:20Z</time></trkpt><trkpt lat="45.4242263759157" lon="8.102814951270323"><ele>279.0</ele><time>2026-04-06T13:23:21Z</time></trkpt><trkpt lat="45.424124904651265" lon="8.10260624931357"><ele>278.3333333333333</ele><time>2026-04-06T13:23:22Z</time></trkpt><trkpt lat="45.42402706065049" lon="8.102401761831125"><ele>277.66666666666663</ele><time>2026-04-06T13:23:23Z</time></trkpt><trkpt lat="45.423938090712966" lon="8.102203857180134"><ele>277.0</ele><time>2026-04-06T13:23:24Z</time></trkpt><trkpt lat="45.42384706771578" lon="8.102008485547012"><ele>278.3333333333333</ele><time>2026-04-06T13:23:25Z</time></trkpt><trkpt lat="45.42375814281614" lon="8.101819013824922"><ele>279.6666666666667</ele><time>2026-04-06T13:23:26Z</time></trkpt><trkpt lat="45.42367474123801" lon="8.101636101307319"><ele>281.0</ele><time>2026-04-06T13:23:27Z</time></trkpt><trkpt lat="45.4235874982673" lon="8.101450496177211"><ele>281.0</ele><time>2026-04-06T13:23:28Z</time></trkpt><trkpt lat="45.42349367051942" lon="8.101262448643997"><ele>281.0</ele><time>2026-04-06T13:23:29Z</time></trkpt><trkpt lat="45.42338865279316" lon="8.101074693456736"><ele>281.0</ele><time>2026-04-06T13:23:30Z</time></trkpt><trkpt lat="45.42327397438868" lon="8.100889977127533"><ele>280.6666666666667</ele><time>2026-04-06T13:23:31Z</time></trkpt><trkpt lat="45.42314829669335" lon="8.100709048957492"><ele>280.3333333333333</ele><time>2026-04-06T13:23:32Z</time></trkpt><trkpt lat="45.42301344409518" lon="8.10053713844474"><ele>280.0</ele><time>2026-04-06T13:23:33Z</time></trkpt><trkpt lat="45.42286787496429" lon="8.100378912523182"><ele>281.0</ele><time>2026-04-06T13:23:34Z</time></trkpt><trkpt lat="45.42272013433663" lon="8.100246360017264"><ele>282.0</ele><time>2026-04-06T13:23:35Z</time></trkpt><trkpt lat="45.42258159773453" lon="8.10013574697402"><ele>283.0</ele><time>2026-04-06T13:23:36Z</time></trkpt><trkpt lat="45.42244997101424" lon="8.100043066777971"><ele>283.0</ele><time>2026-04-06T13:23:37Z</time></trkpt><trkpt lat="45.42232105803157" lon="8.099968354955548"><ele>283.0</ele><time>2026-04-06T13:23:38Z</time></trkpt><trkpt lat="45.422192308603286" lon="8.099907007677535"><ele>283.0</ele><time>2026-04-06T13:23:39Z</time></trkpt><trkpt lat="45.422066585714" lon="8.099862011054356"><ele>283.0</ele><time>2026-04-06T13:23:40Z</time></trkpt><trkpt lat="45.421941325149966" lon="8.09982052184063"><ele>283.25</ele><time>2026-04-06T13:23:41Z</time></trkpt><trkpt lat="45.421817945311496" lon="8.099777892570057"><ele>283.5</ele><time>2026-04-06T13:23:42Z</time></trkpt><trkpt lat="45.42169658988669" lon="8.09973738997673"><ele>283.75</ele><time>2026-04-06T13:23:43Z</time></trkpt><trkpt lat="45.42158270309284" lon="8.099699664158154"><ele>284.0</ele><time>2026-04-06T13:23:44Z</time></trkpt><trkpt lat="45.421480565497376" lon="8.099666926176099"><ele>284.0</ele><time>2026-04-06T13:23:45Z</time></trkpt><trkpt lat="45.42138644385612" lon="8.099637637469476"><ele>284.0</ele><time>2026-04-06T13:23:46Z</time></trkpt><trkpt lat="45.42130431961054" lon="8.09961171249096"><ele>284.0</ele><time>2026-04-06T13:23:47Z</time></trkpt><trkpt lat="45.42124249521901" lon="8.09959125458251"><ele>284.0</ele><time>2026-04-06T13:23:48Z</time></trkpt><trkpt lat="45.42115624499241" lon="8.099538378691333"><ele>284.0</ele><time>2026-04-06T13:23:50Z</time></trkpt><trkpt lat="45.42109592498657" lon="8.099418367012289"><ele>284.0</ele><time>2026-04-06T13:23:52Z</time></trkpt><trkpt lat="45.42098525445063" lon="8.09934019303763"><ele>283.8</ele><time>2026-04-06T13:23:54Z</time></trkpt><trkpt lat="45.42091539729055" lon="8.099348115436813"><ele>283.59999999999997</ele><time>2026-04-06T13:23:55Z</time></trkpt><trkpt lat="45.420824980671945" lon="8.099401202591327"><ele>283.4</ele><time>2026-04-06T13:23:56Z</time></trkpt><trkpt lat="45.420728597911214" lon="8.099434345658413"><ele>283.2</ele><time>2026-04-06T13:23:57Z</time></trkpt><trkpt lat="45.420618467843255" lon="8.09942403119073"><ele>283.0</ele><time>2026-04-06T13:23:58Z</time></trkpt><trkpt lat="45.42049215437317" lon="8.099373791255884"><ele>282.75</ele><time>2026-04-06T13:23:59Z</time></trkpt><trkpt lat="45.4203765024769" lon="8.099330793178172"><ele>282.5</ele><time>2026-04-06T13:24:00Z</time></trkpt><trkpt lat="45.42026753785369" lon="8.099296229964846"><ele>282.25</ele><time>2026-04-06T13:24:01Z</time></trkpt><trkpt lat="45.42016332594454" lon="8.099266801492165"><ele>282.0</ele><time>2026-04-06T13:24:02Z</time></trkpt><trkpt lat="45.420048899151304" lon="8.09923324528738"><ele>282.0</ele><time>2026-04-06T13:24:03Z</time></trkpt><trkpt lat="45.4199213292786" lon="8.099196907395728"><ele>282.0</ele><time>2026-04-06T13:24:04Z</time></trkpt><trkpt lat="45.41979097435197" lon="8.09916278843411"><ele>282.0</ele><time>2026-04-06T13:24:05Z</time></trkpt><trkpt lat="45.41965059403274" lon="8.099126696944428"><ele>282.0</ele><time>2026-04-06T13:24:06Z</time></trkpt><trkpt lat="45.41948509159763" lon="8.09908586950879"><ele>282.6666666666667</ele><time>2026-04-06T13:24:07Z</time></trkpt><trkpt lat="45.419307027823685" lon="8.099038882851737"><ele>283.33333333333337</ele><time>2026-04-06T13:24:08Z</time></trkpt><trkpt lat="45.41913919922543" lon="8.098956776004943"><ele>284.0</ele><time>2026-04-06T13:24:09Z</time></trkpt><trkpt lat="45.41894691368708" lon="8.098897278863882"><ele>284.0</ele><time>2026-04-06T13:24:10Z</time></trkpt><trkpt lat="45.41874374244399" lon="8.098834413389977"><ele>284.0</ele><time>2026-04-06T13:24:10.999Z</time></trkpt><trkpt lat="45.41854679466071" lon="8.098794887499249"><ele>284.0</ele><time>2026-04-06T13:24:11.999Z</time></trkpt><trkpt lat="45.4183694888299" lon="8.098738441302128"><ele>284.0</ele><time>2026-04-06T13:24:12.999Z</time></trkpt><trkpt lat="45.41819980344408" lon="8.09868731703526"><ele>284.0</ele><time>2026-04-06T13:24:13.999Z</time></trkpt><trkpt lat="45.41802719927808" lon="8.098633308008136"><ele>284.0</ele><time>2026-04-06T13:24:14.999Z</time></trkpt><trkpt lat="45.41783562279432" lon="8.098574844329583"><ele>284.0</ele><time>2026-04-06T13:24:15.999Z</time></trkpt><trkpt lat="45.417644754892265" lon="8.098497142061136"><ele>284.0</ele><time>2026-04-06T13:24:16.999Z</time></trkpt><trkpt lat="45.41744569760527" lon="8.098435703898945"><ele>284.0</ele><time>2026-04-06T13:24:17.999Z</time></trkpt><trkpt lat="45.417237817377256" lon="8.098371149685077"><ele>283.6666666666667</ele><time>2026-04-06T13:24:18.999Z</time></trkpt><trkpt lat="45.41702067857174" lon="8.098327258418998"><ele>283.3333333333333</ele><time>2026-04-06T13:24:19.999Z</time></trkpt><trkpt lat="45.41680181887155" lon="8.098250369907783"><ele>283.0</ele><time>2026-04-06T13:24:20.999Z</time></trkpt><trkpt lat="45.41658118289406" lon="8.098172130294403"><ele>283.0</ele><time>2026-04-06T13:24:21.999Z</time></trkpt><trkpt lat="45.416362243113" lon="8.098101009621903"><ele>283.0</ele><time>2026-04-06T13:24:22.999Z</time></trkpt><trkpt lat="45.41615351887409" lon="8.098033331383006"><ele>283.0</ele><time>2026-04-06T13:24:23.999Z</time></trkpt><trkpt lat="45.415951252978864" lon="8.097968114644194"><ele>282.0</ele><time>2026-04-06T13:24:24.999Z</time></trkpt><trkpt lat="45.41575552353396" lon="8.097906377485868"><ele>281.0</ele><time>2026-04-06T13:24:25.999Z</time></trkpt><trkpt lat="45.41556233836079" lon="8.097843523825315"><ele>280.0</ele><time>2026-04-06T13:24:26.999Z</time></trkpt><trkpt lat="45.41536596597271" lon="8.097782289601314"><ele>279.66666666666663</ele><time>2026-04-06T13:24:27.999Z</time></trkpt><trkpt lat="45.41517523445065" lon="8.097722326672422"><ele>279.3333333333333</ele><time>2026-04-06T13:24:28.999Z</time></trkpt><trkpt lat="45.414988840724966" lon="8.097663355160229"><ele>279.0</ele><time>2026-04-06T13:24:29.999Z</time></trkpt><trkpt lat="45.41480596711739" lon="8.097610923143316"><ele>277.6666666666667</ele><time>2026-04-06T13:24:30.999Z</time></trkpt><trkpt lat="45.41462984834705" lon="8.097557250216843"><ele>276.33333333333337</ele><time>2026-04-06T13:24:31.999Z</time></trkpt><trkpt lat="45.41445146101101" lon="8.097500489909606"><ele>275.0</ele><time>2026-04-06T13:24:32.999Z</time></trkpt><trkpt lat="45.414266445143035" lon="8.097440907761438"><ele>275.6666666666667</ele><time>2026-04-06T13:24:33.999Z</time></trkpt><trkpt lat="45.41407735364917" lon="8.097382980913267"><ele>276.3333333333333</ele><time>2026-04-06T13:24:34.999Z</time></trkpt><trkpt lat="45.41389170931919" lon="8.09732640399961"><ele>277.0</ele><time>2026-04-06T13:24:35.999Z</time></trkpt><trkpt lat="45.413697654849976" lon="8.09726885428544"><ele>277.3333333333333</ele><time>2026-04-06T13:24:36.999Z</time></trkpt><trkpt lat="45.4134974497969" lon="8.097207928017855"><ele>277.6666666666667</ele><time>2026-04-06T13:24:37.999Z</time></trkpt><trkpt lat="45.413291899785065" lon="8.09714251325131"><ele>278.0</ele><time>2026-04-06T13:24:38.999Z</time></trkpt><trkpt lat="45.41308916624783" lon="8.097076135530235"><ele>277.6666666666667</ele><time>2026-04-06T13:24:39.999Z</time></trkpt><trkpt lat="45.41290195565881" lon="8.097013370678956"><ele>277.3333333333333</ele><time>2026-04-06T13:24:40.999Z</time></trkpt><trkpt lat="45.41271804382479" lon="8.096954657010995"><ele>277.0</ele><time>2026-04-06T13:24:41.999Z</time></trkpt><trkpt lat="45.412536025332194" lon="8.096895727666869"><ele>277.0</ele><time>2026-04-06T13:24:42.999Z</time></trkpt><trkpt lat="45.4123593350866" lon="8.096837519915093"><ele>277.0</ele><time>2026-04-06T13:24:43.999Z</time></trkpt><trkpt lat="45.41219647004617" lon="8.096785655228306"><ele>277.0</ele><time>2026-04-06T13:24:44.999Z</time></trkpt><trkpt lat="45.41206037372525" lon="8.0967405762747"><ele>276.5</ele><time>2026-04-06T13:24:45.999Z</time></trkpt><trkpt lat="45.411931724252725" lon="8.096699809252957"><ele>276.0</ele><time>2026-04-06T13:24:46.999Z</time></trkpt><trkpt lat="45.411807054207976" lon="8.096662188302677"><ele>275.5</ele><time>2026-04-06T13:24:47.999Z</time></trkpt><trkpt lat="45.411681998065276" lon="8.096624557029502"><ele>275.0</ele><time>2026-04-06T13:24:48.999Z</time></trkpt><trkpt lat="45.4115568414897" lon="8.09658800357684"><ele>274.75</ele><time>2026-04-06T13:24:49.999Z</time></trkpt><trkpt lat="45.41142805970985" lon="8.096548124541284"><ele>274.5</ele><time>2026-04-06T13:24:50.999Z</time></trkpt><trkpt lat="45.41129411609571" lon="8.096508499336368"><ele>274.25</ele><time>2026-04-06T13:24:51.999Z</time></trkpt><trkpt lat="45.4111574530284" lon="8.096465032807165"><ele>274.0</ele><time>2026-04-06T13:24:52.999Z</time></trkpt><trkpt lat="45.411008757915376" lon="8.096418772043458"><ele>274.0</ele><time>2026-04-06T13:24:53.999Z</time></trkpt><trkpt lat="45.410855124236846" lon="8.096372753499407"><ele>274.0</ele><time>2026-04-06T13:24:54.999Z</time></trkpt><trkpt lat="45.41070453342483" lon="8.096328556124806"><ele>274.0</ele><time>2026-04-06T13:24:55.999Z</time></trkpt><trkpt lat="45.41055206039657" lon="8.096283228849817"><ele>274.0</ele><time>2026-04-06T13:24:56.999Z</time></trkpt><trkpt lat="45.41040290543777" lon="8.096239276837045"><ele>274.0</ele><time>2026-04-06T13:24:57.999Z</time></trkpt><trkpt lat="45.41025472620516" lon="8.096196575645854"><ele>274.0</ele><time>2026-04-06T13:24:58.999Z</time></trkpt><trkpt lat="45.41011435121053" lon="8.096154503450673"><ele>274.0</ele><time>2026-04-06T13:24:59.999Z</time></trkpt><trkpt lat="45.409981343130966" lon="8.096108661394316"><ele>274.0</ele><time>2026-04-06T13:25:00.999Z</time></trkpt><trkpt lat="45.409855829746355" lon="8.096069038705933"><ele>274.0</ele><time>2026-04-06T13:25:01.999Z</time></trkpt><trkpt lat="45.40973753554128" lon="8.09603326519182"><ele>274.0</ele><time>2026-04-06T13:25:02.999Z</time></trkpt><trkpt lat="45.409633794880065" lon="8.096001178842036"><ele>274.0</ele><time>2026-04-06T13:25:03.999Z</time></trkpt><trkpt lat="45.40953962557285" lon="8.095971640180117"><ele>274.0</ele><time>2026-04-06T13:25:04.999Z</time></trkpt><trkpt lat="45.40944999665569" lon="8.095944508955922"><ele>274.0</ele><time>2026-04-06T13:25:06Z</time></trkpt><trkpt lat="45.40936605147894" lon="8.095917145704478"><ele>274.0</ele><time>2026-04-06T13:25:07Z</time></trkpt><trkpt lat="45.40929634256975" lon="8.095893098989757"><ele>274.0</ele><time>2026-04-06T13:25:08Z</time></trkpt><trkpt lat="45.40920281216767" lon="8.095842782469983"><ele>274.0</ele><time>2026-04-06T13:25:10Z</time></trkpt><trkpt lat="45.4091328657275" lon="8.095774550438662"><ele>274.0</ele><time>2026-04-06T13:25:12Z</time></trkpt><trkpt lat="45.409080109976905" lon="8.09571152630506"><ele>274.0</ele><time>2026-04-06T13:25:14Z</time></trkpt><trkpt lat="45.40900231487414" lon="8.0956219033396"><ele>274.0</ele><time>2026-04-06T13:25:16Z</time></trkpt><trkpt lat="45.408960683395854" lon="8.095543238190904"><ele>274.0</ele><time>2026-04-06T13:25:17Z</time></trkpt><trkpt lat="45.40890822047257" lon="8.095472752218713"><ele>274.0</ele><time>2026-04-06T13:25:18Z</time></trkpt><trkpt lat="45.4089013144261" lon="8.095358283515635"><ele>274.0</ele><time>2026-04-06T13:25:19Z</time></trkpt><trkpt lat="45.408880647702865" lon="8.095261226855165"><ele>274.0</ele><time>2026-04-06T13:25:20Z</time></trkpt><trkpt lat="45.4088528507268" lon="8.095149507782933"><ele>273.8</ele><time>2026-04-06T13:25:21Z</time></trkpt><trkpt lat="45.40881799719951" lon="8.09503497634128"><ele>273.59999999999997</ele><time>2026-04-06T13:25:22Z</time></trkpt><trkpt lat="45.408784500195004" lon="8.094920658137687"><ele>273.4</ele><time>2026-04-06T13:25:23Z</time></trkpt><trkpt lat="45.40875076964316" lon="8.094803910393608"><ele>273.2</ele><time>2026-04-06T13:25:24Z</time></trkpt><trkpt lat="45.40871436847249" lon="8.094680180151528"><ele>273.0</ele><time>2026-04-06T13:25:25Z</time></trkpt><trkpt lat="45.40867649252944" lon="8.094540690637455"><ele>273.0</ele><time>2026-04-06T13:25:26Z</time></trkpt><trkpt lat="45.40863148979282" lon="8.094393515346836"><ele>273.0</ele><time>2026-04-06T13:25:27Z</time></trkpt><trkpt lat="45.40858894282584" lon="8.094243231407079"><ele>273.0</ele><time>2026-04-06T13:25:28Z</time></trkpt><trkpt lat="45.408555094565095" lon="8.09409330617527"><ele>273.0</ele><time>2026-04-06T13:25:29Z</time></trkpt><trkpt lat="45.40853678688289" lon="8.093939630768014"><ele>273.0</ele><time>2026-04-06T13:25:30Z</time></trkpt><trkpt lat="45.408531705389166" lon="8.093783586445404"><ele>273.4</ele><time>2026-04-06T13:25:31Z</time></trkpt><trkpt lat="45.40853425378837" lon="8.093622430377712"><ele>273.8</ele><time>2026-04-06T13:25:32Z</time></trkpt><trkpt lat="45.40853485203751" lon="8.09345399018933"><ele>274.2</ele><time>2026-04-06T13:25:33Z</time></trkpt><trkpt lat="45.40853073194956" lon="8.093298174437175"><ele>274.6</ele><time>2026-04-06T13:25:34Z</time></trkpt><trkpt lat="45.408524954117574" lon="8.093155305248041"><ele>275.0</ele><time>2026-04-06T13:25:35Z</time></trkpt><trkpt lat="45.40851795183135" lon="8.093009636185384"><ele>275.0</ele><time>2026-04-06T13:25:36Z</time></trkpt><trkpt lat="45.40851130284577" lon="8.092871014232735"><ele>275.0</ele><time>2026-04-06T13:25:37Z</time></trkpt><trkpt lat="45.40851627330893" lon="8.092733832194682"><ele>275.0</ele><time>2026-04-06T13:25:38Z</time></trkpt><trkpt lat="45.408527344662794" lon="8.09258949715272"><ele>275.0</ele><time>2026-04-06T13:25:39Z</time></trkpt><trkpt lat="45.40854993862301" lon="8.092438835306123"><ele>275.0</ele><time>2026-04-06T13:25:40Z</time></trkpt><trkpt lat="45.40857963737372" lon="8.092297161391553"><ele>275.0</ele><time>2026-04-06T13:25:41Z</time></trkpt><trkpt lat="45.40860466838066" lon="8.09216402957459"><ele>275.0</ele><time>2026-04-06T13:25:42Z</time></trkpt><trkpt lat="45.40860321649478" lon="8.092037970720579"><ele>275.0</ele><time>2026-04-06T13:25:43Z</time></trkpt><trkpt lat="45.40856845465358" lon="8.091921267621585"><ele>275.0</ele><time>2026-04-06T13:25:44Z</time></trkpt><trkpt lat="45.40850028722379" lon="8.091839403008711"><ele>275.0</ele><time>2026-04-06T13:25:45Z</time></trkpt><trkpt lat="45.40841510931819" lon="8.091793519743836"><ele>275.0</ele><time>2026-04-06T13:25:46Z</time></trkpt><trkpt lat="45.40832190195262" lon="8.09176273519735"><ele>275.0</ele><time>2026-04-06T13:25:47Z</time></trkpt><trkpt lat="45.408229732339294" lon="8.091718010099358"><ele>275.0</ele><time>2026-04-06T13:25:48Z</time></trkpt><trkpt lat="45.40812199489639" lon="8.091654615081294"><ele>275.0</ele><time>2026-04-06T13:25:49Z</time></trkpt><trkpt lat="45.40800881108966" lon="8.091582152459733"><ele>275.0</ele><time>2026-04-06T13:25:50Z</time></trkpt><trkpt lat="45.407900438109195" lon="8.091524035293642"><ele>275.2</ele><time>2026-04-06T13:25:51Z</time></trkpt><trkpt lat="45.40780460990816" lon="8.091471304116883"><ele>275.4</ele><time>2026-04-06T13:25:52Z</time></trkpt><trkpt lat="45.40771320385785" lon="8.091421627588664"><ele>275.6</ele><time>2026-04-06T13:25:53Z</time></trkpt><trkpt lat="45.407623578550364" lon="8.091380012948004"><ele>275.8</ele><time>2026-04-06T13:25:54Z</time></trkpt><trkpt lat="45.407530825878986" lon="8.091337245360618"><ele>276.0</ele><time>2026-04-06T13:25:55Z</time></trkpt><trkpt lat="45.407436865302024" lon="8.091296888564669"><ele>276.0</ele><time>2026-04-06T13:25:56Z</time></trkpt><trkpt lat="45.40733360146565" lon="8.09125000090182"><ele>276.0</ele><time>2026-04-06T13:25:57Z</time></trkpt><trkpt lat="45.40723137110453" lon="8.091204442129971"><ele>276.0</ele><time>2026-04-06T13:25:58Z</time></trkpt><trkpt lat="45.407140086599156" lon="8.091163313975233"><ele>276.0</ele><time>2026-04-06T13:25:59Z</time></trkpt><trkpt lat="45.40705323393246" lon="8.091127434041725"><ele>276.0</ele><time>2026-04-06T13:26:00Z</time></trkpt><trkpt lat="45.406959124005624" lon="8.091100059132948"><ele>276.0</ele><time>2026-04-06T13:26:01Z</time></trkpt><trkpt lat="45.40686985174062" lon="8.091071346403782"><ele>276.0</ele><time>2026-04-06T13:26:02Z</time></trkpt><trkpt lat="45.40678900335188" lon="8.091042811587526"><ele>276.0</ele><time>2026-04-06T13:26:03Z</time></trkpt><trkpt lat="45.40671341695997" lon="8.091017920669229"><ele>276.0</ele><time>2026-04-06T13:26:04Z</time></trkpt><trkpt lat="45.40663966773286" lon="8.09099353215931"><ele>276.0</ele><time>2026-04-06T13:26:05Z</time></trkpt><trkpt lat="45.4065684620328" lon="8.090968816326837"><ele>276.0</ele><time>2026-04-06T13:26:06Z</time></trkpt><trkpt lat="45.406501193868266" lon="8.090942822297361"><ele>276.0</ele><time>2026-04-06T13:26:07Z</time></trkpt><trkpt lat="45.40643932170204" lon="8.090914958895281"><ele>276.0</ele><time>2026-04-06T13:26:08Z</time></trkpt><trkpt lat="45.40637617129169" lon="8.090896861947863"><ele>276.0</ele><time>2026-04-06T13:26:09Z</time></trkpt><trkpt lat="45.406315627342885" lon="8.090868054492308"><ele>276.0</ele><time>2026-04-06T13:26:10Z</time></trkpt><trkpt lat="45.406201252493744" lon="8.090829850983948"><ele>276.0</ele><time>2026-04-06T13:26:12Z</time></trkpt><trkpt lat="45.40613968978896" lon="8.090799177910485"><ele>276.0</ele><time>2026-04-06T13:26:13Z</time></trkpt><trkpt lat="45.406026158436404" lon="8.090753877743134"><ele>275.8</ele><time>2026-04-06T13:26:15Z</time></trkpt><trkpt lat="45.40591636361507" lon="8.090710168442435"><ele>275.6</ele><time>2026-04-06T13:26:17Z</time></trkpt><trkpt lat="45.405811380077175" lon="8.090655491515388"><ele>275.4</ele><time>2026-04-06T13:26:18.999Z</time></trkpt><trkpt lat="45.40571504737665" lon="8.090611866200637"><ele>275.2</ele><time>2026-04-06T13:26:20.999Z</time></trkpt><trkpt lat="45.40567276321561" lon="8.090477917270011"><ele>275.0</ele><time>2026-04-06T13:26:22.999Z</time></trkpt><trkpt lat="45.40568008472045" lon="8.090376843258856"><ele>275.0</ele><time>2026-04-06T13:26:23.999Z</time></trkpt><trkpt lat="45.40569267351982" lon="8.090277305617846"><ele>275.0</ele><time>2026-04-06T13:26:24.999Z</time></trkpt><trkpt lat="45.40570407483759" lon="8.090185506212967"><ele>275.0</ele><time>2026-04-06T13:26:25.999Z</time></trkpt><trkpt lat="45.405716177797146" lon="8.09008835023786"><ele>275.0</ele><time>2026-04-06T13:26:26.999Z</time></trkpt><trkpt lat="45.40574080103787" lon="8.089972923711612"><ele>275.0</ele><time>2026-04-06T13:26:27.999Z</time></trkpt><trkpt lat="45.40576941981801" lon="8.089889120573117"><ele>275.0</ele><time>2026-04-06T13:26:28.999Z</time></trkpt><trkpt lat="45.405846012511994" lon="8.089763498652113"><ele>275.6</ele><time>2026-04-06T13:26:30.999Z</time></trkpt><trkpt lat="45.40588403103443" lon="8.089691367231344"><ele>276.2</ele><time>2026-04-06T13:26:31.999Z</time></trkpt><trkpt lat="45.405945615534236" lon="8.089534317712092"><ele>276.8</ele><time>2026-04-06T13:26:33.999Z</time></trkpt><trkpt lat="45.40599634210114" lon="8.089370947769925"><ele>277.4</ele><time>2026-04-06T13:26:35.999Z</time></trkpt><trkpt lat="45.40602778901271" lon="8.089223034755546"><ele>278.0</ele><time>2026-04-06T13:26:37.999Z</time></trkpt><trkpt lat="45.40604096816904" lon="8.089117913813212"><ele>278.83333333333337</ele><time>2026-04-06T13:26:40.999Z</time></trkpt><trkpt lat="45.40608696800229" lon="8.089045674443074"><ele>279.6666666666667</ele><time>2026-04-06T13:27:12Z</time></trkpt><trkpt lat="45.40609979242459" lon="8.08895428362926"><ele>280.5</ele><time>2026-04-06T13:27:13Z</time></trkpt><trkpt lat="45.40611506846383" lon="8.08884053888613"><ele>281.3333333333333</ele><time>2026-04-06T13:27:14Z</time></trkpt><trkpt lat="45.40613262407944" lon="8.088715683270536"><ele>282.16666666666663</ele><time>2026-04-06T13:27:15Z</time></trkpt><trkpt lat="45.40615332982027" lon="8.088570423391806"><ele>283.0</ele><time>2026-04-06T13:27:16Z</time></trkpt><trkpt lat="45.4061605770728" lon="8.088414980181009"><ele>282.0</ele><time>2026-04-06T13:27:17Z</time></trkpt><trkpt lat="45.40619618515966" lon="8.088219670562184"><ele>281.0</ele><time>2026-04-06T13:27:18Z</time></trkpt><trkpt lat="45.406232016767994" lon="8.087987053696189"><ele>280.0</ele><time>2026-04-06T13:27:19Z</time></trkpt><trkpt lat="45.40625368123924" lon="8.087740004718693"><ele>280.0</ele><time>2026-04-06T13:27:20Z</time></trkpt><trkpt lat="45.40627934217103" lon="8.087475896006172"><ele>280.0</ele><time>2026-04-06T13:27:21Z</time></trkpt><trkpt lat="45.40629000565457" lon="8.087225853456458"><ele>280.0</ele><time>2026-04-06T13:27:22Z</time></trkpt><trkpt lat="45.4063307770051" lon="8.087030150913794"><ele>281.0</ele><time>2026-04-06T13:27:23Z</time></trkpt><trkpt lat="45.40635527868792" lon="8.086809167894009"><ele>282.0</ele><time>2026-04-06T13:27:24Z</time></trkpt><trkpt lat="45.40637684279695" lon="8.086580983890409"><ele>283.0</ele><time>2026-04-06T13:27:25Z</time></trkpt><trkpt lat="45.40640511325971" lon="8.086352078931222"><ele>283.3333333333333</ele><time>2026-04-06T13:27:26Z</time></trkpt><trkpt lat="45.40642935663338" lon="8.086138170504425"><ele>283.6666666666667</ele><time>2026-04-06T13:27:27Z</time></trkpt><trkpt lat="45.406456917944354" lon="8.085932554277864"><ele>284.0</ele><time>2026-04-06T13:27:28Z</time></trkpt><trkpt lat="45.406484660620855" lon="8.085720488409793"><ele>284.33333333333337</ele><time>2026-04-06T13:27:29Z</time></trkpt><trkpt lat="45.40651397691454" lon="8.08549295468608"><ele>284.6666666666667</ele><time>2026-04-06T13:27:30Z</time></trkpt><trkpt lat="45.40654203107661" lon="8.085252764069825"><ele>285.0</ele><time>2026-04-06T13:27:31Z</time></trkpt><trkpt lat="45.40657153612567" lon="8.08500778655891"><ele>285.3333333333333</ele><time>2026-04-06T13:27:32Z</time></trkpt><trkpt lat="45.40660395742289" lon="8.084748952168072"><ele>285.66666666666663</ele><time>2026-04-06T13:27:33Z</time></trkpt><trkpt lat="45.40663339548203" lon="8.084498259791596"><ele>286.0</ele><time>2026-04-06T13:27:34Z</time></trkpt><trkpt lat="45.40666186866859" lon="8.084251613599086"><ele>286.3333333333333</ele><time>2026-04-06T13:27:35Z</time></trkpt><trkpt lat="45.4066931037024" lon="8.084006001244786"><ele>286.6666666666667</ele><time>2026-04-06T13:27:36Z</time></trkpt><trkpt lat="45.40672725388044" lon="8.083756154453472"><ele>287.0</ele><time>2026-04-06T13:27:37Z</time></trkpt><trkpt lat="45.40676830127249" lon="8.083497867662587"><ele>287.33333333333337</ele><time>2026-04-06T13:27:38Z</time></trkpt><trkpt lat="45.406818983804236" lon="8.083236198207963"><ele>287.6666666666667</ele><time>2026-04-06T13:27:39Z</time></trkpt><trkpt lat="45.4068766006591" lon="8.082980622768657"><ele>288.0</ele><time>2026-04-06T13:27:40Z</time></trkpt><trkpt lat="45.40694618137838" lon="8.082726001961152"><ele>288.0</ele><time>2026-04-06T13:27:41Z</time></trkpt><trkpt lat="45.40702593334596" lon="8.082473624809522"><ele>288.0</ele><time>2026-04-06T13:27:42Z</time></trkpt><trkpt lat="45.40711950360131" lon="8.082244891926342"><ele>288.0</ele><time>2026-04-06T13:27:43Z</time></trkpt><trkpt lat="45.40723467152776" lon="8.08201938060609"><ele>288.6666666666667</ele><time>2026-04-06T13:27:44Z</time></trkpt><trkpt lat="45.4073550745297" lon="8.081792777151199"><ele>289.33333333333337</ele><time>2026-04-06T13:27:45Z</time></trkpt><trkpt lat="45.40747908185511" lon="8.081557938191649"><ele>290.0</ele><time>2026-04-06T13:27:46Z</time></trkpt><trkpt lat="45.407604119793874" lon="8.081319576200832"><ele>290.33333333333337</ele><time>2026-04-06T13:27:47Z</time></trkpt><trkpt lat="45.40773351270702" lon="8.081075585830712"><ele>290.6666666666667</ele><time>2026-04-06T13:27:48Z</time></trkpt><trkpt lat="45.407865062797285" lon="8.080825651002419"><ele>291.0</ele><time>2026-04-06T13:27:49Z</time></trkpt><trkpt lat="45.40799943081645" lon="8.08057093362017"><ele>296.0</ele><time>2026-04-06T13:27:50Z</time></trkpt><trkpt lat="45.40813769546885" lon="8.08031140295538"><ele>301.0</ele><time>2026-04-06T13:27:51Z</time></trkpt><trkpt lat="45.40827708272857" lon="8.080050877487764"><ele>304.0</ele><time>2026-04-06T13:27:52Z</time></trkpt><trkpt lat="45.4084162314074" lon="8.07978999270375"><ele>307.0</ele><time>2026-04-06T13:27:53Z</time></trkpt><trkpt lat="45.408547955136164" lon="8.07953862545071"><ele>307.0</ele><time>2026-04-06T13:27:54Z</time></trkpt><trkpt lat="45.408675083277224" lon="8.079299638366635"><ele>307.0</ele><time>2026-04-06T13:27:55Z</time></trkpt><trkpt lat="45.40879793525752" lon="8.079073215608277"><ele>307.0</ele><time>2026-04-06T13:27:56Z</time></trkpt><trkpt lat="45.40892167928315" lon="8.078847740345005"><ele>306.3333333333333</ele><time>2026-04-06T13:27:57Z</time></trkpt><trkpt lat="45.40904789726271" lon="8.078609748871301"><ele>305.6666666666667</ele><time>2026-04-06T13:27:58Z</time></trkpt><trkpt lat="45.40918213724927" lon="8.078369884163838"><ele>305.0</ele><time>2026-04-06T13:27:59Z</time></trkpt><trkpt lat="45.40932592553364" lon="8.078137035928039"><ele>305.0</ele><time>2026-04-06T13:28:00Z</time></trkpt><trkpt lat="45.40947215542891" lon="8.077923726491465"><ele>305.0</ele><time>2026-04-06T13:28:01Z</time></trkpt><trkpt lat="45.40961694269542" lon="8.077726141936482"><ele>305.0</ele><time>2026-04-06T13:28:02Z</time></trkpt><trkpt lat="45.409753525394365" lon="8.077540164476128"><ele>301.6666666666667</ele><time>2026-04-06T13:28:03Z</time></trkpt><trkpt lat="45.40988805885473" lon="8.077360768794874"><ele>298.3333333333333</ele><time>2026-04-06T13:28:04Z</time></trkpt><trkpt lat="45.41001919962166" lon="8.077191773446954"><ele>295.0</ele><time>2026-04-06T13:28:05Z</time></trkpt><trkpt lat="45.41014395668561" lon="8.077038830268174"><ele>295.0</ele><time>2026-04-06T13:28:06Z</time></trkpt><trkpt lat="45.41025752850516" lon="8.076903211742414"><ele>295.0</ele><time>2026-04-06T13:28:07Z</time></trkpt><trkpt lat="45.410365243868824" lon="8.076773877929913"><ele>295.0</ele><time>2026-04-06T13:28:08Z</time></trkpt><trkpt lat="45.41046693161124" lon="8.076649670432442"><ele>295.0</ele><time>2026-04-06T13:28:09Z</time></trkpt><trkpt lat="45.410566187230856" lon="8.076534924536562"><ele>294.5</ele><time>2026-04-06T13:28:10Z</time></trkpt><trkpt lat="45.41066360674879" lon="8.076425082539574"><ele>294.0</ele><time>2026-04-06T13:28:11Z</time></trkpt><trkpt lat="45.41075832138331" lon="8.076319325224887"><ele>293.5</ele><time>2026-04-06T13:28:12Z</time></trkpt><trkpt lat="45.410851486020704" lon="8.07621482242582"><ele>293.0</ele><time>2026-04-06T13:28:13Z</time></trkpt><trkpt lat="45.41094399136854" lon="8.07611117104527"><ele>293.0</ele><time>2026-04-06T13:28:14Z</time></trkpt><trkpt lat="45.4110362300791" lon="8.076001041784638"><ele>293.0</ele><time>2026-04-06T13:28:15Z</time></trkpt><trkpt lat="45.411142236516106" lon="8.075876625057276"><ele>293.0</ele><time>2026-04-06T13:28:16Z</time></trkpt><trkpt lat="45.41126042919716" lon="8.075739988037139"><ele>293.0</ele><time>2026-04-06T13:28:17Z</time></trkpt><trkpt lat="45.411385421797334" lon="8.075590362438565"><ele>294.25</ele><time>2026-04-06T13:28:18Z</time></trkpt><trkpt lat="45.411503455579485" lon="8.07543880382001"><ele>295.5</ele><time>2026-04-06T13:28:19Z</time></trkpt><trkpt lat="45.41160550038517" lon="8.075290468360642"><ele>296.75</ele><time>2026-04-06T13:28:20Z</time></trkpt><trkpt lat="45.41169724250218" lon="8.075138222277838"><ele>298.0</ele><time>2026-04-06T13:28:21Z</time></trkpt><trkpt lat="45.41177821216364" lon="8.074985247109394"><ele>297.0</ele><time>2026-04-06T13:28:22Z</time></trkpt><trkpt lat="45.41184719953444" lon="8.07484914545171"><ele>296.0</ele><time>2026-04-06T13:28:22.999Z</time></trkpt><trkpt lat="45.41191394325758" lon="8.07473988883882"><ele>295.0</ele><time>2026-04-06T13:28:23.999Z</time></trkpt><trkpt lat="45.41199089844357" lon="8.074659211584429"><ele>294.0</ele><time>2026-04-06T13:28:24.999Z</time></trkpt><trkpt lat="45.41206405356879" lon="8.074601937852918"><ele>293.0</ele><time>2026-04-06T13:28:25.999Z</time></trkpt><trkpt lat="45.41212986413423" lon="8.074542870369541"><ele>292.83333333333337</ele><time>2026-04-06T13:28:26.999Z</time></trkpt><trkpt lat="45.41219182234885" lon="8.074482453939163"><ele>292.6666666666667</ele><time>2026-04-06T13:28:27.999Z</time></trkpt><trkpt lat="45.412236938470166" lon="8.074404225359027"><ele>292.5</ele><time>2026-04-06T13:28:28.999Z</time></trkpt><trkpt lat="45.41225400786226" lon="8.074298842155676"><ele>292.3333333333333</ele><time>2026-04-06T13:28:29.999Z</time></trkpt><trkpt lat="45.41223850564848" lon="8.074181486846715"><ele>292.16666666666663</ele><time>2026-04-06T13:28:30.999Z</time></trkpt><trkpt lat="45.4122128181546" lon="8.074053186600757"><ele>292.0</ele><time>2026-04-06T13:28:31.999Z</time></trkpt><trkpt lat="45.41219558309525" lon="8.073902268898982"><ele>292.0</ele><time>2026-04-06T13:28:32.999Z</time></trkpt><trkpt lat="45.41220259256375" lon="8.073735813386303"><ele>292.0</ele><time>2026-04-06T13:28:33.999Z</time></trkpt><trkpt lat="45.41222726072069" lon="8.073569860457795"><ele>292.0</ele><time>2026-04-06T13:28:34.999Z</time></trkpt><trkpt lat="45.41226063609674" lon="8.073392550809547"><ele>292.0</ele><time>2026-04-06T13:28:35.999Z</time></trkpt><trkpt lat="45.412300281694755" lon="8.073211286876425"><ele>291.75</ele><time>2026-04-06T13:28:36.999Z</time></trkpt><trkpt lat="45.41234055369152" lon="8.073030344088426"><ele>291.5</ele><time>2026-04-06T13:28:37.999Z</time></trkpt><trkpt lat="45.41238425116417" lon="8.072850519321817"><ele>291.25</ele><time>2026-04-06T13:28:38.999Z</time></trkpt><trkpt lat="45.41243402441015" lon="8.072658365974545"><ele>291.0</ele><time>2026-04-06T13:28:39.999Z</time></trkpt><trkpt lat="45.4124937803892" lon="8.072468096422254"><ele>289.5</ele><time>2026-04-06T13:28:40.999Z</time></trkpt><trkpt lat="45.41255754150307" lon="8.07228856720568"><ele>288.0</ele><time>2026-04-06T13:28:41.999Z</time></trkpt><trkpt lat="45.41262382461867" lon="8.07211540817332"><ele>286.5</ele><time>2026-04-06T13:28:42.999Z</time></trkpt><trkpt lat="45.412694583475016" lon="8.071951997350043"><ele>285.0</ele><time>2026-04-06T13:28:43.999Z</time></trkpt><trkpt lat="45.41277358675335" lon="8.07179875914558"><ele>285.0</ele><time>2026-04-06T13:28:44.999Z</time></trkpt><trkpt lat="45.412861228344006" lon="8.071643104438952"><ele>285.0</ele><time>2026-04-06T13:28:45.999Z</time></trkpt><trkpt lat="45.41295014740915" lon="8.071472458917233"><ele>285.0</ele><time>2026-04-06T13:28:46.999Z</time></trkpt><trkpt lat="45.41304488465448" lon="8.071295688003728"><ele>285.0</ele><time>2026-04-06T13:28:47.999Z</time></trkpt><trkpt lat="45.413145698283316" lon="8.071113283995944"><ele>284.0</ele><time>2026-04-06T13:28:48.999Z</time></trkpt><trkpt lat="45.413250773178156" lon="8.07093452456342"><ele>283.0</ele><time>2026-04-06T13:28:49.999Z</time></trkpt><trkpt lat="45.413354260182864" lon="8.070762018338366"><ele>282.0</ele><time>2026-04-06T13:28:50.999Z</time></trkpt><trkpt lat="45.413456695124225" lon="8.07058655350813"><ele>282.0</ele><time>2026-04-06T13:28:51.999Z</time></trkpt><trkpt lat="45.41355793119837" lon="8.070404903481695"><ele>282.0</ele><time>2026-04-06T13:28:52.999Z</time></trkpt><trkpt lat="45.41365721871554" lon="8.07021992565182"><ele>282.0</ele><time>2026-04-06T13:28:53.999Z</time></trkpt><trkpt lat="45.41375757012647" lon="8.070039663325858"><ele>284.0</ele><time>2026-04-06T13:28:54.999Z</time></trkpt><trkpt lat="45.413856159954214" lon="8.069862736048552"><ele>286.0</ele><time>2026-04-06T13:28:55.999Z</time></trkpt><trkpt lat="45.41395368840053" lon="8.06968764786697"><ele>288.0</ele><time>2026-04-06T13:28:56.999Z</time></trkpt><trkpt lat="45.41405228961966" lon="8.069518432841706"><ele>288.0</ele><time>2026-04-06T13:28:57.999Z</time></trkpt><trkpt lat="45.414151865699665" lon="8.06936022227438"><ele>288.0</ele><time>2026-04-06T13:28:58.999Z</time></trkpt><trkpt lat="45.41425216030238" lon="8.069208101812354"><ele>288.0</ele><time>2026-04-06T13:28:59.999Z</time></trkpt><trkpt lat="45.41435049004729" lon="8.069059760199542"><ele>288.0</ele><time>2026-04-06T13:29:00.999Z</time></trkpt><trkpt lat="45.41444731589489" lon="8.068917944323438"><ele>289.0</ele><time>2026-04-06T13:29:01.999Z</time></trkpt><trkpt lat="45.41453902484708" lon="8.068786077240636"><ele>290.0</ele><time>2026-04-06T13:29:02.999Z</time></trkpt><trkpt lat="45.41462756960535" lon="8.068657433652662"><ele>291.0</ele><time>2026-04-06T13:29:03.999Z</time></trkpt><trkpt lat="45.41471383809875" lon="8.068531497648417"><ele>292.0</ele><time>2026-04-06T13:29:04.999Z</time></trkpt><trkpt lat="45.41479904483957" lon="8.068407720174019"><ele>292.0</ele><time>2026-04-06T13:29:05.999Z</time></trkpt><trkpt lat="45.41488699309354" lon="8.068284520924747"><ele>292.0</ele><time>2026-04-06T13:29:06.999Z</time></trkpt><trkpt lat="45.41497831914278" lon="8.068153007852416"><ele>292.0</ele><time>2026-04-06T13:29:07.999Z</time></trkpt><trkpt lat="45.415076291794946" lon="8.068013083696332"><ele>292.0</ele><time>2026-04-06T13:29:08.999Z</time></trkpt><trkpt lat="45.415179421828505" lon="8.067863326119259"><ele>289.66666666666663</ele><time>2026-04-06T13:29:09.999Z</time></trkpt><trkpt lat="45.41528590733019" lon="8.06770479969262"><ele>287.3333333333333</ele><time>2026-04-06T13:29:10.999Z</time></trkpt><trkpt lat="45.415396227344644" lon="8.067553276598533"><ele>285.0</ele><time>2026-04-06T13:29:11.999Z</time></trkpt><trkpt lat="45.415504539435474" lon="8.06740519773973"><ele>285.0</ele><time>2026-04-06T13:29:12.999Z</time></trkpt><trkpt lat="45.4156179162579" lon="8.06724056685067"><ele>285.0</ele><time>2026-04-06T13:29:13.999Z</time></trkpt><trkpt lat="45.41573766246405" lon="8.067067421017251"><ele>285.0</ele><time>2026-04-06T13:29:14.999Z</time></trkpt><trkpt lat="45.41586920674781" lon="8.06689132414444"><ele>285.0</ele><time>2026-04-06T13:29:15.999Z</time></trkpt><trkpt lat="45.416004424686264" lon="8.066717968979587"><ele>285.0</ele><time>2026-04-06T13:29:16.999Z</time></trkpt><trkpt lat="45.41614374469542" lon="8.066555900805145"><ele>285.0</ele><time>2026-04-06T13:29:18Z</time></trkpt><trkpt lat="45.416279790473595" lon="8.066410304100517"><ele>285.3333333333333</ele><time>2026-04-06T13:29:19Z</time></trkpt><trkpt lat="45.416414255385305" lon="8.066278035976305"><ele>285.66666666666663</ele><time>2026-04-06T13:29:20Z</time></trkpt><trkpt lat="45.416546973516034" lon="8.066151068862917"><ele>286.0</ele><time>2026-04-06T13:29:21Z</time></trkpt><trkpt lat="45.4166746281872" lon="8.066026721973868"><ele>286.0</ele><time>2026-04-06T13:29:22Z</time></trkpt><trkpt lat="45.41680225315295" lon="8.065904101098063"><ele>286.0</ele><time>2026-04-06T13:29:23Z</time></trkpt><trkpt lat="45.41692934280267" lon="8.065779969522353"><ele>286.0</ele><time>2026-04-06T13:29:24Z</time></trkpt><trkpt lat="45.41705586053765" lon="8.065652021626123"><ele>286.5</ele><time>2026-04-06T13:29:25Z</time></trkpt><trkpt lat="45.417183191349466" lon="8.065531624701926"><ele>287.0</ele><time>2026-04-06T13:29:26Z</time></trkpt><trkpt lat="45.417303557744724" lon="8.06540966856573"><ele>287.5</ele><time>2026-04-06T13:29:27Z</time></trkpt><trkpt lat="45.41742259379567" lon="8.06529472375601"><ele>288.0</ele><time>2026-04-06T13:29:28Z</time></trkpt><trkpt lat="45.417534641240316" lon="8.065180947246937"><ele>288.0</ele><time>2026-04-06T13:29:29Z</time></trkpt><trkpt lat="45.417640711684946" lon="8.06506677920457"><ele>288.0</ele><time>2026-04-06T13:29:30Z</time></trkpt><trkpt lat="45.41774111436488" lon="8.064946966472116"><ele>288.0</ele><time>2026-04-06T13:29:31Z</time></trkpt><trkpt lat="45.41784009133978" lon="8.064822375545223"><ele>288.0</ele><time>2026-04-06T13:29:32Z</time></trkpt><trkpt lat="45.41793966927009" lon="8.064681810045101"><ele>287.6666666666667</ele><time>2026-04-06T13:29:33Z</time></trkpt><trkpt lat="45.41803891098335" lon="8.064521796706737"><ele>287.33333333333337</ele><time>2026-04-06T13:29:34Z</time></trkpt><trkpt lat="45.41813780872509" lon="8.064345595429584"><ele>287.0</ele><time>2026-04-06T13:29:35Z</time></trkpt><trkpt lat="45.41823333616338" lon="8.064162214412308"><ele>286.25</ele><time>2026-04-06T13:29:36Z</time></trkpt><trkpt lat="45.41832120941382" lon="8.063982446494531"><ele>285.5</ele><time>2026-04-06T13:29:37Z</time></trkpt><trkpt lat="45.418402906514395" lon="8.063807128675874"><ele>284.75</ele><time>2026-04-06T13:29:38Z</time></trkpt><trkpt lat="45.41848117558767" lon="8.063638849134914"><ele>284.0</ele><time>2026-04-06T13:29:39Z</time></trkpt><trkpt lat="45.41855599296916" lon="8.063478840320135"><ele>284.0</ele><time>2026-04-06T13:29:40Z</time></trkpt><trkpt lat="45.41863098546989" lon="8.063323099812667"><ele>284.0</ele><time>2026-04-06T13:29:41Z</time></trkpt><trkpt lat="45.41870530176025" lon="8.063167360297985"><ele>284.0</ele><time>2026-04-06T13:29:42Z</time></trkpt><trkpt lat="45.41878062677054" lon="8.063007824456898"><ele>284.0</ele><time>2026-04-06T13:29:43Z</time></trkpt><trkpt lat="45.41885496945606" lon="8.062851384647415"><ele>283.75</ele><time>2026-04-06T13:29:44Z</time></trkpt><trkpt lat="45.41892952500218" lon="8.06269660226036"><ele>283.5</ele><time>2026-04-06T13:29:45Z</time></trkpt><trkpt lat="45.41900626983694" lon="8.06254030684643"><ele>283.25</ele><time>2026-04-06T13:29:46Z</time></trkpt><trkpt lat="45.41908527866078" lon="8.062376441309583"><ele>283.0</ele><time>2026-04-06T13:29:47Z</time></trkpt><trkpt lat="45.41917063751232" lon="8.06221068281481"><ele>282.0</ele><time>2026-04-06T13:29:48Z</time></trkpt><trkpt lat="45.41925050824789" lon="8.062041054181329"><ele>281.0</ele><time>2026-04-06T13:29:49Z</time></trkpt><trkpt lat="45.41933159932426" lon="8.06187669299448"><ele>280.0</ele><time>2026-04-06T13:29:50Z</time></trkpt><trkpt lat="45.41941076860896" lon="8.061711077334206"><ele>279.0</ele><time>2026-04-06T13:29:51Z</time></trkpt><trkpt lat="45.41948644284212" lon="8.061546783074721"><ele>278.75</ele><time>2026-04-06T13:29:52Z</time></trkpt><trkpt lat="45.419561371529596" lon="8.061392039648801"><ele>278.5</ele><time>2026-04-06T13:29:53Z</time></trkpt><trkpt lat="45.41963398260428" lon="8.06124417205659"><ele>278.25</ele><time>2026-04-06T13:29:54Z</time></trkpt><trkpt lat="45.419704971146245" lon="8.06109885619621"><ele>278.0</ele><time>2026-04-06T13:29:55Z</time></trkpt><trkpt lat="45.41977572827511" lon="8.060955364846311"><ele>278.75</ele><time>2026-04-06T13:29:56Z</time></trkpt><trkpt lat="45.41984532274586" lon="8.060815055321193"><ele>279.5</ele><time>2026-04-06T13:29:57Z</time></trkpt><trkpt lat="45.41991323507196" lon="8.060676261291118"><ele>280.25</ele><time>2026-04-06T13:29:58Z</time></trkpt><trkpt lat="45.41997902441409" lon="8.060536922375022"><ele>281.0</ele><time>2026-04-06T13:29:59Z</time></trkpt><trkpt lat="45.420045786985234" lon="8.060398514452636"><ele>281.0</ele><time>2026-04-06T13:30:00Z</time></trkpt><trkpt lat="45.420114654756915" lon="8.060250781597034"><ele>281.0</ele><time>2026-04-06T13:30:01Z</time></trkpt><trkpt lat="45.42018825069042" lon="8.060099892633708"><ele>281.0</ele><time>2026-04-06T13:30:02Z</time></trkpt><trkpt lat="45.42026583018203" lon="8.059943361077364"><ele>281.0</ele><time>2026-04-06T13:30:03Z</time></trkpt><trkpt lat="45.420347016279514" lon="8.059773359862394"><ele>281.0</ele><time>2026-04-06T13:30:04Z</time></trkpt><trkpt lat="45.42042855298397" lon="8.059607745435862"><ele>281.0</ele><time>2026-04-06T13:30:05Z</time></trkpt><trkpt lat="45.42050732992893" lon="8.059444320394931"><ele>281.0</ele><time>2026-04-06T13:30:06Z</time></trkpt><trkpt lat="45.420583256899754" lon="8.059286478675945"><ele>281.0</ele><time>2026-04-06T13:30:07Z</time></trkpt><trkpt lat="45.420656707987334" lon="8.059132244924749"><ele>280.40000000000003</ele><time>2026-04-06T13:30:08Z</time></trkpt><trkpt lat="45.42072309967211" lon="8.058988885496197"><ele>279.8</ele><time>2026-04-06T13:30:09Z</time></trkpt><trkpt lat="45.42078321275824" lon="8.05885930785546"><ele>279.20000000000005</ele><time>2026-04-06T13:30:10Z</time></trkpt><trkpt lat="45.42083629717209" lon="8.058738075192132"><ele>278.6</ele><time>2026-04-06T13:30:11Z</time></trkpt><trkpt lat="45.42088692405815" lon="8.058620706928183"><ele>278.0</ele><time>2026-04-06T13:30:12Z</time></trkpt><trkpt lat="45.42092991894099" lon="8.058509245024826"><ele>278.0</ele><time>2026-04-06T13:30:13Z</time></trkpt><trkpt lat="45.42096292165663" lon="8.05840769115233"><ele>278.0</ele><time>2026-04-06T13:30:14Z</time></trkpt><trkpt lat="45.42099541486691" lon="8.058304822242702"><ele>278.0</ele><time>2026-04-06T13:30:15Z</time></trkpt><trkpt lat="45.421024951248036" lon="8.05820283593493"><ele>278.0</ele><time>2026-04-06T13:30:16Z</time></trkpt><trkpt lat="45.42105323479994" lon="8.058106508575836"><ele>278.0</ele><time>2026-04-06T13:30:17Z</time></trkpt><trkpt lat="45.42107709273419" lon="8.058015558559353"><ele>278.0</ele><time>2026-04-06T13:30:18Z</time></trkpt><trkpt lat="45.42111257356115" lon="8.057878164257145"><ele>277.4</ele><time>2026-04-06T13:30:20Z</time></trkpt><trkpt lat="45.421139140837525" lon="8.057771851342412"><ele>276.8</ele><time>2026-04-06T13:30:22Z</time></trkpt><trkpt lat="45.421185855055256" lon="8.05766454588574"><ele>276.2</ele><time>2026-04-06T13:30:24Z</time></trkpt><trkpt lat="45.42124945792483" lon="8.057555185967814"><ele>275.6</ele><time>2026-04-06T13:30:26Z</time></trkpt><trkpt lat="45.42127641977806" lon="8.057386908485068"><ele>275.0</ele><time>2026-04-06T13:30:28Z</time></trkpt><trkpt lat="45.42126510712906" lon="8.05728446642205"><ele>274.8</ele><time>2026-04-06T13:30:29Z</time></trkpt><trkpt lat="45.421266094427665" lon="8.057193902603768"><ele>274.6</ele><time>2026-04-06T13:30:30Z</time></trkpt><trkpt lat="45.42128573242607" lon="8.057041307738151"><ele>274.4</ele><time>2026-04-06T13:30:32Z</time></trkpt><trkpt lat="45.421311950196454" lon="8.056914358857124"><ele>274.2</ele><time>2026-04-06T13:30:34Z</time></trkpt><trkpt lat="45.42133859408318" lon="8.056790043226917"><ele>274.0</ele><time>2026-04-06T13:30:35.999Z</time></trkpt><trkpt lat="45.42137731552583" lon="8.056604138382372"><ele>275.14285714285717</ele><time>2026-04-06T13:30:37.999Z</time></trkpt><trkpt lat="45.421399840273864" lon="8.056498689633953"><ele>276.2857142857143</ele><time>2026-04-06T13:30:38.999Z</time></trkpt><trkpt lat="45.42142043300065" lon="8.05639553600019"><ele>277.42857142857144</ele><time>2026-04-06T13:30:39.999Z</time></trkpt><trkpt lat="45.42143985149424" lon="8.056297670658171"><ele>278.57142857142856</ele><time>2026-04-06T13:30:40.999Z</time></trkpt><trkpt lat="45.42145756835902" lon="8.056206400853636"><ele>279.7142857142857</ele><time>2026-04-06T13:30:41.999Z</time></trkpt><trkpt lat="45.42147598978676" lon="8.056117004200924"><ele>280.8571428571429</ele><time>2026-04-06T13:30:42.999Z</time></trkpt><trkpt lat="45.42149570535255" lon="8.056025466072343"><ele>282.0</ele><time>2026-04-06T13:30:43.999Z</time></trkpt><trkpt lat="45.42151546945025" lon="8.055932322974334"><ele>282.0</ele><time>2026-04-06T13:30:44.999Z</time></trkpt><trkpt lat="45.421536236811804" lon="8.055829441290518"><ele>282.0</ele><time>2026-04-06T13:30:45.999Z</time></trkpt><trkpt lat="45.42155881626142" lon="8.055719793772475"><ele>282.0</ele><time>2026-04-06T13:30:46.999Z</time></trkpt><trkpt lat="45.421582630372114" lon="8.055602146313692"><ele>282.0</ele><time>2026-04-06T13:30:47.999Z</time></trkpt><trkpt lat="45.421608010607606" lon="8.055489198888134"><ele>282.0</ele><time>2026-04-06T13:30:48.999Z</time></trkpt><trkpt lat="45.42163016176356" lon="8.055383037608973"><ele>282.0</ele><time>2026-04-06T13:30:49.999Z</time></trkpt><trkpt lat="45.42164485239852" lon="8.055286857382725"><ele>281.4</ele><time>2026-04-06T13:30:50.999Z</time></trkpt><trkpt lat="45.4216812178664" lon="8.055129569412907"><ele>280.79999999999995</ele><time>2026-04-06T13:30:52.999Z</time></trkpt><trkpt lat="45.421698844936955" lon="8.055040228930167"><ele>280.2</ele><time>2026-04-06T13:30:54.999Z</time></trkpt><trkpt lat="45.42170921212223" lon="8.054915819997529"><ele>279.59999999999997</ele><time>2026-04-06T13:30:59.999Z</time></trkpt><trkpt lat="45.421733485201855" lon="8.054757504292471"><ele>279.0</ele><time>2026-04-06T13:31:01.999Z</time></trkpt><trkpt lat="45.421756410078146" lon="8.054659015126242"><ele>278.59999999999997</ele><time>2026-04-06T13:31:02.999Z</time></trkpt><trkpt lat="45.42177342352435" lon="8.054565270997015"><ele>278.2</ele><time>2026-04-06T13:31:03.999Z</time></trkpt><trkpt lat="45.42180722249376" lon="8.054410733988114"><ele>277.79999999999995</ele><time>2026-04-06T13:31:05.999Z</time></trkpt><trkpt lat="45.42184201886082" lon="8.054238520016265"><ele>277.4</ele><time>2026-04-06T13:31:07.999Z</time></trkpt><trkpt lat="45.42187201314637" lon="8.054076868114894"><ele>277.0</ele><time>2026-04-06T13:31:09.999Z</time></trkpt><trkpt lat="45.42190826332347" lon="8.05391444154032"><ele>276.2</ele><time>2026-04-06T13:31:11.999Z</time></trkpt><trkpt lat="45.42193757472137" lon="8.053747286447626"><ele>275.4</ele><time>2026-04-06T13:31:13.999Z</time></trkpt><trkpt lat="45.42196123453943" lon="8.05362389413107"><ele>274.6</ele><time>2026-04-06T13:31:18.999Z</time></trkpt><trkpt lat="45.42199114508429" lon="8.053499462416841"><ele>273.8</ele><time>2026-04-06T13:31:20.999Z</time></trkpt><trkpt lat="45.42201498810715" lon="8.053367589046967"><ele>273.0</ele><time>2026-04-06T13:31:22.999Z</time></trkpt><trkpt lat="45.42203829108061" lon="8.053267114009309"><ele>272.4</ele><time>2026-04-06T13:31:25Z</time></trkpt><trkpt lat="45.42206428153558" lon="8.053136776182603"><ele>271.8</ele><time>2026-04-06T13:31:28Z</time></trkpt><trkpt lat="45.42208632679873" lon="8.05299634062802"><ele>271.2</ele><time>2026-04-06T13:31:30Z</time></trkpt><trkpt lat="45.42212075036409" lon="8.052833591593185"><ele>270.6</ele><time>2026-04-06T13:31:32Z</time></trkpt><trkpt lat="45.42215038040512" lon="8.052676496971891"><ele>270.0</ele><time>2026-04-06T13:31:34Z</time></trkpt><trkpt lat="45.42219111132456" lon="8.052527045197486"><ele>270.5</ele><time>2026-04-06T13:31:36Z</time></trkpt><trkpt lat="45.42223292570843" lon="8.052380856032174"><ele>271.0</ele><time>2026-04-06T13:31:38Z</time></trkpt><trkpt lat="45.42227256170349" lon="8.052269814613165"><ele>271.5</ele><time>2026-04-06T13:31:40Z</time></trkpt><trkpt lat="45.42230243474297" lon="8.052187085699865"><ele>272.0</ele><time>2026-04-06T13:31:43Z</time></trkpt><trkpt lat="45.42233934935328" lon="8.052104838608638"><ele>272.5</ele><time>2026-04-06T13:31:51Z</time></trkpt><trkpt lat="45.42237367560643" lon="8.052026866650609"><ele>273.0</ele><time>2026-04-06T13:31:55Z</time></trkpt><trkpt lat="45.42242013133794" lon="8.051942416263149"><ele>273.0</ele><time>2026-04-06T13:31:58Z</time></trkpt><trkpt lat="45.422468344239995" lon="8.051872590070857"><ele>273.0</ele><time>2026-04-06T13:32:00Z</time></trkpt><trkpt lat="45.42251879419694" lon="8.05180866031307"><ele>273.0</ele><time>2026-04-06T13:32:02Z</time></trkpt><trkpt lat="45.422569400715346" lon="8.05174658711806"><ele>273.0</ele><time>2026-04-06T13:32:14Z</time></trkpt><trkpt lat="45.42261178234511" lon="8.051647384047962"><ele>273.0</ele><time>2026-04-06T13:32:20Z</time></trkpt><trkpt lat="45.42260963751055" lon="8.051509330137947"><ele>273.0</ele><time>2026-04-06T13:32:22Z</time></trkpt><trkpt lat="45.4225586727519" lon="8.05135539659958"><ele>272.0</ele><time>2026-04-06T13:32:24Z</time></trkpt><trkpt lat="45.422529845849226" lon="8.051275412189613"><ele>271.0</ele><time>2026-04-06T13:32:25Z</time></trkpt><trkpt lat="45.42248067524318" lon="8.051143663158584"><ele>270.0</ele><time>2026-04-06T13:32:27Z</time></trkpt><trkpt lat="45.42244162295714" lon="8.051046865623785"><ele>269.0</ele><time>2026-04-06T13:32:29Z</time></trkpt><trkpt lat="45.422396544561735" lon="8.050952596489015"><ele>268.0</ele><time>2026-04-06T13:32:31Z</time></trkpt><trkpt lat="45.42233956248889" lon="8.050847488482678"><ele>267.0</ele><time>2026-04-06T13:32:32.999Z</time></trkpt><trkpt lat="45.42227642871924" lon="8.050726057412964"><ele>265.6666666666667</ele><time>2026-04-06T13:32:34.999Z</time></trkpt><trkpt lat="45.422230189534076" lon="8.050607364715624"><ele>264.3333333333333</ele><time>2026-04-06T13:32:36.999Z</time></trkpt><trkpt lat="45.422187269551806" lon="8.050487917605208"><ele>263.0</ele><time>2026-04-06T13:32:39.999Z</time></trkpt><trkpt lat="45.42214885542149" lon="8.050396821553896"><ele>261.66666666666663</ele><time>2026-04-06T13:32:41.999Z</time></trkpt><trkpt lat="45.42210632428474" lon="8.050302515970712"><ele>260.3333333333333</ele><time>2026-04-06T13:32:44.999Z</time></trkpt><trkpt lat="45.42206254658736" lon="8.050207912627144"><ele>259.0</ele><time>2026-04-06T13:32:47.999Z</time></trkpt><trkpt lat="45.42202302822146" lon="8.050118949782336"><ele>257.8</ele><time>2026-04-06T13:32:49.999Z</time></trkpt><trkpt lat="45.42198175893945" lon="8.050018344200804"><ele>256.59999999999997</ele><time>2026-04-06T13:32:51.999Z</time></trkpt><trkpt lat="45.42194003284226" lon="8.049926279400314"><ele>255.4</ele><time>2026-04-06T13:32:55.999Z</time></trkpt><trkpt lat="45.42190540706822" lon="8.049845902459483"><ele>254.2</ele><time>2026-04-06T13:32:58.999Z</time></trkpt><trkpt lat="45.4218397912573" lon="8.04973564556493"><ele>253.0</ele><time>2026-04-06T13:33:01.999Z</time></trkpt><trkpt lat="45.42177659932117" lon="8.049581348030102"><ele>251.83333333333331</ele><time>2026-04-06T13:33:03.999Z</time></trkpt><trkpt lat="45.42174235865508" lon="8.049497393685321"><ele>250.66666666666666</ele><time>2026-04-06T13:33:04.999Z</time></trkpt><trkpt lat="45.42170604256086" lon="8.049416657514598"><ele>249.5</ele><time>2026-04-06T13:33:05.999Z</time></trkpt><trkpt lat="45.42164806806473" lon="8.049290313168752"><ele>248.33333333333331</ele><time>2026-04-06T13:33:07.999Z</time></trkpt><trkpt lat="45.42160924528336" lon="8.049185504265337"><ele>247.16666666666666</ele><time>2026-04-06T13:33:09.999Z</time></trkpt><trkpt lat="45.42157672770718" lon="8.049100430878184"><ele>246.0</ele><time>2026-04-06T13:33:12.999Z</time></trkpt><trkpt lat="45.4215384281365" lon="8.049008755168039"><ele>245.33333333333334</ele><time>2026-04-06T13:33:16.999Z</time></trkpt><trkpt lat="45.42148696274077" lon="8.048897144471292"><ele>244.66666666666669</ele><time>2026-04-06T13:33:19.999Z</time></trkpt><trkpt lat="45.421451479301304" lon="8.04881598168726"><ele>244.0</ele><time>2026-04-06T13:33:21.999Z</time></trkpt><trkpt lat="45.42142136970842" lon="8.048735297483844"><ele>243.33333333333334</ele><time>2026-04-06T13:33:23.999Z</time></trkpt><trkpt lat="45.421366209905145" lon="8.048612042238837"><ele>242.66666666666669</ele><time>2026-04-06T13:33:26.999Z</time></trkpt><trkpt lat="45.421323259955194" lon="8.048508155856211"><ele>242.0</ele><time>2026-04-06T13:33:28.999Z</time></trkpt><trkpt lat="45.421272004235966" lon="8.048410823278104"><ele>241.50000000000003</ele><time>2026-04-06T13:33:31Z</time></trkpt><trkpt lat="45.42119828336988" lon="8.04826588125758"><ele>241.0</ele><time>2026-04-06T13:33:33Z</time></trkpt><trkpt lat="45.42116032568137" lon="8.048178080421998"><ele>240.5</ele><time>2026-04-06T13:33:34Z</time></trkpt><trkpt lat="45.421123468802584" lon="8.048087029992532"><ele>240.0</ele><time>2026-04-06T13:33:35Z</time></trkpt><trkpt lat="45.42108857091961" lon="8.04800943315639"><ele>239.50000000000003</ele><time>2026-04-06T13:33:36Z</time></trkpt><trkpt lat="45.421051713832135" lon="8.047917014764707"><ele>239.0</ele><time>2026-04-06T13:33:38Z</time></trkpt><trkpt lat="45.42102570654662" lon="8.047828919239633"><ele>239.00000000000003</ele><time>2026-04-06T13:33:44Z</time></trkpt><trkpt lat="45.420960140609616" lon="8.047704391062048"><ele>239.0</ele><time>2026-04-06T13:33:46Z</time></trkpt><trkpt lat="45.42089837245602" lon="8.047558131509069"><ele>239.0</ele><time>2026-04-06T13:33:48Z</time></trkpt><trkpt lat="45.42086990980286" lon="8.04746940289108"><ele>239.0</ele><time>2026-04-06T13:33:50Z</time></trkpt><trkpt lat="45.420840766745954" lon="8.047387386227427"><ele>239.00000000000003</ele><time>2026-04-06T13:33:57Z</time></trkpt><trkpt lat="45.420802761695455" lon="8.047306123029898"><ele>239.0</ele><time>2026-04-06T13:34:01.999Z</time></trkpt><trkpt lat="45.420765033654725" lon="8.047219597529674"><ele>238.42857142857144</ele><time>2026-04-06T13:34:05.999Z</time></trkpt><trkpt lat="45.42074165785219" lon="8.047123944433052"><ele>237.85714285714286</ele><time>2026-04-06T13:34:10.999Z</time></trkpt><trkpt lat="45.4207427716245" lon="8.0470065442985"><ele>237.28571428571428</ele><time>2026-04-06T13:34:15.999Z</time></trkpt><trkpt lat="45.42076385722912" lon="8.046920842296384"><ele>236.71428571428572</ele><time>2026-04-06T13:34:19.999Z</time></trkpt><trkpt lat="45.420824876655985" lon="8.0468226180102"><ele>236.1428571428571</ele><time>2026-04-06T13:34:22.999Z</time></trkpt><trkpt lat="45.42088722305343" lon="8.046770479757438"><ele>235.57142857142856</ele><time>2026-04-06T13:34:24.999Z</time></trkpt><trkpt lat="45.4209415896176" lon="8.046718073032862"><ele>235.0</ele><time>2026-04-06T13:34:26.999Z</time></trkpt><trkpt lat="45.42100494056916" lon="8.046676339079095"><ele>234.33333333333331</ele><time>2026-04-06T13:34:28.999Z</time></trkpt><trkpt lat="45.42106889260578" lon="8.04662039455515"><ele>233.66666666666666</ele><time>2026-04-06T13:34:30.999Z</time></trkpt><trkpt lat="45.42112304970617" lon="8.046566499471776"><ele>233.0</ele><time>2026-04-06T13:34:32.999Z</time></trkpt><trkpt lat="45.421210295591095" lon="8.046504957243659"><ele>232.33333333333331</ele><time>2026-04-06T13:34:35.999Z</time></trkpt><trkpt lat="45.42126640199128" lon="8.04645303426958"><ele>231.66666666666666</ele><time>2026-04-06T13:34:37.999Z</time></trkpt><trkpt lat="45.42133916398991" lon="8.046405834729667"><ele>231.0</ele><time>2026-04-06T13:34:40.999Z</time></trkpt><trkpt lat="45.42140075320325" lon="8.04635318577817"><ele>231.0</ele><time>2026-04-06T13:34:43.999Z</time></trkpt><trkpt lat="45.42147885510886" lon="8.046294905111468"><ele>231.0</ele><time>2026-04-06T13:34:46.999Z</time></trkpt><trkpt lat="45.421544395749" lon="8.046237231018972"><ele>231.0</ele><time>2026-04-06T13:34:50.999Z</time></trkpt><trkpt lat="45.42156069700292" lon="8.046145782122805"><ele>231.0</ele><time>2026-04-06T13:34:56.999Z</time></trkpt><trkpt lat="45.421560721105735" lon="8.046024188902162"><ele>231.0</ele><time>2026-04-06T13:42:34.999Z</time></trkpt><trkpt lat="45.42152829142389" lon="8.046101306147587"><ele>231.0</ele><time>2026-04-06T13:42:44.999Z</time></trkpt><trkpt lat="45.421597787527745" lon="8.046188281236493"><ele>231.0</ele><time>2026-04-06T13:49:03Z</time></trkpt><trkpt lat="45.421530779859744" lon="8.046197231927982"><ele>231.0</ele><time>2026-04-06T13:49:05Z</time></trkpt><trkpt lat="45.42146698058924" lon="8.046236636858785"><ele>231.0</ele><time>2026-04-06T13:49:07Z</time></trkpt><trkpt lat="45.421393887312455" lon="8.046290490298528"><ele>231.0</ele><time>2026-04-06T13:49:09Z</time></trkpt><trkpt lat="45.42133894818493" lon="8.046342505898664"><ele>231.0</ele><time>2026-04-06T13:49:11Z</time></trkpt><trkpt lat="45.42127554568059" lon="8.046386233303423"><ele>231.0</ele><time>2026-04-06T13:49:13Z</time></trkpt><trkpt lat="45.421199915389785" lon="8.046460368928033"><ele>231.0</ele><time>2026-04-06T13:49:16Z</time></trkpt><trkpt lat="45.421121537541985" lon="8.046501699133891"><ele>230.85714285714286</ele><time>2026-04-06T13:49:18Z</time></trkpt><trkpt lat="45.42105548989515" lon="8.04656167931156"><ele>230.71428571428572</ele><time>2026-04-06T13:49:20Z</time></trkpt><trkpt lat="45.42098132295521" lon="8.046624290196014"><ele>230.57142857142856</ele><time>2026-04-06T13:49:22Z</time></trkpt><trkpt lat="45.42092473917889" lon="8.046667793408218"><ele>230.42857142857142</ele><time>2026-04-06T13:49:24Z</time></trkpt><trkpt lat="45.42086148346226" lon="8.046725326919326"><ele>230.28571428571428</ele><time>2026-04-06T13:49:26Z</time></trkpt><trkpt lat="45.42080327756907" lon="8.046764074042658"><ele>230.1428571428571</ele><time>2026-04-06T13:49:28Z</time></trkpt><trkpt lat="45.4207460187166" lon="8.046828410419524"><ele>229.99999999999997</ele><time>2026-04-06T13:49:30Z</time></trkpt><trkpt lat="45.42069169172358" lon="8.046896589319564"><ele>230.83333333333334</ele><time>2026-04-06T13:49:32Z</time></trkpt><trkpt lat="45.42066666471152" lon="8.047000173372755"><ele>231.66666666666669</ele><time>2026-04-06T13:49:34Z</time></trkpt><trkpt lat="45.42067429431276" lon="8.047105098857598"><ele>232.5</ele><time>2026-04-06T13:49:36Z</time></trkpt><trkpt lat="45.42070711963193" lon="8.047192273548834"><ele>233.33333333333331</ele><time>2026-04-06T13:49:38Z</time></trkpt><trkpt lat="45.420746558480616" lon="8.047277730318807"><ele>234.16666666666666</ele><time>2026-04-06T13:49:40Z</time></trkpt><trkpt lat="45.42079198690079" lon="8.047382322926094"><ele>235.0</ele><time>2026-04-06T13:49:42Z</time></trkpt><trkpt lat="45.42084390445886" lon="8.047499572672033"><ele>235.8</ele><time>2026-04-06T13:49:44Z</time></trkpt><trkpt lat="45.42090431334342" lon="8.047635751809757"><ele>236.6</ele><time>2026-04-06T13:49:46Z</time></trkpt><trkpt lat="45.42094654218358" lon="8.047731717669087"><ele>237.39999999999998</ele><time>2026-04-06T13:49:48Z</time></trkpt><trkpt lat="45.42099792942381" lon="8.047845048211405"><ele>238.2</ele><time>2026-04-06T13:49:50Z</time></trkpt><trkpt lat="45.4210522902515" lon="8.047962823918029"><ele>239.0</ele><time>2026-04-06T13:49:52Z</time></trkpt><trkpt lat="45.421107150132514" lon="8.04809406555852"><ele>239.0</ele><time>2026-04-06T13:49:54Z</time></trkpt><trkpt lat="45.42115941431784" lon="8.048219311769222"><ele>238.99999999999997</ele><time>2026-04-06T13:49:56Z</time></trkpt><trkpt lat="45.42121022650417" lon="8.04833389412271"><ele>238.99999999999997</ele><time>2026-04-06T13:49:58Z</time></trkpt><trkpt lat="45.421254572002475" lon="8.048437857645906"><ele>239.0</ele><time>2026-04-06T13:50:00Z</time></trkpt><trkpt lat="45.421294454247224" lon="8.048535409067915"><ele>239.0</ele><time>2026-04-06T13:50:02Z</time></trkpt><trkpt lat="45.421342670345474" lon="8.048643199493489"><ele>239.50000000000003</ele><time>2026-04-06T13:50:05Z</time></trkpt><trkpt lat="45.42137567559199" lon="8.048719663614639"><ele>240.0</ele><time>2026-04-06T13:50:07Z</time></trkpt><trkpt lat="45.42142309922203" lon="8.04882028071697"><ele>240.5</ele><time>2026-04-06T13:50:09Z</time></trkpt><trkpt lat="45.42148441203245" lon="8.048963335895303"><ele>241.0</ele><time>2026-04-06T13:50:11Z</time></trkpt><trkpt lat="45.42152311388168" lon="8.049053159550233"><ele>241.50000000000003</ele><time>2026-04-06T13:50:12Z</time></trkpt><trkpt lat="45.421556948364874" lon="8.049130012141642"><ele>242.0</ele><time>2026-04-06T13:50:13Z</time></trkpt><trkpt lat="45.42159279286131" lon="8.049213283980908"><ele>242.66666666666669</ele><time>2026-04-06T13:50:14Z</time></trkpt><trkpt lat="45.42163363147042" lon="8.049309871683777"><ele>243.33333333333334</ele><time>2026-04-06T13:50:15Z</time></trkpt><trkpt lat="45.421671715616334" lon="8.049389668697724"><ele>244.0</ele><time>2026-04-06T13:50:16Z</time></trkpt><trkpt lat="45.42171039472442" lon="8.049474070426383"><ele>244.66666666666669</ele><time>2026-04-06T13:50:17Z</time></trkpt><trkpt lat="45.42174583014788" lon="8.049553072192776"><ele>245.33333333333334</ele><time>2026-04-06T13:50:18Z</time></trkpt><trkpt lat="45.421779767163365" lon="8.04962990407609"><ele>246.0</ele><time>2026-04-06T13:50:19Z</time></trkpt><trkpt lat="45.42184241799034" lon="8.04976899140654"><ele>246.0</ele><time>2026-04-06T13:50:21Z</time></trkpt><trkpt lat="45.42189531516748" lon="8.049901419526394"><ele>246.00000000000003</ele><time>2026-04-06T13:50:23Z</time></trkpt><trkpt lat="45.421959793518276" lon="8.0500472611181"><ele>246.00000000000003</ele><time>2026-04-06T13:50:25Z</time></trkpt><trkpt lat="45.42199905530772" lon="8.050137905996232"><ele>246.0</ele><time>2026-04-06T13:50:26Z</time></trkpt><trkpt lat="45.42204776067469" lon="8.050246647925983"><ele>246.0</ele><time>2026-04-06T13:50:27Z</time></trkpt><trkpt lat="45.422090278076126" lon="8.050345391613751"><ele>248.60000000000002</ele><time>2026-04-06T13:50:28Z</time></trkpt><trkpt lat="45.422150817563185" lon="8.05049225188909"><ele>251.20000000000002</ele><time>2026-04-06T13:50:30Z</time></trkpt><trkpt lat="45.42220492896785" lon="8.050634664274186"><ele>253.79999999999998</ele><time>2026-04-06T13:50:32Z</time></trkpt><trkpt lat="45.422273433304916" lon="8.050786040722285"><ele>256.4</ele><time>2026-04-06T13:50:34Z</time></trkpt><trkpt lat="45.4223068387218" lon="8.050862224981225"><ele>259.0</ele><time>2026-04-06T13:50:35Z</time></trkpt><trkpt lat="45.42234363917928" lon="8.05094377714953"><ele>260.3333333333333</ele><time>2026-04-06T13:50:36Z</time></trkpt><trkpt lat="45.4223796174595" lon="8.051022884461807"><ele>261.66666666666663</ele><time>2026-04-06T13:50:37Z</time></trkpt><trkpt lat="45.42244340285781" lon="8.051171249108544"><ele>263.0</ele><time>2026-04-06T13:50:39Z</time></trkpt><trkpt lat="45.42247659341741" lon="8.051249076076372"><ele>264.3333333333333</ele><time>2026-04-06T13:50:40Z</time></trkpt><trkpt lat="45.42250947098852" lon="8.051327639207724"><ele>265.6666666666667</ele><time>2026-04-06T13:50:41Z</time></trkpt><trkpt lat="45.42256327910627" lon="8.051466287000538"><ele>267.0</ele><time>2026-04-06T13:50:43Z</time></trkpt><trkpt lat="45.42259297622168" lon="8.05158287529923"><ele>268.0</ele><time>2026-04-06T13:50:45Z</time></trkpt><trkpt lat="45.42257164909383" lon="8.051704520463607"><ele>269.0</ele><time>2026-04-06T13:50:48Z</time></trkpt><trkpt lat="45.42251844506478" lon="8.051768675261732"><ele>270.0</ele><time>2026-04-06T13:50:49Z</time></trkpt><trkpt lat="45.42245034568554" lon="8.051851043048615"><ele>271.0</ele><time>2026-04-06T13:50:50Z</time></trkpt><trkpt lat="45.42238461404929" lon="8.051947884265646"><ele>272.0</ele><time>2026-04-06T13:50:51Z</time></trkpt><trkpt lat="45.422332884697" lon="8.05204072940738"><ele>273.0</ele><time>2026-04-06T13:50:52Z</time></trkpt><trkpt lat="45.422285295250425" lon="8.052137250828283"><ele>273.0</ele><time>2026-04-06T13:50:53Z</time></trkpt><trkpt lat="45.42222979468684" lon="8.052260173690582"><ele>273.0</ele><time>2026-04-06T13:50:54Z</time></trkpt><trkpt lat="45.42218019844707" lon="8.052391149559533"><ele>273.0</ele><time>2026-04-06T13:50:55Z</time></trkpt><trkpt lat="45.42214344098534" lon="8.052519338323894"><ele>273.0</ele><time>2026-04-06T13:50:56Z</time></trkpt><trkpt lat="45.422115360895674" lon="8.05265023079457"><ele>273.0</ele><time>2026-04-06T13:50:57Z</time></trkpt><trkpt lat="45.422083562348575" lon="8.052796030591058"><ele>273.0</ele><time>2026-04-06T13:50:58Z</time></trkpt><trkpt lat="45.42205412821289" lon="8.052939384566814"><ele>273.0</ele><time>2026-04-06T13:50:59Z</time></trkpt><trkpt lat="45.422026629872974" lon="8.053072367901903"><ele>273.0</ele><time>2026-04-06T13:51:00Z</time></trkpt><trkpt lat="45.42199950961361" lon="8.053212312663833"><ele>273.0</ele><time>2026-04-06T13:51:01Z</time></trkpt><trkpt lat="45.42197052051152" lon="8.05336930156682"><ele>273.0</ele><time>2026-04-06T13:51:02Z</time></trkpt><trkpt lat="45.42193727813784" lon="8.05352411906759"><ele>273.0</ele><time>2026-04-06T13:51:03Z</time></trkpt><trkpt lat="45.42190717467435" lon="8.053669164571978"><ele>273.0</ele><time>2026-04-06T13:51:04Z</time></trkpt><trkpt lat="45.42187949794247" lon="8.053796889219772"><ele>273.0</ele><time>2026-04-06T13:51:05Z</time></trkpt><trkpt lat="45.42185872063554" lon="8.053914496942875"><ele>273.0</ele><time>2026-04-06T13:51:06Z</time></trkpt><trkpt lat="45.421836430486564" lon="8.05402694079167"><ele>273.0</ele><time>2026-04-06T13:51:07Z</time></trkpt><trkpt lat="45.42181117808257" lon="8.054142450717638"><ele>273.6666666666667</ele><time>2026-04-06T13:51:08Z</time></trkpt><trkpt lat="45.421786481607484" lon="8.05425329652557"><ele>274.3333333333333</ele><time>2026-04-06T13:51:09Z</time></trkpt><trkpt lat="45.421762310331864" lon="8.054359617708183"><ele>275.0</ele><time>2026-04-06T13:51:10Z</time></trkpt><trkpt lat="45.421740546795995" lon="8.054475821670009"><ele>275.66666666666663</ele><time>2026-04-06T13:51:11Z</time></trkpt><trkpt lat="45.42172256490276" lon="8.054607341023825"><ele>276.3333333333333</ele><time>2026-04-06T13:51:12Z</time></trkpt><trkpt lat="45.4216983761639" lon="8.054747440382796"><ele>277.0</ele><time>2026-04-06T13:51:13Z</time></trkpt><trkpt lat="45.42168250440582" lon="8.054885007562719"><ele>277.4</ele><time>2026-04-06T13:51:14Z</time></trkpt><trkpt lat="45.42164600006858" lon="8.055010347756921"><ele>277.79999999999995</ele><time>2026-04-06T13:51:15Z</time></trkpt><trkpt lat="45.42161663166579" lon="8.055127472182779"><ele>278.2</ele><time>2026-04-06T13:51:16Z</time></trkpt><trkpt lat="45.4215961451402" lon="8.0552504568367"><ele>278.59999999999997</ele><time>2026-04-06T13:51:17Z</time></trkpt><trkpt lat="45.42156924481977" lon="8.055392077594933"><ele>279.0</ele><time>2026-04-06T13:51:18Z</time></trkpt><trkpt lat="45.4215376461496" lon="8.055525217873411"><ele>279.0</ele><time>2026-04-06T13:51:19Z</time></trkpt><trkpt lat="45.42151239752213" lon="8.055668173699177"><ele>279.0</ele><time>2026-04-06T13:51:20Z</time></trkpt><trkpt lat="45.42148557190732" lon="8.055798629517954"><ele>279.0</ele><time>2026-04-06T13:51:21Z</time></trkpt><trkpt lat="45.421463526534104" lon="8.055921226971734"><ele>279.0</ele><time>2026-04-06T13:51:22Z</time></trkpt><trkpt lat="45.421434426021754" lon="8.056041920965686"><ele>279.0</ele><time>2026-04-06T13:51:23Z</time></trkpt><trkpt lat="45.4214036112858" lon="8.056182265300006"><ele>279.59999999999997</ele><time>2026-04-06T13:51:24Z</time></trkpt><trkpt lat="45.42137674420621" lon="8.056318274512781"><ele>280.2</ele><time>2026-04-06T13:51:25Z</time></trkpt><trkpt lat="45.42134563416732" lon="8.056467286484462"><ele>280.79999999999995</ele><time>2026-04-06T13:51:26Z</time></trkpt><trkpt lat="45.421313970917154" lon="8.056624567498323"><ele>281.4</ele><time>2026-04-06T13:51:27Z</time></trkpt><trkpt lat="45.42128445370186" lon="8.0567713612593"><ele>282.0</ele><time>2026-04-06T13:51:28Z</time></trkpt><trkpt lat="45.421257660535446" lon="8.056906786128708"><ele>280.8333333333333</ele><time>2026-04-06T13:51:29Z</time></trkpt><trkpt lat="45.421231409598555" lon="8.057034526172211"><ele>279.6666666666667</ele><time>2026-04-06T13:51:30Z</time></trkpt><trkpt lat="45.42120278253885" lon="8.057144664485573"><ele>278.5</ele><time>2026-04-06T13:51:31Z</time></trkpt><trkpt lat="45.421162105900855" lon="8.057234507426388"><ele>277.33333333333337</ele><time>2026-04-06T13:51:32Z</time></trkpt><trkpt lat="45.42109955626584" lon="8.057300016535669"><ele>276.1666666666667</ele><time>2026-04-06T13:51:33Z</time></trkpt><trkpt lat="45.42103814050378" lon="8.057368222322687"><ele>275.0</ele><time>2026-04-06T13:51:34Z</time></trkpt><trkpt lat="45.42100609220073" lon="8.057455869126123"><ele>275.0</ele><time>2026-04-06T13:51:35Z</time></trkpt><trkpt lat="45.42101151951819" lon="8.05755934100492"><ele>275.0</ele><time>2026-04-06T13:51:36Z</time></trkpt><trkpt lat="45.42103378323225" lon="8.057671863616472"><ele>275.0</ele><time>2026-04-06T13:51:37Z</time></trkpt><trkpt lat="45.4210568329282" lon="8.057798188780497"><ele>275.0</ele><time>2026-04-06T13:51:38Z</time></trkpt><trkpt lat="45.42105110148983" lon="8.057946551377007"><ele>275.0</ele><time>2026-04-06T13:51:39Z</time></trkpt><trkpt lat="45.42101306035445" lon="8.058109287831712"><ele>275.0</ele><time>2026-04-06T13:51:40Z</time></trkpt><trkpt lat="45.42096098983379" lon="8.058275030912945"><ele>275.0</ele><time>2026-04-06T13:51:41Z</time></trkpt><trkpt lat="45.42090070837096" lon="8.058441495472557"><ele>275.0</ele><time>2026-04-06T13:51:42Z</time></trkpt><trkpt lat="45.420843668246484" lon="8.058596783934409"><ele>275.0</ele><time>2026-04-06T13:51:43Z</time></trkpt><trkpt lat="45.420782232846356" lon="8.05874591219974"><ele>275.75</ele><time>2026-04-06T13:51:44Z</time></trkpt><trkpt lat="45.420707729983356" lon="8.05889688780413"><ele>276.5</ele><time>2026-04-06T13:51:45Z</time></trkpt><trkpt lat="45.42063104794105" lon="8.059057366354335"><ele>277.25</ele><time>2026-04-06T13:51:46Z</time></trkpt><trkpt lat="45.42055718100242" lon="8.059216419413218"><ele>278.0</ele><time>2026-04-06T13:51:47Z</time></trkpt><trkpt lat="45.42047948661131" lon="8.059375399942462"><ele>278.75</ele><time>2026-04-06T13:51:48Z</time></trkpt><trkpt lat="45.42040247740157" lon="8.059534734836763"><ele>279.5</ele><time>2026-04-06T13:51:49Z</time></trkpt><trkpt lat="45.42032440151309" lon="8.059695531833498"><ele>280.25</ele><time>2026-04-06T13:51:50Z</time></trkpt><trkpt lat="45.42024665282352" lon="8.059858909987438"><ele>281.0</ele><time>2026-04-06T13:51:51Z</time></trkpt><trkpt lat="45.42016980226325" lon="8.060022627704914"><ele>281.0</ele><time>2026-04-06T13:51:52Z</time></trkpt><trkpt lat="45.42009093460835" lon="8.060188267873404"><ele>281.0</ele><time>2026-04-06T13:51:53Z</time></trkpt><trkpt lat="45.420011620026386" lon="8.060354129907275"><ele>281.0</ele><time>2026-04-06T13:51:54Z</time></trkpt><trkpt lat="45.41992888841371" lon="8.060521280617474"><ele>281.0</ele><time>2026-04-06T13:51:55Z</time></trkpt><trkpt lat="45.41984372995818" lon="8.060696314770233"><ele>281.33333333333337</ele><time>2026-04-06T13:51:56Z</time></trkpt><trkpt lat="45.419755853180156" lon="8.060879646575628"><ele>281.6666666666667</ele><time>2026-04-06T13:51:57Z</time></trkpt><trkpt lat="45.419667809162924" lon="8.061059716624527"><ele>282.0</ele><time>2026-04-06T13:51:58Z</time></trkpt><trkpt lat="45.41958072072669" lon="8.061234742806358"><ele>281.0</ele><time>2026-04-06T13:51:59Z</time></trkpt><trkpt lat="45.419492949094995" lon="8.061413075850577"><ele>280.0</ele><time>2026-04-06T13:52:00Z</time></trkpt><trkpt lat="45.419403723806155" lon="8.061597736160806"><ele>279.0</ele><time>2026-04-06T13:52:01Z</time></trkpt><trkpt lat="45.41931501165588" lon="8.06178696699998"><ele>279.0</ele><time>2026-04-06T13:52:02Z</time></trkpt><trkpt lat="45.419224973162514" lon="8.061977141304663"><ele>279.0</ele><time>2026-04-06T13:52:03Z</time></trkpt><trkpt lat="45.41913423646416" lon="8.062166661440472"><ele>279.0</ele><time>2026-04-06T13:52:04Z</time></trkpt><trkpt lat="45.41904510536766" lon="8.062353221536558"><ele>279.5</ele><time>2026-04-06T13:52:05Z</time></trkpt><trkpt lat="45.418961776648665" lon="8.06252701522673"><ele>280.0</ele><time>2026-04-06T13:52:06Z</time></trkpt><trkpt lat="45.418882733431175" lon="8.06269327141928"><ele>280.5</ele><time>2026-04-06T13:52:07Z</time></trkpt><trkpt lat="45.41880822860396" lon="8.062853307646083"><ele>281.0</ele><time>2026-04-06T13:52:08Z</time></trkpt><trkpt lat="45.41873258205047" lon="8.063009287184244"><ele>281.0</ele><time>2026-04-06T13:52:09Z</time></trkpt><trkpt lat="45.418651350697125" lon="8.063177288628259"><ele>281.0</ele><time>2026-04-06T13:52:10Z</time></trkpt><trkpt lat="45.41856483589476" lon="8.063353982339697"><ele>281.0</ele><time>2026-04-06T13:52:11Z</time></trkpt><trkpt lat="45.41847613327562" lon="8.06353820174027"><ele>282.0</ele><time>2026-04-06T13:52:12Z</time></trkpt><trkpt lat="45.418386519630126" lon="8.063724096114662"><ele>283.0</ele><time>2026-04-06T13:52:13Z</time></trkpt><trkpt lat="45.418299609498945" lon="8.063906718383587"><ele>284.0</ele><time>2026-04-06T13:52:14Z</time></trkpt><trkpt lat="45.41821416412159" lon="8.064080915612957"><ele>284.33333333333337</ele><time>2026-04-06T13:52:15Z</time></trkpt><trkpt lat="45.41812486108046" lon="8.06425514282591"><ele>284.6666666666667</ele><time>2026-04-06T13:52:16Z</time></trkpt><trkpt lat="45.41802491126247" lon="8.064433797126052"><ele>285.0</ele><time>2026-04-06T13:52:17Z</time></trkpt><trkpt lat="45.41791718079319" lon="8.064607773748945"><ele>285.0</ele><time>2026-04-06T13:52:18Z</time></trkpt><trkpt lat="45.417805821825674" lon="8.064769349265061"><ele>285.0</ele><time>2026-04-06T13:52:19Z</time></trkpt><trkpt lat="45.41769431439448" lon="8.064915037805104"><ele>285.0</ele><time>2026-04-06T13:52:20Z</time></trkpt><trkpt lat="45.41758575919868" lon="8.06504607177222"><ele>285.75</ele><time>2026-04-06T13:52:21Z</time></trkpt><trkpt lat="45.41747891162643" lon="8.065163472158874"><ele>286.5</ele><time>2026-04-06T13:52:22Z</time></trkpt><trkpt lat="45.417374427951984" lon="8.06527181852017"><ele>287.25</ele><time>2026-04-06T13:52:23Z</time></trkpt><trkpt lat="45.4172727205871" lon="8.065374358473136"><ele>288.0</ele><time>2026-04-06T13:52:24Z</time></trkpt><trkpt lat="45.417173699957715" lon="8.065480747867"><ele>287.5</ele><time>2026-04-06T13:52:25Z</time></trkpt><trkpt lat="45.41707707948306" lon="8.065579292534492"><ele>287.0</ele><time>2026-04-06T13:52:26Z</time></trkpt><trkpt lat="45.416980245841096" lon="8.065673146477103"><ele>286.5</ele><time>2026-04-06T13:52:27Z</time></trkpt><trkpt lat="45.41688535801355" lon="8.065766473862741"><ele>286.0</ele><time>2026-04-06T13:52:28Z</time></trkpt><trkpt lat="45.41678988263542" lon="8.065858895106903"><ele>286.0</ele><time>2026-04-06T13:52:29Z</time></trkpt><trkpt lat="45.41669079328408" lon="8.065954689284794"><ele>286.0</ele><time>2026-04-06T13:52:30Z</time></trkpt><trkpt lat="45.41658738966877" lon="8.066055374830453"><ele>286.0</ele><time>2026-04-06T13:52:31Z</time></trkpt><trkpt lat="45.416485059388975" lon="8.066156389138785"><ele>286.0</ele><time>2026-04-06T13:52:32Z</time></trkpt><trkpt lat="45.41638741738858" lon="8.066249097327432"><ele>285.75</ele><time>2026-04-06T13:52:33Z</time></trkpt><trkpt lat="45.416284480734376" lon="8.066342772951796"><ele>285.5</ele><time>2026-04-06T13:52:34Z</time></trkpt><trkpt lat="45.4161798822032" lon="8.066447764717696"><ele>285.25</ele><time>2026-04-06T13:52:35Z</time></trkpt><trkpt lat="45.416079745253285" lon="8.066557936846776"><ele>285.0</ele><time>2026-04-06T13:52:36Z</time></trkpt><trkpt lat="45.41597520913301" lon="8.066681093130272"><ele>285.0</ele><time>2026-04-06T13:52:37Z</time></trkpt><trkpt lat="45.41587189937339" lon="8.066813512929674"><ele>285.0</ele><time>2026-04-06T13:52:38Z</time></trkpt><trkpt lat="45.41575949020208" lon="8.06697037276995"><ele>285.0</ele><time>2026-04-06T13:52:39Z</time></trkpt><trkpt lat="45.415653079458025" lon="8.067122699297931"><ele>285.0</ele><time>2026-04-06T13:52:40Z</time></trkpt><trkpt lat="45.415550944066936" lon="8.067261685306475"><ele>283.6666666666667</ele><time>2026-04-06T13:52:41Z</time></trkpt><trkpt lat="45.41544574004548" lon="8.067407562373162"><ele>282.33333333333337</ele><time>2026-04-06T13:52:42Z</time></trkpt><trkpt lat="45.41533746707668" lon="8.067557681481249"><ele>281.0</ele><time>2026-04-06T13:52:43Z</time></trkpt><trkpt lat="45.41523067186576" lon="8.067711372701826"><ele>281.0</ele><time>2026-04-06T13:52:44Z</time></trkpt><trkpt lat="45.415128698221714" lon="8.067862586782327"><ele>281.0</ele><time>2026-04-06T13:52:45Z</time></trkpt><trkpt lat="45.415022523616855" lon="8.068010950475479"><ele>281.0</ele><time>2026-04-06T13:52:46Z</time></trkpt><trkpt lat="45.41492213198654" lon="8.068154456363088"><ele>281.0</ele><time>2026-04-06T13:52:47Z</time></trkpt><trkpt lat="45.4148234287643" lon="8.068297059343976"><ele>280.25</ele><time>2026-04-06T13:52:48Z</time></trkpt><trkpt lat="45.41472775248591" lon="8.068434884696003"><ele>279.5</ele><time>2026-04-06T13:52:49Z</time></trkpt><trkpt lat="45.41463052245844" lon="8.068573359491705"><ele>278.75</ele><time>2026-04-06T13:52:50Z</time></trkpt><trkpt lat="45.41453411412373" lon="8.068713217416539"><ele>278.0</ele><time>2026-04-06T13:52:51Z</time></trkpt><trkpt lat="45.41444144646127" lon="8.06884894834784"><ele>278.0</ele><time>2026-04-06T13:52:52Z</time></trkpt><trkpt lat="45.414346404174296" lon="8.068985901714433"><ele>278.0</ele><time>2026-04-06T13:52:53Z</time></trkpt><trkpt lat="45.414250966841514" lon="8.069126748837476"><ele>278.0</ele><time>2026-04-06T13:52:54Z</time></trkpt><trkpt lat="45.41416028255529" lon="8.069267190703258"><ele>278.0</ele><time>2026-04-06T13:52:55Z</time></trkpt><trkpt lat="45.41407383004476" lon="8.06940526373919"><ele>279.0</ele><time>2026-04-06T13:52:56Z</time></trkpt><trkpt lat="45.413989655914364" lon="8.069543052746235"><ele>280.0</ele><time>2026-04-06T13:52:57Z</time></trkpt><trkpt lat="45.41390442461156" lon="8.069691926018749"><ele>281.0</ele><time>2026-04-06T13:52:58Z</time></trkpt><trkpt lat="45.41380938848748" lon="8.069860114273418"><ele>282.0</ele><time>2026-04-06T13:52:59Z</time></trkpt><trkpt lat="45.4137090991492" lon="8.070042410852775"><ele>282.0</ele><time>2026-04-06T13:53:00Z</time></trkpt><trkpt lat="45.413610028227644" lon="8.070216889036892"><ele>282.0</ele><time>2026-04-06T13:53:01Z</time></trkpt><trkpt lat="45.41351539027372" lon="8.070378364316259"><ele>282.0</ele><time>2026-04-06T13:53:02Z</time></trkpt><trkpt lat="45.41342294942093" lon="8.07053513918323"><ele>282.0</ele><time>2026-04-06T13:53:03Z</time></trkpt><trkpt lat="45.413328812040355" lon="8.07069372235067"><ele>280.5</ele><time>2026-04-06T13:53:04Z</time></trkpt><trkpt lat="45.41323774664326" lon="8.070843950671001"><ele>279.0</ele><time>2026-04-06T13:53:05Z</time></trkpt><trkpt lat="45.41314992542565" lon="8.070998542364729"><ele>277.5</ele><time>2026-04-06T13:53:06Z</time></trkpt><trkpt lat="45.41306496050799" lon="8.071151008980186"><ele>276.0</ele><time>2026-04-06T13:53:07Z</time></trkpt><trkpt lat="45.41298490896901" lon="8.071298309272672"><ele>276.0</ele><time>2026-04-06T13:53:08Z</time></trkpt><trkpt lat="45.412910129500325" lon="8.071438689650808"><ele>276.0</ele><time>2026-04-06T13:53:09Z</time></trkpt><trkpt lat="45.41283807745332" lon="8.071573182459524"><ele>276.0</ele><time>2026-04-06T13:53:10Z</time></trkpt><trkpt lat="45.41276797759475" lon="8.071707694877205"><ele>276.0</ele><time>2026-04-06T13:53:11Z</time></trkpt><trkpt lat="45.41269715428427" lon="8.07184880005237"><ele>278.25</ele><time>2026-04-06T13:53:12Z</time></trkpt><trkpt lat="45.412623740422305" lon="8.07200463430149"><ele>280.5</ele><time>2026-04-06T13:53:13Z</time></trkpt><trkpt lat="45.41256003766538" lon="8.072162052045284"><ele>282.75</ele><time>2026-04-06T13:53:14Z</time></trkpt><trkpt lat="45.41250192869748" lon="8.072318867898693"><ele>285.0</ele><time>2026-04-06T13:53:15Z</time></trkpt><trkpt lat="45.41244658979263" lon="8.072480404856986"><ele>286.5</ele><time>2026-04-06T13:53:16Z</time></trkpt><trkpt lat="45.41239911570152" lon="8.072646626909442"><ele>288.0</ele><time>2026-04-06T13:53:17Z</time></trkpt><trkpt lat="45.412335033710406" lon="8.072844180019446"><ele>289.5</ele><time>2026-04-06T13:53:18Z</time></trkpt><trkpt lat="45.41228199514427" lon="8.073072636147417"><ele>291.0</ele><time>2026-04-06T13:53:19Z</time></trkpt><trkpt lat="45.41222931106282" lon="8.073339037163354"><ele>291.3333333333333</ele><time>2026-04-06T13:53:20Z</time></trkpt><trkpt lat="45.41217337071518" lon="8.073638963568529"><ele>291.66666666666663</ele><time>2026-04-06T13:53:21Z</time></trkpt><trkpt lat="45.41212512723576" lon="8.07394122187431"><ele>292.0</ele><time>2026-04-06T13:53:22Z</time></trkpt><trkpt lat="45.41206828167208" lon="8.074173580926645"><ele>292.3333333333333</ele><time>2026-04-06T13:53:23Z</time></trkpt><trkpt lat="45.41201065407995" lon="8.074379791261103"><ele>292.6666666666667</ele><time>2026-04-06T13:53:24Z</time></trkpt><trkpt lat="45.41194275756767" lon="8.074561148922712"><ele>293.0</ele><time>2026-04-06T13:53:25Z</time></trkpt><trkpt lat="45.411854231880326" lon="8.07474647872584"><ele>293.0</ele><time>2026-04-06T13:53:26Z</time></trkpt><trkpt lat="45.41175269276205" lon="8.074923123052587"><ele>293.0</ele><time>2026-04-06T13:53:27Z</time></trkpt><trkpt lat="45.41164858204203" lon="8.075096218260288"><ele>293.0</ele><time>2026-04-06T13:53:28Z</time></trkpt><trkpt lat="45.41154697776098" lon="8.07526294836886"><ele>292.33333333333337</ele><time>2026-04-06T13:53:29Z</time></trkpt><trkpt lat="45.4114442291034" lon="8.075421046795787"><ele>291.6666666666667</ele><time>2026-04-06T13:53:30Z</time></trkpt><trkpt lat="45.41133149457412" lon="8.07557827766624"><ele>291.0</ele><time>2026-04-06T13:53:31Z</time></trkpt><trkpt lat="45.41121861315375" lon="8.075730780424628"><ele>291.6666666666667</ele><time>2026-04-06T13:53:32Z</time></trkpt><trkpt lat="45.411103618493485" lon="8.07586734339926"><ele>292.33333333333337</ele><time>2026-04-06T13:53:33Z</time></trkpt><trkpt lat="45.41097994561021" lon="8.076015278789166"><ele>293.0</ele><time>2026-04-06T13:53:34Z</time></trkpt><trkpt lat="45.410836243678474" lon="8.076169477433556"><ele>293.0</ele><time>2026-04-06T13:53:35Z</time></trkpt><trkpt lat="45.41067352126747" lon="8.076357918493834"><ele>293.0</ele><time>2026-04-06T13:53:36Z</time></trkpt><trkpt lat="45.41049441324156" lon="8.076565334968688"><ele>293.0</ele><time>2026-04-06T13:53:37Z</time></trkpt><trkpt lat="45.41030994405824" lon="8.076789630844381"><ele>294.0</ele><time>2026-04-06T13:53:38Z</time></trkpt><trkpt lat="45.41010412636994" lon="8.077010068273985"><ele>295.0</ele><time>2026-04-06T13:53:39Z</time></trkpt><trkpt lat="45.40990962075383" lon="8.077247080667668"><ele>298.3333333333333</ele><time>2026-04-06T13:53:40Z</time></trkpt><trkpt lat="45.409738438265286" lon="8.077472458165602"><ele>301.6666666666667</ele><time>2026-04-06T13:53:41Z</time></trkpt><trkpt lat="45.40958506843963" lon="8.077685540334711"><ele>305.0</ele><time>2026-04-06T13:53:42Z</time></trkpt><trkpt lat="45.40945433929033" lon="8.07788279220754"><ele>305.0</ele><time>2026-04-06T13:53:43Z</time></trkpt><trkpt lat="45.40933170007485" lon="8.078067400755256"><ele>305.0</ele><time>2026-04-06T13:53:44Z</time></trkpt><trkpt lat="45.409216369598" lon="8.078249160185145"><ele>305.0</ele><time>2026-04-06T13:53:45Z</time></trkpt><trkpt lat="45.40909915987195" lon="8.078437224935767"><ele>306.6666666666667</ele><time>2026-04-06T13:53:46Z</time></trkpt><trkpt lat="45.40898071627344" lon="8.078627623515521"><ele>308.3333333333333</ele><time>2026-04-06T13:53:47Z</time></trkpt><trkpt lat="45.40886626628033" lon="8.078818657305147"><ele>310.0</ele><time>2026-04-06T13:53:48Z</time></trkpt><trkpt lat="45.40875346236757" lon="8.079019662309166"><ele>309.0</ele><time>2026-04-06T13:53:49Z</time></trkpt><trkpt lat="45.40863686261272" lon="8.079229667686754"><ele>308.0</ele><time>2026-04-06T13:53:50Z</time></trkpt><trkpt lat="45.408526723670924" lon="8.079438998197556"><ele>307.0</ele><time>2026-04-06T13:53:51Z</time></trkpt><trkpt lat="45.4084163857791" lon="8.079652349141911"><ele>307.0</ele><time>2026-04-06T13:53:52Z</time></trkpt><trkpt lat="45.40830817722568" lon="8.079854070759884"><ele>307.0</ele><time>2026-04-06T13:53:53Z</time></trkpt><trkpt lat="45.40820160232872" lon="8.080048161876116"><ele>307.0</ele><time>2026-04-06T13:53:54Z</time></trkpt><trkpt lat="45.408094550335726" lon="8.080246449028623"><ele>303.0</ele><time>2026-04-06T13:53:55Z</time></trkpt><trkpt lat="45.407988930976295" lon="8.080443379270383"><ele>299.0</ele><time>2026-04-06T13:53:56Z</time></trkpt><trkpt lat="45.40788695650434" lon="8.080636181937681"><ele>295.0</ele><time>2026-04-06T13:53:57Z</time></trkpt><trkpt lat="45.407785039368854" lon="8.080829160436751"><ele>293.66666666666663</ele><time>2026-04-06T13:53:58Z</time></trkpt><trkpt lat="45.407681352201124" lon="8.081022742740918"><ele>292.3333333333333</ele><time>2026-04-06T13:53:59Z</time></trkpt><trkpt lat="45.407576304253354" lon="8.081218180344194"><ele>291.0</ele><time>2026-04-06T13:54:00Z</time></trkpt><trkpt lat="45.40746718109641" lon="8.081421017842496"><ele>290.6666666666667</ele><time>2026-04-06T13:54:01Z</time></trkpt><trkpt lat="45.40736549927271" lon="8.081615328928125"><ele>290.33333333333337</ele><time>2026-04-06T13:54:02Z</time></trkpt><trkpt lat="45.407269814019166" lon="8.081805010905034"><ele>290.0</ele><time>2026-04-06T13:54:03Z</time></trkpt><trkpt lat="45.40717654725448" lon="8.081990833989382"><ele>290.0</ele><time>2026-04-06T13:54:04Z</time></trkpt><trkpt lat="45.40708540976238" lon="8.082186503650231"><ele>290.0</ele><time>2026-04-06T13:54:05Z</time></trkpt><trkpt lat="45.406996756973676" lon="8.082386698817674"><ele>290.0</ele><time>2026-04-06T13:54:06Z</time></trkpt><trkpt lat="45.4069169428099" lon="8.082598438204773"><ele>289.33333333333337</ele><time>2026-04-06T13:54:07Z</time></trkpt><trkpt lat="45.406847795126566" lon="8.082826934654111"><ele>288.6666666666667</ele><time>2026-04-06T13:54:08Z</time></trkpt><trkpt lat="45.40678788039786" lon="8.083070657727509"><ele>288.0</ele><time>2026-04-06T13:54:09Z</time></trkpt><trkpt lat="45.40674068128005" lon="8.08332783480843"><ele>287.6666666666667</ele><time>2026-04-06T13:54:10Z</time></trkpt><trkpt lat="45.406703062444976" lon="8.083575458320679"><ele>287.33333333333337</ele><time>2026-04-06T13:54:11Z</time></trkpt><trkpt lat="45.406664563680145" lon="8.083819917415017"><ele>287.0</ele><time>2026-04-06T13:54:12Z</time></trkpt><trkpt lat="45.40662866323186" lon="8.08405731334528"><ele>286.6666666666667</ele><time>2026-04-06T13:54:13Z</time></trkpt><trkpt lat="45.406598764994264" lon="8.084287544105383"><ele>286.3333333333333</ele><time>2026-04-06T13:54:14Z</time></trkpt><trkpt lat="45.40656761650356" lon="8.084511242185691"><ele>286.0</ele><time>2026-04-06T13:54:15Z</time></trkpt><trkpt lat="45.406538601739754" lon="8.084721263069605"><ele>285.66666666666663</ele><time>2026-04-06T13:54:16Z</time></trkpt><trkpt lat="45.406510658086546" lon="8.084938147415963"><ele>285.3333333333333</ele><time>2026-04-06T13:54:17Z</time></trkpt><trkpt lat="45.406483907723874" lon="8.085159975548253"><ele>285.0</ele><time>2026-04-06T13:54:18Z</time></trkpt><trkpt lat="45.40645831236721" lon="8.085381405988302"><ele>285.0</ele><time>2026-04-06T13:54:19Z</time></trkpt><trkpt lat="45.40643307323393" lon="8.085602499476552"><ele>285.0</ele><time>2026-04-06T13:54:20Z</time></trkpt><trkpt lat="45.406406841462896" lon="8.085828749239925"><ele>285.0</ele><time>2026-04-06T13:54:21Z</time></trkpt><trkpt lat="45.40638066490189" lon="8.086050414555825"><ele>284.6666666666667</ele><time>2026-04-06T13:54:22Z</time></trkpt><trkpt lat="45.406356155126204" lon="8.086261844502678"><ele>284.33333333333337</ele><time>2026-04-06T13:54:23Z</time></trkpt><trkpt lat="45.40633229960751" lon="8.086472935627686"><ele>284.0</ele><time>2026-04-06T13:54:24Z</time></trkpt><trkpt lat="45.40631271634567" lon="8.086684130120764"><ele>283.0</ele><time>2026-04-06T13:54:25Z</time></trkpt><trkpt lat="45.406288509901145" lon="8.08689623082513"><ele>282.0</ele><time>2026-04-06T13:54:26Z</time></trkpt><trkpt lat="45.40626191305679" lon="8.087103434307442"><ele>281.0</ele><time>2026-04-06T13:54:27Z</time></trkpt><trkpt lat="45.40623730982586" lon="8.087297961680369"><ele>280.0</ele><time>2026-04-06T13:54:28.001Z</time></trkpt><trkpt lat="45.40621516973762" lon="8.087466897465172"><ele>280.0</ele><time>2026-04-06T13:54:29.001Z</time></trkpt><trkpt lat="45.406198491925515" lon="8.087612205297665"><ele>280.0</ele><time>2026-04-06T13:54:30.001Z</time></trkpt><trkpt lat="45.40618361354529" lon="8.087745399502566"><ele>280.0</ele><time>2026-04-06T13:54:31.001Z</time></trkpt><trkpt lat="45.40617430800543" lon="8.087861310745925"><ele>280.0</ele><time>2026-04-06T13:54:32.001Z</time></trkpt><trkpt lat="45.40616083465327" lon="8.08796323223892"><ele>280.0</ele><time>2026-04-06T13:54:33.001Z</time></trkpt><trkpt lat="45.40613840807422" lon="8.088109210438096"><ele>280.0</ele><time>2026-04-06T13:54:35.001Z</time></trkpt><trkpt lat="45.406122595530704" lon="8.08821520414409"><ele>280.0</ele><time>2026-04-06T13:54:38.001Z</time></trkpt><trkpt lat="45.40611447840306" lon="8.088315162795581"><ele>280.0</ele><time>2026-04-06T13:54:41.001Z</time></trkpt><trkpt lat="45.40610310578951" lon="8.088411598286983"><ele>280.0</ele><time>2026-04-06T13:54:44Z</time></trkpt><trkpt lat="45.40609179961936" lon="8.088505732035124"><ele>280.0</ele><time>2026-04-06T13:54:48Z</time></trkpt><trkpt lat="45.406079719211846" lon="8.088648584391906"><ele>280.0</ele><time>2026-04-06T13:55:00Z</time></trkpt><trkpt lat="45.40604736153981" lon="8.088737327917702"><ele>280.6</ele><time>2026-04-06T13:55:01Z</time></trkpt><trkpt lat="45.405991508539" lon="8.088815218039977"><ele>281.2</ele><time>2026-04-06T13:55:02Z</time></trkpt><trkpt lat="45.40592040660937" lon="8.08886855949646"><ele>281.8</ele><time>2026-04-06T13:55:03Z</time></trkpt><trkpt lat="45.40583484138464" lon="8.088878226192639"><ele>282.4</ele><time>2026-04-06T13:55:04Z</time></trkpt><trkpt lat="45.405723764443216" lon="8.088924349815201"><ele>283.0</ele><time>2026-04-06T13:55:05Z</time></trkpt><trkpt lat="45.40558415114943" lon="8.088953574257605"><ele>282.66666666666663</ele><time>2026-04-06T13:55:06Z</time></trkpt><trkpt lat="45.405425231604625" lon="8.088991438320795"><ele>282.3333333333333</ele><time>2026-04-06T13:55:07Z</time></trkpt><trkpt lat="45.40525118376222" lon="8.089030933810056"><ele>282.0</ele><time>2026-04-06T13:55:08Z</time></trkpt><trkpt lat="45.40508721409998" lon="8.08907404848364"><ele>280.3333333333333</ele><time>2026-04-06T13:55:09Z</time></trkpt><trkpt lat="45.404926008531795" lon="8.089115540484876"><ele>278.66666666666663</ele><time>2026-04-06T13:55:10Z</time></trkpt><trkpt lat="45.40476096827182" lon="8.089161228593392"><ele>277.0</ele><time>2026-04-06T13:55:11Z</time></trkpt><trkpt lat="45.40457635505892" lon="8.089181930866783"><ele>275.0</ele><time>2026-04-06T13:55:12Z</time></trkpt><trkpt lat="45.40437246803095" lon="8.089228403981537"><ele>273.0</ele><time>2026-04-06T13:55:13Z</time></trkpt><trkpt lat="45.40416004351996" lon="8.089276897504863"><ele>271.0</ele><time>2026-04-06T13:55:14Z</time></trkpt><trkpt lat="45.403963184361956" lon="8.089336352364036"><ele>270.3333333333333</ele><time>2026-04-06T13:55:15Z</time></trkpt><trkpt lat="45.403784729699964" lon="8.089373176884285"><ele>269.6666666666667</ele><time>2026-04-06T13:55:16Z</time></trkpt><trkpt lat="45.403619264486586" lon="8.089407665715145"><ele>269.0</ele><time>2026-04-06T13:55:17Z</time></trkpt><trkpt lat="45.403458758767314" lon="8.08943843442997"><ele>269.0</ele><time>2026-04-06T13:55:18Z</time></trkpt><trkpt lat="45.40330283488691" lon="8.08947046564488"><ele>269.0</ele><time>2026-04-06T13:55:19Z</time></trkpt><trkpt lat="45.403163981144104" lon="8.089506488042394"><ele>269.0</ele><time>2026-04-06T13:55:20Z</time></trkpt><trkpt lat="45.403033994072175" lon="8.089559593657619"><ele>269.0</ele><time>2026-04-06T13:55:21Z</time></trkpt><trkpt lat="45.40292069123807" lon="8.08965377123122"><ele>269.25</ele><time>2026-04-06T13:55:22Z</time></trkpt><trkpt lat="45.40282406393306" lon="8.08977350382665"><ele>269.5</ele><time>2026-04-06T13:55:23Z</time></trkpt><trkpt lat="45.40272329974021" lon="8.08988721123217"><ele>269.75</ele><time>2026-04-06T13:55:24Z</time></trkpt><trkpt lat="45.40267486089335" lon="8.090074066607333"><ele>270.0</ele><time>2026-04-06T13:55:25Z</time></trkpt><trkpt lat="45.4026263306879" lon="8.09024518724446"><ele>269.5</ele><time>2026-04-06T13:55:26Z</time></trkpt><trkpt lat="45.402579439670745" lon="8.090423832652377"><ele>269.0</ele><time>2026-04-06T13:55:27Z</time></trkpt><trkpt lat="45.40253319550898" lon="8.090604090655429"><ele>268.5</ele><time>2026-04-06T13:55:28Z</time></trkpt><trkpt lat="45.40248754057227" lon="8.090787092254791"><ele>268.0</ele><time>2026-04-06T13:55:29Z</time></trkpt><trkpt lat="45.40244194633341" lon="8.090974614218295"><ele>267.75</ele><time>2026-04-06T13:55:30Z</time></trkpt><trkpt lat="45.4023946662578" lon="8.091166156603354"><ele>267.5</ele><time>2026-04-06T13:55:31Z</time></trkpt><trkpt lat="45.40234802059682" lon="8.0913595661057"><ele>267.25</ele><time>2026-04-06T13:55:32Z</time></trkpt><trkpt lat="45.40230351810879" lon="8.091540792788862"><ele>267.0</ele><time>2026-04-06T13:55:33Z</time></trkpt><trkpt lat="45.40225974951362" lon="8.09171711842591"><ele>267.0</ele><time>2026-04-06T13:55:34Z</time></trkpt><trkpt lat="45.402219060247" lon="8.091875571306236"><ele>267.0</ele><time>2026-04-06T13:55:35Z</time></trkpt><trkpt lat="45.40218343880351" lon="8.092015219485207"><ele>267.0</ele><time>2026-04-06T13:55:36Z</time></trkpt><trkpt lat="45.40215202648243" lon="8.092135713384792"><ele>267.0</ele><time>2026-04-06T13:55:37Z</time></trkpt><trkpt lat="45.40212516008547" lon="8.092241123040987"><ele>267.0</ele><time>2026-04-06T13:55:38Z</time></trkpt><trkpt lat="45.402098459892066" lon="8.092370775778004"><ele>266.8333333333333</ele><time>2026-04-06T13:55:40Z</time></trkpt><trkpt lat="45.402088184134264" lon="8.092464471933596"><ele>266.6666666666667</ele><time>2026-04-06T13:55:42Z</time></trkpt><trkpt lat="45.40208205217829" lon="8.092568493597948"><ele>266.5</ele><time>2026-04-06T13:55:44Z</time></trkpt><trkpt lat="45.40217227874906" lon="8.09262878546042"><ele>266.33333333333337</ele><time>2026-04-06T13:55:45Z</time></trkpt><trkpt lat="45.40225817732273" lon="8.092669573658029"><ele>266.1666666666667</ele><time>2026-04-06T13:55:46Z</time></trkpt><trkpt lat="45.40235262174823" lon="8.092702166569241"><ele>266.0</ele><time>2026-04-06T13:55:47Z</time></trkpt><trkpt lat="45.40244543523231" lon="8.092739012220804"><ele>266.40000000000003</ele><time>2026-04-06T13:55:48Z</time></trkpt><trkpt lat="45.40253557448291" lon="8.092783089095239"><ele>266.8</ele><time>2026-04-06T13:55:49Z</time></trkpt><trkpt lat="45.40262722013816" lon="8.092814682944244"><ele>267.20000000000005</ele><time>2026-04-06T13:55:50Z</time></trkpt><trkpt lat="45.40271848697534" lon="8.092850726271417"><ele>267.6</ele><time>2026-04-06T13:55:51Z</time></trkpt><trkpt lat="45.402804780264454" lon="8.092889276146664"><ele>268.0</ele><time>2026-04-06T13:55:52Z</time></trkpt><trkpt lat="45.402884753866644" lon="8.092923074037545"><ele>268.0</ele><time>2026-04-06T13:55:53Z</time></trkpt><trkpt lat="45.402962105544226" lon="8.092956189797935"><ele>268.0</ele><time>2026-04-06T13:55:54Z</time></trkpt><trkpt lat="45.40303265844142" lon="8.092991940728947"><ele>268.0</ele><time>2026-04-06T13:55:55Z</time></trkpt><trkpt lat="45.403111203635554" lon="8.093028567873276"><ele>268.0</ele><time>2026-04-06T13:55:56Z</time></trkpt><trkpt lat="45.40318762375297" lon="8.093065017882468"><ele>268.0</ele><time>2026-04-06T13:55:57Z</time></trkpt><trkpt lat="45.403262765657274" lon="8.093102136173677"><ele>268.0</ele><time>2026-04-06T13:55:58Z</time></trkpt><trkpt lat="45.40333175415475" lon="8.093134589518701"><ele>268.3333333333333</ele><time>2026-04-06T13:55:59Z</time></trkpt><trkpt lat="45.403397146875626" lon="8.093170536132323"><ele>268.66666666666663</ele><time>2026-04-06T13:56:00Z</time></trkpt><trkpt lat="45.40346181324906" lon="8.093215555529378"><ele>269.0</ele><time>2026-04-06T13:56:01Z</time></trkpt><trkpt lat="45.4035428470774" lon="8.093260252171461"><ele>269.3333333333333</ele><time>2026-04-06T13:56:02Z</time></trkpt><trkpt lat="45.4036371144087" lon="8.09332266431439"><ele>269.6666666666667</ele><time>2026-04-06T13:56:03Z</time></trkpt><trkpt lat="45.40374474488912" lon="8.093384971169659"><ele>270.0</ele><time>2026-04-06T13:56:04Z</time></trkpt><trkpt lat="45.40383840602929" lon="8.09343657350292"><ele>270.4</ele><time>2026-04-06T13:56:05Z</time></trkpt><trkpt lat="45.403931271156296" lon="8.093476503307704"><ele>270.8</ele><time>2026-04-06T13:56:06Z</time></trkpt><trkpt lat="45.40403386891515" lon="8.093519881528133"><ele>271.2</ele><time>2026-04-06T13:56:07Z</time></trkpt><trkpt lat="45.4041303003716" lon="8.09355654237798"><ele>271.6</ele><time>2026-04-06T13:56:08Z</time></trkpt><trkpt lat="45.404220746382144" lon="8.093599275202404"><ele>272.0</ele><time>2026-04-06T13:56:09Z</time></trkpt><trkpt lat="45.404301550831406" lon="8.093635086628574"><ele>272.0</ele><time>2026-04-06T13:56:10Z</time></trkpt><trkpt lat="45.40436895136672" lon="8.09366906516852"><ele>272.0</ele><time>2026-04-06T13:56:11Z</time></trkpt><trkpt lat="45.40444415784224" lon="8.09369326123377"><ele>272.0</ele><time>2026-04-06T13:56:12Z</time></trkpt><trkpt lat="45.404537172990096" lon="8.093718811184687"><ele>272.0</ele><time>2026-04-06T13:56:13Z</time></trkpt><trkpt lat="45.404612949122345" lon="8.09373736485753"><ele>272.0</ele><time>2026-04-06T13:56:14Z</time></trkpt><trkpt lat="45.40467479659133" lon="8.093765794934543"><ele>272.0</ele><time>2026-04-06T13:56:15Z</time></trkpt><trkpt lat="45.40477281821543" lon="8.093811879269035"><ele>272.0</ele><time>2026-04-06T13:56:17Z</time></trkpt><trkpt lat="45.40487108514545" lon="8.093856833666813"><ele>272.0</ele><time>2026-04-06T13:56:19Z</time></trkpt><trkpt lat="45.40496644998842" lon="8.093891034052643"><ele>272.0</ele><time>2026-04-06T13:56:21Z</time></trkpt><trkpt lat="45.40506480029671" lon="8.093922759673756"><ele>272.0</ele><time>2026-04-06T13:56:23Z</time></trkpt><trkpt lat="45.405155876978505" lon="8.093958921684854"><ele>272.0</ele><time>2026-04-06T13:56:25Z</time></trkpt><trkpt lat="45.40522852846326" lon="8.093986316788945"><ele>272.0</ele><time>2026-04-06T13:56:27Z</time></trkpt><trkpt lat="45.40529206813985" lon="8.094007105315798"><ele>272.0</ele><time>2026-04-06T13:56:29Z</time></trkpt><trkpt lat="45.4053566887206" lon="8.094030963275522"><ele>272.0</ele><time>2026-04-06T13:56:31Z</time></trkpt><trkpt lat="45.40544057652785" lon="8.094062582690407"><ele>272.0</ele><time>2026-04-06T13:56:33Z</time></trkpt><trkpt lat="45.405546332129916" lon="8.094096645268571"><ele>272.0</ele><time>2026-04-06T13:56:35.001Z</time></trkpt><trkpt lat="45.405657958867856" lon="8.09412284331881"><ele>272.0</ele><time>2026-04-06T13:56:37.001Z</time></trkpt><trkpt lat="45.40577390085391" lon="8.094145277879717"><ele>272.0</ele><time>2026-04-06T13:56:39.001Z</time></trkpt><trkpt lat="45.405875232749224" lon="8.094162610886443"><ele>272.0</ele><time>2026-04-06T13:56:41.001Z</time></trkpt><trkpt lat="45.40595900257432" lon="8.094234345711886"><ele>272.0</ele><time>2026-04-06T13:56:43.001Z</time></trkpt><trkpt lat="45.40601168299584" lon="8.094304883566387"><ele>272.0</ele><time>2026-04-06T13:56:44.001Z</time></trkpt><trkpt lat="45.40604924145221" lon="8.094404142298151"><ele>272.0</ele><time>2026-04-06T13:56:45.001Z</time></trkpt><trkpt lat="45.406015927916854" lon="8.094552816012827"><ele>272.0</ele><time>2026-04-06T13:56:46.001Z</time></trkpt><trkpt lat="45.40600981374894" lon="8.094692216061217"><ele>272.0</ele><time>2026-04-06T13:56:47.001Z</time></trkpt><trkpt lat="45.40599935355409" lon="8.094829597104948"><ele>272.0</ele><time>2026-04-06T13:56:48.001Z</time></trkpt><trkpt lat="45.40598758176874" lon="8.094968821057265"><ele>272.0</ele><time>2026-04-06T13:56:49.001Z</time></trkpt><trkpt lat="45.40597945740487" lon="8.095109980126853"><ele>272.0</ele><time>2026-04-06T13:56:50.001Z</time></trkpt><trkpt lat="45.4059708688333" lon="8.095249715942852"><ele>271.25</ele><time>2026-04-06T13:56:51.001Z</time></trkpt><trkpt lat="45.40596456003466" lon="8.095392499151712"><ele>270.5</ele><time>2026-04-06T13:56:52.001Z</time></trkpt><trkpt lat="45.40596216732796" lon="8.095548156279715"><ele>269.75</ele><time>2026-04-06T13:56:53.001Z</time></trkpt><trkpt lat="45.40596331570884" lon="8.095718745302904"><ele>269.0</ele><time>2026-04-06T13:56:54.001Z</time></trkpt><trkpt lat="45.40596719598356" lon="8.095912554856566"><ele>268.6666666666667</ele><time>2026-04-06T13:56:55.001Z</time></trkpt><trkpt lat="45.40597249228035" lon="8.096120867879968"><ele>268.3333333333333</ele><time>2026-04-06T13:56:56.001Z</time></trkpt><trkpt lat="45.40597908342588" lon="8.096348710919258"><ele>268.0</ele><time>2026-04-06T13:56:57.001Z</time></trkpt><trkpt lat="45.405983353828866" lon="8.096578019730966"><ele>267.75</ele><time>2026-04-06T13:56:58.001Z</time></trkpt><trkpt lat="45.405986216390836" lon="8.096792413133045"><ele>267.5</ele><time>2026-04-06T13:56:59.001Z</time></trkpt><trkpt lat="45.40598833147422" lon="8.097008796791744"><ele>267.25</ele><time>2026-04-06T13:57:00.001Z</time></trkpt><trkpt lat="45.40598254185549" lon="8.097216610723871"><ele>267.0</ele><time>2026-04-06T13:57:01Z</time></trkpt><trkpt lat="45.40596077854206" lon="8.097419027233006"><ele>266.25</ele><time>2026-04-06T13:57:02Z</time></trkpt><trkpt lat="45.40592939934359" lon="8.097616524321142"><ele>265.5</ele><time>2026-04-06T13:57:03Z</time></trkpt><trkpt lat="45.40588684832721" lon="8.097805173707261"><ele>264.75</ele><time>2026-04-06T13:57:04Z</time></trkpt><trkpt lat="45.40583693153825" lon="8.097981937336348"><ele>264.0</ele><time>2026-04-06T13:57:05Z</time></trkpt><trkpt lat="45.40578907336533" lon="8.098132750816498"><ele>264.0</ele><time>2026-04-06T13:57:06Z</time></trkpt><trkpt lat="45.40574907779812" lon="8.09824664085765"><ele>264.0</ele><time>2026-04-06T13:57:07Z</time></trkpt><trkpt lat="45.40571465161169" lon="8.098340612676001"><ele>264.0</ele><time>2026-04-06T13:57:08Z</time></trkpt><trkpt lat="45.40568535562034" lon="8.098440009632736"><ele>264.0</ele><time>2026-04-06T13:57:09Z</time></trkpt><trkpt lat="45.405644934322424" lon="8.098567494582335"><ele>264.0</ele><time>2026-04-06T13:57:10Z</time></trkpt><trkpt lat="45.405592155245934" lon="8.098725828008254"><ele>263.0</ele><time>2026-04-06T13:57:11Z</time></trkpt><trkpt lat="45.4055294116871" lon="8.098894270432805"><ele>262.0</ele><time>2026-04-06T13:57:12Z</time></trkpt><trkpt lat="45.405458863297014" lon="8.099077306098508"><ele>261.0</ele><time>2026-04-06T13:57:13Z</time></trkpt><trkpt lat="45.40538715400258" lon="8.099276030282267"><ele>260.0</ele><time>2026-04-06T13:57:14Z</time></trkpt><trkpt lat="45.40531533719876" lon="8.099484925991563"><ele>259.33333333333337</ele><time>2026-04-06T13:57:15Z</time></trkpt><trkpt lat="45.405249007487626" lon="8.09968554022476"><ele>258.6666666666667</ele><time>2026-04-06T13:57:16Z</time></trkpt><trkpt lat="45.4051822048603" lon="8.099878536789044"><ele>258.0</ele><time>2026-04-06T13:57:17Z</time></trkpt><trkpt lat="45.405119560077836" lon="8.10006684346061"><ele>257.6666666666667</ele><time>2026-04-06T13:57:18Z</time></trkpt><trkpt lat="45.405057036661034" lon="8.100260267198689"><ele>257.33333333333337</ele><time>2026-04-06T13:57:19Z</time></trkpt><trkpt lat="45.40499234258815" lon="8.100460895414418"><ele>257.0</ele><time>2026-04-06T13:57:20Z</time></trkpt><trkpt lat="45.40492574363083" lon="8.100659992492584"><ele>256.6666666666667</ele><time>2026-04-06T13:57:21Z</time></trkpt><trkpt lat="45.40485786844379" lon="8.100861681955244"><ele>256.3333333333333</ele><time>2026-04-06T13:57:22Z</time></trkpt><trkpt lat="45.40479035320343" lon="8.101069177148574"><ele>256.0</ele><time>2026-04-06T13:57:23Z</time></trkpt><trkpt lat="45.40471915856262" lon="8.10129231782411"><ele>256.3333333333333</ele><time>2026-04-06T13:57:24Z</time></trkpt><trkpt lat="45.40464434620396" lon="8.101524366387386"><ele>256.6666666666667</ele><time>2026-04-06T13:57:25Z</time></trkpt><trkpt lat="45.40456672053169" lon="8.101759805494764"><ele>257.0</ele><time>2026-04-06T13:57:26Z</time></trkpt><trkpt lat="45.404487833600804" lon="8.101996665023409"><ele>257.0</ele><time>2026-04-06T13:57:27Z</time></trkpt><trkpt lat="45.404407972317124" lon="8.102237912881474"><ele>257.0</ele><time>2026-04-06T13:57:28Z</time></trkpt><trkpt lat="45.40432910667455" lon="8.102472567093841"><ele>257.0</ele><time>2026-04-06T13:57:29Z</time></trkpt><trkpt lat="45.40425092978842" lon="8.102713365723003"><ele>256.0</ele><time>2026-04-06T13:57:30Z</time></trkpt><trkpt lat="45.40417360494656" lon="8.102953303377655"><ele>255.0</ele><time>2026-04-06T13:57:31Z</time></trkpt><trkpt lat="45.40409467215457" lon="8.10319147866762"><ele>254.0</ele><time>2026-04-06T13:57:32Z</time></trkpt><trkpt lat="45.404014590898456" lon="8.103441090752513"><ele>253.33333333333334</ele><time>2026-04-06T13:57:33Z</time></trkpt><trkpt lat="45.40393077200241" lon="8.103704687977283"><ele>252.66666666666669</ele><time>2026-04-06T13:57:34Z</time></trkpt><trkpt lat="45.40384320245531" lon="8.1039782870751"><ele>252.0</ele><time>2026-04-06T13:57:35Z</time></trkpt><trkpt lat="45.40375159482743" lon="8.104265968881265"><ele>251.5</ele><time>2026-04-06T13:57:36Z</time></trkpt><trkpt lat="45.40366106035057" lon="8.104562733117092"><ele>251.0</ele><time>2026-04-06T13:57:37Z</time></trkpt><trkpt lat="45.40355234494623" lon="8.104856295966458"><ele>251.5</ele><time>2026-04-06T13:57:38Z</time></trkpt><trkpt lat="45.40345145717916" lon="8.10516226612666"><ele>252.0</ele><time>2026-04-06T13:57:39Z</time></trkpt><trkpt lat="45.40336152654362" lon="8.105482504890777"><ele>251.5</ele><time>2026-04-06T13:57:40Z</time></trkpt><trkpt lat="45.40325499066665" lon="8.10578728598016"><ele>251.0</ele><time>2026-04-06T13:57:41Z</time></trkpt><trkpt lat="45.4031545258629" lon="8.10608391178119"><ele>251.0</ele><time>2026-04-06T13:57:42Z</time></trkpt><trkpt lat="45.40305566729387" lon="8.106375940496404"><ele>251.0</ele><time>2026-04-06T13:57:43Z</time></trkpt><trkpt lat="45.40296149377129" lon="8.10665927307053"><ele>251.0</ele><time>2026-04-06T13:57:44Z</time></trkpt><trkpt lat="45.40286958709394" lon="8.106933514193157"><ele>250.66666666666669</ele><time>2026-04-06T13:57:45Z</time></trkpt><trkpt lat="45.40277953217672" lon="8.10720500166225"><ele>250.33333333333331</ele><time>2026-04-06T13:57:46Z</time></trkpt><trkpt lat="45.40268994110093" lon="8.107475827117783"><ele>250.0</ele><time>2026-04-06T13:57:47Z</time></trkpt><trkpt lat="45.40260063028776" lon="8.107749157818228"><ele>250.0</ele><time>2026-04-06T13:57:48Z</time></trkpt><trkpt lat="45.402508297874945" lon="8.10802552653361"><ele>250.0</ele><time>2026-04-06T13:57:49Z</time></trkpt><trkpt lat="45.4024136044712" lon="8.108303036617935"><ele>250.0</ele><time>2026-04-06T13:57:50Z</time></trkpt><trkpt lat="45.402311827054305" lon="8.10857962713928"><ele>250.33333333333331</ele><time>2026-04-06T13:57:51Z</time></trkpt><trkpt lat="45.40219955237195" lon="8.108847299401134"><ele>250.66666666666669</ele><time>2026-04-06T13:57:52Z</time></trkpt><trkpt lat="45.402071134566256" lon="8.109098940298713"><ele>251.0</ele><time>2026-04-06T13:57:53Z</time></trkpt><trkpt lat="45.401923701711624" lon="8.10933338837476"><ele>249.33333333333334</ele><time>2026-04-06T13:57:54Z</time></trkpt><trkpt lat="45.40176698929844" lon="8.10955060425943"><ele>247.66666666666669</ele><time>2026-04-06T13:57:55Z</time></trkpt><trkpt lat="45.401609122107" lon="8.10976263668246"><ele>246.0</ele><time>2026-04-06T13:57:56Z</time></trkpt><trkpt lat="45.401458839656975" lon="8.109973055511142"><ele>245.0</ele><time>2026-04-06T13:57:57Z</time></trkpt><trkpt lat="45.401308940051344" lon="8.110183842350816"><ele>244.0</ele><time>2026-04-06T13:57:58Z</time></trkpt><trkpt lat="45.40115611703715" lon="8.110397801513692"><ele>243.0</ele><time>2026-04-06T13:57:59Z</time></trkpt><trkpt lat="45.40100200086574" lon="8.110609692496412"><ele>243.0</ele><time>2026-04-06T13:58:00Z</time></trkpt><trkpt lat="45.40084860074007" lon="8.110820841745022"><ele>243.0</ele><time>2026-04-06T13:58:01Z</time></trkpt><trkpt lat="45.400696991161965" lon="8.11103227620619"><ele>243.0</ele><time>2026-04-06T13:58:02Z</time></trkpt><trkpt lat="45.40054740532318" lon="8.111240321801692"><ele>242.66666666666669</ele><time>2026-04-06T13:58:03Z</time></trkpt><trkpt lat="45.40039826619546" lon="8.111450954290474"><ele>242.33333333333334</ele><time>2026-04-06T13:58:04Z</time></trkpt><trkpt lat="45.4002487714576" lon="8.111663283227468"><ele>242.0</ele><time>2026-04-06T13:58:05Z</time></trkpt><trkpt lat="45.40009718338545" lon="8.111878185412472"><ele>242.0</ele><time>2026-04-06T13:58:06Z</time></trkpt><trkpt lat="45.399943987810104" lon="8.112093296197308"><ele>242.0</ele><time>2026-04-06T13:58:07Z</time></trkpt><trkpt lat="45.39979018958097" lon="8.112309021347103"><ele>242.0</ele><time>2026-04-06T13:58:08Z</time></trkpt><trkpt lat="45.39963557899621" lon="8.112525788163955"><ele>241.33333333333334</ele><time>2026-04-06T13:58:09Z</time></trkpt><trkpt lat="45.3994791383099" lon="8.11274380893402"><ele>240.66666666666669</ele><time>2026-04-06T13:58:10Z</time></trkpt><trkpt lat="45.39932084867634" lon="8.112963207299005"><ele>240.0</ele><time>2026-04-06T13:58:11Z</time></trkpt><trkpt lat="45.39916287470631" lon="8.113186577799341"><ele>240.0</ele><time>2026-04-06T13:58:12Z</time></trkpt><trkpt lat="45.399004723102166" lon="8.113409710976233"><ele>240.0</ele><time>2026-04-06T13:58:13Z</time></trkpt><trkpt lat="45.39884727053001" lon="8.113631479337235"><ele>240.0</ele><time>2026-04-06T13:58:14Z</time></trkpt><trkpt lat="45.39868987031955" lon="8.113855789304555"><ele>240.0</ele><time>2026-04-06T13:58:15Z</time></trkpt><trkpt lat="45.3985332188741" lon="8.114080986870626"><ele>240.0</ele><time>2026-04-06T13:58:16Z</time></trkpt><trkpt lat="45.39837861880353" lon="8.11431132759021"><ele>240.0</ele><time>2026-04-06T13:58:17Z</time></trkpt><trkpt lat="45.398229275516826" lon="8.114550971146848"><ele>240.0</ele><time>2026-04-06T13:58:18Z</time></trkpt><trkpt lat="45.39808400195334" lon="8.114793816581281"><ele>240.0</ele><time>2026-04-06T13:58:19Z</time></trkpt><trkpt lat="45.39794538028134" lon="8.115029690294737"><ele>240.0</ele><time>2026-04-06T13:58:20Z</time></trkpt><trkpt lat="45.39780380386204" lon="8.115266561731227"><ele>239.0</ele><time>2026-04-06T13:58:21Z</time></trkpt><trkpt lat="45.39765788393454" lon="8.1155049550884"><ele>238.0</ele><time>2026-04-06T13:58:22Z</time></trkpt><trkpt lat="45.39751416894393" lon="8.11574503310459"><ele>237.0</ele><time>2026-04-06T13:58:23Z</time></trkpt><trkpt lat="45.39737241601529" lon="8.115983168526924"><ele>236.66666666666669</ele><time>2026-04-06T13:58:24Z</time></trkpt><trkpt lat="45.397231773399625" lon="8.116214465438265"><ele>236.33333333333334</ele><time>2026-04-06T13:58:25Z</time></trkpt><trkpt lat="45.397089921569126" lon="8.116445031553882"><ele>236.0</ele><time>2026-04-06T13:58:26Z</time></trkpt><trkpt lat="45.39694887217089" lon="8.116676615967622"><ele>235.33333333333334</ele><time>2026-04-06T13:58:27Z</time></trkpt><trkpt lat="45.39680697246307" lon="8.116908903115906"><ele>234.66666666666669</ele><time>2026-04-06T13:58:28Z</time></trkpt><trkpt lat="45.396665918931106" lon="8.117145405001597"><ele>234.0</ele><time>2026-04-06T13:58:29Z</time></trkpt><trkpt lat="45.39652687425531" lon="8.117384855754496"><ele>234.0</ele><time>2026-04-06T13:58:30Z</time></trkpt><trkpt lat="45.396390765872695" lon="8.117620381742006"><ele>234.0</ele><time>2026-04-06T13:58:31Z</time></trkpt><trkpt lat="45.396251886006404" lon="8.11785276234516"><ele>234.0</ele><time>2026-04-06T13:58:32Z</time></trkpt><trkpt lat="45.39610936342734" lon="8.118085155029584"><ele>233.0</ele><time>2026-04-06T13:58:33Z</time></trkpt><trkpt lat="45.39596700749275" lon="8.118317854674103"><ele>232.0</ele><time>2026-04-06T13:58:34Z</time></trkpt><trkpt lat="45.395823934804895" lon="8.118551883878627"><ele>231.0</ele><time>2026-04-06T13:58:35Z</time></trkpt><trkpt lat="45.39568023786817" lon="8.11878895733386"><ele>231.0</ele><time>2026-04-06T13:58:36Z</time></trkpt><trkpt lat="45.39553626144777" lon="8.119027794615654"><ele>231.0</ele><time>2026-04-06T13:58:37Z</time></trkpt><trkpt lat="45.39538916285373" lon="8.119269360503822"><ele>231.0</ele><time>2026-04-06T13:58:38Z</time></trkpt><trkpt lat="45.39524393918928" lon="8.119510253640968"><ele>231.0</ele><time>2026-04-06T13:58:39Z</time></trkpt><trkpt lat="45.395098840604525" lon="8.119750567235258"><ele>231.0</ele><time>2026-04-06T13:58:40.001Z</time></trkpt><trkpt lat="45.39495131278519" lon="8.119991294035547"><ele>231.0</ele><time>2026-04-06T13:58:41.001Z</time></trkpt><trkpt lat="45.394807292437335" lon="8.120230849642713"><ele>231.0</ele><time>2026-04-06T13:58:42.001Z</time></trkpt><trkpt lat="45.394662305908334" lon="8.120470381229461"><ele>231.0</ele><time>2026-04-06T13:58:43.001Z</time></trkpt><trkpt lat="45.39451699191771" lon="8.12070937296083"><ele>231.0</ele><time>2026-04-06T13:58:44.001Z</time></trkpt><trkpt lat="45.394370874225494" lon="8.12094686860675"><ele>231.0</ele><time>2026-04-06T13:58:45.001Z</time></trkpt><trkpt lat="45.394231025317254" lon="8.12118001733513"><ele>231.0</ele><time>2026-04-06T13:58:46.001Z</time></trkpt><trkpt lat="45.394088315771675" lon="8.121417859439521"><ele>231.0</ele><time>2026-04-06T13:58:47.001Z</time></trkpt><trkpt lat="45.39395244680701" lon="8.121646240477315"><ele>231.33333333333331</ele><time>2026-04-06T13:58:48.001Z</time></trkpt><trkpt lat="45.39381966338489" lon="8.121870661099521"><ele>231.66666666666666</ele><time>2026-04-06T13:58:49.001Z</time></trkpt><trkpt lat="45.39369149522101" lon="8.122086286503498"><ele>232.0</ele><time>2026-04-06T13:58:50.001Z</time></trkpt><trkpt lat="45.393569486247344" lon="8.12229199075717"><ele>230.66666666666666</ele><time>2026-04-06T13:58:51.001Z</time></trkpt><trkpt lat="45.39344416915327" lon="8.122496683178825"><ele>229.33333333333331</ele><time>2026-04-06T13:58:52.001Z</time></trkpt><trkpt lat="45.393315179338664" lon="8.122709737941465"><ele>228.0</ele><time>2026-04-06T13:58:53.001Z</time></trkpt><trkpt lat="45.393189581415406" lon="8.122916139646223"><ele>228.0</ele><time>2026-04-06T13:58:54.001Z</time></trkpt><trkpt lat="45.39307203204843" lon="8.123110048641838"><ele>228.0</ele><time>2026-04-06T13:58:55.001Z</time></trkpt><trkpt lat="45.3929662111324" lon="8.1232832244332"><ele>228.0</ele><time>2026-04-06T13:58:56.001Z</time></trkpt><trkpt lat="45.392873348719455" lon="8.12343517721934"><ele>228.0</ele><time>2026-04-06T13:58:57.001Z</time></trkpt><trkpt lat="45.392799585386385" lon="8.123557836558575"><ele>228.0</ele><time>2026-04-06T13:58:58.001Z</time></trkpt><trkpt lat="45.392732968647564" lon="8.123660078988769"><ele>228.0</ele><time>2026-04-06T13:58:59.001Z</time></trkpt><trkpt lat="45.39266076014431" lon="8.1237541375536"><ele>228.0</ele><time>2026-04-06T13:59:00.001Z</time></trkpt><trkpt lat="45.392583472649754" lon="8.123837672526395"><ele>228.0</ele><time>2026-04-06T13:59:01.001Z</time></trkpt><trkpt lat="45.392515974981784" lon="8.123890307776637"><ele>228.0</ele><time>2026-04-06T13:59:02.001Z</time></trkpt><trkpt lat="45.392440629299266" lon="8.123934057747881"><ele>228.0</ele><time>2026-04-06T13:59:03Z</time></trkpt><trkpt lat="45.39235079655992" lon="8.123961960065927"><ele>228.0</ele><time>2026-04-06T13:59:04Z</time></trkpt><trkpt lat="45.3922623551124" lon="8.12398337554643"><ele>228.0</ele><time>2026-04-06T13:59:05Z</time></trkpt><trkpt lat="45.39219366756189" lon="8.124018902646048"><ele>228.0</ele><time>2026-04-06T13:59:06Z</time></trkpt><trkpt lat="45.392144538353605" lon="8.124077180038213"><ele>228.0</ele><time>2026-04-06T13:59:07Z</time></trkpt><trkpt lat="45.392119837382154" lon="8.124160341927515"><ele>228.0</ele><time>2026-04-06T13:59:08Z</time></trkpt><trkpt lat="45.39212029287631" lon="8.124256994837921"><ele>228.0</ele><time>2026-04-06T13:59:09Z</time></trkpt><trkpt lat="45.392145616298926" lon="8.124429416060046"><ele>228.0</ele><time>2026-04-06T13:59:11Z</time></trkpt><trkpt lat="45.39211857994397" lon="8.12453362484144"><ele>228.0</ele><time>2026-04-06T13:59:12Z</time></trkpt><trkpt lat="45.392097875011416" lon="8.124647849322429"><ele>228.0</ele><time>2026-04-06T13:59:13Z</time></trkpt><trkpt lat="45.392098621817944" lon="8.124769210792804"><ele>228.0</ele><time>2026-04-06T13:59:14Z</time></trkpt><trkpt lat="45.39199093717878" lon="8.124906418183185"><ele>227.0</ele><time>2026-04-06T13:59:15Z</time></trkpt><trkpt lat="45.39191198012919" lon="8.125068872151159"><ele>226.0</ele><time>2026-04-06T13:59:16Z</time></trkpt><trkpt lat="45.39180103623361" lon="8.12524006184511"><ele>225.0</ele><time>2026-04-06T13:59:17Z</time></trkpt><trkpt lat="45.3916719746175" lon="8.12545674595389"><ele>225.0</ele><time>2026-04-06T13:59:18Z</time></trkpt><trkpt lat="45.39153427518548" lon="8.125687328882991"><ele>225.0</ele><time>2026-04-06T13:59:19Z</time></trkpt><trkpt lat="45.39141882171814" lon="8.125916958602119"><ele>225.0</ele><time>2026-04-06T13:59:20Z</time></trkpt><trkpt lat="45.39128592279647" lon="8.126131790607594"><ele>225.0</ele><time>2026-04-06T13:59:21Z</time></trkpt><trkpt lat="45.391142607368565" lon="8.126354927759069"><ele>225.0</ele><time>2026-04-06T13:59:22Z</time></trkpt><trkpt lat="45.39100067339898" lon="8.126575209652449"><ele>225.0</ele><time>2026-04-06T13:59:23Z</time></trkpt><trkpt lat="45.39086702782969" lon="8.126788783132131"><ele>225.0</ele><time>2026-04-06T13:59:24Z</time></trkpt><trkpt lat="45.39073492004145" lon="8.126994558594335"><ele>225.0</ele><time>2026-04-06T13:59:25Z</time></trkpt><trkpt lat="45.39060884002169" lon="8.127197289836278"><ele>225.0</ele><time>2026-04-06T13:59:26Z</time></trkpt><trkpt lat="45.3904911399859" lon="8.12739076961769"><ele>224.66666666666669</ele><time>2026-04-06T13:59:27Z</time></trkpt><trkpt lat="45.39037465691778" lon="8.127582160043813"><ele>224.33333333333334</ele><time>2026-04-06T13:59:28Z</time></trkpt><trkpt lat="45.39025995326399" lon="8.127772358166222"><ele>224.0</ele><time>2026-04-06T13:59:29Z</time></trkpt><trkpt lat="45.390144638914144" lon="8.127963443637581"><ele>224.0</ele><time>2026-04-06T13:59:30Z</time></trkpt><trkpt lat="45.390028210431794" lon="8.12815787733083"><ele>224.0</ele><time>2026-04-06T13:59:31Z</time></trkpt><trkpt lat="45.38990727154116" lon="8.128365228349242"><ele>224.0</ele><time>2026-04-06T13:59:32Z</time></trkpt><trkpt lat="45.38977999547056" lon="8.128583399767148"><ele>223.66666666666669</ele><time>2026-04-06T13:59:33Z</time></trkpt><trkpt lat="45.389652493758405" lon="8.128795469966676"><ele>223.33333333333331</ele><time>2026-04-06T13:59:34Z</time></trkpt><trkpt lat="45.389531799432135" lon="8.128994582448167"><ele>223.0</ele><time>2026-04-06T13:59:35Z</time></trkpt><trkpt lat="45.38941579232336" lon="8.129186500094368"><ele>222.33333333333331</ele><time>2026-04-06T13:59:36Z</time></trkpt><trkpt lat="45.38930571301262" lon="8.129368559003396"><ele>221.66666666666669</ele><time>2026-04-06T13:59:37Z</time></trkpt><trkpt lat="45.389192619166835" lon="8.129555210713788"><ele>221.0</ele><time>2026-04-06T13:59:38Z</time></trkpt><trkpt lat="45.38907849842398" lon="8.129744131033673"><ele>220.66666666666669</ele><time>2026-04-06T13:59:39Z</time></trkpt><trkpt lat="45.388955884312985" lon="8.12995049756872"><ele>220.33333333333331</ele><time>2026-04-06T13:59:40Z</time></trkpt><trkpt lat="45.38882669550752" lon="8.13016735672577"><ele>220.0</ele><time>2026-04-06T13:59:41Z</time></trkpt><trkpt lat="45.38869904859373" lon="8.13037957296049"><ele>220.0</ele><time>2026-04-06T13:59:42Z</time></trkpt><trkpt lat="45.38858187047002" lon="8.13057167062104"><ele>220.0</ele><time>2026-04-06T13:59:43Z</time></trkpt><trkpt lat="45.388469065791654" lon="8.130757795888874"><ele>220.0</ele><time>2026-04-06T13:59:44Z</time></trkpt><trkpt lat="45.38835960542975" lon="8.130937891789149"><ele>220.0</ele><time>2026-04-06T13:59:45Z</time></trkpt><trkpt lat="45.38824543327782" lon="8.131125248913792"><ele>220.0</ele><time>2026-04-06T13:59:46Z</time></trkpt><trkpt lat="45.388119617764495" lon="8.131333850955622"><ele>220.0</ele><time>2026-04-06T13:59:47Z</time></trkpt><trkpt lat="45.38799478145487" lon="8.131544972808912"><ele>219.33333333333331</ele><time>2026-04-06T13:59:48Z</time></trkpt><trkpt lat="45.3878705736886" lon="8.13175139861446"><ele>218.66666666666669</ele><time>2026-04-06T13:59:49Z</time></trkpt><trkpt lat="45.38775002181654" lon="8.131947586242624"><ele>218.0</ele><time>2026-04-06T13:59:50Z</time></trkpt><trkpt lat="45.387638344498384" lon="8.132135344182238"><ele>218.0</ele><time>2026-04-06T13:59:51Z</time></trkpt><trkpt lat="45.38752968999417" lon="8.132319921769412"><ele>218.0</ele><time>2026-04-06T13:59:52Z</time></trkpt><trkpt lat="45.38741969957025" lon="8.132506744064877"><ele>218.0</ele><time>2026-04-06T13:59:53Z</time></trkpt><trkpt lat="45.38730799072543" lon="8.132697900813701"><ele>217.33333333333334</ele><time>2026-04-06T13:59:54Z</time></trkpt><trkpt lat="45.38718825451853" lon="8.132910238732247"><ele>216.66666666666669</ele><time>2026-04-06T13:59:55Z</time></trkpt><trkpt lat="45.38705065300625" lon="8.133120293274553"><ele>216.0</ele><time>2026-04-06T13:59:56Z</time></trkpt><trkpt lat="45.3869079608375" lon="8.133356859868526"><ele>215.66666666666669</ele><time>2026-04-06T13:59:57Z</time></trkpt><trkpt lat="45.386796847837346" lon="8.133597028098958"><ele>215.33333333333334</ele><time>2026-04-06T13:59:58Z</time></trkpt><trkpt lat="45.386675537629245" lon="8.133782177336306"><ele>215.0</ele><time>2026-04-06T13:59:59Z</time></trkpt><trkpt lat="45.386577017048694" lon="8.133937880267188"><ele>214.75</ele><time>2026-04-06T14:00:00Z</time></trkpt><trkpt lat="45.386481852130665" lon="8.1340965447121"><ele>214.5</ele><time>2026-04-06T14:00:01Z</time></trkpt><trkpt lat="45.38638599366869" lon="8.134253539899923"><ele>214.25</ele><time>2026-04-06T14:00:02Z</time></trkpt><trkpt lat="45.38630037709753" lon="8.134389304931211"><ele>214.0</ele><time>2026-04-06T14:00:03Z</time></trkpt><trkpt lat="45.3862182093793" lon="8.13450778267273"><ele>213.5</ele><time>2026-04-06T14:00:04Z</time></trkpt><trkpt lat="45.386128037913686" lon="8.134606227924566"><ele>213.0</ele><time>2026-04-06T14:00:05Z</time></trkpt><trkpt lat="45.386019522284016" lon="8.134678722560425"><ele>212.5</ele><time>2026-04-06T14:00:06Z</time></trkpt><trkpt lat="45.385900738954405" lon="8.13473474958904"><ele>212.0</ele><time>2026-04-06T14:00:07Z</time></trkpt><trkpt lat="45.38581056073531" lon="8.134831645577972"><ele>212.0</ele><time>2026-04-06T14:00:08Z</time></trkpt><trkpt lat="45.38575442244343" lon="8.134968164529994"><ele>212.0</ele><time>2026-04-06T14:00:09Z</time></trkpt><trkpt lat="45.385733777683505" lon="8.13515226986761"><ele>212.0</ele><time>2026-04-06T14:00:10Z</time></trkpt><trkpt lat="45.38569689853083" lon="8.13534697459232"><ele>212.0</ele><time>2026-04-06T14:00:11Z</time></trkpt><trkpt lat="45.38562414703236" lon="8.135512880861315"><ele>212.0</ele><time>2026-04-06T14:00:12Z</time></trkpt><trkpt lat="45.38552699220798" lon="8.135678698325535"><ele>212.0</ele><time>2026-04-06T14:00:13Z</time></trkpt><trkpt lat="45.385415825122635" lon="8.135857777687908"><ele>212.0</ele><time>2026-04-06T14:00:14Z</time></trkpt><trkpt lat="45.38530705056073" lon="8.136034531156817"><ele>211.66666666666669</ele><time>2026-04-06T14:00:15Z</time></trkpt><trkpt lat="45.38519611416242" lon="8.136219071921825"><ele>211.33333333333331</ele><time>2026-04-06T14:00:16Z</time></trkpt><trkpt lat="45.38507997466219" lon="8.136410663859277"><ele>211.0</ele><time>2026-04-06T14:00:17Z</time></trkpt><trkpt lat="45.38495999177455" lon="8.13661275480375"><ele>211.0</ele><time>2026-04-06T14:00:18Z</time></trkpt><trkpt lat="45.38483226949381" lon="8.136827731487683"><ele>211.0</ele><time>2026-04-06T14:00:19Z</time></trkpt><trkpt lat="45.38470400556454" lon="8.13704330968097"><ele>211.0</ele><time>2026-04-06T14:00:20Z</time></trkpt><trkpt lat="45.384570752744004" lon="8.137267627655186"><ele>210.66666666666666</ele><time>2026-04-06T14:00:21Z</time></trkpt><trkpt lat="45.38443366824152" lon="8.137498286475186"><ele>210.33333333333331</ele><time>2026-04-06T14:00:22Z</time></trkpt><trkpt lat="45.38429119066817" lon="8.137732215494916"><ele>210.0</ele><time>2026-04-06T14:00:23Z</time></trkpt><trkpt lat="45.38414795882732" lon="8.13796932803558"><ele>210.0</ele><time>2026-04-06T14:00:24Z</time></trkpt><trkpt lat="45.38400374081816" lon="8.13820858483991"><ele>210.0</ele><time>2026-04-06T14:00:25Z</time></trkpt><trkpt lat="45.38386217928747" lon="8.13844348272081"><ele>210.0</ele><time>2026-04-06T14:00:26Z</time></trkpt><trkpt lat="45.38372149143077" lon="8.13867500284673"><ele>210.0</ele><time>2026-04-06T14:00:27Z</time></trkpt><trkpt lat="45.38358943783947" lon="8.1388920428757"><ele>210.0</ele><time>2026-04-06T14:00:28Z</time></trkpt><trkpt lat="45.38346724452058" lon="8.139093557421235"><ele>210.0</ele><time>2026-04-06T14:00:29Z</time></trkpt><trkpt lat="45.38335420281103" lon="8.139283363062003"><ele>209.33333333333331</ele><time>2026-04-06T14:00:30Z</time></trkpt><trkpt lat="45.38324623732794" lon="8.139460354196157"><ele>208.66666666666666</ele><time>2026-04-06T14:00:31Z</time></trkpt><trkpt lat="45.38314055699682" lon="8.139633730993765"><ele>208.0</ele><time>2026-04-06T14:00:32Z</time></trkpt><trkpt lat="45.38303010149779" lon="8.139815793624454"><ele>208.0</ele><time>2026-04-06T14:00:33Z</time></trkpt><trkpt lat="45.382911365695925" lon="8.140006172761238"><ele>208.0</ele><time>2026-04-06T14:00:34Z</time></trkpt><trkpt lat="45.382788851690776" lon="8.140207773074552"><ele>208.0</ele><time>2026-04-06T14:00:35Z</time></trkpt><trkpt lat="45.38265832507905" lon="8.140421432745876"><ele>208.0</ele><time>2026-04-06T14:00:36Z</time></trkpt><trkpt lat="45.38252179382699" lon="8.140646381441206"><ele>208.0</ele><time>2026-04-06T14:00:37Z</time></trkpt><trkpt lat="45.38238133756085" lon="8.140880572622148"><ele>208.0</ele><time>2026-04-06T14:00:38Z</time></trkpt><trkpt lat="45.3822478063436" lon="8.141102967460927"><ele>208.0</ele><time>2026-04-06T14:00:39Z</time></trkpt><trkpt lat="45.382120003147506" lon="8.14131429906337"><ele>208.0</ele><time>2026-04-06T14:00:40Z</time></trkpt><trkpt lat="45.38200475963542" lon="8.141504917730064"><ele>208.0</ele><time>2026-04-06T14:00:41Z</time></trkpt><trkpt lat="45.381894532783605" lon="8.141687250539611"><ele>207.66666666666666</ele><time>2026-04-06T14:00:42Z</time></trkpt><trkpt lat="45.38178868926558" lon="8.14186430158783"><ele>207.33333333333331</ele><time>2026-04-06T14:00:43Z</time></trkpt><trkpt lat="45.38168456778623" lon="8.142041676372552"><ele>207.0</ele><time>2026-04-06T14:00:44Z</time></trkpt><trkpt lat="45.3815690642409" lon="8.142242446420372"><ele>206.66666666666669</ele><time>2026-04-06T14:00:45Z</time></trkpt><trkpt lat="45.3814484964112" lon="8.142453562965512"><ele>206.33333333333334</ele><time>2026-04-06T14:00:46.001Z</time></trkpt><trkpt lat="45.381318846581735" lon="8.142671993538793"><ele>206.0</ele><time>2026-04-06T14:00:47.001Z</time></trkpt><trkpt lat="45.381179199503116" lon="8.142897596853969"><ele>206.0</ele><time>2026-04-06T14:00:48.001Z</time></trkpt><trkpt lat="45.38104079147533" lon="8.143118806083878"><ele>206.0</ele><time>2026-04-06T14:00:49.001Z</time></trkpt><trkpt lat="45.38091511266724" lon="8.143325923181845"><ele>206.0</ele><time>2026-04-06T14:00:50.001Z</time></trkpt><trkpt lat="45.38079399650609" lon="8.143526776072983"><ele>206.0</ele><time>2026-04-06T14:00:51.001Z</time></trkpt><trkpt lat="45.3806757022749" lon="8.143723735223768"><ele>206.0</ele><time>2026-04-06T14:00:52.001Z</time></trkpt><trkpt lat="45.38056385166709" lon="8.14391083941529"><ele>206.0</ele><time>2026-04-06T14:00:53.001Z</time></trkpt><trkpt lat="45.380457557791885" lon="8.144090368957617"><ele>205.33333333333334</ele><time>2026-04-06T14:00:54.001Z</time></trkpt><trkpt lat="45.380346165781695" lon="8.144283265548504"><ele>204.66666666666669</ele><time>2026-04-06T14:00:55.001Z</time></trkpt><trkpt lat="45.38022960831527" lon="8.144493956381654"><ele>204.0</ele><time>2026-04-06T14:00:56.001Z</time></trkpt><trkpt lat="45.38010131566206" lon="8.144705362082611"><ele>203.66666666666669</ele><time>2026-04-06T14:00:57.001Z</time></trkpt><trkpt lat="45.37997679526458" lon="8.14489706724852"><ele>203.33333333333334</ele><time>2026-04-06T14:00:58.001Z</time></trkpt><trkpt lat="45.37986689849784" lon="8.145071716124932"><ele>203.0</ele><time>2026-04-06T14:00:59.001Z</time></trkpt><trkpt lat="45.37978474684797" lon="8.14520647189298"><ele>203.00000000000003</ele><time>2026-04-06T14:01:00.001Z</time></trkpt><trkpt lat="45.37972806986087" lon="8.145296735035648"><ele>203.0</ele><time>2026-04-06T14:01:01.001Z</time></trkpt><trkpt lat="45.379680979382975" lon="8.145362606054926"><ele>203.0</ele><time>2026-04-06T14:01:02.001Z</time></trkpt><trkpt lat="45.37962675946686" lon="8.145417704361906"><ele>203.0</ele><time>2026-04-06T14:01:03Z</time></trkpt><trkpt lat="45.37956529423721" lon="8.145442771980788"><ele>203.00000000000003</ele><time>2026-04-06T14:01:04Z</time></trkpt><trkpt lat="45.37948822911674" lon="8.145449246431854"><ele>203.0</ele><time>2026-04-06T14:01:05Z</time></trkpt><trkpt lat="45.379391537719385" lon="8.145451461459812"><ele>202.25</ele><time>2026-04-06T14:01:06Z</time></trkpt><trkpt lat="45.37929386136696" lon="8.145489464639985"><ele>201.5</ele><time>2026-04-06T14:01:07Z</time></trkpt><trkpt lat="45.37920495942391" lon="8.145589062868098"><ele>200.75</ele><time>2026-04-06T14:01:08Z</time></trkpt><trkpt lat="45.37913839658857" lon="8.145741038822774"><ele>200.0</ele><time>2026-04-06T14:01:09Z</time></trkpt><trkpt lat="45.379116065296465" lon="8.145912795107366"><ele>200.0</ele><time>2026-04-06T14:01:10Z</time></trkpt><trkpt lat="45.37913700804973" lon="8.146097136841723"><ele>200.0</ele><time>2026-04-06T14:01:11Z</time></trkpt><trkpt lat="45.37918999242197" lon="8.14623672405244"><ele>200.0</ele><time>2026-04-06T14:01:12Z</time></trkpt><trkpt lat="45.37902270864381" lon="8.146475861139804"><ele>200.33333333333334</ele><time>2026-04-06T14:01:13Z</time></trkpt><trkpt lat="45.378917853162676" lon="8.146653508615278"><ele>200.66666666666669</ele><time>2026-04-06T14:01:14Z</time></trkpt><trkpt lat="45.3787997500426" lon="8.146834573962993"><ele>201.0</ele><time>2026-04-06T14:01:15Z</time></trkpt><trkpt lat="45.37868353244584" lon="8.14702275667596"><ele>201.33333333333331</ele><time>2026-04-06T14:01:16Z</time></trkpt><trkpt lat="45.37857225297587" lon="8.147202643409225"><ele>201.66666666666666</ele><time>2026-04-06T14:01:17Z</time></trkpt><trkpt lat="45.37846535808471" lon="8.147375836283656"><ele>202.0</ele><time>2026-04-06T14:01:18Z</time></trkpt><trkpt lat="45.378355896059965" lon="8.147553516258865"><ele>201.33333333333331</ele><time>2026-04-06T14:01:19Z</time></trkpt><trkpt lat="45.37824322949897" lon="8.147738065630662"><ele>200.66666666666669</ele><time>2026-04-06T14:01:20Z</time></trkpt><trkpt lat="45.37812735952487" lon="8.147931624564269"><ele>200.0</ele><time>2026-04-06T14:01:21Z</time></trkpt><trkpt lat="45.37800623665964" lon="8.148136568733692"><ele>199.0</ele><time>2026-04-06T14:01:22Z</time></trkpt><trkpt lat="45.37788252339505" lon="8.148348664981508"><ele>198.0</ele><time>2026-04-06T14:01:23Z</time></trkpt><trkpt lat="45.377758540154986" lon="8.148560000804176"><ele>197.0</ele><time>2026-04-06T14:01:24Z</time></trkpt><trkpt lat="45.3776216217916" lon="8.148795398840031"><ele>197.0</ele><time>2026-04-06T14:01:25Z</time></trkpt><trkpt lat="45.37746251282787" lon="8.149037915044097"><ele>197.0</ele><time>2026-04-06T14:01:26Z</time></trkpt><trkpt lat="45.37730318934166" lon="8.149302076587341"><ele>197.0</ele><time>2026-04-06T14:01:27Z</time></trkpt><trkpt lat="45.377159093289904" lon="8.149540990737682"><ele>197.0</ele><time>2026-04-06T14:01:28Z</time></trkpt><trkpt lat="45.37703312361702" lon="8.149778266132687"><ele>197.0</ele><time>2026-04-06T14:01:29Z</time></trkpt><trkpt lat="45.37690012286018" lon="8.149997856724463"><ele>197.33333333333334</ele><time>2026-04-06T14:01:30Z</time></trkpt><trkpt lat="45.376779489450435" lon="8.15019811695625"><ele>197.66666666666669</ele><time>2026-04-06T14:01:31Z</time></trkpt><trkpt lat="45.376667876032236" lon="8.150385673440587"><ele>198.0</ele><time>2026-04-06T14:01:32Z</time></trkpt><trkpt lat="45.37657018816432" lon="8.150557036533854"><ele>198.25</ele><time>2026-04-06T14:01:33Z</time></trkpt><trkpt lat="45.376482787637954" lon="8.150718590817046"><ele>198.5</ele><time>2026-04-06T14:01:34Z</time></trkpt><trkpt lat="45.37641187479217" lon="8.150851124632092"><ele>198.75</ele><time>2026-04-06T14:01:35Z</time></trkpt><trkpt lat="45.37634509895327" lon="8.150956068586066"><ele>199.0</ele><time>2026-04-06T14:01:36Z</time></trkpt><trkpt lat="45.37626980346615" lon="8.151028106372086"><ele>198.6</ele><time>2026-04-06T14:01:37Z</time></trkpt><trkpt lat="45.376175026398094" lon="8.151054023475204"><ele>198.2</ele><time>2026-04-06T14:01:38Z</time></trkpt><trkpt lat="45.376086323923296" lon="8.151069182935519"><ele>197.79999999999998</ele><time>2026-04-06T14:01:39Z</time></trkpt><trkpt lat="45.37601834980089" lon="8.151105494395086"><ele>197.39999999999998</ele><time>2026-04-06T14:01:40Z</time></trkpt><trkpt lat="45.37595143606818" lon="8.151241705474021"><ele>197.0</ele><time>2026-04-06T14:01:42Z</time></trkpt><trkpt lat="45.37595691175357" lon="8.151415100344908"><ele>197.0</ele><time>2026-04-06T14:01:44Z</time></trkpt><trkpt lat="45.375992854292875" lon="8.151519558953627"><ele>197.0</ele><time>2026-04-06T14:01:45Z</time></trkpt><trkpt lat="45.37603923230065" lon="8.151634625367558"><ele>197.0</ele><time>2026-04-06T14:01:46Z</time></trkpt><trkpt lat="45.37607602170585" lon="8.151769126122247"><ele>197.0</ele><time>2026-04-06T14:01:47Z</time></trkpt><trkpt lat="45.37608074251282" lon="8.151926336514752"><ele>197.0</ele><time>2026-04-06T14:01:48Z</time></trkpt><trkpt lat="45.37603597683074" lon="8.152075394439573"><ele>196.66666666666669</ele><time>2026-04-06T14:01:49Z</time></trkpt><trkpt lat="45.376000363373045" lon="8.152261944004048"><ele>196.33333333333331</ele><time>2026-04-06T14:01:50Z</time></trkpt><trkpt lat="45.37597975350927" lon="8.152476746525522"><ele>196.0</ele><time>2026-04-06T14:01:51Z</time></trkpt><trkpt lat="45.37594497502224" lon="8.152710502473154"><ele>196.0</ele><time>2026-04-06T14:01:52Z</time></trkpt><trkpt lat="45.37589000374546" lon="8.152964870074547"><ele>196.0</ele><time>2026-04-06T14:01:53Z</time></trkpt><trkpt lat="45.37584721077217" lon="8.153257251334006"><ele>196.0</ele><time>2026-04-06T14:01:54Z</time></trkpt><trkpt lat="45.37580201675534" lon="8.153565369652028"><ele>196.5</ele><time>2026-04-06T14:01:55Z</time></trkpt><trkpt lat="45.375753924643874" lon="8.15389747694633"><ele>197.0</ele><time>2026-04-06T14:01:56Z</time></trkpt><trkpt lat="45.37570468348803" lon="8.15423894638328"><ele>197.0</ele><time>2026-04-06T14:01:57Z</time></trkpt><trkpt lat="45.37565331917008" lon="8.154596790984588"><ele>197.0</ele><time>2026-04-06T14:01:58Z</time></trkpt><trkpt lat="45.37561916679584" lon="8.154951004100248"><ele>197.0</ele><time>2026-04-06T14:01:59Z</time></trkpt><trkpt lat="45.37557008565487" lon="8.155273139317426"><ele>197.0</ele><time>2026-04-06T14:02:00Z</time></trkpt><trkpt lat="45.375524709939896" lon="8.155577303850206"><ele>195.66666666666669</ele><time>2026-04-06T14:02:01Z</time></trkpt><trkpt lat="45.375479414571565" lon="8.155870652701113"><ele>194.33333333333331</ele><time>2026-04-06T14:02:02Z</time></trkpt><trkpt lat="45.37543425106914" lon="8.156146103344467"><ele>193.0</ele><time>2026-04-06T14:02:03Z</time></trkpt><trkpt lat="45.375380411056" lon="8.156425798298466"><ele>193.0</ele><time>2026-04-06T14:02:04Z</time></trkpt><trkpt lat="45.37531716678287" lon="8.156713316153752"><ele>193.0</ele><time>2026-04-06T14:02:05Z</time></trkpt><trkpt lat="45.37525262038053" lon="8.157007020930974"><ele>193.0</ele><time>2026-04-06T14:02:06Z</time></trkpt><trkpt lat="45.37518796485527" lon="8.157293576321923"><ele>192.66666666666666</ele><time>2026-04-06T14:02:07Z</time></trkpt><trkpt lat="45.3751250414519" lon="8.157572553057925"><ele>192.33333333333331</ele><time>2026-04-06T14:02:08Z</time></trkpt><trkpt lat="45.37506386581648" lon="8.157847324192948"><ele>192.0</ele><time>2026-04-06T14:02:09Z</time></trkpt><trkpt lat="45.37500519685975" lon="8.15811913679164"><ele>190.66666666666666</ele><time>2026-04-06T14:02:10Z</time></trkpt><trkpt lat="45.37494850408553" lon="8.158394817186183"><ele>189.33333333333331</ele><time>2026-04-06T14:02:11Z</time></trkpt><trkpt lat="45.37489401548354" lon="8.15867038601223"><ele>188.0</ele><time>2026-04-06T14:02:12Z</time></trkpt><trkpt lat="45.37483530798273" lon="8.158943003952713"><ele>188.0</ele><time>2026-04-06T14:02:13Z</time></trkpt><trkpt lat="45.374774951798635" lon="8.15921369067959"><ele>188.0</ele><time>2026-04-06T14:02:14Z</time></trkpt><trkpt lat="45.374715945986416" lon="8.15948261164995"><ele>188.0</ele><time>2026-04-06T14:02:15Z</time></trkpt><trkpt lat="45.37465600067699" lon="8.159753725285148"><ele>187.66666666666666</ele><time>2026-04-06T14:02:16Z</time></trkpt><trkpt lat="45.37459730074226" lon="8.160024247337288"><ele>187.33333333333334</ele><time>2026-04-06T14:02:17Z</time></trkpt><trkpt lat="45.37453757293536" lon="8.16029736511819"><ele>187.0</ele><time>2026-04-06T14:02:18Z</time></trkpt><trkpt lat="45.37447593322992" lon="8.160576953134433"><ele>187.66666666666669</ele><time>2026-04-06T14:02:19Z</time></trkpt><trkpt lat="45.374413638357765" lon="8.160861696383357"><ele>188.33333333333334</ele><time>2026-04-06T14:02:20Z</time></trkpt><trkpt lat="45.37435081158801" lon="8.161146662555396"><ele>189.0</ele><time>2026-04-06T14:02:21Z</time></trkpt><trkpt lat="45.374288323870935" lon="8.161429341955289"><ele>189.0</ele><time>2026-04-06T14:02:22Z</time></trkpt><trkpt lat="45.37422535349297" lon="8.16171316934464"><ele>189.0</ele><time>2026-04-06T14:02:23Z</time></trkpt><trkpt lat="45.374163730516834" lon="8.16199743483544"><ele>189.0</ele><time>2026-04-06T14:02:24Z</time></trkpt><trkpt lat="45.374101032831526" lon="8.162282695330045"><ele>190.0</ele><time>2026-04-06T14:02:25Z</time></trkpt><trkpt lat="45.37404102522834" lon="8.162567612260519"><ele>191.0</ele><time>2026-04-06T14:02:26Z</time></trkpt><trkpt lat="45.373981024502164" lon="8.16285438312312"><ele>192.0</ele><time>2026-04-06T14:02:27Z</time></trkpt><trkpt lat="45.37392236790958" lon="8.163141427497923"><ele>191.66666666666666</ele><time>2026-04-06T14:02:28Z</time></trkpt><trkpt lat="45.37386262562973" lon="8.163430519445152"><ele>191.33333333333331</ele><time>2026-04-06T14:02:29Z</time></trkpt><trkpt lat="45.37380229570919" lon="8.16371975440989"><ele>191.0</ele><time>2026-04-06T14:02:30Z</time></trkpt><trkpt lat="45.37373886993547" lon="8.164010060966081"><ele>190.33333333333331</ele><time>2026-04-06T14:02:31Z</time></trkpt><trkpt lat="45.373673331954" lon="8.164301209427538"><ele>189.66666666666666</ele><time>2026-04-06T14:02:32Z</time></trkpt><trkpt lat="45.37360683339613" lon="8.164585560703614"><ele>189.0</ele><time>2026-04-06T14:02:33Z</time></trkpt><trkpt lat="45.37354376451081" lon="8.164865593502935"><ele>188.33333333333334</ele><time>2026-04-06T14:02:34Z</time></trkpt><trkpt lat="45.373483084010786" lon="8.165140927246098"><ele>187.66666666666669</ele><time>2026-04-06T14:02:35Z</time></trkpt><trkpt lat="45.3734248399997" lon="8.165409675729212"><ele>187.0</ele><time>2026-04-06T14:02:36Z</time></trkpt><trkpt lat="45.37336743407552" lon="8.165679439995634"><ele>187.0</ele><time>2026-04-06T14:02:37Z</time></trkpt><trkpt lat="45.37331030696851" lon="8.165950347090533"><ele>187.0</ele><time>2026-04-06T14:02:38Z</time></trkpt><trkpt lat="45.373251748461385" lon="8.166218328319365"><ele>187.0</ele><time>2026-04-06T14:02:39Z</time></trkpt><trkpt lat="45.37319174237614" lon="8.166490000857063"><ele>187.0</ele><time>2026-04-06T14:02:40Z</time></trkpt><trkpt lat="45.37313155865" lon="8.166763803764542"><ele>187.0</ele><time>2026-04-06T14:02:41Z</time></trkpt><trkpt lat="45.373073671370484" lon="8.167036959796953"><ele>187.0</ele><time>2026-04-06T14:02:42Z</time></trkpt><trkpt lat="45.373014239794664" lon="8.167311039306146"><ele>186.66666666666669</ele><time>2026-04-06T14:02:43Z</time></trkpt><trkpt lat="45.372953891744054" lon="8.16757991776087"><ele>186.33333333333334</ele><time>2026-04-06T14:02:44Z</time></trkpt><trkpt lat="45.37289691633877" lon="8.167855594043962"><ele>186.0</ele><time>2026-04-06T14:02:45Z</time></trkpt><trkpt lat="45.37284026666305" lon="8.168131272465233"><ele>186.0</ele><time>2026-04-06T14:02:46Z</time></trkpt><trkpt lat="45.37278070681287" lon="8.16840958802639"><ele>186.0</ele><time>2026-04-06T14:02:47Z</time></trkpt><trkpt lat="45.372720594374236" lon="8.168681588903787"><ele>186.0</ele><time>2026-04-06T14:02:48Z</time></trkpt><trkpt lat="45.37266050281202" lon="8.168948298882894"><ele>186.0</ele><time>2026-04-06T14:02:49Z</time></trkpt><trkpt lat="45.372601077727225" lon="8.169218314464183"><ele>186.0</ele><time>2026-04-06T14:02:50Z</time></trkpt><trkpt lat="45.37254159338685" lon="8.169490500315069"><ele>186.0</ele><time>2026-04-06T14:02:51Z</time></trkpt><trkpt lat="45.372481708236656" lon="8.169761200229988"><ele>186.66666666666666</ele><time>2026-04-06T14:02:52.001Z</time></trkpt><trkpt lat="45.372422831558" lon="8.170029835475326"><ele>187.33333333333331</ele><time>2026-04-06T14:02:53.001Z</time></trkpt><trkpt lat="45.37236511383956" lon="8.170300987287407"><ele>188.0</ele><time>2026-04-06T14:02:54.001Z</time></trkpt><trkpt lat="45.37230792306905" lon="8.17057285023454"><ele>188.0</ele><time>2026-04-06T14:02:55.001Z</time></trkpt><trkpt lat="45.372255378907894" lon="8.17082932168695"><ele>188.0</ele><time>2026-04-06T14:02:56.001Z</time></trkpt><trkpt lat="45.37220220347361" lon="8.171073815865777"><ele>188.0</ele><time>2026-04-06T14:02:57.001Z</time></trkpt><trkpt lat="45.372152495289754" lon="8.171304274566996"><ele>187.75</ele><time>2026-04-06T14:02:58.001Z</time></trkpt><trkpt lat="45.372108408689115" lon="8.171520657685456"><ele>187.5</ele><time>2026-04-06T14:02:59.001Z</time></trkpt><trkpt lat="45.372069007595094" lon="8.171719160736188"><ele>187.25</ele><time>2026-04-06T14:03:00.001Z</time></trkpt><trkpt lat="45.372032179622806" lon="8.171917030047444"><ele>187.0</ele><time>2026-04-06T14:03:01.001Z</time></trkpt><trkpt lat="45.371998174488084" lon="8.172104876660523"><ele>186.75</ele><time>2026-04-06T14:03:02.001Z</time></trkpt><trkpt lat="45.37195284620624" lon="8.172285175853542"><ele>186.5</ele><time>2026-04-06T14:03:03.001Z</time></trkpt><trkpt lat="45.37191086915003" lon="8.17245768242284"><ele>186.25</ele><time>2026-04-06T14:03:04.001Z</time></trkpt><trkpt lat="45.371881977720136" lon="8.172652800674284"><ele>186.0</ele><time>2026-04-06T14:03:05.001Z</time></trkpt><trkpt lat="45.37182888424938" lon="8.172860487297296"><ele>185.66666666666666</ele><time>2026-04-06T14:03:06.001Z</time></trkpt><trkpt lat="45.37177569050275" lon="8.17306920278244"><ele>185.33333333333331</ele><time>2026-04-06T14:03:07.001Z</time></trkpt><trkpt lat="45.3717255851978" lon="8.173292327856942"><ele>185.0</ele><time>2026-04-06T14:03:08.001Z</time></trkpt><trkpt lat="45.371675176079975" lon="8.173509437467994"><ele>185.0</ele><time>2026-04-06T14:03:09Z</time></trkpt><trkpt lat="45.3716266660656" lon="8.17370857427561"><ele>185.0</ele><time>2026-04-06T14:03:10Z</time></trkpt><trkpt lat="45.37157694187837" lon="8.173895903314465"><ele>185.0</ele><time>2026-04-06T14:03:11Z</time></trkpt><trkpt lat="45.37153263352044" lon="8.174069431004563"><ele>185.0</ele><time>2026-04-06T14:03:12Z</time></trkpt><trkpt lat="45.371493477018" lon="8.174230842710891"><ele>184.83333333333331</ele><time>2026-04-06T14:03:13Z</time></trkpt><trkpt lat="45.3714603543755" lon="8.174372479713947"><ele>184.66666666666666</ele><time>2026-04-06T14:03:14Z</time></trkpt><trkpt lat="45.37143482915831" lon="8.174482226211193"><ele>184.5</ele><time>2026-04-06T14:03:15Z</time></trkpt><trkpt lat="45.37140655113535" lon="8.17459047254834"><ele>184.33333333333334</ele><time>2026-04-06T14:03:17Z</time></trkpt><trkpt lat="45.371368247446696" lon="8.174692693862994"><ele>184.16666666666669</ele><time>2026-04-06T14:03:55Z</time></trkpt><trkpt lat="45.371336955994686" lon="8.174810219947462"><ele>184.0</ele><time>2026-04-06T14:03:57Z</time></trkpt><trkpt lat="45.371306956584995" lon="8.17491810591632"><ele>184.0</ele><time>2026-04-06T14:03:58Z</time></trkpt><trkpt lat="45.371273065306" lon="8.175047600226993"><ele>184.0</ele><time>2026-04-06T14:03:59Z</time></trkpt><trkpt lat="45.37123578374026" lon="8.175203296030999"><ele>184.0</ele><time>2026-04-06T14:04:00Z</time></trkpt><trkpt lat="45.371193552926165" lon="8.175370908549368"><ele>184.0</ele><time>2026-04-06T14:04:01Z</time></trkpt><trkpt lat="45.37113067041713" lon="8.17554566625339"><ele>184.0</ele><time>2026-04-06T14:04:02Z</time></trkpt><trkpt lat="45.371059151275574" lon="8.175738722763857"><ele>184.0</ele><time>2026-04-06T14:04:03Z</time></trkpt><trkpt lat="45.37098362786608" lon="8.175949053213627"><ele>184.0</ele><time>2026-04-06T14:04:04Z</time></trkpt><trkpt lat="45.37090201889317" lon="8.176167255950926"><ele>184.0</ele><time>2026-04-06T14:04:05Z</time></trkpt><trkpt lat="45.37082098291708" lon="8.176384566141431"><ele>184.0</ele><time>2026-04-06T14:04:06Z</time></trkpt><trkpt lat="45.37074287748292" lon="8.176591511324004"><ele>184.0</ele><time>2026-04-06T14:04:07Z</time></trkpt><trkpt lat="45.37066470587493" lon="8.176796448777683"><ele>183.33333333333334</ele><time>2026-04-06T14:04:08Z</time></trkpt><trkpt lat="45.370587238287996" lon="8.176999038049624"><ele>182.66666666666666</ele><time>2026-04-06T14:04:09Z</time></trkpt><trkpt lat="45.370509399551494" lon="8.17720217591531"><ele>182.0</ele><time>2026-04-06T14:04:10Z</time></trkpt><trkpt lat="45.37042606310058" lon="8.177415425620662"><ele>181.33333333333331</ele><time>2026-04-06T14:04:11Z</time></trkpt><trkpt lat="45.37034387037945" lon="8.177625787121352"><ele>180.66666666666666</ele><time>2026-04-06T14:04:12Z</time></trkpt><trkpt lat="45.370258391548084" lon="8.177843160461382"><ele>180.0</ele><time>2026-04-06T14:04:13Z</time></trkpt><trkpt lat="45.37017617823553" lon="8.178056176401963"><ele>180.0</ele><time>2026-04-06T14:04:14Z</time></trkpt><trkpt lat="45.37009289858649" lon="8.178267299684743"><ele>180.0</ele><time>2026-04-06T14:04:15Z</time></trkpt><trkpt lat="45.37000591364813" lon="8.178483724275422"><ele>180.0</ele><time>2026-04-06T14:04:16Z</time></trkpt><trkpt lat="45.36992045493045" lon="8.178699828890542"><ele>180.0</ele><time>2026-04-06T14:04:17Z</time></trkpt><trkpt lat="45.36983503642698" lon="8.178924601600256"><ele>180.0</ele><time>2026-04-06T14:04:18Z</time></trkpt><trkpt lat="45.36974458052795" lon="8.179151757695271"><ele>180.0</ele><time>2026-04-06T14:04:19Z</time></trkpt><trkpt lat="45.369655091876695" lon="8.179378870236349"><ele>180.66666666666666</ele><time>2026-04-06T14:04:20Z</time></trkpt><trkpt lat="45.369571924165044" lon="8.179597436922778"><ele>181.33333333333331</ele><time>2026-04-06T14:04:21Z</time></trkpt><trkpt lat="45.36949271604213" lon="8.17980437161855"><ele>182.0</ele><time>2026-04-06T14:04:22Z</time></trkpt><trkpt lat="45.36942128711007" lon="8.17998597046887"><ele>182.0</ele><time>2026-04-06T14:04:23Z</time></trkpt><trkpt lat="45.36936049326705" lon="8.180141719160389"><ele>182.0</ele><time>2026-04-06T14:04:24Z</time></trkpt><trkpt lat="45.369306772311376" lon="8.180275842317245"><ele>182.0</ele><time>2026-04-06T14:04:25Z</time></trkpt><trkpt lat="45.36924619908786" lon="8.180409649216928"><ele>182.0</ele><time>2026-04-06T14:04:26Z</time></trkpt><trkpt lat="45.36917191475191" lon="8.180539852986266"><ele>182.0</ele><time>2026-04-06T14:04:27Z</time></trkpt><trkpt lat="45.3690873598306" lon="8.18067393423868"><ele>182.0</ele><time>2026-04-06T14:04:28Z</time></trkpt><trkpt lat="45.36902507443646" lon="8.180841253742399"><ele>182.0</ele><time>2026-04-06T14:04:29Z</time></trkpt><trkpt lat="45.36897820350688" lon="8.18104084600367"><ele>182.0</ele><time>2026-04-06T14:04:30Z</time></trkpt><trkpt lat="45.36892535829201" lon="8.181265245036917"><ele>182.0</ele><time>2026-04-06T14:04:31Z</time></trkpt><trkpt lat="45.36884464412979" lon="8.181496376459037"><ele>182.0</ele><time>2026-04-06T14:04:32Z</time></trkpt><trkpt lat="45.3687518370313" lon="8.18173186857657"><ele>182.0</ele><time>2026-04-06T14:04:33Z</time></trkpt><trkpt lat="45.368652944188476" lon="8.181983612780956"><ele>181.66666666666666</ele><time>2026-04-06T14:04:34Z</time></trkpt><trkpt lat="45.368555388037656" lon="8.182240379762636"><ele>181.33333333333334</ele><time>2026-04-06T14:04:35Z</time></trkpt><trkpt lat="45.368454684041204" lon="8.182498279236457"><ele>181.0</ele><time>2026-04-06T14:04:36Z</time></trkpt><trkpt lat="45.36835347924574" lon="8.182754148046811"><ele>180.66666666666669</ele><time>2026-04-06T14:04:37Z</time></trkpt><trkpt lat="45.36825702568721" lon="8.183001595399732"><ele>180.33333333333334</ele><time>2026-04-06T14:04:38Z</time></trkpt><trkpt lat="45.36816165218062" lon="8.183244710431442"><ele>180.0</ele><time>2026-04-06T14:04:39Z</time></trkpt><trkpt lat="45.368069292484876" lon="8.183478427308067"><ele>180.33333333333334</ele><time>2026-04-06T14:04:40Z</time></trkpt><trkpt lat="45.367975683233446" lon="8.183712885420087"><ele>180.66666666666669</ele><time>2026-04-06T14:04:41Z</time></trkpt><trkpt lat="45.36787054288493" lon="8.18394202793648"><ele>181.0</ele><time>2026-04-06T14:04:42Z</time></trkpt><trkpt lat="45.36775149299114" lon="8.18416768688279"><ele>181.0</ele><time>2026-04-06T14:04:43Z</time></trkpt><trkpt lat="45.36761700393103" lon="8.184385539429279"><ele>181.0</ele><time>2026-04-06T14:04:44Z</time></trkpt><trkpt lat="45.36746783515363" lon="8.18459095550502"><ele>181.0</ele><time>2026-04-06T14:04:45Z</time></trkpt><trkpt lat="45.3673074853451" lon="8.184784013234866"><ele>181.33333333333334</ele><time>2026-04-06T14:04:46Z</time></trkpt><trkpt lat="45.36713329946179" lon="8.184964084795084"><ele>181.66666666666666</ele><time>2026-04-06T14:04:47Z</time></trkpt><trkpt lat="45.366948108658306" lon="8.185127592419661"><ele>182.0</ele><time>2026-04-06T14:04:48Z</time></trkpt><trkpt lat="45.36675148591403" lon="8.185278667131705"><ele>182.0</ele><time>2026-04-06T14:04:49Z</time></trkpt><trkpt lat="45.36655472461448" lon="8.185427046960454"><ele>182.0</ele><time>2026-04-06T14:04:50Z</time></trkpt><trkpt lat="45.36635829657031" lon="8.18557771028929"><ele>182.0</ele><time>2026-04-06T14:04:51Z</time></trkpt><trkpt lat="45.36615889112297" lon="8.185727028067236"><ele>182.0</ele><time>2026-04-06T14:04:52Z</time></trkpt><trkpt lat="45.36596112005045" lon="8.185878224632631"><ele>182.0</ele><time>2026-04-06T14:04:53Z</time></trkpt><trkpt lat="45.36575898493432" lon="8.186028923015243"><ele>182.0</ele><time>2026-04-06T14:04:54Z</time></trkpt><trkpt lat="45.36555779778435" lon="8.186179333357714"><ele>182.0</ele><time>2026-04-06T14:04:55Z</time></trkpt><trkpt lat="45.36535529522449" lon="8.186328107577003"><ele>182.0</ele><time>2026-04-06T14:04:56Z</time></trkpt><trkpt lat="45.36515394541485" lon="8.186478878696986"><ele>182.0</ele><time>2026-04-06T14:04:57.001Z</time></trkpt><trkpt lat="45.36495636288189" lon="8.186627713555216"><ele>181.66666666666666</ele><time>2026-04-06T14:04:58.001Z</time></trkpt><trkpt lat="45.36476760933794" lon="8.18677436332158"><ele>181.33333333333334</ele><time>2026-04-06T14:04:59.001Z</time></trkpt><trkpt lat="45.36458041795701" lon="8.186918463929711"><ele>181.0</ele><time>2026-04-06T14:05:00.001Z</time></trkpt><trkpt lat="45.36438913557713" lon="8.187067046662282"><ele>180.33333333333334</ele><time>2026-04-06T14:05:01.001Z</time></trkpt><trkpt lat="45.36420050979171" lon="8.187223864845572"><ele>179.66666666666666</ele><time>2026-04-06T14:05:02.001Z</time></trkpt><trkpt lat="45.36402024758992" lon="8.187387820998143"><ele>179.0</ele><time>2026-04-06T14:05:03.001Z</time></trkpt><trkpt lat="45.36385052635881" lon="8.187565543736914"><ele>179.0</ele><time>2026-04-06T14:05:04.001Z</time></trkpt><trkpt lat="45.36368520749372" lon="8.187759843152058"><ele>179.0</ele><time>2026-04-06T14:05:05.001Z</time></trkpt><trkpt lat="45.36352315951637" lon="8.187973009016282"><ele>179.0</ele><time>2026-04-06T14:05:06.001Z</time></trkpt><trkpt lat="45.36336340989873" lon="8.18819567814433"><ele>178.5</ele><time>2026-04-06T14:05:07.001Z</time></trkpt><trkpt lat="45.363210008470105" lon="8.188426395551195"><ele>178.0</ele><time>2026-04-06T14:05:08.001Z</time></trkpt><trkpt lat="45.36306262940998" lon="8.188671654742903"><ele>178.0</ele><time>2026-04-06T14:05:09.001Z</time></trkpt><trkpt lat="45.36292363599835" lon="8.188925515575628"><ele>178.0</ele><time>2026-04-06T14:05:10.001Z</time></trkpt><trkpt lat="45.3627963706128" lon="8.18918659688912"><ele>178.0</ele><time>2026-04-06T14:05:11.001Z</time></trkpt><trkpt lat="45.36267852193876" lon="8.189456437067978"><ele>178.0</ele><time>2026-04-06T14:05:12.001Z</time></trkpt><trkpt lat="45.362570683241" lon="8.189736713567633"><ele>178.0</ele><time>2026-04-06T14:05:13.001Z</time></trkpt><trkpt lat="45.362474555395295" lon="8.190028918486478"><ele>177.5</ele><time>2026-04-06T14:05:14.001Z</time></trkpt><trkpt lat="45.362358995480896" lon="8.190311089468308"><ele>177.0</ele><time>2026-04-06T14:05:15.001Z</time></trkpt><trkpt lat="45.36225359116179" lon="8.190603303349139"><ele>178.5</ele><time>2026-04-06T14:05:16.001Z</time></trkpt><trkpt lat="45.3621527972842" lon="8.190896845459907"><ele>180.0</ele><time>2026-04-06T14:05:17.001Z</time></trkpt><trkpt lat="45.362155610655165" lon="8.19126428357292"><ele>179.0</ele><time>2026-04-06T14:05:18.001Z</time></trkpt><trkpt lat="45.36207812053452" lon="8.191574749672151"><ele>178.0</ele><time>2026-04-06T14:05:19.001Z</time></trkpt><trkpt lat="45.36200040753046" lon="8.191880692149159"><ele>178.0</ele><time>2026-04-06T14:05:20.001Z</time></trkpt><trkpt lat="45.36192483718297" lon="8.19218403865663"><ele>178.0</ele><time>2026-04-06T14:05:21Z</time></trkpt><trkpt lat="45.36185158889534" lon="8.192489229871342"><ele>177.0</ele><time>2026-04-06T14:05:22Z</time></trkpt><trkpt lat="45.36177891431906" lon="8.192793023352372"><ele>176.0</ele><time>2026-04-06T14:05:23Z</time></trkpt><trkpt lat="45.36170835013719" lon="8.193095891704194"><ele>176.0</ele><time>2026-04-06T14:05:24Z</time></trkpt><trkpt lat="45.36163774701613" lon="8.193399371152825"><ele>176.0</ele><time>2026-04-06T14:05:25Z</time></trkpt><trkpt lat="45.36156459525793" lon="8.193703451065735"><ele>176.0</ele><time>2026-04-06T14:05:26Z</time></trkpt><trkpt lat="45.36149115487312" lon="8.194005893573351"><ele>176.0</ele><time>2026-04-06T14:05:27Z</time></trkpt><trkpt lat="45.36141784934434" lon="8.19430926336538"><ele>176.0</ele><time>2026-04-06T14:05:28Z</time></trkpt><trkpt lat="45.36134558004614" lon="8.194612688077692"><ele>176.0</ele><time>2026-04-06T14:05:29Z</time></trkpt><trkpt lat="45.36127305186985" lon="8.194914407176988"><ele>176.0</ele><time>2026-04-06T14:05:30Z</time></trkpt><trkpt lat="45.36120147634223" lon="8.195215424223084"><ele>176.33333333333331</ele><time>2026-04-06T14:05:31Z</time></trkpt><trkpt lat="45.36113010203041" lon="8.195517685139466"><ele>176.66666666666666</ele><time>2026-04-06T14:05:32Z</time></trkpt><trkpt lat="45.36105834675034" lon="8.195818820644357"><ele>177.0</ele><time>2026-04-06T14:05:33Z</time></trkpt><trkpt lat="45.36098468677536" lon="8.196119936062303"><ele>176.33333333333334</ele><time>2026-04-06T14:05:34Z</time></trkpt><trkpt lat="45.36091060156086" lon="8.196421025235939"><ele>175.66666666666669</ele><time>2026-04-06T14:05:35Z</time></trkpt><trkpt lat="45.360837322502746" lon="8.196718778441852"><ele>175.0</ele><time>2026-04-06T14:05:36Z</time></trkpt><trkpt lat="45.36076367238148" lon="8.197022631143122"><ele>174.5</ele><time>2026-04-06T14:05:37Z</time></trkpt><trkpt lat="45.36069091896969" lon="8.19732727245681"><ele>174.0</ele><time>2026-04-06T14:05:38Z</time></trkpt><trkpt lat="45.3606175011764" lon="8.197629876484603"><ele>174.0</ele><time>2026-04-06T14:05:39Z</time></trkpt><trkpt lat="45.36054522455065" lon="8.19793173033519"><ele>174.0</ele><time>2026-04-06T14:05:40Z</time></trkpt><trkpt lat="45.360472633096144" lon="8.19823489940571"><ele>174.0</ele><time>2026-04-06T14:05:41Z</time></trkpt><trkpt lat="45.360400364703224" lon="8.198535249829904"><ele>174.0</ele><time>2026-04-06T14:05:42Z</time></trkpt><trkpt lat="45.360328333968695" lon="8.198836912983966"><ele>174.0</ele><time>2026-04-06T14:05:43Z</time></trkpt><trkpt lat="45.36025654477705" lon="8.199138656512485"><ele>174.0</ele><time>2026-04-06T14:05:44Z</time></trkpt><trkpt lat="45.36018424391649" lon="8.199440288386254"><ele>174.0</ele><time>2026-04-06T14:05:45Z</time></trkpt><trkpt lat="45.360112214920754" lon="8.199742303935118"><ele>174.0</ele><time>2026-04-06T14:05:46Z</time></trkpt><trkpt lat="45.36003917244123" lon="8.200044613609995"><ele>174.0</ele><time>2026-04-06T14:05:47Z</time></trkpt><trkpt lat="45.35996503601018" lon="8.200346316371489"><ele>173.66666666666666</ele><time>2026-04-06T14:05:48Z</time></trkpt><trkpt lat="45.35989194953401" lon="8.200644127432508"><ele>173.33333333333331</ele><time>2026-04-06T14:05:49Z</time></trkpt><trkpt lat="45.359820819785895" lon="8.200941405241933"><ele>173.0</ele><time>2026-04-06T14:05:50Z</time></trkpt><trkpt lat="45.35975055367771" lon="8.20123819023336"><ele>173.33333333333331</ele><time>2026-04-06T14:05:51Z</time></trkpt><trkpt lat="45.35968076630284" lon="8.201533512012707"><ele>173.66666666666666</ele><time>2026-04-06T14:05:52Z</time></trkpt><trkpt lat="45.35961028698687" lon="8.20182683792664"><ele>174.0</ele><time>2026-04-06T14:05:53Z</time></trkpt><trkpt lat="45.35954044836259" lon="8.20211899759896"><ele>173.33333333333334</ele><time>2026-04-06T14:05:54Z</time></trkpt><trkpt lat="45.359469040524765" lon="8.202406333277507"><ele>172.66666666666669</ele><time>2026-04-06T14:05:55Z</time></trkpt><trkpt lat="45.35940101503793" lon="8.202690202233192"><ele>172.0</ele><time>2026-04-06T14:05:56Z</time></trkpt><trkpt lat="45.35933384902899" lon="8.20297155798973"><ele>171.66666666666669</ele><time>2026-04-06T14:05:57Z</time></trkpt><trkpt lat="45.359267267001016" lon="8.203256604080103"><ele>171.33333333333334</ele><time>2026-04-06T14:05:58Z</time></trkpt><trkpt lat="45.35919914581041" lon="8.203545250222751"><ele>171.0</ele><time>2026-04-06T14:05:59Z</time></trkpt><trkpt lat="45.35912999446043" lon="8.20383694653912"><ele>171.0</ele><time>2026-04-06T14:06:00Z</time></trkpt><trkpt lat="45.359062148123016" lon="8.20411822794544"><ele>171.0</ele><time>2026-04-06T14:06:01Z</time></trkpt><trkpt lat="45.358995016763984" lon="8.204404277493625"><ele>171.0</ele><time>2026-04-06T14:06:02Z</time></trkpt><trkpt lat="45.35892421844554" lon="8.204691769229155"><ele>171.66666666666666</ele><time>2026-04-06T14:06:03Z</time></trkpt><trkpt lat="45.35885534061844" lon="8.204981052716372"><ele>172.33333333333331</ele><time>2026-04-06T14:06:04Z</time></trkpt><trkpt lat="45.35878585822747" lon="8.20527200453812"><ele>173.0</ele><time>2026-04-06T14:06:05Z</time></trkpt><trkpt lat="45.35871614008196" lon="8.205564699057733"><ele>173.0</ele><time>2026-04-06T14:06:06Z</time></trkpt><trkpt lat="45.358647795359815" lon="8.205858381450678"><ele>173.0</ele><time>2026-04-06T14:06:07Z</time></trkpt><trkpt lat="45.35857556933388" lon="8.206152689628565"><ele>173.0</ele><time>2026-04-06T14:06:08Z</time></trkpt><trkpt lat="45.35849933613908" lon="8.206453907203032"><ele>173.0</ele><time>2026-04-06T14:06:09Z</time></trkpt><trkpt lat="45.35842331304394" lon="8.20676059101909"><ele>173.0</ele><time>2026-04-06T14:06:10Z</time></trkpt><trkpt lat="45.35834949101874" lon="8.207063718388923"><ele>172.33333333333331</ele><time>2026-04-06T14:06:11Z</time></trkpt><trkpt lat="45.35827804025392" lon="8.20736411236649"><ele>171.66666666666666</ele><time>2026-04-06T14:06:12Z</time></trkpt><trkpt lat="45.35820528708878" lon="8.207668483309366"><ele>171.0</ele><time>2026-04-06T14:06:13Z</time></trkpt><trkpt lat="45.358132949614344" lon="8.207974227219983"><ele>171.0</ele><time>2026-04-06T14:06:14Z</time></trkpt><trkpt lat="45.35806086901799" lon="8.208280665312266"><ele>171.0</ele><time>2026-04-06T14:06:15Z</time></trkpt><trkpt lat="45.357987666771436" lon="8.20858775318516"><ele>171.0</ele><time>2026-04-06T14:06:16Z</time></trkpt><trkpt lat="45.357915565481015" lon="8.208892997241014"><ele>171.0</ele><time>2026-04-06T14:06:17Z</time></trkpt><trkpt lat="45.35784090067557" lon="8.2091968365522"><ele>171.5</ele><time>2026-04-06T14:06:18Z</time></trkpt><trkpt lat="45.35776562240765" lon="8.20950442101154"><ele>172.0</ele><time>2026-04-06T14:06:19Z</time></trkpt><trkpt lat="45.3576901471283" lon="8.209811856996502"><ele>171.5</ele><time>2026-04-06T14:06:20Z</time></trkpt><trkpt lat="45.35761675013049" lon="8.210115704945892"><ele>171.0</ele><time>2026-04-06T14:06:21Z</time></trkpt><trkpt lat="45.357544426575444" lon="8.210418860212199"><ele>170.66666666666666</ele><time>2026-04-06T14:06:22Z</time></trkpt><trkpt lat="45.35747166156964" lon="8.210720582100127"><ele>170.33333333333331</ele><time>2026-04-06T14:06:23Z</time></trkpt><trkpt lat="45.35739842800627" lon="8.211021252279908"><ele>170.0</ele><time>2026-04-06T14:06:24Z</time></trkpt><trkpt lat="45.357326053757745" lon="8.211319580287276"><ele>170.33333333333331</ele><time>2026-04-06T14:06:25Z</time></trkpt><trkpt lat="45.35725499750936" lon="8.211617240628316"><ele>170.66666666666666</ele><time>2026-04-06T14:06:26Z</time></trkpt><trkpt lat="45.35718130961505" lon="8.211915361732114"><ele>171.0</ele><time>2026-04-06T14:06:27Z</time></trkpt><trkpt lat="45.35710841800932" lon="8.212212536861006"><ele>171.0</ele><time>2026-04-06T14:06:28Z</time></trkpt><trkpt lat="45.357037347887825" lon="8.212507671548671"><ele>171.0</ele><time>2026-04-06T14:06:29Z</time></trkpt><trkpt lat="45.356966720986044" lon="8.212805088459096"><ele>171.0</ele><time>2026-04-06T14:06:30Z</time></trkpt><trkpt lat="45.35689589443551" lon="8.213102783699005"><ele>170.66666666666666</ele><time>2026-04-06T14:06:31Z</time></trkpt><trkpt lat="45.35682500943143" lon="8.213400112093993"><ele>170.33333333333331</ele><time>2026-04-06T14:06:32Z</time></trkpt><trkpt lat="45.356753726127025" lon="8.213696875535867"><ele>170.0</ele><time>2026-04-06T14:06:33Z</time></trkpt><trkpt lat="45.356682288382665" lon="8.213993815203185"><ele>169.66666666666666</ele><time>2026-04-06T14:06:34Z</time></trkpt><trkpt lat="45.356609721758375" lon="8.214289832112382"><ele>169.33333333333334</ele><time>2026-04-06T14:06:35Z</time></trkpt><trkpt lat="45.35653893045618" lon="8.21458655145025"><ele>169.0</ele><time>2026-04-06T14:06:36Z</time></trkpt><trkpt lat="45.35646751217001" lon="8.214884718781672"><ele>169.0</ele><time>2026-04-06T14:06:37Z</time></trkpt><trkpt lat="45.35639474799363" lon="8.215183155474158"><ele>169.0</ele><time>2026-04-06T14:06:38Z</time></trkpt><trkpt lat="45.356321933160174" lon="8.215483392344524"><ele>169.0</ele><time>2026-04-06T14:06:39Z</time></trkpt><trkpt lat="45.356249035405064" lon="8.21578493063693"><ele>169.0</ele><time>2026-04-06T14:06:40Z</time></trkpt><trkpt lat="45.35617625482435" lon="8.216086699656282"><ele>169.0</ele><time>2026-04-06T14:06:41Z</time></trkpt><trkpt lat="45.35610439180478" lon="8.216388081131775"><ele>169.0</ele><time>2026-04-06T14:06:42Z</time></trkpt><trkpt lat="45.356032430832194" lon="8.216688230260099"><ele>169.0</ele><time>2026-04-06T14:06:43Z</time></trkpt><trkpt lat="45.35595995068755" lon="8.216987173627084"><ele>169.0</ele><time>2026-04-06T14:06:44Z</time></trkpt><trkpt lat="45.35588809108008" lon="8.21728595466755"><ele>169.0</ele><time>2026-04-06T14:06:45Z</time></trkpt><trkpt lat="45.35581482461689" lon="8.217586067824843"><ele>169.0</ele><time>2026-04-06T14:06:46Z</time></trkpt><trkpt lat="45.35574167878789" lon="8.217885800932015"><ele>169.0</ele><time>2026-04-06T14:06:47Z</time></trkpt><trkpt lat="45.35566897648034" lon="8.218183793814632"><ele>169.0</ele><time>2026-04-06T14:06:48Z</time></trkpt><trkpt lat="45.35559813893631" lon="8.218482134894735"><ele>169.0</ele><time>2026-04-06T14:06:49Z</time></trkpt><trkpt lat="45.35552865940361" lon="8.218779255806837"><ele>169.0</ele><time>2026-04-06T14:06:50Z</time></trkpt><trkpt lat="45.355458688061255" lon="8.219073502150364"><ele>169.0</ele><time>2026-04-06T14:06:51Z</time></trkpt><trkpt lat="45.35538655308497" lon="8.219371555144225"><ele>169.0</ele><time>2026-04-06T14:06:52Z</time></trkpt><trkpt lat="45.35531529714453" lon="8.21967314151748"><ele>169.0</ele><time>2026-04-06T14:06:53Z</time></trkpt><trkpt lat="45.3552420924439" lon="8.219974138043185"><ele>169.0</ele><time>2026-04-06T14:06:54Z</time></trkpt><trkpt lat="45.355169595489286" lon="8.22027583331272"><ele>168.66666666666669</ele><time>2026-04-06T14:06:55Z</time></trkpt><trkpt lat="45.35509787939127" lon="8.220575318157481"><ele>168.33333333333334</ele><time>2026-04-06T14:06:56Z</time></trkpt><trkpt lat="45.35502773421571" lon="8.220874253789447"><ele>168.0</ele><time>2026-04-06T14:06:57Z</time></trkpt><trkpt lat="45.35495601725074" lon="8.221174453696404"><ele>168.0</ele><time>2026-04-06T14:06:58Z</time></trkpt><trkpt lat="45.35488114023464" lon="8.22147405603836"><ele>168.0</ele><time>2026-04-06T14:06:59Z</time></trkpt><trkpt lat="45.35480653826891" lon="8.221774306166015"><ele>168.0</ele><time>2026-04-06T14:07:00Z</time></trkpt><trkpt lat="45.35473390554066" lon="8.22207444019333"><ele>167.66666666666666</ele><time>2026-04-06T14:07:01Z</time></trkpt><trkpt lat="45.35466013258638" lon="8.222374470122011"><ele>167.33333333333331</ele><time>2026-04-06T14:07:02.001Z</time></trkpt><trkpt lat="45.354586971907366" lon="8.222672136503425"><ele>167.0</ele><time>2026-04-06T14:07:03.001Z</time></trkpt><trkpt lat="45.35451511306562" lon="8.222971771470498"><ele>167.0</ele><time>2026-04-06T14:07:04.001Z</time></trkpt><trkpt lat="45.35444402521464" lon="8.223270505574693"><ele>167.0</ele><time>2026-04-06T14:07:05.001Z</time></trkpt><trkpt lat="45.35437338008977" lon="8.223568982473044"><ele>167.0</ele><time>2026-04-06T14:07:06.001Z</time></trkpt><trkpt lat="45.35430101656059" lon="8.223865961758396"><ele>167.0</ele><time>2026-04-06T14:07:07.001Z</time></trkpt><trkpt lat="45.35422868635852" lon="8.22415993333182"><ele>167.0</ele><time>2026-04-06T14:07:08.001Z</time></trkpt><trkpt lat="45.35415785734023" lon="8.224454993935698"><ele>167.0</ele><time>2026-04-06T14:07:09.001Z</time></trkpt><trkpt lat="45.35408723081563" lon="8.224745870001867"><ele>166.66666666666666</ele><time>2026-04-06T14:07:10.001Z</time></trkpt><trkpt lat="45.35401799537784" lon="8.225029219421781"><ele>166.33333333333334</ele><time>2026-04-06T14:07:11.001Z</time></trkpt><trkpt lat="45.3539498007245" lon="8.22531424832797"><ele>166.0</ele><time>2026-04-06T14:07:12.001Z</time></trkpt><trkpt lat="45.353878897819854" lon="8.225598772391095"><ele>165.66666666666669</ele><time>2026-04-06T14:07:13.001Z</time></trkpt><trkpt lat="45.35381028525561" lon="8.225880782480905"><ele>165.33333333333334</ele><time>2026-04-06T14:07:14.001Z</time></trkpt><trkpt lat="45.35374195554119" lon="8.226163390992655"><ele>165.0</ele><time>2026-04-06T14:07:15.001Z</time></trkpt><trkpt lat="45.35367353944447" lon="8.22645526705211"><ele>165.33333333333334</ele><time>2026-04-06T14:07:16.001Z</time></trkpt><trkpt lat="45.35360323586516" lon="8.226753406228779"><ele>165.66666666666669</ele><time>2026-04-06T14:07:17.001Z</time></trkpt><trkpt lat="45.35353069427568" lon="8.227049263129569"><ele>166.0</ele><time>2026-04-06T14:07:18.001Z</time></trkpt><trkpt lat="45.35345792013569" lon="8.227347698437013"><ele>166.0</ele><time>2026-04-06T14:07:19.001Z</time></trkpt><trkpt lat="45.353385643661525" lon="8.22764926010098"><ele>166.0</ele><time>2026-04-06T14:07:20.001Z</time></trkpt><trkpt lat="45.35331331159122" lon="8.22794938708291"><ele>166.0</ele><time>2026-04-06T14:07:21.001Z</time></trkpt><trkpt lat="45.35324367589905" lon="8.22824504101939"><ele>166.0</ele><time>2026-04-06T14:07:22.001Z</time></trkpt><trkpt lat="45.35317149993624" lon="8.228542559121845"><ele>166.0</ele><time>2026-04-06T14:07:23Z</time></trkpt><trkpt lat="45.35310062206215" lon="8.228834131396493"><ele>166.0</ele><time>2026-04-06T14:07:24Z</time></trkpt><trkpt lat="45.35302897536241" lon="8.229127919732207"><ele>166.0</ele><time>2026-04-06T14:07:25Z</time></trkpt><trkpt lat="45.35295804436969" lon="8.229418860506486"><ele>166.0</ele><time>2026-04-06T14:07:26Z</time></trkpt><trkpt lat="45.35288583456057" lon="8.229714849823742"><ele>166.0</ele><time>2026-04-06T14:07:27Z</time></trkpt><trkpt lat="45.35281646398716" lon="8.230004012178815"><ele>165.33333333333334</ele><time>2026-04-06T14:07:28Z</time></trkpt><trkpt lat="45.35275478292418" lon="8.230272822282604"><ele>164.66666666666666</ele><time>2026-04-06T14:07:29Z</time></trkpt><trkpt lat="45.35268951950142" lon="8.23053202533138"><ele>164.0</ele><time>2026-04-06T14:07:30Z</time></trkpt><trkpt lat="45.352628168109455" lon="8.230781596090088"><ele>164.0</ele><time>2026-04-06T14:07:31Z</time></trkpt><trkpt lat="45.35256997210509" lon="8.231018467327932"><ele>164.0</ele><time>2026-04-06T14:07:32Z</time></trkpt><trkpt lat="45.35251357056976" lon="8.231246461759278"><ele>164.0</ele><time>2026-04-06T14:07:33Z</time></trkpt><trkpt lat="45.35245602401573" lon="8.231484303435245"><ele>164.0</ele><time>2026-04-06T14:07:34Z</time></trkpt><trkpt lat="45.352396719089384" lon="8.23173203506851"><ele>164.0</ele><time>2026-04-06T14:07:35Z</time></trkpt><trkpt lat="45.35233460246385" lon="8.23199081167604"><ele>164.0</ele><time>2026-04-06T14:07:36Z</time></trkpt><trkpt lat="45.35227309106975" lon="8.232249770962364"><ele>164.0</ele><time>2026-04-06T14:07:37Z</time></trkpt><trkpt lat="45.352211977702225" lon="8.232507592602353"><ele>164.0</ele><time>2026-04-06T14:07:38Z</time></trkpt><trkpt lat="45.35214982710898" lon="8.23276182363623"><ele>164.0</ele><time>2026-04-06T14:07:39Z</time></trkpt><trkpt lat="45.35208761819025" lon="8.233013563007745"><ele>164.0</ele><time>2026-04-06T14:07:40Z</time></trkpt><trkpt lat="45.35202622836838" lon="8.233263472566707"><ele>164.0</ele><time>2026-04-06T14:07:41Z</time></trkpt><trkpt lat="45.35196436017752" lon="8.233515044182004"><ele>164.0</ele><time>2026-04-06T14:07:42Z</time></trkpt><trkpt lat="45.351903751779716" lon="8.233769589972002"><ele>164.0</ele><time>2026-04-06T14:07:43Z</time></trkpt><trkpt lat="45.35184367858096" lon="8.23401941782534"><ele>164.0</ele><time>2026-04-06T14:07:44Z</time></trkpt><trkpt lat="45.35178160485038" lon="8.234276051239968"><ele>164.0</ele><time>2026-04-06T14:07:45Z</time></trkpt><trkpt lat="45.351719047139994" lon="8.234531271342806"><ele>164.0</ele><time>2026-04-06T14:07:46Z</time></trkpt><trkpt lat="45.35165695676784" lon="8.23478228190826"><ele>164.0</ele><time>2026-04-06T14:07:47Z</time></trkpt><trkpt lat="45.3515934655881" lon="8.235041216906117"><ele>164.0</ele><time>2026-04-06T14:07:48Z</time></trkpt><trkpt lat="45.351530743130596" lon="8.235302898918702"><ele>163.66666666666666</ele><time>2026-04-06T14:07:49Z</time></trkpt><trkpt lat="45.351468435077415" lon="8.235564517093252"><ele>163.33333333333334</ele><time>2026-04-06T14:07:50Z</time></trkpt><trkpt lat="45.35140602122745" lon="8.235821358366888"><ele>163.0</ele><time>2026-04-06T14:07:51Z</time></trkpt><trkpt lat="45.35134431508002" lon="8.236073585172917"><ele>162.66666666666669</ele><time>2026-04-06T14:07:52Z</time></trkpt><trkpt lat="45.35128106703223" lon="8.236325782597973"><ele>162.33333333333334</ele><time>2026-04-06T14:07:53Z</time></trkpt><trkpt lat="45.351219418439456" lon="8.236577756044689"><ele>162.0</ele><time>2026-04-06T14:07:54Z</time></trkpt><trkpt lat="45.35115852796956" lon="8.236832310806943"><ele>162.0</ele><time>2026-04-06T14:07:55Z</time></trkpt><trkpt lat="45.351096753686335" lon="8.237088210246103"><ele>162.0</ele><time>2026-04-06T14:07:56Z</time></trkpt><trkpt lat="45.35103587748216" lon="8.237348035316673"><ele>162.0</ele><time>2026-04-06T14:07:57Z</time></trkpt><trkpt lat="45.35097467121675" lon="8.237608512697737"><ele>162.0</ele><time>2026-04-06T14:07:58Z</time></trkpt><trkpt lat="45.350913433834656" lon="8.237865230025319"><ele>162.0</ele><time>2026-04-06T14:07:59Z</time></trkpt><trkpt lat="45.350853190992176" lon="8.238109294160159"><ele>162.0</ele><time>2026-04-06T14:08:00Z</time></trkpt><trkpt lat="45.35079644380664" lon="8.23834367259432"><ele>162.33333333333334</ele><time>2026-04-06T14:08:01Z</time></trkpt><trkpt lat="45.3507437784379" lon="8.23856546946756"><ele>162.66666666666669</ele><time>2026-04-06T14:08:02Z</time></trkpt><trkpt lat="45.35069863535827" lon="8.238767844278756"><ele>163.0</ele><time>2026-04-06T14:08:03Z</time></trkpt><trkpt lat="45.35066168661442" lon="8.23896119051123"><ele>163.2</ele><time>2026-04-06T14:08:04Z</time></trkpt><trkpt lat="45.35063466662417" lon="8.239138098035994"><ele>163.4</ele><time>2026-04-06T14:08:05Z</time></trkpt><trkpt lat="45.3506170432728" lon="8.239293760984088"><ele>163.6</ele><time>2026-04-06T14:08:06Z</time></trkpt><trkpt lat="45.35060483417859" lon="8.239416524253302"><ele>163.79999999999998</ele><time>2026-04-06T14:08:07Z</time></trkpt><trkpt lat="45.350588770678" lon="8.239513289773326"><ele>164.0</ele><time>2026-04-06T14:08:08Z</time></trkpt><trkpt lat="45.35055215406789" lon="8.239588480348077"><ele>164.0</ele><time>2026-04-06T14:08:09Z</time></trkpt><trkpt lat="45.350499725915284" lon="8.239650129081461"><ele>164.0</ele><time>2026-04-06T14:08:10Z</time></trkpt><trkpt lat="45.35044729133457" lon="8.2397047796234"><ele>164.0</ele><time>2026-04-06T14:08:11Z</time></trkpt><trkpt lat="45.35036142971187" lon="8.239836399138834"><ele>164.0</ele><time>2026-04-06T14:08:13Z</time></trkpt><trkpt lat="45.35034257331151" lon="8.239935097206851"><ele>164.0</ele><time>2026-04-06T14:08:14Z</time></trkpt><trkpt lat="45.35034883008835" lon="8.240046655128792"><ele>164.0</ele><time>2026-04-06T14:08:15Z</time></trkpt><trkpt lat="45.3503707368118" lon="8.24016849981634"><ele>164.0</ele><time>2026-04-06T14:08:16Z</time></trkpt><trkpt lat="45.35038933876116" lon="8.240295066554173"><ele>164.0</ele><time>2026-04-06T14:08:17Z</time></trkpt><trkpt lat="45.3503908666386" lon="8.240429691572947"><ele>164.0</ele><time>2026-04-06T14:08:18Z</time></trkpt><trkpt lat="45.35037921370848" lon="8.24058463243016"><ele>164.0</ele><time>2026-04-06T14:08:19Z</time></trkpt><trkpt lat="45.35036360726542" lon="8.240763792389682"><ele>164.0</ele><time>2026-04-06T14:08:20Z</time></trkpt><trkpt lat="45.350340712493775" lon="8.240967115397874"><ele>164.0</ele><time>2026-04-06T14:08:21Z</time></trkpt><trkpt lat="45.350307361765594" lon="8.24117558078646"><ele>164.0</ele><time>2026-04-06T14:08:22Z</time></trkpt><trkpt lat="45.35027641636125" lon="8.241409025429755"><ele>164.0</ele><time>2026-04-06T14:08:23Z</time></trkpt><trkpt lat="45.35025197152153" lon="8.241657070179645"><ele>163.66666666666666</ele><time>2026-04-06T14:08:24Z</time></trkpt><trkpt lat="45.35023008287065" lon="8.241916876751214"><ele>163.33333333333334</ele><time>2026-04-06T14:08:25Z</time></trkpt><trkpt lat="45.35020806824616" lon="8.242179649574968"><ele>163.0</ele><time>2026-04-06T14:08:26Z</time></trkpt><trkpt lat="45.35018476149806" lon="8.242452418609718"><ele>163.0</ele><time>2026-04-06T14:08:27Z</time></trkpt><trkpt lat="45.35016509458149" lon="8.242715690727437"><ele>163.0</ele><time>2026-04-06T14:08:28Z</time></trkpt><trkpt lat="45.350148706580356" lon="8.242966341933926"><ele>163.0</ele><time>2026-04-06T14:08:29Z</time></trkpt><trkpt lat="45.35013557233316" lon="8.24320727443381"><ele>163.0</ele><time>2026-04-06T14:08:30Z</time></trkpt><trkpt lat="45.350124369423376" lon="8.243442398493043"><ele>163.0</ele><time>2026-04-06T14:08:31Z</time></trkpt><trkpt lat="45.35011476915657" lon="8.243671894900684"><ele>163.0</ele><time>2026-04-06T14:08:32Z</time></trkpt><trkpt lat="45.35010763379988" lon="8.24389298300276"><ele>163.0</ele><time>2026-04-06T14:08:33Z</time></trkpt><trkpt lat="45.35010101925127" lon="8.244109130669894"><ele>163.0</ele><time>2026-04-06T14:08:34Z</time></trkpt><trkpt lat="45.35009618790592" lon="8.24432224494195"><ele>163.0</ele><time>2026-04-06T14:08:35Z</time></trkpt><trkpt lat="45.35009046275586" lon="8.244524189938248"><ele>163.0</ele><time>2026-04-06T14:08:36Z</time></trkpt><trkpt lat="45.35008373119446" lon="8.244719671066678"><ele>162.75</ele><time>2026-04-06T14:08:37Z</time></trkpt><trkpt lat="45.350081308543544" lon="8.244895856563083"><ele>162.5</ele><time>2026-04-06T14:08:38Z</time></trkpt><trkpt lat="45.35007672294098" lon="8.245068752023222"><ele>162.25</ele><time>2026-04-06T14:08:39Z</time></trkpt><trkpt lat="45.350071806756844" lon="8.245233197896813"><ele>162.0</ele><time>2026-04-06T14:08:40Z</time></trkpt><trkpt lat="45.35006705579724" lon="8.245400056431995"><ele>162.0</ele><time>2026-04-06T14:08:41Z</time></trkpt><trkpt lat="45.35005986190675" lon="8.245583627051749"><ele>162.0</ele><time>2026-04-06T14:08:42Z</time></trkpt><trkpt lat="45.350052823415155" lon="8.245770913129466"><ele>162.0</ele><time>2026-04-06T14:08:43Z</time></trkpt><trkpt lat="45.35004870176434" lon="8.245973805588442"><ele>162.0</ele><time>2026-04-06T14:08:44Z</time></trkpt><trkpt lat="45.350041116104975" lon="8.246181180544479"><ele>162.5</ele><time>2026-04-06T14:08:45Z</time></trkpt><trkpt lat="45.35003339419256" lon="8.246390700829632"><ele>163.0</ele><time>2026-04-06T14:08:46Z</time></trkpt><trkpt lat="45.35002176320005" lon="8.246593314705972"><ele>163.5</ele><time>2026-04-06T14:08:47Z</time></trkpt><trkpt lat="45.350011016138495" lon="8.24679187753556"><ele>164.0</ele><time>2026-04-06T14:08:48Z</time></trkpt><trkpt lat="45.34999357352556" lon="8.246995190449287"><ele>164.25</ele><time>2026-04-06T14:08:49Z</time></trkpt><trkpt lat="45.349972363411446" lon="8.247202450485434"><ele>164.5</ele><time>2026-04-06T14:08:50Z</time></trkpt><trkpt lat="45.34994310901971" lon="8.247397595455858"><ele>164.75</ele><time>2026-04-06T14:08:51Z</time></trkpt><trkpt lat="45.34990770399437" lon="8.247580479324016"><ele>165.0</ele><time>2026-04-06T14:08:52Z</time></trkpt><trkpt lat="45.34987280156325" lon="8.247758437521579"><ele>165.0</ele><time>2026-04-06T14:08:53Z</time></trkpt><trkpt lat="45.349843542847026" lon="8.247932950232885"><ele>165.0</ele><time>2026-04-06T14:08:54Z</time></trkpt><trkpt lat="45.3498176325367" lon="8.248101839511001"><ele>165.0</ele><time>2026-04-06T14:08:55Z</time></trkpt><trkpt lat="45.34979395357701" lon="8.24826865345396"><ele>165.0</ele><time>2026-04-06T14:08:56Z</time></trkpt><trkpt lat="45.349769232041766" lon="8.248435978091516"><ele>165.0</ele><time>2026-04-06T14:08:57Z</time></trkpt><trkpt lat="45.34974675817362" lon="8.24859041232271"><ele>165.0</ele><time>2026-04-06T14:08:58Z</time></trkpt><trkpt lat="45.34972680452321" lon="8.24874004517671"><ele>165.0</ele><time>2026-04-06T14:08:59Z</time></trkpt><trkpt lat="45.34971099837934" lon="8.248892894603115"><ele>165.0</ele><time>2026-04-06T14:09:00Z</time></trkpt><trkpt lat="45.34969319332219" lon="8.249053074473894"><ele>165.0</ele><time>2026-04-06T14:09:01Z</time></trkpt><trkpt lat="45.34967264362274" lon="8.249208982609428"><ele>165.0</ele><time>2026-04-06T14:09:02Z</time></trkpt><trkpt lat="45.349648859348605" lon="8.249369587014437"><ele>165.0</ele><time>2026-04-06T14:09:03Z</time></trkpt><trkpt lat="45.349615163380086" lon="8.249544709814378"><ele>165.0</ele><time>2026-04-06T14:09:04Z</time></trkpt><trkpt lat="45.349584351018244" lon="8.249700550319648"><ele>165.0</ele><time>2026-04-06T14:09:05Z</time></trkpt><trkpt lat="45.34955170959239" lon="8.249851302639737"><ele>164.6</ele><time>2026-04-06T14:09:06Z</time></trkpt><trkpt lat="45.34952146084198" lon="8.249999293009862"><ele>164.2</ele><time>2026-04-06T14:09:07Z</time></trkpt><trkpt lat="45.34948024204075" lon="8.25014987685939"><ele>163.8</ele><time>2026-04-06T14:09:08.001Z</time></trkpt><trkpt lat="45.34943437683859" lon="8.25029066680225"><ele>163.4</ele><time>2026-04-06T14:09:09.001Z</time></trkpt><trkpt lat="45.349383076377975" lon="8.250431018208646"><ele>163.0</ele><time>2026-04-06T14:09:10.001Z</time></trkpt><trkpt lat="45.34933145872404" lon="8.250567224077098"><ele>163.2</ele><time>2026-04-06T14:09:11.001Z</time></trkpt><trkpt lat="45.349279669659566" lon="8.250698152640503"><ele>163.4</ele><time>2026-04-06T14:09:12.001Z</time></trkpt><trkpt lat="45.34922590938226" lon="8.250823460384323"><ele>163.6</ele><time>2026-04-06T14:09:13.001Z</time></trkpt><trkpt lat="45.34916596175856" lon="8.250955393285839"><ele>163.79999999999998</ele><time>2026-04-06T14:09:14.001Z</time></trkpt><trkpt lat="45.349105991848354" lon="8.251089234085695"><ele>164.0</ele><time>2026-04-06T14:09:15.001Z</time></trkpt><trkpt lat="45.34904557401993" lon="8.251229244412759"><ele>164.0</ele><time>2026-04-06T14:09:16.001Z</time></trkpt><trkpt lat="45.3489840547039" lon="8.251381949920363"><ele>164.0</ele><time>2026-04-06T14:09:17.001Z</time></trkpt><trkpt lat="45.34892785057351" lon="8.251546409405163"><ele>164.0</ele><time>2026-04-06T14:09:18.001Z</time></trkpt><trkpt lat="45.3488709967544" lon="8.251730285981164"><ele>164.0</ele><time>2026-04-06T14:09:19.001Z</time></trkpt><trkpt lat="45.34881845498032" lon="8.251933610402324"><ele>163.33333333333331</ele><time>2026-04-06T14:09:20.001Z</time></trkpt><trkpt lat="45.34876638462935" lon="8.252150469853243"><ele>162.66666666666666</ele><time>2026-04-06T14:09:21.001Z</time></trkpt><trkpt lat="45.34871442967777" lon="8.252375784377339"><ele>162.0</ele><time>2026-04-06T14:09:22.001Z</time></trkpt><trkpt lat="45.348662703314865" lon="8.252603415544192"><ele>161.33333333333334</ele><time>2026-04-06T14:09:23.001Z</time></trkpt><trkpt lat="45.348615604536526" lon="8.252824343766212"><ele>160.66666666666669</ele><time>2026-04-06T14:09:24.001Z</time></trkpt><trkpt lat="45.3485658924032" lon="8.253054463738934"><ele>160.0</ele><time>2026-04-06T14:09:25.001Z</time></trkpt><trkpt lat="45.34851338982808" lon="8.25328889221727"><ele>160.0</ele><time>2026-04-06T14:09:26.001Z</time></trkpt><trkpt lat="45.34845912324198" lon="8.253523626212884"><ele>160.0</ele><time>2026-04-06T14:09:27.001Z</time></trkpt><trkpt lat="45.34840492059102" lon="8.253753224320167"><ele>160.0</ele><time>2026-04-06T14:09:28.001Z</time></trkpt><trkpt lat="45.348352056929144" lon="8.253980701545844"><ele>160.0</ele><time>2026-04-06T14:09:29.001Z</time></trkpt><trkpt lat="45.34829901771064" lon="8.254211702257603"><ele>160.0</ele><time>2026-04-06T14:09:30.001Z</time></trkpt><trkpt lat="45.34824361955826" lon="8.254448283303285"><ele>160.0</ele><time>2026-04-06T14:09:31.001Z</time></trkpt><trkpt lat="45.34818767440913" lon="8.254685216397723"><ele>159.66666666666669</ele><time>2026-04-06T14:09:32Z</time></trkpt><trkpt lat="45.34813372603983" lon="8.254927228440904"><ele>159.33333333333334</ele><time>2026-04-06T14:09:33Z</time></trkpt><trkpt lat="45.34807947047556" lon="8.255165274104915"><ele>159.0</ele><time>2026-04-06T14:09:34Z</time></trkpt><trkpt lat="45.348025131716824" lon="8.255400569302731"><ele>159.0</ele><time>2026-04-06T14:09:35Z</time></trkpt><trkpt lat="45.34797107483776" lon="8.255637381992905"><ele>159.0</ele><time>2026-04-06T14:09:36Z</time></trkpt><trkpt lat="45.3479172797884" lon="8.255875313571577"><ele>159.0</ele><time>2026-04-06T14:09:37Z</time></trkpt><trkpt lat="45.34786256444934" lon="8.256116067950067"><ele>159.0</ele><time>2026-04-06T14:09:38Z</time></trkpt><trkpt lat="45.347807656177885" lon="8.256358110861846"><ele>159.0</ele><time>2026-04-06T14:09:39Z</time></trkpt><trkpt lat="45.3477522541078" lon="8.25660011436903"><ele>159.0</ele><time>2026-04-06T14:09:40Z</time></trkpt><trkpt lat="45.347696604759676" lon="8.256839780434841"><ele>159.0</ele><time>2026-04-06T14:09:41Z</time></trkpt><trkpt lat="45.34764294320846" lon="8.257081988361275"><ele>159.0</ele><time>2026-04-06T14:09:42Z</time></trkpt><trkpt lat="45.34758807174936" lon="8.257323126521287"><ele>159.0</ele><time>2026-04-06T14:09:43Z</time></trkpt><trkpt lat="45.34753239839762" lon="8.257560221130285"><ele>159.33333333333334</ele><time>2026-04-06T14:09:44Z</time></trkpt><trkpt lat="45.34747889791273" lon="8.257799339308072"><ele>159.66666666666669</ele><time>2026-04-06T14:09:45Z</time></trkpt><trkpt lat="45.34742494280584" lon="8.258035856131212"><ele>160.0</ele><time>2026-04-06T14:09:46Z</time></trkpt><trkpt lat="45.347372926248546" lon="8.258272635272666"><ele>160.0</ele><time>2026-04-06T14:09:47Z</time></trkpt><trkpt lat="45.34731925659159" lon="8.25851572991207"><ele>160.0</ele><time>2026-04-06T14:09:48Z</time></trkpt><trkpt lat="45.34726378951453" lon="8.258766558508416"><ele>160.0</ele><time>2026-04-06T14:09:49Z</time></trkpt><trkpt lat="45.34720662317185" lon="8.259027255330697"><ele>159.0</ele><time>2026-04-06T14:09:50Z</time></trkpt><trkpt lat="45.34714729457327" lon="8.259289858890128"><ele>158.0</ele><time>2026-04-06T14:09:51Z</time></trkpt><trkpt lat="45.34708640482899" lon="8.259557847958025"><ele>157.0</ele><time>2026-04-06T14:09:52Z</time></trkpt><trkpt lat="45.347025087210234" lon="8.2598274565815"><ele>157.0</ele><time>2026-04-06T14:09:53Z</time></trkpt><trkpt lat="45.34696368617063" lon="8.260097809429352"><ele>157.0</ele><time>2026-04-06T14:09:54Z</time></trkpt><trkpt lat="45.346902976522294" lon="8.260370049456338"><ele>157.0</ele><time>2026-04-06T14:09:55Z</time></trkpt><trkpt lat="45.34684246750645" lon="8.2606417465582"><ele>157.0</ele><time>2026-04-06T14:09:56Z</time></trkpt><trkpt lat="45.346782719437975" lon="8.260912337022535"><ele>157.0</ele><time>2026-04-06T14:09:57Z</time></trkpt><trkpt lat="45.34672151981972" lon="8.2611865786909"><ele>157.0</ele><time>2026-04-06T14:09:58Z</time></trkpt><trkpt lat="45.346658484071476" lon="8.261465260271656"><ele>157.0</ele><time>2026-04-06T14:09:59Z</time></trkpt><trkpt lat="45.346596005500714" lon="8.261745899424263"><ele>157.0</ele><time>2026-04-06T14:10:00Z</time></trkpt><trkpt lat="45.34653387286145" lon="8.262028951885872"><ele>157.0</ele><time>2026-04-06T14:10:01Z</time></trkpt><trkpt lat="45.34647017372093" lon="8.262314745721696"><ele>157.0</ele><time>2026-04-06T14:10:02Z</time></trkpt><trkpt lat="45.3464062559335" lon="8.262600037768568"><ele>157.0</ele><time>2026-04-06T14:10:03Z</time></trkpt><trkpt lat="45.34634129699062" lon="8.262882334341272"><ele>157.0</ele><time>2026-04-06T14:10:04Z</time></trkpt><trkpt lat="45.34627753176324" lon="8.263166822778638"><ele>157.0</ele><time>2026-04-06T14:10:05Z</time></trkpt><trkpt lat="45.34621416814177" lon="8.26345019683215"><ele>157.0</ele><time>2026-04-06T14:10:06Z</time></trkpt><trkpt lat="45.34615147293268" lon="8.263728738487384"><ele>157.0</ele><time>2026-04-06T14:10:07Z</time></trkpt><trkpt lat="45.346088442023394" lon="8.264008614875365"><ele>157.0</ele><time>2026-04-06T14:10:08Z</time></trkpt><trkpt lat="45.34602500680621" lon="8.264285244221986"><ele>157.0</ele><time>2026-04-06T14:10:09Z</time></trkpt><trkpt lat="45.345961198038275" lon="8.26455495380788"><ele>157.0</ele><time>2026-04-06T14:10:10Z</time></trkpt><trkpt lat="45.34589928475551" lon="8.264828557100355"><ele>157.0</ele><time>2026-04-06T14:10:11Z</time></trkpt><trkpt lat="45.345839002832214" lon="8.26510083676943"><ele>157.0</ele><time>2026-04-06T14:10:12Z</time></trkpt><trkpt lat="45.3457802744086" lon="8.265381030681093"><ele>157.0</ele><time>2026-04-06T14:10:13Z</time></trkpt><trkpt lat="45.3457175299547" lon="8.265672325337057"><ele>156.66666666666669</ele><time>2026-04-06T14:10:14Z</time></trkpt><trkpt lat="45.345653850823595" lon="8.265956113380751"><ele>156.33333333333334</ele><time>2026-04-06T14:10:15Z</time></trkpt><trkpt lat="45.34559229906533" lon="8.266234395317923"><ele>156.0</ele><time>2026-04-06T14:10:16Z</time></trkpt><trkpt lat="45.34553175313404" lon="8.266505525025359"><ele>156.0</ele><time>2026-04-06T14:10:17Z</time></trkpt><trkpt lat="45.34547201570406" lon="8.26677535230582"><ele>156.0</ele><time>2026-04-06T14:10:18Z</time></trkpt><trkpt lat="45.3454145944918" lon="8.267032735415077"><ele>156.0</ele><time>2026-04-06T14:10:19Z</time></trkpt><trkpt lat="45.34535697068926" lon="8.26729422150697"><ele>156.0</ele><time>2026-04-06T14:10:20Z</time></trkpt><trkpt lat="45.34529919413477" lon="8.267557017634642"><ele>156.0</ele><time>2026-04-06T14:10:21Z</time></trkpt><trkpt lat="45.345240953733146" lon="8.267817167797473"><ele>156.0</ele><time>2026-04-06T14:10:22Z</time></trkpt><trkpt lat="45.34518228684611" lon="8.268074462111578"><ele>155.66666666666666</ele><time>2026-04-06T14:10:23Z</time></trkpt><trkpt lat="45.345123048956594" lon="8.268337304036685"><ele>155.33333333333331</ele><time>2026-04-06T14:10:24Z</time></trkpt><trkpt lat="45.34506395655172" lon="8.268601896085997"><ele>155.0</ele><time>2026-04-06T14:10:25Z</time></trkpt><trkpt lat="45.345007883948355" lon="8.268859122938087"><ele>155.33333333333331</ele><time>2026-04-06T14:10:26Z</time></trkpt><trkpt lat="45.34495281903263" lon="8.269118562657455"><ele>155.66666666666666</ele><time>2026-04-06T14:10:27Z</time></trkpt><trkpt lat="45.344896020098105" lon="8.269378694672843"><ele>156.0</ele><time>2026-04-06T14:10:28Z</time></trkpt><trkpt lat="45.34483689215854" lon="8.269638389805836"><ele>156.0</ele><time>2026-04-06T14:10:29Z</time></trkpt><trkpt lat="45.34478028750826" lon="8.269888909463624"><ele>156.0</ele><time>2026-04-06T14:10:30Z</time></trkpt><trkpt lat="45.344722732397116" lon="8.270146341593774"><ele>156.0</ele><time>2026-04-06T14:10:31Z</time></trkpt><trkpt lat="45.34466434459663" lon="8.270406130022286"><ele>156.0</ele><time>2026-04-06T14:10:32Z</time></trkpt><trkpt lat="45.344608233439544" lon="8.270665541606565"><ele>156.0</ele><time>2026-04-06T14:10:33Z</time></trkpt><trkpt lat="45.34455078073747" lon="8.270925123987547"><ele>156.0</ele><time>2026-04-06T14:10:34Z</time></trkpt><trkpt lat="45.344492942593135" lon="8.271184622456541"><ele>156.0</ele><time>2026-04-06T14:10:35Z</time></trkpt><trkpt lat="45.344436194944656" lon="8.271444411897349"><ele>156.0</ele><time>2026-04-06T14:10:36Z</time></trkpt><trkpt lat="45.344382438591026" lon="8.271687542824214"><ele>156.0</ele><time>2026-04-06T14:10:37Z</time></trkpt><trkpt lat="45.34433104613175" lon="8.271921134541632"><ele>156.0</ele><time>2026-04-06T14:10:38Z</time></trkpt><trkpt lat="45.344282421426655" lon="8.272140309351213"><ele>156.0</ele><time>2026-04-06T14:10:39Z</time></trkpt><trkpt lat="45.344235854682786" lon="8.272349496106761"><ele>156.0</ele><time>2026-04-06T14:10:40Z</time></trkpt><trkpt lat="45.34419023206459" lon="8.272551189406729"><ele>156.0</ele><time>2026-04-06T14:10:41Z</time></trkpt><trkpt lat="45.34414247479435" lon="8.272766339887209"><ele>156.0</ele><time>2026-04-06T14:10:42Z</time></trkpt><trkpt lat="45.34409216889269" lon="8.272991206086193"><ele>156.0</ele><time>2026-04-06T14:10:43Z</time></trkpt><trkpt lat="45.34404077600973" lon="8.273225560115426"><ele>156.0</ele><time>2026-04-06T14:10:44Z</time></trkpt><trkpt lat="45.343987965251515" lon="8.273469373301264"><ele>156.0</ele><time>2026-04-06T14:10:45Z</time></trkpt><trkpt lat="45.343933413753305" lon="8.27372156555515"><ele>156.0</ele><time>2026-04-06T14:10:46Z</time></trkpt><trkpt lat="45.34387722841122" lon="8.273981257569012"><ele>155.33333333333334</ele><time>2026-04-06T14:10:47Z</time></trkpt><trkpt lat="45.34381947637164" lon="8.27424244843466"><ele>154.66666666666669</ele><time>2026-04-06T14:10:48Z</time></trkpt><trkpt lat="45.34376086212536" lon="8.274507507241005"><ele>154.0</ele><time>2026-04-06T14:10:49Z</time></trkpt><trkpt lat="45.343701531906085" lon="8.274775489077259"><ele>154.0</ele><time>2026-04-06T14:10:50Z</time></trkpt><trkpt lat="45.34364160641199" lon="8.27504469781256"><ele>154.0</ele><time>2026-04-06T14:10:51Z</time></trkpt><trkpt lat="45.343582081394054" lon="8.275311210552905"><ele>154.0</ele><time>2026-04-06T14:10:52Z</time></trkpt><trkpt lat="45.34352389885066" lon="8.275578336532513"><ele>153.66666666666669</ele><time>2026-04-06T14:10:53Z</time></trkpt><trkpt lat="45.3434662947475" lon="8.275839236845158"><ele>153.33333333333334</ele><time>2026-04-06T14:10:54Z</time></trkpt><trkpt lat="45.34341118808285" lon="8.27609350014115"><ele>153.0</ele><time>2026-04-06T14:10:55Z</time></trkpt><trkpt lat="45.34335677882063" lon="8.276338660708367"><ele>153.33333333333334</ele><time>2026-04-06T14:10:56Z</time></trkpt><trkpt lat="45.34330470530222" lon="8.276577583138058"><ele>153.66666666666669</ele><time>2026-04-06T14:10:57Z</time></trkpt><trkpt lat="45.34325136260686" lon="8.276815192488275"><ele>154.0</ele><time>2026-04-06T14:10:58Z</time></trkpt><trkpt lat="45.34319861686733" lon="8.27704976390661"><ele>154.0</ele><time>2026-04-06T14:10:59Z</time></trkpt><trkpt lat="45.3431464669614" lon="8.277283424875217"><ele>154.0</ele><time>2026-04-06T14:11:00Z</time></trkpt><trkpt lat="45.34309616014127" lon="8.277515073474598"><ele>154.0</ele><time>2026-04-06T14:11:01Z</time></trkpt><trkpt lat="45.343043741365136" lon="8.277752911321393"><ele>154.0</ele><time>2026-04-06T14:11:02Z</time></trkpt><trkpt lat="45.34298885587886" lon="8.27800232321424"><ele>154.0</ele><time>2026-04-06T14:11:03Z</time></trkpt><trkpt lat="45.342933823465614" lon="8.27825327291521"><ele>154.0</ele><time>2026-04-06T14:11:04Z</time></trkpt><trkpt lat="45.342876467373465" lon="8.27850913194158"><ele>154.0</ele><time>2026-04-06T14:11:05Z</time></trkpt><trkpt lat="45.3428181736957" lon="8.27876720325253"><ele>154.0</ele><time>2026-04-06T14:11:06Z</time></trkpt><trkpt lat="45.34276109599052" lon="8.279019489569118"><ele>154.0</ele><time>2026-04-06T14:11:07Z</time></trkpt><trkpt lat="45.34270665727694" lon="8.279264106509947"><ele>154.0</ele><time>2026-04-06T14:11:08Z</time></trkpt><trkpt lat="45.342652780851765" lon="8.279508175056067"><ele>154.0</ele><time>2026-04-06T14:11:09Z</time></trkpt><trkpt lat="45.34259814603784" lon="8.27974980646601"><ele>154.0</ele><time>2026-04-06T14:11:10Z</time></trkpt><trkpt lat="45.34254264473588" lon="8.279997316446881"><ele>153.66666666666669</ele><time>2026-04-06T14:11:11Z</time></trkpt><trkpt lat="45.34248671714595" lon="8.280248350289586"><ele>153.33333333333334</ele><time>2026-04-06T14:11:12Z</time></trkpt><trkpt lat="45.342430204351636" lon="8.280501608793726"><ele>153.0</ele><time>2026-04-06T14:11:13Z</time></trkpt><trkpt lat="45.34237270208993" lon="8.280757404519395"><ele>153.0</ele><time>2026-04-06T14:11:14.001Z</time></trkpt><trkpt lat="45.34231590119614" lon="8.28101362863246"><ele>153.0</ele><time>2026-04-06T14:11:15.001Z</time></trkpt><trkpt lat="45.34225809536546" lon="8.281272576904772"><ele>153.0</ele><time>2026-04-06T14:11:16.001Z</time></trkpt><trkpt lat="45.34220006819179" lon="8.281532568798543"><ele>153.0</ele><time>2026-04-06T14:11:17.001Z</time></trkpt><trkpt lat="45.34214221711313" lon="8.281790339951504"><ele>153.0</ele><time>2026-04-06T14:11:18.001Z</time></trkpt><trkpt lat="45.342083998198156" lon="8.282045497444534"><ele>153.0</ele><time>2026-04-06T14:11:19.001Z</time></trkpt><trkpt lat="45.34202889464972" lon="8.282297002607411"><ele>152.66666666666666</ele><time>2026-04-06T14:11:20.001Z</time></trkpt><trkpt lat="45.34197220962309" lon="8.28254819486668"><ele>152.33333333333331</ele><time>2026-04-06T14:11:21.001Z</time></trkpt><trkpt lat="45.34191795692875" lon="8.282802047970343"><ele>152.0</ele><time>2026-04-06T14:11:22.001Z</time></trkpt><trkpt lat="45.34186559133869" lon="8.28305580750812"><ele>152.0</ele><time>2026-04-06T14:11:23.001Z</time></trkpt><trkpt lat="45.34181354596736" lon="8.283307984999613"><ele>152.0</ele><time>2026-04-06T14:11:24.001Z</time></trkpt><trkpt lat="45.341763035544304" lon="8.283555584202526"><ele>152.0</ele><time>2026-04-06T14:11:25.001Z</time></trkpt><trkpt lat="45.34171375373892" lon="8.283796523218934"><ele>151.66666666666666</ele><time>2026-04-06T14:11:26.001Z</time></trkpt><trkpt lat="45.34166403907626" lon="8.28403362561683"><ele>151.33333333333334</ele><time>2026-04-06T14:11:27.001Z</time></trkpt><trkpt lat="45.34160779034107" lon="8.284277059686545"><ele>151.0</ele><time>2026-04-06T14:11:28.001Z</time></trkpt><trkpt lat="45.34154571382685" lon="8.284523045419993"><ele>151.33333333333334</ele><time>2026-04-06T14:11:29.001Z</time></trkpt><trkpt lat="45.34148347132536" lon="8.284772857602038"><ele>151.66666666666666</ele><time>2026-04-06T14:11:30.001Z</time></trkpt><trkpt lat="45.34142461423939" lon="8.285022721975563"><ele>152.0</ele><time>2026-04-06T14:11:31.001Z</time></trkpt><trkpt lat="45.34136922525729" lon="8.285279221800613"><ele>152.0</ele><time>2026-04-06T14:11:32.001Z</time></trkpt><trkpt lat="45.34131607691824" lon="8.285546667840075"><ele>152.0</ele><time>2026-04-06T14:11:33.001Z</time></trkpt><trkpt lat="45.34126540633618" lon="8.28582600844562"><ele>152.0</ele><time>2026-04-06T14:11:34.001Z</time></trkpt><trkpt lat="45.34118966389207" lon="8.286100300699882"><ele>152.0</ele><time>2026-04-06T14:11:35.001Z</time></trkpt><trkpt lat="45.34112965259224" lon="8.286382198226015"><ele>152.0</ele><time>2026-04-06T14:11:36.001Z</time></trkpt><trkpt lat="45.341071098634835" lon="8.28666471552992"><ele>152.0</ele><time>2026-04-06T14:11:37.001Z</time></trkpt><trkpt lat="45.34102753338986" lon="8.286953123111"><ele>152.0</ele><time>2026-04-06T14:11:38.001Z</time></trkpt><trkpt lat="45.34096474242377" lon="8.28723119905827"><ele>152.0</ele><time>2026-04-06T14:11:39Z</time></trkpt><trkpt lat="45.340900641611945" lon="8.287506634621804"><ele>152.0</ele><time>2026-04-06T14:11:40Z</time></trkpt><trkpt lat="45.340835777748474" lon="8.287776558407582"><ele>152.33333333333331</ele><time>2026-04-06T14:11:41Z</time></trkpt><trkpt lat="45.340765498333226" lon="8.288042630808652"><ele>152.66666666666666</ele><time>2026-04-06T14:11:42Z</time></trkpt><trkpt lat="45.34068084199633" lon="8.288296524087864"><ele>153.0</ele><time>2026-04-06T14:11:43Z</time></trkpt><trkpt lat="45.34058773868465" lon="8.288539182821344"><ele>153.33333333333334</ele><time>2026-04-06T14:11:44Z</time></trkpt><trkpt lat="45.340489540070514" lon="8.288776898438156"><ele>153.66666666666669</ele><time>2026-04-06T14:11:45Z</time></trkpt><trkpt lat="45.340392286822315" lon="8.289013063461878"><ele>154.0</ele><time>2026-04-06T14:11:46Z</time></trkpt><trkpt lat="45.34029635823011" lon="8.289254504452245"><ele>154.0</ele><time>2026-04-06T14:11:47Z</time></trkpt><trkpt lat="45.34020091316666" lon="8.289501452947235"><ele>154.0</ele><time>2026-04-06T14:11:48Z</time></trkpt><trkpt lat="45.340106096892185" lon="8.289751981484693"><ele>154.0</ele><time>2026-04-06T14:11:49Z</time></trkpt><trkpt lat="45.34001263887419" lon="8.290002988740017"><ele>152.66666666666669</ele><time>2026-04-06T14:11:50Z</time></trkpt><trkpt lat="45.33992024647131" lon="8.290259150526618"><ele>151.33333333333334</ele><time>2026-04-06T14:11:51Z</time></trkpt><trkpt lat="45.33983046248431" lon="8.290519620701152"><ele>150.0</ele><time>2026-04-06T14:11:52Z</time></trkpt><trkpt lat="45.339745604928204" lon="8.290784347810161"><ele>150.0</ele><time>2026-04-06T14:11:53Z</time></trkpt><trkpt lat="45.33966436807534" lon="8.291055588645646"><ele>150.0</ele><time>2026-04-06T14:11:54Z</time></trkpt><trkpt lat="45.33958373050268" lon="8.291327839229089"><ele>150.0</ele><time>2026-04-06T14:11:55Z</time></trkpt><trkpt lat="45.33950140093511" lon="8.291602160734568"><ele>150.0</ele><time>2026-04-06T14:11:56Z</time></trkpt><trkpt lat="45.33941901855572" lon="8.291874206037502"><ele>150.0</ele><time>2026-04-06T14:11:57Z</time></trkpt><trkpt lat="45.33933550152192" lon="8.292144588615882"><ele>150.0</ele><time>2026-04-06T14:11:58Z</time></trkpt><trkpt lat="45.33925066504902" lon="8.292414649311365"><ele>149.66666666666666</ele><time>2026-04-06T14:11:59Z</time></trkpt><trkpt lat="45.33916661053129" lon="8.292682060729616"><ele>149.33333333333331</ele><time>2026-04-06T14:12:00Z</time></trkpt><trkpt lat="45.33908172053817" lon="8.29295074474247"><ele>149.0</ele><time>2026-04-06T14:12:01Z</time></trkpt><trkpt lat="45.33899429499819" lon="8.293220445178854"><ele>149.0</ele><time>2026-04-06T14:12:02Z</time></trkpt><trkpt lat="45.33890863525152" lon="8.293490158875818"><ele>149.0</ele><time>2026-04-06T14:12:03Z</time></trkpt><trkpt lat="45.338824096120526" lon="8.293760502743439"><ele>149.0</ele><time>2026-04-06T14:12:04Z</time></trkpt><trkpt lat="45.338739250541224" lon="8.294031729114026"><ele>149.0</ele><time>2026-04-06T14:12:05Z</time></trkpt><trkpt lat="45.338655230729536" lon="8.294301038063745"><ele>149.0</ele><time>2026-04-06T14:12:06Z</time></trkpt><trkpt lat="45.338570464422524" lon="8.294569630518986"><ele>149.0</ele><time>2026-04-06T14:12:07Z</time></trkpt><trkpt lat="45.33848678626444" lon="8.294834503844605"><ele>149.0</ele><time>2026-04-06T14:12:08Z</time></trkpt><trkpt lat="45.338402126672975" lon="8.295099768510678"><ele>149.0</ele><time>2026-04-06T14:12:09Z</time></trkpt><trkpt lat="45.33831869582258" lon="8.295362986917675"><ele>149.0</ele><time>2026-04-06T14:12:10Z</time></trkpt><trkpt lat="45.338235143630214" lon="8.295630175648085"><ele>148.66666666666666</ele><time>2026-04-06T14:12:11Z</time></trkpt><trkpt lat="45.3381510799609" lon="8.295897448410644"><ele>148.33333333333334</ele><time>2026-04-06T14:12:12Z</time></trkpt><trkpt lat="45.33806661275483" lon="8.296165358565881"><ele>148.0</ele><time>2026-04-06T14:12:13Z</time></trkpt><trkpt lat="45.33798240283798" lon="8.296435733206708"><ele>148.0</ele><time>2026-04-06T14:12:14Z</time></trkpt><trkpt lat="45.33789660648643" lon="8.296707538730097"><ele>148.0</ele><time>2026-04-06T14:12:15Z</time></trkpt><trkpt lat="45.33781110975193" lon="8.296978748668678"><ele>148.0</ele><time>2026-04-06T14:12:16Z</time></trkpt><trkpt lat="45.337726315823666" lon="8.297247924583308"><ele>148.0</ele><time>2026-04-06T14:12:17Z</time></trkpt><trkpt lat="45.337642046855166" lon="8.297514815349523"><ele>148.0</ele><time>2026-04-06T14:12:18Z</time></trkpt><trkpt lat="45.3375579713809" lon="8.297780352914161"><ele>148.0</ele><time>2026-04-06T14:12:19Z</time></trkpt><trkpt lat="45.33747515534591" lon="8.298043446913937"><ele>147.66666666666669</ele><time>2026-04-06T14:12:20Z</time></trkpt><trkpt lat="45.33739435810196" lon="8.298307519662215"><ele>147.33333333333334</ele><time>2026-04-06T14:12:21Z</time></trkpt><trkpt lat="45.33731388624228" lon="8.2985699580851"><ele>147.0</ele><time>2026-04-06T14:12:22Z</time></trkpt><trkpt lat="45.337232575167185" lon="8.298827455726379"><ele>147.33333333333334</ele><time>2026-04-06T14:12:23Z</time></trkpt><trkpt lat="45.33714958802028" lon="8.29908740146022"><ele>147.66666666666669</ele><time>2026-04-06T14:12:24Z</time></trkpt><trkpt lat="45.33706594179941" lon="8.299349966212816"><ele>148.0</ele><time>2026-04-06T14:12:25Z</time></trkpt><trkpt lat="45.336983166418754" lon="8.299616080056511"><ele>148.0</ele><time>2026-04-06T14:12:26Z</time></trkpt><trkpt lat="45.33690126055871" lon="8.299881065569137"><ele>148.0</ele><time>2026-04-06T14:12:27Z</time></trkpt><trkpt lat="45.336816585768474" lon="8.300145896416492"><ele>148.0</ele><time>2026-04-06T14:12:28Z</time></trkpt><trkpt lat="45.33673028545919" lon="8.300414104451486"><ele>148.0</ele><time>2026-04-06T14:12:29Z</time></trkpt><trkpt lat="45.33664290971967" lon="8.300685419573714"><ele>148.0</ele><time>2026-04-06T14:12:30Z</time></trkpt><trkpt lat="45.33655536616138" lon="8.300958555813981"><ele>148.0</ele><time>2026-04-06T14:12:31Z</time></trkpt><trkpt lat="45.33646865221222" lon="8.301232901652423"><ele>147.66666666666669</ele><time>2026-04-06T14:12:32Z</time></trkpt><trkpt lat="45.336382942291756" lon="8.30150806907293"><ele>147.33333333333334</ele><time>2026-04-06T14:12:33Z</time></trkpt><trkpt lat="45.33629703737836" lon="8.301783142030331"><ele>147.0</ele><time>2026-04-06T14:12:34Z</time></trkpt><trkpt lat="45.33621146491343" lon="8.302059489295162"><ele>147.0</ele><time>2026-04-06T14:12:35Z</time></trkpt><trkpt lat="45.33612508868303" lon="8.30233490233579"><ele>147.0</ele><time>2026-04-06T14:12:36Z</time></trkpt><trkpt lat="45.3360394374564" lon="8.302611478658532"><ele>147.0</ele><time>2026-04-06T14:12:37Z</time></trkpt><trkpt lat="45.33595389354751" lon="8.3028878759978"><ele>146.66666666666666</ele><time>2026-04-06T14:12:38Z</time></trkpt><trkpt lat="45.33586821638705" lon="8.303165557753742"><ele>146.33333333333331</ele><time>2026-04-06T14:12:39Z</time></trkpt><trkpt lat="45.335781599833346" lon="8.303442637647683"><ele>146.0</ele><time>2026-04-06T14:12:40Z</time></trkpt><trkpt lat="45.335694183328016" lon="8.303719785445425"><ele>146.0</ele><time>2026-04-06T14:12:41Z</time></trkpt><trkpt lat="45.33560580536171" lon="8.303995357857481"><ele>146.0</ele><time>2026-04-06T14:12:42Z</time></trkpt><trkpt lat="45.33551753674784" lon="8.304270637978252"><ele>146.0</ele><time>2026-04-06T14:12:43Z</time></trkpt><trkpt lat="45.3354300799438" lon="8.304546338348965"><ele>146.33333333333331</ele><time>2026-04-06T14:12:44Z</time></trkpt><trkpt lat="45.3353457060907" lon="8.30481715128539"><ele>146.66666666666666</ele><time>2026-04-06T14:12:45Z</time></trkpt><trkpt lat="45.335261148391304" lon="8.305087180251022"><ele>147.0</ele><time>2026-04-06T14:12:46Z</time></trkpt><trkpt lat="45.33517630301465" lon="8.305359943953139"><ele>146.66666666666666</ele><time>2026-04-06T14:12:47Z</time></trkpt><trkpt lat="45.33509073948573" lon="8.305633401976705"><ele>146.33333333333331</ele><time>2026-04-06T14:12:48Z</time></trkpt><trkpt lat="45.335005575825754" lon="8.305905323877615"><ele>146.0</ele><time>2026-04-06T14:12:49Z</time></trkpt><trkpt lat="45.33492230524574" lon="8.30617170533367"><ele>145.66666666666666</ele><time>2026-04-06T14:12:50Z</time></trkpt><trkpt lat="45.33483998785017" lon="8.306432159405002"><ele>145.33333333333334</ele><time>2026-04-06T14:12:51Z</time></trkpt><trkpt lat="45.33475509618855" lon="8.306702708377166"><ele>145.0</ele><time>2026-04-06T14:12:52Z</time></trkpt><trkpt lat="45.33466964054185" lon="8.306976926003884"><ele>145.0</ele><time>2026-04-06T14:12:53Z</time></trkpt><trkpt lat="45.334582669587206" lon="8.307254902591975"><ele>145.0</ele><time>2026-04-06T14:12:54Z</time></trkpt><trkpt lat="45.33449389769778" lon="8.307534905530154"><ele>145.0</ele><time>2026-04-06T14:12:55Z</time></trkpt><trkpt lat="45.33440441372881" lon="8.30781666348306"><ele>145.0</ele><time>2026-04-06T14:12:56Z</time></trkpt><trkpt lat="45.334315235647985" lon="8.308097472982224"><ele>145.0</ele><time>2026-04-06T14:12:57Z</time></trkpt><trkpt lat="45.334226369391175" lon="8.30837974391244"><ele>145.0</ele><time>2026-04-06T14:12:58Z</time></trkpt><trkpt lat="45.3341384718273" lon="8.308658592874446"><ele>145.0</ele><time>2026-04-06T14:12:59Z</time></trkpt><trkpt lat="45.33405109386188" lon="8.308935260454556"><ele>145.0</ele><time>2026-04-06T14:13:00Z</time></trkpt><trkpt lat="45.33396396747413" lon="8.309210793547983"><ele>145.0</ele><time>2026-04-06T14:13:01Z</time></trkpt><trkpt lat="45.33387708180109" lon="8.309483840280242"><ele>144.66666666666669</ele><time>2026-04-06T14:13:02Z</time></trkpt><trkpt lat="45.33379109332466" lon="8.309756742787858"><ele>144.33333333333334</ele><time>2026-04-06T14:13:03Z</time></trkpt><trkpt lat="45.333705482928664" lon="8.310030173525142"><ele>144.0</ele><time>2026-04-06T14:13:04Z</time></trkpt><trkpt lat="45.33362128114304" lon="8.31030365020156"><ele>144.0</ele><time>2026-04-06T14:13:05Z</time></trkpt><trkpt lat="45.333536725704214" lon="8.310575834855321"><ele>144.0</ele><time>2026-04-06T14:13:06Z</time></trkpt><trkpt lat="45.33345219903325" lon="8.31084453455067"><ele>144.0</ele><time>2026-04-06T14:13:07Z</time></trkpt><trkpt lat="45.333370222669544" lon="8.311107272861172"><ele>144.0</ele><time>2026-04-06T14:13:08Z</time></trkpt><trkpt lat="45.33328875488673" lon="8.311368313099425"><ele>144.0</ele><time>2026-04-06T14:13:09Z</time></trkpt><trkpt lat="45.333206344669094" lon="8.311628830255351"><ele>144.0</ele><time>2026-04-06T14:13:10Z</time></trkpt><trkpt lat="45.33312333281469" lon="8.311888989158719"><ele>144.0</ele><time>2026-04-06T14:13:11Z</time></trkpt><trkpt lat="45.333038377716704" lon="8.312154856289014"><ele>144.0</ele><time>2026-04-06T14:13:12Z</time></trkpt><trkpt lat="45.3329536827128" lon="8.312421451990224"><ele>144.0</ele><time>2026-04-06T14:13:13Z</time></trkpt><trkpt lat="45.33286960970795" lon="8.312690056143067"><ele>144.0</ele><time>2026-04-06T14:13:14Z</time></trkpt><trkpt lat="45.332784046396085" lon="8.312960750104358"><ele>144.0</ele><time>2026-04-06T14:13:15Z</time></trkpt><trkpt lat="45.3326985490659" lon="8.313233508693061"><ele>144.0</ele><time>2026-04-06T14:13:16Z</time></trkpt><trkpt lat="45.332611606808435" lon="8.313509611109579"><ele>144.0</ele><time>2026-04-06T14:13:17Z</time></trkpt><trkpt lat="45.33252410403824" lon="8.313785420249156"><ele>144.0</ele><time>2026-04-06T14:13:18Z</time></trkpt><trkpt lat="45.33243572244867" lon="8.314060998282942"><ele>144.0</ele><time>2026-04-06T14:13:19Z</time></trkpt><trkpt lat="45.332345644908095" lon="8.314337288150437"><ele>144.0</ele><time>2026-04-06T14:13:20.001Z</time></trkpt><trkpt lat="45.33225693467657" lon="8.314616296224495"><ele>144.0</ele><time>2026-04-06T14:13:21.001Z</time></trkpt><trkpt lat="45.33216934709558" lon="8.314883760722651"><ele>144.0</ele><time>2026-04-06T14:13:22.001Z</time></trkpt><trkpt lat="45.332082354581466" lon="8.315155478328531"><ele>144.0</ele><time>2026-04-06T14:13:23.001Z</time></trkpt><trkpt lat="45.331996973498015" lon="8.315425343093485"><ele>144.0</ele><time>2026-04-06T14:13:24.001Z</time></trkpt><trkpt lat="45.331908956802664" lon="8.315695304423928"><ele>144.0</ele><time>2026-04-06T14:13:25.001Z</time></trkpt><trkpt lat="45.33182291672567" lon="8.315964771353386"><ele>144.0</ele><time>2026-04-06T14:13:26.001Z</time></trkpt><trkpt lat="45.33173744583984" lon="8.316232795237307"><ele>144.0</ele><time>2026-04-06T14:13:27.001Z</time></trkpt><trkpt lat="45.331651210526225" lon="8.31649949293606"><ele>144.0</ele><time>2026-04-06T14:13:28.001Z</time></trkpt><trkpt lat="45.33156512670805" lon="8.31676453731217"><ele>144.0</ele><time>2026-04-06T14:13:29.001Z</time></trkpt><trkpt lat="45.33148172014386" lon="8.31702735677573"><ele>144.0</ele><time>2026-04-06T14:13:30.001Z</time></trkpt><trkpt lat="45.331398331391945" lon="8.317289510892623"><ele>144.0</ele><time>2026-04-06T14:13:31.001Z</time></trkpt><trkpt lat="45.33131624020727" lon="8.317546061318435"><ele>144.33333333333334</ele><time>2026-04-06T14:13:32.001Z</time></trkpt><trkpt lat="45.33123334279908" lon="8.317804218571993"><ele>144.66666666666669</ele><time>2026-04-06T14:13:33.001Z</time></trkpt><trkpt lat="45.331150599572105" lon="8.318060097043366"><ele>145.0</ele><time>2026-04-06T14:13:34.001Z</time></trkpt><trkpt lat="45.33106879409885" lon="8.318310524923945"><ele>144.33333333333334</ele><time>2026-04-06T14:13:35.001Z</time></trkpt><trkpt lat="45.33098529799575" lon="8.318565465139251"><ele>143.66666666666666</ele><time>2026-04-06T14:13:36.001Z</time></trkpt><trkpt lat="45.33090333571826" lon="8.318819920890848"><ele>143.0</ele><time>2026-04-06T14:13:37.001Z</time></trkpt><trkpt lat="45.33081889850725" lon="8.319080815482206"><ele>142.66666666666666</ele><time>2026-04-06T14:13:38.001Z</time></trkpt><trkpt lat="45.33073281616939" lon="8.319348354024008"><ele>142.33333333333334</ele><time>2026-04-06T14:13:39.001Z</time></trkpt><trkpt lat="45.33064562147751" lon="8.319620364634751"><ele>142.0</ele><time>2026-04-06T14:13:40.001Z</time></trkpt><trkpt lat="45.33055784003185" lon="8.319894441183454"><ele>142.0</ele><time>2026-04-06T14:13:41.001Z</time></trkpt><trkpt lat="45.330472928720425" lon="8.320160296333166"><ele>142.0</ele><time>2026-04-06T14:13:42Z</time></trkpt><trkpt lat="45.33038728629898" lon="8.320423775864928"><ele>142.0</ele><time>2026-04-06T14:13:43Z</time></trkpt><trkpt lat="45.33030231146035" lon="8.32068959304755"><ele>142.0</ele><time>2026-04-06T14:13:44Z</time></trkpt><trkpt lat="45.330217948333654" lon="8.320955091226233"><ele>142.0</ele><time>2026-04-06T14:13:45Z</time></trkpt><trkpt lat="45.33013270656043" lon="8.321221555465543"><ele>142.0</ele><time>2026-04-06T14:13:46Z</time></trkpt><trkpt lat="45.33004832182587" lon="8.321492187826003"><ele>142.0</ele><time>2026-04-06T14:13:47Z</time></trkpt><trkpt lat="45.3299626543314" lon="8.321763895768592"><ele>142.0</ele><time>2026-04-06T14:13:48Z</time></trkpt><trkpt lat="45.329876210470175" lon="8.322032339437204"><ele>142.0</ele><time>2026-04-06T14:13:49Z</time></trkpt><trkpt lat="45.329792167472" lon="8.322299099256755"><ele>142.33333333333334</ele><time>2026-04-06T14:13:50Z</time></trkpt><trkpt lat="45.32971049046742" lon="8.32256367810931"><ele>142.66666666666666</ele><time>2026-04-06T14:13:51Z</time></trkpt><trkpt lat="45.32962691740372" lon="8.322829473371966"><ele>143.0</ele><time>2026-04-06T14:13:52Z</time></trkpt><trkpt lat="45.32954214059846" lon="8.323094791442033"><ele>143.0</ele><time>2026-04-06T14:13:53Z</time></trkpt><trkpt lat="45.32945756161957" lon="8.3233626964972"><ele>143.0</ele><time>2026-04-06T14:13:54Z</time></trkpt><trkpt lat="45.32937210162991" lon="8.32363255762354"><ele>143.0</ele><time>2026-04-06T14:13:55Z</time></trkpt><trkpt lat="45.329285947129286" lon="8.323902402494573"><ele>142.66666666666666</ele><time>2026-04-06T14:13:56Z</time></trkpt><trkpt lat="45.329199734178786" lon="8.324173323956382"><ele>142.33333333333334</ele><time>2026-04-06T14:13:57Z</time></trkpt><trkpt lat="45.32911479947718" lon="8.324443158167725"><ele>142.0</ele><time>2026-04-06T14:13:58Z</time></trkpt><trkpt lat="45.32902831838667" lon="8.324710586864441"><ele>142.0</ele><time>2026-04-06T14:13:59Z</time></trkpt><trkpt lat="45.32894283641574" lon="8.324975106059"><ele>142.0</ele><time>2026-04-06T14:14:00Z</time></trkpt><trkpt lat="45.32885709616566" lon="8.325238931033915"><ele>142.0</ele><time>2026-04-06T14:14:01Z</time></trkpt><trkpt lat="45.328773324686324" lon="8.325498593151776"><ele>141.33333333333334</ele><time>2026-04-06T14:14:02Z</time></trkpt><trkpt lat="45.328690934274974" lon="8.325755518148434"><ele>140.66666666666666</ele><time>2026-04-06T14:14:03Z</time></trkpt><trkpt lat="45.32860688777566" lon="8.326014799936653"><ele>140.0</ele><time>2026-04-06T14:14:04Z</time></trkpt><trkpt lat="45.32852307886232" lon="8.326276228914203"><ele>140.33333333333331</ele><time>2026-04-06T14:14:05Z</time></trkpt><trkpt lat="45.328439198694134" lon="8.326537170483771"><ele>140.66666666666666</ele><time>2026-04-06T14:14:06Z</time></trkpt><trkpt lat="45.328354820775566" lon="8.326798869923433"><ele>141.0</ele><time>2026-04-06T14:14:07Z</time></trkpt><trkpt lat="45.328271099081576" lon="8.32706367477697"><ele>140.66666666666666</ele><time>2026-04-06T14:14:08Z</time></trkpt><trkpt lat="45.32818609484573" lon="8.327330609100734"><ele>140.33333333333331</ele><time>2026-04-06T14:14:09Z</time></trkpt><trkpt lat="45.3281013120255" lon="8.32759124519473"><ele>140.0</ele><time>2026-04-06T14:14:10Z</time></trkpt><trkpt lat="45.328016009683225" lon="8.327852151283093"><ele>140.33333333333331</ele><time>2026-04-06T14:14:11Z</time></trkpt><trkpt lat="45.32792994833591" lon="8.328116060424088"><ele>140.66666666666666</ele><time>2026-04-06T14:14:12Z</time></trkpt><trkpt lat="45.32784536007632" lon="8.328375619340163"><ele>141.0</ele><time>2026-04-06T14:14:13Z</time></trkpt><trkpt lat="45.32776428465479" lon="8.328630434022287"><ele>141.0</ele><time>2026-04-06T14:14:14Z</time></trkpt><trkpt lat="45.3276834802361" lon="8.328883304196356"><ele>141.0</ele><time>2026-04-06T14:14:15Z</time></trkpt><trkpt lat="45.32760585177026" lon="8.32912375001723"><ele>141.0</ele><time>2026-04-06T14:14:16Z</time></trkpt><trkpt lat="45.32753147728796" lon="8.329349885639557"><ele>141.33333333333334</ele><time>2026-04-06T14:14:17Z</time></trkpt><trkpt lat="45.3274587767026" lon="8.329571373832001"><ele>141.66666666666669</ele><time>2026-04-06T14:14:18Z</time></trkpt><trkpt lat="45.32738445862124" lon="8.32980586964462"><ele>142.0</ele><time>2026-04-06T14:14:19Z</time></trkpt><trkpt lat="45.32730896842354" lon="8.330047190644017"><ele>142.0</ele><time>2026-04-06T14:14:20Z</time></trkpt><trkpt lat="45.32723162712867" lon="8.33029550487459"><ele>142.0</ele><time>2026-04-06T14:14:21Z</time></trkpt><trkpt lat="45.32715623343925" lon="8.330537941349457"><ele>142.0</ele><time>2026-04-06T14:14:22Z</time></trkpt><trkpt lat="45.327080517020946" lon="8.330783894332814"><ele>141.66666666666669</ele><time>2026-04-06T14:14:23Z</time></trkpt><trkpt lat="45.32700448420978" lon="8.331028350825383"><ele>141.33333333333334</ele><time>2026-04-06T14:14:24Z</time></trkpt><trkpt lat="45.32692708383171" lon="8.331274731350387"><ele>141.0</ele><time>2026-04-06T14:14:25Z</time></trkpt><trkpt lat="45.326849827686864" lon="8.331518507654426"><ele>141.0</ele><time>2026-04-06T14:14:26Z</time></trkpt><trkpt lat="45.326773596770444" lon="8.33175309520126"><ele>141.0</ele><time>2026-04-06T14:14:27Z</time></trkpt><trkpt lat="45.32669769498198" lon="8.331987806644172"><ele>141.0</ele><time>2026-04-06T14:14:28Z</time></trkpt><trkpt lat="45.32662325983382" lon="8.33222126510653"><ele>140.66666666666666</ele><time>2026-04-06T14:14:29Z</time></trkpt><trkpt lat="45.326550008923626" lon="8.332449498289025"><ele>140.33333333333331</ele><time>2026-04-06T14:14:30Z</time></trkpt><trkpt lat="45.32647495868122" lon="8.332684982920624"><ele>140.0</ele><time>2026-04-06T14:14:31Z</time></trkpt><trkpt lat="45.32640000226744" lon="8.332922949907353"><ele>139.33333333333331</ele><time>2026-04-06T14:14:32Z</time></trkpt><trkpt lat="45.32632183221579" lon="8.33316517053724"><ele>138.66666666666666</ele><time>2026-04-06T14:14:33Z</time></trkpt><trkpt lat="45.32624192749197" lon="8.333406151847909"><ele>138.0</ele><time>2026-04-06T14:14:34Z</time></trkpt><trkpt lat="45.32616094226152" lon="8.333647011329145"><ele>138.0</ele><time>2026-04-06T14:14:35Z</time></trkpt><trkpt lat="45.32608130416718" lon="8.333888023708525"><ele>138.0</ele><time>2026-04-06T14:14:36Z</time></trkpt><trkpt lat="45.326003195661684" lon="8.334129890317614"><ele>138.0</ele><time>2026-04-06T14:14:37Z</time></trkpt><trkpt lat="45.32592719767686" lon="8.334371828411697"><ele>138.66666666666666</ele><time>2026-04-06T14:14:38Z</time></trkpt><trkpt lat="45.32585434441066" lon="8.334609972195919"><ele>139.33333333333331</ele><time>2026-04-06T14:14:39Z</time></trkpt><trkpt lat="45.32578149950305" lon="8.334850056043416"><ele>140.0</ele><time>2026-04-06T14:14:40Z</time></trkpt><trkpt lat="45.325705610677126" lon="8.335089918536312"><ele>140.33333333333331</ele><time>2026-04-06T14:14:41Z</time></trkpt><trkpt lat="45.32562702854021" lon="8.335330594338938"><ele>140.66666666666666</ele><time>2026-04-06T14:14:42Z</time></trkpt><trkpt lat="45.325549724090166" lon="8.335566832779165"><ele>141.0</ele><time>2026-04-06T14:14:43Z</time></trkpt><trkpt lat="45.32547294869077" lon="8.335804797038476"><ele>141.66666666666666</ele><time>2026-04-06T14:14:44Z</time></trkpt><trkpt lat="45.3253968030288" lon="8.33604361688109"><ele>142.33333333333331</ele><time>2026-04-06T14:14:45Z</time></trkpt><trkpt lat="45.32532829930902" lon="8.336281803054062"><ele>143.0</ele><time>2026-04-06T14:14:46Z</time></trkpt><trkpt lat="45.325269545500696" lon="8.336525891165348"><ele>143.0</ele><time>2026-04-06T14:14:47Z</time></trkpt><trkpt lat="45.32522060445291" lon="8.336777060334216"><ele>143.0</ele><time>2026-04-06T14:14:48Z</time></trkpt><trkpt lat="45.32517691410146" lon="8.337033848497061"><ele>143.0</ele><time>2026-04-06T14:14:49Z</time></trkpt><trkpt lat="45.325138111546494" lon="8.337302925144773"><ele>142.66666666666666</ele><time>2026-04-06T14:14:50Z</time></trkpt><trkpt lat="45.32510373273094" lon="8.33757311151429"><ele>142.33333333333334</ele><time>2026-04-06T14:14:51Z</time></trkpt><trkpt lat="45.325077765128874" lon="8.33784194462036"><ele>142.0</ele><time>2026-04-06T14:14:52Z</time></trkpt><trkpt lat="45.3250600922634" lon="8.338121136843457"><ele>142.0</ele><time>2026-04-06T14:14:53Z</time></trkpt><trkpt lat="45.325046760407" lon="8.33839258490394"><ele>142.0</ele><time>2026-04-06T14:14:54Z</time></trkpt><trkpt lat="45.32503595918634" lon="8.33864795711276"><ele>142.0</ele><time>2026-04-06T14:14:55Z</time></trkpt><trkpt lat="45.32502834793453" lon="8.338889060041485"><ele>141.66666666666669</ele><time>2026-04-06T14:14:56Z</time></trkpt><trkpt lat="45.325026155968956" lon="8.339122580628253"><ele>141.33333333333334</ele><time>2026-04-06T14:14:57Z</time></trkpt><trkpt lat="45.32502469924102" lon="8.339349522615162"><ele>141.0</ele><time>2026-04-06T14:14:58Z</time></trkpt><trkpt lat="45.32502156318454" lon="8.339568677863737"><ele>140.66666666666666</ele><time>2026-04-06T14:14:59Z</time></trkpt><trkpt lat="45.325018596888484" lon="8.339791842695357"><ele>140.33333333333331</ele><time>2026-04-06T14:15:00Z</time></trkpt><trkpt lat="45.32501277876068" lon="8.340024132380309"><ele>140.0</ele><time>2026-04-06T14:15:01Z</time></trkpt><trkpt lat="45.3250066221368" lon="8.340266061737058"><ele>140.0</ele><time>2026-04-06T14:15:02Z</time></trkpt><trkpt lat="45.325003171017336" lon="8.340514231377316"><ele>140.0</ele><time>2026-04-06T14:15:03Z</time></trkpt><trkpt lat="45.325002192285986" lon="8.34076966311088"><ele>140.0</ele><time>2026-04-06T14:15:04Z</time></trkpt><trkpt lat="45.325004341242874" lon="8.341034613519474"><ele>139.66666666666666</ele><time>2026-04-06T14:15:05Z</time></trkpt><trkpt lat="45.32500515705009" lon="8.341299084052736"><ele>139.33333333333334</ele><time>2026-04-06T14:15:06Z</time></trkpt><trkpt lat="45.32500423880031" lon="8.341554657846089"><ele>139.0</ele><time>2026-04-06T14:15:07Z</time></trkpt><trkpt lat="45.32500179026254" lon="8.341798780389523"><ele>139.0</ele><time>2026-04-06T14:15:08Z</time></trkpt><trkpt lat="45.32499831672348" lon="8.342037497639028"><ele>139.0</ele><time>2026-04-06T14:15:09Z</time></trkpt><trkpt lat="45.32499489231225" lon="8.342277168271343"><ele>139.0</ele><time>2026-04-06T14:15:10Z</time></trkpt><trkpt lat="45.32499259883681" lon="8.342517071587135"><ele>138.66666666666669</ele><time>2026-04-06T14:15:11Z</time></trkpt><trkpt lat="45.32498975258322" lon="8.342757282699726"><ele>138.33333333333334</ele><time>2026-04-06T14:15:12Z</time></trkpt><trkpt lat="45.32498701433911" lon="8.342991170908693"><ele>138.0</ele><time>2026-04-06T14:15:13Z</time></trkpt><trkpt lat="45.324984515829854" lon="8.343212754662996"><ele>137.66666666666666</ele><time>2026-04-06T14:15:14Z</time></trkpt><trkpt lat="45.32498162982163" lon="8.34343367869389"><ele>137.33333333333331</ele><time>2026-04-06T14:15:15Z</time></trkpt><trkpt lat="45.32498071681769" lon="8.343651112406922"><ele>137.0</ele><time>2026-04-06T14:15:16Z</time></trkpt><trkpt lat="45.32498033544716" lon="8.343868959329004"><ele>137.0</ele><time>2026-04-06T14:15:17Z</time></trkpt><trkpt lat="45.32498003031756" lon="8.344087447474436"><ele>137.0</ele><time>2026-04-06T14:15:18Z</time></trkpt><trkpt lat="45.324978271347504" lon="8.344305842627325"><ele>137.0</ele><time>2026-04-06T14:15:19Z</time></trkpt><trkpt lat="45.32497517411116" lon="8.34450886876988"><ele>137.0</ele><time>2026-04-06T14:15:20Z</time></trkpt><trkpt lat="45.32497236763547" lon="8.3447082930819"><ele>137.0</ele><time>2026-04-06T14:15:21Z</time></trkpt><trkpt lat="45.324971830107" lon="8.344907027735026"><ele>137.0</ele><time>2026-04-06T14:15:22Z</time></trkpt><trkpt lat="45.32497044528194" lon="8.345103152583262"><ele>137.0</ele><time>2026-04-06T14:15:23Z</time></trkpt><trkpt lat="45.32496752499941" lon="8.345297467423402"><ele>137.25</ele><time>2026-04-06T14:15:24Z</time></trkpt><trkpt lat="45.32496470014379" lon="8.34549055324317"><ele>137.5</ele><time>2026-04-06T14:15:25Z</time></trkpt><trkpt lat="45.32496282585259" lon="8.345672303081988"><ele>137.75</ele><time>2026-04-06T14:15:26.001Z</time></trkpt><trkpt lat="45.32496065158448" lon="8.345844828200073"><ele>138.0</ele><time>2026-04-06T14:15:27.001Z</time></trkpt><trkpt lat="45.32495802585324" lon="8.346012479812368"><ele>138.0</ele><time>2026-04-06T14:15:28.001Z</time></trkpt><trkpt lat="45.32495611366382" lon="8.346176601854443"><ele>138.0</ele><time>2026-04-06T14:15:29.001Z</time></trkpt><trkpt lat="45.324954029479336" lon="8.34633513379933"><ele>138.0</ele><time>2026-04-06T14:15:30.001Z</time></trkpt><trkpt lat="45.324951975249014" lon="8.346490393851713"><ele>138.0</ele><time>2026-04-06T14:15:31.001Z</time></trkpt><trkpt lat="45.32495083149184" lon="8.346639388039979"><ele>138.0</ele><time>2026-04-06T14:15:32.001Z</time></trkpt><trkpt lat="45.32494855247443" lon="8.346776860007985"><ele>137.83333333333334</ele><time>2026-04-06T14:15:33.001Z</time></trkpt><trkpt lat="45.32494828458392" lon="8.34690184587"><ele>137.66666666666666</ele><time>2026-04-06T14:15:34.001Z</time></trkpt><trkpt lat="45.324948129717455" lon="8.347013660154525"><ele>137.5</ele><time>2026-04-06T14:15:35.001Z</time></trkpt><trkpt lat="45.324948922798285" lon="8.347104295741103"><ele>137.33333333333331</ele><time>2026-04-06T14:15:36.001Z</time></trkpt><trkpt lat="45.324941479622375" lon="8.347229329628457"><ele>137.16666666666666</ele><time>2026-04-06T14:15:38.001Z</time></trkpt><trkpt lat="45.32489199402069" lon="8.34730436096879"><ele>137.0</ele><time>2026-04-06T14:15:40.001Z</time></trkpt><trkpt lat="45.3247687745126" lon="8.347306279415806"><ele>137.0</ele><time>2026-04-06T14:15:42.001Z</time></trkpt><trkpt lat="45.32468151304588" lon="8.347302995268977"><ele>137.0</ele><time>2026-04-06T14:15:43.001Z</time></trkpt><trkpt lat="45.32458403715033" lon="8.347308645734103"><ele>137.0</ele><time>2026-04-06T14:15:44.001Z</time></trkpt><trkpt lat="45.32447623310398" lon="8.347314238064751"><ele>137.0</ele><time>2026-04-06T14:15:45.001Z</time></trkpt><trkpt lat="45.324356232342836" lon="8.347318914959356"><ele>137.0</ele><time>2026-04-06T14:15:46Z</time></trkpt><trkpt lat="45.324227560825065" lon="8.34732263126345"><ele>137.0</ele><time>2026-04-06T14:15:47Z</time></trkpt><trkpt lat="45.32410095743071" lon="8.347325777205562"><ele>137.0</ele><time>2026-04-06T14:15:48Z</time></trkpt><trkpt lat="45.32397374464042" lon="8.347328611435724"><ele>137.0</ele><time>2026-04-06T14:15:49Z</time></trkpt><trkpt lat="45.32384001881367" lon="8.347330012464331"><ele>137.0</ele><time>2026-04-06T14:15:50Z</time></trkpt><trkpt lat="45.32370024930015" lon="8.347330932375444"><ele>136.75</ele><time>2026-04-06T14:15:51Z</time></trkpt><trkpt lat="45.32356177722551" lon="8.347331120609738"><ele>136.5</ele><time>2026-04-06T14:15:52Z</time></trkpt><trkpt lat="45.32341579926937" lon="8.34733159436764"><ele>136.25</ele><time>2026-04-06T14:15:53Z</time></trkpt><trkpt lat="45.3232685353429" lon="8.347308182803914"><ele>136.0</ele><time>2026-04-06T14:15:54Z</time></trkpt><trkpt lat="45.32311425394753" lon="8.347306116989204"><ele>136.0</ele><time>2026-04-06T14:15:55Z</time></trkpt><trkpt lat="45.322954314610506" lon="8.347307364709422"><ele>136.0</ele><time>2026-04-06T14:15:56Z</time></trkpt><trkpt lat="45.32278603345655" lon="8.347308677506247"><ele>136.0</ele><time>2026-04-06T14:15:57Z</time></trkpt><trkpt lat="45.32261107663761" lon="8.347310042382235"><ele>136.0</ele><time>2026-04-06T14:15:58Z</time></trkpt><trkpt lat="45.322436525544205" lon="8.347312033946745"><ele>136.0</ele><time>2026-04-06T14:15:59Z</time></trkpt><trkpt lat="45.32225832547551" lon="8.34731601797385"><ele>136.0</ele><time>2026-04-06T14:16:00Z</time></trkpt><trkpt lat="45.32207504957219" lon="8.347325341820273"><ele>136.33333333333334</ele><time>2026-04-06T14:16:01Z</time></trkpt><trkpt lat="45.32189112837982" lon="8.347345952150164"><ele>136.66666666666666</ele><time>2026-04-06T14:16:02Z</time></trkpt><trkpt lat="45.32171125230765" lon="8.347379118065767"><ele>137.0</ele><time>2026-04-06T14:16:03Z</time></trkpt><trkpt lat="45.321540055696104" lon="8.347429699450473"><ele>136.66666666666666</ele><time>2026-04-06T14:16:04Z</time></trkpt><trkpt lat="45.32136359600004" lon="8.34747732223847"><ele>136.33333333333334</ele><time>2026-04-06T14:16:05Z</time></trkpt><trkpt lat="45.3211836865383" lon="8.347524285297814"><ele>136.0</ele><time>2026-04-06T14:16:06Z</time></trkpt><trkpt lat="45.321003884621334" lon="8.347569679669936"><ele>136.0</ele><time>2026-04-06T14:16:07Z</time></trkpt><trkpt lat="45.32082562145619" lon="8.347614685555008"><ele>136.0</ele><time>2026-04-06T14:16:08Z</time></trkpt><trkpt lat="45.32064762656141" lon="8.347660854585339"><ele>136.0</ele><time>2026-04-06T14:16:09Z</time></trkpt><trkpt lat="45.320470475415135" lon="8.347708831678604"><ele>136.0</ele><time>2026-04-06T14:16:10Z</time></trkpt><trkpt lat="45.32029796109724" lon="8.347755552997718"><ele>136.0</ele><time>2026-04-06T14:16:11Z</time></trkpt><trkpt lat="45.32012838042127" lon="8.347800736933658"><ele>136.0</ele><time>2026-04-06T14:16:12Z</time></trkpt><trkpt lat="45.31995870879415" lon="8.34784322696822"><ele>136.0</ele><time>2026-04-06T14:16:13Z</time></trkpt><trkpt lat="45.319791056930576" lon="8.347885211058172"><ele>136.0</ele><time>2026-04-06T14:16:14Z</time></trkpt><trkpt lat="45.31961758590924" lon="8.34793040926242"><ele>136.0</ele><time>2026-04-06T14:16:15Z</time></trkpt><trkpt lat="45.319443638353654" lon="8.34797622934097"><ele>136.0</ele><time>2026-04-06T14:16:16Z</time></trkpt><trkpt lat="45.3192801586193" lon="8.348019292140114"><ele>136.0</ele><time>2026-04-06T14:16:17Z</time></trkpt><trkpt lat="45.31912879345245" lon="8.348059163772126"><ele>136.0</ele><time>2026-04-06T14:16:18Z</time></trkpt><trkpt lat="45.3189862598915" lon="8.348096709067585"><ele>135.75</ele><time>2026-04-06T14:16:19Z</time></trkpt><trkpt lat="45.31884272850665" lon="8.348134517194165"><ele>135.5</ele><time>2026-04-06T14:16:20Z</time></trkpt><trkpt lat="45.31869910531925" lon="8.3481723494901"><ele>135.25</ele><time>2026-04-06T14:16:21Z</time></trkpt><trkpt lat="45.31855132771317" lon="8.348211276142232"><ele>135.0</ele><time>2026-04-06T14:16:22Z</time></trkpt><trkpt lat="45.318398839301054" lon="8.34825144364915"><ele>135.0</ele><time>2026-04-06T14:16:23Z</time></trkpt><trkpt lat="45.31824515229884" lon="8.34829178897206"><ele>135.0</ele><time>2026-04-06T14:16:24Z</time></trkpt><trkpt lat="45.318084201983716" lon="8.348333329415734"><ele>135.0</ele><time>2026-04-06T14:16:25Z</time></trkpt><trkpt lat="45.3179197312554" lon="8.34837177046426"><ele>135.66666666666666</ele><time>2026-04-06T14:16:26Z</time></trkpt><trkpt lat="45.317752487433246" lon="8.348410759632014"><ele>136.33333333333331</ele><time>2026-04-06T14:16:27Z</time></trkpt><trkpt lat="45.31758619078392" lon="8.348453246098213"><ele>137.0</ele><time>2026-04-06T14:16:28Z</time></trkpt><trkpt lat="45.31741430289718" lon="8.34849626057833"><ele>137.0</ele><time>2026-04-06T14:16:29Z</time></trkpt><trkpt lat="45.317238974557625" lon="8.34853922225703"><ele>137.0</ele><time>2026-04-06T14:16:30Z</time></trkpt><trkpt lat="45.31705943746207" lon="8.348583215327384"><ele>137.0</ele><time>2026-04-06T14:16:31Z</time></trkpt><trkpt lat="45.31687873139073" lon="8.348630477685417"><ele>136.66666666666666</ele><time>2026-04-06T14:16:32Z</time></trkpt><trkpt lat="45.31670430947304" lon="8.348676837540767"><ele>136.33333333333334</ele><time>2026-04-06T14:16:33Z</time></trkpt><trkpt lat="45.31653568156297" lon="8.348720693681972"><ele>136.0</ele><time>2026-04-06T14:16:34Z</time></trkpt><trkpt lat="45.31636400009027" lon="8.348764332139062"><ele>136.0</ele><time>2026-04-06T14:16:35Z</time></trkpt><trkpt lat="45.31619052524973" lon="8.348808426405208"><ele>136.0</ele><time>2026-04-06T14:16:36Z</time></trkpt><trkpt lat="45.316020701524536" lon="8.348874119114885"><ele>136.0</ele><time>2026-04-06T14:16:37Z</time></trkpt><trkpt lat="45.315850644003426" lon="8.348916376308491"><ele>136.0</ele><time>2026-04-06T14:16:38Z</time></trkpt><trkpt lat="45.31568537480095" lon="8.348959695038289"><ele>136.0</ele><time>2026-04-06T14:16:39Z</time></trkpt><trkpt lat="45.31552488011989" lon="8.349003241257874"><ele>136.0</ele><time>2026-04-06T14:16:40Z</time></trkpt><trkpt lat="45.315367245810954" lon="8.349022982143568"><ele>135.75</ele><time>2026-04-06T14:16:41Z</time></trkpt><trkpt lat="45.31521426306538" lon="8.349063701504855"><ele>135.5</ele><time>2026-04-06T14:16:42Z</time></trkpt><trkpt lat="45.31506598866172" lon="8.34910462680421"><ele>135.25</ele><time>2026-04-06T14:16:43Z</time></trkpt><trkpt lat="45.3149268131664" lon="8.349136691341569"><ele>135.0</ele><time>2026-04-06T14:16:44Z</time></trkpt><trkpt lat="45.3147953425445" lon="8.349144783777913"><ele>135.2</ele><time>2026-04-06T14:16:45Z</time></trkpt><trkpt lat="45.31466741119724" lon="8.34913376061358"><ele>135.4</ele><time>2026-04-06T14:16:46Z</time></trkpt><trkpt lat="45.314550518437194" lon="8.349117625497875"><ele>135.6</ele><time>2026-04-06T14:16:47Z</time></trkpt><trkpt lat="45.314444345122254" lon="8.349096441315034"><ele>135.8</ele><time>2026-04-06T14:16:48Z</time></trkpt><trkpt lat="45.31434911165036" lon="8.34907768702707"><ele>136.0</ele><time>2026-04-06T14:16:49Z</time></trkpt><trkpt lat="45.31426077990918" lon="8.349063096620817"><ele>136.0</ele><time>2026-04-06T14:16:50Z</time></trkpt><trkpt lat="45.31417822025624" lon="8.349049459668532"><ele>136.0</ele><time>2026-04-06T14:16:51Z</time></trkpt><trkpt lat="45.31409689342582" lon="8.349036026329511"><ele>136.0</ele><time>2026-04-06T14:16:52Z</time></trkpt><trkpt lat="45.31402479119162" lon="8.349023449384324"><ele>136.0</ele><time>2026-04-06T14:16:53Z</time></trkpt><trkpt lat="45.313921711210575" lon="8.34900343257669"><ele>136.0</ele><time>2026-04-06T14:16:55Z</time></trkpt><trkpt lat="45.31385165508479" lon="8.348995352319095"><ele>136.0</ele><time>2026-04-06T14:16:57Z</time></trkpt><trkpt lat="45.31383825445952" lon="8.348879008514817"><ele>136.14285714285714</ele><time>2026-04-06T14:17:01Z</time></trkpt><trkpt lat="45.31387328943242" lon="8.348794469012995"><ele>136.28571428571428</ele><time>2026-04-06T14:17:05Z</time></trkpt><trkpt lat="45.313873682792" lon="8.348699883577737"><ele>136.42857142857144</ele><time>2026-04-06T14:17:10Z</time></trkpt><trkpt lat="45.31382696829995" lon="8.348638980989598"><ele>136.57142857142856</ele><time>2026-04-06T14:17:38.001Z</time></trkpt><trkpt lat="45.31376513398015" lon="8.348619808617855"><ele>136.71428571428572</ele><time>2026-04-06T14:20:01Z</time></trkpt><trkpt lat="45.31370001149535" lon="8.348601956783337"><ele>136.85714285714286</ele><time>2026-04-06T14:20:08Z</time></trkpt><trkpt lat="45.313648959527534" lon="8.34858574113768"><ele>137.0</ele><time>2026-04-06T14:22:50Z</time></trkpt><trkpt lat="45.31362582407255" lon="8.348447316345359"><ele>137.0</ele><time>2026-04-06T14:22:51Z</time></trkpt><trkpt lat="45.31361156376094" lon="8.348356555513941"><ele>137.0</ele><time>2026-04-06T14:22:52Z</time></trkpt><trkpt lat="45.313639202166556" lon="8.348473408161713"><ele>137.0</ele><time>2026-04-06T14:23:00Z</time></trkpt><trkpt lat="45.313653090804465" lon="8.348562152017545"><ele>137.0</ele><time>2026-04-06T14:23:08.999Z</time></trkpt></trkseg></trk></gpx>